<?xml version='1.0' encoding='UTF-8'?><gpx version="1.1" creator="JPX - https://github.com/jenetics/jpx" xmlns="http://www.topografix.com/GPX/1/1"><trk><trkseg><trkpt lat="45.014439138530605" lon="8.549640247159221"><ele>132.0</ele><time>2026-04-18T09:39:33.999Z</time></trkpt><trkpt lat="45.01455679712618" lon="8.54956196796399"><ele>132.0</ele><time>2026-04-18T09:39:36.999Z</time></trkpt><trkpt lat="45.01461008499989" lon="8.549493725639437"><ele>132.0</ele><time>2026-04-18T09:39:37.999Z</time></trkpt><trkpt lat="45.01465718057316" lon="8.549432309346932"><ele>132.0</ele><time>2026-04-18T09:39:38.999Z</time></trkpt><trkpt lat="45.01472579028532" lon="8.54940134787912"><ele>132.0</ele><time>2026-04-18T09:39:39.999Z</time></trkpt><trkpt lat="45.014811331474135" lon="8.549298334097324"><ele>131.66666666666666</ele><time>2026-04-18T09:39:40.999Z</time></trkpt><trkpt lat="45.01494043444721" lon="8.549142860573104"><ele>131.33333333333331</ele><time>2026-04-18T09:39:41.999Z</time></trkpt><trkpt lat="45.01508675554067" lon="8.548953220027125"><ele>131.0</ele><time>2026-04-18T09:39:42.999Z</time></trkpt><trkpt lat="45.015244751969625" lon="8.548771304850145"><ele>130.66666666666666</ele><time>2026-04-18T09:39:43.999Z</time></trkpt><trkpt lat="45.0153951943595" lon="8.548587339854064"><ele>130.33333333333334</ele><time>2026-04-18T09:39:44.999Z</time></trkpt><trkpt lat="45.015552022847295" lon="8.548396030239488"><ele>130.0</ele><time>2026-04-18T09:39:45.999Z</time></trkpt><trkpt lat="45.015708260887145" lon="8.548205877170176"><ele>130.0</ele><time>2026-04-18T09:39:46.999Z</time></trkpt><trkpt lat="45.01586350158663" lon="8.548021112418471"><ele>130.0</ele><time>2026-04-18T09:39:47.999Z</time></trkpt><trkpt lat="45.01601730801071" lon="8.547837273819253"><ele>130.0</ele><time>2026-04-18T09:39:48.999Z</time></trkpt><trkpt lat="45.016171307541384" lon="8.547651304752664"><ele>130.0</ele><time>2026-04-18T09:39:49.999Z</time></trkpt><trkpt lat="45.01632010034294" lon="8.54746884782524"><ele>130.0</ele><time>2026-04-18T09:39:50.999Z</time></trkpt><trkpt lat="45.01647014725531" lon="8.54728795497273"><ele>130.0</ele><time>2026-04-18T09:39:51.999Z</time></trkpt><trkpt lat="45.0166269406023" lon="8.547101840887533"><ele>129.33333333333334</ele><time>2026-04-18T09:39:52.999Z</time></trkpt><trkpt lat="45.016767912285744" lon="8.546932267443502"><ele>128.66666666666666</ele><time>2026-04-18T09:39:53.999Z</time></trkpt><trkpt lat="45.01689740571131" lon="8.546778369048477"><ele>128.0</ele><time>2026-04-18T09:39:54.998Z</time></trkpt><trkpt lat="45.01701786038157" lon="8.546632007347805"><ele>128.0</ele><time>2026-04-18T09:39:55.998Z</time></trkpt><trkpt lat="45.01716933633652" lon="8.546445053056901"><ele>128.0</ele><time>2026-04-18T09:39:56.998Z</time></trkpt><trkpt lat="45.017374640196024" lon="8.546195218082417"><ele>124.5</ele><time>2026-04-18T09:39:57.998Z</time></trkpt><trkpt lat="45.01761940686775" lon="8.54590275008342"><ele>121.0</ele><time>2026-04-18T09:39:58.998Z</time></trkpt><trkpt lat="45.017874649398834" lon="8.545592132966119"><ele>121.5</ele><time>2026-04-18T09:39:59.998Z</time></trkpt><trkpt lat="45.01811194261285" lon="8.545323970386686"><ele>122.0</ele><time>2026-04-18T09:40:00.998Z</time></trkpt><trkpt lat="45.01831512854079" lon="8.545080559268994"><ele>121.5</ele><time>2026-04-18T09:40:01.998Z</time></trkpt><trkpt lat="45.01850803175141" lon="8.544849263208736"><ele>121.0</ele><time>2026-04-18T09:40:02.998Z</time></trkpt><trkpt lat="45.01871384434432" lon="8.544602330663885"><ele>122.0</ele><time>2026-04-18T09:40:03.998Z</time></trkpt><trkpt lat="45.01895362313208" lon="8.544314644076984"><ele>123.0</ele><time>2026-04-18T09:40:04.998Z</time></trkpt><trkpt lat="45.019218111306465" lon="8.543997292656195"><ele>123.5</ele><time>2026-04-18T09:40:05.998Z</time></trkpt><trkpt lat="45.0195005021192" lon="8.543658243259761"><ele>124.0</ele><time>2026-04-18T09:40:06.998Z</time></trkpt><trkpt lat="45.01979817269142" lon="8.543300848499896"><ele>122.0</ele><time>2026-04-18T09:40:07.998Z</time></trkpt><trkpt lat="45.02007031383919" lon="8.542974105301743"><ele>120.0</ele><time>2026-04-18T09:40:08.998Z</time></trkpt><trkpt lat="45.02030550541018" lon="8.542669339025423"><ele>120.0</ele><time>2026-04-18T09:40:09.998Z</time></trkpt><trkpt lat="45.020534582969965" lon="8.542407081837714"><ele>120.0</ele><time>2026-04-18T09:40:10.998Z</time></trkpt><trkpt lat="45.020731869919445" lon="8.542171711932129"><ele>120.33333333333334</ele><time>2026-04-18T09:40:11.998Z</time></trkpt><trkpt lat="45.02089944035082" lon="8.541963989303694"><ele>120.66666666666667</ele><time>2026-04-18T09:40:12.998Z</time></trkpt><trkpt lat="45.021058696017676" lon="8.541768418908585"><ele>121.0</ele><time>2026-04-18T09:40:13.998Z</time></trkpt><trkpt lat="45.02121254409309" lon="8.541584898710902"><ele>121.0</ele><time>2026-04-18T09:40:14.998Z</time></trkpt><trkpt lat="45.021358350797925" lon="8.54141345865287"><ele>121.0</ele><time>2026-04-18T09:40:15.998Z</time></trkpt><trkpt lat="45.02149466681083" lon="8.541254798615046"><ele>121.0</ele><time>2026-04-18T09:40:16.998Z</time></trkpt><trkpt lat="45.021623944047974" lon="8.541099241277392"><ele>121.0</ele><time>2026-04-18T09:40:17.998Z</time></trkpt><trkpt lat="45.021745223191246" lon="8.540948714695745"><ele>121.0</ele><time>2026-04-18T09:40:18.998Z</time></trkpt><trkpt lat="45.0218540790466" lon="8.54082327697108"><ele>121.0</ele><time>2026-04-18T09:40:19.998Z</time></trkpt><trkpt lat="45.0219567871562" lon="8.540695185956036"><ele>121.0</ele><time>2026-04-18T09:40:20.998Z</time></trkpt><trkpt lat="45.02207098866971" lon="8.540558435797182"><ele>121.0</ele><time>2026-04-18T09:40:21.998Z</time></trkpt><trkpt lat="45.0221927205623" lon="8.540421881607415"><ele>121.0</ele><time>2026-04-18T09:40:22.998Z</time></trkpt><trkpt lat="45.02231835207916" lon="8.540270965846762"><ele>121.0</ele><time>2026-04-18T09:40:23.998Z</time></trkpt><trkpt lat="45.022428628415604" lon="8.540137488494992"><ele>121.5</ele><time>2026-04-18T09:40:24.998Z</time></trkpt><trkpt lat="45.02253087139069" lon="8.540021417261842"><ele>122.0</ele><time>2026-04-18T09:40:25.998Z</time></trkpt><trkpt lat="45.02263068279982" lon="8.539896243689716"><ele>122.5</ele><time>2026-04-18T09:40:26.998Z</time></trkpt><trkpt lat="45.0227466633358" lon="8.53975713074746"><ele>123.0</ele><time>2026-04-18T09:40:27.998Z</time></trkpt><trkpt lat="45.02286262617996" lon="8.539613582801834"><ele>123.0</ele><time>2026-04-18T09:40:28.998Z</time></trkpt><trkpt lat="45.02297683096584" lon="8.539477073848053"><ele>123.0</ele><time>2026-04-18T09:40:29.998Z</time></trkpt><trkpt lat="45.023089041284024" lon="8.539340988731393"><ele>123.0</ele><time>2026-04-18T09:40:30.998Z</time></trkpt><trkpt lat="45.02324428637344" lon="8.539153405222857"><ele>124.0</ele><time>2026-04-18T09:40:31.998Z</time></trkpt><trkpt lat="45.02344742272612" lon="8.53891238133976"><ele>125.0</ele><time>2026-04-18T09:40:32.998Z</time></trkpt><trkpt lat="45.023663820723705" lon="8.538641181055288"><ele>125.0</ele><time>2026-04-18T09:40:33.998Z</time></trkpt><trkpt lat="45.02391547884807" lon="8.53834040073638"><ele>125.0</ele><time>2026-04-18T09:40:34.998Z</time></trkpt><trkpt lat="45.024176165155005" lon="8.538024161680623"><ele>126.0</ele><time>2026-04-18T09:40:36Z</time></trkpt><trkpt lat="45.024440856013285" lon="8.537696654434"><ele>127.0</ele><time>2026-04-18T09:40:37Z</time></trkpt><trkpt lat="45.0247166730827" lon="8.537338530668375"><ele>126.0</ele><time>2026-04-18T09:40:38Z</time></trkpt><trkpt lat="45.02499935833533" lon="8.536984806431777"><ele>125.0</ele><time>2026-04-18T09:40:39Z</time></trkpt><trkpt lat="45.0253000489226" lon="8.536636666514354"><ele>125.0</ele><time>2026-04-18T09:40:40Z</time></trkpt><trkpt lat="45.025612462228985" lon="8.536264217755013"><ele>125.0</ele><time>2026-04-18T09:40:41Z</time></trkpt><trkpt lat="45.0259333091058" lon="8.535885838019043"><ele>124.5</ele><time>2026-04-18T09:40:42Z</time></trkpt><trkpt lat="45.02625381146757" lon="8.535501357042376"><ele>124.0</ele><time>2026-04-18T09:40:43Z</time></trkpt><trkpt lat="45.02657156139581" lon="8.535115643475477"><ele>124.0</ele><time>2026-04-18T09:40:44Z</time></trkpt><trkpt lat="45.02684622207916" lon="8.534791311132322"><ele>124.0</ele><time>2026-04-18T09:40:45Z</time></trkpt><trkpt lat="45.02709360443739" lon="8.534493810466033"><ele>124.0</ele><time>2026-04-18T09:40:46Z</time></trkpt><trkpt lat="45.02730010832094" lon="8.534248741119574"><ele>124.0</ele><time>2026-04-18T09:40:47Z</time></trkpt><trkpt lat="45.02748778949522" lon="8.534027501425179"><ele>123.66666666666667</ele><time>2026-04-18T09:40:48Z</time></trkpt><trkpt lat="45.02765067477038" lon="8.533834110329265"><ele>123.33333333333334</ele><time>2026-04-18T09:40:49Z</time></trkpt><trkpt lat="45.027791998552075" lon="8.533664434996911"><ele>123.0</ele><time>2026-04-18T09:40:50Z</time></trkpt><trkpt lat="45.02792840594897" lon="8.53350132438476"><ele>122.66666666666666</ele><time>2026-04-18T09:40:51Z</time></trkpt><trkpt lat="45.02805926392761" lon="8.533345509890376"><ele>122.33333333333333</ele><time>2026-04-18T09:40:52Z</time></trkpt><trkpt lat="45.02817963227541" lon="8.533199681543154"><ele>122.0</ele><time>2026-04-18T09:40:53Z</time></trkpt><trkpt lat="45.02830229241845" lon="8.53305219670925"><ele>122.0</ele><time>2026-04-18T09:40:54Z</time></trkpt><trkpt lat="45.02841047350521" lon="8.532923089113966"><ele>122.0</ele><time>2026-04-18T09:40:55Z</time></trkpt><trkpt lat="45.02852212830513" lon="8.532787474349714"><ele>122.0</ele><time>2026-04-18T09:40:56Z</time></trkpt><trkpt lat="45.02862577392981" lon="8.532664014676218"><ele>122.0</ele><time>2026-04-18T09:40:57Z</time></trkpt><trkpt lat="45.028724243303465" lon="8.532546099765232"><ele>122.5</ele><time>2026-04-18T09:40:58Z</time></trkpt><trkpt lat="45.028832387917845" lon="8.53241794873079"><ele>123.0</ele><time>2026-04-18T09:40:59Z</time></trkpt><trkpt lat="45.028946298206755" lon="8.532280616351306"><ele>123.5</ele><time>2026-04-18T09:41:00Z</time></trkpt><trkpt lat="45.02905883032503" lon="8.532143727356505"><ele>124.0</ele><time>2026-04-18T09:41:01Z</time></trkpt><trkpt lat="45.02916813049496" lon="8.532008277216118"><ele>124.25</ele><time>2026-04-18T09:41:01.999Z</time></trkpt><trkpt lat="45.02927940496581" lon="8.531875294529167"><ele>124.5</ele><time>2026-04-18T09:41:02.999Z</time></trkpt><trkpt lat="45.02939120306344" lon="8.531744328108154"><ele>124.75</ele><time>2026-04-18T09:41:03.999Z</time></trkpt><trkpt lat="45.029501158599956" lon="8.531613993128317"><ele>125.0</ele><time>2026-04-18T09:41:04.999Z</time></trkpt><trkpt lat="45.02961048844024" lon="8.531475929159548"><ele>125.0</ele><time>2026-04-18T09:41:05.999Z</time></trkpt><trkpt lat="45.02971697135497" lon="8.531346967286343"><ele>125.0</ele><time>2026-04-18T09:41:06.999Z</time></trkpt><trkpt lat="45.02981977639397" lon="8.531224272486016"><ele>125.0</ele><time>2026-04-18T09:41:07.999Z</time></trkpt><trkpt lat="45.02991875608501" lon="8.531100203568903"><ele>125.0</ele><time>2026-04-18T09:41:08.999Z</time></trkpt><trkpt lat="45.03000980300938" lon="8.530994370934472"><ele>124.8</ele><time>2026-04-18T09:41:09.999Z</time></trkpt><trkpt lat="45.030092618860905" lon="8.530895139489475"><ele>124.6</ele><time>2026-04-18T09:41:10.999Z</time></trkpt><trkpt lat="45.030174733122436" lon="8.530798256079027"><ele>124.4</ele><time>2026-04-18T09:41:11.999Z</time></trkpt><trkpt lat="45.03025449061518" lon="8.530696665392023"><ele>124.2</ele><time>2026-04-18T09:41:12.999Z</time></trkpt><trkpt lat="45.030330165388435" lon="8.530607397816555"><ele>124.0</ele><time>2026-04-18T09:41:13.999Z</time></trkpt><trkpt lat="45.03040824079105" lon="8.53051969494799"><ele>124.0</ele><time>2026-04-18T09:41:14.999Z</time></trkpt><trkpt lat="45.030491707114976" lon="8.530417853447704"><ele>124.0</ele><time>2026-04-18T09:41:15.999Z</time></trkpt><trkpt lat="45.03058742791299" lon="8.530298303259173"><ele>124.0</ele><time>2026-04-18T09:41:16.999Z</time></trkpt><trkpt lat="45.030723393428325" lon="8.530137920341803"><ele>124.0</ele><time>2026-04-18T09:41:17.999Z</time></trkpt><trkpt lat="45.030875159405234" lon="8.529947481313064"><ele>124.33333333333334</ele><time>2026-04-18T09:41:18.999Z</time></trkpt><trkpt lat="45.03102403207163" lon="8.529763558476667"><ele>124.66666666666666</ele><time>2026-04-18T09:41:19.999Z</time></trkpt><trkpt lat="45.03117587742709" lon="8.529584328912861"><ele>125.0</ele><time>2026-04-18T09:41:20.999Z</time></trkpt><trkpt lat="45.03132134904767" lon="8.52941076666211"><ele>125.0</ele><time>2026-04-18T09:41:21.999Z</time></trkpt><trkpt lat="45.031457318974745" lon="8.529246943822619"><ele>125.0</ele><time>2026-04-18T09:41:22.999Z</time></trkpt><trkpt lat="45.031595534803" lon="8.529078426313829"><ele>125.0</ele><time>2026-04-18T09:41:23.999Z</time></trkpt><trkpt lat="45.031731424135145" lon="8.528914845005458"><ele>125.0</ele><time>2026-04-18T09:41:24.999Z</time></trkpt><trkpt lat="45.031870597431286" lon="8.528748073721312"><ele>125.0</ele><time>2026-04-18T09:41:25.999Z</time></trkpt><trkpt lat="45.032006396072404" lon="8.528584808820662"><ele>125.0</ele><time>2026-04-18T09:41:26.999Z</time></trkpt><trkpt lat="45.032131194134145" lon="8.528434081116211"><ele>125.33333333333333</ele><time>2026-04-18T09:41:27.999Z</time></trkpt><trkpt lat="45.03225035718271" lon="8.52829255543996"><ele>125.66666666666666</ele><time>2026-04-18T09:41:28.999Z</time></trkpt><trkpt lat="45.03236043619382" lon="8.528158820926814"><ele>126.0</ele><time>2026-04-18T09:41:29.999Z</time></trkpt><trkpt lat="45.03247615654527" lon="8.52802090106063"><ele>125.33333333333334</ele><time>2026-04-18T09:41:30.999Z</time></trkpt><trkpt lat="45.032598680128196" lon="8.5278737476966"><ele>124.66666666666667</ele><time>2026-04-18T09:41:31.999Z</time></trkpt><trkpt lat="45.03272171323459" lon="8.527721529181177"><ele>124.0</ele><time>2026-04-18T09:41:32.999Z</time></trkpt><trkpt lat="45.0328533685156" lon="8.52756337471951"><ele>124.0</ele><time>2026-04-18T09:41:33.999Z</time></trkpt><trkpt lat="45.03299245566903" lon="8.527401047052868"><ele>124.0</ele><time>2026-04-18T09:41:34.999Z</time></trkpt><trkpt lat="45.03312562746661" lon="8.527240378863155"><ele>124.0</ele><time>2026-04-18T09:41:35.999Z</time></trkpt><trkpt lat="45.0332627685765" lon="8.52707851227646"><ele>123.33333333333334</ele><time>2026-04-18T09:41:36.999Z</time></trkpt><trkpt lat="45.03340056082071" lon="8.52691569508716"><ele>122.66666666666666</ele><time>2026-04-18T09:41:37.999Z</time></trkpt><trkpt lat="45.0335332906323" lon="8.526752221939423"><ele>122.0</ele><time>2026-04-18T09:41:38.999Z</time></trkpt><trkpt lat="45.03366898126975" lon="8.526591124321744"><ele>122.0</ele><time>2026-04-18T09:41:39.999Z</time></trkpt><trkpt lat="45.033800335091854" lon="8.526441412692336"><ele>122.0</ele><time>2026-04-18T09:41:40.999Z</time></trkpt><trkpt lat="45.03392504850863" lon="8.526290893687133"><ele>122.0</ele><time>2026-04-18T09:41:41.999Z</time></trkpt><trkpt lat="45.034045442933376" lon="8.526152986194873"><ele>122.0</ele><time>2026-04-18T09:41:42.999Z</time></trkpt><trkpt lat="45.03416541893372" lon="8.526015536538363"><ele>122.0</ele><time>2026-04-18T09:41:43.999Z</time></trkpt><trkpt lat="45.03428704627267" lon="8.525866664851364"><ele>122.0</ele><time>2026-04-18T09:41:44.999Z</time></trkpt><trkpt lat="45.03439827094546" lon="8.525711491091952"><ele>122.0</ele><time>2026-04-18T09:41:45.999Z</time></trkpt><trkpt lat="45.0344989011054" lon="8.525545336713801"><ele>122.0</ele><time>2026-04-18T09:41:46.999Z</time></trkpt><trkpt lat="45.03459177417744" lon="8.525368340920272"><ele>122.0</ele><time>2026-04-18T09:41:47.999Z</time></trkpt><trkpt lat="45.03468426466003" lon="8.525184553115196"><ele>122.0</ele><time>2026-04-18T09:41:48.999Z</time></trkpt><trkpt lat="45.03477134073385" lon="8.52501874107525"><ele>122.0</ele><time>2026-04-18T09:41:49.999Z</time></trkpt><trkpt lat="45.03485579278013" lon="8.524868136399304"><ele>122.0</ele><time>2026-04-18T09:41:50.999Z</time></trkpt><trkpt lat="45.03493973441642" lon="8.524716718202859"><ele>122.0</ele><time>2026-04-18T09:41:51.999Z</time></trkpt><trkpt lat="45.035013727396226" lon="8.52458219644887"><ele>121.19999999999999</ele><time>2026-04-18T09:41:52.999Z</time></trkpt><trkpt lat="45.035089059733956" lon="8.524444533559155"><ele>120.39999999999999</ele><time>2026-04-18T09:41:53.999Z</time></trkpt><trkpt lat="45.03515660167523" lon="8.524312051018159"><ele>119.60000000000001</ele><time>2026-04-18T09:41:54.999Z</time></trkpt><trkpt lat="45.035224282589745" lon="8.524186681106395"><ele>118.80000000000001</ele><time>2026-04-18T09:41:55.999Z</time></trkpt><trkpt lat="45.03529856331705" lon="8.524116303264618"><ele>118.0</ele><time>2026-04-18T09:41:56.999Z</time></trkpt><trkpt lat="45.0353653200247" lon="8.524098238129604"><ele>118.0</ele><time>2026-04-18T09:41:57.999Z</time></trkpt><trkpt lat="45.035441440524856" lon="8.524100065261955"><ele>118.00000000000001</ele><time>2026-04-18T09:41:58.998Z</time></trkpt><trkpt lat="45.03550716698425" lon="8.524131468848854"><ele>118.00000000000001</ele><time>2026-04-18T09:41:59.998Z</time></trkpt><trkpt lat="45.03560793304381" lon="8.524265309844408"><ele>118.0</ele><time>2026-04-18T09:42:01.998Z</time></trkpt><trkpt lat="45.035653725528995" lon="8.52441590495122"><ele>118.0</ele><time>2026-04-18T09:42:02.998Z</time></trkpt><trkpt lat="45.03574200885871" lon="8.52458499315505"><ele>118.0</ele><time>2026-04-18T09:42:03.998Z</time></trkpt><trkpt lat="45.03584023117693" lon="8.524784934940865"><ele>118.0</ele><time>2026-04-18T09:42:04.998Z</time></trkpt><trkpt lat="45.03597298788622" lon="8.524959602490615"><ele>118.0</ele><time>2026-04-18T09:42:05.998Z</time></trkpt><trkpt lat="45.036128918587906" lon="8.525097365323614"><ele>118.0</ele><time>2026-04-18T09:42:06.998Z</time></trkpt><trkpt lat="45.03627610551665" lon="8.525202247146483"><ele>118.0</ele><time>2026-04-18T09:42:07.998Z</time></trkpt><trkpt lat="45.036392483664834" lon="8.525308930111303"><ele>118.0</ele><time>2026-04-18T09:42:08.998Z</time></trkpt><trkpt lat="45.036525649402684" lon="8.525342586922736"><ele>118.0</ele><time>2026-04-18T09:42:09.998Z</time></trkpt><trkpt lat="45.036644459454365" lon="8.525361456904719"><ele>118.0</ele><time>2026-04-18T09:42:10.998Z</time></trkpt><trkpt lat="45.03676441123241" lon="8.525358779562454"><ele>118.0</ele><time>2026-04-18T09:42:11.998Z</time></trkpt><trkpt lat="45.03691157911516" lon="8.525350709582462"><ele>118.0</ele><time>2026-04-18T09:42:12.998Z</time></trkpt><trkpt lat="45.037090252599086" lon="8.525342660142732"><ele>118.0</ele><time>2026-04-18T09:42:13.998Z</time></trkpt><trkpt lat="45.0372426429472" lon="8.525340391398897"><ele>118.0</ele><time>2026-04-18T09:42:14.998Z</time></trkpt><trkpt lat="45.03736870958356" lon="8.525338904846882"><ele>118.0</ele><time>2026-04-18T09:42:15.998Z</time></trkpt><trkpt lat="45.037484061331085" lon="8.525335378569862"><ele>118.0</ele><time>2026-04-18T09:42:16.998Z</time></trkpt><trkpt lat="45.03758444417206" lon="8.525333202953327"><ele>118.0</ele><time>2026-04-18T09:42:17.998Z</time></trkpt><trkpt lat="45.03769649605564" lon="8.525331612899656"><ele>119.5</ele><time>2026-04-18T09:42:18.998Z</time></trkpt><trkpt lat="45.03781564019365" lon="8.525330551858334"><ele>121.0</ele><time>2026-04-18T09:42:19.998Z</time></trkpt><trkpt lat="45.0379363111452" lon="8.525352618506773"><ele>122.5</ele><time>2026-04-18T09:42:20.998Z</time></trkpt><trkpt lat="45.03805129638323" lon="8.525351134980834"><ele>124.0</ele><time>2026-04-18T09:42:21.998Z</time></trkpt><trkpt lat="45.03817156076456" lon="8.525348634677163"><ele>124.0</ele><time>2026-04-18T09:42:22.998Z</time></trkpt><trkpt lat="45.03830059472859" lon="8.525324710592976"><ele>124.0</ele><time>2026-04-18T09:42:23.998Z</time></trkpt><trkpt lat="45.03843651505819" lon="8.52530900713735"><ele>124.0</ele><time>2026-04-18T09:42:24.998Z</time></trkpt><trkpt lat="45.0385839817169" lon="8.52526403178496"><ele>124.0</ele><time>2026-04-18T09:42:25.998Z</time></trkpt><trkpt lat="45.038730389879426" lon="8.52518768375251"><ele>124.0</ele><time>2026-04-18T09:42:26.998Z</time></trkpt><trkpt lat="45.03887951034289" lon="8.525093110240464"><ele>124.0</ele><time>2026-04-18T09:42:27.998Z</time></trkpt><trkpt lat="45.039023362678485" lon="8.524987759729823"><ele>124.0</ele><time>2026-04-18T09:42:28.998Z</time></trkpt><trkpt lat="45.039176224370756" lon="8.524871621354027"><ele>124.0</ele><time>2026-04-18T09:42:29.998Z</time></trkpt><trkpt lat="45.039318862345375" lon="8.524760496138159"><ele>124.0</ele><time>2026-04-18T09:42:30.998Z</time></trkpt><trkpt lat="45.03946479556811" lon="8.524653242022296"><ele>124.0</ele><time>2026-04-18T09:42:31.998Z</time></trkpt><trkpt lat="45.0396088548164" lon="8.524542510221416"><ele>124.0</ele><time>2026-04-18T09:42:32.998Z</time></trkpt><trkpt lat="45.03975573153809" lon="8.52442839151401"><ele>124.0</ele><time>2026-04-18T09:42:33.998Z</time></trkpt><trkpt lat="45.03991352350687" lon="8.524335944712858"><ele>124.0</ele><time>2026-04-18T09:42:34.998Z</time></trkpt><trkpt lat="45.04006665274828" lon="8.524194751973619"><ele>123.33333333333334</ele><time>2026-04-18T09:42:35.998Z</time></trkpt><trkpt lat="45.04024861291573" lon="8.52406078416659"><ele>122.66666666666666</ele><time>2026-04-18T09:42:36.998Z</time></trkpt><trkpt lat="45.04043734777796" lon="8.523918963742197"><ele>122.0</ele><time>2026-04-18T09:42:37.998Z</time></trkpt><trkpt lat="45.04062963999835" lon="8.523773170814296"><ele>120.0</ele><time>2026-04-18T09:42:38.998Z</time></trkpt><trkpt lat="45.04082677387804" lon="8.523621521307648"><ele>118.0</ele><time>2026-04-18T09:42:39.998Z</time></trkpt><trkpt lat="45.041025976093664" lon="8.523468834445435"><ele>118.0</ele><time>2026-04-18T09:42:40.998Z</time></trkpt><trkpt lat="45.04121470486305" lon="8.523328417033666"><ele>118.0</ele><time>2026-04-18T09:42:42Z</time></trkpt><trkpt lat="45.04139860671946" lon="8.523188984764822"><ele>118.0</ele><time>2026-04-18T09:42:43Z</time></trkpt><trkpt lat="45.0415847369685" lon="8.523045815828386"><ele>117.33333333333334</ele><time>2026-04-18T09:42:44Z</time></trkpt><trkpt lat="45.04177405056522" lon="8.522901435140515"><ele>116.66666666666666</ele><time>2026-04-18T09:42:45Z</time></trkpt><trkpt lat="45.04197480298328" lon="8.522775806765775"><ele>116.0</ele><time>2026-04-18T09:42:46Z</time></trkpt><trkpt lat="45.04215690286962" lon="8.522613603333298"><ele>116.0</ele><time>2026-04-18T09:42:47Z</time></trkpt><trkpt lat="45.04234384074092" lon="8.522473963003188"><ele>116.0</ele><time>2026-04-18T09:42:48Z</time></trkpt><trkpt lat="45.042531134704156" lon="8.52233623738018"><ele>116.0</ele><time>2026-04-18T09:42:49Z</time></trkpt><trkpt lat="45.04271397106905" lon="8.52220105599056"><ele>115.0</ele><time>2026-04-18T09:42:50Z</time></trkpt><trkpt lat="45.042898825804016" lon="8.52205727416025"><ele>114.0</ele><time>2026-04-18T09:42:51Z</time></trkpt><trkpt lat="45.0430964027339" lon="8.521930581821387"><ele>113.0</ele><time>2026-04-18T09:42:52Z</time></trkpt><trkpt lat="45.04326458285114" lon="8.521779524924014"><ele>112.0</ele><time>2026-04-18T09:42:53Z</time></trkpt><trkpt lat="45.04343622859265" lon="8.521653080917076"><ele>111.0</ele><time>2026-04-18T09:42:54Z</time></trkpt><trkpt lat="45.04361725185662" lon="8.521516519082128"><ele>110.0</ele><time>2026-04-18T09:42:55Z</time></trkpt><trkpt lat="45.043795238103286" lon="8.521384111330633"><ele>110.0</ele><time>2026-04-18T09:42:56Z</time></trkpt><trkpt lat="45.04397475603518" lon="8.521246951624207"><ele>110.0</ele><time>2026-04-18T09:42:57Z</time></trkpt><trkpt lat="45.044148950819185" lon="8.521116103801644"><ele>110.0</ele><time>2026-04-18T09:42:58Z</time></trkpt><trkpt lat="45.04432902359732" lon="8.520978366517149"><ele>109.33333333333333</ele><time>2026-04-18T09:42:59Z</time></trkpt><trkpt lat="45.044509638705854" lon="8.52084542091864"><ele>108.66666666666666</ele><time>2026-04-18T09:43:00Z</time></trkpt><trkpt lat="45.044692630005" lon="8.520709073213956"><ele>108.0</ele><time>2026-04-18T09:43:01Z</time></trkpt><trkpt lat="45.04487523480826" lon="8.520570298724905"><ele>108.0</ele><time>2026-04-18T09:43:02Z</time></trkpt><trkpt lat="45.04506051349521" lon="8.520430224310408"><ele>108.0</ele><time>2026-04-18T09:43:03Z</time></trkpt><trkpt lat="45.04524462831961" lon="8.520293737776532"><ele>108.0</ele><time>2026-04-18T09:43:04Z</time></trkpt><trkpt lat="45.04543081386262" lon="8.520151876110072"><ele>108.33333333333334</ele><time>2026-04-18T09:43:05Z</time></trkpt><trkpt lat="45.04561489541198" lon="8.520011841568268"><ele>108.66666666666667</ele><time>2026-04-18T09:43:06Z</time></trkpt><trkpt lat="45.045801042206215" lon="8.519872536642337"><ele>109.0</ele><time>2026-04-18T09:43:07Z</time></trkpt><trkpt lat="45.04599144838298" lon="8.519722352597045"><ele>109.0</ele><time>2026-04-18T09:43:08Z</time></trkpt><trkpt lat="45.046175943791944" lon="8.51957601754452"><ele>109.0</ele><time>2026-04-18T09:43:09Z</time></trkpt><trkpt lat="45.04637638599158" lon="8.519448298874453"><ele>109.0</ele><time>2026-04-18T09:43:10Z</time></trkpt><trkpt lat="45.046552633502195" lon="8.51929058259532"><ele>108.66666666666667</ele><time>2026-04-18T09:43:11Z</time></trkpt><trkpt lat="45.04674440829726" lon="8.519144070644538"><ele>108.33333333333334</ele><time>2026-04-18T09:43:12Z</time></trkpt><trkpt lat="45.046935151516905" lon="8.519004333945421"><ele>108.0</ele><time>2026-04-18T09:43:13Z</time></trkpt><trkpt lat="45.047130894414565" lon="8.518856440490817"><ele>108.0</ele><time>2026-04-18T09:43:14Z</time></trkpt><trkpt lat="45.047323058510514" lon="8.518711666511702"><ele>108.0</ele><time>2026-04-18T09:43:15Z</time></trkpt><trkpt lat="45.047513345501706" lon="8.51857196941521"><ele>108.0</ele><time>2026-04-18T09:43:16Z</time></trkpt><trkpt lat="45.04770032885945" lon="8.518434267126926"><ele>107.66666666666666</ele><time>2026-04-18T09:43:17Z</time></trkpt><trkpt lat="45.04788922237644" lon="8.518290547323698"><ele>107.33333333333333</ele><time>2026-04-18T09:43:18Z</time></trkpt><trkpt lat="45.04807432047033" lon="8.518147989984891"><ele>107.0</ele><time>2026-04-18T09:43:19Z</time></trkpt><trkpt lat="45.0482547716578" lon="8.518014353604258"><ele>107.0</ele><time>2026-04-18T09:43:20Z</time></trkpt><trkpt lat="45.04844398749316" lon="8.517868151923341"><ele>107.0</ele><time>2026-04-18T09:43:21Z</time></trkpt><trkpt lat="45.04863206563432" lon="8.517724261622451"><ele>107.0</ele><time>2026-04-18T09:43:22Z</time></trkpt><trkpt lat="45.04881804489365" lon="8.517584028913124"><ele>107.0</ele><time>2026-04-18T09:43:23Z</time></trkpt><trkpt lat="45.049009279365144" lon="8.517437070077985"><ele>107.0</ele><time>2026-04-18T09:43:24Z</time></trkpt><trkpt lat="45.04919561092814" lon="8.517294647788788"><ele>107.0</ele><time>2026-04-18T09:43:25Z</time></trkpt><trkpt lat="45.049380391342574" lon="8.517153205169482"><ele>107.0</ele><time>2026-04-18T09:43:25.999Z</time></trkpt><trkpt lat="45.04957821701668" lon="8.517025462914734"><ele>107.0</ele><time>2026-04-18T09:43:26.999Z</time></trkpt><trkpt lat="45.04976345289367" lon="8.516885732396762"><ele>107.0</ele><time>2026-04-18T09:43:27.999Z</time></trkpt><trkpt lat="45.04994415151861" lon="8.51672281480025"><ele>107.33333333333333</ele><time>2026-04-18T09:43:28.999Z</time></trkpt><trkpt lat="45.05013870100701" lon="8.516602668379647"><ele>107.66666666666666</ele><time>2026-04-18T09:43:29.999Z</time></trkpt><trkpt lat="45.050331088253884" lon="8.516457543535777"><ele>108.0</ele><time>2026-04-18T09:43:30.999Z</time></trkpt><trkpt lat="45.050520156580184" lon="8.516314922555674"><ele>108.33333333333334</ele><time>2026-04-18T09:43:31.999Z</time></trkpt><trkpt lat="45.050697976601896" lon="8.516159358495537"><ele>108.66666666666667</ele><time>2026-04-18T09:43:32.999Z</time></trkpt><trkpt lat="45.05088871745761" lon="8.516018867479222"><ele>109.0</ele><time>2026-04-18T09:43:33.999Z</time></trkpt><trkpt lat="45.051081038605744" lon="8.515872412054415"><ele>109.0</ele><time>2026-04-18T09:43:34.999Z</time></trkpt><trkpt lat="45.05126994657733" lon="8.515732532773068"><ele>109.0</ele><time>2026-04-18T09:43:35.998Z</time></trkpt><trkpt lat="45.051457839631006" lon="8.515580123144556"><ele>109.0</ele><time>2026-04-18T09:43:36.998Z</time></trkpt><trkpt lat="45.051641681433935" lon="8.515445515175092"><ele>109.0</ele><time>2026-04-18T09:43:37.998Z</time></trkpt><trkpt lat="45.051827083214796" lon="8.515301828209154"><ele>109.0</ele><time>2026-04-18T09:43:38.998Z</time></trkpt><trkpt lat="45.05201545052943" lon="8.515160371866397"><ele>109.0</ele><time>2026-04-18T09:43:39.998Z</time></trkpt><trkpt lat="45.05220328936671" lon="8.515016666924108"><ele>109.0</ele><time>2026-04-18T09:43:40.998Z</time></trkpt><trkpt lat="45.05239262630508" lon="8.51487166109736"><ele>109.0</ele><time>2026-04-18T09:43:41.998Z</time></trkpt><trkpt lat="45.052581020424725" lon="8.514732669120052"><ele>109.0</ele><time>2026-04-18T09:43:42.998Z</time></trkpt><trkpt lat="45.052770520936335" lon="8.514596168661326"><ele>108.66666666666667</ele><time>2026-04-18T09:43:43.998Z</time></trkpt><trkpt lat="45.052960341528824" lon="8.514457679566029"><ele>108.33333333333334</ele><time>2026-04-18T09:43:44.998Z</time></trkpt><trkpt lat="45.0531511313102" lon="8.514310440005112"><ele>108.0</ele><time>2026-04-18T09:43:45.998Z</time></trkpt><trkpt lat="45.053339117357396" lon="8.514165100888587"><ele>108.0</ele><time>2026-04-18T09:43:46.998Z</time></trkpt><trkpt lat="45.053525532480926" lon="8.51402407360072"><ele>108.0</ele><time>2026-04-18T09:43:47.998Z</time></trkpt><trkpt lat="45.05371533605235" lon="8.513874605283998"><ele>108.0</ele><time>2026-04-18T09:43:48.998Z</time></trkpt><trkpt lat="45.0539043859393" lon="8.513730976834502"><ele>108.0</ele><time>2026-04-18T09:43:49.998Z</time></trkpt><trkpt lat="45.05409306774645" lon="8.513590686452444"><ele>108.0</ele><time>2026-04-18T09:43:50.998Z</time></trkpt><trkpt lat="45.05428191870435" lon="8.51344968535832"><ele>108.0</ele><time>2026-04-18T09:43:51.998Z</time></trkpt><trkpt lat="45.05445271053824" lon="8.513313897180419"><ele>108.0</ele><time>2026-04-18T09:43:52.998Z</time></trkpt><trkpt lat="45.05461858140947" lon="8.513190316124689"><ele>108.0</ele><time>2026-04-18T09:43:53.998Z</time></trkpt><trkpt lat="45.054772273378724" lon="8.513076962494564"><ele>108.0</ele><time>2026-04-18T09:43:54.998Z</time></trkpt><trkpt lat="45.054934546570834" lon="8.512957238628502"><ele>108.0</ele><time>2026-04-18T09:43:55.998Z</time></trkpt><trkpt lat="45.05510270374738" lon="8.512832324528832"><ele>108.0</ele><time>2026-04-18T09:43:56.998Z</time></trkpt><trkpt lat="45.0552738377906" lon="8.512700228882844"><ele>108.0</ele><time>2026-04-18T09:43:57.998Z</time></trkpt><trkpt lat="45.055446815040604" lon="8.512568195839005"><ele>108.0</ele><time>2026-04-18T09:43:58.998Z</time></trkpt><trkpt lat="45.05561611032314" lon="8.512439065550568"><ele>108.0</ele><time>2026-04-18T09:43:59.998Z</time></trkpt><trkpt lat="45.05576324580113" lon="8.512325484307256"><ele>108.0</ele><time>2026-04-18T09:44:00.998Z</time></trkpt><trkpt lat="45.05591780111208" lon="8.512206338625466"><ele>107.66666666666666</ele><time>2026-04-18T09:44:01.998Z</time></trkpt><trkpt lat="45.056079514570975" lon="8.512085059167534"><ele>107.33333333333333</ele><time>2026-04-18T09:44:02.998Z</time></trkpt><trkpt lat="45.056245243058804" lon="8.511961809607003"><ele>107.0</ele><time>2026-04-18T09:44:03.998Z</time></trkpt><trkpt lat="45.05641576702105" lon="8.511837095205864"><ele>107.0</ele><time>2026-04-18T09:44:04.998Z</time></trkpt><trkpt lat="45.056580802878884" lon="8.51171200313473"><ele>107.0</ele><time>2026-04-18T09:44:05.998Z</time></trkpt><trkpt lat="45.05674174185046" lon="8.511587545203346"><ele>107.0</ele><time>2026-04-18T09:44:06.998Z</time></trkpt><trkpt lat="45.056884874059584" lon="8.511477622387083"><ele>107.0</ele><time>2026-04-18T09:44:07.998Z</time></trkpt><trkpt lat="45.05703214533475" lon="8.51136736504839"><ele>107.0</ele><time>2026-04-18T09:44:08.998Z</time></trkpt><trkpt lat="45.05718938146341" lon="8.511249409290969"><ele>107.0</ele><time>2026-04-18T09:44:09.998Z</time></trkpt><trkpt lat="45.057343081565904" lon="8.5111341100351"><ele>108.0</ele><time>2026-04-18T09:44:10.998Z</time></trkpt><trkpt lat="45.05749866955001" lon="8.511014017201909"><ele>109.0</ele><time>2026-04-18T09:44:11.998Z</time></trkpt><trkpt lat="45.057654493389606" lon="8.510896741256992"><ele>110.0</ele><time>2026-04-18T09:44:12.998Z</time></trkpt><trkpt lat="45.057799273433595" lon="8.510788630268111"><ele>110.0</ele><time>2026-04-18T09:44:13.998Z</time></trkpt><trkpt lat="45.05793524419317" lon="8.51068354076941"><ele>110.0</ele><time>2026-04-18T09:44:14.998Z</time></trkpt><trkpt lat="45.05807152961114" lon="8.510581001730191"><ele>110.0</ele><time>2026-04-18T09:44:15.998Z</time></trkpt><trkpt lat="45.05821732728455" lon="8.510473211292721"><ele>110.0</ele><time>2026-04-18T09:44:16.998Z</time></trkpt><trkpt lat="45.05836171797069" lon="8.51036157125462"><ele>110.0</ele><time>2026-04-18T09:44:17.998Z</time></trkpt><trkpt lat="45.05849664510207" lon="8.5102613424673"><ele>110.0</ele><time>2026-04-18T09:44:18.998Z</time></trkpt><trkpt lat="45.05862860495393" lon="8.510158953630196"><ele>110.0</ele><time>2026-04-18T09:44:19.998Z</time></trkpt><trkpt lat="45.05875880023383" lon="8.510051041330625"><ele>110.0</ele><time>2026-04-18T09:44:20.998Z</time></trkpt><trkpt lat="45.05888414760528" lon="8.509933342080007"><ele>110.0</ele><time>2026-04-18T09:44:21.998Z</time></trkpt><trkpt lat="45.05899769602398" lon="8.509792802789594"><ele>110.0</ele><time>2026-04-18T09:44:22.998Z</time></trkpt><trkpt lat="45.059086724049074" lon="8.509623510543614"><ele>110.0</ele><time>2026-04-18T09:44:23.998Z</time></trkpt><trkpt lat="45.05915219236011" lon="8.509434609116713"><ele>110.0</ele><time>2026-04-18T09:44:24.998Z</time></trkpt><trkpt lat="45.05921634539671" lon="8.50923146134984"><ele>110.33333333333333</ele><time>2026-04-18T09:44:25.998Z</time></trkpt><trkpt lat="45.059283364951874" lon="8.509024000290543"><ele>110.66666666666666</ele><time>2026-04-18T09:44:26.998Z</time></trkpt><trkpt lat="45.05935469282193" lon="8.508812667323925"><ele>111.0</ele><time>2026-04-18T09:44:27.998Z</time></trkpt><trkpt lat="45.059421183337484" lon="8.508608635595875"><ele>111.0</ele><time>2026-04-18T09:44:28.998Z</time></trkpt><trkpt lat="45.05948290252845" lon="8.508409800912665"><ele>111.0</ele><time>2026-04-18T09:44:29.998Z</time></trkpt><trkpt lat="45.059540059200216" lon="8.508219200203595"><ele>111.0</ele><time>2026-04-18T09:44:30.998Z</time></trkpt><trkpt lat="45.05958520288057" lon="8.508055948716546"><ele>111.0</ele><time>2026-04-18T09:44:31.997Z</time></trkpt><trkpt lat="45.05962813698068" lon="8.507905496734617"><ele>111.25</ele><time>2026-04-18T09:44:32.997Z</time></trkpt><trkpt lat="45.05967008554748" lon="8.507756659221467"><ele>111.5</ele><time>2026-04-18T09:44:33.997Z</time></trkpt><trkpt lat="45.05971382667019" lon="8.507612628633233"><ele>111.75</ele><time>2026-04-18T09:44:34.997Z</time></trkpt><trkpt lat="45.05975961965164" lon="8.507460198100892"><ele>112.0</ele><time>2026-04-18T09:44:35.997Z</time></trkpt><trkpt lat="45.0598059256529" lon="8.507311370466295"><ele>112.00000000000001</ele><time>2026-04-18T09:44:36.997Z</time></trkpt><trkpt lat="45.05984922203908" lon="8.50716838180874"><ele>112.0</ele><time>2026-04-18T09:44:37.997Z</time></trkpt><trkpt lat="45.0598866884658" lon="8.50703773625074"><ele>112.0</ele><time>2026-04-18T09:44:38.997Z</time></trkpt><trkpt lat="45.05992561293065" lon="8.506951965243232"><ele>112.0</ele><time>2026-04-18T09:44:39.997Z</time></trkpt><trkpt lat="45.05996962104572" lon="8.506836655203347"><ele>112.00000000000001</ele><time>2026-04-18T09:44:41.997Z</time></trkpt><trkpt lat="45.0599934470381" lon="8.50675323660032"><ele>112.0</ele><time>2026-04-18T09:44:45.997Z</time></trkpt><trkpt lat="45.059988991908256" lon="8.50663673247542"><ele>112.6</ele><time>2026-04-18T09:45:53.999Z</time></trkpt><trkpt lat="45.06004515780486" lon="8.506488479581845"><ele>113.19999999999999</ele><time>2026-04-18T09:45:55.999Z</time></trkpt><trkpt lat="45.06008556900214" lon="8.506384393609938"><ele>113.8</ele><time>2026-04-18T09:45:56.999Z</time></trkpt><trkpt lat="45.06012316232264" lon="8.506267693989125"><ele>114.4</ele><time>2026-04-18T09:45:57.999Z</time></trkpt><trkpt lat="45.06017894212557" lon="8.506071607784705"><ele>115.0</ele><time>2026-04-18T09:45:58.999Z</time></trkpt><trkpt lat="45.06022483464458" lon="8.505903954594979"><ele>115.00000000000001</ele><time>2026-04-18T09:45:59.999Z</time></trkpt><trkpt lat="45.060263544895726" lon="8.505776613030324"><ele>115.0</ele><time>2026-04-18T09:46:00.999Z</time></trkpt><trkpt lat="45.0603017583751" lon="8.505663995623976"><ele>115.0</ele><time>2026-04-18T09:46:01.999Z</time></trkpt><trkpt lat="45.06033271993888" lon="8.50556474342667"><ele>115.0</ele><time>2026-04-18T09:46:02.999Z</time></trkpt><trkpt lat="45.06036179505744" lon="8.505469113544962"><ele>115.00000000000001</ele><time>2026-04-18T09:46:03.999Z</time></trkpt><trkpt lat="45.060395304303526" lon="8.505354088378716"><ele>115.0</ele><time>2026-04-18T09:46:04.999Z</time></trkpt><trkpt lat="45.060433144230444" lon="8.505217954162415"><ele>115.0</ele><time>2026-04-18T09:46:05.999Z</time></trkpt><trkpt lat="45.060473997516766" lon="8.505077886039103"><ele>115.0</ele><time>2026-04-18T09:46:06.999Z</time></trkpt><trkpt lat="45.0605197483679" lon="8.504933593035284"><ele>115.0</ele><time>2026-04-18T09:46:07.999Z</time></trkpt><trkpt lat="45.0605670275305" lon="8.504792444658548"><ele>115.0</ele><time>2026-04-18T09:46:08.999Z</time></trkpt><trkpt lat="45.06061544137838" lon="8.504658532216585"><ele>115.0</ele><time>2026-04-18T09:46:09.999Z</time></trkpt><trkpt lat="45.06066157368713" lon="8.504540374921602"><ele>114.83333333333334</ele><time>2026-04-18T09:46:10.999Z</time></trkpt><trkpt lat="45.060728018351675" lon="8.504465190628041"><ele>114.66666666666667</ele><time>2026-04-18T09:46:11.998Z</time></trkpt><trkpt lat="45.060772394189094" lon="8.504380463269433"><ele>114.5</ele><time>2026-04-18T09:46:12.998Z</time></trkpt><trkpt lat="45.06085659145123" lon="8.504373700765365"><ele>114.33333333333334</ele><time>2026-04-18T09:46:13.998Z</time></trkpt><trkpt lat="45.060947265053244" lon="8.504438897891745"><ele>114.16666666666667</ele><time>2026-04-18T09:46:14.998Z</time></trkpt><trkpt lat="45.061045220113925" lon="8.504466696020044"><ele>114.0</ele><time>2026-04-18T09:46:15.998Z</time></trkpt><trkpt lat="45.06113290287336" lon="8.5045236324459"><ele>114.0</ele><time>2026-04-18T09:46:16.998Z</time></trkpt><trkpt lat="45.06122209330973" lon="8.50459426707439"><ele>114.0</ele><time>2026-04-18T09:46:17.998Z</time></trkpt><trkpt lat="45.06131101017631" lon="8.504646346925664"><ele>114.0</ele><time>2026-04-18T09:46:18.998Z</time></trkpt><trkpt lat="45.06139878999043" lon="8.504698071661224"><ele>114.0</ele><time>2026-04-18T09:46:19.998Z</time></trkpt><trkpt lat="45.061486136225234" lon="8.504754689877311"><ele>114.0</ele><time>2026-04-18T09:46:20.998Z</time></trkpt><trkpt lat="45.06158287442886" lon="8.504795972661704"><ele>114.0</ele><time>2026-04-18T09:46:21.998Z</time></trkpt><trkpt lat="45.06166682830014" lon="8.504856705788299"><ele>114.0</ele><time>2026-04-18T09:46:22.998Z</time></trkpt><trkpt lat="45.061749939747365" lon="8.504918863402413"><ele>114.0</ele><time>2026-04-18T09:46:23.998Z</time></trkpt><trkpt lat="45.06183449107177" lon="8.504973530105255"><ele>114.0</ele><time>2026-04-18T09:46:24.998Z</time></trkpt><trkpt lat="45.061919357488684" lon="8.505021253473949"><ele>114.0</ele><time>2026-04-18T09:46:25.998Z</time></trkpt><trkpt lat="45.06201155441308" lon="8.505060348795789"><ele>114.0</ele><time>2026-04-18T09:46:26.998Z</time></trkpt><trkpt lat="45.06210021828545" lon="8.505088318298435"><ele>114.0</ele><time>2026-04-18T09:46:27.998Z</time></trkpt><trkpt lat="45.06219513643101" lon="8.505124146743324"><ele>114.0</ele><time>2026-04-18T09:46:28.998Z</time></trkpt><trkpt lat="45.06227443121622" lon="8.505168374449495"><ele>114.0</ele><time>2026-04-18T09:46:29.998Z</time></trkpt><trkpt lat="45.062347712060216" lon="8.505212194111172"><ele>114.0</ele><time>2026-04-18T09:46:30.998Z</time></trkpt><trkpt lat="45.06241395403549" lon="8.5052200601316"><ele>114.0</ele><time>2026-04-18T09:46:31.998Z</time></trkpt><trkpt lat="45.06249292358175" lon="8.505080107285895"><ele>114.0</ele><time>2026-04-18T09:46:33.998Z</time></trkpt><trkpt lat="45.062481193900496" lon="8.504972572606832"><ele>114.0</ele><time>2026-04-18T09:46:34.998Z</time></trkpt><trkpt lat="45.06243810017177" lon="8.504886428531126"><ele>114.0</ele><time>2026-04-18T09:46:35.998Z</time></trkpt><trkpt lat="45.06237441137402" lon="8.504851336421295"><ele>114.0</ele><time>2026-04-18T09:46:36.998Z</time></trkpt><trkpt lat="45.06227183826774" lon="8.504908718021074"><ele>114.0</ele><time>2026-04-18T09:46:38.998Z</time></trkpt><trkpt lat="45.06221205887821" lon="8.504953795315535"><ele>114.0</ele><time>2026-04-18T09:46:39.998Z</time></trkpt><trkpt lat="45.062116149171" lon="8.504998057199531"><ele>114.0</ele><time>2026-04-18T09:46:41.998Z</time></trkpt><trkpt lat="45.06200915192752" lon="8.504995295796059"><ele>114.0</ele><time>2026-04-18T09:46:43.998Z</time></trkpt><trkpt lat="45.06190454872463" lon="8.50494473284717"><ele>114.0</ele><time>2026-04-18T09:46:45.998Z</time></trkpt><trkpt lat="45.06183134510427" lon="8.504879675613397"><ele>114.0</ele><time>2026-04-18T09:46:47.998Z</time></trkpt><trkpt lat="45.06176506078509" lon="8.504833150903298"><ele>114.0</ele><time>2026-04-18T09:47:11Z</time></trkpt><trkpt lat="45.06169567606519" lon="8.50479440475131"><ele>114.0</ele><time>2026-04-18T09:47:12Z</time></trkpt><trkpt lat="45.06161138894083" lon="8.504747207127432"><ele>114.0</ele><time>2026-04-18T09:47:13Z</time></trkpt><trkpt lat="45.06151894064961" lon="8.504695492649551"><ele>114.0</ele><time>2026-04-18T09:47:14Z</time></trkpt><trkpt lat="45.06141913851629" lon="8.504636317981374"><ele>114.0</ele><time>2026-04-18T09:47:15Z</time></trkpt><trkpt lat="45.061278544699285" lon="8.504555707528894"><ele>113.75</ele><time>2026-04-18T09:47:16Z</time></trkpt><trkpt lat="45.061143407797694" lon="8.50448041085827"><ele>113.5</ele><time>2026-04-18T09:47:17Z</time></trkpt><trkpt lat="45.06103019450154" lon="8.50441929493118"><ele>113.25</ele><time>2026-04-18T09:47:18Z</time></trkpt><trkpt lat="45.0609302586113" lon="8.504372918100389"><ele>113.0</ele><time>2026-04-18T09:47:19Z</time></trkpt><trkpt lat="45.06084630662733" lon="8.504340231073346"><ele>113.25</ele><time>2026-04-18T09:47:20Z</time></trkpt><trkpt lat="45.060778130667266" lon="8.504333124628713"><ele>113.5</ele><time>2026-04-18T09:47:21Z</time></trkpt><trkpt lat="45.060667688499265" lon="8.504442296820743"><ele>113.75</ele><time>2026-04-18T09:47:23Z</time></trkpt><trkpt lat="45.060587881658456" lon="8.50461530644581"><ele>114.0</ele><time>2026-04-18T09:47:24Z</time></trkpt><trkpt lat="45.06050685872729" lon="8.50484314706531"><ele>114.25</ele><time>2026-04-18T09:47:25Z</time></trkpt><trkpt lat="45.06044531475123" lon="8.5050715042877"><ele>114.5</ele><time>2026-04-18T09:47:26Z</time></trkpt><trkpt lat="45.06039869419182" lon="8.505260220451099"><ele>114.75</ele><time>2026-04-18T09:47:27Z</time></trkpt><trkpt lat="45.060347551254885" lon="8.50543604969918"><ele>115.0</ele><time>2026-04-18T09:47:28Z</time></trkpt><trkpt lat="45.06028598086207" lon="8.505625263504156"><ele>115.33333333333334</ele><time>2026-04-18T09:47:29Z</time></trkpt><trkpt lat="45.06022089072695" lon="8.505827697464193"><ele>115.66666666666666</ele><time>2026-04-18T09:47:30Z</time></trkpt><trkpt lat="45.06015919481251" lon="8.506034116176133"><ele>116.0</ele><time>2026-04-18T09:47:31Z</time></trkpt><trkpt lat="45.0600942235091" lon="8.50624373759752"><ele>115.75</ele><time>2026-04-18T09:47:32Z</time></trkpt><trkpt lat="45.06003054679566" lon="8.506456122669178"><ele>115.5</ele><time>2026-04-18T09:47:33Z</time></trkpt><trkpt lat="45.05997407643755" lon="8.506640421023416"><ele>115.25</ele><time>2026-04-18T09:47:34Z</time></trkpt><trkpt lat="45.059929926521015" lon="8.50678214725065"><ele>115.0</ele><time>2026-04-18T09:47:35Z</time></trkpt><trkpt lat="45.05990164883521" lon="8.50687129309444"><ele>115.0</ele><time>2026-04-18T09:47:36Z</time></trkpt><trkpt lat="45.05998975803491" lon="8.507070533922601"><ele>115.0</ele><time>2026-04-18T09:47:38.999Z</time></trkpt><trkpt lat="45.0600956143908" lon="8.507138588751051"><ele>115.0</ele><time>2026-04-18T09:47:39.999Z</time></trkpt><trkpt lat="45.06023833094642" lon="8.507229725572797"><ele>115.0</ele><time>2026-04-18T09:47:40.999Z</time></trkpt><trkpt lat="45.06033516934553" lon="8.507295178574218"><ele>114.83333333333334</ele><time>2026-04-18T09:47:41.999Z</time></trkpt><trkpt lat="45.060397478871856" lon="8.507342305068688"><ele>114.66666666666667</ele><time>2026-04-18T09:47:42.999Z</time></trkpt><trkpt lat="45.06045917100683" lon="8.507390743047626"><ele>114.5</ele><time>2026-04-18T09:47:43.999Z</time></trkpt><trkpt lat="45.06051920187482" lon="8.507435714277465"><ele>114.33333333333334</ele><time>2026-04-18T09:47:44.999Z</time></trkpt><trkpt lat="45.06061377653258" lon="8.507500196274384"><ele>114.16666666666667</ele><time>2026-04-18T09:47:45.999Z</time></trkpt><trkpt lat="45.0606835291956" lon="8.507545933842422"><ele>114.0</ele><time>2026-04-18T09:47:46.999Z</time></trkpt><trkpt lat="45.060758300707505" lon="8.507594962325275"><ele>114.16666666666667</ele><time>2026-04-18T09:47:47.999Z</time></trkpt><trkpt lat="45.06082814345829" lon="8.507641934352847"><ele>114.33333333333334</ele><time>2026-04-18T09:47:48.999Z</time></trkpt><trkpt lat="45.06088486373436" lon="8.507681714772907"><ele>114.5</ele><time>2026-04-18T09:47:49.999Z</time></trkpt><trkpt lat="45.060950083842265" lon="8.507727456498406"><ele>114.66666666666667</ele><time>2026-04-18T09:47:51.999Z</time></trkpt><trkpt lat="45.061017933682926" lon="8.507775042575886"><ele>114.83333333333334</ele><time>2026-04-18T09:47:58.999Z</time></trkpt><trkpt lat="45.061079757306466" lon="8.507814987426006"><ele>115.0</ele><time>2026-04-18T09:48:00.999Z</time></trkpt><trkpt lat="45.0611692610062" lon="8.507873763786696"><ele>115.00000000000001</ele><time>2026-04-18T09:48:13.999Z</time></trkpt><trkpt lat="45.061236552350465" lon="8.507917953477023"><ele>115.0</ele><time>2026-04-18T09:48:14.999Z</time></trkpt><trkpt lat="45.06130374430878" lon="8.507937207952"><ele>115.0</ele><time>2026-04-18T09:48:15.999Z</time></trkpt><trkpt lat="45.061356510965666" lon="8.50799672934712"><ele>115.0</ele><time>2026-04-18T09:48:16.999Z</time></trkpt><trkpt lat="45.0614185708968" lon="8.508015461460943"><ele>115.00000000000001</ele><time>2026-04-18T09:48:17.999Z</time></trkpt><trkpt lat="45.06148762035742" lon="8.508088869435134"><ele>115.0</ele><time>2026-04-18T09:48:19.999Z</time></trkpt><trkpt lat="45.06158269729281" lon="8.507877601883635"><ele>114.5</ele><time>2026-04-18T09:48:22.999Z</time></trkpt><trkpt lat="45.061637115714824" lon="8.507675257599884"><ele>114.0</ele><time>2026-04-18T09:48:23.999Z</time></trkpt><trkpt lat="45.061706375656264" lon="8.507513191251574"><ele>113.5</ele><time>2026-04-18T09:48:24.999Z</time></trkpt><trkpt lat="45.06174355370801" lon="8.507399108725481"><ele>113.0</ele><time>2026-04-18T09:48:25.999Z</time></trkpt><trkpt lat="45.061997370269225" lon="8.5075785022295"><ele>113.0</ele><time>2026-04-18T09:48:30.999Z</time></trkpt><trkpt lat="45.06215181061653" lon="8.507704169773145"><ele>113.0</ele><time>2026-04-18T09:48:31.999Z</time></trkpt><trkpt lat="45.06228368213538" lon="8.507814222733494"><ele>113.0</ele><time>2026-04-18T09:48:32.999Z</time></trkpt><trkpt lat="45.0623933577665" lon="8.507907516639495"><ele>112.0</ele><time>2026-04-18T09:48:33.998Z</time></trkpt><trkpt lat="45.06249803160893" lon="8.507997839509606"><ele>111.0</ele><time>2026-04-18T09:48:34.998Z</time></trkpt><trkpt lat="45.06259590893174" lon="8.508082297674287"><ele>110.0</ele><time>2026-04-18T09:48:35.998Z</time></trkpt><trkpt lat="45.06269180386898" lon="8.508163447894642"><ele>109.0</ele><time>2026-04-18T09:48:36.998Z</time></trkpt><trkpt lat="45.062780772904254" lon="8.508236442616951"><ele>109.0</ele><time>2026-04-18T09:48:37.998Z</time></trkpt><trkpt lat="45.06286382981622" lon="8.508308856714871"><ele>109.0</ele><time>2026-04-18T09:48:38.998Z</time></trkpt><trkpt lat="45.06294820978473" lon="8.50834433691854"><ele>109.0</ele><time>2026-04-18T09:48:39.998Z</time></trkpt><trkpt lat="45.063028207244486" lon="8.508432965169064"><ele>109.0</ele><time>2026-04-18T09:48:40.998Z</time></trkpt><trkpt lat="45.063118311266464" lon="8.508528572966048"><ele>109.0</ele><time>2026-04-18T09:48:41.998Z</time></trkpt><trkpt lat="45.063215782597894" lon="8.508632321165923"><ele>109.0</ele><time>2026-04-18T09:48:42.998Z</time></trkpt><trkpt lat="45.06328324458527" lon="8.508748912735884"><ele>109.0</ele><time>2026-04-18T09:48:43.998Z</time></trkpt><trkpt lat="45.06334553132992" lon="8.508811545518407"><ele>109.0</ele><time>2026-04-18T09:48:44.998Z</time></trkpt><trkpt lat="45.063419877548576" lon="8.508893257580793"><ele>109.0</ele><time>2026-04-18T09:48:46.998Z</time></trkpt><trkpt lat="45.06349855462258" lon="8.508731317013607"><ele>109.0</ele><time>2026-04-18T09:48:51.998Z</time></trkpt><trkpt lat="45.06356547552242" lon="8.508697603651964"><ele>109.0</ele><time>2026-04-18T09:48:53.998Z</time></trkpt><trkpt lat="45.06362868729298" lon="8.508710981450594"><ele>109.0</ele><time>2026-04-18T09:48:55.998Z</time></trkpt><trkpt lat="45.063576823057424" lon="8.508763886697357"><ele>109.0</ele><time>2026-04-18T09:52:55.998Z</time></trkpt><trkpt lat="45.06359337043256" lon="8.508851761588497"><ele>109.0</ele><time>2026-04-18T09:53:03.998Z</time></trkpt><trkpt lat="45.06360091317597" lon="8.508750185805779"><ele>109.0</ele><time>2026-04-18T09:59:36Z</time></trkpt><trkpt lat="45.06357008766999" lon="8.50867223443822"><ele>109.0</ele><time>2026-04-18T10:00:10.999Z</time></trkpt><trkpt lat="45.063496512171064" lon="8.508627597846134"><ele>109.0</ele><time>2026-04-18T10:12:00.997Z</time></trkpt><trkpt lat="45.063586092246354" lon="8.508658875398012"><ele>109.0</ele><time>2026-04-18T10:12:10.998Z</time></trkpt><trkpt lat="45.06351386552908" lon="8.508675834806315"><ele>109.0</ele><time>2026-04-18T10:12:12.998Z</time></trkpt><trkpt lat="45.06353966147955" lon="8.508588678172295"><ele>109.0</ele><time>2026-04-18T10:12:14.998Z</time></trkpt><trkpt lat="45.06358107746255" lon="8.508665212216917"><ele>109.0</ele><time>2026-04-18T10:12:16.998Z</time></trkpt><trkpt lat="45.06350387131621" lon="8.508691635510322"><ele>109.0</ele><time>2026-04-18T10:12:18.998Z</time></trkpt><trkpt lat="45.063462833409645" lon="8.508622101160194"><ele>109.0</ele><time>2026-04-18T10:12:19.998Z</time></trkpt><trkpt lat="45.06339500103154" lon="8.508671247673364"><ele>109.0</ele><time>2026-04-18T10:12:21.998Z</time></trkpt><trkpt lat="45.06345936715424" lon="8.508762771400816"><ele>109.00000000000001</ele><time>2026-04-18T10:12:23.998Z</time></trkpt><trkpt lat="45.06349878966554" lon="8.508659230837015"><ele>109.0</ele><time>2026-04-18T10:12:25.998Z</time></trkpt><trkpt lat="45.06340320162364" lon="8.508638797500625"><ele>109.0</ele><time>2026-04-18T10:12:27.998Z</time></trkpt><trkpt lat="45.06341776314581" lon="8.508795233452279"><ele>109.0</ele><time>2026-04-18T10:12:29.998Z</time></trkpt><trkpt lat="45.063493761792216" lon="8.508775216206017"><ele>109.00000000000001</ele><time>2026-04-18T10:12:31.998Z</time></trkpt><trkpt lat="45.06345189042282" lon="8.508684146458519"><ele>109.0</ele><time>2026-04-18T10:12:33.998Z</time></trkpt><trkpt lat="45.063384630732344" lon="8.508656428947468"><ele>109.0</ele><time>2026-04-18T10:12:34.998Z</time></trkpt><trkpt lat="45.063294007834955" lon="8.50862162963927"><ele>109.0</ele><time>2026-04-18T10:12:35.998Z</time></trkpt><trkpt lat="45.06322002540299" lon="8.508561370820885"><ele>109.0</ele><time>2026-04-18T10:12:36.998Z</time></trkpt><trkpt lat="45.063128544598804" lon="8.50849487274051"><ele>109.0</ele><time>2026-04-18T10:12:38.998Z</time></trkpt><trkpt lat="45.063053221356675" lon="8.508392363186289"><ele>109.0</ele><time>2026-04-18T10:12:40.998Z</time></trkpt><trkpt lat="45.062952055691966" lon="8.508298770159767"><ele>109.0</ele><time>2026-04-18T10:12:42.998Z</time></trkpt><trkpt lat="45.062847326865615" lon="8.508236216124912"><ele>109.0</ele><time>2026-04-18T10:12:44.998Z</time></trkpt><trkpt lat="45.06276986468443" lon="8.508183005853134"><ele>109.0</ele><time>2026-04-18T10:12:45.998Z</time></trkpt><trkpt lat="45.06269042236917" lon="8.508111702974276"><ele>109.0</ele><time>2026-04-18T10:12:46.998Z</time></trkpt><trkpt lat="45.06260009631725" lon="8.50802804848047"><ele>109.0</ele><time>2026-04-18T10:12:47.998Z</time></trkpt><trkpt lat="45.06253915582687" lon="8.507975567034318"><ele>109.00000000000001</ele><time>2026-04-18T10:12:48.998Z</time></trkpt><trkpt lat="45.062456380469534" lon="8.507912064103555"><ele>109.0</ele><time>2026-04-18T10:12:49.998Z</time></trkpt><trkpt lat="45.062379168233626" lon="8.507842923163592"><ele>109.0</ele><time>2026-04-18T10:12:50.998Z</time></trkpt><trkpt lat="45.062307688521095" lon="8.50778263994685"><ele>109.0</ele><time>2026-04-18T10:12:51.998Z</time></trkpt><trkpt lat="45.06223356260517" lon="8.507719882706262"><ele>109.00000000000001</ele><time>2026-04-18T10:12:52.998Z</time></trkpt><trkpt lat="45.06216838540618" lon="8.50766697195523"><ele>109.0</ele><time>2026-04-18T10:12:53.998Z</time></trkpt><trkpt lat="45.06210937283787" lon="8.507618459325068"><ele>109.80000000000001</ele><time>2026-04-18T10:12:54.998Z</time></trkpt><trkpt lat="45.06201055927491" lon="8.507536844758349"><ele>110.60000000000001</ele><time>2026-04-18T10:12:56.998Z</time></trkpt><trkpt lat="45.06194302686621" lon="8.507483337752978"><ele>111.4</ele><time>2026-04-18T10:12:58.998Z</time></trkpt><trkpt lat="45.06187196290451" lon="8.507429262403727"><ele>112.2</ele><time>2026-04-18T10:13:00.998Z</time></trkpt><trkpt lat="45.06179524856364" lon="8.507331478281172"><ele>113.0</ele><time>2026-04-18T10:13:02.998Z</time></trkpt><trkpt lat="45.06182188723175" lon="8.507134193405282"><ele>112.80000000000001</ele><time>2026-04-18T10:13:06.998Z</time></trkpt><trkpt lat="45.06187113259669" lon="8.50701105247548"><ele>112.60000000000001</ele><time>2026-04-18T10:13:07.998Z</time></trkpt><trkpt lat="45.06192666454585" lon="8.50685680125273"><ele>112.39999999999999</ele><time>2026-04-18T10:13:08.998Z</time></trkpt><trkpt lat="45.0619617496342" lon="8.506743254384865"><ele>112.19999999999999</ele><time>2026-04-18T10:13:09.998Z</time></trkpt><trkpt lat="45.061993143586896" lon="8.506650993362863"><ele>112.0</ele><time>2026-04-18T10:13:10.998Z</time></trkpt><trkpt lat="45.062038280503685" lon="8.506534416054073"><ele>112.0</ele><time>2026-04-18T10:13:11.998Z</time></trkpt><trkpt lat="45.062085110423865" lon="8.506409550634375"><ele>112.0</ele><time>2026-04-18T10:13:12.998Z</time></trkpt><trkpt lat="45.06214021082001" lon="8.506275775529243"><ele>112.0</ele><time>2026-04-18T10:13:13.998Z</time></trkpt><trkpt lat="45.06219493097187" lon="8.50611355865601"><ele>112.0</ele><time>2026-04-18T10:13:14.998Z</time></trkpt><trkpt lat="45.06225496676462" lon="8.505918723265145"><ele>112.39999999999999</ele><time>2026-04-18T10:13:15.998Z</time></trkpt><trkpt lat="45.06231375623488" lon="8.505735590501304"><ele>112.79999999999998</ele><time>2026-04-18T10:13:16.998Z</time></trkpt><trkpt lat="45.06236991948391" lon="8.505577645948918"><ele>113.2</ele><time>2026-04-18T10:13:17.998Z</time></trkpt><trkpt lat="45.06241063405542" lon="8.505450140523566"><ele>113.6</ele><time>2026-04-18T10:13:18.998Z</time></trkpt><trkpt lat="45.06243044390163" lon="8.505357326389937"><ele>114.0</ele><time>2026-04-18T10:13:19.998Z</time></trkpt><trkpt lat="45.062442500006696" lon="8.505250655169434"><ele>114.0</ele><time>2026-04-18T10:13:21.998Z</time></trkpt><trkpt lat="45.06246377752301" lon="8.505162769781604"><ele>114.0</ele><time>2026-04-18T10:13:22.998Z</time></trkpt><trkpt lat="45.062480965284685" lon="8.505041955852827"><ele>114.0</ele><time>2026-04-18T10:13:23.998Z</time></trkpt><trkpt lat="45.06246138149152" lon="8.504947427833615"><ele>114.0</ele><time>2026-04-18T10:13:24.998Z</time></trkpt><trkpt lat="45.062407244372125" lon="8.504891596461851"><ele>114.0</ele><time>2026-04-18T10:13:25.998Z</time></trkpt><trkpt lat="45.06233147684418" lon="8.50488802429469"><ele>114.0</ele><time>2026-04-18T10:13:26.998Z</time></trkpt><trkpt lat="45.06224188431389" lon="8.50492856272963"><ele>114.0</ele><time>2026-04-18T10:13:27.998Z</time></trkpt><trkpt lat="45.06213680898409" lon="8.505001822785948"><ele>114.0</ele><time>2026-04-18T10:13:28.998Z</time></trkpt><trkpt lat="45.062031993285665" lon="8.505003130702566"><ele>114.0</ele><time>2026-04-18T10:13:29.998Z</time></trkpt><trkpt lat="45.06192555034283" lon="8.5049996125561"><ele>114.0</ele><time>2026-04-18T10:13:30.998Z</time></trkpt><trkpt lat="45.06180505881006" lon="8.504949536119044"><ele>114.0</ele><time>2026-04-18T10:13:31.998Z</time></trkpt><trkpt lat="45.06168640236244" lon="8.504855333934008"><ele>114.0</ele><time>2026-04-18T10:13:32.998Z</time></trkpt><trkpt lat="45.06156403068306" lon="8.504746416006636"><ele>114.0</ele><time>2026-04-18T10:13:33.998Z</time></trkpt><trkpt lat="45.06143032218609" lon="8.504663228519394"><ele>114.0</ele><time>2026-04-18T10:13:34.998Z</time></trkpt><trkpt lat="45.06129890740045" lon="8.504579495338866"><ele>114.0</ele><time>2026-04-18T10:13:35.998Z</time></trkpt><trkpt lat="45.06116650273567" lon="8.504493537209079"><ele>114.0</ele><time>2026-04-18T10:13:36.998Z</time></trkpt><trkpt lat="45.06103460033468" lon="8.504411029711154"><ele>114.0</ele><time>2026-04-18T10:13:37.998Z</time></trkpt><trkpt lat="45.06090135805075" lon="8.504350085976126"><ele>114.0</ele><time>2026-04-18T10:13:38.998Z</time></trkpt><trkpt lat="45.060779236817794" lon="8.5043112117157"><ele>114.0</ele><time>2026-04-18T10:13:39.998Z</time></trkpt><trkpt lat="45.060677404568246" lon="8.504236341823209"><ele>114.0</ele><time>2026-04-18T10:13:40.998Z</time></trkpt><trkpt lat="45.06057327416799" lon="8.504124974154047"><ele>114.0</ele><time>2026-04-18T10:13:41.998Z</time></trkpt><trkpt lat="45.06045755507508" lon="8.504012386535699"><ele>114.0</ele><time>2026-04-18T10:13:42.998Z</time></trkpt><trkpt lat="45.0603250491197" lon="8.503926331115471"><ele>114.0</ele><time>2026-04-18T10:13:43.998Z</time></trkpt><trkpt lat="45.06018688355816" lon="8.50382910787969"><ele>114.0</ele><time>2026-04-18T10:13:44.998Z</time></trkpt><trkpt lat="45.060042406793826" lon="8.503726529717959"><ele>114.0</ele><time>2026-04-18T10:13:45.998Z</time></trkpt><trkpt lat="45.05989574054681" lon="8.503620383167737"><ele>114.0</ele><time>2026-04-18T10:13:46.998Z</time></trkpt><trkpt lat="45.05975657128784" lon="8.503521888713497"><ele>114.0</ele><time>2026-04-18T10:13:47.998Z</time></trkpt><trkpt lat="45.059634983462516" lon="8.503433773238815"><ele>114.0</ele><time>2026-04-18T10:13:48.998Z</time></trkpt><trkpt lat="45.059516220021365" lon="8.503364003547988"><ele>114.0</ele><time>2026-04-18T10:13:49.998Z</time></trkpt><trkpt lat="45.059400933712475" lon="8.503297281691331"><ele>114.0</ele><time>2026-04-18T10:13:50.998Z</time></trkpt><trkpt lat="45.05928479401195" lon="8.503216772450061"><ele>114.0</ele><time>2026-04-18T10:13:51.998Z</time></trkpt><trkpt lat="45.05917118701825" lon="8.503139328096342"><ele>114.0</ele><time>2026-04-18T10:13:52.998Z</time></trkpt><trkpt lat="45.05907207943687" lon="8.503067534494871"><ele>114.0</ele><time>2026-04-18T10:13:53.998Z</time></trkpt><trkpt lat="45.05898219523513" lon="8.503001978473124"><ele>113.80000000000001</ele><time>2026-04-18T10:13:54.997Z</time></trkpt><trkpt lat="45.05890085325886" lon="8.502944716397458"><ele>113.60000000000001</ele><time>2026-04-18T10:13:55.997Z</time></trkpt><trkpt lat="45.05882677106638" lon="8.502891111504223"><ele>113.4</ele><time>2026-04-18T10:13:56.997Z</time></trkpt><trkpt lat="45.05876484578438" lon="8.50286946792555"><ele>113.2</ele><time>2026-04-18T10:13:57.997Z</time></trkpt><trkpt lat="45.05869085793812" lon="8.502998442648403"><ele>113.0</ele><time>2026-04-18T10:13:59.997Z</time></trkpt><trkpt lat="45.05865615215149" lon="8.503125114141511"><ele>113.0</ele><time>2026-04-18T10:14:00.997Z</time></trkpt><trkpt lat="45.05861430960191" lon="8.503264353673233"><ele>113.0</ele><time>2026-04-18T10:14:01.997Z</time></trkpt><trkpt lat="45.05857290987834" lon="8.503422720229754"><ele>113.0</ele><time>2026-04-18T10:14:02.997Z</time></trkpt><trkpt lat="45.05851211369954" lon="8.503580116651063"><ele>113.0</ele><time>2026-04-18T10:14:03.997Z</time></trkpt><trkpt lat="45.058470271765344" lon="8.503718046602417"><ele>113.0</ele><time>2026-04-18T10:14:04.997Z</time></trkpt><trkpt lat="45.05843704044337" lon="8.503828535240324"><ele>113.00000000000001</ele><time>2026-04-18T10:14:05.997Z</time></trkpt><trkpt lat="45.05840756504329" lon="8.503928925376309"><ele>113.00000000000001</ele><time>2026-04-18T10:14:06.997Z</time></trkpt><trkpt lat="45.05837726288558" lon="8.504007849857654"><ele>113.0</ele><time>2026-04-18T10:14:07.997Z</time></trkpt><trkpt lat="45.058243118527784" lon="8.503925347530569"><ele>113.0</ele><time>2026-04-18T10:14:09.998Z</time></trkpt><trkpt lat="45.05815311706698" lon="8.503823418869073"><ele>112.75</ele><time>2026-04-18T10:14:10.998Z</time></trkpt><trkpt lat="45.05805831872595" lon="8.503691769259792"><ele>112.5</ele><time>2026-04-18T10:14:11.998Z</time></trkpt><trkpt lat="45.05795676091585" lon="8.5035714063356"><ele>112.25</ele><time>2026-04-18T10:14:12.998Z</time></trkpt><trkpt lat="45.05785608689772" lon="8.503433894500635"><ele>112.0</ele><time>2026-04-18T10:14:13.998Z</time></trkpt><trkpt lat="45.057774700854594" lon="8.503294393812249"><ele>112.00000000000001</ele><time>2026-04-18T10:14:14.998Z</time></trkpt><trkpt lat="45.05771652549425" lon="8.50318034704195"><ele>112.0</ele><time>2026-04-18T10:14:15.998Z</time></trkpt><trkpt lat="45.05767308552321" lon="8.503104827664549"><ele>112.0</ele><time>2026-04-18T10:14:16.998Z</time></trkpt><trkpt lat="45.057586937974534" lon="8.503142931303822"><ele>112.0</ele><time>2026-04-18T10:14:17.998Z</time></trkpt><trkpt lat="45.05750290095802" lon="8.503163759220177"><ele>112.00000000000001</ele><time>2026-04-18T10:14:18.998Z</time></trkpt><trkpt lat="45.05741134249851" lon="8.503165216294146"><ele>112.0</ele><time>2026-04-18T10:14:19.998Z</time></trkpt><trkpt lat="45.05731393436508" lon="8.503154172315808"><ele>112.33333333333334</ele><time>2026-04-18T10:14:20.998Z</time></trkpt><trkpt lat="45.057188009886644" lon="8.503147712971959"><ele>112.66666666666666</ele><time>2026-04-18T10:14:21.998Z</time></trkpt><trkpt lat="45.057001121624694" lon="8.503136901403707"><ele>113.0</ele><time>2026-04-18T10:14:22.998Z</time></trkpt><trkpt lat="45.05676904041219" lon="8.503116256486663"><ele>112.5</ele><time>2026-04-18T10:14:23.998Z</time></trkpt><trkpt lat="45.056565703399265" lon="8.503084311354993"><ele>112.0</ele><time>2026-04-18T10:14:24.998Z</time></trkpt><trkpt lat="45.056459284226676" lon="8.503084110737648"><ele>111.5</ele><time>2026-04-18T10:14:25.998Z</time></trkpt><trkpt lat="45.056335289871704" lon="8.503069811664254"><ele>111.0</ele><time>2026-04-18T10:14:26.998Z</time></trkpt><trkpt lat="45.05622921372272" lon="8.503010327210431"><ele>111.0</ele><time>2026-04-18T10:14:27.998Z</time></trkpt><trkpt lat="45.056120219455636" lon="8.502986442253075"><ele>111.0</ele><time>2026-04-18T10:14:28.998Z</time></trkpt><trkpt lat="45.055998371942685" lon="8.502938265523657"><ele>111.0</ele><time>2026-04-18T10:14:29.998Z</time></trkpt><trkpt lat="45.055892246892114" lon="8.502888553552687"><ele>111.0</ele><time>2026-04-18T10:14:30.998Z</time></trkpt><trkpt lat="45.05578491537141" lon="8.502852762290775"><ele>111.0</ele><time>2026-04-18T10:14:31.998Z</time></trkpt><trkpt lat="45.05565899095626" lon="8.502802705883877"><ele>111.0</ele><time>2026-04-18T10:14:32.998Z</time></trkpt><trkpt lat="45.0555196536045" lon="8.502750519367615"><ele>111.0</ele><time>2026-04-18T10:14:33.998Z</time></trkpt><trkpt lat="45.05538451337222" lon="8.502702452146314"><ele>111.0</ele><time>2026-04-18T10:14:34.998Z</time></trkpt><trkpt lat="45.055247151715726" lon="8.502649642516692"><ele>111.0</ele><time>2026-04-18T10:14:35.998Z</time></trkpt><trkpt lat="45.05512115423444" lon="8.502597926631248"><ele>111.0</ele><time>2026-04-18T10:14:36.998Z</time></trkpt><trkpt lat="45.0549905016673" lon="8.50255191978251"><ele>111.0</ele><time>2026-04-18T10:14:37.998Z</time></trkpt><trkpt lat="45.05485302008668" lon="8.502504323645464"><ele>111.0</ele><time>2026-04-18T10:14:38.998Z</time></trkpt><trkpt lat="45.05470659410634" lon="8.502449675487348"><ele>111.0</ele><time>2026-04-18T10:14:39.998Z</time></trkpt><trkpt lat="45.05456362816686" lon="8.502398794418918"><ele>111.0</ele><time>2026-04-18T10:14:40.998Z</time></trkpt><trkpt lat="45.054425651182505" lon="8.502345045399055"><ele>111.0</ele><time>2026-04-18T10:14:41.998Z</time></trkpt><trkpt lat="45.054275588210686" lon="8.502295000117853"><ele>111.0</ele><time>2026-04-18T10:14:42.998Z</time></trkpt><trkpt lat="45.05411906609676" lon="8.502237538023397"><ele>111.0</ele><time>2026-04-18T10:14:43.998Z</time></trkpt><trkpt lat="45.053955480510716" lon="8.502183118347064"><ele>111.0</ele><time>2026-04-18T10:14:44.998Z</time></trkpt><trkpt lat="45.053795729697285" lon="8.502125834513565"><ele>111.0</ele><time>2026-04-18T10:14:45.998Z</time></trkpt><trkpt lat="45.05364554785091" lon="8.502071706266094"><ele>111.0</ele><time>2026-04-18T10:14:46.998Z</time></trkpt><trkpt lat="45.05350681965734" lon="8.502020903634218"><ele>111.0</ele><time>2026-04-18T10:14:47.998Z</time></trkpt><trkpt lat="45.05335553118675" lon="8.501963390826443"><ele>111.0</ele><time>2026-04-18T10:14:48.998Z</time></trkpt><trkpt lat="45.05320253409289" lon="8.501902842479833"><ele>111.33333333333334</ele><time>2026-04-18T10:14:49.998Z</time></trkpt><trkpt lat="45.05305184282924" lon="8.501848656118959"><ele>111.66666666666667</ele><time>2026-04-18T10:14:50.999Z</time></trkpt><trkpt lat="45.052899667300565" lon="8.501797828204012"><ele>112.0</ele><time>2026-04-18T10:14:51.999Z</time></trkpt><trkpt lat="45.052746581613334" lon="8.501742999567629"><ele>112.0</ele><time>2026-04-18T10:14:52.999Z</time></trkpt><trkpt lat="45.05259763546749" lon="8.5016863623531"><ele>112.0</ele><time>2026-04-18T10:14:53.999Z</time></trkpt><trkpt lat="45.05244427944185" lon="8.501627593445136"><ele>112.0</ele><time>2026-04-18T10:14:54.999Z</time></trkpt><trkpt lat="45.05228844784225" lon="8.501559556830719"><ele>112.0</ele><time>2026-04-18T10:14:55.999Z</time></trkpt><trkpt lat="45.052125092216436" lon="8.501485016027592"><ele>112.0</ele><time>2026-04-18T10:14:56.999Z</time></trkpt><trkpt lat="45.051968538808744" lon="8.501425356403587"><ele>112.0</ele><time>2026-04-18T10:14:57.999Z</time></trkpt><trkpt lat="45.05182362077906" lon="8.501369958699806"><ele>112.0</ele><time>2026-04-18T10:14:58.999Z</time></trkpt><trkpt lat="45.051681529100634" lon="8.501312308527854"><ele>112.0</ele><time>2026-04-18T10:14:59.999Z</time></trkpt><trkpt lat="45.051540571333526" lon="8.501245378780045"><ele>112.0</ele><time>2026-04-18T10:15:00.999Z</time></trkpt><trkpt lat="45.051393963326845" lon="8.501180416343097"><ele>112.0</ele><time>2026-04-18T10:15:01.998Z</time></trkpt><trkpt lat="45.05125151803616" lon="8.501120087630062"><ele>112.0</ele><time>2026-04-18T10:15:02.998Z</time></trkpt><trkpt lat="45.051098282697716" lon="8.501058550087505"><ele>112.0</ele><time>2026-04-18T10:15:03.998Z</time></trkpt><trkpt lat="45.05095469456339" lon="8.500992788698216"><ele>112.0</ele><time>2026-04-18T10:15:04.998Z</time></trkpt><trkpt lat="45.050810568030265" lon="8.500937816399535"><ele>112.0</ele><time>2026-04-18T10:15:05.998Z</time></trkpt><trkpt lat="45.05065527268611" lon="8.500891371859804"><ele>112.0</ele><time>2026-04-18T10:15:06.998Z</time></trkpt><trkpt lat="45.050525346181644" lon="8.50088484349202"><ele>112.0</ele><time>2026-04-18T10:15:07.998Z</time></trkpt><trkpt lat="45.05041018118658" lon="8.50090136852479"><ele>112.0</ele><time>2026-04-18T10:15:08.998Z</time></trkpt><trkpt lat="45.05029923034064" lon="8.500942397238944"><ele>112.0</ele><time>2026-04-18T10:15:09.998Z</time></trkpt><trkpt lat="45.050172439095704" lon="8.501001488112164"><ele>112.0</ele><time>2026-04-18T10:15:10.998Z</time></trkpt><trkpt lat="45.0500187940611" lon="8.501060458135097"><ele>112.0</ele><time>2026-04-18T10:15:11.998Z</time></trkpt><trkpt lat="45.04986885575685" lon="8.501126266506617"><ele>112.0</ele><time>2026-04-18T10:15:12.998Z</time></trkpt><trkpt lat="45.049725853444144" lon="8.501178962378045"><ele>112.0</ele><time>2026-04-18T10:15:13.998Z</time></trkpt><trkpt lat="45.049578632177266" lon="8.501230382159635"><ele>112.0</ele><time>2026-04-18T10:15:14.998Z</time></trkpt><trkpt lat="45.04945508707462" lon="8.501278495372404"><ele>112.0</ele><time>2026-04-18T10:15:15.998Z</time></trkpt><trkpt lat="45.049337481045704" lon="8.501346941755333"><ele>112.25</ele><time>2026-04-18T10:15:16.998Z</time></trkpt><trkpt lat="45.04920782348307" lon="8.501402999206604"><ele>112.5</ele><time>2026-04-18T10:15:17.998Z</time></trkpt><trkpt lat="45.04908406335662" lon="8.50152906485517"><ele>112.75</ele><time>2026-04-18T10:15:18.998Z</time></trkpt><trkpt lat="45.048947784964966" lon="8.501614659679275"><ele>113.0</ele><time>2026-04-18T10:15:19.998Z</time></trkpt><trkpt lat="45.04883255453682" lon="8.501654028846048"><ele>115.25</ele><time>2026-04-18T10:15:20.998Z</time></trkpt><trkpt lat="45.04871465126027" lon="8.501692795439652"><ele>117.5</ele><time>2026-04-18T10:15:21.998Z</time></trkpt><trkpt lat="45.04860264210644" lon="8.501730498131804"><ele>119.75</ele><time>2026-04-18T10:15:22.998Z</time></trkpt><trkpt lat="45.04845448740268" lon="8.501796909448087"><ele>122.0</ele><time>2026-04-18T10:15:23.998Z</time></trkpt><trkpt lat="45.048291613578606" lon="8.50184444514921"><ele>123.0</ele><time>2026-04-18T10:15:24.998Z</time></trkpt><trkpt lat="45.04813137591025" lon="8.50189037800146"><ele>124.0</ele><time>2026-04-18T10:15:25.998Z</time></trkpt><trkpt lat="45.04800341651894" lon="8.501919996975532"><ele>125.0</ele><time>2026-04-18T10:15:26.998Z</time></trkpt><trkpt lat="45.04789264618271" lon="8.501931193967751"><ele>126.0</ele><time>2026-04-18T10:15:27.998Z</time></trkpt><trkpt lat="45.0478011613708" lon="8.501934056617571"><ele>126.0</ele><time>2026-04-18T10:15:28.998Z</time></trkpt><trkpt lat="45.04774499366517" lon="8.501872606518202"><ele>126.0</ele><time>2026-04-18T10:15:29.998Z</time></trkpt><trkpt lat="45.04768954082397" lon="8.501778375399203"><ele>126.0</ele><time>2026-04-18T10:15:31.998Z</time></trkpt><trkpt lat="45.04763306229905" lon="8.501714011018734"><ele>126.0</ele><time>2026-04-18T10:15:32.998Z</time></trkpt><trkpt lat="45.047585267023116" lon="8.501579264159329"><ele>126.0</ele><time>2026-04-18T10:15:33.998Z</time></trkpt><trkpt lat="45.04753252358729" lon="8.501447550336431"><ele>126.0</ele><time>2026-04-18T10:15:34.998Z</time></trkpt><trkpt lat="45.04746422625001" lon="8.501307126886397"><ele>125.66666666666666</ele><time>2026-04-18T10:15:35.998Z</time></trkpt><trkpt lat="45.047372961063886" lon="8.501153097888627"><ele>125.33333333333333</ele><time>2026-04-18T10:15:36.998Z</time></trkpt><trkpt lat="45.047272016478466" lon="8.50099320320643"><ele>125.0</ele><time>2026-04-18T10:15:37.998Z</time></trkpt><trkpt lat="45.047161423715515" lon="8.500814039139591"><ele>125.0</ele><time>2026-04-18T10:15:38.998Z</time></trkpt><trkpt lat="45.04706811152787" lon="8.500644767561056"><ele>125.0</ele><time>2026-04-18T10:15:39.998Z</time></trkpt><trkpt lat="45.04699257869426" lon="8.50048594210018"><ele>125.0</ele><time>2026-04-18T10:15:40.998Z</time></trkpt><trkpt lat="45.046921776396466" lon="8.50033594317143"><ele>125.0</ele><time>2026-04-18T10:15:41.998Z</time></trkpt><trkpt lat="45.04684287562728" lon="8.500187764228407"><ele>125.0</ele><time>2026-04-18T10:15:42.998Z</time></trkpt><trkpt lat="45.04674719612058" lon="8.500056981671714"><ele>125.0</ele><time>2026-04-18T10:15:43.998Z</time></trkpt><trkpt lat="45.04663222906654" lon="8.49992838982896"><ele>125.0</ele><time>2026-04-18T10:15:44.998Z</time></trkpt><trkpt lat="45.0465059424339" lon="8.499796146047567"><ele>125.0</ele><time>2026-04-18T10:15:45.998Z</time></trkpt><trkpt lat="45.04637595292154" lon="8.499644499224898"><ele>126.0</ele><time>2026-04-18T10:15:46.998Z</time></trkpt><trkpt lat="45.04624767489646" lon="8.49949715101317"><ele>127.0</ele><time>2026-04-18T10:15:47.998Z</time></trkpt><trkpt lat="45.046121914382155" lon="8.499353162415863"><ele>128.0</ele><time>2026-04-18T10:15:48.998Z</time></trkpt><trkpt lat="45.04599409519779" lon="8.49921221967981"><ele>128.0</ele><time>2026-04-18T10:15:49.998Z</time></trkpt><trkpt lat="45.04587870448431" lon="8.499096515097923"><ele>128.0</ele><time>2026-04-18T10:15:50.998Z</time></trkpt><trkpt lat="45.045746253309844" lon="8.498980396917991"><ele>128.0</ele><time>2026-04-18T10:15:51.998Z</time></trkpt><trkpt lat="45.045608023412846" lon="8.498840896869174"><ele>127.66666666666666</ele><time>2026-04-18T10:15:52.998Z</time></trkpt><trkpt lat="45.04544653153079" lon="8.498754745816193"><ele>127.33333333333334</ele><time>2026-04-18T10:15:53.998Z</time></trkpt><trkpt lat="45.04530066312682" lon="8.498680936860131"><ele>127.0</ele><time>2026-04-18T10:15:54.998Z</time></trkpt><trkpt lat="45.045157037724316" lon="8.49861678670069"><ele>127.66666666666667</ele><time>2026-04-18T10:15:55.998Z</time></trkpt><trkpt lat="45.04501003489102" lon="8.498529289186298"><ele>128.33333333333334</ele><time>2026-04-18T10:15:56.998Z</time></trkpt><trkpt lat="45.04486982646379" lon="8.498467409456431"><ele>129.0</ele><time>2026-04-18T10:15:57.998Z</time></trkpt><trkpt lat="45.044723593586056" lon="8.498407051187465"><ele>129.0</ele><time>2026-04-18T10:15:58.998Z</time></trkpt><trkpt lat="45.04456901966863" lon="8.498370629835607"><ele>129.0</ele><time>2026-04-18T10:15:59.998Z</time></trkpt><trkpt lat="45.04441611903202" lon="8.498290029337735"><ele>129.0</ele><time>2026-04-18T10:16:00.998Z</time></trkpt><trkpt lat="45.04426456718879" lon="8.498230704888181"><ele>129.0</ele><time>2026-04-18T10:16:01.998Z</time></trkpt><trkpt lat="45.044119655722405" lon="8.49817389988143"><ele>129.0</ele><time>2026-04-18T10:16:02.998Z</time></trkpt><trkpt lat="45.043973406495915" lon="8.498116570420848"><ele>129.0</ele><time>2026-04-18T10:16:03.998Z</time></trkpt><trkpt lat="45.043842192941824" lon="8.498061324046837"><ele>129.0</ele><time>2026-04-18T10:16:04.998Z</time></trkpt><trkpt lat="45.04371823257524" lon="8.49800701783655"><ele>129.0</ele><time>2026-04-18T10:16:05.998Z</time></trkpt><trkpt lat="45.04360665735616" lon="8.49797050254857"><ele>129.0</ele><time>2026-04-18T10:16:06.998Z</time></trkpt><trkpt lat="45.04352539321357" lon="8.49787570029307"><ele>129.0</ele><time>2026-04-18T10:16:07.998Z</time></trkpt><trkpt lat="45.0434688229059" lon="8.497801107465001"><ele>129.0</ele><time>2026-04-18T10:16:08.998Z</time></trkpt><trkpt lat="45.04344471853451" lon="8.497695434601027"><ele>129.0</ele><time>2026-04-18T10:16:10.998Z</time></trkpt><trkpt lat="45.04340436364193" lon="8.49753226758644"><ele>129.5</ele><time>2026-04-18T10:16:12.998Z</time></trkpt><trkpt lat="45.043322990839336" lon="8.497441201071407"><ele>130.0</ele><time>2026-04-18T10:16:14.999Z</time></trkpt><trkpt lat="45.043177746653036" lon="8.497413326768868"><ele>130.5</ele><time>2026-04-18T10:16:16.999Z</time></trkpt><trkpt lat="45.0430717065285" lon="8.497439767792947"><ele>131.0</ele><time>2026-04-18T10:16:17.999Z</time></trkpt><trkpt lat="45.04297569300024" lon="8.49744126201785"><ele>131.0</ele><time>2026-04-18T10:16:18.999Z</time></trkpt><trkpt lat="45.04286517474544" lon="8.49743597899785"><ele>131.0</ele><time>2026-04-18T10:16:19.999Z</time></trkpt><trkpt lat="45.04273481448204" lon="8.49742297534996"><ele>131.0</ele><time>2026-04-18T10:16:20.999Z</time></trkpt><trkpt lat="45.042613754241266" lon="8.497367947646842"><ele>131.0</ele><time>2026-04-18T10:16:21.999Z</time></trkpt><trkpt lat="45.042500921856316" lon="8.49735589361804"><ele>130.75</ele><time>2026-04-18T10:16:22.999Z</time></trkpt><trkpt lat="45.04240186053864" lon="8.497319452333912"><ele>130.5</ele><time>2026-04-18T10:16:23.999Z</time></trkpt><trkpt lat="45.042285927560144" lon="8.49730503846044"><ele>130.25</ele><time>2026-04-18T10:16:24.999Z</time></trkpt><trkpt lat="45.042156660228144" lon="8.49728802393808"><ele>130.0</ele><time>2026-04-18T10:16:25.999Z</time></trkpt><trkpt lat="45.042023432720136" lon="8.497268118971293"><ele>130.0</ele><time>2026-04-18T10:16:26.999Z</time></trkpt><trkpt lat="45.041863741670454" lon="8.497248240782106"><ele>130.0</ele><time>2026-04-18T10:16:28Z</time></trkpt><trkpt lat="45.04168325082202" lon="8.497254531160477"><ele>130.0</ele><time>2026-04-18T10:16:29Z</time></trkpt><trkpt lat="45.04150589706767" lon="8.497245296467506"><ele>130.5</ele><time>2026-04-18T10:16:30Z</time></trkpt><trkpt lat="45.04134481824159" lon="8.497244777997556"><ele>131.0</ele><time>2026-04-18T10:16:31Z</time></trkpt><trkpt lat="45.04119728541838" lon="8.49725072468227"><ele>131.5</ele><time>2026-04-18T10:16:32Z</time></trkpt><trkpt lat="45.041067049198546" lon="8.497255740407187"><ele>132.0</ele><time>2026-04-18T10:16:33Z</time></trkpt><trkpt lat="45.04093476914216" lon="8.497259745023543"><ele>132.0</ele><time>2026-04-18T10:16:34Z</time></trkpt><trkpt lat="45.04081923190151" lon="8.497264621204264"><ele>132.0</ele><time>2026-04-18T10:16:35Z</time></trkpt><trkpt lat="45.04068600954129" lon="8.497266455435103"><ele>132.0</ele><time>2026-04-18T10:16:36Z</time></trkpt><trkpt lat="45.04056383700323" lon="8.497281366101829"><ele>132.0</ele><time>2026-04-18T10:16:37Z</time></trkpt><trkpt lat="45.04044373147472" lon="8.497313528655305"><ele>132.25</ele><time>2026-04-18T10:16:38Z</time></trkpt><trkpt lat="45.040344771469606" lon="8.497360502173802"><ele>132.5</ele><time>2026-04-18T10:16:39Z</time></trkpt><trkpt lat="45.040230279079246" lon="8.497393893606704"><ele>132.75</ele><time>2026-04-18T10:16:40Z</time></trkpt><trkpt lat="45.040105138680566" lon="8.497431145817789"><ele>133.0</ele><time>2026-04-18T10:16:41Z</time></trkpt><trkpt lat="45.039990618030394" lon="8.497453927438993"><ele>133.0</ele><time>2026-04-18T10:16:42Z</time></trkpt><trkpt lat="45.039870429068536" lon="8.497477851360037"><ele>133.0</ele><time>2026-04-18T10:16:43Z</time></trkpt><trkpt lat="45.03974898069465" lon="8.497499723398388"><ele>133.0</ele><time>2026-04-18T10:16:44Z</time></trkpt><trkpt lat="45.03963550995364" lon="8.4975046109732"><ele>133.0</ele><time>2026-04-18T10:16:45Z</time></trkpt><trkpt lat="45.03952413039475" lon="8.497501902320836"><ele>133.0</ele><time>2026-04-18T10:16:46Z</time></trkpt><trkpt lat="45.03940634384494" lon="8.497523089736095"><ele>133.0</ele><time>2026-04-18T10:16:47Z</time></trkpt><trkpt lat="45.03926600073356" lon="8.497540484368809"><ele>133.0</ele><time>2026-04-18T10:16:48Z</time></trkpt><trkpt lat="45.03912597656889" lon="8.497558988286553"><ele>133.0</ele><time>2026-04-18T10:16:49Z</time></trkpt><trkpt lat="45.038986519565455" lon="8.497572053289362"><ele>132.8</ele><time>2026-04-18T10:16:50Z</time></trkpt><trkpt lat="45.038852342434026" lon="8.49758697658084"><ele>132.60000000000002</ele><time>2026-04-18T10:16:51Z</time></trkpt><trkpt lat="45.03872433472053" lon="8.497606491142067"><ele>132.39999999999998</ele><time>2026-04-18T10:16:52Z</time></trkpt><trkpt lat="45.03862187031143" lon="8.497630026613985"><ele>132.2</ele><time>2026-04-18T10:16:53Z</time></trkpt><trkpt lat="45.03854652553904" lon="8.497644243012845"><ele>132.0</ele><time>2026-04-18T10:16:54Z</time></trkpt><trkpt lat="45.03847881947569" lon="8.497626479575828"><ele>132.0</ele><time>2026-04-18T10:16:55Z</time></trkpt><trkpt lat="45.03835441533307" lon="8.497638643281068"><ele>132.0</ele><time>2026-04-18T10:16:57Z</time></trkpt><trkpt lat="45.038238010009664" lon="8.49762210151232"><ele>132.0</ele><time>2026-04-18T10:16:59Z</time></trkpt><trkpt lat="45.03811557653251" lon="8.497609068447895"><ele>132.0</ele><time>2026-04-18T10:17:01Z</time></trkpt><trkpt lat="45.03799947109166" lon="8.49758797907753"><ele>131.75</ele><time>2026-04-18T10:17:02Z</time></trkpt><trkpt lat="45.03786327024198" lon="8.49756896219171"><ele>131.5</ele><time>2026-04-18T10:17:03Z</time></trkpt><trkpt lat="45.03771461651648" lon="8.497543259779388"><ele>131.25</ele><time>2026-04-18T10:17:04Z</time></trkpt><trkpt lat="45.03757543641948" lon="8.497517868657747"><ele>131.0</ele><time>2026-04-18T10:17:05Z</time></trkpt><trkpt lat="45.03736582464235" lon="8.497490890461998"><ele>130.66666666666666</ele><time>2026-04-18T10:17:06Z</time></trkpt><trkpt lat="45.03718481849922" lon="8.497464559748217"><ele>130.33333333333334</ele><time>2026-04-18T10:17:07Z</time></trkpt><trkpt lat="45.03698862530591" lon="8.497438483869098"><ele>130.0</ele><time>2026-04-18T10:17:08Z</time></trkpt><trkpt lat="45.03681802751711" lon="8.497397087994306"><ele>130.0</ele><time>2026-04-18T10:17:09Z</time></trkpt><trkpt lat="45.03669155260339" lon="8.497393505753028"><ele>130.0</ele><time>2026-04-18T10:17:10Z</time></trkpt><trkpt lat="45.03654265105045" lon="8.49736878518587"><ele>130.0</ele><time>2026-04-18T10:17:11Z</time></trkpt><trkpt lat="45.03639144179289" lon="8.497351279286"><ele>130.0</ele><time>2026-04-18T10:17:12Z</time></trkpt><trkpt lat="45.03623061368553" lon="8.497301549952919"><ele>130.0</ele><time>2026-04-18T10:17:13Z</time></trkpt><trkpt lat="45.03607455864844" lon="8.497284364386376"><ele>130.0</ele><time>2026-04-18T10:17:14Z</time></trkpt><trkpt lat="45.03592839486183" lon="8.497255622056192"><ele>130.0</ele><time>2026-04-18T10:17:15Z</time></trkpt><trkpt lat="45.035795205350176" lon="8.497227482614964"><ele>130.0</ele><time>2026-04-18T10:17:16Z</time></trkpt><trkpt lat="45.03568044255786" lon="8.497188102830737"><ele>130.0</ele><time>2026-04-18T10:17:17Z</time></trkpt><trkpt lat="45.03558073399488" lon="8.497138858621188"><ele>130.0</ele><time>2026-04-18T10:17:18Z</time></trkpt><trkpt lat="45.03550460277103" lon="8.497059280039663"><ele>130.0</ele><time>2026-04-18T10:17:19Z</time></trkpt><trkpt lat="45.03543004987643" lon="8.497010171766574"><ele>130.0</ele><time>2026-04-18T10:17:20Z</time></trkpt><trkpt lat="45.03538083326851" lon="8.496910290824603"><ele>130.0</ele><time>2026-04-18T10:17:21Z</time></trkpt><trkpt lat="45.0353201474632" lon="8.496836637299948"><ele>130.0</ele><time>2026-04-18T10:17:22Z</time></trkpt><trkpt lat="45.03526435887747" lon="8.496707553703192"><ele>130.0</ele><time>2026-04-18T10:17:23Z</time></trkpt><trkpt lat="45.03522204227943" lon="8.496510662016787"><ele>130.0</ele><time>2026-04-18T10:17:24Z</time></trkpt><trkpt lat="45.035157201261015" lon="8.496268493929664"><ele>130.0</ele><time>2026-04-18T10:17:25Z</time></trkpt><trkpt lat="45.03509716039296" lon="8.496081505102296"><ele>130.0</ele><time>2026-04-18T10:17:26Z</time></trkpt><trkpt lat="45.03505773651241" lon="8.495922966376153"><ele>130.0</ele><time>2026-04-18T10:17:27Z</time></trkpt><trkpt lat="45.035022426802975" lon="8.495786533904468"><ele>130.0</ele><time>2026-04-18T10:17:28Z</time></trkpt><trkpt lat="45.034990965700324" lon="8.495665916743915"><ele>130.0</ele><time>2026-04-18T10:17:29Z</time></trkpt><trkpt lat="45.034965295695145" lon="8.495561217525703"><ele>130.0</ele><time>2026-04-18T10:17:30Z</time></trkpt><trkpt lat="45.03494211978775" lon="8.495461636822933"><ele>130.0</ele><time>2026-04-18T10:17:31Z</time></trkpt><trkpt lat="45.034923198276964" lon="8.49537540146275"><ele>130.0</ele><time>2026-04-18T10:17:32Z</time></trkpt><trkpt lat="45.034899980394194" lon="8.495279047360114"><ele>130.0</ele><time>2026-04-18T10:17:32.999Z</time></trkpt><trkpt lat="45.03485283722177" lon="8.495124237682864"><ele>130.0</ele><time>2026-04-18T10:17:34.999Z</time></trkpt><trkpt lat="45.03481858533552" lon="8.495039222331927"><ele>130.0</ele><time>2026-04-18T10:17:35.999Z</time></trkpt><trkpt lat="45.03480412542061" lon="8.494931361796723"><ele>130.0</ele><time>2026-04-18T10:17:36.999Z</time></trkpt><trkpt lat="45.03476759390951" lon="8.494797248399395"><ele>130.0</ele><time>2026-04-18T10:17:37.999Z</time></trkpt><trkpt lat="45.034723523839375" lon="8.494637500020168"><ele>130.0</ele><time>2026-04-18T10:17:38.999Z</time></trkpt><trkpt lat="45.034653669910085" lon="8.49446042768872"><ele>130.0</ele><time>2026-04-18T10:17:39.999Z</time></trkpt><trkpt lat="45.034610372042245" lon="8.494285259324082"><ele>130.0</ele><time>2026-04-18T10:17:40.999Z</time></trkpt><trkpt lat="45.03455947837253" lon="8.494135316318072"><ele>130.25</ele><time>2026-04-18T10:17:41.999Z</time></trkpt><trkpt lat="45.034511111798196" lon="8.493991066818758"><ele>130.5</ele><time>2026-04-18T10:17:42.999Z</time></trkpt><trkpt lat="45.03446212075734" lon="8.49383755002026"><ele>130.75</ele><time>2026-04-18T10:17:43.999Z</time></trkpt><trkpt lat="45.03440548869248" lon="8.493689959631006"><ele>131.0</ele><time>2026-04-18T10:17:44.999Z</time></trkpt><trkpt lat="45.03434958975706" lon="8.493554815897697"><ele>131.25</ele><time>2026-04-18T10:17:45.999Z</time></trkpt><trkpt lat="45.034298925191734" lon="8.493429642112638"><ele>131.5</ele><time>2026-04-18T10:17:46.999Z</time></trkpt><trkpt lat="45.034233294875406" lon="8.493291136897797"><ele>131.75</ele><time>2026-04-18T10:17:47.999Z</time></trkpt><trkpt lat="45.03414572584173" lon="8.493116754955318"><ele>132.0</ele><time>2026-04-18T10:17:48.999Z</time></trkpt><trkpt lat="45.03404419021171" lon="8.49291899353782"><ele>132.0</ele><time>2026-04-18T10:17:49.999Z</time></trkpt><trkpt lat="45.03394999606893" lon="8.492752259725036"><ele>132.0</ele><time>2026-04-18T10:17:50.999Z</time></trkpt><trkpt lat="45.033863502790595" lon="8.492595921664165"><ele>132.0</ele><time>2026-04-18T10:17:51.999Z</time></trkpt><trkpt lat="45.03378236660474" lon="8.492414277835474"><ele>132.0</ele><time>2026-04-18T10:17:52.999Z</time></trkpt><trkpt lat="45.0337176602725" lon="8.492222360591589"><ele>132.0</ele><time>2026-04-18T10:17:53.999Z</time></trkpt><trkpt lat="45.03364390041142" lon="8.49203889475767"><ele>132.0</ele><time>2026-04-18T10:17:54.999Z</time></trkpt><trkpt lat="45.03357481068509" lon="8.491851489546397"><ele>132.0</ele><time>2026-04-18T10:17:55.999Z</time></trkpt><trkpt lat="45.03349903723904" lon="8.491686861065567"><ele>132.0</ele><time>2026-04-18T10:17:56.999Z</time></trkpt><trkpt lat="45.03345380192853" lon="8.491499746420132"><ele>132.0</ele><time>2026-04-18T10:17:57.999Z</time></trkpt><trkpt lat="45.03338072917653" lon="8.4913215548533"><ele>132.0</ele><time>2026-04-18T10:17:58.999Z</time></trkpt><trkpt lat="45.033340939335375" lon="8.491118553586201"><ele>132.0</ele><time>2026-04-18T10:17:59.999Z</time></trkpt><trkpt lat="45.033288985224694" lon="8.490911293164766"><ele>132.0</ele><time>2026-04-18T10:18:00.999Z</time></trkpt><trkpt lat="45.03324014767629" lon="8.490702635522139"><ele>132.0</ele><time>2026-04-18T10:18:01.999Z</time></trkpt><trkpt lat="45.03319599774794" lon="8.490508082418318"><ele>132.0</ele><time>2026-04-18T10:18:02.999Z</time></trkpt><trkpt lat="45.033151153879544" lon="8.490310471412304"><ele>132.0</ele><time>2026-04-18T10:18:03.999Z</time></trkpt><trkpt lat="45.03310627039604" lon="8.490112686094085"><ele>132.0</ele><time>2026-04-18T10:18:04.999Z</time></trkpt><trkpt lat="45.033046296339435" lon="8.48992496102785"><ele>132.0</ele><time>2026-04-18T10:18:05.999Z</time></trkpt><trkpt lat="45.033014807327916" lon="8.48970330232676"><ele>132.0</ele><time>2026-04-18T10:18:06.999Z</time></trkpt><trkpt lat="45.032952777904306" lon="8.489494771278823"><ele>132.0</ele><time>2026-04-18T10:18:07.999Z</time></trkpt><trkpt lat="45.03290858616948" lon="8.489298469486851"><ele>132.0</ele><time>2026-04-18T10:18:08.999Z</time></trkpt><trkpt lat="45.032863478471384" lon="8.489094219711411"><ele>132.0</ele><time>2026-04-18T10:18:09.999Z</time></trkpt><trkpt lat="45.03281107590732" lon="8.48890140951025"><ele>132.0</ele><time>2026-04-18T10:18:10.999Z</time></trkpt><trkpt lat="45.032753704813494" lon="8.488713718880394"><ele>132.33333333333334</ele><time>2026-04-18T10:18:11.999Z</time></trkpt><trkpt lat="45.03269122007498" lon="8.488506017473485"><ele>132.66666666666669</ele><time>2026-04-18T10:18:12.999Z</time></trkpt><trkpt lat="45.0326176798831" lon="8.488306273287051"><ele>133.0</ele><time>2026-04-18T10:18:13.999Z</time></trkpt><trkpt lat="45.03254338544402" lon="8.488102422446913"><ele>133.0</ele><time>2026-04-18T10:18:14.999Z</time></trkpt><trkpt lat="45.03246877433303" lon="8.487889594931989"><ele>133.0</ele><time>2026-04-18T10:18:15.999Z</time></trkpt><trkpt lat="45.03239661170434" lon="8.48766781039079"><ele>133.0</ele><time>2026-04-18T10:18:16.999Z</time></trkpt><trkpt lat="45.03233137698254" lon="8.487473066295188"><ele>133.0</ele><time>2026-04-18T10:18:17.999Z</time></trkpt><trkpt lat="45.032261795311484" lon="8.487262837719424"><ele>133.0</ele><time>2026-04-18T10:18:18.999Z</time></trkpt><trkpt lat="45.03219225371912" lon="8.487058814229034"><ele>133.0</ele><time>2026-04-18T10:18:19.999Z</time></trkpt><trkpt lat="45.032129265284055" lon="8.486872658151098"><ele>133.0</ele><time>2026-04-18T10:18:21.001Z</time></trkpt><trkpt lat="45.03205903373557" lon="8.48666830643747"><ele>133.0</ele><time>2026-04-18T10:18:22.001Z</time></trkpt><trkpt lat="45.031986243651616" lon="8.486473458359782"><ele>133.0</ele><time>2026-04-18T10:18:23.001Z</time></trkpt><trkpt lat="45.031914972829256" lon="8.486278496388664"><ele>133.5</ele><time>2026-04-18T10:18:24.001Z</time></trkpt><trkpt lat="45.03184998821548" lon="8.486112257469527"><ele>134.0</ele><time>2026-04-18T10:18:25.001Z</time></trkpt><trkpt lat="45.03177391366488" lon="8.485937868054739"><ele>134.5</ele><time>2026-04-18T10:18:26.001Z</time></trkpt><trkpt lat="45.03168497487183" lon="8.485762634681121"><ele>135.0</ele><time>2026-04-18T10:18:27.001Z</time></trkpt><trkpt lat="45.03160899612531" lon="8.485613573043679"><ele>135.0</ele><time>2026-04-18T10:18:28.001Z</time></trkpt><trkpt lat="45.03153988712129" lon="8.48547249392603"><ele>135.0</ele><time>2026-04-18T10:18:29.001Z</time></trkpt><trkpt lat="45.031477701180776" lon="8.48534566343701"><ele>135.0</ele><time>2026-04-18T10:18:30.001Z</time></trkpt><trkpt lat="45.03136277624455" lon="8.485111093321876"><ele>135.0</ele><time>2026-04-18T10:18:32.001Z</time></trkpt><trkpt lat="45.03130924648198" lon="8.485004380167728"><ele>135.0</ele><time>2026-04-18T10:18:33.001Z</time></trkpt><trkpt lat="45.031258447727346" lon="8.484910405866179"><ele>135.0</ele><time>2026-04-18T10:18:34.001Z</time></trkpt><trkpt lat="45.03121321292887" lon="8.484821513630095"><ele>135.0</ele><time>2026-04-18T10:18:35.001Z</time></trkpt><trkpt lat="45.03117170511129" lon="8.484746865926924"><ele>135.0</ele><time>2026-04-18T10:18:36.001Z</time></trkpt><trkpt lat="45.03113210237144" lon="8.484671167258591"><ele>135.0</ele><time>2026-04-18T10:18:37.001Z</time></trkpt><trkpt lat="45.0310906729397" lon="8.484603089765004"><ele>135.0</ele><time>2026-04-18T10:18:38.001Z</time></trkpt><trkpt lat="45.031042936201224" lon="8.484533303479735"><ele>135.0</ele><time>2026-04-18T10:18:39.001Z</time></trkpt><trkpt lat="45.03098203686894" lon="8.484462573933525"><ele>134.75</ele><time>2026-04-18T10:18:40.001Z</time></trkpt><trkpt lat="45.03090152492931" lon="8.484358844558663"><ele>134.5</ele><time>2026-04-18T10:18:41.001Z</time></trkpt><trkpt lat="45.0307825166504" lon="8.484238878934002"><ele>134.25</ele><time>2026-04-18T10:18:42.001Z</time></trkpt><trkpt lat="45.030670109779855" lon="8.484125554397082"><ele>134.0</ele><time>2026-04-18T10:18:43.001Z</time></trkpt><trkpt lat="45.030578414545076" lon="8.484032720152888"><ele>134.5</ele><time>2026-04-18T10:18:44.001Z</time></trkpt><trkpt lat="45.03047243630056" lon="8.483924507747206"><ele>135.0</ele><time>2026-04-18T10:18:45.001Z</time></trkpt><trkpt lat="45.03035624533307" lon="8.483807873489985"><ele>135.5</ele><time>2026-04-18T10:18:46.001Z</time></trkpt><trkpt lat="45.03022931084075" lon="8.48368233681631"><ele>136.0</ele><time>2026-04-18T10:18:47.001Z</time></trkpt><trkpt lat="45.030095566008" lon="8.483549334877937"><ele>135.66666666666669</ele><time>2026-04-18T10:18:48.001Z</time></trkpt><trkpt lat="45.029962923813876" lon="8.483414700571734"><ele>135.33333333333334</ele><time>2026-04-18T10:18:49Z</time></trkpt><trkpt lat="45.02984066933589" lon="8.483287937876721"><ele>135.0</ele><time>2026-04-18T10:18:50Z</time></trkpt><trkpt lat="45.02973122331709" lon="8.48317452774929"><ele>135.0</ele><time>2026-04-18T10:18:51Z</time></trkpt><trkpt lat="45.029634919570256" lon="8.483079372112806"><ele>135.0</ele><time>2026-04-18T10:18:52Z</time></trkpt><trkpt lat="45.029534937215175" lon="8.48298814290448"><ele>135.0</ele><time>2026-04-18T10:18:53Z</time></trkpt><trkpt lat="45.02940215596324" lon="8.482867257132005"><ele>135.0</ele><time>2026-04-18T10:18:54Z</time></trkpt><trkpt lat="45.02928752844533" lon="8.482756106548273"><ele>134.0</ele><time>2026-04-18T10:18:55Z</time></trkpt><trkpt lat="45.029191917222796" lon="8.482641108102671"><ele>133.0</ele><time>2026-04-18T10:18:56Z</time></trkpt><trkpt lat="45.02908769349101" lon="8.482587291879247"><ele>132.0</ele><time>2026-04-18T10:18:57Z</time></trkpt><trkpt lat="45.02899947097809" lon="8.482541452635832"><ele>131.0</ele><time>2026-04-18T10:18:58Z</time></trkpt><trkpt lat="45.02891484575415" lon="8.482490378671969"><ele>130.0</ele><time>2026-04-18T10:18:59Z</time></trkpt><trkpt lat="45.0288440839446" lon="8.48246518575034"><ele>129.57142857142858</ele><time>2026-04-18T10:19:00Z</time></trkpt><trkpt lat="45.028779541681864" lon="8.48243700381721"><ele>129.14285714285714</ele><time>2026-04-18T10:19:01Z</time></trkpt><trkpt lat="45.02868425442824" lon="8.482380820107483"><ele>128.71428571428572</ele><time>2026-04-18T10:19:03Z</time></trkpt><trkpt lat="45.028699485708884" lon="8.482285689743073"><ele>128.28571428571428</ele><time>2026-04-18T10:19:10Z</time></trkpt><trkpt lat="45.028752966727346" lon="8.482216529062171"><ele>127.85714285714286</ele><time>2026-04-18T10:19:23.999Z</time></trkpt><trkpt lat="45.02879130956365" lon="8.482139519736199"><ele>127.42857142857143</ele><time>2026-04-18T10:19:43.999Z</time></trkpt><trkpt lat="45.028816049744265" lon="8.4820555928104"><ele>127.0</ele><time>2026-04-18T10:19:44.999Z</time></trkpt><trkpt lat="45.028828890335085" lon="8.481963850122094"><ele>126.19999999999999</ele><time>2026-04-18T10:19:45.999Z</time></trkpt><trkpt lat="45.02884109810154" lon="8.48186964824218"><ele>125.39999999999999</ele><time>2026-04-18T10:19:46.999Z</time></trkpt><trkpt lat="45.02885662377339" lon="8.481676058086835"><ele>124.60000000000001</ele><time>2026-04-18T10:19:48.999Z</time></trkpt><trkpt lat="45.02887293688818" lon="8.481552571495762"><ele>123.80000000000001</ele><time>2026-04-18T10:19:49.999Z</time></trkpt><trkpt lat="45.02888829149302" lon="8.4814116821281"><ele>123.0</ele><time>2026-04-18T10:19:50.999Z</time></trkpt><trkpt lat="45.02889953622481" lon="8.481296517016936"><ele>122.80000000000001</ele><time>2026-04-18T10:19:51.999Z</time></trkpt><trkpt lat="45.02891346669744" lon="8.481194236559537"><ele>122.60000000000001</ele><time>2026-04-18T10:19:52.999Z</time></trkpt><trkpt lat="45.02892722705686" lon="8.481090584078345"><ele>122.39999999999999</ele><time>2026-04-18T10:19:53.999Z</time></trkpt><trkpt lat="45.02894260895435" lon="8.48093186032069"><ele>122.19999999999999</ele><time>2026-04-18T10:19:55.999Z</time></trkpt><trkpt lat="45.02895830061798" lon="8.48077878931028"><ele>122.0</ele><time>2026-04-18T10:19:57.999Z</time></trkpt><trkpt lat="45.028968550841576" lon="8.480664953779023"><ele>121.99999999999999</ele><time>2026-04-18T10:20:00.999Z</time></trkpt><trkpt lat="45.02898555995264" lon="8.48056094405937"><ele>122.0</ele><time>2026-04-18T10:20:04.999Z</time></trkpt><trkpt lat="45.028991976510646" lon="8.480458048448769"><ele>121.99999999999999</ele><time>2026-04-18T10:20:07.999Z</time></trkpt><trkpt lat="45.0290043299854" lon="8.480352397532192"><ele>121.99999999999999</ele><time>2026-04-18T10:20:10.999Z</time></trkpt><trkpt lat="45.02901968082904" lon="8.480242588150725"><ele>122.0</ele><time>2026-04-18T10:20:14.999Z</time></trkpt><trkpt lat="45.02902424688429" lon="8.480147452094052"><ele>121.99999999999999</ele><time>2026-04-18T10:20:17.999Z</time></trkpt><trkpt lat="45.02903851445335" lon="8.480060362702728"><ele>121.99999999999999</ele><time>2026-04-18T10:20:20.999Z</time></trkpt><trkpt lat="45.02904908692372" lon="8.479962846407993"><ele>122.33333333333333</ele><time>2026-04-18T10:20:25.999Z</time></trkpt><trkpt lat="45.02907001270278" lon="8.479847665189647"><ele>122.66666666666666</ele><time>2026-04-18T10:20:30.001Z</time></trkpt><trkpt lat="45.029095489634216" lon="8.479726006863253"><ele>123.0</ele><time>2026-04-18T10:20:32.001Z</time></trkpt><trkpt lat="45.029107075116734" lon="8.47961971826842"><ele>123.33333333333334</ele><time>2026-04-18T10:20:33.001Z</time></trkpt><trkpt lat="45.02911305349516" lon="8.47946174711968"><ele>123.66666666666667</ele><time>2026-04-18T10:20:35.001Z</time></trkpt><trkpt lat="45.02911895176909" lon="8.479358902310233"><ele>124.0</ele><time>2026-04-18T10:20:36.001Z</time></trkpt><trkpt lat="45.029131086595925" lon="8.479271480405108"><ele>123.2</ele><time>2026-04-18T10:20:37.001Z</time></trkpt><trkpt lat="45.02916948149523" lon="8.479186588890043"><ele>122.4</ele><time>2026-04-18T10:20:38.001Z</time></trkpt><trkpt lat="45.02919923608691" lon="8.479058158933736"><ele>121.6</ele><time>2026-04-18T10:20:40.001Z</time></trkpt><trkpt lat="45.02925663956052" lon="8.47890906352063"><ele>120.8</ele><time>2026-04-18T10:20:42.001Z</time></trkpt><trkpt lat="45.02926993386594" lon="8.478810924967984"><ele>120.0</ele><time>2026-04-18T10:20:43.001Z</time></trkpt><trkpt lat="45.02924804202667" lon="8.478660086162588"><ele>119.83333333333333</ele><time>2026-04-18T10:20:45.001Z</time></trkpt><trkpt lat="45.02921601802232" lon="8.478580418517366"><ele>119.66666666666666</ele><time>2026-04-18T10:20:46.001Z</time></trkpt><trkpt lat="45.02917394198833" lon="8.478486461956326"><ele>119.5</ele><time>2026-04-18T10:20:47.001Z</time></trkpt><trkpt lat="45.02911619354638" lon="8.478411727413917"><ele>119.33333333333333</ele><time>2026-04-18T10:20:48.001Z</time></trkpt><trkpt lat="45.0290556199851" lon="8.478357299427772"><ele>119.16666666666666</ele><time>2026-04-18T10:20:49.001Z</time></trkpt><trkpt lat="45.02897749378953" lon="8.478307448090305"><ele>119.0</ele><time>2026-04-18T10:20:50.001Z</time></trkpt><trkpt lat="45.02886995471595" lon="8.478222793744944"><ele>119.2</ele><time>2026-04-18T10:20:51Z</time></trkpt><trkpt lat="45.02876891981225" lon="8.478124507969536"><ele>119.4</ele><time>2026-04-18T10:20:52Z</time></trkpt><trkpt lat="45.028668994155375" lon="8.478048438658648"><ele>119.6</ele><time>2026-04-18T10:20:53Z</time></trkpt><trkpt lat="45.02858689387038" lon="8.477985939219712"><ele>119.8</ele><time>2026-04-18T10:20:54Z</time></trkpt><trkpt lat="45.0285018184128" lon="8.477921174797544"><ele>120.0</ele><time>2026-04-18T10:20:55Z</time></trkpt><trkpt lat="45.028384983788875" lon="8.477832233410359"><ele>120.2</ele><time>2026-04-18T10:20:56Z</time></trkpt><trkpt lat="45.028269875836145" lon="8.477742250982706"><ele>120.4</ele><time>2026-04-18T10:20:57Z</time></trkpt><trkpt lat="45.02817669514939" lon="8.477666995700968"><ele>120.6</ele><time>2026-04-18T10:20:58Z</time></trkpt><trkpt lat="45.02810163460572" lon="8.477597916797569"><ele>120.8</ele><time>2026-04-18T10:20:59Z</time></trkpt><trkpt lat="45.02804371988799" lon="8.477530536899584"><ele>121.0</ele><time>2026-04-18T10:21:00Z</time></trkpt><trkpt lat="45.02796361762305" lon="8.47738470498146"><ele>121.0</ele><time>2026-04-18T10:21:02Z</time></trkpt><trkpt lat="45.02797974761153" lon="8.477271764265438"><ele>121.0</ele><time>2026-04-18T10:21:03Z</time></trkpt><trkpt lat="45.027971371343156" lon="8.477097125536098"><ele>121.0</ele><time>2026-04-18T10:21:04Z</time></trkpt><trkpt lat="45.02798264570514" lon="8.476881041460558"><ele>121.0</ele><time>2026-04-18T10:21:05Z</time></trkpt><trkpt lat="45.027995540921374" lon="8.476662746958382"><ele>121.4</ele><time>2026-04-18T10:21:06Z</time></trkpt><trkpt lat="45.02799943884591" lon="8.476523891647172"><ele>121.8</ele><time>2026-04-18T10:21:07Z</time></trkpt><trkpt lat="45.02800280714379" lon="8.4763995883815"><ele>122.20000000000002</ele><time>2026-04-18T10:21:08Z</time></trkpt><trkpt lat="45.02799728309223" lon="8.476261096369953"><ele>122.60000000000001</ele><time>2026-04-18T10:21:10Z</time></trkpt><trkpt lat="45.027920951870165" lon="8.476250391000887"><ele>123.0</ele><time>2026-04-18T10:21:13Z</time></trkpt><trkpt lat="45.027831893557654" lon="8.476275209034581"><ele>123.0</ele><time>2026-04-18T10:21:14Z</time></trkpt><trkpt lat="45.02770619153838" lon="8.476273651663213"><ele>123.0</ele><time>2026-04-18T10:21:15Z</time></trkpt><trkpt lat="45.02758445867959" lon="8.476309424213039"><ele>123.0</ele><time>2026-04-18T10:21:16Z</time></trkpt><trkpt lat="45.027437074118176" lon="8.476316120720936"><ele>123.0</ele><time>2026-04-18T10:21:17Z</time></trkpt><trkpt lat="45.02725946354061" lon="8.476337724573076"><ele>123.33333333333334</ele><time>2026-04-18T10:21:18Z</time></trkpt><trkpt lat="45.02707582898165" lon="8.476330289863396"><ele>123.66666666666667</ele><time>2026-04-18T10:21:19Z</time></trkpt><trkpt lat="45.02689831187453" lon="8.476340981782645"><ele>124.0</ele><time>2026-04-18T10:21:20Z</time></trkpt><trkpt lat="45.026742894064256" lon="8.476339425939956"><ele>124.25</ele><time>2026-04-18T10:21:21Z</time></trkpt><trkpt lat="45.026602267712505" lon="8.476319567624564"><ele>124.5</ele><time>2026-04-18T10:21:22Z</time></trkpt><trkpt lat="45.02646682312228" lon="8.476293293852397"><ele>124.75</ele><time>2026-04-18T10:21:23Z</time></trkpt><trkpt lat="45.02633464843482" lon="8.476264811214778"><ele>125.0</ele><time>2026-04-18T10:21:24Z</time></trkpt><trkpt lat="45.0262087927421" lon="8.476254979084791"><ele>125.0</ele><time>2026-04-18T10:21:25Z</time></trkpt><trkpt lat="45.026102831999886" lon="8.47617991185741"><ele>125.0</ele><time>2026-04-18T10:21:26Z</time></trkpt><trkpt lat="45.025997979474106" lon="8.47610721910627"><ele>125.0</ele><time>2026-04-18T10:21:27Z</time></trkpt><trkpt lat="45.02589770486788" lon="8.47601260619494"><ele>125.0</ele><time>2026-04-18T10:21:28Z</time></trkpt><trkpt lat="45.02577295420439" lon="8.4758995435463"><ele>125.0</ele><time>2026-04-18T10:21:29Z</time></trkpt><trkpt lat="45.025635415258236" lon="8.475758719217222"><ele>125.0</ele><time>2026-04-18T10:21:30Z</time></trkpt><trkpt lat="45.02549563321512" lon="8.475628086693723"><ele>125.0</ele><time>2026-04-18T10:21:31Z</time></trkpt><trkpt lat="45.02535635089694" lon="8.47551301383761"><ele>125.33333333333333</ele><time>2026-04-18T10:21:32Z</time></trkpt><trkpt lat="45.02519535603963" lon="8.475400074678332"><ele>125.66666666666666</ele><time>2026-04-18T10:21:33Z</time></trkpt><trkpt lat="45.02502769871816" lon="8.475284957192349"><ele>126.0</ele><time>2026-04-18T10:21:34Z</time></trkpt><trkpt lat="45.02486838618481" lon="8.475186227615302"><ele>126.33333333333334</ele><time>2026-04-18T10:21:35Z</time></trkpt><trkpt lat="45.0247161409059" lon="8.475093095385645"><ele>126.66666666666667</ele><time>2026-04-18T10:21:36Z</time></trkpt><trkpt lat="45.02457000487611" lon="8.475010885751193"><ele>127.0</ele><time>2026-04-18T10:21:37Z</time></trkpt><trkpt lat="45.02441983260771" lon="8.474941736032452"><ele>127.0</ele><time>2026-04-18T10:21:38Z</time></trkpt><trkpt lat="45.02425277349072" lon="8.474889707460207"><ele>127.0</ele><time>2026-04-18T10:21:39Z</time></trkpt><trkpt lat="45.02408459297271" lon="8.474844805597312"><ele>127.0</ele><time>2026-04-18T10:21:40Z</time></trkpt><trkpt lat="45.02393573349635" lon="8.474807663853356"><ele>126.5</ele><time>2026-04-18T10:21:41Z</time></trkpt><trkpt lat="45.02381574231261" lon="8.474731174332453"><ele>126.0</ele><time>2026-04-18T10:21:42Z</time></trkpt><trkpt lat="45.02369689246911" lon="8.474650709746461"><ele>125.5</ele><time>2026-04-18T10:21:43Z</time></trkpt><trkpt lat="45.02358228074081" lon="8.474540209193702"><ele>125.0</ele><time>2026-04-18T10:21:44Z</time></trkpt><trkpt lat="45.023440860963824" lon="8.474406836403906"><ele>125.0</ele><time>2026-04-18T10:21:45Z</time></trkpt><trkpt lat="45.023300015766914" lon="8.474313361945102"><ele>125.0</ele><time>2026-04-18T10:21:46Z</time></trkpt><trkpt lat="45.023132334035274" lon="8.474220133721944"><ele>125.0</ele><time>2026-04-18T10:21:47Z</time></trkpt><trkpt lat="45.022936814865" lon="8.47414839806835"><ele>125.0</ele><time>2026-04-18T10:21:48Z</time></trkpt><trkpt lat="45.022763032891234" lon="8.474039578374013"><ele>125.0</ele><time>2026-04-18T10:21:49Z</time></trkpt><trkpt lat="45.02258741674446" lon="8.473954518504438"><ele>125.0</ele><time>2026-04-18T10:21:50Z</time></trkpt><trkpt lat="45.02243023265391" lon="8.473874987233913"><ele>125.0</ele><time>2026-04-18T10:21:51Z</time></trkpt><trkpt lat="45.02227892775224" lon="8.47379087462426"><ele>125.0</ele><time>2026-04-18T10:21:52Z</time></trkpt><trkpt lat="45.022103310264164" lon="8.473658761261527"><ele>125.0</ele><time>2026-04-18T10:21:53Z</time></trkpt><trkpt lat="45.02194168513562" lon="8.473530770172834"><ele>125.0</ele><time>2026-04-18T10:21:54Z</time></trkpt><trkpt lat="45.021791296394404" lon="8.473411932342593"><ele>125.0</ele><time>2026-04-18T10:21:55Z</time></trkpt><trkpt lat="45.02164239404055" lon="8.473305965343725"><ele>125.0</ele><time>2026-04-18T10:21:56Z</time></trkpt><trkpt lat="45.02147295414595" lon="8.473212389864049"><ele>125.0</ele><time>2026-04-18T10:21:57Z</time></trkpt><trkpt lat="45.02132085461053" lon="8.473101244846966"><ele>125.0</ele><time>2026-04-18T10:21:58Z</time></trkpt><trkpt lat="45.02118080624339" lon="8.472992348468072"><ele>125.0</ele><time>2026-04-18T10:21:59Z</time></trkpt><trkpt lat="45.021068271733974" lon="8.472866449231349"><ele>125.25</ele><time>2026-04-18T10:22:00Z</time></trkpt><trkpt lat="45.02094802152336" lon="8.472762893213206"><ele>125.5</ele><time>2026-04-18T10:22:01Z</time></trkpt><trkpt lat="45.02084406531068" lon="8.472622051936822"><ele>125.75</ele><time>2026-04-18T10:22:02Z</time></trkpt><trkpt lat="45.02077245215143" lon="8.472465143633167"><ele>126.0</ele><time>2026-04-18T10:22:03Z</time></trkpt><trkpt lat="45.02067053987554" lon="8.472321339601454"><ele>126.0</ele><time>2026-04-18T10:22:04Z</time></trkpt><trkpt lat="45.02058661301532" lon="8.472168033002982"><ele>126.0</ele><time>2026-04-18T10:22:05Z</time></trkpt><trkpt lat="45.02050779507045" lon="8.472025839529408"><ele>126.0</ele><time>2026-04-18T10:22:06Z</time></trkpt><trkpt lat="45.02041342988454" lon="8.471885021679778"><ele>126.0</ele><time>2026-04-18T10:22:07Z</time></trkpt><trkpt lat="45.02029993333716" lon="8.471746601127983"><ele>126.33333333333334</ele><time>2026-04-18T10:22:08Z</time></trkpt><trkpt lat="45.02017403174388" lon="8.471607065381232"><ele>126.66666666666667</ele><time>2026-04-18T10:22:09Z</time></trkpt><trkpt lat="45.02003862616971" lon="8.471470510984833"><ele>127.0</ele><time>2026-04-18T10:22:10Z</time></trkpt><trkpt lat="45.01990535032961" lon="8.471341780512143"><ele>127.33333333333334</ele><time>2026-04-18T10:22:11Z</time></trkpt><trkpt lat="45.019754059206136" lon="8.471230962733797"><ele>127.66666666666666</ele><time>2026-04-18T10:22:12Z</time></trkpt><trkpt lat="45.01959380325624" lon="8.47112066074527"><ele>128.0</ele><time>2026-04-18T10:22:13Z</time></trkpt><trkpt lat="45.019428353751294" lon="8.471015097294266"><ele>128.0</ele><time>2026-04-18T10:22:14Z</time></trkpt><trkpt lat="45.01927915193476" lon="8.470916344657736"><ele>128.0</ele><time>2026-04-18T10:22:15Z</time></trkpt><trkpt lat="45.01912731119431" lon="8.470806526258066"><ele>128.0</ele><time>2026-04-18T10:22:16Z</time></trkpt><trkpt lat="45.018982760200636" lon="8.470718286851653"><ele>127.75</ele><time>2026-04-18T10:22:17Z</time></trkpt><trkpt lat="45.01884552576232" lon="8.47063610293698"><ele>127.5</ele><time>2026-04-18T10:22:18Z</time></trkpt><trkpt lat="45.018732837639114" lon="8.470541866058985"><ele>127.25</ele><time>2026-04-18T10:22:19Z</time></trkpt><trkpt lat="45.01862991744197" lon="8.470459791581703"><ele>127.0</ele><time>2026-04-18T10:22:20Z</time></trkpt><trkpt lat="45.018526075469175" lon="8.470349628801342"><ele>127.66666666666667</ele><time>2026-04-18T10:22:21Z</time></trkpt><trkpt lat="45.0184125740604" lon="8.470221597300704"><ele>128.33333333333334</ele><time>2026-04-18T10:22:22Z</time></trkpt><trkpt lat="45.018303938457336" lon="8.470037798268745"><ele>129.0</ele><time>2026-04-18T10:22:23Z</time></trkpt><trkpt lat="45.01820408435722" lon="8.469834520048664"><ele>128.33333333333334</ele><time>2026-04-18T10:22:24Z</time></trkpt><trkpt lat="45.01810501042753" lon="8.469599255233545"><ele>127.66666666666667</ele><time>2026-04-18T10:22:24.999Z</time></trkpt><trkpt lat="45.01800922659094" lon="8.469328860283307"><ele>127.0</ele><time>2026-04-18T10:22:25.999Z</time></trkpt><trkpt lat="45.01792128632412" lon="8.469077200711586"><ele>127.0</ele><time>2026-04-18T10:22:26.999Z</time></trkpt><trkpt lat="45.01784248227571" lon="8.468848747252217"><ele>127.0</ele><time>2026-04-18T10:22:27.999Z</time></trkpt><trkpt lat="45.017776872196606" lon="8.468636774184603"><ele>127.0</ele><time>2026-04-18T10:22:28.999Z</time></trkpt><trkpt lat="45.017716998236544" lon="8.468420065866031"><ele>128.0</ele><time>2026-04-18T10:22:29.999Z</time></trkpt><trkpt lat="45.01767442620145" lon="8.468222220618253"><ele>129.0</ele><time>2026-04-18T10:22:30.999Z</time></trkpt><trkpt lat="45.0176196847642" lon="8.468010208505444"><ele>130.0</ele><time>2026-04-18T10:22:32.001Z</time></trkpt><trkpt lat="45.017539105078065" lon="8.467772747785656"><ele>129.66666666666669</ele><time>2026-04-18T10:22:33.001Z</time></trkpt><trkpt lat="45.017442017359855" lon="8.467524911418868"><ele>129.33333333333334</ele><time>2026-04-18T10:22:34.001Z</time></trkpt><trkpt lat="45.01733686757886" lon="8.467293160338976"><ele>129.0</ele><time>2026-04-18T10:22:35.001Z</time></trkpt><trkpt lat="45.01724813068267" lon="8.467086732940455"><ele>129.0</ele><time>2026-04-18T10:22:36.001Z</time></trkpt><trkpt lat="45.01715966903861" lon="8.466897814381447"><ele>129.0</ele><time>2026-04-18T10:22:37.001Z</time></trkpt><trkpt lat="45.017070504854644" lon="8.466690664942524"><ele>129.0</ele><time>2026-04-18T10:22:38.001Z</time></trkpt><trkpt lat="45.01698010022952" lon="8.466508732521733"><ele>129.0</ele><time>2026-04-18T10:22:39.001Z</time></trkpt><trkpt lat="45.016878710590746" lon="8.46635148623863"><ele>129.0</ele><time>2026-04-18T10:22:40.001Z</time></trkpt><trkpt lat="45.01676370266885" lon="8.466208752076572"><ele>129.0</ele><time>2026-04-18T10:22:41.001Z</time></trkpt><trkpt lat="45.01664417943026" lon="8.466082749322155"><ele>129.0</ele><time>2026-04-18T10:22:42.001Z</time></trkpt><trkpt lat="45.01651803697249" lon="8.465976153417062"><ele>129.0</ele><time>2026-04-18T10:22:43.001Z</time></trkpt><trkpt lat="45.016359993825425" lon="8.465849104317188"><ele>129.0</ele><time>2026-04-18T10:22:44.001Z</time></trkpt><trkpt lat="45.016187863878365" lon="8.46568467879191"><ele>129.0</ele><time>2026-04-18T10:22:45.001Z</time></trkpt><trkpt lat="45.0160453257534" lon="8.465517851137209"><ele>129.0</ele><time>2026-04-18T10:22:46.001Z</time></trkpt><trkpt lat="45.01592526859484" lon="8.465363958768835"><ele>129.0</ele><time>2026-04-18T10:22:47.001Z</time></trkpt><trkpt lat="45.01581105521575" lon="8.465208655961618"><ele>129.66666666666666</ele><time>2026-04-18T10:22:48.001Z</time></trkpt><trkpt lat="45.015692606513305" lon="8.465037066525637"><ele>130.33333333333331</ele><time>2026-04-18T10:22:49.001Z</time></trkpt><trkpt lat="45.015581006254976" lon="8.464870644072318"><ele>131.0</ele><time>2026-04-18T10:22:50.001Z</time></trkpt><trkpt lat="45.01549245292069" lon="8.464704871573801"><ele>132.0</ele><time>2026-04-18T10:22:51.001Z</time></trkpt><trkpt lat="45.015418727627434" lon="8.464525791579586"><ele>133.0</ele><time>2026-04-18T10:22:52.001Z</time></trkpt><trkpt lat="45.01534440493723" lon="8.464302887989465"><ele>134.0</ele><time>2026-04-18T10:22:53.001Z</time></trkpt><trkpt lat="45.015265590442176" lon="8.464066011990877"><ele>134.0</ele><time>2026-04-18T10:22:54.001Z</time></trkpt><trkpt lat="45.0151675977005" lon="8.463825308227985"><ele>134.0</ele><time>2026-04-18T10:22:55.001Z</time></trkpt><trkpt lat="45.015067544577725" lon="8.463614960790553"><ele>134.0</ele><time>2026-04-18T10:22:56.001Z</time></trkpt><trkpt lat="45.01498364209706" lon="8.463466845007362"><ele>133.2</ele><time>2026-04-18T10:22:57.001Z</time></trkpt><trkpt lat="45.01492519778876" lon="8.463355299892415"><ele>132.4</ele><time>2026-04-18T10:22:58.001Z</time></trkpt><trkpt lat="45.014891664581754" lon="8.463227281442125"><ele>131.6</ele><time>2026-04-18T10:22:59.001Z</time></trkpt><trkpt lat="45.0148583015164" lon="8.463132248468487"><ele>130.8</ele><time>2026-04-18T10:23:00.001Z</time></trkpt><trkpt lat="45.01482647893952" lon="8.463041603629325"><ele>130.0</ele><time>2026-04-18T10:23:01.001Z</time></trkpt><trkpt lat="45.014694543350096" lon="8.46303571319588"><ele>130.4</ele><time>2026-04-18T10:23:02.001Z</time></trkpt><trkpt lat="45.01461912468193" lon="8.46290353948577"><ele>130.8</ele><time>2026-04-18T10:23:04.001Z</time></trkpt><trkpt lat="45.014551914067" lon="8.462783749509237"><ele>131.2</ele><time>2026-04-18T10:23:06.001Z</time></trkpt><trkpt lat="45.01450751880797" lon="8.462705969762533"><ele>131.6</ele><time>2026-04-18T10:23:08.001Z</time></trkpt><trkpt lat="45.01445196282141" lon="8.46262999115879"><ele>132.0</ele><time>2026-04-18T10:23:11.001Z</time></trkpt><trkpt lat="45.01439611084024" lon="8.462531416455667"><ele>132.0</ele><time>2026-04-18T10:23:48Z</time></trkpt><trkpt lat="45.01434993583239" lon="8.462447222626878"><ele>132.0</ele><time>2026-04-18T10:23:49Z</time></trkpt><trkpt lat="45.01429552313479" lon="8.46234868453871"><ele>132.0</ele><time>2026-04-18T10:23:50Z</time></trkpt><trkpt lat="45.0142291725729" lon="8.46222172270125"><ele>132.0</ele><time>2026-04-18T10:23:51Z</time></trkpt><trkpt lat="45.01415613840962" lon="8.462072333799544"><ele>132.0</ele><time>2026-04-18T10:23:52Z</time></trkpt><trkpt lat="45.01409470046079" lon="8.46193428830411"><ele>132.0</ele><time>2026-04-18T10:23:53Z</time></trkpt><trkpt lat="45.014026407008394" lon="8.461770812189993"><ele>132.0</ele><time>2026-04-18T10:23:54Z</time></trkpt><trkpt lat="45.01395812428858" lon="8.46161203533476"><ele>132.0</ele><time>2026-04-18T10:23:55Z</time></trkpt><trkpt lat="45.01389367764431" lon="8.461431305265448"><ele>132.0</ele><time>2026-04-18T10:23:56Z</time></trkpt><trkpt lat="45.0138355984237" lon="8.461263641428356"><ele>132.0</ele><time>2026-04-18T10:23:57Z</time></trkpt><trkpt lat="45.01378086893334" lon="8.46110864207304"><ele>132.0</ele><time>2026-04-18T10:23:58Z</time></trkpt><trkpt lat="45.01373266929193" lon="8.460969805770853"><ele>132.0</ele><time>2026-04-18T10:23:59Z</time></trkpt><trkpt lat="45.01368990386274" lon="8.460852170170185"><ele>132.0</ele><time>2026-04-18T10:24:00Z</time></trkpt><trkpt lat="45.01365089164785" lon="8.46077134246993"><ele>132.0</ele><time>2026-04-18T10:24:01Z</time></trkpt><trkpt lat="45.013597987865076" lon="8.460707670611386"><ele>132.0</ele><time>2026-04-18T10:24:02Z</time></trkpt><trkpt lat="45.01353194758042" lon="8.460680068263951"><ele>132.0</ele><time>2026-04-18T10:24:03Z</time></trkpt><trkpt lat="45.01346027308192" lon="8.460699694376483"><ele>132.0</ele><time>2026-04-18T10:24:04Z</time></trkpt><trkpt lat="45.01335676845529" lon="8.46075183908248"><ele>132.0</ele><time>2026-04-18T10:24:05Z</time></trkpt><trkpt lat="45.01324919749095" lon="8.46081315188579"><ele>132.0</ele><time>2026-04-18T10:24:06Z</time></trkpt><trkpt lat="45.01315580313847" lon="8.460815911593238"><ele>132.0</ele><time>2026-04-18T10:24:07Z</time></trkpt><trkpt lat="45.01307594243138" lon="8.460780312677397"><ele>132.0</ele><time>2026-04-18T10:24:08Z</time></trkpt><trkpt lat="45.01301107266064" lon="8.460694922816828"><ele>132.0</ele><time>2026-04-18T10:24:09Z</time></trkpt><trkpt lat="45.01293499170911" lon="8.460547841355858"><ele>132.0</ele><time>2026-04-18T10:24:10Z</time></trkpt><trkpt lat="45.01284391633877" lon="8.460367081664367"><ele>132.0</ele><time>2026-04-18T10:24:11Z</time></trkpt><trkpt lat="45.01275660288247" lon="8.460179386580993"><ele>132.0</ele><time>2026-04-18T10:24:12Z</time></trkpt><trkpt lat="45.01267417322772" lon="8.459977992852776"><ele>132.0</ele><time>2026-04-18T10:24:13Z</time></trkpt><trkpt lat="45.01260110885935" lon="8.45977166060039"><ele>132.0</ele><time>2026-04-18T10:24:14Z</time></trkpt><trkpt lat="45.01254450886588" lon="8.459602424339742"><ele>132.0</ele><time>2026-04-18T10:24:15Z</time></trkpt><trkpt lat="45.01248821787216" lon="8.459449452691063"><ele>132.0</ele><time>2026-04-18T10:24:16Z</time></trkpt><trkpt lat="45.012447477199295" lon="8.45929510463193"><ele>132.0</ele><time>2026-04-18T10:24:17Z</time></trkpt><trkpt lat="45.01239205233644" lon="8.459101628893665"><ele>131.5</ele><time>2026-04-18T10:24:18Z</time></trkpt><trkpt lat="45.012332802792294" lon="8.458886330177622"><ele>131.0</ele><time>2026-04-18T10:24:19Z</time></trkpt><trkpt lat="45.01228484047555" lon="8.458687587134527"><ele>130.5</ele><time>2026-04-18T10:24:20Z</time></trkpt><trkpt lat="45.0122452050332" lon="8.458511602828672"><ele>130.0</ele><time>2026-04-18T10:24:21Z</time></trkpt><trkpt lat="45.012217377228744" lon="8.458343404778317"><ele>130.0</ele><time>2026-04-18T10:24:22Z</time></trkpt><trkpt lat="45.0122101712692" lon="8.458194653533326"><ele>130.0</ele><time>2026-04-18T10:24:23Z</time></trkpt><trkpt lat="45.012214655488" lon="8.45804241415559"><ele>130.0</ele><time>2026-04-18T10:24:24Z</time></trkpt><trkpt lat="45.01223872739671" lon="8.457911081753052"><ele>130.0</ele><time>2026-04-18T10:24:25Z</time></trkpt><trkpt lat="45.012287527178515" lon="8.457796575556287"><ele>130.0</ele><time>2026-04-18T10:24:26Z</time></trkpt><trkpt lat="45.012354677854944" lon="8.457675393964289"><ele>130.2</ele><time>2026-04-18T10:24:27Z</time></trkpt><trkpt lat="45.012400404862774" lon="8.457579714313137"><ele>130.4</ele><time>2026-04-18T10:24:28Z</time></trkpt><trkpt lat="45.01239520387331" lon="8.457473489457424"><ele>130.6</ele><time>2026-04-18T10:24:29Z</time></trkpt><trkpt lat="45.01235663919484" lon="8.457358033763539"><ele>130.8</ele><time>2026-04-18T10:24:30Z</time></trkpt><trkpt lat="45.012287473352494" lon="8.457213751199964"><ele>131.0</ele><time>2026-04-18T10:24:31Z</time></trkpt><trkpt lat="45.01218363797519" lon="8.457030737816288"><ele>130.33333333333331</ele><time>2026-04-18T10:24:32Z</time></trkpt><trkpt lat="45.01205445789496" lon="8.45680543010019"><ele>129.66666666666666</ele><time>2026-04-18T10:24:33Z</time></trkpt><trkpt lat="45.0119427372469" lon="8.456603736286123"><ele>129.0</ele><time>2026-04-18T10:24:34Z</time></trkpt><trkpt lat="45.01184980914452" lon="8.456417407227137"><ele>129.0</ele><time>2026-04-18T10:24:35Z</time></trkpt><trkpt lat="45.0117700814325" lon="8.456251292931285"><ele>129.0</ele><time>2026-04-18T10:24:36Z</time></trkpt><trkpt lat="45.01169885652359" lon="8.456084322958088"><ele>129.0</ele><time>2026-04-18T10:24:37Z</time></trkpt><trkpt lat="45.011626494683064" lon="8.455919212431166"><ele>129.0</ele><time>2026-04-18T10:24:38.002Z</time></trkpt><trkpt lat="45.01156327083561" lon="8.455769194728104"><ele>129.0</ele><time>2026-04-18T10:24:39.002Z</time></trkpt><trkpt lat="45.01150528426896" lon="8.45562391501223"><ele>129.0</ele><time>2026-04-18T10:24:40.002Z</time></trkpt><trkpt lat="45.011464873136624" lon="8.45548798758842"><ele>129.0</ele><time>2026-04-18T10:24:41.002Z</time></trkpt><trkpt lat="45.01142495309171" lon="8.455375999960706"><ele>129.0</ele><time>2026-04-18T10:24:42.002Z</time></trkpt><trkpt lat="45.01138495105464" lon="8.45528458627132"><ele>129.0</ele><time>2026-04-18T10:24:43.002Z</time></trkpt><trkpt lat="45.01133674907706" lon="8.455180313875138"><ele>129.4</ele><time>2026-04-18T10:24:44.002Z</time></trkpt><trkpt lat="45.011281985403464" lon="8.455061698062295"><ele>129.8</ele><time>2026-04-18T10:24:45.002Z</time></trkpt><trkpt lat="45.011231341646074" lon="8.45495137294682"><ele>130.2</ele><time>2026-04-18T10:24:46.002Z</time></trkpt><trkpt lat="45.011175311000926" lon="8.454816169568872"><ele>130.6</ele><time>2026-04-18T10:24:47.002Z</time></trkpt><trkpt lat="45.011127542708614" lon="8.454669711311407"><ele>131.0</ele><time>2026-04-18T10:24:48.002Z</time></trkpt><trkpt lat="45.01108671567871" lon="8.454500040191597"><ele>131.0</ele><time>2026-04-18T10:24:49.002Z</time></trkpt><trkpt lat="45.0110398551419" lon="8.454305872521681"><ele>131.0</ele><time>2026-04-18T10:24:50.002Z</time></trkpt><trkpt lat="45.010983798048535" lon="8.454155642160998"><ele>131.0</ele><time>2026-04-18T10:24:51.001Z</time></trkpt><trkpt lat="45.01090524810558" lon="8.45400865080721"><ele>131.0</ele><time>2026-04-18T10:24:52.001Z</time></trkpt><trkpt lat="45.01080939238107" lon="8.453845430274368"><ele>131.25</ele><time>2026-04-18T10:24:53.001Z</time></trkpt><trkpt lat="45.010719208509045" lon="8.453688082159875"><ele>131.5</ele><time>2026-04-18T10:24:54.001Z</time></trkpt><trkpt lat="45.010644381676634" lon="8.453540771741576"><ele>131.75</ele><time>2026-04-18T10:24:55.001Z</time></trkpt><trkpt lat="45.01057139753937" lon="8.45338756684033"><ele>132.0</ele><time>2026-04-18T10:24:56.001Z</time></trkpt><trkpt lat="45.01049936280106" lon="8.453242781871268"><ele>132.0</ele><time>2026-04-18T10:24:57.001Z</time></trkpt><trkpt lat="45.010433946756265" lon="8.453103204928478"><ele>132.0</ele><time>2026-04-18T10:24:58.001Z</time></trkpt><trkpt lat="45.01038288460628" lon="8.45298403551345"><ele>132.0</ele><time>2026-04-18T10:24:59.001Z</time></trkpt><trkpt lat="45.01031905241111" lon="8.452844547318433"><ele>132.0</ele><time>2026-04-18T10:25:00.001Z</time></trkpt><trkpt lat="45.01026474234042" lon="8.452720082799205"><ele>132.0</ele><time>2026-04-18T10:25:01.001Z</time></trkpt><trkpt lat="45.01020498474454" lon="8.452620462961303"><ele>132.25</ele><time>2026-04-18T10:25:02.001Z</time></trkpt><trkpt lat="45.01010918473579" lon="8.452527028975261"><ele>132.5</ele><time>2026-04-18T10:25:03.001Z</time></trkpt><trkpt lat="45.00997221470284" lon="8.452415097077141"><ele>132.75</ele><time>2026-04-18T10:25:04.001Z</time></trkpt><trkpt lat="45.00986048676273" lon="8.452318959408103"><ele>133.0</ele><time>2026-04-18T10:25:05.001Z</time></trkpt><trkpt lat="45.00975522084461" lon="8.452225588760733"><ele>132.8</ele><time>2026-04-18T10:25:06.001Z</time></trkpt><trkpt lat="45.00964588217937" lon="8.45212966168945"><ele>132.60000000000002</ele><time>2026-04-18T10:25:07.001Z</time></trkpt><trkpt lat="45.0095579459683" lon="8.452045204706103"><ele>132.39999999999998</ele><time>2026-04-18T10:25:08.001Z</time></trkpt><trkpt lat="45.00946990656553" lon="8.451958925890205"><ele>132.2</ele><time>2026-04-18T10:25:09.001Z</time></trkpt><trkpt lat="45.00939739561777" lon="8.451869215692817"><ele>132.0</ele><time>2026-04-18T10:25:10.001Z</time></trkpt><trkpt lat="45.009345931336206" lon="8.45175919469742"><ele>132.0</ele><time>2026-04-18T10:25:11.001Z</time></trkpt><trkpt lat="45.00933170807835" lon="8.451639740543554"><ele>132.0</ele><time>2026-04-18T10:25:12.001Z</time></trkpt><trkpt lat="45.00933371605526" lon="8.451492805221754"><ele>132.0</ele><time>2026-04-18T10:25:13.001Z</time></trkpt><trkpt lat="45.009329278276795" lon="8.45133298243313"><ele>132.0</ele><time>2026-04-18T10:25:14.001Z</time></trkpt><trkpt lat="45.00929270940305" lon="8.45118368947955"><ele>132.0</ele><time>2026-04-18T10:25:15.001Z</time></trkpt><trkpt lat="45.009228216550234" lon="8.451041032034956"><ele>132.0</ele><time>2026-04-18T10:25:16.001Z</time></trkpt><trkpt lat="45.00914265822262" lon="8.450897569305349"><ele>132.0</ele><time>2026-04-18T10:25:17.001Z</time></trkpt><trkpt lat="45.009061909110635" lon="8.45077114485619"><ele>132.0</ele><time>2026-04-18T10:25:18.001Z</time></trkpt><trkpt lat="45.008992350951694" lon="8.450652780712113"><ele>132.0</ele><time>2026-04-18T10:25:19.001Z</time></trkpt><trkpt lat="45.00892624931996" lon="8.450559314432597"><ele>132.0</ele><time>2026-04-18T10:25:20.001Z</time></trkpt><trkpt lat="45.00886901960454" lon="8.450480317192081"><ele>132.0</ele><time>2026-04-18T10:25:21.001Z</time></trkpt><trkpt lat="45.00881138751628" lon="8.450404025933999"><ele>132.0</ele><time>2026-04-18T10:25:22.001Z</time></trkpt><trkpt lat="45.00875391170016" lon="8.450335664339885"><ele>132.0</ele><time>2026-04-18T10:25:23.001Z</time></trkpt><trkpt lat="45.00867170230941" lon="8.450239040557433"><ele>132.0</ele><time>2026-04-18T10:25:25.001Z</time></trkpt><trkpt lat="45.008605120565" lon="8.45016223862816"><ele>132.0</ele><time>2026-04-18T10:25:27.001Z</time></trkpt><trkpt lat="45.00852781753256" lon="8.45007818324741"><ele>132.0</ele><time>2026-04-18T10:25:29.001Z</time></trkpt><trkpt lat="45.00846378237799" lon="8.450002791203449"><ele>132.0</ele><time>2026-04-18T10:25:30.001Z</time></trkpt><trkpt lat="45.00837270756851" lon="8.449891857769133"><ele>132.0</ele><time>2026-04-18T10:25:31.001Z</time></trkpt><trkpt lat="45.00828518321925" lon="8.44977775388971"><ele>132.0</ele><time>2026-04-18T10:25:32.001Z</time></trkpt><trkpt lat="45.00822261488295" lon="8.449673865646043"><ele>132.0</ele><time>2026-04-18T10:25:33.001Z</time></trkpt><trkpt lat="45.00819032461885" lon="8.449585734776903"><ele>132.25</ele><time>2026-04-18T10:25:34.001Z</time></trkpt><trkpt lat="45.008221895449886" lon="8.449389301117524"><ele>132.5</ele><time>2026-04-18T10:25:36Z</time></trkpt><trkpt lat="45.008273510765044" lon="8.449266621864155"><ele>132.75</ele><time>2026-04-18T10:25:37Z</time></trkpt><trkpt lat="45.008344560275134" lon="8.449128923136763"><ele>133.0</ele><time>2026-04-18T10:25:38Z</time></trkpt><trkpt lat="45.00844812448884" lon="8.448928667684072"><ele>134.0</ele><time>2026-04-18T10:25:39Z</time></trkpt><trkpt lat="45.008538082551816" lon="8.448757676770033"><ele>135.0</ele><time>2026-04-18T10:25:40Z</time></trkpt><trkpt lat="45.00861531743217" lon="8.448596836660931"><ele>136.0</ele><time>2026-04-18T10:25:41Z</time></trkpt><trkpt lat="45.00869079061702" lon="8.448452789775247"><ele>137.0</ele><time>2026-04-18T10:25:42Z</time></trkpt><trkpt lat="45.00877239760363" lon="8.448311802469183"><ele>137.0</ele><time>2026-04-18T10:25:43Z</time></trkpt><trkpt lat="45.00885480035605" lon="8.448193825326047"><ele>137.0</ele><time>2026-04-18T10:25:44Z</time></trkpt><trkpt lat="45.00894077547153" lon="8.448079924106269"><ele>137.0</ele><time>2026-04-18T10:25:45Z</time></trkpt><trkpt lat="45.00900745048062" lon="8.44798623616034"><ele>137.0</ele><time>2026-04-18T10:25:46Z</time></trkpt><trkpt lat="45.009061852150374" lon="8.447903914176395"><ele>137.0</ele><time>2026-04-18T10:25:47Z</time></trkpt><trkpt lat="45.009079851451865" lon="8.447807444519533"><ele>138.2</ele><time>2026-04-18T10:25:49Z</time></trkpt><trkpt lat="45.00900411976593" lon="8.447737990180151"><ele>139.39999999999998</ele><time>2026-04-18T10:25:51Z</time></trkpt><trkpt lat="45.00892649055158" lon="8.447700247776657"><ele>140.60000000000002</ele><time>2026-04-18T10:25:52Z</time></trkpt><trkpt lat="45.00883640410913" lon="8.447665382434385"><ele>141.8</ele><time>2026-04-18T10:25:52.999Z</time></trkpt><trkpt lat="45.00870829894585" lon="8.44759251691478"><ele>143.0</ele><time>2026-04-18T10:25:53.999Z</time></trkpt><trkpt lat="45.0085621975959" lon="8.447493284549738"><ele>143.0</ele><time>2026-04-18T10:25:54.999Z</time></trkpt><trkpt lat="45.00839576402842" lon="8.447398130950655"><ele>143.0</ele><time>2026-04-18T10:25:55.999Z</time></trkpt><trkpt lat="45.00825157452594" lon="8.447318220141577"><ele>143.0</ele><time>2026-04-18T10:25:56.999Z</time></trkpt><trkpt lat="45.008111757198215" lon="8.447252362108559"><ele>142.25</ele><time>2026-04-18T10:25:57.999Z</time></trkpt><trkpt lat="45.00797667114429" lon="8.447198052038374"><ele>141.5</ele><time>2026-04-18T10:25:58.999Z</time></trkpt><trkpt lat="45.00784165706134" lon="8.44713654781247"><ele>140.75</ele><time>2026-04-18T10:25:59.999Z</time></trkpt><trkpt lat="45.00772031402789" lon="8.447096192194849"><ele>140.0</ele><time>2026-04-18T10:26:00.999Z</time></trkpt><trkpt lat="45.00759915337739" lon="8.447072437819298"><ele>140.5</ele><time>2026-04-18T10:26:01.999Z</time></trkpt><trkpt lat="45.007470135209594" lon="8.44706940829718"><ele>141.0</ele><time>2026-04-18T10:26:02.999Z</time></trkpt><trkpt lat="45.007341190513074" lon="8.447045230670648"><ele>141.5</ele><time>2026-04-18T10:26:03.999Z</time></trkpt><trkpt lat="45.007234383302325" lon="8.447083088295862"><ele>142.0</ele><time>2026-04-18T10:26:04.999Z</time></trkpt><trkpt lat="45.00715269066035" lon="8.447113497700283"><ele>140.79999999999998</ele><time>2026-04-18T10:26:05.999Z</time></trkpt><trkpt lat="45.007074560094395" lon="8.447140789691229"><ele>139.6</ele><time>2026-04-18T10:26:06.999Z</time></trkpt><trkpt lat="45.00700390044287" lon="8.447288977564446"><ele>138.39999999999998</ele><time>2026-04-18T10:26:07.999Z</time></trkpt><trkpt lat="45.006928300338906" lon="8.447406502962597"><ele>137.2</ele><time>2026-04-18T10:26:08.999Z</time></trkpt><trkpt lat="45.006855842979505" lon="8.447467355723461"><ele>136.0</ele><time>2026-04-18T10:26:09.999Z</time></trkpt><trkpt lat="45.00671754194746" lon="8.4474648853389"><ele>136.0</ele><time>2026-04-18T10:26:11.999Z</time></trkpt><trkpt lat="45.006625389915605" lon="8.44742222750418"><ele>136.0</ele><time>2026-04-18T10:26:12.999Z</time></trkpt><trkpt lat="45.00651277627191" lon="8.447347976481131"><ele>136.0</ele><time>2026-04-18T10:26:13.999Z</time></trkpt><trkpt lat="45.006393647918536" lon="8.447264664198617"><ele>136.0</ele><time>2026-04-18T10:26:14.999Z</time></trkpt><trkpt lat="45.0062662165764" lon="8.447170115041953"><ele>137.66666666666669</ele><time>2026-04-18T10:26:15.999Z</time></trkpt><trkpt lat="45.00612526087242" lon="8.447062809165477"><ele>139.33333333333334</ele><time>2026-04-18T10:26:16.999Z</time></trkpt><trkpt lat="45.00598477417356" lon="8.446950503778583"><ele>141.0</ele><time>2026-04-18T10:26:17.999Z</time></trkpt><trkpt lat="45.00587145778679" lon="8.446859047761205"><ele>140.0</ele><time>2026-04-18T10:26:18.999Z</time></trkpt><trkpt lat="45.00575514678437" lon="8.446797265584447"><ele>139.0</ele><time>2026-04-18T10:26:19.999Z</time></trkpt><trkpt lat="45.005643909472774" lon="8.446721616476777"><ele>138.0</ele><time>2026-04-18T10:26:20.999Z</time></trkpt><trkpt lat="45.00552807832682" lon="8.446638386945342"><ele>137.0</ele><time>2026-04-18T10:26:21.999Z</time></trkpt><trkpt lat="45.005400132379165" lon="8.446585776145728"><ele>137.0</ele><time>2026-04-18T10:26:22.999Z</time></trkpt><trkpt lat="45.005286648373456" lon="8.44654875409675"><ele>137.0</ele><time>2026-04-18T10:26:23.999Z</time></trkpt><trkpt lat="45.00517874604584" lon="8.446531893892075"><ele>137.0</ele><time>2026-04-18T10:26:24.999Z</time></trkpt><trkpt lat="45.005081165409685" lon="8.446522240548"><ele>137.0</ele><time>2026-04-18T10:26:25.999Z</time></trkpt><trkpt lat="45.00495251089215" lon="8.446564546194347"><ele>136.66666666666666</ele><time>2026-04-18T10:26:26.999Z</time></trkpt><trkpt lat="45.00479619023319" lon="8.446577317423968"><ele>136.33333333333334</ele><time>2026-04-18T10:26:27.999Z</time></trkpt><trkpt lat="45.00462739721377" lon="8.446554255526912"><ele>136.0</ele><time>2026-04-18T10:26:28.999Z</time></trkpt><trkpt lat="45.00447332205736" lon="8.446549885386748"><ele>136.0</ele><time>2026-04-18T10:26:29.999Z</time></trkpt><trkpt lat="45.004320188757525" lon="8.44654187680284"><ele>136.0</ele><time>2026-04-18T10:26:30.999Z</time></trkpt><trkpt lat="45.004137316680264" lon="8.446528385158468"><ele>136.0</ele><time>2026-04-18T10:26:31.999Z</time></trkpt><trkpt lat="45.00397110468827" lon="8.446514266655587"><ele>136.0</ele><time>2026-04-18T10:26:32.999Z</time></trkpt><trkpt lat="45.00380702785384" lon="8.446500329518521"><ele>136.0</ele><time>2026-04-18T10:26:33.999Z</time></trkpt><trkpt lat="45.003641205609654" lon="8.446486459973992"><ele>136.0</ele><time>2026-04-18T10:26:34.999Z</time></trkpt><trkpt lat="45.00345789493907" lon="8.446474526105565"><ele>134.66666666666669</ele><time>2026-04-18T10:26:35.999Z</time></trkpt><trkpt lat="45.00327463968077" lon="8.446468394516648"><ele>133.33333333333334</ele><time>2026-04-18T10:26:36.999Z</time></trkpt><trkpt lat="45.00309963654103" lon="8.446484924359112"><ele>132.0</ele><time>2026-04-18T10:26:37.999Z</time></trkpt><trkpt lat="45.00293974273494" lon="8.446450031616337"><ele>132.0</ele><time>2026-04-18T10:26:38.999Z</time></trkpt><trkpt lat="45.00279821590186" lon="8.446468672043116"><ele>132.0</ele><time>2026-04-18T10:26:39.999Z</time></trkpt><trkpt lat="45.002678816371265" lon="8.446463497488882"><ele>132.0</ele><time>2026-04-18T10:26:40.999Z</time></trkpt><trkpt lat="45.002592941100154" lon="8.446429391616352"><ele>132.0</ele><time>2026-04-18T10:26:41.999Z</time></trkpt><trkpt lat="45.00252874520931" lon="8.44642742170297"><ele>132.0</ele><time>2026-04-18T10:26:42.999Z</time></trkpt><trkpt lat="45.002465460348894" lon="8.446354913149841"><ele>132.5</ele><time>2026-04-18T10:26:44.001Z</time></trkpt><trkpt lat="45.002411829180936" lon="8.44628054411706"><ele>133.0</ele><time>2026-04-18T10:26:45.001Z</time></trkpt><trkpt lat="45.00235446405662" lon="8.4461369759637"><ele>133.5</ele><time>2026-04-18T10:26:46.001Z</time></trkpt><trkpt lat="45.00227168831767" lon="8.445949988686746"><ele>134.0</ele><time>2026-04-18T10:26:47.001Z</time></trkpt><trkpt lat="45.002184863673065" lon="8.445795880153913"><ele>134.0</ele><time>2026-04-18T10:26:48.001Z</time></trkpt><trkpt lat="45.00209539200427" lon="8.445577189258753"><ele>134.0</ele><time>2026-04-18T10:26:49.001Z</time></trkpt><trkpt lat="45.002016059880745" lon="8.445398384492705"><ele>134.0</ele><time>2026-04-18T10:26:50.001Z</time></trkpt><trkpt lat="45.00194159117796" lon="8.445237101468239"><ele>134.0</ele><time>2026-04-18T10:26:51.001Z</time></trkpt><trkpt lat="45.001865666101686" lon="8.44507258717786"><ele>134.0</ele><time>2026-04-18T10:26:52.001Z</time></trkpt><trkpt lat="45.00178077136249" lon="8.444910904485166"><ele>134.0</ele><time>2026-04-18T10:26:53.001Z</time></trkpt><trkpt lat="45.00168267418581" lon="8.444749773442124"><ele>134.0</ele><time>2026-04-18T10:26:54.001Z</time></trkpt><trkpt lat="45.00159249153925" lon="8.44460961018128"><ele>134.0</ele><time>2026-04-18T10:26:55.001Z</time></trkpt><trkpt lat="45.001489552020274" lon="8.444459142592981"><ele>134.0</ele><time>2026-04-18T10:26:56.001Z</time></trkpt><trkpt lat="45.001399147753915" lon="8.44432360772618"><ele>134.0</ele><time>2026-04-18T10:26:57.001Z</time></trkpt><trkpt lat="45.00132687058323" lon="8.444213228362026"><ele>134.0</ele><time>2026-04-18T10:26:58.001Z</time></trkpt><trkpt lat="45.00128224039587" lon="8.444130551509613"><ele>134.0</ele><time>2026-04-18T10:26:59.001Z</time></trkpt><trkpt lat="45.00121928240408" lon="8.44403580961214"><ele>134.0</ele><time>2026-04-18T10:27:00.001Z</time></trkpt><trkpt lat="45.001127642965294" lon="8.443922680019398"><ele>134.0</ele><time>2026-04-18T10:27:01.001Z</time></trkpt><trkpt lat="45.001023517129305" lon="8.44379553642829"><ele>134.0</ele><time>2026-04-18T10:27:02.001Z</time></trkpt><trkpt lat="45.000941004407075" lon="8.44370286359229"><ele>134.2</ele><time>2026-04-18T10:27:03.001Z</time></trkpt><trkpt lat="45.00087281624425" lon="8.443613753515626"><ele>134.4</ele><time>2026-04-18T10:27:04Z</time></trkpt><trkpt lat="45.00080659886372" lon="8.443545222844865"><ele>134.6</ele><time>2026-04-18T10:27:05Z</time></trkpt><trkpt lat="45.00072906784132" lon="8.443488782416992"><ele>134.8</ele><time>2026-04-18T10:27:06Z</time></trkpt><trkpt lat="45.0006188424441" lon="8.443411233825302"><ele>135.0</ele><time>2026-04-18T10:27:07Z</time></trkpt><trkpt lat="45.0004905441247" lon="8.44331539051247"><ele>135.0</ele><time>2026-04-18T10:27:08Z</time></trkpt><trkpt lat="45.00037464281804" lon="8.443238556904639"><ele>135.0</ele><time>2026-04-18T10:27:09Z</time></trkpt><trkpt lat="45.000282732934565" lon="8.443171570575158"><ele>135.0</ele><time>2026-04-18T10:27:10Z</time></trkpt><trkpt lat="45.00023327880178" lon="8.44310006153024"><ele>135.0</ele><time>2026-04-18T10:27:11Z</time></trkpt><trkpt lat="45.00019928931735" lon="8.44298647007173"><ele>135.0</ele><time>2026-04-18T10:27:13Z</time></trkpt><trkpt lat="45.00020231396861" lon="8.442797220346131"><ele>135.14285714285714</ele><time>2026-04-18T10:27:15Z</time></trkpt><trkpt lat="45.00020576224012" lon="8.442684826152492"><ele>135.28571428571428</ele><time>2026-04-18T10:27:16Z</time></trkpt><trkpt lat="45.000193968261755" lon="8.442591387544228"><ele>135.42857142857142</ele><time>2026-04-18T10:27:17Z</time></trkpt><trkpt lat="45.00020623528824" lon="8.442479448663901"><ele>135.57142857142856</ele><time>2026-04-18T10:27:18Z</time></trkpt><trkpt lat="45.00021001815005" lon="8.442387489020547"><ele>135.71428571428572</ele><time>2026-04-18T10:27:19Z</time></trkpt><trkpt lat="45.00020776945618" lon="8.442276734372742"><ele>135.85714285714283</ele><time>2026-04-18T10:27:20Z</time></trkpt><trkpt lat="45.00021090749966" lon="8.442168827626581"><ele>136.0</ele><time>2026-04-18T10:27:21Z</time></trkpt><trkpt lat="45.00021347383258" lon="8.442066362066065"><ele>136.6</ele><time>2026-04-18T10:27:22Z</time></trkpt><trkpt lat="45.0002166135126" lon="8.441973576118396"><ele>137.2</ele><time>2026-04-18T10:27:23Z</time></trkpt><trkpt lat="45.000219246186525" lon="8.441880652337046"><ele>137.8</ele><time>2026-04-18T10:27:24Z</time></trkpt><trkpt lat="45.00023053138758" lon="8.44172194221644"><ele>138.4</ele><time>2026-04-18T10:27:26Z</time></trkpt><trkpt lat="45.000247262954325" lon="8.441569996111207"><ele>139.0</ele><time>2026-04-18T10:27:28Z</time></trkpt><trkpt lat="45.000273369653435" lon="8.441415305863693"><ele>139.4</ele><time>2026-04-18T10:27:30Z</time></trkpt><trkpt lat="45.000298660372536" lon="8.441259678193482"><ele>139.8</ele><time>2026-04-18T10:27:32Z</time></trkpt><trkpt lat="45.000331176316536" lon="8.44112277699697"><ele>140.2</ele><time>2026-04-18T10:27:34Z</time></trkpt><trkpt lat="45.00036142864398" lon="8.440996280200295"><ele>140.6</ele><time>2026-04-18T10:27:36Z</time></trkpt><trkpt lat="45.000405836866975" lon="8.440873076982923"><ele>141.0</ele><time>2026-04-18T10:27:38Z</time></trkpt><trkpt lat="45.00040825846348" lon="8.44077306610783"><ele>141.0</ele><time>2026-04-18T10:27:41Z</time></trkpt><trkpt lat="45.000336228730795" lon="8.440741933796483"><ele>141.0</ele><time>2026-04-18T10:27:43Z</time></trkpt><trkpt lat="45.0002446895189" lon="8.440822810300856"><ele>141.0</ele><time>2026-04-18T10:27:46Z</time></trkpt><trkpt lat="45.00036004911831" lon="8.44117102662023"><ele>141.0</ele><time>2026-04-18T10:28:26.999Z</time></trkpt><trkpt lat="45.00046612791818" lon="8.441135583669329"><ele>141.0</ele><time>2026-04-18T10:28:29.999Z</time></trkpt><trkpt lat="45.000528807390516" lon="8.441100818205637"><ele>141.0</ele><time>2026-04-18T10:28:30.999Z</time></trkpt><trkpt lat="45.000612260802896" lon="8.44105102074055"><ele>141.0</ele><time>2026-04-18T10:28:31.999Z</time></trkpt><trkpt lat="45.000708174417284" lon="8.441008798101914"><ele>141.0</ele><time>2026-04-18T10:28:32.999Z</time></trkpt><trkpt lat="45.00082735986283" lon="8.44097162695495"><ele>142.0</ele><time>2026-04-18T10:28:33.999Z</time></trkpt><trkpt lat="45.00094583548036" lon="8.440939473582583"><ele>143.0</ele><time>2026-04-18T10:28:34.999Z</time></trkpt><trkpt lat="45.00105692323359" lon="8.44091337304699"><ele>144.0</ele><time>2026-04-18T10:28:35.999Z</time></trkpt><trkpt lat="45.00113798899479" lon="8.4408967044818"><ele>145.0</ele><time>2026-04-18T10:28:36.999Z</time></trkpt><trkpt lat="45.00128836480099" lon="8.440863356522721"><ele>145.0</ele><time>2026-04-18T10:28:38.999Z</time></trkpt><trkpt lat="45.001432295847174" lon="8.440736201064203"><ele>145.0</ele><time>2026-04-18T10:28:42.999Z</time></trkpt><trkpt lat="45.00149384227754" lon="8.440619326302393"><ele>145.0</ele><time>2026-04-18T10:28:44.999Z</time></trkpt><trkpt lat="45.00153677833859" lon="8.440535551654502"><ele>145.0</ele><time>2026-04-18T10:28:45.999Z</time></trkpt><trkpt lat="45.00158380730632" lon="8.440459264528576"><ele>145.0</ele><time>2026-04-18T10:28:46.999Z</time></trkpt><trkpt lat="45.001642469590976" lon="8.440376602197423"><ele>148.6</ele><time>2026-04-18T10:28:47.999Z</time></trkpt><trkpt lat="45.00169433852779" lon="8.440311884591845"><ele>152.2</ele><time>2026-04-18T10:28:48.999Z</time></trkpt><trkpt lat="45.001777673318564" lon="8.440222893261108"><ele>155.8</ele><time>2026-04-18T10:28:51.001Z</time></trkpt><trkpt lat="45.001897575906845" lon="8.440125297222231"><ele>159.4</ele><time>2026-04-18T10:28:53.001Z</time></trkpt><trkpt lat="45.00197213534185" lon="8.440068487875507"><ele>163.0</ele><time>2026-04-18T10:28:54.001Z</time></trkpt><trkpt lat="45.00204665832756" lon="8.440010649939314"><ele>163.0</ele><time>2026-04-18T10:28:55.001Z</time></trkpt><trkpt lat="45.00212583401368" lon="8.439957216551853"><ele>163.0</ele><time>2026-04-18T10:28:56.001Z</time></trkpt><trkpt lat="45.00219395955932" lon="8.439907768405206"><ele>163.0</ele><time>2026-04-18T10:28:57.001Z</time></trkpt><trkpt lat="45.00226016000098" lon="8.439859311068425"><ele>163.0</ele><time>2026-04-18T10:28:58.001Z</time></trkpt><trkpt lat="45.0023259357218" lon="8.439797825412112"><ele>163.0</ele><time>2026-04-18T10:28:59.001Z</time></trkpt><trkpt lat="45.002383544719464" lon="8.439741643528789"><ele>163.0</ele><time>2026-04-18T10:29:00.001Z</time></trkpt><trkpt lat="45.00248916065375" lon="8.439650180733786"><ele>165.33333333333334</ele><time>2026-04-18T10:29:02.001Z</time></trkpt><trkpt lat="45.00255328806409" lon="8.439600254292724"><ele>167.66666666666669</ele><time>2026-04-18T10:29:03.001Z</time></trkpt><trkpt lat="45.00261356768316" lon="8.439558873432008"><ele>170.0</ele><time>2026-04-18T10:29:04.001Z</time></trkpt><trkpt lat="45.00268389046351" lon="8.439529676121927"><ele>172.33333333333334</ele><time>2026-04-18T10:29:05.001Z</time></trkpt><trkpt lat="45.002772474019565" lon="8.439513448520742"><ele>174.66666666666666</ele><time>2026-04-18T10:29:06.001Z</time></trkpt><trkpt lat="45.00285821125879" lon="8.439505868556568"><ele>177.0</ele><time>2026-04-18T10:29:07.001Z</time></trkpt><trkpt lat="45.00293850300326" lon="8.439500497105598"><ele>177.0</ele><time>2026-04-18T10:29:08.001Z</time></trkpt><trkpt lat="45.003014385311026" lon="8.43949843015002"><ele>177.0</ele><time>2026-04-18T10:29:09.001Z</time></trkpt><trkpt lat="45.00313414412845" lon="8.439481823163954"><ele>177.0</ele><time>2026-04-18T10:29:11.001Z</time></trkpt><trkpt lat="45.00324606470955" lon="8.439450612508"><ele>177.0</ele><time>2026-04-18T10:29:13Z</time></trkpt><trkpt lat="45.00331470356935" lon="8.439441504498486"><ele>177.0</ele><time>2026-04-18T10:29:15Z</time></trkpt><trkpt lat="45.00338425996263" lon="8.439436412944065"><ele>177.0</ele><time>2026-04-18T10:29:17Z</time></trkpt><trkpt lat="45.003469310757026" lon="8.439419736998733"><ele>179.0</ele><time>2026-04-18T10:29:19Z</time></trkpt><trkpt lat="45.00359038712749" lon="8.439316619464018"><ele>181.0</ele><time>2026-04-18T10:29:30Z</time></trkpt><trkpt lat="45.00365901138167" lon="8.43926451213816"><ele>183.0</ele><time>2026-04-18T10:29:32Z</time></trkpt><trkpt lat="45.00373173813721" lon="8.439212695068875"><ele>185.0</ele><time>2026-04-18T10:29:34Z</time></trkpt><trkpt lat="45.00381289450554" lon="8.439154562846952"><ele>187.0</ele><time>2026-04-18T10:29:36Z</time></trkpt><trkpt lat="45.003906410061944" lon="8.439122563923318"><ele>187.0</ele><time>2026-04-18T10:29:38Z</time></trkpt><trkpt lat="45.00401738126184" lon="8.439055825794805"><ele>187.0</ele><time>2026-04-18T10:29:40Z</time></trkpt><trkpt lat="45.00412459447274" lon="8.439018556322658"><ele>187.0</ele><time>2026-04-18T10:29:42Z</time></trkpt><trkpt lat="45.00421209092548" lon="8.439003071478"><ele>187.0</ele><time>2026-04-18T10:29:44Z</time></trkpt><trkpt lat="45.00425473936998" lon="8.438895620243082"><ele>187.0</ele><time>2026-04-18T10:29:48Z</time></trkpt><trkpt lat="45.0041922789134" lon="8.43885375714536"><ele>187.0</ele><time>2026-04-18T10:31:09.001Z</time></trkpt><trkpt lat="45.00422090843978" lon="8.438933065785317"><ele>187.0</ele><time>2026-04-18T10:32:46.999Z</time></trkpt><trkpt lat="45.00427445826632" lon="8.439022973335"><ele>187.0</ele><time>2026-04-18T10:32:49.999Z</time></trkpt><trkpt lat="45.00434361230642" lon="8.439028392211306"><ele>187.0</ele><time>2026-04-18T10:33:18Z</time></trkpt><trkpt lat="45.00440461839632" lon="8.439051260551812"><ele>187.0</ele><time>2026-04-18T10:33:19Z</time></trkpt><trkpt lat="45.00447144475713" lon="8.439077040940598"><ele>187.0</ele><time>2026-04-18T10:33:20Z</time></trkpt><trkpt lat="45.004548527454475" lon="8.43911326344947"><ele>187.0</ele><time>2026-04-18T10:33:21Z</time></trkpt><trkpt lat="45.00462615534595" lon="8.439153003466293"><ele>187.0</ele><time>2026-04-18T10:33:22Z</time></trkpt><trkpt lat="45.00469308380661" lon="8.43918532170792"><ele>187.0</ele><time>2026-04-18T10:33:23Z</time></trkpt><trkpt lat="45.004776249909284" lon="8.439214477953575"><ele>187.0</ele><time>2026-04-18T10:33:26Z</time></trkpt><trkpt lat="45.00488585115086" lon="8.439217764638064"><ele>187.0</ele><time>2026-04-18T10:33:27.999Z</time></trkpt><trkpt lat="45.00495837291594" lon="8.43921330523662"><ele>187.0</ele><time>2026-04-18T10:33:28.999Z</time></trkpt><trkpt lat="45.00502887653304" lon="8.439207279046848"><ele>187.0</ele><time>2026-04-18T10:33:29.999Z</time></trkpt><trkpt lat="45.00515632977084" lon="8.439172550628044"><ele>187.33333333333334</ele><time>2026-04-18T10:33:31.999Z</time></trkpt><trkpt lat="45.0052247729877" lon="8.439143039317024"><ele>187.66666666666669</ele><time>2026-04-18T10:33:32.999Z</time></trkpt><trkpt lat="45.0053047799475" lon="8.439111694272412"><ele>188.0</ele><time>2026-04-18T10:33:33.999Z</time></trkpt><trkpt lat="45.00539089477032" lon="8.439081409350132"><ele>188.33333333333334</ele><time>2026-04-18T10:33:34.999Z</time></trkpt><trkpt lat="45.00546402817145" lon="8.439059319531559"><ele>188.66666666666666</ele><time>2026-04-18T10:33:35.999Z</time></trkpt><trkpt lat="45.00553746656764" lon="8.439047464243476"><ele>189.0</ele><time>2026-04-18T10:33:36.999Z</time></trkpt><trkpt lat="45.005610868762524" lon="8.43903038694555"><ele>189.0</ele><time>2026-04-18T10:33:37.999Z</time></trkpt><trkpt lat="45.005678528505" lon="8.439018034783414"><ele>189.0</ele><time>2026-04-18T10:33:38.999Z</time></trkpt><trkpt lat="45.00576540883897" lon="8.439010962650142"><ele>189.0</ele><time>2026-04-18T10:33:39.999Z</time></trkpt><trkpt lat="45.00587492422245" lon="8.439003739750607"><ele>189.0</ele><time>2026-04-18T10:33:40.999Z</time></trkpt><trkpt lat="45.005986787853416" lon="8.438991704822712"><ele>189.0</ele><time>2026-04-18T10:33:41.999Z</time></trkpt><trkpt lat="45.00609951535868" lon="8.438978081851863"><ele>189.2</ele><time>2026-04-18T10:33:42.999Z</time></trkpt><trkpt lat="45.00620332937953" lon="8.438965851466966"><ele>189.39999999999998</ele><time>2026-04-18T10:33:43.999Z</time></trkpt><trkpt lat="45.00631327377545" lon="8.438957419154361"><ele>189.6</ele><time>2026-04-18T10:33:44.999Z</time></trkpt><trkpt lat="45.006427540766026" lon="8.438944231226303"><ele>189.8</ele><time>2026-04-18T10:33:45.999Z</time></trkpt><trkpt lat="45.006527993452956" lon="8.438927912120835"><ele>190.0</ele><time>2026-04-18T10:33:46.999Z</time></trkpt><trkpt lat="45.00662842145204" lon="8.438907030850391"><ele>190.83333333333334</ele><time>2026-04-18T10:33:47.999Z</time></trkpt><trkpt lat="45.00673347022914" lon="8.438896177419938"><ele>191.66666666666669</ele><time>2026-04-18T10:33:48.999Z</time></trkpt><trkpt lat="45.00681721660224" lon="8.438879578739495"><ele>192.5</ele><time>2026-04-18T10:33:49.999Z</time></trkpt><trkpt lat="45.006904833214165" lon="8.438869111592332"><ele>193.33333333333334</ele><time>2026-04-18T10:33:50.999Z</time></trkpt><trkpt lat="45.00698045916065" lon="8.438856634879457"><ele>194.16666666666666</ele><time>2026-04-18T10:33:51.999Z</time></trkpt><trkpt lat="45.007070573676934" lon="8.43883718372953"><ele>195.0</ele><time>2026-04-18T10:33:53.999Z</time></trkpt><trkpt lat="45.007128586710515" lon="8.438727359595694"><ele>195.2</ele><time>2026-04-18T10:34:07.999Z</time></trkpt><trkpt lat="45.007177919023086" lon="8.438577786891587"><ele>195.4</ele><time>2026-04-18T10:34:09.999Z</time></trkpt><trkpt lat="45.007233168447065" lon="8.438437715889162"><ele>195.60000000000002</ele><time>2026-04-18T10:34:11.999Z</time></trkpt><trkpt lat="45.00726387425663" lon="8.43834169944479"><ele>195.8</ele><time>2026-04-18T10:34:12.999Z</time></trkpt><trkpt lat="45.00728351404664" lon="8.438257097940461"><ele>196.0</ele><time>2026-04-18T10:34:13.999Z</time></trkpt><trkpt lat="45.00731582638665" lon="8.438127763118683"><ele>196.0</ele><time>2026-04-18T10:34:15.999Z</time></trkpt><trkpt lat="45.00732501676545" lon="8.43801981838166"><ele>196.0</ele><time>2026-04-18T10:34:17.999Z</time></trkpt><trkpt lat="45.007084211225916" lon="8.438030222597726"><ele>196.0</ele><time>2026-04-18T10:34:31.998Z</time></trkpt><trkpt lat="45.00691925839013" lon="8.438054775058374"><ele>196.0</ele><time>2026-04-18T10:34:32.998Z</time></trkpt><trkpt lat="45.006721417860625" lon="8.438066992909008"><ele>196.0</ele><time>2026-04-18T10:34:33.998Z</time></trkpt><trkpt lat="45.00650986709308" lon="8.438074013528432"><ele>196.0</ele><time>2026-04-18T10:34:34.998Z</time></trkpt><trkpt lat="45.006299599838556" lon="8.43809615558037"><ele>193.33333333333331</ele><time>2026-04-18T10:34:35.998Z</time></trkpt><trkpt lat="45.00610115109893" lon="8.438117739317729"><ele>190.66666666666666</ele><time>2026-04-18T10:34:36.998Z</time></trkpt><trkpt lat="45.00592475772292" lon="8.438141699841726"><ele>188.0</ele><time>2026-04-18T10:34:37.998Z</time></trkpt><trkpt lat="45.005785830534904" lon="8.438110969382544"><ele>188.0</ele><time>2026-04-18T10:34:38.998Z</time></trkpt><trkpt lat="45.005658595138186" lon="8.438090107173819"><ele>188.0</ele><time>2026-04-18T10:34:39.998Z</time></trkpt><trkpt lat="45.005506493144985" lon="8.438069278249237"><ele>188.0</ele><time>2026-04-18T10:34:40.998Z</time></trkpt><trkpt lat="45.005347796335876" lon="8.4380027831165"><ele>188.0</ele><time>2026-04-18T10:34:41.998Z</time></trkpt><trkpt lat="45.005191166436305" lon="8.437945810236037"><ele>185.75</ele><time>2026-04-18T10:34:42.998Z</time></trkpt><trkpt lat="45.005039209278536" lon="8.437896735460521"><ele>183.5</ele><time>2026-04-18T10:34:43.998Z</time></trkpt><trkpt lat="45.00491073108951" lon="8.437851961523188"><ele>181.25</ele><time>2026-04-18T10:34:44.998Z</time></trkpt><trkpt lat="45.00478033752674" lon="8.437801073557122"><ele>179.0</ele><time>2026-04-18T10:34:45.998Z</time></trkpt><trkpt lat="45.00463509420756" lon="8.437747178614929"><ele>177.66666666666666</ele><time>2026-04-18T10:34:46.998Z</time></trkpt><trkpt lat="45.00448074558677" lon="8.437705171283925"><ele>176.33333333333334</ele><time>2026-04-18T10:34:47.998Z</time></trkpt><trkpt lat="45.00432923698227" lon="8.437651652996166"><ele>175.0</ele><time>2026-04-18T10:34:48.998Z</time></trkpt><trkpt lat="45.004182175788756" lon="8.437598502105397"><ele>175.0</ele><time>2026-04-18T10:34:49.998Z</time></trkpt><trkpt lat="45.00403165672379" lon="8.43754800304814"><ele>175.0</ele><time>2026-04-18T10:34:50.998Z</time></trkpt><trkpt lat="45.00389779351658" lon="8.437490068700729"><ele>175.0</ele><time>2026-04-18T10:34:51.998Z</time></trkpt><trkpt lat="45.00377760164417" lon="8.437446103460621"><ele>175.0</ele><time>2026-04-18T10:34:52.998Z</time></trkpt><trkpt lat="45.00366126056918" lon="8.437405884840139"><ele>175.0</ele><time>2026-04-18T10:34:53.998Z</time></trkpt><trkpt lat="45.00354979793262" lon="8.437366275615123"><ele>175.0</ele><time>2026-04-18T10:34:54.998Z</time></trkpt><trkpt lat="45.003452640583625" lon="8.437328897928124"><ele>175.0</ele><time>2026-04-18T10:34:55.998Z</time></trkpt><trkpt lat="45.00335573143788" lon="8.437298164302836"><ele>175.0</ele><time>2026-04-18T10:34:56.998Z</time></trkpt><trkpt lat="45.003250506723504" lon="8.437279478877826"><ele>175.0</ele><time>2026-04-18T10:34:57.998Z</time></trkpt><trkpt lat="45.003129178884116" lon="8.437277235314559"><ele>172.75</ele><time>2026-04-18T10:34:58.998Z</time></trkpt><trkpt lat="45.00300846410155" lon="8.437295758112969"><ele>170.5</ele><time>2026-04-18T10:34:59.998Z</time></trkpt><trkpt lat="45.0028904169446" lon="8.437296658156269"><ele>168.25</ele><time>2026-04-18T10:35:00.998Z</time></trkpt><trkpt lat="45.00278738071649" lon="8.4373442899271"><ele>166.0</ele><time>2026-04-18T10:35:01.998Z</time></trkpt><trkpt lat="45.0026805077033" lon="8.437369690137674"><ele>166.0</ele><time>2026-04-18T10:35:02.998Z</time></trkpt><trkpt lat="45.00254663138409" lon="8.43743253053036"><ele>166.0</ele><time>2026-04-18T10:35:03.998Z</time></trkpt><trkpt lat="45.002399001742354" lon="8.437529158104072"><ele>166.0</ele><time>2026-04-18T10:35:04.998Z</time></trkpt><trkpt lat="45.00225117584957" lon="8.437648282960936"><ele>163.25</ele><time>2026-04-18T10:35:05.998Z</time></trkpt><trkpt lat="45.00213078076515" lon="8.437761876336644"><ele>160.5</ele><time>2026-04-18T10:35:06.999Z</time></trkpt><trkpt lat="45.00203160216658" lon="8.437875666570113"><ele>157.75</ele><time>2026-04-18T10:35:07.999Z</time></trkpt><trkpt lat="45.00192096849644" lon="8.438009422837395"><ele>155.0</ele><time>2026-04-18T10:35:08.999Z</time></trkpt><trkpt lat="45.00179452234323" lon="8.438175551882766"><ele>155.0</ele><time>2026-04-18T10:35:09.999Z</time></trkpt><trkpt lat="45.001699292370816" lon="8.438316287724588"><ele>155.0</ele><time>2026-04-18T10:35:10.999Z</time></trkpt><trkpt lat="45.001589445496826" lon="8.438448963747843"><ele>155.0</ele><time>2026-04-18T10:35:11.999Z</time></trkpt><trkpt lat="45.00151024284908" lon="8.438608921989314"><ele>155.0</ele><time>2026-04-18T10:35:12.999Z</time></trkpt><trkpt lat="45.00143110255905" lon="8.438749950996996"><ele>153.0</ele><time>2026-04-18T10:35:13.999Z</time></trkpt><trkpt lat="45.00134097171227" lon="8.438936525908643"><ele>151.0</ele><time>2026-04-18T10:35:14.999Z</time></trkpt><trkpt lat="45.00123165978479" lon="8.43913295330076"><ele>149.0</ele><time>2026-04-18T10:35:15.999Z</time></trkpt><trkpt lat="45.001138901270544" lon="8.439317044250505"><ele>149.0</ele><time>2026-04-18T10:35:16.999Z</time></trkpt><trkpt lat="45.00105243628465" lon="8.439488605029618"><ele>149.0</ele><time>2026-04-18T10:35:17.999Z</time></trkpt><trkpt lat="45.00098506635157" lon="8.43966137860985"><ele>149.0</ele><time>2026-04-18T10:35:18.999Z</time></trkpt><trkpt lat="45.00090179538364" lon="8.439812920750263"><ele>149.0</ele><time>2026-04-18T10:35:19.999Z</time></trkpt><trkpt lat="45.00082591121958" lon="8.439960216055328"><ele>147.0</ele><time>2026-04-18T10:35:20.999Z</time></trkpt><trkpt lat="45.00075668922488" lon="8.440106114188936"><ele>145.0</ele><time>2026-04-18T10:35:21.999Z</time></trkpt><trkpt lat="45.00067558130135" lon="8.440233625260564"><ele>143.0</ele><time>2026-04-18T10:35:22.999Z</time></trkpt><trkpt lat="45.0006078673463" lon="8.440364584838571"><ele>141.0</ele><time>2026-04-18T10:35:23.999Z</time></trkpt><trkpt lat="45.00054015736465" lon="8.440485587444787"><ele>141.0</ele><time>2026-04-18T10:35:24.999Z</time></trkpt><trkpt lat="45.00046223175829" lon="8.440601109218544"><ele>141.0</ele><time>2026-04-18T10:35:25.999Z</time></trkpt><trkpt lat="45.00036565841108" lon="8.440714001141288"><ele>141.0</ele><time>2026-04-18T10:35:26.999Z</time></trkpt><trkpt lat="45.00025026231753" lon="8.440813131743665"><ele>141.0</ele><time>2026-04-18T10:35:27.999Z</time></trkpt><trkpt lat="45.00012433183769" lon="8.440896787262588"><ele>141.0</ele><time>2026-04-18T10:35:28.999Z</time></trkpt><trkpt lat="44.999995445329255" lon="8.44098740560573"><ele>141.0</ele><time>2026-04-18T10:35:29.999Z</time></trkpt><trkpt lat="44.99985774114672" lon="8.44104319761322"><ele>141.0</ele><time>2026-04-18T10:35:30.999Z</time></trkpt><trkpt lat="44.99971764686691" lon="8.4411084206002"><ele>141.0</ele><time>2026-04-18T10:35:31.999Z</time></trkpt><trkpt lat="44.99957685309668" lon="8.441176013443751"><ele>141.0</ele><time>2026-04-18T10:35:32.999Z</time></trkpt><trkpt lat="44.99944742553595" lon="8.441231600708212"><ele>141.0</ele><time>2026-04-18T10:35:33.999Z</time></trkpt><trkpt lat="44.99932526557406" lon="8.441282448170545"><ele>141.0</ele><time>2026-04-18T10:35:34.999Z</time></trkpt><trkpt lat="44.99919178789683" lon="8.441340470451186"><ele>141.0</ele><time>2026-04-18T10:35:35.999Z</time></trkpt><trkpt lat="44.99905644495836" lon="8.441404251511317"><ele>140.5</ele><time>2026-04-18T10:35:36.999Z</time></trkpt><trkpt lat="44.9989323722097" lon="8.441462715779242"><ele>140.0</ele><time>2026-04-18T10:35:37.999Z</time></trkpt><trkpt lat="44.998818312056045" lon="8.44151179470888"><ele>139.5</ele><time>2026-04-18T10:35:38.999Z</time></trkpt><trkpt lat="44.998710051576204" lon="8.441557885042476"><ele>139.0</ele><time>2026-04-18T10:35:39.999Z</time></trkpt><trkpt lat="44.99861103942104" lon="8.441599827305238"><ele>139.0</ele><time>2026-04-18T10:35:40.999Z</time></trkpt><trkpt lat="44.99851998600585" lon="8.441640018706083"><ele>139.0</ele><time>2026-04-18T10:35:41.999Z</time></trkpt><trkpt lat="44.99843397256275" lon="8.441675247187124"><ele>139.0</ele><time>2026-04-18T10:35:42.999Z</time></trkpt><trkpt lat="44.99835260674737" lon="8.44171091734844"><ele>139.0</ele><time>2026-04-18T10:35:43.999Z</time></trkpt><trkpt lat="44.9982798695051" lon="8.441745027775276"><ele>139.0</ele><time>2026-04-18T10:35:44.999Z</time></trkpt><trkpt lat="44.998215389283395" lon="8.441779174337"><ele>139.0</ele><time>2026-04-18T10:35:45.999Z</time></trkpt><trkpt lat="44.998156296014294" lon="8.441814433771599"><ele>138.83333333333334</ele><time>2026-04-18T10:35:46.999Z</time></trkpt><trkpt lat="44.99806014073259" lon="8.441846626398682"><ele>138.66666666666669</ele><time>2026-04-18T10:35:48.999Z</time></trkpt><trkpt lat="44.997988728420786" lon="8.441772584228895"><ele>138.5</ele><time>2026-04-18T10:35:50.999Z</time></trkpt><trkpt lat="44.997951749856355" lon="8.441696355655356"><ele>138.33333333333334</ele><time>2026-04-18T10:35:51.999Z</time></trkpt><trkpt lat="44.997893375635236" lon="8.441617178042263"><ele>138.16666666666666</ele><time>2026-04-18T10:35:53.999Z</time></trkpt><trkpt lat="44.99781740874753" lon="8.441541941404056"><ele>138.0</ele><time>2026-04-18T10:35:55.999Z</time></trkpt><trkpt lat="44.997699386673496" lon="8.44156710484829"><ele>138.0</ele><time>2026-04-18T10:35:56.999Z</time></trkpt><trkpt lat="44.99759257245324" lon="8.441532968496118"><ele>138.0</ele><time>2026-04-18T10:35:57.999Z</time></trkpt><trkpt lat="44.997472880237225" lon="8.441500533400278"><ele>138.0</ele><time>2026-04-18T10:35:58.999Z</time></trkpt><trkpt lat="44.99732895970234" lon="8.44146862004313"><ele>138.0</ele><time>2026-04-18T10:35:59.999Z</time></trkpt><trkpt lat="44.99717426766208" lon="8.44145357882923"><ele>138.0</ele><time>2026-04-18T10:36:00.999Z</time></trkpt><trkpt lat="44.99704192540566" lon="8.441441338629357"><ele>138.0</ele><time>2026-04-18T10:36:01.999Z</time></trkpt><trkpt lat="44.99690908031868" lon="8.441434078924157"><ele>138.0</ele><time>2026-04-18T10:36:02.999Z</time></trkpt><trkpt lat="44.99677376574379" lon="8.441421452377277"><ele>138.0</ele><time>2026-04-18T10:36:03.999Z</time></trkpt><trkpt lat="44.99664650626489" lon="8.441409853213475"><ele>137.25</ele><time>2026-04-18T10:36:04.999Z</time></trkpt><trkpt lat="44.99651613624713" lon="8.441392006769364"><ele>136.5</ele><time>2026-04-18T10:36:05.999Z</time></trkpt><trkpt lat="44.99637196758213" lon="8.441357355206739"><ele>135.75</ele><time>2026-04-18T10:36:06.999Z</time></trkpt><trkpt lat="44.99622238247315" lon="8.44130728453445"><ele>135.0</ele><time>2026-04-18T10:36:07.999Z</time></trkpt><trkpt lat="44.996093881551595" lon="8.441255061290203"><ele>136.5</ele><time>2026-04-18T10:36:08.999Z</time></trkpt><trkpt lat="44.99598126599942" lon="8.441190443414426"><ele>138.0</ele><time>2026-04-18T10:36:09.999Z</time></trkpt><trkpt lat="44.99586787651803" lon="8.441114797580116"><ele>139.5</ele><time>2026-04-18T10:36:10.999Z</time></trkpt><trkpt lat="44.99574453998505" lon="8.441033081696192"><ele>141.0</ele><time>2026-04-18T10:36:11.999Z</time></trkpt><trkpt lat="44.99562446032337" lon="8.44095308119432"><ele>141.0</ele><time>2026-04-18T10:36:12.999Z</time></trkpt><trkpt lat="44.99548559538242" lon="8.44086536036389"><ele>141.0</ele><time>2026-04-18T10:36:13.999Z</time></trkpt><trkpt lat="44.995330435320106" lon="8.44077314748153"><ele>141.0</ele><time>2026-04-18T10:36:14.999Z</time></trkpt><trkpt lat="44.995180768622305" lon="8.440693943250002"><ele>141.0</ele><time>2026-04-18T10:36:15.999Z</time></trkpt><trkpt lat="44.995028567290724" lon="8.44060646820938"><ele>141.0</ele><time>2026-04-18T10:36:16.999Z</time></trkpt><trkpt lat="44.99489582390564" lon="8.440529969782078"><ele>141.0</ele><time>2026-04-18T10:36:17.999Z</time></trkpt><trkpt lat="44.99477255563176" lon="8.440450693735446"><ele>141.0</ele><time>2026-04-18T10:36:18.999Z</time></trkpt><trkpt lat="44.99465487680241" lon="8.44036049901677"><ele>141.0</ele><time>2026-04-18T10:36:19.999Z</time></trkpt><trkpt lat="44.99451960715127" lon="8.440262698142313"><ele>141.0</ele><time>2026-04-18T10:36:20.999Z</time></trkpt><trkpt lat="44.99438333324725" lon="8.440171050362265"><ele>141.0</ele><time>2026-04-18T10:36:21.999Z</time></trkpt><trkpt lat="44.99424703603903" lon="8.44010267065164"><ele>141.0</ele><time>2026-04-18T10:36:22.999Z</time></trkpt><trkpt lat="44.99409691792476" lon="8.44005166352037"><ele>140.0</ele><time>2026-04-18T10:36:23.999Z</time></trkpt><trkpt lat="44.99394528506611" lon="8.440000318884952"><ele>139.0</ele><time>2026-04-18T10:36:24.999Z</time></trkpt><trkpt lat="44.9937964151505" lon="8.439946467168095"><ele>138.0</ele><time>2026-04-18T10:36:25.999Z</time></trkpt><trkpt lat="44.99365332028795" lon="8.439884269060107"><ele>138.0</ele><time>2026-04-18T10:36:26.999Z</time></trkpt><trkpt lat="44.993522177892245" lon="8.439822803462357"><ele>138.0</ele><time>2026-04-18T10:36:27.999Z</time></trkpt><trkpt lat="44.993404163392015" lon="8.439765649167114"><ele>138.0</ele><time>2026-04-18T10:36:28.999Z</time></trkpt><trkpt lat="44.99329796982179" lon="8.43972152273362"><ele>138.0</ele><time>2026-04-18T10:36:29.998Z</time></trkpt><trkpt lat="44.99318771389" lon="8.439702460005744"><ele>138.0</ele><time>2026-04-18T10:36:30.998Z</time></trkpt><trkpt lat="44.99307317973365" lon="8.439690283983667"><ele>138.0</ele><time>2026-04-18T10:36:31.998Z</time></trkpt><trkpt lat="44.992969272096516" lon="8.439655156752421"><ele>138.0</ele><time>2026-04-18T10:36:32.998Z</time></trkpt><trkpt lat="44.99288343694527" lon="8.439558628951565"><ele>138.0</ele><time>2026-04-18T10:36:33.998Z</time></trkpt><trkpt lat="44.99277870404718" lon="8.43947029285803"><ele>138.0</ele><time>2026-04-18T10:36:34.998Z</time></trkpt><trkpt lat="44.992678818790075" lon="8.439357447273842"><ele>138.0</ele><time>2026-04-18T10:36:35.998Z</time></trkpt><trkpt lat="44.992580833663666" lon="8.439250093235563"><ele>138.0</ele><time>2026-04-18T10:36:36.998Z</time></trkpt><trkpt lat="44.99248222773296" lon="8.43912631423682"><ele>138.0</ele><time>2026-04-18T10:36:37.998Z</time></trkpt><trkpt lat="44.99236933696203" lon="8.438984795160946"><ele>138.0</ele><time>2026-04-18T10:36:38.998Z</time></trkpt><trkpt lat="44.99225317319244" lon="8.438815029095581"><ele>138.0</ele><time>2026-04-18T10:36:39.998Z</time></trkpt><trkpt lat="44.9921492771635" lon="8.43866065997096"><ele>138.0</ele><time>2026-04-18T10:36:40.998Z</time></trkpt><trkpt lat="44.99205338518185" lon="8.438512433055953"><ele>138.5</ele><time>2026-04-18T10:36:41.998Z</time></trkpt><trkpt lat="44.99195323872057" lon="8.438369529781966"><ele>139.0</ele><time>2026-04-18T10:36:42.998Z</time></trkpt><trkpt lat="44.991844546095074" lon="8.4382013007469"><ele>139.5</ele><time>2026-04-18T10:36:43.998Z</time></trkpt><trkpt lat="44.99174382226774" lon="8.438061106817743"><ele>140.0</ele><time>2026-04-18T10:36:44.998Z</time></trkpt><trkpt lat="44.99164470954029" lon="8.437913416571805"><ele>140.0</ele><time>2026-04-18T10:36:45.998Z</time></trkpt><trkpt lat="44.99153587643492" lon="8.437748310773365"><ele>140.0</ele><time>2026-04-18T10:36:46.998Z</time></trkpt><trkpt lat="44.99141694473811" lon="8.437576207262316"><ele>140.0</ele><time>2026-04-18T10:36:47.998Z</time></trkpt><trkpt lat="44.991311083846824" lon="8.437421689251426"><ele>140.0</ele><time>2026-04-18T10:36:48.998Z</time></trkpt><trkpt lat="44.99118959382175" lon="8.43725086545049"><ele>140.0</ele><time>2026-04-18T10:36:49.998Z</time></trkpt><trkpt lat="44.99107868847579" lon="8.437085416570854"><ele>140.0</ele><time>2026-04-18T10:36:50.998Z</time></trkpt><trkpt lat="44.99097586291707" lon="8.436933853815765"><ele>140.25</ele><time>2026-04-18T10:36:51.998Z</time></trkpt><trkpt lat="44.99087260697526" lon="8.436792591689365"><ele>140.5</ele><time>2026-04-18T10:36:52.998Z</time></trkpt><trkpt lat="44.99078049749037" lon="8.436660746690356"><ele>140.75</ele><time>2026-04-18T10:36:53.998Z</time></trkpt><trkpt lat="44.99069291475527" lon="8.436524865434011"><ele>141.0</ele><time>2026-04-18T10:36:54.998Z</time></trkpt><trkpt lat="44.99062296696748" lon="8.436388867718225"><ele>140.5</ele><time>2026-04-18T10:36:55.998Z</time></trkpt><trkpt lat="44.990571696001425" lon="8.436230853406155"><ele>140.0</ele><time>2026-04-18T10:36:56.998Z</time></trkpt><trkpt lat="44.99053265496612" lon="8.436039328352214"><ele>139.5</ele><time>2026-04-18T10:36:57.998Z</time></trkpt><trkpt lat="44.990507243131674" lon="8.435840373330846"><ele>139.0</ele><time>2026-04-18T10:36:58.998Z</time></trkpt><trkpt lat="44.990486676652864" lon="8.435669643558438"><ele>139.0</ele><time>2026-04-18T10:36:59.998Z</time></trkpt><trkpt lat="44.99045515280557" lon="8.435512150035631"><ele>139.0</ele><time>2026-04-18T10:37:00.998Z</time></trkpt><trkpt lat="44.99041302679919" lon="8.435368774676279"><ele>139.0</ele><time>2026-04-18T10:37:01.998Z</time></trkpt><trkpt lat="44.990348158240856" lon="8.435239292234687"><ele>139.0</ele><time>2026-04-18T10:37:02.998Z</time></trkpt><trkpt lat="44.99025622747049" lon="8.435118107827675"><ele>139.6</ele><time>2026-04-18T10:37:03.998Z</time></trkpt><trkpt lat="44.99017285714663" lon="8.435013487956631"><ele>140.2</ele><time>2026-04-18T10:37:04.998Z</time></trkpt><trkpt lat="44.99010711312078" lon="8.434886295767251"><ele>140.79999999999998</ele><time>2026-04-18T10:37:05.998Z</time></trkpt><trkpt lat="44.99006663616279" lon="8.434754994325798"><ele>141.4</ele><time>2026-04-18T10:37:06.998Z</time></trkpt><trkpt lat="44.990039728259056" lon="8.434617264551376"><ele>142.0</ele><time>2026-04-18T10:37:07.998Z</time></trkpt><trkpt lat="44.99002173580225" lon="8.434486783173945"><ele>142.5</ele><time>2026-04-18T10:37:08.998Z</time></trkpt><trkpt lat="44.99003617363004" lon="8.434328887483185"><ele>143.0</ele><time>2026-04-18T10:37:09.998Z</time></trkpt><trkpt lat="44.990046858593615" lon="8.434180365388046"><ele>143.5</ele><time>2026-04-18T10:37:10.998Z</time></trkpt><trkpt lat="44.990071692414816" lon="8.434027354114635"><ele>144.0</ele><time>2026-04-18T10:37:11.998Z</time></trkpt><trkpt lat="44.99012087152448" lon="8.433856493322716"><ele>144.25</ele><time>2026-04-18T10:37:13Z</time></trkpt><trkpt lat="44.990158285821025" lon="8.433665731795898"><ele>144.5</ele><time>2026-04-18T10:37:14Z</time></trkpt><trkpt lat="44.99016730372545" lon="8.433477279915513"><ele>144.75</ele><time>2026-04-18T10:37:15Z</time></trkpt><trkpt lat="44.99016582171195" lon="8.433313926011639"><ele>145.0</ele><time>2026-04-18T10:37:16Z</time></trkpt><trkpt lat="44.99014289675538" lon="8.43312750100041"><ele>146.33333333333334</ele><time>2026-04-18T10:37:17Z</time></trkpt><trkpt lat="44.99011066214397" lon="8.432938953402104"><ele>147.66666666666666</ele><time>2026-04-18T10:37:18Z</time></trkpt><trkpt lat="44.99008003863469" lon="8.432761995763805"><ele>149.0</ele><time>2026-04-18T10:37:19Z</time></trkpt><trkpt lat="44.990042460961895" lon="8.432495081214407"><ele>149.0</ele><time>2026-04-18T10:37:20Z</time></trkpt><trkpt lat="44.99001550541399" lon="8.432311904017737"><ele>149.0</ele><time>2026-04-18T10:37:21Z</time></trkpt><trkpt lat="44.98998859641882" lon="8.432129946276413"><ele>149.0</ele><time>2026-04-18T10:37:22Z</time></trkpt><trkpt lat="44.98995400672036" lon="8.431924053678092"><ele>149.0</ele><time>2026-04-18T10:37:23Z</time></trkpt><trkpt lat="44.98991206947759" lon="8.4317103463663"><ele>147.33333333333331</ele><time>2026-04-18T10:37:24Z</time></trkpt><trkpt lat="44.98986326564657" lon="8.431500700991846"><ele>145.66666666666666</ele><time>2026-04-18T10:37:25Z</time></trkpt><trkpt lat="44.98980820157062" lon="8.431290107419441"><ele>144.0</ele><time>2026-04-18T10:37:26Z</time></trkpt><trkpt lat="44.989753623051904" lon="8.431080198107864"><ele>144.0</ele><time>2026-04-18T10:37:27Z</time></trkpt><trkpt lat="44.989703715803614" lon="8.430894119606132"><ele>144.0</ele><time>2026-04-18T10:37:28Z</time></trkpt><trkpt lat="44.98964397729149" lon="8.43072291245739"><ele>144.0</ele><time>2026-04-18T10:37:29Z</time></trkpt><trkpt lat="44.98957555004139" lon="8.430507347299539"><ele>144.0</ele><time>2026-04-18T10:37:30Z</time></trkpt><trkpt lat="44.98947854739098" lon="8.430311560681215"><ele>144.0</ele><time>2026-04-18T10:37:31Z</time></trkpt><trkpt lat="44.989406042114716" lon="8.430110813701868"><ele>144.0</ele><time>2026-04-18T10:37:32Z</time></trkpt><trkpt lat="44.98933770282529" lon="8.429924781419805"><ele>144.0</ele><time>2026-04-18T10:37:33Z</time></trkpt><trkpt lat="44.98928278864001" lon="8.42973171330521"><ele>143.5</ele><time>2026-04-18T10:37:34Z</time></trkpt><trkpt lat="44.98924357231893" lon="8.429539753569074"><ele>143.0</ele><time>2026-04-18T10:37:35Z</time></trkpt><trkpt lat="44.98922132168015" lon="8.429386354229779"><ele>142.5</ele><time>2026-04-18T10:37:36Z</time></trkpt><trkpt lat="44.9892313524746" lon="8.429244921885441"><ele>142.0</ele><time>2026-04-18T10:37:37Z</time></trkpt><trkpt lat="44.98925409779724" lon="8.429107368634096"><ele>142.0</ele><time>2026-04-18T10:37:38Z</time></trkpt><trkpt lat="44.98930670968181" lon="8.42898601889811"><ele>142.0</ele><time>2026-04-18T10:37:39Z</time></trkpt><trkpt lat="44.98936615118693" lon="8.428864461392648"><ele>142.0</ele><time>2026-04-18T10:37:40Z</time></trkpt><trkpt lat="44.98944537212341" lon="8.428724835375945"><ele>142.0</ele><time>2026-04-18T10:37:41Z</time></trkpt><trkpt lat="44.989532210076696" lon="8.428620893093392"><ele>142.0</ele><time>2026-04-18T10:37:42Z</time></trkpt><trkpt lat="44.98962882151921" lon="8.42856096669487"><ele>142.0</ele><time>2026-04-18T10:37:43Z</time></trkpt><trkpt lat="44.989719173744106" lon="8.428556188767706"><ele>142.0</ele><time>2026-04-18T10:37:44Z</time></trkpt><trkpt lat="44.98981385404472" lon="8.428523879097915"><ele>142.0</ele><time>2026-04-18T10:37:45Z</time></trkpt><trkpt lat="44.98989142312618" lon="8.428515287770068"><ele>142.0</ele><time>2026-04-18T10:37:46Z</time></trkpt><trkpt lat="44.98996662059721" lon="8.428391708529078"><ele>142.0</ele><time>2026-04-18T10:37:48Z</time></trkpt><trkpt lat="44.98996625470542" lon="8.42827987523858"><ele>142.0</ele><time>2026-04-18T10:37:48.999Z</time></trkpt><trkpt lat="44.989942520490374" lon="8.428086479967137"><ele>142.0</ele><time>2026-04-18T10:37:49.999Z</time></trkpt><trkpt lat="44.98990379308959" lon="8.427826148396141"><ele>142.0</ele><time>2026-04-18T10:37:50.999Z</time></trkpt><trkpt lat="44.9898501304453" lon="8.427557177351144"><ele>143.66666666666669</ele><time>2026-04-18T10:37:51.999Z</time></trkpt><trkpt lat="44.989805784195" lon="8.4273122328655"><ele>145.33333333333334</ele><time>2026-04-18T10:37:52.999Z</time></trkpt><trkpt lat="44.98976322822255" lon="8.427084490582821"><ele>147.0</ele><time>2026-04-18T10:37:53.999Z</time></trkpt><trkpt lat="44.989735675024576" lon="8.426882209494417"><ele>147.66666666666666</ele><time>2026-04-18T10:37:54.999Z</time></trkpt><trkpt lat="44.98970555784886" lon="8.426699970871374"><ele>148.33333333333331</ele><time>2026-04-18T10:37:55.999Z</time></trkpt><trkpt lat="44.98964727941544" lon="8.426501228253297"><ele>149.0</ele><time>2026-04-18T10:37:56.999Z</time></trkpt><trkpt lat="44.989569786588895" lon="8.426289167117968"><ele>149.0</ele><time>2026-04-18T10:37:57.999Z</time></trkpt><trkpt lat="44.98948865575287" lon="8.426071013139552"><ele>149.0</ele><time>2026-04-18T10:37:58.999Z</time></trkpt><trkpt lat="44.989426713117716" lon="8.42586965902277"><ele>149.0</ele><time>2026-04-18T10:37:59.999Z</time></trkpt><trkpt lat="44.98935119274071" lon="8.425678247704058"><ele>149.0</ele><time>2026-04-18T10:38:00.999Z</time></trkpt><trkpt lat="44.98928331859455" lon="8.425516100682579"><ele>149.0</ele><time>2026-04-18T10:38:01.999Z</time></trkpt><trkpt lat="44.989209510805" lon="8.425368139202341"><ele>149.0</ele><time>2026-04-18T10:38:02.999Z</time></trkpt><trkpt lat="44.98912768542043" lon="8.425266129447218"><ele>149.0</ele><time>2026-04-18T10:38:03.999Z</time></trkpt><trkpt lat="44.98903521085846" lon="8.425130491694052"><ele>148.75</ele><time>2026-04-18T10:38:04.999Z</time></trkpt><trkpt lat="44.98894331297858" lon="8.4249751070125"><ele>148.5</ele><time>2026-04-18T10:38:05.999Z</time></trkpt><trkpt lat="44.98885991282837" lon="8.424834069912642"><ele>148.25</ele><time>2026-04-18T10:38:06.999Z</time></trkpt><trkpt lat="44.98882465218608" lon="8.424683059451082"><ele>148.0</ele><time>2026-04-18T10:38:07.999Z</time></trkpt><trkpt lat="44.98878427711529" lon="8.424500768592228"><ele>148.0</ele><time>2026-04-18T10:38:08.999Z</time></trkpt><trkpt lat="44.98875389722299" lon="8.424300528126205"><ele>148.0</ele><time>2026-04-18T10:38:09.999Z</time></trkpt><trkpt lat="44.98874294324007" lon="8.424106981448675"><ele>148.0</ele><time>2026-04-18T10:38:10.999Z</time></trkpt><trkpt lat="44.98873256589752" lon="8.42389859111394"><ele>148.0</ele><time>2026-04-18T10:38:11.999Z</time></trkpt><trkpt lat="44.98877555642448" lon="8.423689924112246"><ele>148.25</ele><time>2026-04-18T10:38:12.999Z</time></trkpt><trkpt lat="44.98880355045536" lon="8.42349334070508"><ele>148.5</ele><time>2026-04-18T10:38:13.999Z</time></trkpt><trkpt lat="44.988883550410286" lon="8.423320122761906"><ele>148.75</ele><time>2026-04-18T10:38:14.999Z</time></trkpt><trkpt lat="44.98895689189007" lon="8.423166210763366"><ele>149.0</ele><time>2026-04-18T10:38:15.999Z</time></trkpt><trkpt lat="44.98900755127854" lon="8.423024669596735"><ele>149.0</ele><time>2026-04-18T10:38:16.999Z</time></trkpt><trkpt lat="44.98902450354765" lon="8.422873016377673"><ele>149.0</ele><time>2026-04-18T10:38:17.999Z</time></trkpt><trkpt lat="44.98903827880798" lon="8.422701118006358"><ele>149.0</ele><time>2026-04-18T10:38:18.999Z</time></trkpt><trkpt lat="44.9890362768005" lon="8.42243759727727"><ele>149.0</ele><time>2026-04-18T10:38:19.999Z</time></trkpt><trkpt lat="44.98902753724602" lon="8.422191373363207"><ele>149.0</ele><time>2026-04-18T10:38:20.999Z</time></trkpt><trkpt lat="44.98901741203211" lon="8.421947933032126"><ele>149.0</ele><time>2026-04-18T10:38:21.999Z</time></trkpt><trkpt lat="44.989004857264774" lon="8.421733752892855"><ele>149.0</ele><time>2026-04-18T10:38:22.999Z</time></trkpt><trkpt lat="44.988993356228924" lon="8.421528749453913"><ele>149.0</ele><time>2026-04-18T10:38:23.999Z</time></trkpt><trkpt lat="44.98898033618475" lon="8.421335007380256"><ele>149.0</ele><time>2026-04-18T10:38:24.999Z</time></trkpt><trkpt lat="44.98895919789971" lon="8.421138746837713"><ele>149.0</ele><time>2026-04-18T10:38:25.999Z</time></trkpt><trkpt lat="44.988944440361024" lon="8.420956265126884"><ele>149.0</ele><time>2026-04-18T10:38:26.999Z</time></trkpt><trkpt lat="44.98895732812635" lon="8.420807402534532"><ele>149.2</ele><time>2026-04-18T10:38:27.999Z</time></trkpt><trkpt lat="44.988943207727296" lon="8.420690366349643"><ele>149.4</ele><time>2026-04-18T10:38:28.999Z</time></trkpt><trkpt lat="44.98895664814596" lon="8.420601557294015"><ele>149.6</ele><time>2026-04-18T10:38:29.999Z</time></trkpt><trkpt lat="44.988934461542755" lon="8.420503149748717"><ele>149.8</ele><time>2026-04-18T10:38:30.999Z</time></trkpt><trkpt lat="44.9889302300359" lon="8.420337851474256"><ele>150.0</ele><time>2026-04-18T10:38:31.999Z</time></trkpt><trkpt lat="44.98890279268929" lon="8.420113337469239"><ele>150.0</ele><time>2026-04-18T10:38:32.999Z</time></trkpt><trkpt lat="44.98886113130749" lon="8.419881456028222"><ele>150.0</ele><time>2026-04-18T10:38:33.999Z</time></trkpt><trkpt lat="44.988825617265505" lon="8.419676143850268"><ele>150.0</ele><time>2026-04-18T10:38:34.999Z</time></trkpt><trkpt lat="44.98879253282525" lon="8.41946511372823"><ele>150.66666666666666</ele><time>2026-04-18T10:38:35.999Z</time></trkpt><trkpt lat="44.98875408927347" lon="8.419238066602606"><ele>151.33333333333331</ele><time>2026-04-18T10:38:36.999Z</time></trkpt><trkpt lat="44.988712242105954" lon="8.419005940698982"><ele>152.0</ele><time>2026-04-18T10:38:37.999Z</time></trkpt><trkpt lat="44.98867857724937" lon="8.418821754334203"><ele>152.0</ele><time>2026-04-18T10:38:38.999Z</time></trkpt><trkpt lat="44.988653197543606" lon="8.41863822896662"><ele>152.0</ele><time>2026-04-18T10:38:39.999Z</time></trkpt><trkpt lat="44.98863525393213" lon="8.418466636884824"><ele>152.0</ele><time>2026-04-18T10:38:40.999Z</time></trkpt><trkpt lat="44.98865775646106" lon="8.418316832218082"><ele>152.0</ele><time>2026-04-18T10:38:41.999Z</time></trkpt><trkpt lat="44.98868326080162" lon="8.418164905292413"><ele>151.25</ele><time>2026-04-18T10:38:42.999Z</time></trkpt><trkpt lat="44.988727000855526" lon="8.417977701472095"><ele>150.5</ele><time>2026-04-18T10:38:43.999Z</time></trkpt><trkpt lat="44.98877774487004" lon="8.417778651056107"><ele>149.75</ele><time>2026-04-18T10:38:44.999Z</time></trkpt><trkpt lat="44.98884555735302" lon="8.417581290569025"><ele>149.0</ele><time>2026-04-18T10:38:45.999Z</time></trkpt><trkpt lat="44.98890787264241" lon="8.417374721366128"><ele>149.0</ele><time>2026-04-18T10:38:46.999Z</time></trkpt><trkpt lat="44.98896141317865" lon="8.417199363668235"><ele>149.0</ele><time>2026-04-18T10:38:47.999Z</time></trkpt><trkpt lat="44.989031186028136" lon="8.417027386678189"><ele>149.0</ele><time>2026-04-18T10:38:48.999Z</time></trkpt><trkpt lat="44.989127530602" lon="8.416846357089707"><ele>149.0</ele><time>2026-04-18T10:38:49.999Z</time></trkpt><trkpt lat="44.989233648403605" lon="8.416672307395956"><ele>149.5</ele><time>2026-04-18T10:38:50.999Z</time></trkpt><trkpt lat="44.98932742951933" lon="8.416525621221206"><ele>150.0</ele><time>2026-04-18T10:38:51.999Z</time></trkpt><trkpt lat="44.9894097259823" lon="8.41638797333413"><ele>150.5</ele><time>2026-04-18T10:38:52.999Z</time></trkpt><trkpt lat="44.98947934241338" lon="8.416265607371853"><ele>151.0</ele><time>2026-04-18T10:38:53.999Z</time></trkpt><trkpt lat="44.98954654564051" lon="8.416122034850156"><ele>151.0</ele><time>2026-04-18T10:38:54.999Z</time></trkpt><trkpt lat="44.98961114974628" lon="8.415973098524532"><ele>151.0</ele><time>2026-04-18T10:38:55.999Z</time></trkpt><trkpt lat="44.98966226566716" lon="8.415818271764413"><ele>151.0</ele><time>2026-04-18T10:38:56.998Z</time></trkpt><trkpt lat="44.989697449625524" lon="8.415663998919271"><ele>151.0</ele><time>2026-04-18T10:38:57.998Z</time></trkpt><trkpt lat="44.98972745496533" lon="8.41550487323136"><ele>150.75</ele><time>2026-04-18T10:38:58.998Z</time></trkpt><trkpt lat="44.98975036453314" lon="8.415329145931718"><ele>150.5</ele><time>2026-04-18T10:38:59.998Z</time></trkpt><trkpt lat="44.98977348748199" lon="8.415106725738092"><ele>150.25</ele><time>2026-04-18T10:39:00.998Z</time></trkpt><trkpt lat="44.989789609261585" lon="8.414910539123008"><ele>150.0</ele><time>2026-04-18T10:39:01.998Z</time></trkpt><trkpt lat="44.98979989672387" lon="8.414734117139854"><ele>149.75</ele><time>2026-04-18T10:39:02.998Z</time></trkpt><trkpt lat="44.98980453510642" lon="8.414553805059793"><ele>149.5</ele><time>2026-04-18T10:39:03.998Z</time></trkpt><trkpt lat="44.989826408032954" lon="8.414351825138189"><ele>149.25</ele><time>2026-04-18T10:39:04.998Z</time></trkpt><trkpt lat="44.989835301183184" lon="8.414138461905468"><ele>149.0</ele><time>2026-04-18T10:39:05.998Z</time></trkpt><trkpt lat="44.98984278891986" lon="8.413911613629267"><ele>148.5</ele><time>2026-04-18T10:39:06.998Z</time></trkpt><trkpt lat="44.989847628547565" lon="8.413698876141664"><ele>148.0</ele><time>2026-04-18T10:39:07.998Z</time></trkpt><trkpt lat="44.989833423307836" lon="8.413537143346637"><ele>147.5</ele><time>2026-04-18T10:39:08.998Z</time></trkpt><trkpt lat="44.989841728323775" lon="8.413393651084261"><ele>147.0</ele><time>2026-04-18T10:39:09.998Z</time></trkpt><trkpt lat="44.98985093058" lon="8.413234531717073"><ele>147.0</ele><time>2026-04-18T10:39:10.998Z</time></trkpt><trkpt lat="44.989858494922714" lon="8.413084826990366"><ele>147.0</ele><time>2026-04-18T10:39:11.998Z</time></trkpt><trkpt lat="44.98989125673954" lon="8.41294181824522"><ele>147.0</ele><time>2026-04-18T10:39:12.998Z</time></trkpt><trkpt lat="44.989912210899185" lon="8.412782484325819"><ele>147.0</ele><time>2026-04-18T10:39:13.998Z</time></trkpt><trkpt lat="44.98993887573842" lon="8.412590280208612"><ele>147.25</ele><time>2026-04-18T10:39:14.998Z</time></trkpt><trkpt lat="44.989970861159534" lon="8.412421586647092"><ele>147.5</ele><time>2026-04-18T10:39:15.998Z</time></trkpt><trkpt lat="44.989996683493196" lon="8.412260251789272"><ele>147.75</ele><time>2026-04-18T10:39:16.998Z</time></trkpt><trkpt lat="44.99004814297982" lon="8.412088150983706"><ele>148.0</ele><time>2026-04-18T10:39:17.998Z</time></trkpt><trkpt lat="44.990081181982575" lon="8.411910361619544"><ele>148.25</ele><time>2026-04-18T10:39:19Z</time></trkpt><trkpt lat="44.990134907953106" lon="8.411729302244813"><ele>148.5</ele><time>2026-04-18T10:39:20Z</time></trkpt><trkpt lat="44.99018860328653" lon="8.411529578460339"><ele>148.75</ele><time>2026-04-18T10:39:21Z</time></trkpt><trkpt lat="44.990230701263904" lon="8.411354280989038"><ele>149.0</ele><time>2026-04-18T10:39:22Z</time></trkpt><trkpt lat="44.990275004924925" lon="8.411198152417494"><ele>149.0</ele><time>2026-04-18T10:39:23Z</time></trkpt><trkpt lat="44.990293120006626" lon="8.411061388523647"><ele>149.0</ele><time>2026-04-18T10:39:24Z</time></trkpt><trkpt lat="44.9902967449672" lon="8.410934953540789"><ele>149.0</ele><time>2026-04-18T10:39:25Z</time></trkpt><trkpt lat="44.99028263483056" lon="8.410780917376167"><ele>149.0</ele><time>2026-04-18T10:39:26Z</time></trkpt><trkpt lat="44.99025775020846" lon="8.41061217497804"><ele>149.0</ele><time>2026-04-18T10:39:27Z</time></trkpt><trkpt lat="44.990251472136954" lon="8.41047838886052"><ele>149.4</ele><time>2026-04-18T10:39:28Z</time></trkpt><trkpt lat="44.99024436156404" lon="8.410374064615848"><ele>149.8</ele><time>2026-04-18T10:39:29Z</time></trkpt><trkpt lat="44.99024096343888" lon="8.410229757651942"><ele>150.2</ele><time>2026-04-18T10:39:30Z</time></trkpt><trkpt lat="44.99026170570565" lon="8.41007766603177"><ele>150.6</ele><time>2026-04-18T10:39:31Z</time></trkpt><trkpt lat="44.99029350867442" lon="8.40997361916309"><ele>151.0</ele><time>2026-04-18T10:39:32Z</time></trkpt><trkpt lat="44.9903914106628" lon="8.409885539860726"><ele>151.0</ele><time>2026-04-18T10:39:34Z</time></trkpt><trkpt lat="44.990490933088324" lon="8.409906543674314"><ele>151.0</ele><time>2026-04-18T10:39:36Z</time></trkpt><trkpt lat="44.990566760369084" lon="8.409902688189467"><ele>151.0</ele><time>2026-04-18T10:39:43Z</time></trkpt><trkpt lat="44.99065194650448" lon="8.409863634031028"><ele>151.0</ele><time>2026-04-18T10:39:46Z</time></trkpt><trkpt lat="44.99069183791355" lon="8.409734555697446"><ele>151.0</ele><time>2026-04-18T10:41:09.998Z</time></trkpt><trkpt lat="44.99071390329417" lon="8.409624728088342"><ele>151.0</ele><time>2026-04-18T10:41:10.998Z</time></trkpt><trkpt lat="44.99073982111384" lon="8.409486193014557"><ele>150.8</ele><time>2026-04-18T10:41:11.998Z</time></trkpt><trkpt lat="44.99077254516633" lon="8.409356217201248"><ele>150.6</ele><time>2026-04-18T10:41:12.998Z</time></trkpt><trkpt lat="44.99080178647516" lon="8.409238134667541"><ele>150.4</ele><time>2026-04-18T10:41:13.998Z</time></trkpt><trkpt lat="44.99082791547523" lon="8.409153256042517"><ele>150.2</ele><time>2026-04-18T10:41:14.998Z</time></trkpt><trkpt lat="44.99088514455621" lon="8.40903786456767"><ele>150.0</ele><time>2026-04-18T10:41:16.998Z</time></trkpt><trkpt lat="44.99095951382413" lon="8.408925890621243"><ele>150.6</ele><time>2026-04-18T10:41:18.998Z</time></trkpt><trkpt lat="44.99102842614718" lon="8.408808474581765"><ele>151.2</ele><time>2026-04-18T10:41:21.998Z</time></trkpt><trkpt lat="44.99107997606655" lon="8.408701693033596"><ele>151.8</ele><time>2026-04-18T10:41:23.998Z</time></trkpt><trkpt lat="44.991127943463304" lon="8.40861121604264"><ele>152.4</ele><time>2026-04-18T10:41:26Z</time></trkpt><trkpt lat="44.99122303762623" lon="8.40849110282357"><ele>153.0</ele><time>2026-04-18T10:41:28Z</time></trkpt><trkpt lat="44.99128675119851" lon="8.408434430354278"><ele>153.0</ele><time>2026-04-18T10:41:29Z</time></trkpt><trkpt lat="44.99135416934192" lon="8.408384940682781"><ele>153.0</ele><time>2026-04-18T10:41:30Z</time></trkpt><trkpt lat="44.99143157280853" lon="8.408334564008902"><ele>153.0</ele><time>2026-04-18T10:41:31Z</time></trkpt><trkpt lat="44.99151560275742" lon="8.408273462511128"><ele>153.0</ele><time>2026-04-18T10:41:32Z</time></trkpt><trkpt lat="44.991634489957164" lon="8.408194108926242"><ele>153.0</ele><time>2026-04-18T10:41:33Z</time></trkpt><trkpt lat="44.99172885632292" lon="8.408135924572893"><ele>153.4</ele><time>2026-04-18T10:41:34Z</time></trkpt><trkpt lat="44.99179520054694" lon="8.408088670631999"><ele>153.8</ele><time>2026-04-18T10:41:35Z</time></trkpt><trkpt lat="44.991851824072654" lon="8.408028186638395"><ele>154.2</ele><time>2026-04-18T10:41:36Z</time></trkpt><trkpt lat="44.99192902314777" lon="8.407949177075967"><ele>154.6</ele><time>2026-04-18T10:41:37Z</time></trkpt><trkpt lat="44.99200312760286" lon="8.407837791935663"><ele>155.0</ele><time>2026-04-18T10:41:38Z</time></trkpt><trkpt lat="44.99206510063992" lon="8.407680333679862"><ele>154.0</ele><time>2026-04-18T10:41:39Z</time></trkpt><trkpt lat="44.99212586008138" lon="8.407493752139619"><ele>153.0</ele><time>2026-04-18T10:41:40Z</time></trkpt><trkpt lat="44.992160676283206" lon="8.407364784483303"><ele>152.0</ele><time>2026-04-18T10:41:41Z</time></trkpt><trkpt lat="44.99218822860382" lon="8.407270381781894"><ele>151.0</ele><time>2026-04-18T10:41:42Z</time></trkpt><trkpt lat="44.99222897975848" lon="8.407145385156296"><ele>150.0</ele><time>2026-04-18T10:41:44Z</time></trkpt><trkpt lat="44.992263269881" lon="8.406995674246073"><ele>149.7142857142857</ele><time>2026-04-18T10:41:46Z</time></trkpt><trkpt lat="44.992277189309696" lon="8.40690287533275"><ele>149.42857142857142</ele><time>2026-04-18T10:41:47Z</time></trkpt><trkpt lat="44.99229197341288" lon="8.40681525563572"><ele>149.14285714285714</ele><time>2026-04-18T10:41:48Z</time></trkpt><trkpt lat="44.99231715786354" lon="8.406729938219272"><ele>148.85714285714283</ele><time>2026-04-18T10:41:49Z</time></trkpt><trkpt lat="44.992353362770714" lon="8.40662409356017"><ele>148.57142857142856</ele><time>2026-04-18T10:41:50Z</time></trkpt><trkpt lat="44.99237775692589" lon="8.406519136200039"><ele>148.28571428571428</ele><time>2026-04-18T10:41:51Z</time></trkpt><trkpt lat="44.99239874805346" lon="8.40642882056086"><ele>148.0</ele><time>2026-04-18T10:41:52Z</time></trkpt><trkpt lat="44.99241888351656" lon="8.406342186356554"><ele>147.66666666666669</ele><time>2026-04-18T10:41:53Z</time></trkpt><trkpt lat="44.99244100476284" lon="8.406247008174498"><ele>147.33333333333334</ele><time>2026-04-18T10:41:54Z</time></trkpt><trkpt lat="44.99246534544666" lon="8.406142281276493"><ele>147.0</ele><time>2026-04-18T10:41:55Z</time></trkpt><trkpt lat="44.992495390229976" lon="8.4060130112329"><ele>146.66666666666666</ele><time>2026-04-18T10:41:56Z</time></trkpt><trkpt lat="44.9925242992058" lon="8.4058888575796"><ele>146.33333333333331</ele><time>2026-04-18T10:41:57Z</time></trkpt><trkpt lat="44.99254761066131" lon="8.40578899975713"><ele>146.0</ele><time>2026-04-18T10:41:58Z</time></trkpt><trkpt lat="44.99257243577699" lon="8.405682657811898"><ele>146.8</ele><time>2026-04-18T10:41:58.999Z</time></trkpt><trkpt lat="44.992605445694146" lon="8.405546877703559"><ele>147.6</ele><time>2026-04-18T10:41:59.999Z</time></trkpt><trkpt lat="44.992634703431804" lon="8.405433960757424"><ele>148.4</ele><time>2026-04-18T10:42:00.999Z</time></trkpt><trkpt lat="44.99266522707748" lon="8.405326149048213"><ele>149.2</ele><time>2026-04-18T10:42:01.999Z</time></trkpt><trkpt lat="44.99269588144112" lon="8.405231912495926"><ele>150.0</ele><time>2026-04-18T10:42:02.999Z</time></trkpt><trkpt lat="44.99273078923271" lon="8.405084120010425"><ele>150.2</ele><time>2026-04-18T10:42:04.999Z</time></trkpt><trkpt lat="44.99276260709014" lon="8.40499066040114"><ele>150.4</ele><time>2026-04-18T10:42:06.999Z</time></trkpt><trkpt lat="44.99281304042919" lon="8.40486512064791"><ele>150.6</ele><time>2026-04-18T10:42:07.999Z</time></trkpt><trkpt lat="44.99287140504825" lon="8.404708929542052"><ele>150.8</ele><time>2026-04-18T10:42:08.999Z</time></trkpt><trkpt lat="44.99292519174443" lon="8.404571170286431"><ele>151.0</ele><time>2026-04-18T10:42:09.999Z</time></trkpt><trkpt lat="44.99297032727726" lon="8.40445160813232"><ele>150.6</ele><time>2026-04-18T10:42:10.999Z</time></trkpt><trkpt lat="44.993013526334806" lon="8.404331533544365"><ele>150.2</ele><time>2026-04-18T10:42:11.999Z</time></trkpt><trkpt lat="44.99305074203686" lon="8.404226428435702"><ele>149.8</ele><time>2026-04-18T10:42:12.999Z</time></trkpt><trkpt lat="44.99309341333462" lon="8.404108115102328"><ele>149.4</ele><time>2026-04-18T10:42:13.999Z</time></trkpt><trkpt lat="44.993150388890655" lon="8.403949131179854"><ele>149.0</ele><time>2026-04-18T10:42:14.999Z</time></trkpt><trkpt lat="44.993189996768756" lon="8.403821823895981"><ele>148.5</ele><time>2026-04-18T10:42:15.999Z</time></trkpt><trkpt lat="44.99322763029077" lon="8.403669965520294"><ele>148.0</ele><time>2026-04-18T10:42:16.999Z</time></trkpt><trkpt lat="44.99327809332613" lon="8.403481309143315"><ele>147.5</ele><time>2026-04-18T10:42:17.999Z</time></trkpt><trkpt lat="44.9933286346872" lon="8.403282131844586"><ele>147.0</ele><time>2026-04-18T10:42:18.999Z</time></trkpt><trkpt lat="44.99338015106393" lon="8.403087972035026"><ele>147.25</ele><time>2026-04-18T10:42:19.999Z</time></trkpt><trkpt lat="44.99343468396118" lon="8.402895690535084"><ele>147.5</ele><time>2026-04-18T10:42:20.999Z</time></trkpt><trkpt lat="44.99348615352697" lon="8.402719031309196"><ele>147.75</ele><time>2026-04-18T10:42:21.999Z</time></trkpt><trkpt lat="44.99353117819342" lon="8.4025495081958"><ele>148.0</ele><time>2026-04-18T10:42:22.999Z</time></trkpt><trkpt lat="44.993567406201436" lon="8.40238938575261"><ele>148.0</ele><time>2026-04-18T10:42:23.999Z</time></trkpt><trkpt lat="44.99362124586322" lon="8.402254201537053"><ele>148.0</ele><time>2026-04-18T10:42:24.999Z</time></trkpt><trkpt lat="44.993661647153864" lon="8.40210772719843"><ele>148.0</ele><time>2026-04-18T10:42:25.999Z</time></trkpt><trkpt lat="44.993688187113385" lon="8.401963235724773"><ele>148.0</ele><time>2026-04-18T10:42:26.999Z</time></trkpt><trkpt lat="44.99375208494443" lon="8.401763598987161"><ele>148.0</ele><time>2026-04-18T10:42:27.999Z</time></trkpt><trkpt lat="44.99381165834955" lon="8.401546751372871"><ele>148.0</ele><time>2026-04-18T10:42:28.999Z</time></trkpt><trkpt lat="44.9938682029807" lon="8.401358021030296"><ele>148.0</ele><time>2026-04-18T10:42:29.999Z</time></trkpt><trkpt lat="44.99391847022743" lon="8.401192976872354"><ele>148.0</ele><time>2026-04-18T10:42:30.999Z</time></trkpt><trkpt lat="44.9939631173456" lon="8.401036905332374"><ele>148.6</ele><time>2026-04-18T10:42:31.999Z</time></trkpt><trkpt lat="44.99399970857249" lon="8.400906491294773"><ele>149.20000000000002</ele><time>2026-04-18T10:42:32.999Z</time></trkpt><trkpt lat="44.9940213436617" lon="8.40081154502292"><ele>149.8</ele><time>2026-04-18T10:42:33.999Z</time></trkpt><trkpt lat="44.9940592185698" lon="8.400655268370048"><ele>150.4</ele><time>2026-04-18T10:42:35.999Z</time></trkpt><trkpt lat="44.994097682426165" lon="8.400500469411568"><ele>151.0</ele><time>2026-04-18T10:42:36.999Z</time></trkpt><trkpt lat="44.99411662193851" lon="8.400381868836298"><ele>151.0</ele><time>2026-04-18T10:42:37.999Z</time></trkpt><trkpt lat="44.9941331924085" lon="8.40027152567702"><ele>151.0</ele><time>2026-04-18T10:42:38.999Z</time></trkpt><trkpt lat="44.994161241960335" lon="8.400115604808878"><ele>151.0</ele><time>2026-04-18T10:42:39.999Z</time></trkpt><trkpt lat="44.994188242179455" lon="8.399936862068017"><ele>151.0</ele><time>2026-04-18T10:42:40.999Z</time></trkpt><trkpt lat="44.99422280537106" lon="8.399729221369629"><ele>150.66666666666669</ele><time>2026-04-18T10:42:41.999Z</time></trkpt><trkpt lat="44.994266288536366" lon="8.399480108132053"><ele>150.33333333333334</ele><time>2026-04-18T10:42:42.999Z</time></trkpt><trkpt lat="44.99430636707763" lon="8.399278383996286"><ele>150.0</ele><time>2026-04-18T10:42:43.999Z</time></trkpt><trkpt lat="44.99434890225949" lon="8.399050340474405"><ele>150.0</ele><time>2026-04-18T10:42:44.999Z</time></trkpt><trkpt lat="44.994385943294226" lon="8.398856482595138"><ele>150.0</ele><time>2026-04-18T10:42:45.999Z</time></trkpt><trkpt lat="44.99441773291563" lon="8.39868780268678"><ele>150.0</ele><time>2026-04-18T10:42:46.999Z</time></trkpt><trkpt lat="44.99444516759382" lon="8.398514468083036"><ele>150.0</ele><time>2026-04-18T10:42:47.999Z</time></trkpt><trkpt lat="44.994469359583476" lon="8.398339244548566"><ele>150.5</ele><time>2026-04-18T10:42:48.999Z</time></trkpt><trkpt lat="44.99449829814183" lon="8.398153289582412"><ele>151.0</ele><time>2026-04-18T10:42:49.999Z</time></trkpt><trkpt lat="44.994524340359625" lon="8.397985835713854"><ele>151.5</ele><time>2026-04-18T10:42:50.999Z</time></trkpt><trkpt lat="44.994546753919224" lon="8.39783942408077"><ele>152.0</ele><time>2026-04-18T10:42:51.999Z</time></trkpt><trkpt lat="44.994572075980656" lon="8.397718200254838"><ele>152.0</ele><time>2026-04-18T10:42:52.999Z</time></trkpt><trkpt lat="44.994600765821865" lon="8.397611607601556"><ele>152.0</ele><time>2026-04-18T10:42:53.999Z</time></trkpt><trkpt lat="44.99462995001803" lon="8.397509519952617"><ele>152.0</ele><time>2026-04-18T10:42:54.999Z</time></trkpt><trkpt lat="44.99466568756252" lon="8.397407167887247"><ele>152.0</ele><time>2026-04-18T10:42:55.999Z</time></trkpt><trkpt lat="44.994740623882166" lon="8.397324726559123"><ele>152.0</ele><time>2026-04-18T10:42:56.999Z</time></trkpt><trkpt lat="44.99479626065056" lon="8.39722560949896"><ele>152.0</ele><time>2026-04-18T10:42:57.999Z</time></trkpt><trkpt lat="44.99486248668599" lon="8.397133708854195"><ele>151.85714285714286</ele><time>2026-04-18T10:42:58.999Z</time></trkpt><trkpt lat="44.99490435882376" lon="8.397040311201692"><ele>151.71428571428572</ele><time>2026-04-18T10:42:59.999Z</time></trkpt><trkpt lat="44.99493424267307" lon="8.396948553638929"><ele>151.57142857142858</ele><time>2026-04-18T10:43:00.999Z</time></trkpt><trkpt lat="44.99495483675746" lon="8.396861414107683"><ele>151.42857142857144</ele><time>2026-04-18T10:43:01.999Z</time></trkpt><trkpt lat="44.994963276746105" lon="8.396766143108486"><ele>151.28571428571428</ele><time>2026-04-18T10:43:03.999Z</time></trkpt><trkpt lat="44.9949003140868" lon="8.396693139223897"><ele>151.14285714285717</ele><time>2026-04-18T10:43:06.999Z</time></trkpt><trkpt lat="44.994820799666485" lon="8.396661910378302"><ele>151.0</ele><time>2026-04-18T10:43:08.998Z</time></trkpt><trkpt lat="44.99473997163262" lon="8.396634622776933"><ele>151.0</ele><time>2026-04-18T10:43:11.998Z</time></trkpt><trkpt lat="44.99466761478806" lon="8.396598623128604"><ele>151.0</ele><time>2026-04-18T10:43:14.998Z</time></trkpt><trkpt lat="44.99458644132262" lon="8.396565893104492"><ele>151.0</ele><time>2026-04-18T10:43:17.998Z</time></trkpt><trkpt lat="44.99451574595133" lon="8.396543242954987"><ele>151.0</ele><time>2026-04-18T10:43:19.998Z</time></trkpt><trkpt lat="44.99444390445068" lon="8.396523424750876"><ele>151.0</ele><time>2026-04-18T10:43:20.998Z</time></trkpt><trkpt lat="44.9943618125577" lon="8.396483959663609"><ele>151.0</ele><time>2026-04-18T10:43:21.998Z</time></trkpt><trkpt lat="44.99425040429351" lon="8.396432607870059"><ele>150.75</ele><time>2026-04-18T10:43:22.998Z</time></trkpt><trkpt lat="44.99411178686878" lon="8.396365383594619"><ele>150.5</ele><time>2026-04-18T10:43:23.998Z</time></trkpt><trkpt lat="44.993962645589214" lon="8.396292538478358"><ele>150.25</ele><time>2026-04-18T10:43:24.998Z</time></trkpt><trkpt lat="44.99383065010151" lon="8.396227655918565"><ele>150.0</ele><time>2026-04-18T10:43:25.998Z</time></trkpt><trkpt lat="44.99371577238534" lon="8.396168520625153"><ele>150.0</ele><time>2026-04-18T10:43:26.998Z</time></trkpt><trkpt lat="44.99360558357691" lon="8.396116269119718"><ele>150.0</ele><time>2026-04-18T10:43:27.998Z</time></trkpt><trkpt lat="44.993501874139646" lon="8.396063800972282"><ele>150.0</ele><time>2026-04-18T10:43:28.998Z</time></trkpt><trkpt lat="44.9934091777231" lon="8.396020471116104"><ele>150.0</ele><time>2026-04-18T10:43:29.998Z</time></trkpt><trkpt lat="44.993333591006284" lon="8.39598093219234"><ele>150.0</ele><time>2026-04-18T10:43:31Z</time></trkpt><trkpt lat="44.99324393891674" lon="8.395946484556701"><ele>150.0</ele><time>2026-04-18T10:43:33Z</time></trkpt><trkpt lat="44.99315257205925" lon="8.396083454694358"><ele>150.0</ele><time>2026-04-18T10:43:37Z</time></trkpt><trkpt lat="44.99311379422972" lon="8.396258480487722"><ele>150.0</ele><time>2026-04-18T10:43:39Z</time></trkpt><trkpt lat="44.9930873676917" lon="8.396355821483514"><ele>150.0</ele><time>2026-04-18T10:43:40Z</time></trkpt><trkpt lat="44.9930632529224" lon="8.396455037787014"><ele>150.0</ele><time>2026-04-18T10:43:41Z</time></trkpt><trkpt lat="44.993035510645775" lon="8.396577515305093"><ele>150.0</ele><time>2026-04-18T10:43:42Z</time></trkpt><trkpt lat="44.99300555730767" lon="8.396707130477893"><ele>150.0</ele><time>2026-04-18T10:43:43Z</time></trkpt><trkpt lat="44.99297617430088" lon="8.396834233008983"><ele>150.0</ele><time>2026-04-18T10:43:44Z</time></trkpt><trkpt lat="44.99295442064524" lon="8.396934724524192"><ele>150.0</ele><time>2026-04-18T10:43:45Z</time></trkpt><trkpt lat="44.99292237728863" lon="8.397039645826863"><ele>150.0</ele><time>2026-04-18T10:43:47Z</time></trkpt><trkpt lat="44.99284933394082" lon="8.397016654029828"><ele>150.0</ele><time>2026-04-18T10:44:16Z</time></trkpt><trkpt lat="44.992709880635466" lon="8.397003159088767"><ele>150.0</ele><time>2026-04-18T10:44:21Z</time></trkpt><trkpt lat="44.99261814903001" lon="8.396992583084494"><ele>150.0</ele><time>2026-04-18T10:44:24Z</time></trkpt><trkpt lat="44.99255363331269" lon="8.396958555013045"><ele>150.0</ele><time>2026-04-18T10:44:25.999Z</time></trkpt><trkpt lat="44.99247457718428" lon="8.396828888396747"><ele>150.0</ele><time>2026-04-18T10:44:27.999Z</time></trkpt><trkpt lat="44.99245576176329" lon="8.3966974609574"><ele>150.0</ele><time>2026-04-18T10:44:28.999Z</time></trkpt><trkpt lat="44.99244502876373" lon="8.396512056079738"><ele>151.0</ele><time>2026-04-18T10:44:29.999Z</time></trkpt><trkpt lat="44.992441309367294" lon="8.396280793119269"><ele>152.0</ele><time>2026-04-18T10:44:30.999Z</time></trkpt><trkpt lat="44.99243293135612" lon="8.39601407074498"><ele>153.0</ele><time>2026-04-18T10:44:31.999Z</time></trkpt><trkpt lat="44.99241857887302" lon="8.395776050265999"><ele>153.0</ele><time>2026-04-18T10:44:32.999Z</time></trkpt><trkpt lat="44.99240688518649" lon="8.395566196185001"><ele>153.0</ele><time>2026-04-18T10:44:33.999Z</time></trkpt><trkpt lat="44.992398565488045" lon="8.395381600570277"><ele>153.0</ele><time>2026-04-18T10:44:34.999Z</time></trkpt><trkpt lat="44.9923905947077" lon="8.39520830351612"><ele>153.0</ele><time>2026-04-18T10:44:35.999Z</time></trkpt><trkpt lat="44.992382048428965" lon="8.395054147991754"><ele>152.85714285714286</ele><time>2026-04-18T10:44:36.999Z</time></trkpt><trkpt lat="44.99236484187933" lon="8.394933490650656"><ele>152.71428571428572</ele><time>2026-04-18T10:44:37.999Z</time></trkpt><trkpt lat="44.99233773053863" lon="8.394839470893723"><ele>152.57142857142856</ele><time>2026-04-18T10:44:38.999Z</time></trkpt><trkpt lat="44.99228903798675" lon="8.394781872864804"><ele>152.42857142857144</ele><time>2026-04-18T10:44:39.999Z</time></trkpt><trkpt lat="44.99221546758044" lon="8.394760666949074"><ele>152.2857142857143</ele><time>2026-04-18T10:44:40.999Z</time></trkpt><trkpt lat="44.9921546346324" lon="8.394790469965496"><ele>152.14285714285714</ele><time>2026-04-18T10:44:41.999Z</time></trkpt><trkpt lat="44.99208894686994" lon="8.394837372996715"><ele>152.0</ele><time>2026-04-18T10:44:44.999Z</time></trkpt><trkpt lat="44.992009831055945" lon="8.39489085616293"><ele>152.0</ele><time>2026-04-18T10:44:57.999Z</time></trkpt><trkpt lat="44.99192695025719" lon="8.394920435426021"><ele>152.0</ele><time>2026-04-18T10:44:58.999Z</time></trkpt><trkpt lat="44.9918441282493" lon="8.394952504137446"><ele>152.0</ele><time>2026-04-18T10:44:59.999Z</time></trkpt><trkpt lat="44.99176382257953" lon="8.394984947659642"><ele>152.0</ele><time>2026-04-18T10:45:00.999Z</time></trkpt><trkpt lat="44.99169344138719" lon="8.394987505455566"><ele>152.0</ele><time>2026-04-18T10:45:01.999Z</time></trkpt><trkpt lat="44.99162368837017" lon="8.395027782721497"><ele>152.0</ele><time>2026-04-18T10:45:03.999Z</time></trkpt><trkpt lat="44.991694200580845" lon="8.394987235212957"><ele>152.0</ele><time>2026-04-18T10:45:13.999Z</time></trkpt><trkpt lat="44.99178721328375" lon="8.394954136263447"><ele>152.0</ele><time>2026-04-18T10:45:15.999Z</time></trkpt><trkpt lat="44.9919005588758" lon="8.394935059596275"><ele>152.0</ele><time>2026-04-18T10:45:17.999Z</time></trkpt><trkpt lat="44.99201370850303" lon="8.394868734844815"><ele>152.0</ele><time>2026-04-18T10:45:19.999Z</time></trkpt><trkpt lat="44.99207403539008" lon="8.39483635615675"><ele>152.0</ele><time>2026-04-18T10:45:20.999Z</time></trkpt><trkpt lat="44.99213557668529" lon="8.394800605806559"><ele>152.0</ele><time>2026-04-18T10:45:21.999Z</time></trkpt><trkpt lat="44.99219461004412" lon="8.394767712429125"><ele>152.0</ele><time>2026-04-18T10:45:22.999Z</time></trkpt><trkpt lat="44.99225805402929" lon="8.39475967103017"><ele>152.0</ele><time>2026-04-18T10:45:23.999Z</time></trkpt><trkpt lat="44.992334640179976" lon="8.394796713179069"><ele>152.0</ele><time>2026-04-18T10:45:25.999Z</time></trkpt><trkpt lat="44.992245515274526" lon="8.394774058384998"><ele>152.0</ele><time>2026-04-18T10:45:40Z</time></trkpt><trkpt lat="44.99233362584973" lon="8.394682107986478"><ele>152.0</ele><time>2026-04-18T10:46:28Z</time></trkpt><trkpt lat="44.99229988018829" lon="8.394576741675406"><ele>152.0</ele><time>2026-04-18T10:48:12.999Z</time></trkpt><trkpt lat="44.99227300545503" lon="8.39447282119946"><ele>152.0</ele><time>2026-04-18T10:48:14.999Z</time></trkpt><trkpt lat="44.99225108305088" lon="8.394384986688719"><ele>152.0</ele><time>2026-04-18T10:48:16.999Z</time></trkpt><trkpt lat="44.99222935972008" lon="8.394295437261981"><ele>152.0</ele><time>2026-04-18T10:48:19.999Z</time></trkpt><trkpt lat="44.992190917235895" lon="8.39419924682099"><ele>152.0</ele><time>2026-04-18T10:48:26.999Z</time></trkpt><trkpt lat="44.99216345962242" lon="8.394116384381794"><ele>152.0</ele><time>2026-04-18T10:48:28.999Z</time></trkpt><trkpt lat="44.99211889860198" lon="8.393998995991005"><ele>152.0</ele><time>2026-04-18T10:48:31.999Z</time></trkpt><trkpt lat="44.99207762075348" lon="8.393912003341791"><ele>152.2</ele><time>2026-04-18T10:48:33.999Z</time></trkpt><trkpt lat="44.99203136551104" lon="8.393808752445366"><ele>152.39999999999998</ele><time>2026-04-18T10:48:36.999Z</time></trkpt><trkpt lat="44.99199003275042" lon="8.393693241475837"><ele>152.60000000000002</ele><time>2026-04-18T10:48:39.999Z</time></trkpt><trkpt lat="44.991949251716804" lon="8.393555860727519"><ele>152.8</ele><time>2026-04-18T10:48:41.999Z</time></trkpt><trkpt lat="44.991914997960684" lon="8.393444097347524"><ele>153.0</ele><time>2026-04-18T10:48:42.999Z</time></trkpt><trkpt lat="44.991880601548274" lon="8.393323702770644"><ele>153.0</ele><time>2026-04-18T10:48:43.999Z</time></trkpt><trkpt lat="44.99183823261595" lon="8.393188139188572"><ele>153.0</ele><time>2026-04-18T10:48:44.999Z</time></trkpt><trkpt lat="44.99179729609827" lon="8.393052293715048"><ele>153.0</ele><time>2026-04-18T10:48:45.999Z</time></trkpt><trkpt lat="44.99176406629363" lon="8.392941220737663"><ele>153.0</ele><time>2026-04-18T10:48:46.999Z</time></trkpt><trkpt lat="44.991735060049436" lon="8.392838493105494"><ele>153.0</ele><time>2026-04-18T10:48:47.999Z</time></trkpt><trkpt lat="44.99170954241222" lon="8.392745530838539"><ele>153.0</ele><time>2026-04-18T10:48:48.999Z</time></trkpt><trkpt lat="44.99168080258163" lon="8.392630925138022"><ele>153.20000000000002</ele><time>2026-04-18T10:48:49.999Z</time></trkpt><trkpt lat="44.9916460160724" lon="8.392509084098254"><ele>153.4</ele><time>2026-04-18T10:48:50.999Z</time></trkpt><trkpt lat="44.99162157514531" lon="8.392392451210473"><ele>153.60000000000002</ele><time>2026-04-18T10:48:51.999Z</time></trkpt><trkpt lat="44.99158665717855" lon="8.392258647387813"><ele>153.8</ele><time>2026-04-18T10:48:52.999Z</time></trkpt><trkpt lat="44.991550390737224" lon="8.39211924371211"><ele>154.0</ele><time>2026-04-18T10:48:53.999Z</time></trkpt><trkpt lat="44.99151736705833" lon="8.391985556300913"><ele>154.0</ele><time>2026-04-18T10:48:54.999Z</time></trkpt><trkpt lat="44.99148017550703" lon="8.391845123177966"><ele>154.0</ele><time>2026-04-18T10:48:55.999Z</time></trkpt><trkpt lat="44.99145803167105" lon="8.391739207866484"><ele>154.0</ele><time>2026-04-18T10:48:56.999Z</time></trkpt><trkpt lat="44.99143293435522" lon="8.391638476265182"><ele>154.0</ele><time>2026-04-18T10:48:57.999Z</time></trkpt><trkpt lat="44.991417200419214" lon="8.39152924381252"><ele>154.0</ele><time>2026-04-18T10:48:58.999Z</time></trkpt><trkpt lat="44.99140319045897" lon="8.39142359756671"><ele>154.0</ele><time>2026-04-18T10:48:59.999Z</time></trkpt><trkpt lat="44.991396448025846" lon="8.391333569415476"><ele>154.0</ele><time>2026-04-18T10:49:00.999Z</time></trkpt><trkpt lat="44.991385646121294" lon="8.391213651580854"><ele>154.0</ele><time>2026-04-18T10:49:01.999Z</time></trkpt><trkpt lat="44.991375730334326" lon="8.391095182327648"><ele>154.0</ele><time>2026-04-18T10:49:02.999Z</time></trkpt><trkpt lat="44.991361096208536" lon="8.390982007258193"><ele>154.0</ele><time>2026-04-18T10:49:03.999Z</time></trkpt><trkpt lat="44.99134766933192" lon="8.390871758881998"><ele>154.0</ele><time>2026-04-18T10:49:04.999Z</time></trkpt><trkpt lat="44.991320971748785" lon="8.390737317773482"><ele>154.0</ele><time>2026-04-18T10:49:05.998Z</time></trkpt><trkpt lat="44.991292295521305" lon="8.390615031642133"><ele>154.0</ele><time>2026-04-18T10:49:06.998Z</time></trkpt><trkpt lat="44.99125843646193" lon="8.390513739290535"><ele>154.0</ele><time>2026-04-18T10:49:07.998Z</time></trkpt><trkpt lat="44.99121679073252" lon="8.39039323674176"><ele>154.0</ele><time>2026-04-18T10:49:08.998Z</time></trkpt><trkpt lat="44.991173944844334" lon="8.390277968052526"><ele>154.0</ele><time>2026-04-18T10:49:09.998Z</time></trkpt><trkpt lat="44.99112248768115" lon="8.390160003830768"><ele>154.0</ele><time>2026-04-18T10:49:10.998Z</time></trkpt><trkpt lat="44.991079129074514" lon="8.39006145998348"><ele>154.0</ele><time>2026-04-18T10:49:11.998Z</time></trkpt><trkpt lat="44.99103490595568" lon="8.389975683610277"><ele>154.0</ele><time>2026-04-18T10:49:12.998Z</time></trkpt><trkpt lat="44.99097534655018" lon="8.389868388039073"><ele>154.0</ele><time>2026-04-18T10:49:13.998Z</time></trkpt><trkpt lat="44.99090590705533" lon="8.389755994460424"><ele>154.0</ele><time>2026-04-18T10:49:14.998Z</time></trkpt><trkpt lat="44.99083879573847" lon="8.389660606728372"><ele>154.0</ele><time>2026-04-18T10:49:15.998Z</time></trkpt><trkpt lat="44.99077834348942" lon="8.389592081912449"><ele>154.0</ele><time>2026-04-18T10:49:16.998Z</time></trkpt><trkpt lat="44.99071713318625" lon="8.38951275999199"><ele>153.5</ele><time>2026-04-18T10:49:17.998Z</time></trkpt><trkpt lat="44.990658485576425" lon="8.3894417838574"><ele>153.0</ele><time>2026-04-18T10:49:18.998Z</time></trkpt><trkpt lat="44.99059319121728" lon="8.389362059539321"><ele>152.5</ele><time>2026-04-18T10:49:19.998Z</time></trkpt><trkpt lat="44.99052834331128" lon="8.389292921257569"><ele>152.0</ele><time>2026-04-18T10:49:20.998Z</time></trkpt><trkpt lat="44.99046020655824" lon="8.389240547083801"><ele>151.5</ele><time>2026-04-18T10:49:21.998Z</time></trkpt><trkpt lat="44.99038250139282" lon="8.38916706387397"><ele>151.0</ele><time>2026-04-18T10:49:22.998Z</time></trkpt><trkpt lat="44.99029856298191" lon="8.389076175378763"><ele>151.0</ele><time>2026-04-18T10:49:23.998Z</time></trkpt><trkpt lat="44.99021596516385" lon="8.388993630286926"><ele>151.0</ele><time>2026-04-18T10:49:24.998Z</time></trkpt><trkpt lat="44.99013775861319" lon="8.388904779433936"><ele>151.0</ele><time>2026-04-18T10:49:25.998Z</time></trkpt><trkpt lat="44.99006141065443" lon="8.38882186540998"><ele>151.0</ele><time>2026-04-18T10:49:26.998Z</time></trkpt><trkpt lat="44.98997580901214" lon="8.388733853162172"><ele>151.0</ele><time>2026-04-18T10:49:27.998Z</time></trkpt><trkpt lat="44.98989187105952" lon="8.388660018051155"><ele>151.16666666666669</ele><time>2026-04-18T10:49:28.998Z</time></trkpt><trkpt lat="44.9898100591996" lon="8.388592765391326"><ele>151.33333333333334</ele><time>2026-04-18T10:49:29.998Z</time></trkpt><trkpt lat="44.989741720097285" lon="8.38853774542667"><ele>151.5</ele><time>2026-04-18T10:49:30.998Z</time></trkpt><trkpt lat="44.98966329237744" lon="8.38849183879438"><ele>151.66666666666666</ele><time>2026-04-18T10:49:31.998Z</time></trkpt><trkpt lat="44.98958308398335" lon="8.388436014308377"><ele>151.83333333333331</ele><time>2026-04-18T10:49:32.998Z</time></trkpt><trkpt lat="44.98950136705418" lon="8.388379781369082"><ele>152.0</ele><time>2026-04-18T10:49:33.998Z</time></trkpt><trkpt lat="44.98941375075113" lon="8.388309093489855"><ele>152.0</ele><time>2026-04-18T10:49:34.998Z</time></trkpt><trkpt lat="44.989329550720605" lon="8.388236251011477"><ele>152.0</ele><time>2026-04-18T10:49:35.998Z</time></trkpt><trkpt lat="44.989244519976765" lon="8.388152374679507"><ele>152.0</ele><time>2026-04-18T10:49:36.998Z</time></trkpt><trkpt lat="44.98917874801132" lon="8.388078970341402"><ele>152.0</ele><time>2026-04-18T10:49:37.998Z</time></trkpt><trkpt lat="44.989133520551654" lon="8.388011696203373"><ele>152.0</ele><time>2026-04-18T10:49:38.998Z</time></trkpt><trkpt lat="44.98909818394098" lon="8.387923910817419"><ele>152.0</ele><time>2026-04-18T10:49:39.998Z</time></trkpt><trkpt lat="44.9890619074229" lon="8.387797838198754"><ele>152.0</ele><time>2026-04-18T10:49:40.998Z</time></trkpt><trkpt lat="44.9890043756337" lon="8.387596138593151"><ele>152.0</ele><time>2026-04-18T10:49:41.998Z</time></trkpt><trkpt lat="44.98893606435087" lon="8.387402947005313"><ele>152.0</ele><time>2026-04-18T10:49:42.998Z</time></trkpt><trkpt lat="44.988887021159755" lon="8.387266560230769"><ele>152.0</ele><time>2026-04-18T10:49:43.998Z</time></trkpt><trkpt lat="44.9888291852018" lon="8.387135664769904"><ele>152.0</ele><time>2026-04-18T10:49:44.998Z</time></trkpt><trkpt lat="44.988756510942146" lon="8.386967595549335"><ele>152.0</ele><time>2026-04-18T10:49:45.998Z</time></trkpt><trkpt lat="44.98868777909862" lon="8.386795978927596"><ele>152.0</ele><time>2026-04-18T10:49:46.998Z</time></trkpt><trkpt lat="44.98864295716789" lon="8.386659705505076"><ele>152.0</ele><time>2026-04-18T10:49:47.998Z</time></trkpt><trkpt lat="44.988603900050634" lon="8.386539660874387"><ele>152.0</ele><time>2026-04-18T10:49:49Z</time></trkpt><trkpt lat="44.988549494553105" lon="8.386413081548234"><ele>152.0</ele><time>2026-04-18T10:49:50Z</time></trkpt><trkpt lat="44.988479480748616" lon="8.386297076022757"><ele>152.0</ele><time>2026-04-18T10:49:51Z</time></trkpt><trkpt lat="44.98839474895897" lon="8.386145884477331"><ele>152.0</ele><time>2026-04-18T10:49:52Z</time></trkpt><trkpt lat="44.988303047003" lon="8.385983687309615"><ele>152.25</ele><time>2026-04-18T10:49:53Z</time></trkpt><trkpt lat="44.98821833168639" lon="8.385833148375227"><ele>152.5</ele><time>2026-04-18T10:49:54Z</time></trkpt><trkpt lat="44.98816654185271" lon="8.385707013158568"><ele>152.75</ele><time>2026-04-18T10:49:55Z</time></trkpt><trkpt lat="44.9881045261149" lon="8.385544932679261"><ele>153.0</ele><time>2026-04-18T10:49:56Z</time></trkpt><trkpt lat="44.988052151758474" lon="8.385383421437616"><ele>152.4</ele><time>2026-04-18T10:49:57Z</time></trkpt><trkpt lat="44.98800591758505" lon="8.38525019780413"><ele>151.8</ele><time>2026-04-18T10:49:58Z</time></trkpt><trkpt lat="44.98794156906023" lon="8.385144211939656"><ele>151.2</ele><time>2026-04-18T10:49:59Z</time></trkpt><trkpt lat="44.987889331357835" lon="8.38503523214553"><ele>150.6</ele><time>2026-04-18T10:50:00Z</time></trkpt><trkpt lat="44.987829844125635" lon="8.384933890505149"><ele>150.0</ele><time>2026-04-18T10:50:01Z</time></trkpt><trkpt lat="44.9877599632816" lon="8.384849363935162"><ele>150.0</ele><time>2026-04-18T10:50:02Z</time></trkpt><trkpt lat="44.98768647631172" lon="8.384770741184303"><ele>150.0</ele><time>2026-04-18T10:50:03Z</time></trkpt><trkpt lat="44.98759703442566" lon="8.384697816676923"><ele>150.0</ele><time>2026-04-18T10:50:04Z</time></trkpt><trkpt lat="44.987499774991385" lon="8.384629836489777"><ele>150.0</ele><time>2026-04-18T10:50:05Z</time></trkpt><trkpt lat="44.98741893774485" lon="8.384574342978567"><ele>150.0</ele><time>2026-04-18T10:50:06Z</time></trkpt><trkpt lat="44.98734902188106" lon="8.38450315252665"><ele>150.4</ele><time>2026-04-18T10:50:07Z</time></trkpt><trkpt lat="44.98727658036203" lon="8.384448009702497"><ele>150.8</ele><time>2026-04-18T10:50:08Z</time></trkpt><trkpt lat="44.98722102195607" lon="8.384400411116857"><ele>151.2</ele><time>2026-04-18T10:50:09Z</time></trkpt><trkpt lat="44.98714151577172" lon="8.384297036374537"><ele>151.6</ele><time>2026-04-18T10:50:11Z</time></trkpt><trkpt lat="44.987051645992054" lon="8.384156341693489"><ele>152.0</ele><time>2026-04-18T10:50:13Z</time></trkpt><trkpt lat="44.98697152795891" lon="8.384048592144698"><ele>152.0</ele><time>2026-04-18T10:50:15Z</time></trkpt><trkpt lat="44.986876884549616" lon="8.384151159463503"><ele>152.0</ele><time>2026-04-18T10:50:19Z</time></trkpt><trkpt lat="44.98684040526858" lon="8.38424028977653"><ele>152.0</ele><time>2026-04-18T10:50:21Z</time></trkpt><trkpt lat="44.98681142703893" lon="8.384326974072316"><ele>152.0</ele><time>2026-04-18T10:50:23Z</time></trkpt><trkpt lat="44.98678209066956" lon="8.384409657675555"><ele>152.0</ele><time>2026-04-18T10:50:25Z</time></trkpt><trkpt lat="44.986740048787276" lon="8.384504675569868"><ele>152.0</ele><time>2026-04-18T10:50:27.999Z</time></trkpt><trkpt lat="44.986699410381284" lon="8.384573825504896"><ele>153.0</ele><time>2026-04-18T10:50:30.999Z</time></trkpt><trkpt lat="44.98662791076109" lon="8.384668286619515"><ele>154.0</ele><time>2026-04-18T10:50:35.999Z</time></trkpt><trkpt lat="44.9865702034809" lon="8.384726382943551"><ele>155.0</ele><time>2026-04-18T10:50:36.999Z</time></trkpt><trkpt lat="44.9865064397703" lon="8.384777059460118"><ele>156.0</ele><time>2026-04-18T10:50:37.999Z</time></trkpt><trkpt lat="44.98641602882679" lon="8.384839157475097"><ele>157.0</ele><time>2026-04-18T10:50:39.999Z</time></trkpt><trkpt lat="44.98635051160416" lon="8.384884704514144"><ele>158.0</ele><time>2026-04-18T10:50:41.999Z</time></trkpt><trkpt lat="44.98628772604458" lon="8.38492835252974"><ele>158.5</ele><time>2026-04-18T10:50:42.999Z</time></trkpt><trkpt lat="44.9861585821255" lon="8.38501813230578"><ele>159.0</ele><time>2026-04-18T10:50:43.999Z</time></trkpt><trkpt lat="44.986022675942486" lon="8.385113939479954"><ele>159.5</ele><time>2026-04-18T10:50:44.999Z</time></trkpt><trkpt lat="44.98594104663981" lon="8.385173565965857"><ele>160.0</ele><time>2026-04-18T10:50:45.999Z</time></trkpt><trkpt lat="44.98589169024448" lon="8.38523226977993"><ele>160.4</ele><time>2026-04-18T10:50:46.999Z</time></trkpt><trkpt lat="44.985802435118536" lon="8.385293922376437"><ele>160.8</ele><time>2026-04-18T10:50:48.999Z</time></trkpt><trkpt lat="44.985713321343844" lon="8.385337190319802"><ele>161.2</ele><time>2026-04-18T10:50:50.999Z</time></trkpt><trkpt lat="44.98561765312252" lon="8.385373592650673"><ele>161.6</ele><time>2026-04-18T10:50:53.999Z</time></trkpt><trkpt lat="44.985538251029716" lon="8.385417059890091"><ele>162.0</ele><time>2026-04-18T10:50:55.999Z</time></trkpt><trkpt lat="44.98545694363885" lon="8.385457934812766"><ele>162.0</ele><time>2026-04-18T10:50:57.999Z</time></trkpt><trkpt lat="44.9853379229155" lon="8.38548167662038"><ele>162.0</ele><time>2026-04-18T10:51:17.999Z</time></trkpt><trkpt lat="44.98526783334723" lon="8.385491235750097"><ele>162.0</ele><time>2026-04-18T10:51:18.999Z</time></trkpt><trkpt lat="44.98519168147922" lon="8.385501621684393"><ele>162.0</ele><time>2026-04-18T10:51:19.999Z</time></trkpt><trkpt lat="44.9851021391405" lon="8.385512944240595"><ele>162.0</ele><time>2026-04-18T10:51:20.999Z</time></trkpt><trkpt lat="44.98501013389757" lon="8.385520609548205"><ele>162.0</ele><time>2026-04-18T10:51:21.999Z</time></trkpt><trkpt lat="44.984920046317185" lon="8.385526229924631"><ele>161.75</ele><time>2026-04-18T10:51:22.999Z</time></trkpt><trkpt lat="44.984841355692126" lon="8.385531139271752"><ele>161.5</ele><time>2026-04-18T10:51:23.999Z</time></trkpt><trkpt lat="44.98473816477564" lon="8.38552338958495"><ele>161.25</ele><time>2026-04-18T10:51:25.999Z</time></trkpt><trkpt lat="44.98464902093974" lon="8.385489999209048"><ele>161.0</ele><time>2026-04-18T10:51:27.999Z</time></trkpt><trkpt lat="44.98456141059163" lon="8.38466653393452"><ele>159.75</ele><time>2026-04-18T10:51:28.999Z</time></trkpt><trkpt lat="44.98450338884028" lon="8.3845289544021"><ele>158.5</ele><time>2026-04-18T10:51:29.999Z</time></trkpt><trkpt lat="44.984444186509975" lon="8.384391636274419"><ele>157.25</ele><time>2026-04-18T10:51:30.999Z</time></trkpt><trkpt lat="44.9843786326298" lon="8.384254232743288"><ele>156.0</ele><time>2026-04-18T10:51:31.999Z</time></trkpt><trkpt lat="44.98430756970751" lon="8.384104483965299"><ele>156.0</ele><time>2026-04-18T10:51:32.999Z</time></trkpt><trkpt lat="44.98423131788047" lon="8.38394696794929"><ele>156.0</ele><time>2026-04-18T10:51:33.999Z</time></trkpt><trkpt lat="44.984138065099984" lon="8.3837825165124"><ele>156.0</ele><time>2026-04-18T10:51:34.998Z</time></trkpt><trkpt lat="44.98405337131452" lon="8.383637519445504"><ele>156.0</ele><time>2026-04-18T10:51:35.998Z</time></trkpt><trkpt lat="44.98397615343759" lon="8.38349682500762"><ele>155.25</ele><time>2026-04-18T10:51:36.998Z</time></trkpt><trkpt lat="44.98391349931895" lon="8.38336696321731"><ele>154.5</ele><time>2026-04-18T10:51:37.998Z</time></trkpt><trkpt lat="44.983848072163475" lon="8.38322643791721"><ele>153.75</ele><time>2026-04-18T10:51:38.998Z</time></trkpt><trkpt lat="44.98379009870484" lon="8.383084510154571"><ele>153.0</ele><time>2026-04-18T10:51:39.998Z</time></trkpt><trkpt lat="44.983740931612104" lon="8.382936446220933"><ele>153.0</ele><time>2026-04-18T10:51:40.998Z</time></trkpt><trkpt lat="44.9836920733131" lon="8.382777611082735"><ele>153.0</ele><time>2026-04-18T10:51:41.998Z</time></trkpt><trkpt lat="44.983652182399396" lon="8.3826288622908"><ele>153.0</ele><time>2026-04-18T10:51:42.998Z</time></trkpt><trkpt lat="44.983617615990745" lon="8.38248510858553"><ele>153.0</ele><time>2026-04-18T10:51:43.998Z</time></trkpt><trkpt lat="44.983588282813116" lon="8.382352764216126"><ele>153.0</ele><time>2026-04-18T10:51:44.998Z</time></trkpt><trkpt lat="44.98355747420276" lon="8.382212817543907"><ele>152.6</ele><time>2026-04-18T10:51:45.998Z</time></trkpt><trkpt lat="44.98354972662193" lon="8.382096873718439"><ele>152.20000000000002</ele><time>2026-04-18T10:51:46.998Z</time></trkpt><trkpt lat="44.98355968469252" lon="8.3819620932077"><ele>151.8</ele><time>2026-04-18T10:51:47.998Z</time></trkpt><trkpt lat="44.98357339914445" lon="8.38178705512935"><ele>151.4</ele><time>2026-04-18T10:51:48.998Z</time></trkpt><trkpt lat="44.98358701090988" lon="8.381607329273512"><ele>151.0</ele><time>2026-04-18T10:51:49.998Z</time></trkpt><trkpt lat="44.983592228565264" lon="8.381424863688645"><ele>151.5</ele><time>2026-04-18T10:51:50.998Z</time></trkpt><trkpt lat="44.98359732721935" lon="8.381235909457965"><ele>152.0</ele><time>2026-04-18T10:51:51.998Z</time></trkpt><trkpt lat="44.98359621162111" lon="8.381023523412054"><ele>152.5</ele><time>2026-04-18T10:51:52.998Z</time></trkpt><trkpt lat="44.98358449574781" lon="8.38081792765723"><ele>153.0</ele><time>2026-04-18T10:51:53.998Z</time></trkpt><trkpt lat="44.98357057470426" lon="8.380620686430198"><ele>153.33333333333334</ele><time>2026-04-18T10:51:55Z</time></trkpt><trkpt lat="44.983561944288" lon="8.380390134452265"><ele>153.66666666666669</ele><time>2026-04-18T10:51:56Z</time></trkpt><trkpt lat="44.98356694784934" lon="8.380146814961554"><ele>154.0</ele><time>2026-04-18T10:51:57Z</time></trkpt><trkpt lat="44.98357227924387" lon="8.379931560335546"><ele>154.0</ele><time>2026-04-18T10:51:58Z</time></trkpt><trkpt lat="44.983574159302414" lon="8.3797381049668"><ele>154.0</ele><time>2026-04-18T10:51:59Z</time></trkpt><trkpt lat="44.98357016589417" lon="8.379556944024078"><ele>154.0</ele><time>2026-04-18T10:52:00Z</time></trkpt><trkpt lat="44.983556010714615" lon="8.379387375516483"><ele>154.0</ele><time>2026-04-18T10:52:01Z</time></trkpt><trkpt lat="44.98352928002529" lon="8.379223681254405"><ele>154.0</ele><time>2026-04-18T10:52:02Z</time></trkpt><trkpt lat="44.98348789851644" lon="8.37905486647364"><ele>154.0</ele><time>2026-04-18T10:52:03Z</time></trkpt><trkpt lat="44.983450762551634" lon="8.378877824089171"><ele>154.0</ele><time>2026-04-18T10:52:04Z</time></trkpt><trkpt lat="44.983422515933235" lon="8.378724848298855"><ele>154.0</ele><time>2026-04-18T10:52:05Z</time></trkpt><trkpt lat="44.98339580576329" lon="8.378596763832752"><ele>154.5</ele><time>2026-04-18T10:52:06Z</time></trkpt><trkpt lat="44.98337317909997" lon="8.378469527755636"><ele>155.0</ele><time>2026-04-18T10:52:07Z</time></trkpt><trkpt lat="44.9833497692514" lon="8.378298888169581"><ele>155.5</ele><time>2026-04-18T10:52:08Z</time></trkpt><trkpt lat="44.98331764164525" lon="8.378142865116219"><ele>156.0</ele><time>2026-04-18T10:52:09Z</time></trkpt><trkpt lat="44.98328549194157" lon="8.377967662263595"><ele>156.25</ele><time>2026-04-18T10:52:10Z</time></trkpt><trkpt lat="44.98325865939106" lon="8.37779372882265"><ele>156.5</ele><time>2026-04-18T10:52:11Z</time></trkpt><trkpt lat="44.983228569384885" lon="8.377576783626553"><ele>156.75</ele><time>2026-04-18T10:52:12Z</time></trkpt><trkpt lat="44.983208347132255" lon="8.377397900671676"><ele>157.0</ele><time>2026-04-18T10:52:13Z</time></trkpt><trkpt lat="44.9831924385237" lon="8.37724525029021"><ele>157.25</ele><time>2026-04-18T10:52:14Z</time></trkpt><trkpt lat="44.98318455751583" lon="8.377072520114092"><ele>157.5</ele><time>2026-04-18T10:52:15Z</time></trkpt><trkpt lat="44.983180709433185" lon="8.37688970201181"><ele>157.75</ele><time>2026-04-18T10:52:16Z</time></trkpt><trkpt lat="44.98317856328319" lon="8.37670146803105"><ele>158.0</ele><time>2026-04-18T10:52:17Z</time></trkpt><trkpt lat="44.98318190575519" lon="8.376538096203099"><ele>158.0</ele><time>2026-04-18T10:52:18Z</time></trkpt><trkpt lat="44.983179530843" lon="8.376371889315568"><ele>158.0</ele><time>2026-04-18T10:52:19Z</time></trkpt><trkpt lat="44.98317137048655" lon="8.376233411369096"><ele>158.0</ele><time>2026-04-18T10:52:20Z</time></trkpt><trkpt lat="44.98315581671642" lon="8.37612043983415"><ele>158.0</ele><time>2026-04-18T10:52:21Z</time></trkpt><trkpt lat="44.983133085011126" lon="8.375984100300613"><ele>158.0</ele><time>2026-04-18T10:52:22Z</time></trkpt><trkpt lat="44.983126650613514" lon="8.375840617865073"><ele>157.5</ele><time>2026-04-18T10:52:23Z</time></trkpt><trkpt lat="44.98312765374547" lon="8.375722398763589"><ele>157.0</ele><time>2026-04-18T10:52:24Z</time></trkpt><trkpt lat="44.983116925413995" lon="8.375613546944434"><ele>156.5</ele><time>2026-04-18T10:52:25Z</time></trkpt><trkpt lat="44.9830923524902" lon="8.375480742304173"><ele>156.0</ele><time>2026-04-18T10:52:26Z</time></trkpt><trkpt lat="44.983066558664724" lon="8.375367161745976"><ele>155.5</ele><time>2026-04-18T10:52:27Z</time></trkpt><trkpt lat="44.98305026585613" lon="8.375260366206723"><ele>155.0</ele><time>2026-04-18T10:52:28Z</time></trkpt><trkpt lat="44.98303817249932" lon="8.37513950771339"><ele>155.0</ele><time>2026-04-18T10:52:29Z</time></trkpt><trkpt lat="44.983028766989136" lon="8.37499808538829"><ele>155.0</ele><time>2026-04-18T10:52:30Z</time></trkpt><trkpt lat="44.983027229940426" lon="8.374870164948488"><ele>155.0</ele><time>2026-04-18T10:52:31Z</time></trkpt><trkpt lat="44.98303600582186" lon="8.374734612605126"><ele>155.0</ele><time>2026-04-18T10:52:32Z</time></trkpt><trkpt lat="44.98304918217294" lon="8.374622094228675"><ele>155.0</ele><time>2026-04-18T10:52:33Z</time></trkpt><trkpt lat="44.9830671654855" lon="8.37448133157765"><ele>155.0</ele><time>2026-04-18T10:52:34Z</time></trkpt><trkpt lat="44.983092754426885" lon="8.374327758452084"><ele>155.0</ele><time>2026-04-18T10:52:35Z</time></trkpt><trkpt lat="44.983130076072385" lon="8.374191117677384"><ele>155.0</ele><time>2026-04-18T10:52:36Z</time></trkpt><trkpt lat="44.98316786059269" lon="8.374072210259285"><ele>155.0</ele><time>2026-04-18T10:52:37Z</time></trkpt><trkpt lat="44.98321298347382" lon="8.373958775308687"><ele>155.0</ele><time>2026-04-18T10:52:38Z</time></trkpt><trkpt lat="44.983251073817165" lon="8.373846235385907"><ele>155.33333333333331</ele><time>2026-04-18T10:52:39Z</time></trkpt><trkpt lat="44.98327553706585" lon="8.373736759727517"><ele>155.66666666666666</ele><time>2026-04-18T10:52:40Z</time></trkpt><trkpt lat="44.98328916712863" lon="8.373631148890773"><ele>156.0</ele><time>2026-04-18T10:52:41Z</time></trkpt><trkpt lat="44.98330539520637" lon="8.373503128187458"><ele>156.33333333333334</ele><time>2026-04-18T10:52:42Z</time></trkpt><trkpt lat="44.98332591666862" lon="8.373368837171023"><ele>156.66666666666669</ele><time>2026-04-18T10:52:43Z</time></trkpt><trkpt lat="44.9833451784857" lon="8.373244886115947"><ele>157.0</ele><time>2026-04-18T10:52:44Z</time></trkpt><trkpt lat="44.98334323595162" lon="8.37314158597444"><ele>157.0</ele><time>2026-04-18T10:52:45Z</time></trkpt><trkpt lat="44.9833327947231" lon="8.373038001300506"><ele>157.0</ele><time>2026-04-18T10:52:46Z</time></trkpt><trkpt lat="44.983307706583716" lon="8.372847225009407"><ele>157.0</ele><time>2026-04-18T10:52:48Z</time></trkpt><trkpt lat="44.983307117878404" lon="8.372739140842361"><ele>157.0</ele><time>2026-04-18T10:52:49Z</time></trkpt><trkpt lat="44.98331047391378" lon="8.372605796459776"><ele>157.0</ele><time>2026-04-18T10:52:50Z</time></trkpt><trkpt lat="44.98330445318434" lon="8.372478669585794"><ele>156.79999999999998</ele><time>2026-04-18T10:52:51Z</time></trkpt><trkpt lat="44.98329079359293" lon="8.372347771355823"><ele>156.6</ele><time>2026-04-18T10:52:51.999Z</time></trkpt><trkpt lat="44.98327427634773" lon="8.372223095869535"><ele>156.39999999999998</ele><time>2026-04-18T10:52:52.999Z</time></trkpt><trkpt lat="44.98325389832209" lon="8.37210221507173"><ele>156.2</ele><time>2026-04-18T10:52:53.999Z</time></trkpt><trkpt lat="44.98323127134197" lon="8.371989157955362"><ele>156.0</ele><time>2026-04-18T10:52:54.999Z</time></trkpt><trkpt lat="44.98319189312842" lon="8.371854131119925"><ele>156.2</ele><time>2026-04-18T10:52:55.999Z</time></trkpt><trkpt lat="44.98315218784127" lon="8.371725616684952"><ele>156.39999999999998</ele><time>2026-04-18T10:52:56.999Z</time></trkpt><trkpt lat="44.98311525144041" lon="8.37159970331128"><ele>156.6</ele><time>2026-04-18T10:52:57.999Z</time></trkpt><trkpt lat="44.98307580736305" lon="8.371473422208048"><ele>156.79999999999998</ele><time>2026-04-18T10:52:58.999Z</time></trkpt><trkpt lat="44.98304056040696" lon="8.371342421476863"><ele>157.0</ele><time>2026-04-18T10:52:59.999Z</time></trkpt><trkpt lat="44.98300328637023" lon="8.371213027729805"><ele>157.0</ele><time>2026-04-18T10:53:00.999Z</time></trkpt><trkpt lat="44.98296523579422" lon="8.371089147052938"><ele>157.0</ele><time>2026-04-18T10:53:01.999Z</time></trkpt><trkpt lat="44.98292669934696" lon="8.370967315829931"><ele>157.0</ele><time>2026-04-18T10:53:02.999Z</time></trkpt><trkpt lat="44.98289842302268" lon="8.370839809604876"><ele>157.0</ele><time>2026-04-18T10:53:03.999Z</time></trkpt><trkpt lat="44.98286448349666" lon="8.370714666047318"><ele>157.0</ele><time>2026-04-18T10:53:04.999Z</time></trkpt><trkpt lat="44.98283864848164" lon="8.370587704869529"><ele>157.16666666666669</ele><time>2026-04-18T10:53:05.999Z</time></trkpt><trkpt lat="44.98280746334022" lon="8.370450097145884"><ele>157.33333333333334</ele><time>2026-04-18T10:53:06.999Z</time></trkpt><trkpt lat="44.98277852404188" lon="8.37032489416164"><ele>157.5</ele><time>2026-04-18T10:53:07.999Z</time></trkpt><trkpt lat="44.98276301146898" lon="8.370220099888531"><ele>157.66666666666666</ele><time>2026-04-18T10:53:08.999Z</time></trkpt><trkpt lat="44.982769842249034" lon="8.370108417469254"><ele>157.83333333333331</ele><time>2026-04-18T10:53:09.999Z</time></trkpt><trkpt lat="44.982758879369" lon="8.369978750393928"><ele>158.0</ele><time>2026-04-18T10:53:10.999Z</time></trkpt><trkpt lat="44.982766529916994" lon="8.369844276251746"><ele>158.0</ele><time>2026-04-18T10:53:11.999Z</time></trkpt><trkpt lat="44.982769424274984" lon="8.369730222302417"><ele>158.0</ele><time>2026-04-18T10:53:12.999Z</time></trkpt><trkpt lat="44.98276694045479" lon="8.369621035218813"><ele>158.0</ele><time>2026-04-18T10:53:13.999Z</time></trkpt><trkpt lat="44.98277118943515" lon="8.36949180949844"><ele>158.0</ele><time>2026-04-18T10:53:14.999Z</time></trkpt><trkpt lat="44.982778120492625" lon="8.369347770349108"><ele>158.0</ele><time>2026-04-18T10:53:15.999Z</time></trkpt><trkpt lat="44.98278080122619" lon="8.369236458944195"><ele>158.0</ele><time>2026-04-18T10:53:16.999Z</time></trkpt><trkpt lat="44.982780534262744" lon="8.369127672961806"><ele>158.20000000000002</ele><time>2026-04-18T10:53:17.999Z</time></trkpt><trkpt lat="44.98278142123052" lon="8.368989454032974"><ele>158.4</ele><time>2026-04-18T10:53:18.999Z</time></trkpt><trkpt lat="44.98278532417721" lon="8.36885640408789"><ele>158.60000000000002</ele><time>2026-04-18T10:53:19.999Z</time></trkpt><trkpt lat="44.98278228302422" lon="8.368712264524568"><ele>158.8</ele><time>2026-04-18T10:53:20.999Z</time></trkpt><trkpt lat="44.98277823941401" lon="8.3685672907691"><ele>159.0</ele><time>2026-04-18T10:53:21.999Z</time></trkpt><trkpt lat="44.982769828812984" lon="8.368421435393634"><ele>159.16666666666666</ele><time>2026-04-18T10:53:22.999Z</time></trkpt><trkpt lat="44.98276187138878" lon="8.368270326952567"><ele>159.33333333333334</ele><time>2026-04-18T10:53:23.999Z</time></trkpt><trkpt lat="44.982752612544274" lon="8.368165762982661"><ele>159.5</ele><time>2026-04-18T10:53:24.999Z</time></trkpt><trkpt lat="44.98275364703998" lon="8.368061204405796"><ele>159.66666666666669</ele><time>2026-04-18T10:53:25.999Z</time></trkpt><trkpt lat="44.982753276680135" lon="8.367925154053959"><ele>159.83333333333334</ele><time>2026-04-18T10:53:26.999Z</time></trkpt><trkpt lat="44.98275794382976" lon="8.367813396677038"><ele>160.0</ele><time>2026-04-18T10:53:27.999Z</time></trkpt><trkpt lat="44.98275587424301" lon="8.36770971160283"><ele>160.0</ele><time>2026-04-18T10:53:28.999Z</time></trkpt><trkpt lat="44.98275379360095" lon="8.367589057177794"><ele>160.0</ele><time>2026-04-18T10:53:29.999Z</time></trkpt><trkpt lat="44.982751855748" lon="8.367483099847428"><ele>160.0</ele><time>2026-04-18T10:53:30.999Z</time></trkpt><trkpt lat="44.98274967611538" lon="8.367358226064034"><ele>160.0</ele><time>2026-04-18T10:53:32.999Z</time></trkpt><trkpt lat="44.98271265156565" lon="8.367278561483623"><ele>160.0</ele><time>2026-04-18T10:53:35.999Z</time></trkpt><trkpt lat="44.982649210616515" lon="8.367226183339431"><ele>160.0</ele><time>2026-04-18T10:53:53.999Z</time></trkpt><trkpt lat="44.982559974935704" lon="8.367160441659902"><ele>160.66666666666669</ele><time>2026-04-18T10:53:56.999Z</time></trkpt><trkpt lat="44.98250343098588" lon="8.367118921429464"><ele>161.33333333333334</ele><time>2026-04-18T10:53:58.999Z</time></trkpt><trkpt lat="44.98243332350578" lon="8.367071289716579"><ele>162.0</ele><time>2026-04-18T10:54:02Z</time></trkpt><trkpt lat="44.98236912759639" lon="8.367003744974513"><ele>162.66666666666666</ele><time>2026-04-18T10:54:05Z</time></trkpt><trkpt lat="44.982322999320104" lon="8.366907068926793"><ele>163.33333333333331</ele><time>2026-04-18T10:54:08Z</time></trkpt><trkpt lat="44.98230700733293" lon="8.366798467206268"><ele>164.0</ele><time>2026-04-18T10:54:11Z</time></trkpt><trkpt lat="44.98229094111965" lon="8.366671859887234"><ele>164.0</ele><time>2026-04-18T10:54:13.999Z</time></trkpt><trkpt lat="44.98228693427106" lon="8.366568857252657"><ele>164.0</ele><time>2026-04-18T10:54:15.999Z</time></trkpt><trkpt lat="44.98227966511447" lon="8.366465662134008"><ele>164.0</ele><time>2026-04-18T10:54:17.999Z</time></trkpt><trkpt lat="44.98227718241099" lon="8.366338494876508"><ele>164.0</ele><time>2026-04-18T10:54:19.999Z</time></trkpt><trkpt lat="44.9822833700564" lon="8.366246693446916"><ele>164.0</ele><time>2026-04-18T10:54:21.999Z</time></trkpt><trkpt lat="44.98227905995521" lon="8.366147723225032"><ele>164.0</ele><time>2026-04-18T10:54:23.999Z</time></trkpt><trkpt lat="44.9822745727363" lon="8.365980166357854"><ele>164.33333333333331</ele><time>2026-04-18T10:54:25.999Z</time></trkpt><trkpt lat="44.98227317322766" lon="8.36585002993814"><ele>164.66666666666666</ele><time>2026-04-18T10:54:27.999Z</time></trkpt><trkpt lat="44.98227295416103" lon="8.365729953411002"><ele>165.0</ele><time>2026-04-18T10:54:32.999Z</time></trkpt><trkpt lat="44.98227326655192" lon="8.36563782509912"><ele>165.33333333333334</ele><time>2026-04-18T10:54:34.999Z</time></trkpt><trkpt lat="44.982264809398075" lon="8.365519850200787"><ele>165.66666666666669</ele><time>2026-04-18T10:54:36.999Z</time></trkpt><trkpt lat="44.98226044324343" lon="8.365373820715227"><ele>166.0</ele><time>2026-04-18T10:54:38.999Z</time></trkpt><trkpt lat="44.98226890110093" lon="8.365251902316343"><ele>167.0</ele><time>2026-04-18T10:54:40.999Z</time></trkpt><trkpt lat="44.982266328257786" lon="8.365089874315844"><ele>168.0</ele><time>2026-04-18T10:54:42.999Z</time></trkpt><trkpt lat="44.98226270409526" lon="8.364973516253896"><ele>169.0</ele><time>2026-04-18T10:54:43.999Z</time></trkpt><trkpt lat="44.982272304978075" lon="8.364819821879363"><ele>170.0</ele><time>2026-04-18T10:54:45.999Z</time></trkpt><trkpt lat="44.982269376082954" lon="8.364632891167295"><ele>171.0</ele><time>2026-04-18T10:54:47.999Z</time></trkpt><trkpt lat="44.98227908940277" lon="8.364489794943482"><ele>171.57142857142856</ele><time>2026-04-18T10:54:49.999Z</time></trkpt><trkpt lat="44.98229895846953" lon="8.364370019969323"><ele>172.14285714285714</ele><time>2026-04-18T10:54:51.999Z</time></trkpt><trkpt lat="44.98233069192559" lon="8.364266261908782"><ele>172.71428571428572</ele><time>2026-04-18T10:54:53.999Z</time></trkpt><trkpt lat="44.98234728681673" lon="8.364179928909854"><ele>173.28571428571428</ele><time>2026-04-18T10:54:55.999Z</time></trkpt><trkpt lat="44.98236144900738" lon="8.364087695835815"><ele>173.85714285714286</ele><time>2026-04-18T10:54:57.999Z</time></trkpt><trkpt lat="44.98237857152637" lon="8.363985125383698"><ele>174.42857142857142</ele><time>2026-04-18T10:55:00.999Z</time></trkpt><trkpt lat="44.98240092979404" lon="8.363899912117663"><ele>175.0</ele><time>2026-04-18T11:04:16.999Z</time></trkpt><trkpt lat="44.982423279124326" lon="8.363768232947173"><ele>175.83333333333334</ele><time>2026-04-18T11:04:19.999Z</time></trkpt><trkpt lat="44.98243755787949" lon="8.363660840438502"><ele>176.66666666666669</ele><time>2026-04-18T11:04:21.998Z</time></trkpt><trkpt lat="44.98245823156561" lon="8.363549998748148"><ele>177.5</ele><time>2026-04-18T11:04:23.998Z</time></trkpt><trkpt lat="44.982465522628445" lon="8.3634093904446"><ele>178.33333333333334</ele><time>2026-04-18T11:04:25.999Z</time></trkpt><trkpt lat="44.982481650160665" lon="8.363299323584847"><ele>179.16666666666666</ele><time>2026-04-18T11:04:27.998Z</time></trkpt><trkpt lat="44.98249171837712" lon="8.363178674222018"><ele>180.0</ele><time>2026-04-18T11:04:30.001Z</time></trkpt><trkpt lat="44.98248261624241" lon="8.363072176074962"><ele>180.7142857142857</ele><time>2026-04-18T11:04:33.001Z</time></trkpt><trkpt lat="44.98245618361239" lon="8.362986440112811"><ele>181.42857142857144</ele><time>2026-04-18T11:04:37Z</time></trkpt><trkpt lat="44.98243067022029" lon="8.362903675184342"><ele>182.14285714285714</ele><time>2026-04-18T11:04:43Z</time></trkpt><trkpt lat="44.98239646364065" lon="8.362818365324888"><ele>182.85714285714283</ele><time>2026-04-18T11:04:50Z</time></trkpt><trkpt lat="44.98237790262403" lon="8.362708184577516"><ele>183.57142857142856</ele><time>2026-04-18T11:04:53Z</time></trkpt><trkpt lat="44.98233817906841" lon="8.362592823568948"><ele>184.28571428571428</ele><time>2026-04-18T11:04:56Z</time></trkpt><trkpt lat="44.98230022619182" lon="8.362501092098517"><ele>185.0</ele><time>2026-04-18T11:04:59Z</time></trkpt><trkpt lat="44.982232792072466" lon="8.362473675094307"><ele>185.0</ele><time>2026-04-18T11:05:02Z</time></trkpt><trkpt lat="44.982157388450815" lon="8.362504574062006"><ele>185.0</ele><time>2026-04-18T11:08:36.998Z</time></trkpt><trkpt lat="44.98209564686051" lon="8.362536635676985"><ele>185.0</ele><time>2026-04-18T11:08:38.997Z</time></trkpt><trkpt lat="44.982002205747214" lon="8.362580756239403"><ele>185.0</ele><time>2026-04-18T11:08:42.999Z</time></trkpt><trkpt lat="44.98188984928153" lon="8.362645566282637"><ele>185.0</ele><time>2026-04-18T11:08:45.999Z</time></trkpt><trkpt lat="44.98182362063803" lon="8.362695667604719"><ele>185.0</ele><time>2026-04-18T11:08:47.999Z</time></trkpt><trkpt lat="44.98172538919507" lon="8.362753044316701"><ele>187.5</ele><time>2026-04-18T11:08:49.999Z</time></trkpt><trkpt lat="44.981617527277024" lon="8.362826554580291"><ele>190.0</ele><time>2026-04-18T11:08:51.999Z</time></trkpt><trkpt lat="44.98155300842007" lon="8.362861623171847"><ele>192.5</ele><time>2026-04-18T11:08:52.999Z</time></trkpt><trkpt lat="44.981500047036484" lon="8.362919544081954"><ele>195.0</ele><time>2026-04-18T11:08:53.999Z</time></trkpt><trkpt lat="44.98142962984807" lon="8.362955874369707"><ele>197.50000000000003</ele><time>2026-04-18T11:08:55.999Z</time></trkpt><trkpt lat="44.98135019098454" lon="8.362969933369937"><ele>200.0</ele><time>2026-04-18T11:08:59.999Z</time></trkpt><trkpt lat="44.9812713533499" lon="8.36300982789884"><ele>199.25</ele><time>2026-04-18T11:10:03.998Z</time></trkpt><trkpt lat="44.98117545418564" lon="8.363060066396773"><ele>198.5</ele><time>2026-04-18T11:10:09.998Z</time></trkpt><trkpt lat="44.98104856260828" lon="8.363154077443141"><ele>197.75</ele><time>2026-04-18T11:10:10.998Z</time></trkpt><trkpt lat="44.98094621435407" lon="8.363206994005356"><ele>197.0</ele><time>2026-04-18T11:10:11.998Z</time></trkpt><trkpt lat="44.980858109400856" lon="8.363263074711869"><ele>197.16666666666669</ele><time>2026-04-18T11:10:12.998Z</time></trkpt><trkpt lat="44.98076944286556" lon="8.363288819311789"><ele>197.33333333333334</ele><time>2026-04-18T11:10:13.998Z</time></trkpt><trkpt lat="44.980698594986116" lon="8.363352545054095"><ele>197.5</ele><time>2026-04-18T11:10:14.998Z</time></trkpt><trkpt lat="44.98061991521425" lon="8.363396537803776"><ele>197.66666666666669</ele><time>2026-04-18T11:10:15.998Z</time></trkpt><trkpt lat="44.98054152717451" lon="8.363440772624113"><ele>197.83333333333334</ele><time>2026-04-18T11:10:16.998Z</time></trkpt><trkpt lat="44.98047132854691" lon="8.363477040315624"><ele>198.0</ele><time>2026-04-18T11:10:17.998Z</time></trkpt><trkpt lat="44.98039992642157" lon="8.363488897546848"><ele>198.0</ele><time>2026-04-18T11:10:18.998Z</time></trkpt><trkpt lat="44.98033397563819" lon="8.363546241465759"><ele>198.0</ele><time>2026-04-18T11:10:19.998Z</time></trkpt><trkpt lat="44.980258212146744" lon="8.363582059353686"><ele>198.0</ele><time>2026-04-18T11:10:20.998Z</time></trkpt><trkpt lat="44.9801841780441" lon="8.36359006918809"><ele>198.0</ele><time>2026-04-18T11:10:21.998Z</time></trkpt><trkpt lat="44.98012282313564" lon="8.363610743990264"><ele>198.0</ele><time>2026-04-18T11:10:22.998Z</time></trkpt><trkpt lat="44.980030225092506" lon="8.363579279750008"><ele>198.0</ele><time>2026-04-18T11:10:24.998Z</time></trkpt><trkpt lat="44.97996011529046" lon="8.363482311900674"><ele>197.60000000000002</ele><time>2026-04-18T11:10:26.998Z</time></trkpt><trkpt lat="44.97990789708409" lon="8.36337034947682"><ele>197.20000000000002</ele><time>2026-04-18T11:10:28.998Z</time></trkpt><trkpt lat="44.97987015118611" lon="8.363265506445769"><ele>196.8</ele><time>2026-04-18T11:10:30.998Z</time></trkpt><trkpt lat="44.97979330581616" lon="8.363113490287205"><ele>196.4</ele><time>2026-04-18T11:10:32.998Z</time></trkpt><trkpt lat="44.97975158786666" lon="8.363001006861245"><ele>196.0</ele><time>2026-04-18T11:10:33.998Z</time></trkpt><trkpt lat="44.979718631344355" lon="8.362919801032815"><ele>198.0</ele><time>2026-04-18T11:10:34.998Z</time></trkpt><trkpt lat="44.979643843651424" lon="8.362820272086962"><ele>200.0</ele><time>2026-04-18T11:10:36.998Z</time></trkpt><trkpt lat="44.97955192984087" lon="8.362745279108914"><ele>202.0</ele><time>2026-04-18T11:10:38.998Z</time></trkpt><trkpt lat="44.97944057980973" lon="8.36266287196388"><ele>204.0</ele><time>2026-04-18T11:10:40.998Z</time></trkpt><trkpt lat="44.979369169151575" lon="8.362648343193413"><ele>206.0</ele><time>2026-04-18T11:10:41.998Z</time></trkpt><trkpt lat="44.979309152485335" lon="8.362595272958549"><ele>206.00000000000003</ele><time>2026-04-18T11:10:42.998Z</time></trkpt><trkpt lat="44.979217130418455" lon="8.362540344617125"><ele>206.0</ele><time>2026-04-18T11:10:44.998Z</time></trkpt><trkpt lat="44.97915476060394" lon="8.362500252604322"><ele>206.0</ele><time>2026-04-18T11:10:46.999Z</time></trkpt><trkpt lat="44.979078500921474" lon="8.362449611018926"><ele>206.0</ele><time>2026-04-18T11:10:48.999Z</time></trkpt><trkpt lat="44.97900234250367" lon="8.362388310956131"><ele>206.00000000000003</ele><time>2026-04-18T11:10:50.999Z</time></trkpt><trkpt lat="44.978929561787695" lon="8.362317281634745"><ele>206.0</ele><time>2026-04-18T11:10:52.999Z</time></trkpt><trkpt lat="44.97886368249274" lon="8.362238473139689"><ele>209.16666666666669</ele><time>2026-04-18T11:10:54.999Z</time></trkpt><trkpt lat="44.97879958776544" lon="8.362150310160294"><ele>212.33333333333334</ele><time>2026-04-18T11:10:56.999Z</time></trkpt><trkpt lat="44.97874177565227" lon="8.362073216889014"><ele>215.5</ele><time>2026-04-18T11:10:58.999Z</time></trkpt><trkpt lat="44.978687101954506" lon="8.362000077761088"><ele>218.66666666666669</ele><time>2026-04-18T11:11:00.999Z</time></trkpt><trkpt lat="44.97863070909654" lon="8.361923713130302"><ele>221.83333333333334</ele><time>2026-04-18T11:11:02.999Z</time></trkpt><trkpt lat="44.978572680738544" lon="8.361845133777088"><ele>225.0</ele><time>2026-04-18T11:11:04.999Z</time></trkpt><trkpt lat="44.97850785598429" lon="8.361757350208421"><ele>225.0</ele><time>2026-04-18T11:11:06.999Z</time></trkpt><trkpt lat="44.97852495961151" lon="8.36163201295454"><ele>225.0</ele><time>2026-04-18T11:11:31.999Z</time></trkpt><trkpt lat="44.978581246704614" lon="8.361562288947491"><ele>225.0</ele><time>2026-04-18T11:11:33.999Z</time></trkpt><trkpt lat="44.97866473730101" lon="8.361476279814765"><ele>225.0</ele><time>2026-04-18T11:11:35.999Z</time></trkpt><trkpt lat="44.9787202478062" lon="8.361423893441541"><ele>225.0</ele><time>2026-04-18T11:11:36.999Z</time></trkpt><trkpt lat="44.978782028138816" lon="8.361400122132853"><ele>225.0</ele><time>2026-04-18T11:11:37.999Z</time></trkpt><trkpt lat="44.97887600626265" lon="8.361365855822232"><ele>225.0</ele><time>2026-04-18T11:11:38.999Z</time></trkpt><trkpt lat="44.979026618141454" lon="8.361302186426506"><ele>225.0</ele><time>2026-04-18T11:11:39.999Z</time></trkpt><trkpt lat="44.979170270383975" lon="8.361260346550216"><ele>225.0</ele><time>2026-04-18T11:11:40.999Z</time></trkpt><trkpt lat="44.97924806859284" lon="8.361232266125716"><ele>225.0</ele><time>2026-04-18T11:11:41.999Z</time></trkpt><trkpt lat="44.979307587364694" lon="8.361190466056472"><ele>225.0</ele><time>2026-04-18T11:11:42.999Z</time></trkpt><trkpt lat="44.97939551676598" lon="8.36115411447234"><ele>225.0</ele><time>2026-04-18T11:11:43.999Z</time></trkpt><trkpt lat="44.97948866380352" lon="8.36112281732952"><ele>225.0</ele><time>2026-04-18T11:11:45.999Z</time></trkpt><trkpt lat="44.97953387969504" lon="8.361254601207433"><ele>225.0</ele><time>2026-04-18T11:12:05.999Z</time></trkpt><trkpt lat="44.97959507842315" lon="8.36129110054539"><ele>225.0</ele><time>2026-04-18T11:12:07.999Z</time></trkpt><trkpt lat="44.979656345879945" lon="8.361343563147152"><ele>225.0</ele><time>2026-04-18T11:12:09.999Z</time></trkpt><trkpt lat="44.979717534433604" lon="8.361397281756743"><ele>225.0</ele><time>2026-04-18T11:12:11.999Z</time></trkpt><trkpt lat="44.979785229414446" lon="8.361429403463692"><ele>225.0</ele><time>2026-04-18T11:12:14.998Z</time></trkpt><trkpt lat="44.979872286622815" lon="8.36146170189558"><ele>225.0</ele><time>2026-04-18T11:12:19.998Z</time></trkpt><trkpt lat="44.97997725939885" lon="8.361436460073431"><ele>225.0</ele><time>2026-04-18T11:12:21.998Z</time></trkpt><trkpt lat="44.98009029511558" lon="8.361410606049992"><ele>225.0</ele><time>2026-04-18T11:12:23.998Z</time></trkpt><trkpt lat="44.98017241485725" lon="8.36137587086016"><ele>226.6</ele><time>2026-04-18T11:12:25.998Z</time></trkpt><trkpt lat="44.980253028299586" lon="8.361303530586529"><ele>228.2</ele><time>2026-04-18T11:12:27.998Z</time></trkpt><trkpt lat="44.98034939536836" lon="8.361262188238484"><ele>229.8</ele><time>2026-04-18T11:12:29.998Z</time></trkpt><trkpt lat="44.98041315623446" lon="8.361225611235652"><ele>231.4</ele><time>2026-04-18T11:12:30.998Z</time></trkpt><trkpt lat="44.98050485086602" lon="8.361179957612604"><ele>233.0</ele><time>2026-04-18T11:12:31.998Z</time></trkpt><trkpt lat="44.98059298336943" lon="8.361125991311228"><ele>233.00000000000003</ele><time>2026-04-18T11:12:32.998Z</time></trkpt><trkpt lat="44.98066064554293" lon="8.36107428388913"><ele>233.0</ele><time>2026-04-18T11:12:33.998Z</time></trkpt><trkpt lat="44.98076130737332" lon="8.360978217803575"><ele>233.0</ele><time>2026-04-18T11:12:35.998Z</time></trkpt><trkpt lat="44.98081530978415" lon="8.360919025166144"><ele>233.0</ele><time>2026-04-18T11:12:36.998Z</time></trkpt><trkpt lat="44.98087294802253" lon="8.360850599460264"><ele>233.00000000000003</ele><time>2026-04-18T11:12:37.998Z</time></trkpt><trkpt lat="44.98091908959186" lon="8.360760532600615"><ele>233.0</ele><time>2026-04-18T11:12:38.998Z</time></trkpt><trkpt lat="44.98097465580863" lon="8.360692871211238"><ele>230.2</ele><time>2026-04-18T11:12:39.998Z</time></trkpt><trkpt lat="44.98101680851279" lon="8.360620894247562"><ele>227.4</ele><time>2026-04-18T11:12:40.998Z</time></trkpt><trkpt lat="44.98107418075126" lon="8.360495197298835"><ele>224.59999999999997</ele><time>2026-04-18T11:12:42.998Z</time></trkpt><trkpt lat="44.98110173624604" lon="8.360388937914882"><ele>221.79999999999998</ele><time>2026-04-18T11:12:43.998Z</time></trkpt><trkpt lat="44.98114029597931" lon="8.36025141568614"><ele>219.0</ele><time>2026-04-18T11:12:44.998Z</time></trkpt><trkpt lat="44.981192585651605" lon="8.360066794032559"><ele>219.0</ele><time>2026-04-18T11:12:45.998Z</time></trkpt><trkpt lat="44.981242227777855" lon="8.359901765226029"><ele>218.99999999999997</ele><time>2026-04-18T11:12:46.998Z</time></trkpt><trkpt lat="44.98128784208229" lon="8.359783999635763"><ele>218.99999999999997</ele><time>2026-04-18T11:12:47.998Z</time></trkpt><trkpt lat="44.98133204954733" lon="8.359692663276363"><ele>219.0</ele><time>2026-04-18T11:12:48.998Z</time></trkpt><trkpt lat="44.981378816356894" lon="8.359611269840064"><ele>219.0</ele><time>2026-04-18T11:12:49.998Z</time></trkpt><trkpt lat="44.98144951320527" lon="8.359544444462086"><ele>216.5</ele><time>2026-04-18T11:12:50.998Z</time></trkpt><trkpt lat="44.981546708300485" lon="8.359423482331495"><ele>214.0</ele><time>2026-04-18T11:12:51.998Z</time></trkpt><trkpt lat="44.98164687042864" lon="8.359282674335969"><ele>211.5</ele><time>2026-04-18T11:12:52.999Z</time></trkpt><trkpt lat="44.98172892521241" lon="8.359162382514624"><ele>209.0</ele><time>2026-04-18T11:12:53.999Z</time></trkpt><trkpt lat="44.981784121237915" lon="8.35903655181983"><ele>209.0</ele><time>2026-04-18T11:12:54.999Z</time></trkpt><trkpt lat="44.98185330498032" lon="8.358928111680239"><ele>209.0</ele><time>2026-04-18T11:12:55.999Z</time></trkpt><trkpt lat="44.98191612646059" lon="8.35880798257959"><ele>209.0</ele><time>2026-04-18T11:12:56.999Z</time></trkpt><trkpt lat="44.98196573793897" lon="8.358684334426"><ele>209.0</ele><time>2026-04-18T11:12:57.999Z</time></trkpt><trkpt lat="44.98199136837082" lon="8.358572827968642"><ele>209.0</ele><time>2026-04-18T11:12:58.999Z</time></trkpt><trkpt lat="44.98200037264202" lon="8.358459410517824"><ele>209.00000000000003</ele><time>2026-04-18T11:12:59.999Z</time></trkpt><trkpt lat="44.98199283684828" lon="8.358337827152937"><ele>209.0</ele><time>2026-04-18T11:13:00.999Z</time></trkpt><trkpt lat="44.98197305686038" lon="8.358237620578882"><ele>209.0</ele><time>2026-04-18T11:13:01.999Z</time></trkpt><trkpt lat="44.9819376617916" lon="8.358156868261025"><ele>209.0</ele><time>2026-04-18T11:13:02.999Z</time></trkpt><trkpt lat="44.98188668165242" lon="8.358090244067311"><ele>209.00000000000003</ele><time>2026-04-18T11:13:03.999Z</time></trkpt><trkpt lat="44.98181360016353" lon="8.358043292397973"><ele>209.0</ele><time>2026-04-18T11:13:04.999Z</time></trkpt><trkpt lat="44.981729226022466" lon="8.358019132570757"><ele>210.83333333333334</ele><time>2026-04-18T11:13:05.999Z</time></trkpt><trkpt lat="44.98165166264623" lon="8.358024516064926"><ele>212.66666666666669</ele><time>2026-04-18T11:13:06.999Z</time></trkpt><trkpt lat="44.981581975450254" lon="8.35801139187178"><ele>214.5</ele><time>2026-04-18T11:13:07.999Z</time></trkpt><trkpt lat="44.98151263845354" lon="8.358011744991462"><ele>216.33333333333331</ele><time>2026-04-18T11:13:08.999Z</time></trkpt><trkpt lat="44.98143543589794" lon="8.35796684185334"><ele>218.16666666666666</ele><time>2026-04-18T11:13:10.999Z</time></trkpt><trkpt lat="44.98152937827902" lon="8.35784129430886"><ele>220.0</ele><time>2026-04-18T11:13:12.999Z</time></trkpt><trkpt lat="44.98158065995886" lon="8.357731731476965"><ele>220.0</ele><time>2026-04-18T11:13:14.999Z</time></trkpt><trkpt lat="44.98157662880268" lon="8.357564101636854"><ele>220.0</ele><time>2026-04-18T11:13:17.999Z</time></trkpt><trkpt lat="44.98143315237486" lon="8.357824005923266"><ele>220.0</ele><time>2026-04-18T11:13:19.999Z</time></trkpt><trkpt lat="44.98132449224173" lon="8.357872530709953"><ele>220.0</ele><time>2026-04-18T11:13:21.999Z</time></trkpt><trkpt lat="44.98121529785458" lon="8.357901362093504"><ele>220.0</ele><time>2026-04-18T11:13:23.999Z</time></trkpt><trkpt lat="44.98107653491595" lon="8.35791752257379"><ele>220.0</ele><time>2026-04-18T11:13:25.999Z</time></trkpt><trkpt lat="44.9810037314213" lon="8.357932494261902"><ele>220.0</ele><time>2026-04-18T11:13:26.999Z</time></trkpt><trkpt lat="44.98092477336238" lon="8.357943597477806"><ele>220.0</ele><time>2026-04-18T11:13:27.999Z</time></trkpt><trkpt lat="44.980858145965236" lon="8.357960854549047"><ele>219.83333333333331</ele><time>2026-04-18T11:13:28.999Z</time></trkpt><trkpt lat="44.9807842022915" lon="8.358000971734652"><ele>219.66666666666666</ele><time>2026-04-18T11:13:29.999Z</time></trkpt><trkpt lat="44.98071618774776" lon="8.358050444710523"><ele>219.5</ele><time>2026-04-18T11:13:30.999Z</time></trkpt><trkpt lat="44.98065335640422" lon="8.358107792424333"><ele>219.33333333333331</ele><time>2026-04-18T11:13:31.999Z</time></trkpt><trkpt lat="44.98059677679382" lon="8.358165377790556"><ele>219.16666666666666</ele><time>2026-04-18T11:13:32.999Z</time></trkpt><trkpt lat="44.98054049080286" lon="8.358225577220674"><ele>219.0</ele><time>2026-04-18T11:13:33.999Z</time></trkpt><trkpt lat="44.98038444954465" lon="8.358303288223924"><ele>219.0</ele><time>2026-04-18T11:13:36.999Z</time></trkpt><trkpt lat="44.9802788481117" lon="8.358335286341239"><ele>218.99999999999997</ele><time>2026-04-18T11:13:38.999Z</time></trkpt><trkpt lat="44.98018662176249" lon="8.358236031972112"><ele>218.99999999999997</ele><time>2026-04-18T11:13:40.999Z</time></trkpt><trkpt lat="44.98011728535577" lon="8.358193946829081"><ele>219.0</ele><time>2026-04-18T11:13:41.999Z</time></trkpt><trkpt lat="44.98004690294668" lon="8.35814910568137"><ele>219.0</ele><time>2026-04-18T11:13:42.999Z</time></trkpt><trkpt lat="44.979983727259224" lon="8.358096908912058"><ele>215.5</ele><time>2026-04-18T11:13:43.999Z</time></trkpt><trkpt lat="44.97995361260802" lon="8.358008223927916"><ele>212.0</ele><time>2026-04-18T11:13:44.999Z</time></trkpt><trkpt lat="44.979879966146505" lon="8.357916089799517"><ele>208.5</ele><time>2026-04-18T11:13:45.999Z</time></trkpt><trkpt lat="44.97980767298417" lon="8.357856332594054"><ele>205.0</ele><time>2026-04-18T11:13:46.999Z</time></trkpt><trkpt lat="44.97975292961944" lon="8.357788712174184"><ele>201.5</ele><time>2026-04-18T11:13:47.999Z</time></trkpt><trkpt lat="44.979696145540615" lon="8.35772333444784"><ele>198.0</ele><time>2026-04-18T11:13:48.999Z</time></trkpt><trkpt lat="44.97964205519666" lon="8.357660999786534"><ele>198.0</ele><time>2026-04-18T11:13:49.999Z</time></trkpt><trkpt lat="44.979594034376866" lon="8.357597448187105"><ele>198.0</ele><time>2026-04-18T11:13:50.999Z</time></trkpt><trkpt lat="44.97965095209225" lon="8.357408690429931"><ele>198.0</ele><time>2026-04-18T11:13:55.999Z</time></trkpt><trkpt lat="44.97974181105959" lon="8.357289620962916"><ele>198.0</ele><time>2026-04-18T11:13:57.999Z</time></trkpt><trkpt lat="44.979786723255486" lon="8.357216705816159"><ele>198.0</ele><time>2026-04-18T11:13:58.999Z</time></trkpt><trkpt lat="44.97983504890531" lon="8.357137239191005"><ele>198.5</ele><time>2026-04-18T11:13:59.999Z</time></trkpt><trkpt lat="44.97988246908477" lon="8.35705323843243"><ele>199.0</ele><time>2026-04-18T11:14:00.999Z</time></trkpt><trkpt lat="44.97992010004143" lon="8.356976308599076"><ele>199.5</ele><time>2026-04-18T11:14:01.999Z</time></trkpt><trkpt lat="44.97998461900702" lon="8.356871999773023"><ele>200.0</ele><time>2026-04-18T11:14:03.999Z</time></trkpt><trkpt lat="44.9800522913013" lon="8.356773595422451"><ele>200.5</ele><time>2026-04-18T11:14:05.999Z</time></trkpt><trkpt lat="44.98010112736535" lon="8.356672435923484"><ele>201.0</ele><time>2026-04-18T11:14:07.999Z</time></trkpt><trkpt lat="44.980097235028246" lon="8.356575535700028"><ele>201.0</ele><time>2026-04-18T11:14:09.999Z</time></trkpt><trkpt lat="44.9800489879743" lon="8.35646787445462"><ele>201.0</ele><time>2026-04-18T11:14:11.999Z</time></trkpt><trkpt lat="44.97997883651213" lon="8.35635943564994"><ele>201.0</ele><time>2026-04-18T11:14:13.999Z</time></trkpt><trkpt lat="44.97991660995044" lon="8.356220983245647"><ele>201.0</ele><time>2026-04-18T11:14:15.999Z</time></trkpt><trkpt lat="44.97987236257496" lon="8.356141898495965"><ele>201.0</ele><time>2026-04-18T11:14:16.999Z</time></trkpt><trkpt lat="44.97982346127229" lon="8.356045276181073"><ele>199.0</ele><time>2026-04-18T11:14:17.999Z</time></trkpt><trkpt lat="44.97979003930534" lon="8.355946163967571"><ele>197.0</ele><time>2026-04-18T11:14:18.999Z</time></trkpt><trkpt lat="44.97977846181577" lon="8.355831738986584"><ele>195.0</ele><time>2026-04-18T11:14:19.999Z</time></trkpt><trkpt lat="44.979832275338254" lon="8.35570155384788"><ele>193.0</ele><time>2026-04-18T11:14:20.999Z</time></trkpt><trkpt lat="44.979912746884764" lon="8.35559480268656"><ele>191.0</ele><time>2026-04-18T11:14:21.999Z</time></trkpt><trkpt lat="44.97999870036039" lon="8.355494762884758"><ele>191.60000000000002</ele><time>2026-04-18T11:14:22.999Z</time></trkpt><trkpt lat="44.98008417526722" lon="8.355390361723577"><ele>192.2</ele><time>2026-04-18T11:14:23.999Z</time></trkpt><trkpt lat="44.980167009896974" lon="8.3552801693015"><ele>192.8</ele><time>2026-04-18T11:14:24.999Z</time></trkpt><trkpt lat="44.98023838257197" lon="8.355182788156396"><ele>193.39999999999998</ele><time>2026-04-18T11:14:25.999Z</time></trkpt><trkpt lat="44.980296284484005" lon="8.355103310813389"><ele>194.0</ele><time>2026-04-18T11:14:26.999Z</time></trkpt><trkpt lat="44.98038484177613" lon="8.354992472752496"><ele>194.0</ele><time>2026-04-18T11:14:28.999Z</time></trkpt><trkpt lat="44.98044197471724" lon="8.354901064319472"><ele>194.0</ele><time>2026-04-18T11:14:30.999Z</time></trkpt><trkpt lat="44.98049127833895" lon="8.354830013392288"><ele>194.0</ele><time>2026-04-18T11:14:32.998Z</time></trkpt><trkpt lat="44.980555174135866" lon="8.354752093120688"><ele>194.0</ele><time>2026-04-18T11:14:35.998Z</time></trkpt><trkpt lat="44.98060899594988" lon="8.354693752574525"><ele>194.0</ele><time>2026-04-18T11:14:37.998Z</time></trkpt><trkpt lat="44.98065892677254" lon="8.354639096854946"><ele>194.0</ele><time>2026-04-18T11:14:39.998Z</time></trkpt><trkpt lat="44.980720316862154" lon="8.354605846600888"><ele>194.0</ele><time>2026-04-18T11:14:41.998Z</time></trkpt><trkpt lat="44.98080396316628" lon="8.354613983938695"><ele>194.16666666666669</ele><time>2026-04-18T11:14:43.998Z</time></trkpt><trkpt lat="44.98089629543707" lon="8.354629379270648"><ele>194.33333333333334</ele><time>2026-04-18T11:14:45.998Z</time></trkpt><trkpt lat="44.981007477943315" lon="8.35466052814092"><ele>194.5</ele><time>2026-04-18T11:14:47.998Z</time></trkpt><trkpt lat="44.981070025476896" lon="8.354673385726866"><ele>194.66666666666669</ele><time>2026-04-18T11:14:48.998Z</time></trkpt><trkpt lat="44.981135399214864" lon="8.354691644428557"><ele>194.83333333333334</ele><time>2026-04-18T11:14:49.998Z</time></trkpt><trkpt lat="44.98120341961278" lon="8.354700960351755"><ele>195.0</ele><time>2026-04-18T11:14:50.998Z</time></trkpt><trkpt lat="44.98126590078705" lon="8.354666238502023"><ele>195.0</ele><time>2026-04-18T11:14:51.998Z</time></trkpt><trkpt lat="44.981316045198504" lon="8.354593898219129"><ele>195.0</ele><time>2026-04-18T11:14:52.998Z</time></trkpt><trkpt lat="44.98135552196659" lon="8.354507562559801"><ele>195.0</ele><time>2026-04-18T11:14:53.998Z</time></trkpt><trkpt lat="44.98138842232359" lon="8.354411009791965"><ele>195.0</ele><time>2026-04-18T11:14:54.998Z</time></trkpt><trkpt lat="44.981423354315766" lon="8.354305684256186"><ele>195.0</ele><time>2026-04-18T11:14:55.998Z</time></trkpt><trkpt lat="44.98146877891504" lon="8.354186959089498"><ele>195.0</ele><time>2026-04-18T11:14:56.998Z</time></trkpt><trkpt lat="44.98153333873063" lon="8.354046451411154"><ele>195.0</ele><time>2026-04-18T11:14:57.998Z</time></trkpt><trkpt lat="44.98160599020385" lon="8.35389802470331"><ele>195.0</ele><time>2026-04-18T11:14:58.999Z</time></trkpt><trkpt lat="44.98167901142367" lon="8.35375475353983"><ele>195.0</ele><time>2026-04-18T11:14:59.999Z</time></trkpt><trkpt lat="44.98174755460173" lon="8.353635296136922"><ele>195.0</ele><time>2026-04-18T11:15:00.999Z</time></trkpt><trkpt lat="44.98181190054042" lon="8.353532982542767"><ele>195.6</ele><time>2026-04-18T11:15:01.999Z</time></trkpt><trkpt lat="44.981880917974756" lon="8.35342821050914"><ele>196.2</ele><time>2026-04-18T11:15:02.999Z</time></trkpt><trkpt lat="44.98195474061264" lon="8.353318076408785"><ele>196.8</ele><time>2026-04-18T11:15:03.999Z</time></trkpt><trkpt lat="44.98202796456325" lon="8.353201739066844"><ele>197.4</ele><time>2026-04-18T11:15:04.999Z</time></trkpt><trkpt lat="44.98210147994843" lon="8.353077997107006"><ele>198.0</ele><time>2026-04-18T11:15:05.999Z</time></trkpt><trkpt lat="44.98215727530277" lon="8.352951731061761"><ele>198.0</ele><time>2026-04-18T11:15:06.999Z</time></trkpt><trkpt lat="44.982197663228725" lon="8.352840383656643"><ele>198.0</ele><time>2026-04-18T11:15:07.999Z</time></trkpt><trkpt lat="44.98226832105652" lon="8.352775729391006"><ele>198.0</ele><time>2026-04-18T11:15:08.999Z</time></trkpt><trkpt lat="44.98236387931352" lon="8.352785218000086"><ele>198.0</ele><time>2026-04-18T11:15:09.999Z</time></trkpt><trkpt lat="44.982441611216814" lon="8.352862724892068"><ele>198.0</ele><time>2026-04-18T11:15:10.999Z</time></trkpt><trkpt lat="44.982502124588514" lon="8.352992381641062"><ele>199.25</ele><time>2026-04-18T11:15:11.999Z</time></trkpt><trkpt lat="44.982579972433626" lon="8.35311884694466"><ele>200.5</ele><time>2026-04-18T11:15:12.999Z</time></trkpt><trkpt lat="44.982664627145994" lon="8.353236510661429"><ele>201.75</ele><time>2026-04-18T11:15:13.999Z</time></trkpt><trkpt lat="44.98275726426807" lon="8.353372696280054"><ele>203.0</ele><time>2026-04-18T11:15:14.999Z</time></trkpt><trkpt lat="44.982861877692606" lon="8.353523585748382"><ele>203.0</ele><time>2026-04-18T11:15:15.999Z</time></trkpt><trkpt lat="44.982971751712185" lon="8.353685087485443"><ele>203.0</ele><time>2026-04-18T11:15:16.999Z</time></trkpt><trkpt lat="44.98308122469419" lon="8.353847288349133"><ele>203.0</ele><time>2026-04-18T11:15:17.999Z</time></trkpt><trkpt lat="44.98318467698865" lon="8.354009175991987"><ele>203.0</ele><time>2026-04-18T11:15:18.999Z</time></trkpt><trkpt lat="44.98328016575995" lon="8.354149536206405"><ele>203.0</ele><time>2026-04-18T11:15:19.999Z</time></trkpt><trkpt lat="44.98337099917671" lon="8.354269552178303"><ele>203.0</ele><time>2026-04-18T11:15:20.999Z</time></trkpt><trkpt lat="44.983464603411235" lon="8.354376866478985"><ele>203.0</ele><time>2026-04-18T11:15:21.999Z</time></trkpt><trkpt lat="44.983567219728975" lon="8.354486987232058"><ele>203.0</ele><time>2026-04-18T11:15:22.999Z</time></trkpt><trkpt lat="44.98366605926449" lon="8.354587684445304"><ele>203.0</ele><time>2026-04-18T11:15:23.999Z</time></trkpt><trkpt lat="44.983759696675165" lon="8.354688517284115"><ele>203.0</ele><time>2026-04-18T11:15:24.999Z</time></trkpt><trkpt lat="44.983851965928594" lon="8.35479164985366"><ele>203.0</ele><time>2026-04-18T11:15:25.999Z</time></trkpt><trkpt lat="44.98394601735071" lon="8.35488804025758"><ele>201.60000000000002</ele><time>2026-04-18T11:15:26.999Z</time></trkpt><trkpt lat="44.98404085125023" lon="8.354974583046014"><ele>200.20000000000002</ele><time>2026-04-18T11:15:27.998Z</time></trkpt><trkpt lat="44.98412203796191" lon="8.355075414357714"><ele>198.8</ele><time>2026-04-18T11:15:28.998Z</time></trkpt><trkpt lat="44.98415785600293" lon="8.355219456605592"><ele>197.4</ele><time>2026-04-18T11:15:29.998Z</time></trkpt><trkpt lat="44.98414624998947" lon="8.355378821839722"><ele>196.0</ele><time>2026-04-18T11:15:30.998Z</time></trkpt><trkpt lat="44.98408452095071" lon="8.355519620874269"><ele>194.25</ele><time>2026-04-18T11:15:31.998Z</time></trkpt><trkpt lat="44.98398137155455" lon="8.355645379299066"><ele>192.5</ele><time>2026-04-18T11:15:32.998Z</time></trkpt><trkpt lat="44.98386471105904" lon="8.355696266069653"><ele>190.75</ele><time>2026-04-18T11:15:33.998Z</time></trkpt><trkpt lat="44.98374774849696" lon="8.35576293022345"><ele>189.0</ele><time>2026-04-18T11:15:34.998Z</time></trkpt><trkpt lat="44.983634644701745" lon="8.355802155742976"><ele>189.0</ele><time>2026-04-18T11:15:35.998Z</time></trkpt><trkpt lat="44.983535581207256" lon="8.355865890687028"><ele>189.0</ele><time>2026-04-18T11:15:36.998Z</time></trkpt><trkpt lat="44.983450452437296" lon="8.355968606314942"><ele>189.0</ele><time>2026-04-18T11:15:37.998Z</time></trkpt><trkpt lat="44.98341674222837" lon="8.356126463107268"><ele>189.0</ele><time>2026-04-18T11:15:38.998Z</time></trkpt><trkpt lat="44.983445972445544" lon="8.356267506024732"><ele>189.0</ele><time>2026-04-18T11:15:39.998Z</time></trkpt><trkpt lat="44.983494749446315" lon="8.35636347309634"><ele>189.0</ele><time>2026-04-18T11:15:40.998Z</time></trkpt><trkpt lat="44.98358415211842" lon="8.356412274419279"><ele>189.0</ele><time>2026-04-18T11:15:41.998Z</time></trkpt><trkpt lat="44.983715399166" lon="8.35640084424463"><ele>189.0</ele><time>2026-04-18T11:15:42.998Z</time></trkpt><trkpt lat="44.9838372662684" lon="8.356318383784139"><ele>189.0</ele><time>2026-04-18T11:15:43.998Z</time></trkpt><trkpt lat="44.9839642456278" lon="8.356224690643193"><ele>189.0</ele><time>2026-04-18T11:15:44.998Z</time></trkpt><trkpt lat="44.98409723984713" lon="8.356156295910068"><ele>189.0</ele><time>2026-04-18T11:15:45.998Z</time></trkpt><trkpt lat="44.98421387137699" lon="8.356108305209366"><ele>189.0</ele><time>2026-04-18T11:15:46.998Z</time></trkpt><trkpt lat="44.984322100982105" lon="8.35607644558501"><ele>189.0</ele><time>2026-04-18T11:15:47.998Z</time></trkpt><trkpt lat="44.984427061604194" lon="8.356058857364614"><ele>186.5</ele><time>2026-04-18T11:15:48.998Z</time></trkpt><trkpt lat="44.98452959464143" lon="8.356014214328457"><ele>184.0</ele><time>2026-04-18T11:15:49.998Z</time></trkpt><trkpt lat="44.98462165584358" lon="8.355896818015903"><ele>181.5</ele><time>2026-04-18T11:15:50.998Z</time></trkpt><trkpt lat="44.98469726696946" lon="8.355704551527198"><ele>179.0</ele><time>2026-04-18T11:15:51.998Z</time></trkpt><trkpt lat="44.984763784295524" lon="8.355487035254582"><ele>179.0</ele><time>2026-04-18T11:15:52.998Z</time></trkpt><trkpt lat="44.98481105874464" lon="8.355300720500463"><ele>179.0</ele><time>2026-04-18T11:15:53.998Z</time></trkpt><trkpt lat="44.984839153013525" lon="8.35513089877106"><ele>179.0</ele><time>2026-04-18T11:15:54.998Z</time></trkpt><trkpt lat="44.98487934305708" lon="8.354977062426777"><ele>179.0</ele><time>2026-04-18T11:15:55.998Z</time></trkpt><trkpt lat="44.98492508033714" lon="8.354822933860886"><ele>177.25</ele><time>2026-04-18T11:15:56.998Z</time></trkpt><trkpt lat="44.9850049773658" lon="8.35466922452198"><ele>175.5</ele><time>2026-04-18T11:15:57.998Z</time></trkpt><trkpt lat="44.98514899281069" lon="8.35458518853252"><ele>173.75</ele><time>2026-04-18T11:15:58.998Z</time></trkpt><trkpt lat="44.98530080303554" lon="8.354573393917754"><ele>172.0</ele><time>2026-04-18T11:15:59.998Z</time></trkpt><trkpt lat="44.98544079624097" lon="8.354528997017285"><ele>172.0</ele><time>2026-04-18T11:16:00.998Z</time></trkpt><trkpt lat="44.985574021264796" lon="8.354399004809581"><ele>172.0</ele><time>2026-04-18T11:16:01.998Z</time></trkpt><trkpt lat="44.98567585649029" lon="8.35424219217937"><ele>172.0</ele><time>2026-04-18T11:16:02.998Z</time></trkpt><trkpt lat="44.98575043110443" lon="8.35409191781807"><ele>172.0</ele><time>2026-04-18T11:16:03.998Z</time></trkpt><trkpt lat="44.98581693763885" lon="8.353946318088688"><ele>170.25</ele><time>2026-04-18T11:16:04.998Z</time></trkpt><trkpt lat="44.985877362891465" lon="8.353798411436893"><ele>168.5</ele><time>2026-04-18T11:16:05.998Z</time></trkpt><trkpt lat="44.985940307571774" lon="8.35363512372472"><ele>166.75</ele><time>2026-04-18T11:16:06.998Z</time></trkpt><trkpt lat="44.98603422396222" lon="8.35350889117525"><ele>165.0</ele><time>2026-04-18T11:16:07.998Z</time></trkpt><trkpt lat="44.986135814754405" lon="8.353418861167512"><ele>165.0</ele><time>2026-04-18T11:16:08.998Z</time></trkpt><trkpt lat="44.9862724466644" lon="8.353382387197948"><ele>165.0</ele><time>2026-04-18T11:16:09.998Z</time></trkpt><trkpt lat="44.9864304035389" lon="8.35341241645668"><ele>165.0</ele><time>2026-04-18T11:16:10.998Z</time></trkpt><trkpt lat="44.98656668207166" lon="8.3534507338649"><ele>165.0</ele><time>2026-04-18T11:16:11.998Z</time></trkpt><trkpt lat="44.98667409237898" lon="8.353510517508425"><ele>164.2</ele><time>2026-04-18T11:16:12.998Z</time></trkpt><trkpt lat="44.98676592561111" lon="8.353554164969593"><ele>163.4</ele><time>2026-04-18T11:16:13.998Z</time></trkpt><trkpt lat="44.98683751969519" lon="8.353587585741485"><ele>162.60000000000002</ele><time>2026-04-18T11:16:14.998Z</time></trkpt><trkpt lat="44.98691135927473" lon="8.353669653853503"><ele>161.8</ele><time>2026-04-18T11:16:16.998Z</time></trkpt><trkpt lat="44.98690134597611" lon="8.353855611495803"><ele>161.0</ele><time>2026-04-18T11:16:18.998Z</time></trkpt><trkpt lat="44.98685750702633" lon="8.354001194954813"><ele>160.66666666666666</ele><time>2026-04-18T11:16:19.998Z</time></trkpt><trkpt lat="44.98680910975618" lon="8.354187590791097"><ele>160.33333333333334</ele><time>2026-04-18T11:16:20.998Z</time></trkpt><trkpt lat="44.98676655218997" lon="8.354405017543892"><ele>160.0</ele><time>2026-04-18T11:16:21.998Z</time></trkpt><trkpt lat="44.98671942425905" lon="8.354644872124968"><ele>161.33333333333334</ele><time>2026-04-18T11:16:22.998Z</time></trkpt><trkpt lat="44.986666735415675" lon="8.354897312249383"><ele>162.66666666666666</ele><time>2026-04-18T11:16:23.998Z</time></trkpt><trkpt lat="44.986606917050395" lon="8.355165475432672"><ele>164.0</ele><time>2026-04-18T11:16:24.998Z</time></trkpt><trkpt lat="44.98654825664137" lon="8.355425883608907"><ele>163.33333333333331</ele><time>2026-04-18T11:16:25.998Z</time></trkpt><trkpt lat="44.98649972902225" lon="8.355653357445929"><ele>162.66666666666666</ele><time>2026-04-18T11:16:26.998Z</time></trkpt><trkpt lat="44.98645715698211" lon="8.355860472504334"><ele>162.0</ele><time>2026-04-18T11:16:27.998Z</time></trkpt><trkpt lat="44.98642046855459" lon="8.356050390090507"><ele>162.0</ele><time>2026-04-18T11:16:28.998Z</time></trkpt><trkpt lat="44.986384710902755" lon="8.356237099897655"><ele>162.0</ele><time>2026-04-18T11:16:29.998Z</time></trkpt><trkpt lat="44.98634728319945" lon="8.356431456796509"><ele>162.0</ele><time>2026-04-18T11:16:30.998Z</time></trkpt><trkpt lat="44.98631357152051" lon="8.356642033555332"><ele>162.0</ele><time>2026-04-18T11:16:31.998Z</time></trkpt><trkpt lat="44.986289382533535" lon="8.356856556190326"><ele>162.33333333333334</ele><time>2026-04-18T11:16:32.998Z</time></trkpt><trkpt lat="44.98627423578521" lon="8.357083005543066"><ele>162.66666666666669</ele><time>2026-04-18T11:16:33.998Z</time></trkpt><trkpt lat="44.986264045692245" lon="8.357312144333635"><ele>163.0</ele><time>2026-04-18T11:16:34.998Z</time></trkpt><trkpt lat="44.986260940177644" lon="8.35754298463221"><ele>163.0</ele><time>2026-04-18T11:16:35.998Z</time></trkpt><trkpt lat="44.98626230086476" lon="8.357773603877497"><ele>163.0</ele><time>2026-04-18T11:16:36.998Z</time></trkpt><trkpt lat="44.986264450221356" lon="8.358011736739504"><ele>163.0</ele><time>2026-04-18T11:16:37.998Z</time></trkpt><trkpt lat="44.98626433888911" lon="8.358245157840855"><ele>163.0</ele><time>2026-04-18T11:16:38.998Z</time></trkpt><trkpt lat="44.98626378086637" lon="8.358484075229772"><ele>163.0</ele><time>2026-04-18T11:16:39.998Z</time></trkpt><trkpt lat="44.98626495258329" lon="8.35871894356196"><ele>163.0</ele><time>2026-04-18T11:16:40.998Z</time></trkpt><trkpt lat="44.98626697586283" lon="8.358926976175699"><ele>163.0</ele><time>2026-04-18T11:16:41.998Z</time></trkpt><trkpt lat="44.986268241541595" lon="8.359106060089896"><ele>163.0</ele><time>2026-04-18T11:16:42.998Z</time></trkpt><trkpt lat="44.98626721169873" lon="8.359240617527746"><ele>163.0</ele><time>2026-04-18T11:16:43.998Z</time></trkpt><trkpt lat="44.98626571102346" lon="8.359345126915484"><ele>163.0</ele><time>2026-04-18T11:16:44.998Z</time></trkpt><trkpt lat="44.986272604120124" lon="8.359470666551056"><ele>163.0</ele><time>2026-04-18T11:16:46.998Z</time></trkpt><trkpt lat="44.98651548443644" lon="8.359510629179972"><ele>163.0</ele><time>2026-04-18T11:16:51.998Z</time></trkpt><trkpt lat="44.98664333867034" lon="8.35953967057769"><ele>163.0</ele><time>2026-04-18T11:16:53.998Z</time></trkpt><trkpt lat="44.98671668717879" lon="8.35955798026285"><ele>163.0</ele><time>2026-04-18T11:16:54.998Z</time></trkpt><trkpt lat="44.98678194726695" lon="8.359581358208438"><ele>163.0</ele><time>2026-04-18T11:16:55.998Z</time></trkpt><trkpt lat="44.9868538524094" lon="8.359601723361402"><ele>163.0</ele><time>2026-04-18T11:16:56.998Z</time></trkpt><trkpt lat="44.986925368007434" lon="8.359624656397498"><ele>163.0</ele><time>2026-04-18T11:16:57.998Z</time></trkpt><trkpt lat="44.98699744753406" lon="8.359637507445825"><ele>162.66666666666669</ele><time>2026-04-18T11:16:58.998Z</time></trkpt><trkpt lat="44.98707174973826" lon="8.359659297871639"><ele>162.33333333333334</ele><time>2026-04-18T11:16:59.998Z</time></trkpt><trkpt lat="44.987135516275906" lon="8.359665954006841"><ele>162.0</ele><time>2026-04-18T11:17:00.998Z</time></trkpt><trkpt lat="44.98722166756758" lon="8.359638955000383"><ele>161.66666666666666</ele><time>2026-04-18T11:17:02.998Z</time></trkpt><trkpt lat="44.98730927844101" lon="8.359580658456169"><ele>161.33333333333331</ele><time>2026-04-18T11:17:04.999Z</time></trkpt><trkpt lat="44.98741903324375" lon="8.359525424417837"><ele>161.0</ele><time>2026-04-18T11:17:06.999Z</time></trkpt><trkpt lat="44.98750289403125" lon="8.359486347086229"><ele>162.75</ele><time>2026-04-18T11:17:07.999Z</time></trkpt><trkpt lat="44.987612773917675" lon="8.359420018512369"><ele>164.5</ele><time>2026-04-18T11:17:08.999Z</time></trkpt><trkpt lat="44.987730043514084" lon="8.359335498075607"><ele>166.25</ele><time>2026-04-18T11:17:09.999Z</time></trkpt><trkpt lat="44.987841348335884" lon="8.359236969626272"><ele>168.0</ele><time>2026-04-18T11:17:10.999Z</time></trkpt><trkpt lat="44.987934291647825" lon="8.359117153455667"><ele>168.0</ele><time>2026-04-18T11:17:11.999Z</time></trkpt><trkpt lat="44.98802428867744" lon="8.358970618095103"><ele>168.0</ele><time>2026-04-18T11:17:12.999Z</time></trkpt><trkpt lat="44.98809298695085" lon="8.358825020141913"><ele>168.0</ele><time>2026-04-18T11:17:13.999Z</time></trkpt><trkpt lat="44.98813989954089" lon="8.358707109668863"><ele>168.0</ele><time>2026-04-18T11:17:14.999Z</time></trkpt><trkpt lat="44.98818354286305" lon="8.358608822775896"><ele>168.0</ele><time>2026-04-18T11:17:15.999Z</time></trkpt><trkpt lat="44.98828060033992" lon="8.358520285003651"><ele>168.25</ele><time>2026-04-18T11:17:17.999Z</time></trkpt><trkpt lat="44.988353276744746" lon="8.358531601626312"><ele>168.5</ele><time>2026-04-18T11:17:18.999Z</time></trkpt><trkpt lat="44.988445580957816" lon="8.358580132755737"><ele>168.75</ele><time>2026-04-18T11:17:19.999Z</time></trkpt><trkpt lat="44.988572114986205" lon="8.358648603331094"><ele>169.0</ele><time>2026-04-18T11:17:20.999Z</time></trkpt><trkpt lat="44.98870951747939" lon="8.358734410966697"><ele>169.0</ele><time>2026-04-18T11:17:21.999Z</time></trkpt><trkpt lat="44.988826744121795" lon="8.35880972817508"><ele>169.0</ele><time>2026-04-18T11:17:22.999Z</time></trkpt><trkpt lat="44.98892512050835" lon="8.358857948935665"><ele>169.0</ele><time>2026-04-18T11:17:23.999Z</time></trkpt><trkpt lat="44.98900900128499" lon="8.35889062338435"><ele>169.0</ele><time>2026-04-18T11:17:24.999Z</time></trkpt><trkpt lat="44.98909956459218" lon="8.358926510961536"><ele>169.0</ele><time>2026-04-18T11:17:25.999Z</time></trkpt><trkpt lat="44.98917891918171" lon="8.358960250097667"><ele>169.0</ele><time>2026-04-18T11:17:26.999Z</time></trkpt><trkpt lat="44.989291214209835" lon="8.359022993516165"><ele>169.0</ele><time>2026-04-18T11:17:28.999Z</time></trkpt><trkpt lat="44.9893731461209" lon="8.359031875309796"><ele>169.0</ele><time>2026-04-18T11:17:29.999Z</time></trkpt><trkpt lat="44.98944260949269" lon="8.3590161488277"><ele>169.0</ele><time>2026-04-18T11:17:30.999Z</time></trkpt><trkpt lat="44.98955884577864" lon="8.358940140036575"><ele>169.0</ele><time>2026-04-18T11:17:32.999Z</time></trkpt><trkpt lat="44.989621872752615" lon="8.358890157380921"><ele>170.16666666666669</ele><time>2026-04-18T11:17:33.999Z</time></trkpt><trkpt lat="44.98969687588061" lon="8.358836343440686"><ele>171.33333333333334</ele><time>2026-04-18T11:17:34.999Z</time></trkpt><trkpt lat="44.98976764672237" lon="8.358773188051254"><ele>172.5</ele><time>2026-04-18T11:17:35.999Z</time></trkpt><trkpt lat="44.989827445319996" lon="8.358716014578945"><ele>173.66666666666666</ele><time>2026-04-18T11:17:36.999Z</time></trkpt><trkpt lat="44.989882247699995" lon="8.358659675814486"><ele>174.83333333333331</ele><time>2026-04-18T11:17:37.999Z</time></trkpt><trkpt lat="44.989950433363816" lon="8.358594770477847"><ele>176.0</ele><time>2026-04-18T11:17:38.999Z</time></trkpt><trkpt lat="44.99002392262373" lon="8.358521926440831"><ele>176.33333333333331</ele><time>2026-04-18T11:17:39.999Z</time></trkpt><trkpt lat="44.99009150803148" lon="8.358453556529671"><ele>176.66666666666666</ele><time>2026-04-18T11:17:40.999Z</time></trkpt><trkpt lat="44.990153174681296" lon="8.358396553304997"><ele>177.0</ele><time>2026-04-18T11:17:41.999Z</time></trkpt><trkpt lat="44.99020979662394" lon="8.358341370151043"><ele>177.33333333333334</ele><time>2026-04-18T11:17:42.999Z</time></trkpt><trkpt lat="44.99029458529237" lon="8.35825766234276"><ele>177.66666666666669</ele><time>2026-04-18T11:17:44.999Z</time></trkpt><trkpt lat="44.99037935193084" lon="8.35819588810695"><ele>178.0</ele><time>2026-04-18T11:17:46.999Z</time></trkpt><trkpt lat="44.99044511445922" lon="8.358124641344956"><ele>180.0</ele><time>2026-04-18T11:17:47.999Z</time></trkpt><trkpt lat="44.99054662258771" lon="8.358022720248922"><ele>182.0</ele><time>2026-04-18T11:17:48.999Z</time></trkpt><trkpt lat="44.99065110648427" lon="8.357928833554949"><ele>184.0</ele><time>2026-04-18T11:17:49.999Z</time></trkpt><trkpt lat="44.99075310363732" lon="8.357825501738064"><ele>186.0</ele><time>2026-04-18T11:17:50.999Z</time></trkpt><trkpt lat="44.99083908501709" lon="8.357713984481602"><ele>185.4</ele><time>2026-04-18T11:17:51.999Z</time></trkpt><trkpt lat="44.99090078862402" lon="8.357644302656318"><ele>184.8</ele><time>2026-04-18T11:17:52.999Z</time></trkpt><trkpt lat="44.99095874653155" lon="8.357565547548445"><ele>184.20000000000002</ele><time>2026-04-18T11:17:53.999Z</time></trkpt><trkpt lat="44.99105765518655" lon="8.357442903123854"><ele>183.60000000000002</ele><time>2026-04-18T11:17:54.999Z</time></trkpt><trkpt lat="44.99113856286745" lon="8.357326532843452"><ele>183.0</ele><time>2026-04-18T11:17:55.999Z</time></trkpt><trkpt lat="44.99120289664261" lon="8.357229218688802"><ele>184.75</ele><time>2026-04-18T11:17:56.999Z</time></trkpt><trkpt lat="44.99127840744097" lon="8.357107232636363"><ele>186.5</ele><time>2026-04-18T11:17:57.999Z</time></trkpt><trkpt lat="44.99135243267252" lon="8.356976629956934"><ele>188.25</ele><time>2026-04-18T11:17:58.999Z</time></trkpt><trkpt lat="44.991427985156605" lon="8.35684944018533"><ele>190.0</ele><time>2026-04-18T11:17:59.999Z</time></trkpt><trkpt lat="44.99150372418758" lon="8.356726487338822"><ele>190.0</ele><time>2026-04-18T11:18:00.999Z</time></trkpt><trkpt lat="44.99158833538893" lon="8.356594940656324"><ele>190.0</ele><time>2026-04-18T11:18:01.999Z</time></trkpt><trkpt lat="44.99168317939599" lon="8.356449566882729"><ele>190.0</ele><time>2026-04-18T11:18:02.999Z</time></trkpt><trkpt lat="44.99177238234179" lon="8.35632048339706"><ele>190.0</ele><time>2026-04-18T11:18:03.999Z</time></trkpt><trkpt lat="44.99185972685999" lon="8.356197164824929"><ele>190.25</ele><time>2026-04-18T11:18:04.999Z</time></trkpt><trkpt lat="44.99195516643999" lon="8.356070587456461"><ele>190.5</ele><time>2026-04-18T11:18:05.999Z</time></trkpt><trkpt lat="44.992050905565115" lon="8.355948925623455"><ele>190.75</ele><time>2026-04-18T11:18:06.999Z</time></trkpt><trkpt lat="44.992123844745144" lon="8.355839328223913"><ele>191.0</ele><time>2026-04-18T11:18:07.999Z</time></trkpt><trkpt lat="44.99219624927547" lon="8.355718603860137"><ele>191.0</ele><time>2026-04-18T11:18:08.999Z</time></trkpt><trkpt lat="44.99227541244062" lon="8.355573648170859"><ele>191.0</ele><time>2026-04-18T11:18:09.999Z</time></trkpt><trkpt lat="44.99235640186401" lon="8.355444302450199"><ele>191.0</ele><time>2026-04-18T11:18:10.999Z</time></trkpt><trkpt lat="44.99245590643542" lon="8.35530642576439"><ele>191.0</ele><time>2026-04-18T11:18:11.999Z</time></trkpt><trkpt lat="44.992556505884686" lon="8.355173254976082"><ele>193.5</ele><time>2026-04-18T11:18:12.999Z</time></trkpt><trkpt lat="44.992637058551566" lon="8.355054914810982"><ele>196.0</ele><time>2026-04-18T11:18:13.999Z</time></trkpt><trkpt lat="44.99272542435501" lon="8.354937910490838"><ele>198.5</ele><time>2026-04-18T11:18:14.999Z</time></trkpt><trkpt lat="44.99281544273147" lon="8.35482973885239"><ele>201.0</ele><time>2026-04-18T11:18:15.999Z</time></trkpt><trkpt lat="44.99290842560783" lon="8.354717173364783"><ele>202.20000000000002</ele><time>2026-04-18T11:18:16.999Z</time></trkpt><trkpt lat="44.99299391778331" lon="8.354630782851137"><ele>203.4</ele><time>2026-04-18T11:18:17.999Z</time></trkpt><trkpt lat="44.99308106423995" lon="8.354542857895929"><ele>204.6</ele><time>2026-04-18T11:18:18.999Z</time></trkpt><trkpt lat="44.99317212303748" lon="8.354448226740603"><ele>205.8</ele><time>2026-04-18T11:18:19.999Z</time></trkpt><trkpt lat="44.993265343521934" lon="8.35435527173103"><ele>207.0</ele><time>2026-04-18T11:18:20.999Z</time></trkpt><trkpt lat="44.993354853775955" lon="8.354261157866024"><ele>207.2</ele><time>2026-04-18T11:18:21.999Z</time></trkpt><trkpt lat="44.9934396939541" lon="8.354170125642723"><ele>207.39999999999998</ele><time>2026-04-18T11:18:22.999Z</time></trkpt><trkpt lat="44.99351422228222" lon="8.354085862449393"><ele>207.60000000000002</ele><time>2026-04-18T11:18:23.999Z</time></trkpt><trkpt lat="44.99358435972666" lon="8.354004342072734"><ele>207.8</ele><time>2026-04-18T11:18:24.999Z</time></trkpt><trkpt lat="44.99366562701304" lon="8.353937678024387"><ele>208.0</ele><time>2026-04-18T11:18:25.999Z</time></trkpt><trkpt lat="44.99375505458581" lon="8.353879559366135"><ele>208.16666666666666</ele><time>2026-04-18T11:18:26.999Z</time></trkpt><trkpt lat="44.99384497312426" lon="8.353821192854628"><ele>208.33333333333331</ele><time>2026-04-18T11:18:27.999Z</time></trkpt><trkpt lat="44.99390774669348" lon="8.353783994605818"><ele>208.5</ele><time>2026-04-18T11:18:28.999Z</time></trkpt><trkpt lat="44.994007428650335" lon="8.353725402565907"><ele>208.66666666666669</ele><time>2026-04-18T11:18:30.999Z</time></trkpt><trkpt lat="44.994074774601444" lon="8.353696966423064"><ele>208.83333333333334</ele><time>2026-04-18T11:18:31.999Z</time></trkpt><trkpt lat="44.99415136419182" lon="8.353691784690191"><ele>209.0</ele><time>2026-04-18T11:18:32.999Z</time></trkpt><trkpt lat="44.99422999633061" lon="8.353650798270342"><ele>209.79999999999998</ele><time>2026-04-18T11:18:33.999Z</time></trkpt><trkpt lat="44.994319343752466" lon="8.353596859189182"><ele>210.6</ele><time>2026-04-18T11:18:34.999Z</time></trkpt><trkpt lat="44.99441123973204" lon="8.353536780970092"><ele>211.4</ele><time>2026-04-18T11:18:35.999Z</time></trkpt><trkpt lat="44.99447875408866" lon="8.353477925080494"><ele>212.2</ele><time>2026-04-18T11:18:36.999Z</time></trkpt><trkpt lat="44.994556643745874" lon="8.353427374126232"><ele>213.0</ele><time>2026-04-18T11:18:37.999Z</time></trkpt><trkpt lat="44.99464201343881" lon="8.353331164445555"><ele>213.0</ele><time>2026-04-18T11:18:38.999Z</time></trkpt><trkpt lat="44.994765433710114" lon="8.353236384620521"><ele>213.0</ele><time>2026-04-18T11:18:39.999Z</time></trkpt><trkpt lat="44.994928112454254" lon="8.353094560556965"><ele>213.0</ele><time>2026-04-18T11:18:40.999Z</time></trkpt><trkpt lat="44.99507217422017" lon="8.352957924836046"><ele>214.5</ele><time>2026-04-18T11:18:41.999Z</time></trkpt><trkpt lat="44.99521461340207" lon="8.352828561308229"><ele>216.0</ele><time>2026-04-18T11:18:42.999Z</time></trkpt><trkpt lat="44.99533385715622" lon="8.352725855236757"><ele>217.5</ele><time>2026-04-18T11:18:43.999Z</time></trkpt><trkpt lat="44.99545331242196" lon="8.35262441063301"><ele>219.0</ele><time>2026-04-18T11:18:44.999Z</time></trkpt><trkpt lat="44.995574435642204" lon="8.352521566791207"><ele>219.0</ele><time>2026-04-18T11:18:45.999Z</time></trkpt><trkpt lat="44.99568187686549" lon="8.352414019175104"><ele>219.0</ele><time>2026-04-18T11:18:46.999Z</time></trkpt><trkpt lat="44.99577917913691" lon="8.352322024261866"><ele>219.0</ele><time>2026-04-18T11:18:47.999Z</time></trkpt><trkpt lat="44.99590751833671" lon="8.352262245335984"><ele>219.0</ele><time>2026-04-18T11:18:48.999Z</time></trkpt><trkpt lat="44.99600635346604" lon="8.352224390867018"><ele>219.0</ele><time>2026-04-18T11:18:49.999Z</time></trkpt><trkpt lat="44.99615110429232" lon="8.35217472724477"><ele>219.0</ele><time>2026-04-18T11:18:50.999Z</time></trkpt><trkpt lat="44.996324331095224" lon="8.35209010431229"><ele>219.0</ele><time>2026-04-18T11:18:51.999Z</time></trkpt><trkpt lat="44.99649389408676" lon="8.352034368111765"><ele>219.0</ele><time>2026-04-18T11:18:52.999Z</time></trkpt><trkpt lat="44.99663457778436" lon="8.351987348234736"><ele>219.0</ele><time>2026-04-18T11:18:53.999Z</time></trkpt><trkpt lat="44.99679006643678" lon="8.351962108114272"><ele>219.0</ele><time>2026-04-18T11:18:54.999Z</time></trkpt><trkpt lat="44.99691625833774" lon="8.351908850823424"><ele>219.0</ele><time>2026-04-18T11:18:55.999Z</time></trkpt><trkpt lat="44.99704421287768" lon="8.351892282019335"><ele>218.75</ele><time>2026-04-18T11:18:56.999Z</time></trkpt><trkpt lat="44.99718497423328" lon="8.351854298951528"><ele>218.5</ele><time>2026-04-18T11:18:57.998Z</time></trkpt><trkpt lat="44.99733013715527" lon="8.351825445185861"><ele>218.25</ele><time>2026-04-18T11:18:58.998Z</time></trkpt><trkpt lat="44.9974676668971" lon="8.351805450597293"><ele>218.0</ele><time>2026-04-18T11:18:59.998Z</time></trkpt><trkpt lat="44.99762622412803" lon="8.351779165566258"><ele>219.33333333333334</ele><time>2026-04-18T11:19:00.998Z</time></trkpt><trkpt lat="44.99778646176584" lon="8.351733039212903"><ele>220.66666666666669</ele><time>2026-04-18T11:19:01.998Z</time></trkpt><trkpt lat="44.997956129695545" lon="8.351678169205046"><ele>222.0</ele><time>2026-04-18T11:19:02.998Z</time></trkpt><trkpt lat="44.998102027333005" lon="8.351610180361707"><ele>222.0</ele><time>2026-04-18T11:19:03.998Z</time></trkpt><trkpt lat="44.998220739029534" lon="8.351545577747817"><ele>222.0</ele><time>2026-04-18T11:19:04.998Z</time></trkpt><trkpt lat="44.99832614436708" lon="8.351476728105398"><ele>222.0</ele><time>2026-04-18T11:19:05.998Z</time></trkpt><trkpt lat="44.9984442744957" lon="8.351395727982588"><ele>222.0</ele><time>2026-04-18T11:19:06.998Z</time></trkpt><trkpt lat="44.99853617551411" lon="8.35129830109543"><ele>222.75</ele><time>2026-04-18T11:19:07.998Z</time></trkpt><trkpt lat="44.99862455693945" lon="8.351197400576003"><ele>223.5</ele><time>2026-04-18T11:19:08.998Z</time></trkpt><trkpt lat="44.998749605008946" lon="8.35109954310265"><ele>224.25</ele><time>2026-04-18T11:19:09.998Z</time></trkpt><trkpt lat="44.998858331491874" lon="8.351010662516815"><ele>225.0</ele><time>2026-04-18T11:19:11Z</time></trkpt><trkpt lat="44.99899668942753" lon="8.350909323221181"><ele>225.0</ele><time>2026-04-18T11:19:12Z</time></trkpt><trkpt lat="44.99915028879639" lon="8.35078007587884"><ele>225.0</ele><time>2026-04-18T11:19:13Z</time></trkpt><trkpt lat="44.999304701889564" lon="8.350713210460627"><ele>225.0</ele><time>2026-04-18T11:19:14Z</time></trkpt><trkpt lat="44.99943017937178" lon="8.350651167885623"><ele>225.0</ele><time>2026-04-18T11:19:15Z</time></trkpt><trkpt lat="44.99957461084909" lon="8.350583404818055"><ele>225.0</ele><time>2026-04-18T11:19:16Z</time></trkpt><trkpt lat="44.999686037452264" lon="8.350507465984398"><ele>225.0</ele><time>2026-04-18T11:19:17Z</time></trkpt><trkpt lat="44.999774915348944" lon="8.350443553348128"><ele>225.0</ele><time>2026-04-18T11:19:18Z</time></trkpt><trkpt lat="44.99991612658301" lon="8.35037868141647"><ele>226.0</ele><time>2026-04-18T11:19:19Z</time></trkpt><trkpt lat="45.000075500814646" lon="8.35033032241035"><ele>227.0</ele><time>2026-04-18T11:19:20Z</time></trkpt><trkpt lat="45.00019403530288" lon="8.35030720594961"><ele>228.0</ele><time>2026-04-18T11:19:21Z</time></trkpt><trkpt lat="45.00032454048476" lon="8.350288321223305"><ele>229.0</ele><time>2026-04-18T11:19:22Z</time></trkpt><trkpt lat="45.00045331118589" lon="8.350247120168783"><ele>229.0</ele><time>2026-04-18T11:19:23Z</time></trkpt><trkpt lat="45.000563754591724" lon="8.350240360333121"><ele>228.99999999999997</ele><time>2026-04-18T11:19:24Z</time></trkpt><trkpt lat="45.00064733610148" lon="8.350228202713447"><ele>228.99999999999997</ele><time>2026-04-18T11:19:25Z</time></trkpt><trkpt lat="45.00073218762702" lon="8.350186319382106"><ele>229.0</ele><time>2026-04-18T11:19:26Z</time></trkpt><trkpt lat="45.00083550586928" lon="8.350110415736077"><ele>229.0</ele><time>2026-04-18T11:19:27Z</time></trkpt><trkpt lat="45.0009552317843" lon="8.350016887586802"><ele>230.0</ele><time>2026-04-18T11:19:28Z</time></trkpt><trkpt lat="45.00109515311998" lon="8.349905507331496"><ele>231.0</ele><time>2026-04-18T11:19:29Z</time></trkpt><trkpt lat="45.00121588574411" lon="8.349801969358523"><ele>232.0</ele><time>2026-04-18T11:19:30Z</time></trkpt><trkpt lat="45.00133452308057" lon="8.349640124760844"><ele>232.33333333333331</ele><time>2026-04-18T11:19:31Z</time></trkpt><trkpt lat="45.00147656768252" lon="8.349474358337597"><ele>232.66666666666669</ele><time>2026-04-18T11:19:32Z</time></trkpt><trkpt lat="45.00164208752322" lon="8.349309182030423"><ele>233.0</ele><time>2026-04-18T11:19:33Z</time></trkpt><trkpt lat="45.00178394392072" lon="8.349162215695252"><ele>233.75</ele><time>2026-04-18T11:19:34Z</time></trkpt><trkpt lat="45.00192743480175" lon="8.349019556413062"><ele>234.5</ele><time>2026-04-18T11:19:35Z</time></trkpt><trkpt lat="45.0020421794316" lon="8.348893917706949"><ele>235.25</ele><time>2026-04-18T11:19:37Z</time></trkpt><trkpt lat="45.00212721423599" lon="8.348823640348584"><ele>236.0</ele><time>2026-04-18T11:19:38Z</time></trkpt><trkpt lat="45.00221432132404" lon="8.348748622288184"><ele>236.0</ele><time>2026-04-18T11:19:39Z</time></trkpt><trkpt lat="45.0023223708341" lon="8.348675303527216"><ele>236.00000000000003</ele><time>2026-04-18T11:19:40Z</time></trkpt><trkpt lat="45.002413067711245" lon="8.348627910566341"><ele>236.00000000000003</ele><time>2026-04-18T11:19:41Z</time></trkpt><trkpt lat="45.002511059535955" lon="8.348589610282675"><ele>236.0</ele><time>2026-04-18T11:19:42Z</time></trkpt><trkpt lat="45.00261271846321" lon="8.34856883323394"><ele>236.0</ele><time>2026-04-18T11:19:43Z</time></trkpt><trkpt lat="45.002722697546254" lon="8.348531305311742"><ele>237.8</ele><time>2026-04-18T11:19:44Z</time></trkpt><trkpt lat="45.0028351066449" lon="8.348503492519127"><ele>239.60000000000002</ele><time>2026-04-18T11:19:45Z</time></trkpt><trkpt lat="45.002947983310854" lon="8.348462882341336"><ele>241.4</ele><time>2026-04-18T11:19:46Z</time></trkpt><trkpt lat="45.003024962886485" lon="8.348451362835585"><ele>243.2</ele><time>2026-04-18T11:19:47Z</time></trkpt><trkpt lat="45.00315658033605" lon="8.348423559161326"><ele>245.0</ele><time>2026-04-18T11:19:49Z</time></trkpt><trkpt lat="45.003247403732004" lon="8.348380254755599"><ele>245.0</ele><time>2026-04-18T11:19:50Z</time></trkpt><trkpt lat="45.0033153764393" lon="8.348348915310671"><ele>245.0</ele><time>2026-04-18T11:22:23Z</time></trkpt><trkpt lat="45.00339544115704" lon="8.34829863908445"><ele>245.0</ele><time>2026-04-18T11:25:06.999Z</time></trkpt><trkpt lat="45.00345910461248" lon="8.348270783798858"><ele>245.0</ele><time>2026-04-18T11:25:08.999Z</time></trkpt><trkpt lat="45.00358390953392" lon="8.348195113914459"><ele>245.0</ele><time>2026-04-18T11:25:10.999Z</time></trkpt><trkpt lat="45.00369362124833" lon="8.348132500866523"><ele>244.6</ele><time>2026-04-18T11:25:11.999Z</time></trkpt><trkpt lat="45.00380309729816" lon="8.348073167723411"><ele>244.2</ele><time>2026-04-18T11:25:12.999Z</time></trkpt><trkpt lat="45.00389023863326" lon="8.348042027397257"><ele>243.8</ele><time>2026-04-18T11:25:13.999Z</time></trkpt><trkpt lat="45.00398250165615" lon="8.348010526023486"><ele>243.4</ele><time>2026-04-18T11:25:14.999Z</time></trkpt><trkpt lat="45.00411187256107" lon="8.34795970011147"><ele>243.0</ele><time>2026-04-18T11:25:15.999Z</time></trkpt><trkpt lat="45.004199327508644" lon="8.347953199089483"><ele>242.8</ele><time>2026-04-18T11:25:16.999Z</time></trkpt><trkpt lat="45.00427617917688" lon="8.347917246613926"><ele>242.60000000000002</ele><time>2026-04-18T11:25:17.999Z</time></trkpt><trkpt lat="45.00436507466339" lon="8.347893270482892"><ele>242.39999999999998</ele><time>2026-04-18T11:25:18.999Z</time></trkpt><trkpt lat="45.00448158899917" lon="8.347859790113034"><ele>242.2</ele><time>2026-04-18T11:25:19.999Z</time></trkpt><trkpt lat="45.0045925354048" lon="8.34780707997581"><ele>242.0</ele><time>2026-04-18T11:25:20.999Z</time></trkpt><trkpt lat="45.00469011682266" lon="8.347756290822025"><ele>242.0</ele><time>2026-04-18T11:25:21.999Z</time></trkpt><trkpt lat="45.00478680082625" lon="8.347706994790178"><ele>242.0</ele><time>2026-04-18T11:25:22.999Z</time></trkpt><trkpt lat="45.00490035198643" lon="8.347644638535003"><ele>242.0</ele><time>2026-04-18T11:25:23.999Z</time></trkpt><trkpt lat="45.005013330314824" lon="8.347585096040874"><ele>242.0</ele><time>2026-04-18T11:25:24.999Z</time></trkpt><trkpt lat="45.00510656038866" lon="8.347524894915221"><ele>242.0</ele><time>2026-04-18T11:25:25.999Z</time></trkpt><trkpt lat="45.005198301762164" lon="8.347470438579856"><ele>241.8</ele><time>2026-04-18T11:25:26.999Z</time></trkpt><trkpt lat="45.005277228447184" lon="8.347424278471815"><ele>241.6</ele><time>2026-04-18T11:25:27.999Z</time></trkpt><trkpt lat="45.00535868367124" lon="8.347384007142088"><ele>241.40000000000003</ele><time>2026-04-18T11:25:29Z</time></trkpt><trkpt lat="45.0054405778504" lon="8.3473998890705"><ele>241.20000000000002</ele><time>2026-04-18T11:25:30Z</time></trkpt><trkpt lat="45.00553386213676" lon="8.347381399371123"><ele>241.0</ele><time>2026-04-18T11:25:31Z</time></trkpt><trkpt lat="45.00565572543828" lon="8.34738447123873"><ele>241.0</ele><time>2026-04-18T11:25:32Z</time></trkpt><trkpt lat="45.00578175387351" lon="8.347396318320916"><ele>241.0</ele><time>2026-04-18T11:25:33Z</time></trkpt><trkpt lat="45.00590590431731" lon="8.347377342002364"><ele>241.0</ele><time>2026-04-18T11:25:34Z</time></trkpt><trkpt lat="45.00604356238153" lon="8.347390725569792"><ele>241.0</ele><time>2026-04-18T11:25:35Z</time></trkpt><trkpt lat="45.00619039565039" lon="8.347374179077338"><ele>239.75</ele><time>2026-04-18T11:25:36Z</time></trkpt><trkpt lat="45.00632914584732" lon="8.347388542351933"><ele>238.5</ele><time>2026-04-18T11:25:37Z</time></trkpt><trkpt lat="45.00646269749387" lon="8.347425702877816"><ele>237.25</ele><time>2026-04-18T11:25:38Z</time></trkpt><trkpt lat="45.00660374988117" lon="8.347451827954844"><ele>236.0</ele><time>2026-04-18T11:25:39Z</time></trkpt><trkpt lat="45.006728479000586" lon="8.347480022767451"><ele>236.0</ele><time>2026-04-18T11:25:40Z</time></trkpt><trkpt lat="45.006850768841915" lon="8.347511830929996"><ele>236.0</ele><time>2026-04-18T11:25:41Z</time></trkpt><trkpt lat="45.00697081841949" lon="8.34753453975323"><ele>236.0</ele><time>2026-04-18T11:25:42Z</time></trkpt><trkpt lat="45.00709160970959" lon="8.347542222370965"><ele>236.0</ele><time>2026-04-18T11:25:43Z</time></trkpt><trkpt lat="45.007204999203246" lon="8.347526375241763"><ele>236.0</ele><time>2026-04-18T11:25:44Z</time></trkpt><trkpt lat="45.007345211856006" lon="8.34750769292585"><ele>236.0</ele><time>2026-04-18T11:25:45Z</time></trkpt><trkpt lat="45.00747502990952" lon="8.347438171277256"><ele>236.0</ele><time>2026-04-18T11:25:46Z</time></trkpt><trkpt lat="45.00757986039751" lon="8.347407910980747"><ele>236.0</ele><time>2026-04-18T11:25:47Z</time></trkpt><trkpt lat="45.007675360040935" lon="8.347344793068656"><ele>236.0</ele><time>2026-04-18T11:25:48Z</time></trkpt><trkpt lat="45.007756914993884" lon="8.347278640578114"><ele>236.00000000000003</ele><time>2026-04-18T11:25:49Z</time></trkpt><trkpt lat="45.00783492119539" lon="8.347222822504797"><ele>236.00000000000003</ele><time>2026-04-18T11:25:50Z</time></trkpt><trkpt lat="45.00791512845496" lon="8.347172188673538"><ele>236.0</ele><time>2026-04-18T11:25:51Z</time></trkpt><trkpt lat="45.00800684906552" lon="8.347132554421396"><ele>236.0</ele><time>2026-04-18T11:25:52Z</time></trkpt><trkpt lat="45.0081204103185" lon="8.347073285787998"><ele>235.5</ele><time>2026-04-18T11:25:53Z</time></trkpt><trkpt lat="45.00823844313012" lon="8.347004242358187"><ele>235.0</ele><time>2026-04-18T11:25:54Z</time></trkpt><trkpt lat="45.008373833868944" lon="8.34695674597591"><ele>234.5</ele><time>2026-04-18T11:25:55Z</time></trkpt><trkpt lat="45.008511622986404" lon="8.346915213554814"><ele>234.0</ele><time>2026-04-18T11:25:56Z</time></trkpt><trkpt lat="45.0086448129907" lon="8.346872449459438"><ele>234.0</ele><time>2026-04-18T11:25:57Z</time></trkpt><trkpt lat="45.00875603090118" lon="8.346826853735156"><ele>233.99999999999997</ele><time>2026-04-18T11:25:58Z</time></trkpt><trkpt lat="45.00885439878889" lon="8.346798884756982"><ele>233.99999999999997</ele><time>2026-04-18T11:25:59Z</time></trkpt><trkpt lat="45.00892736947754" lon="8.346709267411976"><ele>234.0</ele><time>2026-04-18T11:26:00Z</time></trkpt><trkpt lat="45.009009500003096" lon="8.346594157319245"><ele>234.0</ele><time>2026-04-18T11:26:01Z</time></trkpt><trkpt lat="45.00911697837845" lon="8.346466178865896"><ele>232.66666666666669</ele><time>2026-04-18T11:26:02Z</time></trkpt><trkpt lat="45.009237807396346" lon="8.346316378460564"><ele>231.33333333333334</ele><time>2026-04-18T11:26:03Z</time></trkpt><trkpt lat="45.009371228598056" lon="8.34616369384467"><ele>230.0</ele><time>2026-04-18T11:26:04Z</time></trkpt><trkpt lat="45.00949900911709" lon="8.346006277879862"><ele>230.0</ele><time>2026-04-18T11:26:05Z</time></trkpt><trkpt lat="45.0096223413609" lon="8.345895373345666"><ele>230.0</ele><time>2026-04-18T11:26:06Z</time></trkpt><trkpt lat="45.00972728909612" lon="8.345780442409005"><ele>230.0</ele><time>2026-04-18T11:26:07Z</time></trkpt><trkpt lat="45.00982725014217" lon="8.34564166088576"><ele>230.0</ele><time>2026-04-18T11:26:08Z</time></trkpt><trkpt lat="45.00993437968515" lon="8.345525468080835"><ele>231.0</ele><time>2026-04-18T11:26:09Z</time></trkpt><trkpt lat="45.010028601516225" lon="8.34541360947343"><ele>232.0</ele><time>2026-04-18T11:26:10Z</time></trkpt><trkpt lat="45.01013009997035" lon="8.345324538852745"><ele>233.0</ele><time>2026-04-18T11:26:10.999Z</time></trkpt><trkpt lat="45.01021378155171" lon="8.345228675314672"><ele>234.0</ele><time>2026-04-18T11:26:11.999Z</time></trkpt><trkpt lat="45.01029157945834" lon="8.345144009828095"><ele>235.0</ele><time>2026-04-18T11:26:12.999Z</time></trkpt><trkpt lat="45.01036238273456" lon="8.345077069663505"><ele>234.99999999999997</ele><time>2026-04-18T11:26:13.999Z</time></trkpt><trkpt lat="45.01043063216981" lon="8.345016518386327"><ele>235.0</ele><time>2026-04-18T11:26:14.999Z</time></trkpt><trkpt lat="45.01049359882512" lon="8.344948165659073"><ele>235.0</ele><time>2026-04-18T11:26:15.999Z</time></trkpt><trkpt lat="45.01056529636971" lon="8.344882492859172"><ele>235.0</ele><time>2026-04-18T11:26:16.999Z</time></trkpt><trkpt lat="45.010644021850666" lon="8.344812125868954"><ele>234.99999999999997</ele><time>2026-04-18T11:26:17.999Z</time></trkpt><trkpt lat="45.01072719331503" lon="8.3447368755331"><ele>235.0</ele><time>2026-04-18T11:26:18.999Z</time></trkpt><trkpt lat="45.01082298331716" lon="8.344649605042935"><ele>236.6</ele><time>2026-04-18T11:26:19.999Z</time></trkpt><trkpt lat="45.01092063575069" lon="8.344577767641859"><ele>238.2</ele><time>2026-04-18T11:26:20.999Z</time></trkpt><trkpt lat="45.01099059507041" lon="8.34449201825605"><ele>239.8</ele><time>2026-04-18T11:26:21.999Z</time></trkpt><trkpt lat="45.01106590266979" lon="8.344426966364404"><ele>241.4</ele><time>2026-04-18T11:26:22.999Z</time></trkpt><trkpt lat="45.01115053822119" lon="8.34435292905817"><ele>243.0</ele><time>2026-04-18T11:26:23.999Z</time></trkpt><trkpt lat="45.01124802737594" lon="8.344286500904746"><ele>243.0</ele><time>2026-04-18T11:26:24.999Z</time></trkpt><trkpt lat="45.01134385003266" lon="8.344201517657693"><ele>243.0</ele><time>2026-04-18T11:26:25.999Z</time></trkpt><trkpt lat="45.011424532655944" lon="8.344102749327403"><ele>243.0</ele><time>2026-04-18T11:26:26.999Z</time></trkpt><trkpt lat="45.01151556590505" lon="8.34402424554695"><ele>243.0</ele><time>2026-04-18T11:26:27.999Z</time></trkpt><trkpt lat="45.01160434194557" lon="8.343951462952411"><ele>243.0</ele><time>2026-04-18T11:26:28.999Z</time></trkpt><trkpt lat="45.01168161728427" lon="8.343882377467436"><ele>244.0</ele><time>2026-04-18T11:26:29.999Z</time></trkpt><trkpt lat="45.01178135681356" lon="8.343787356922933"><ele>245.0</ele><time>2026-04-18T11:26:30.999Z</time></trkpt><trkpt lat="45.01189472422707" lon="8.34369286698007"><ele>246.0</ele><time>2026-04-18T11:26:31.999Z</time></trkpt><trkpt lat="45.01201904359739" lon="8.343578669572116"><ele>247.0</ele><time>2026-04-18T11:26:32.999Z</time></trkpt><trkpt lat="45.01214684175156" lon="8.343460502986067"><ele>247.0</ele><time>2026-04-18T11:26:33.999Z</time></trkpt><trkpt lat="45.0122833930643" lon="8.34336221876341"><ele>247.0</ele><time>2026-04-18T11:26:34.999Z</time></trkpt><trkpt lat="45.012408859119354" lon="8.343225255519718"><ele>247.0</ele><time>2026-04-18T11:26:35.999Z</time></trkpt><trkpt lat="45.01253786194247" lon="8.343112942751533"><ele>247.75</ele><time>2026-04-18T11:26:36.999Z</time></trkpt><trkpt lat="45.0126460849169" lon="8.34301508594039"><ele>248.5</ele><time>2026-04-18T11:26:37.999Z</time></trkpt><trkpt lat="45.01275115386238" lon="8.342890925340315"><ele>249.25</ele><time>2026-04-18T11:26:38.999Z</time></trkpt><trkpt lat="45.01287519752362" lon="8.342754349672186"><ele>250.0</ele><time>2026-04-18T11:26:39.999Z</time></trkpt><trkpt lat="45.01298604061033" lon="8.342613792711164"><ele>250.0</ele><time>2026-04-18T11:26:40.999Z</time></trkpt><trkpt lat="45.013083929791094" lon="8.34249005447136"><ele>250.0</ele><time>2026-04-18T11:26:41.999Z</time></trkpt><trkpt lat="45.01316882678399" lon="8.34238355914807"><ele>250.0</ele><time>2026-04-18T11:26:42.999Z</time></trkpt><trkpt lat="45.013241915984025" lon="8.342289858954523"><ele>250.0</ele><time>2026-04-18T11:26:43.999Z</time></trkpt><trkpt lat="45.01330044252845" lon="8.342214486702659"><ele>250.0</ele><time>2026-04-18T11:26:44.999Z</time></trkpt><trkpt lat="45.01338463229928" lon="8.342120486832263"><ele>249.8</ele><time>2026-04-18T11:26:46.999Z</time></trkpt><trkpt lat="45.013420098368705" lon="8.342035994019868"><ele>249.6</ele><time>2026-04-18T11:26:48.999Z</time></trkpt><trkpt lat="45.01350699547139" lon="8.3420990376648"><ele>249.39999999999998</ele><time>2026-04-18T11:26:49.999Z</time></trkpt><trkpt lat="45.01356897623303" lon="8.342081575106402"><ele>249.2</ele><time>2026-04-18T11:26:50.999Z</time></trkpt><trkpt lat="45.01367984632914" lon="8.342050422789361"><ele>249.0</ele><time>2026-04-18T11:26:52.999Z</time></trkpt><trkpt lat="45.013796606880824" lon="8.342015736494462"><ele>249.0</ele><time>2026-04-18T11:26:54.999Z</time></trkpt><trkpt lat="45.01385874833252" lon="8.341997276068716"><ele>249.0</ele><time>2026-04-18T11:26:55.999Z</time></trkpt><trkpt lat="45.013978661883655" lon="8.341960544933167"><ele>249.0</ele><time>2026-04-18T11:26:57.999Z</time></trkpt><trkpt lat="45.01404268458105" lon="8.341940214543818"><ele>249.0</ele><time>2026-04-18T11:26:58.999Z</time></trkpt><trkpt lat="45.01410793964148" lon="8.341919492792094"><ele>249.0</ele><time>2026-04-18T11:26:59.999Z</time></trkpt><trkpt lat="45.014172027086765" lon="8.341898670502124"><ele>249.0</ele><time>2026-04-18T11:27:00.999Z</time></trkpt><trkpt lat="45.01423880640143" lon="8.341876871077103"><ele>247.79999999999998</ele><time>2026-04-18T11:27:01.999Z</time></trkpt><trkpt lat="45.01430730824284" lon="8.341854509361827"><ele>246.59999999999997</ele><time>2026-04-18T11:27:02.999Z</time></trkpt><trkpt lat="45.01437357486402" lon="8.341832877195909"><ele>245.4</ele><time>2026-04-18T11:27:03.999Z</time></trkpt><trkpt lat="45.014479193343256" lon="8.341794594989949"><ele>244.2</ele><time>2026-04-18T11:27:05.999Z</time></trkpt><trkpt lat="45.014581112488116" lon="8.341757904119207"><ele>243.0</ele><time>2026-04-18T11:27:07.999Z</time></trkpt><trkpt lat="45.01467398771827" lon="8.341686490559807"><ele>243.0</ele><time>2026-04-18T11:27:09.999Z</time></trkpt><trkpt lat="45.01475426136812" lon="8.341652670113866"><ele>243.0</ele><time>2026-04-18T11:27:11.999Z</time></trkpt><trkpt lat="45.0148357333575" lon="8.341630944584017"><ele>243.0</ele><time>2026-04-18T11:27:13.999Z</time></trkpt><trkpt lat="45.01490645879306" lon="8.341588973247067"><ele>243.0</ele><time>2026-04-18T11:27:15.999Z</time></trkpt><trkpt lat="45.01497567197531" lon="8.341567192014834"><ele>243.0</ele><time>2026-04-18T11:27:17.999Z</time></trkpt><trkpt lat="45.01508092527525" lon="8.341543976837622"><ele>243.0</ele><time>2026-04-18T11:27:19.999Z</time></trkpt><trkpt lat="45.015172110086816" lon="8.341511531111205"><ele>243.0</ele><time>2026-04-18T11:27:20.999Z</time></trkpt><trkpt lat="45.01528942822152" lon="8.34146200776841"><ele>243.0</ele><time>2026-04-18T11:27:21.999Z</time></trkpt><trkpt lat="45.01545118858309" lon="8.34143943615664"><ele>243.0</ele><time>2026-04-18T11:27:22.999Z</time></trkpt><trkpt lat="45.01563283899456" lon="8.341396756914298"><ele>241.33333333333331</ele><time>2026-04-18T11:27:23.999Z</time></trkpt><trkpt lat="45.015805408652966" lon="8.341344015351263"><ele>239.66666666666666</ele><time>2026-04-18T11:27:24.999Z</time></trkpt><trkpt lat="45.015951392053374" lon="8.341319831434767"><ele>238.0</ele><time>2026-04-18T11:27:25.999Z</time></trkpt><trkpt lat="45.01608517814342" lon="8.341296608633101"><ele>238.0</ele><time>2026-04-18T11:27:26.999Z</time></trkpt><trkpt lat="45.01621812871985" lon="8.341274958332331"><ele>238.0</ele><time>2026-04-18T11:27:27.999Z</time></trkpt><trkpt lat="45.016348084827406" lon="8.341253666600794"><ele>238.0</ele><time>2026-04-18T11:27:28.999Z</time></trkpt><trkpt lat="45.016477706355886" lon="8.341230084277932"><ele>238.0</ele><time>2026-04-18T11:27:29.999Z</time></trkpt><trkpt lat="45.01661217790597" lon="8.341193103785969"><ele>239.25</ele><time>2026-04-18T11:27:30.999Z</time></trkpt><trkpt lat="45.016745133086864" lon="8.341131203368374"><ele>240.5</ele><time>2026-04-18T11:27:31.999Z</time></trkpt><trkpt lat="45.01687134827559" lon="8.341052128427664"><ele>241.75</ele><time>2026-04-18T11:27:32.999Z</time></trkpt><trkpt lat="45.01700057897863" lon="8.340961670681708"><ele>243.0</ele><time>2026-04-18T11:27:33.999Z</time></trkpt><trkpt lat="45.01712432778358" lon="8.340876019535244"><ele>243.0</ele><time>2026-04-18T11:27:35Z</time></trkpt><trkpt lat="45.01724097343193" lon="8.34079528139053"><ele>243.0</ele><time>2026-04-18T11:27:36Z</time></trkpt><trkpt lat="45.01734775905724" lon="8.340722525580528"><ele>243.0</ele><time>2026-04-18T11:27:37Z</time></trkpt><trkpt lat="45.01743823965316" lon="8.340696849652343"><ele>243.0</ele><time>2026-04-18T11:27:38Z</time></trkpt><trkpt lat="45.017503179159945" lon="8.340663708629037"><ele>243.0</ele><time>2026-04-18T11:27:39Z</time></trkpt><trkpt lat="45.01759194843372" lon="8.340843080388076"><ele>243.0</ele><time>2026-04-18T11:27:43.999Z</time></trkpt><trkpt lat="45.0176467100292" lon="8.340986437968654"><ele>243.0</ele><time>2026-04-18T11:27:46Z</time></trkpt><trkpt lat="45.01768033865531" lon="8.341062998775945"><ele>243.0</ele><time>2026-04-18T11:27:47Z</time></trkpt><trkpt lat="45.017719834763234" lon="8.341152917982535"><ele>243.0</ele><time>2026-04-18T11:27:48Z</time></trkpt><trkpt lat="45.01776284263946" lon="8.341250832225931"><ele>243.0</ele><time>2026-04-18T11:27:49Z</time></trkpt><trkpt lat="45.01781489118902" lon="8.341369328867293"><ele>243.0</ele><time>2026-04-18T11:27:50Z</time></trkpt><trkpt lat="45.01778976202945" lon="8.341525773392704"><ele>242.33333333333334</ele><time>2026-04-18T11:27:51Z</time></trkpt><trkpt lat="45.01781089074863" lon="8.341616719828739"><ele>241.66666666666669</ele><time>2026-04-18T11:27:52Z</time></trkpt><trkpt lat="45.017833779189495" lon="8.34173181101194"><ele>241.0</ele><time>2026-04-18T11:27:54Z</time></trkpt><trkpt lat="45.017863140573226" lon="8.341878359485762"><ele>240.33333333333334</ele><time>2026-04-18T11:27:57Z</time></trkpt><trkpt lat="45.01792537926369" lon="8.341975034641177"><ele>239.66666666666669</ele><time>2026-04-18T11:27:58Z</time></trkpt><trkpt lat="45.017976980303416" lon="8.342069636233186"><ele>239.0</ele><time>2026-04-18T11:27:59Z</time></trkpt><trkpt lat="45.01802705337753" lon="8.342131038863606"><ele>239.0</ele><time>2026-04-18T11:28:00Z</time></trkpt><trkpt lat="45.018089870584795" lon="8.342183762847416"><ele>238.99999999999997</ele><time>2026-04-18T11:28:01Z</time></trkpt><trkpt lat="45.01817603975986" lon="8.342252560543127"><ele>238.99999999999997</ele><time>2026-04-18T11:28:02Z</time></trkpt><trkpt lat="45.018271209562414" lon="8.342318280380644"><ele>239.0</ele><time>2026-04-18T11:28:03Z</time></trkpt><trkpt lat="45.018368117032175" lon="8.342390109339137"><ele>239.0</ele><time>2026-04-18T11:28:04Z</time></trkpt><trkpt lat="45.018460075594874" lon="8.342459644974912"><ele>237.2</ele><time>2026-04-18T11:28:05Z</time></trkpt><trkpt lat="45.0185677645075" lon="8.342528669018712"><ele>235.39999999999998</ele><time>2026-04-18T11:28:06Z</time></trkpt><trkpt lat="45.01868216242377" lon="8.342606704567942"><ele>233.6</ele><time>2026-04-18T11:28:07Z</time></trkpt><trkpt lat="45.018777084512614" lon="8.34268504202205"><ele>231.8</ele><time>2026-04-18T11:28:08Z</time></trkpt><trkpt lat="45.01885309352766" lon="8.342763925925073"><ele>230.0</ele><time>2026-04-18T11:28:09Z</time></trkpt><trkpt lat="45.01892267620251" lon="8.342845566467902"><ele>230.0</ele><time>2026-04-18T11:28:10Z</time></trkpt><trkpt lat="45.01898502890304" lon="8.342924865327062"><ele>230.0</ele><time>2026-04-18T11:28:11Z</time></trkpt><trkpt lat="45.01904439040595" lon="8.343024242737128"><ele>230.0</ele><time>2026-04-18T11:28:12Z</time></trkpt><trkpt lat="45.019084370855026" lon="8.343150024804821"><ele>230.0</ele><time>2026-04-18T11:28:13Z</time></trkpt><trkpt lat="45.01911059494703" lon="8.343303388631718"><ele>230.0</ele><time>2026-04-18T11:28:14Z</time></trkpt><trkpt lat="45.019142344157714" lon="8.343484915447792"><ele>229.75</ele><time>2026-04-18T11:28:15Z</time></trkpt><trkpt lat="45.019173170999785" lon="8.343658375329811"><ele>229.5</ele><time>2026-04-18T11:28:16Z</time></trkpt><trkpt lat="45.01920027052745" lon="8.343840943744068"><ele>229.25</ele><time>2026-04-18T11:28:17Z</time></trkpt><trkpt lat="45.01922372989624" lon="8.344009982993079"><ele>229.0</ele><time>2026-04-18T11:28:18Z</time></trkpt><trkpt lat="45.019235292089476" lon="8.34417586977769"><ele>228.79999999999998</ele><time>2026-04-18T11:28:19Z</time></trkpt><trkpt lat="45.0192414934031" lon="8.344311092574594"><ele>228.59999999999997</ele><time>2026-04-18T11:28:20Z</time></trkpt><trkpt lat="45.01924998386143" lon="8.344478733455311"><ele>228.4</ele><time>2026-04-18T11:28:21Z</time></trkpt><trkpt lat="45.01926047471412" lon="8.34465792628307"><ele>228.2</ele><time>2026-04-18T11:28:22Z</time></trkpt><trkpt lat="45.019279860765195" lon="8.344790797331568"><ele>228.0</ele><time>2026-04-18T11:28:23Z</time></trkpt><trkpt lat="45.0192939570333" lon="8.344972209159659"><ele>227.75</ele><time>2026-04-18T11:28:24Z</time></trkpt><trkpt lat="45.019306642767546" lon="8.345155971700546"><ele>227.5</ele><time>2026-04-18T11:28:25Z</time></trkpt><trkpt lat="45.01931071315353" lon="8.345331006832112"><ele>227.25</ele><time>2026-04-18T11:28:26Z</time></trkpt><trkpt lat="45.01931901998285" lon="8.345473097136367"><ele>227.0</ele><time>2026-04-18T11:28:27Z</time></trkpt><trkpt lat="45.019344784729455" lon="8.345631442113161"><ele>227.0</ele><time>2026-04-18T11:28:28Z</time></trkpt><trkpt lat="45.01937302058048" lon="8.34580387203614"><ele>227.0</ele><time>2026-04-18T11:28:29Z</time></trkpt><trkpt lat="45.0194089625915" lon="8.345969912170254"><ele>227.0</ele><time>2026-04-18T11:28:30Z</time></trkpt><trkpt lat="45.01944856659126" lon="8.346111318173534"><ele>227.0</ele><time>2026-04-18T11:28:31Z</time></trkpt><trkpt lat="45.01949314614197" lon="8.346226150091512"><ele>227.0</ele><time>2026-04-18T11:28:32Z</time></trkpt><trkpt lat="45.01955674483965" lon="8.346364181324187"><ele>226.5</ele><time>2026-04-18T11:28:33Z</time></trkpt><trkpt lat="45.01961448288569" lon="8.346500335409115"><ele>226.0</ele><time>2026-04-18T11:28:34Z</time></trkpt><trkpt lat="45.019679768197214" lon="8.346651590770716"><ele>225.5</ele><time>2026-04-18T11:28:35Z</time></trkpt><trkpt lat="45.01974277718527" lon="8.346802651901235"><ele>225.0</ele><time>2026-04-18T11:28:36Z</time></trkpt><trkpt lat="45.01980290448475" lon="8.346957502628296"><ele>225.0</ele><time>2026-04-18T11:28:37Z</time></trkpt><trkpt lat="45.01987028107738" lon="8.347113596711756"><ele>225.0</ele><time>2026-04-18T11:28:38Z</time></trkpt><trkpt lat="45.019941751289814" lon="8.3472671577734"><ele>225.0</ele><time>2026-04-18T11:28:39Z</time></trkpt><trkpt lat="45.019999485596564" lon="8.347397289523181"><ele>225.0</ele><time>2026-04-18T11:28:40Z</time></trkpt><trkpt lat="45.02006125629662" lon="8.347535217106365"><ele>226.6</ele><time>2026-04-18T11:28:41Z</time></trkpt><trkpt lat="45.02012321828097" lon="8.347658684949332"><ele>228.2</ele><time>2026-04-18T11:28:42Z</time></trkpt><trkpt lat="45.02017295458483" lon="8.347759986829011"><ele>229.8</ele><time>2026-04-18T11:28:42.999Z</time></trkpt><trkpt lat="45.02023691478253" lon="8.347840545752627"><ele>231.4</ele><time>2026-04-18T11:28:43.999Z</time></trkpt><trkpt lat="45.02032166463173" lon="8.34792459562944"><ele>233.0</ele><time>2026-04-18T11:28:44.999Z</time></trkpt><trkpt lat="45.020401156461936" lon="8.347981975924403"><ele>233.00000000000003</ele><time>2026-04-18T11:28:45.999Z</time></trkpt><trkpt lat="45.02047886805198" lon="8.348029707188024"><ele>233.0</ele><time>2026-04-18T11:28:46.999Z</time></trkpt><trkpt lat="45.02056400451518" lon="8.34807117494332"><ele>233.0</ele><time>2026-04-18T11:28:47.999Z</time></trkpt><trkpt lat="45.02064294959363" lon="8.348102078916169"><ele>233.0</ele><time>2026-04-18T11:28:48.999Z</time></trkpt><trkpt lat="45.02071954040293" lon="8.348138650786655"><ele>233.00000000000003</ele><time>2026-04-18T11:28:49.999Z</time></trkpt><trkpt lat="45.02079015185321" lon="8.348171234797608"><ele>233.0</ele><time>2026-04-18T11:28:50.999Z</time></trkpt><trkpt lat="45.02086629902838" lon="8.348165743226557"><ele>234.33333333333334</ele><time>2026-04-18T11:28:53.999Z</time></trkpt><trkpt lat="45.020901103841005" lon="8.34806284601831"><ele>235.66666666666669</ele><time>2026-04-18T11:28:55.999Z</time></trkpt><trkpt lat="45.02092782556709" lon="8.34791067265773"><ele>237.0</ele><time>2026-04-18T11:28:57.999Z</time></trkpt><trkpt lat="45.020964747563646" lon="8.347812231762752"><ele>238.33333333333331</ele><time>2026-04-18T11:28:58.999Z</time></trkpt><trkpt lat="45.02101380336374" lon="8.347718012799923"><ele>239.66666666666666</ele><time>2026-04-18T11:28:59.999Z</time></trkpt><trkpt lat="45.021057859747124" lon="8.347619142629977"><ele>241.0</ele><time>2026-04-18T11:29:00.999Z</time></trkpt><trkpt lat="45.0210936993328" lon="8.347512770970745"><ele>240.99999999999997</ele><time>2026-04-18T11:29:01.999Z</time></trkpt><trkpt lat="45.0211250464081" lon="8.34736866719576"><ele>241.0</ele><time>2026-04-18T11:29:03.999Z</time></trkpt><trkpt lat="45.0211412694124" lon="8.347268407642135"><ele>241.0</ele><time>2026-04-18T11:29:06.999Z</time></trkpt><trkpt lat="45.021163593644516" lon="8.347171150342227"><ele>241.0</ele><time>2026-04-18T11:29:10.999Z</time></trkpt><trkpt lat="45.021198432054774" lon="8.347076108399577"><ele>240.99999999999997</ele><time>2026-04-18T11:29:26.999Z</time></trkpt><trkpt lat="45.02122066170982" lon="8.34697420903474"><ele>241.0</ele><time>2026-04-18T11:29:27.999Z</time></trkpt><trkpt lat="45.0212470169331" lon="8.34685339781272"><ele>241.60000000000002</ele><time>2026-04-18T11:29:28.999Z</time></trkpt><trkpt lat="45.021272730089784" lon="8.346735530101508"><ele>242.20000000000002</ele><time>2026-04-18T11:29:29.999Z</time></trkpt><trkpt lat="45.02130390152328" lon="8.346592641474741"><ele>242.79999999999998</ele><time>2026-04-18T11:29:30.999Z</time></trkpt><trkpt lat="45.021342510100716" lon="8.346415649734146"><ele>243.39999999999998</ele><time>2026-04-18T11:29:31.999Z</time></trkpt><trkpt lat="45.021379406761874" lon="8.346246477141879"><ele>244.0</ele><time>2026-04-18T11:29:32.999Z</time></trkpt><trkpt lat="45.0214102483833" lon="8.346109783753707"><ele>244.16666666666666</ele><time>2026-04-18T11:29:33.999Z</time></trkpt><trkpt lat="45.021430715298145" lon="8.345981624131866"><ele>244.33333333333331</ele><time>2026-04-18T11:29:34.999Z</time></trkpt><trkpt lat="45.021458210940295" lon="8.34584350012138"><ele>244.5</ele><time>2026-04-18T11:29:35.999Z</time></trkpt><trkpt lat="45.021487414791814" lon="8.345735651006201"><ele>244.66666666666669</ele><time>2026-04-18T11:29:36.999Z</time></trkpt><trkpt lat="45.02151985772336" lon="8.345628343010572"><ele>244.83333333333334</ele><time>2026-04-18T11:29:38.998Z</time></trkpt><trkpt lat="45.02155219811828" lon="8.345515145615563"><ele>245.0</ele><time>2026-04-18T11:29:41.999Z</time></trkpt><trkpt lat="45.0216027662536" lon="8.345330316897734"><ele>245.2</ele><time>2026-04-18T11:29:43.999Z</time></trkpt><trkpt lat="45.02163778898643" lon="8.34521317097317"><ele>245.4</ele><time>2026-04-18T11:29:44.999Z</time></trkpt><trkpt lat="45.021678675120164" lon="8.345082685099383"><ele>245.60000000000002</ele><time>2026-04-18T11:29:45.999Z</time></trkpt><trkpt lat="45.02171020021408" lon="8.344978878765124"><ele>245.8</ele><time>2026-04-18T11:29:46.999Z</time></trkpt><trkpt lat="45.021760501637175" lon="8.34489489099868"><ele>246.0</ele><time>2026-04-18T11:29:48.999Z</time></trkpt><trkpt lat="45.02193249489998" lon="8.344962727748959"><ele>246.5</ele><time>2026-04-18T11:29:54.999Z</time></trkpt><trkpt lat="45.02199943243376" lon="8.344960968255986"><ele>247.0</ele><time>2026-04-18T11:29:55.999Z</time></trkpt><trkpt lat="45.02208421841921" lon="8.344963993845603"><ele>247.5</ele><time>2026-04-18T11:29:56.999Z</time></trkpt><trkpt lat="45.02216764901019" lon="8.344954321068334"><ele>248.0</ele><time>2026-04-18T11:29:57.999Z</time></trkpt><trkpt lat="45.02224895765808" lon="8.344938440181"><ele>248.5</ele><time>2026-04-18T11:29:58.999Z</time></trkpt><trkpt lat="45.02233156149496" lon="8.344917813165065"><ele>249.0</ele><time>2026-04-18T11:29:59.999Z</time></trkpt><trkpt lat="45.02243659672311" lon="8.344888280858685"><ele>248.5</ele><time>2026-04-18T11:30:00.999Z</time></trkpt><trkpt lat="45.02255319989487" lon="8.34485275965872"><ele>248.0</ele><time>2026-04-18T11:30:01.999Z</time></trkpt><trkpt lat="45.02267155369129" lon="8.34481645547515"><ele>247.5</ele><time>2026-04-18T11:30:02.999Z</time></trkpt><trkpt lat="45.02279311683881" lon="8.344778720639683"><ele>247.0</ele><time>2026-04-18T11:30:03.999Z</time></trkpt><trkpt lat="45.02290576986312" lon="8.344736704439823"><ele>249.2</ele><time>2026-04-18T11:30:04.999Z</time></trkpt><trkpt lat="45.02301238744712" lon="8.344700086341385"><ele>251.39999999999998</ele><time>2026-04-18T11:30:05.999Z</time></trkpt><trkpt lat="45.023101827930326" lon="8.344671094141315"><ele>253.60000000000002</ele><time>2026-04-18T11:30:06.999Z</time></trkpt><trkpt lat="45.023185729558364" lon="8.344646450511515"><ele>255.8</ele><time>2026-04-18T11:30:07.999Z</time></trkpt><trkpt lat="45.02330534577146" lon="8.344622436515051"><ele>258.0</ele><time>2026-04-18T11:30:08.999Z</time></trkpt><trkpt lat="45.02343032236223" lon="8.344592785150516"><ele>258.0</ele><time>2026-04-18T11:30:09.999Z</time></trkpt><trkpt lat="45.02355636542288" lon="8.344564614848753"><ele>258.0</ele><time>2026-04-18T11:30:10.999Z</time></trkpt><trkpt lat="45.02367990240042" lon="8.344537377918838"><ele>258.0</ele><time>2026-04-18T11:30:11.999Z</time></trkpt><trkpt lat="45.02379495775145" lon="8.344505797604814"><ele>258.0</ele><time>2026-04-18T11:30:12.999Z</time></trkpt><trkpt lat="45.02391418168154" lon="8.344471081045201"><ele>258.0</ele><time>2026-04-18T11:30:13.999Z</time></trkpt><trkpt lat="45.02402992862905" lon="8.344435559150739"><ele>258.0</ele><time>2026-04-18T11:30:14.999Z</time></trkpt><trkpt lat="45.02414035393605" lon="8.344401943397374"><ele>258.0</ele><time>2026-04-18T11:30:15.999Z</time></trkpt><trkpt lat="45.0242578837593" lon="8.344367064364926"><ele>258.0</ele><time>2026-04-18T11:30:16.999Z</time></trkpt><trkpt lat="45.024377810622944" lon="8.344337870715375"><ele>257.0</ele><time>2026-04-18T11:30:17.999Z</time></trkpt><trkpt lat="45.02449405037884" lon="8.344316930024632"><ele>256.0</ele><time>2026-04-18T11:30:18.999Z</time></trkpt><trkpt lat="45.02459390056992" lon="8.34429927598779"><ele>255.0</ele><time>2026-04-18T11:30:19.999Z</time></trkpt><trkpt lat="45.024692530860754" lon="8.344274043964518"><ele>254.0</ele><time>2026-04-18T11:30:20.999Z</time></trkpt><trkpt lat="45.024793338821006" lon="8.344225992327825"><ele>253.0</ele><time>2026-04-18T11:30:21.999Z</time></trkpt><trkpt lat="45.02489586563785" lon="8.34415641901228"><ele>252.60000000000002</ele><time>2026-04-18T11:30:22.999Z</time></trkpt><trkpt lat="45.024995125059405" lon="8.344085772949976"><ele>252.20000000000002</ele><time>2026-04-18T11:30:23.999Z</time></trkpt><trkpt lat="45.02508289916923" lon="8.344028377391641"><ele>251.8</ele><time>2026-04-18T11:30:24.999Z</time></trkpt><trkpt lat="45.02518834197463" lon="8.343976560516206"><ele>251.4</ele><time>2026-04-18T11:30:25.999Z</time></trkpt><trkpt lat="45.025302590031636" lon="8.34392267192956"><ele>251.0</ele><time>2026-04-18T11:30:26.999Z</time></trkpt><trkpt lat="45.02540994027459" lon="8.343866017509809"><ele>253.4</ele><time>2026-04-18T11:30:27.999Z</time></trkpt><trkpt lat="45.02550925035695" lon="8.343797853051768"><ele>255.8</ele><time>2026-04-18T11:30:28.999Z</time></trkpt><trkpt lat="45.025579601405504" lon="8.343719203043516"><ele>258.20000000000005</ele><time>2026-04-18T11:30:29.999Z</time></trkpt><trkpt lat="45.025644688324036" lon="8.343622152814936"><ele>260.6</ele><time>2026-04-18T11:30:30.999Z</time></trkpt><trkpt lat="45.02570673345" lon="8.343505102500119"><ele>263.0</ele><time>2026-04-18T11:30:31.999Z</time></trkpt><trkpt lat="45.02574150203647" lon="8.343410478978976"><ele>263.0</ele><time>2026-04-18T11:30:32.999Z</time></trkpt><trkpt lat="45.02576445214688" lon="8.343294322533541"><ele>263.0</ele><time>2026-04-18T11:30:33.999Z</time></trkpt><trkpt lat="45.025777646350804" lon="8.343170680403494"><ele>263.0</ele><time>2026-04-18T11:30:34.999Z</time></trkpt><trkpt lat="45.025811608326435" lon="8.343063085231753"><ele>263.0</ele><time>2026-04-18T11:30:36.999Z</time></trkpt><trkpt lat="45.02590679875734" lon="8.34296010489172"><ele>263.0</ele><time>2026-04-18T11:30:38.999Z</time></trkpt><trkpt lat="45.02596727479591" lon="8.342896333718475"><ele>262.8</ele><time>2026-04-18T11:30:39.999Z</time></trkpt><trkpt lat="45.02603024726177" lon="8.342807587247417"><ele>262.6</ele><time>2026-04-18T11:30:40.999Z</time></trkpt><trkpt lat="45.02610693793189" lon="8.34269064577627"><ele>262.4</ele><time>2026-04-18T11:30:41.999Z</time></trkpt><trkpt lat="45.0261880739264" lon="8.342566048187313"><ele>262.2</ele><time>2026-04-18T11:30:42.999Z</time></trkpt><trkpt lat="45.026269988894626" lon="8.34243248151967"><ele>262.0</ele><time>2026-04-18T11:30:43.999Z</time></trkpt><trkpt lat="45.02634383932313" lon="8.342299229393099"><ele>261.4</ele><time>2026-04-18T11:30:44.999Z</time></trkpt><trkpt lat="45.026403414976635" lon="8.342185290001689"><ele>260.79999999999995</ele><time>2026-04-18T11:30:45.999Z</time></trkpt><trkpt lat="45.02645707902422" lon="8.342089000582497"><ele>260.2</ele><time>2026-04-18T11:30:46.999Z</time></trkpt><trkpt lat="45.02652731099489" lon="8.341972376069227"><ele>259.59999999999997</ele><time>2026-04-18T11:30:47.999Z</time></trkpt><trkpt lat="45.026603426243064" lon="8.341863319833719"><ele>259.0</ele><time>2026-04-18T11:30:48.999Z</time></trkpt><trkpt lat="45.026675961674655" lon="8.341792632141694"><ele>258.8</ele><time>2026-04-18T11:30:49.999Z</time></trkpt><trkpt lat="45.026760922345574" lon="8.34173885762328"><ele>258.59999999999997</ele><time>2026-04-18T11:30:50.999Z</time></trkpt><trkpt lat="45.02684322069991" lon="8.34168501963895"><ele>258.4</ele><time>2026-04-18T11:30:51.999Z</time></trkpt><trkpt lat="45.02693441882472" lon="8.34160274499746"><ele>258.2</ele><time>2026-04-18T11:30:52.999Z</time></trkpt><trkpt lat="45.02704521221877" lon="8.341485207880082"><ele>258.0</ele><time>2026-04-18T11:30:53.999Z</time></trkpt><trkpt lat="45.02718914328288" lon="8.341310534857328"><ele>258.0</ele><time>2026-04-18T11:30:54.999Z</time></trkpt><trkpt lat="45.027343932990924" lon="8.34113617238453"><ele>258.0</ele><time>2026-04-18T11:30:55.999Z</time></trkpt><trkpt lat="45.02738849270704" lon="8.340983157205692"><ele>258.0</ele><time>2026-04-18T11:30:57.999Z</time></trkpt><trkpt lat="45.027484724498585" lon="8.340906150010078"><ele>258.0</ele><time>2026-04-18T11:30:58.999Z</time></trkpt><trkpt lat="45.027573399059044" lon="8.340830468395385"><ele>259.8</ele><time>2026-04-18T11:30:59.999Z</time></trkpt><trkpt lat="45.027627952308336" lon="8.340753580306938"><ele>261.6</ele><time>2026-04-18T11:31:00.999Z</time></trkpt><trkpt lat="45.02767036796063" lon="8.340638523358594"><ele>263.4</ele><time>2026-04-18T11:31:01.999Z</time></trkpt><trkpt lat="45.02769916395171" lon="8.340505201368268"><ele>265.2</ele><time>2026-04-18T11:31:02.999Z</time></trkpt><trkpt lat="45.02774674918067" lon="8.34031404662058"><ele>267.0</ele><time>2026-04-18T11:31:03.999Z</time></trkpt><trkpt lat="45.02782065748638" lon="8.340141842222508"><ele>267.3333333333333</ele><time>2026-04-18T11:31:04.999Z</time></trkpt><trkpt lat="45.0278623114538" lon="8.340033779637999"><ele>267.6666666666667</ele><time>2026-04-18T11:31:05.999Z</time></trkpt><trkpt lat="45.02794682048966" lon="8.339894167337935"><ele>268.0</ele><time>2026-04-18T11:31:07.999Z</time></trkpt><trkpt lat="45.027906637958715" lon="8.33997974773783"><ele>268.33333333333337</ele><time>2026-04-18T11:31:34.999Z</time></trkpt><trkpt lat="45.027970096523624" lon="8.339997955058367"><ele>268.6666666666667</ele><time>2026-04-18T11:31:36.999Z</time></trkpt><trkpt lat="45.02796324131176" lon="8.339893276432635"><ele>269.0</ele><time>2026-04-18T11:31:37.999Z</time></trkpt><trkpt lat="45.02799365831472" lon="8.339751238345665"><ele>267.4</ele><time>2026-04-18T11:31:39.999Z</time></trkpt><trkpt lat="45.028048318073914" lon="8.33963336709071"><ele>265.79999999999995</ele><time>2026-04-18T11:31:41.999Z</time></trkpt><trkpt lat="45.028097117568315" lon="8.339564673558446"><ele>264.20000000000005</ele><time>2026-04-18T11:31:42.999Z</time></trkpt><trkpt lat="45.02814850984181" lon="8.33942896299506"><ele>262.6</ele><time>2026-04-18T11:31:43.999Z</time></trkpt><trkpt lat="45.02819391544735" lon="8.339352473407098"><ele>261.0</ele><time>2026-04-18T11:31:44.999Z</time></trkpt><trkpt lat="45.028278707275255" lon="8.339221096483342"><ele>261.6</ele><time>2026-04-18T11:31:47Z</time></trkpt><trkpt lat="45.028355028834085" lon="8.339086490768576"><ele>262.20000000000005</ele><time>2026-04-18T11:31:48Z</time></trkpt><trkpt lat="45.02842409688798" lon="8.338934015944394"><ele>262.79999999999995</ele><time>2026-04-18T11:31:51Z</time></trkpt><trkpt lat="45.02846051355804" lon="8.338858335066194"><ele>263.4</ele><time>2026-04-18T11:31:52Z</time></trkpt><trkpt lat="45.02851500838792" lon="8.338711494324793"><ele>264.0</ele><time>2026-04-18T11:31:54Z</time></trkpt><trkpt lat="45.02858153471277" lon="8.33856730597222"><ele>264.0</ele><time>2026-04-18T11:31:56Z</time></trkpt><trkpt lat="45.02860961526247" lon="8.338485841914357"><ele>264.0</ele><time>2026-04-18T11:31:57Z</time></trkpt><trkpt lat="45.02863680568365" lon="8.338384373315396"><ele>264.0</ele><time>2026-04-18T11:31:58Z</time></trkpt><trkpt lat="45.028673354353245" lon="8.338269401498197"><ele>264.0</ele><time>2026-04-18T11:31:59Z</time></trkpt><trkpt lat="45.02870330766475" lon="8.33814852538397"><ele>264.0</ele><time>2026-04-18T11:32:00Z</time></trkpt><trkpt lat="45.02872959408688" lon="8.338020320485489"><ele>264.0</ele><time>2026-04-18T11:32:01Z</time></trkpt><trkpt lat="45.0287606194542" lon="8.337899587753672"><ele>261.8</ele><time>2026-04-18T11:32:02Z</time></trkpt><trkpt lat="45.02878619378691" lon="8.337767128635065"><ele>259.59999999999997</ele><time>2026-04-18T11:32:03Z</time></trkpt><trkpt lat="45.02882397477709" lon="8.337638092090671"><ele>257.4</ele><time>2026-04-18T11:32:04Z</time></trkpt><trkpt lat="45.02884833989336" lon="8.337534023741735"><ele>255.2</ele><time>2026-04-18T11:32:05Z</time></trkpt><trkpt lat="45.02888309781066" lon="8.337347786046847"><ele>253.0</ele><time>2026-04-18T11:32:07Z</time></trkpt><trkpt lat="45.0289451689843" lon="8.337235433781922"><ele>251.0</ele><time>2026-04-18T11:32:08Z</time></trkpt><trkpt lat="45.028973526485316" lon="8.337128384508944"><ele>249.0</ele><time>2026-04-18T11:32:09Z</time></trkpt><trkpt lat="45.02901441454074" lon="8.337003915007111"><ele>247.0</ele><time>2026-04-18T11:32:10Z</time></trkpt><trkpt lat="45.029053622164035" lon="8.33686211027521"><ele>245.0</ele><time>2026-04-18T11:32:11Z</time></trkpt><trkpt lat="45.029098345977786" lon="8.336703051764223"><ele>243.0</ele><time>2026-04-18T11:32:12Z</time></trkpt><trkpt lat="45.02910927202131" lon="8.336571959149117"><ele>245.0</ele><time>2026-04-18T11:32:13Z</time></trkpt><trkpt lat="45.02914469670528" lon="8.336381896516773"><ele>247.0</ele><time>2026-04-18T11:32:15Z</time></trkpt><trkpt lat="45.02915987531799" lon="8.336246916034124"><ele>249.0</ele><time>2026-04-18T11:32:16Z</time></trkpt><trkpt lat="45.029189619409216" lon="8.336103189587634"><ele>251.0</ele><time>2026-04-18T11:32:17Z</time></trkpt><trkpt lat="45.029232906896624" lon="8.335946792256841"><ele>251.0</ele><time>2026-04-18T11:32:18Z</time></trkpt><trkpt lat="45.02924160280768" lon="8.33582663618029"><ele>251.00000000000003</ele><time>2026-04-18T11:32:19Z</time></trkpt><trkpt lat="45.02925991865315" lon="8.335639343652863"><ele>251.00000000000003</ele><time>2026-04-18T11:32:21Z</time></trkpt><trkpt lat="45.0293081967853" lon="8.335516082970544"><ele>251.0</ele><time>2026-04-18T11:32:23Z</time></trkpt><trkpt lat="45.029372405180894" lon="8.335374937727638"><ele>251.0</ele><time>2026-04-18T11:32:25Z</time></trkpt><trkpt lat="45.02941354146543" lon="8.33528704322318"><ele>250.0</ele><time>2026-04-18T11:32:26Z</time></trkpt><trkpt lat="45.02940615764338" lon="8.335140662604642"><ele>249.00000000000003</ele><time>2026-04-18T11:32:28Z</time></trkpt><trkpt lat="45.02940496812517" lon="8.335003265411217"><ele>248.00000000000003</ele><time>2026-04-18T11:32:30Z</time></trkpt><trkpt lat="45.02943272232484" lon="8.334828674944038"><ele>247.0</ele><time>2026-04-18T11:32:32Z</time></trkpt><trkpt lat="45.029472424236374" lon="8.334678016319273"><ele>246.0</ele><time>2026-04-18T11:32:34Z</time></trkpt><trkpt lat="45.0295310448257" lon="8.334572863613305"><ele>245.5</ele><time>2026-04-18T11:32:50.999Z</time></trkpt><trkpt lat="45.0295683184749" lon="8.334480424018865"><ele>245.0</ele><time>2026-04-18T11:32:51.999Z</time></trkpt><trkpt lat="45.02960479503045" lon="8.334365871589132"><ele>244.5</ele><time>2026-04-18T11:32:52.999Z</time></trkpt><trkpt lat="45.0296485684406" lon="8.334244251000204"><ele>244.0</ele><time>2026-04-18T11:32:53.999Z</time></trkpt><trkpt lat="45.029692079901174" lon="8.334116107109512"><ele>243.5</ele><time>2026-04-18T11:32:54.999Z</time></trkpt><trkpt lat="45.02973474911446" lon="8.334024083722259"><ele>243.0</ele><time>2026-04-18T11:32:55.999Z</time></trkpt><trkpt lat="45.02976752669111" lon="8.333923380455248"><ele>242.5</ele><time>2026-04-18T11:32:56.999Z</time></trkpt><trkpt lat="45.02980941218543" lon="8.333819413559283"><ele>242.0</ele><time>2026-04-18T11:32:57.999Z</time></trkpt><trkpt lat="45.02984659106777" lon="8.333727217746754"><ele>241.5</ele><time>2026-04-18T11:32:58.999Z</time></trkpt><trkpt lat="45.0299062412707" lon="8.333573342130409"><ele>241.0</ele><time>2026-04-18T11:33:00.999Z</time></trkpt><trkpt lat="45.02994342521081" lon="8.333488134221485"><ele>240.5</ele><time>2026-04-18T11:33:01.999Z</time></trkpt><trkpt lat="45.02998052107469" lon="8.333395823091061"><ele>240.0</ele><time>2026-04-18T11:33:02.999Z</time></trkpt><trkpt lat="45.030019410278186" lon="8.33330966464971"><ele>242.6</ele><time>2026-04-18T11:33:03.999Z</time></trkpt><trkpt lat="45.03005984753041" lon="8.333231119096684"><ele>245.2</ele><time>2026-04-18T11:33:04.999Z</time></trkpt><trkpt lat="45.03015329812923" lon="8.333132314434472"><ele>247.8</ele><time>2026-04-18T11:33:06.999Z</time></trkpt><trkpt lat="45.030283267745574" lon="8.333079194961979"><ele>250.4</ele><time>2026-04-18T11:33:08.999Z</time></trkpt><trkpt lat="45.03040388300333" lon="8.333052033258184"><ele>253.0</ele><time>2026-04-18T11:33:09.999Z</time></trkpt><trkpt lat="45.03053343134914" lon="8.333008136976638"><ele>253.0</ele><time>2026-04-18T11:33:10.999Z</time></trkpt><trkpt lat="45.03064385430887" lon="8.332984103620957"><ele>253.0</ele><time>2026-04-18T11:33:11.999Z</time></trkpt><trkpt lat="45.03071091873059" lon="8.332937526326875"><ele>253.0</ele><time>2026-04-18T11:33:12.999Z</time></trkpt><trkpt lat="45.0307997793589" lon="8.33288130338439"><ele>253.0</ele><time>2026-04-18T11:33:13.999Z</time></trkpt><trkpt lat="45.03092794503941" lon="8.33281761669412"><ele>253.0</ele><time>2026-04-18T11:33:14.999Z</time></trkpt><trkpt lat="45.03104826761103" lon="8.332752963934675"><ele>255.33333333333331</ele><time>2026-04-18T11:33:15.999Z</time></trkpt><trkpt lat="45.031144031400494" lon="8.332683884996046"><ele>257.66666666666663</ele><time>2026-04-18T11:33:16.999Z</time></trkpt><trkpt lat="45.03120730504796" lon="8.332623349701533"><ele>260.0</ele><time>2026-04-18T11:33:17.999Z</time></trkpt><trkpt lat="45.031252916464496" lon="8.332557056407282"><ele>262.3333333333333</ele><time>2026-04-18T11:33:18.999Z</time></trkpt><trkpt lat="45.03131578272124" lon="8.332463059900066"><ele>264.6666666666667</ele><time>2026-04-18T11:33:19.999Z</time></trkpt><trkpt lat="45.03137640075373" lon="8.332356392603948"><ele>267.0</ele><time>2026-04-18T11:33:20.999Z</time></trkpt><trkpt lat="45.03142284059676" lon="8.332261486617847"><ele>266.8</ele><time>2026-04-18T11:33:21.999Z</time></trkpt><trkpt lat="45.03147023277688" lon="8.33214564968777"><ele>266.6</ele><time>2026-04-18T11:33:22.999Z</time></trkpt><trkpt lat="45.03150181604602" lon="8.332042667408023"><ele>266.40000000000003</ele><time>2026-04-18T11:33:23.999Z</time></trkpt><trkpt lat="45.0315227855162" lon="8.33192149378223"><ele>266.2</ele><time>2026-04-18T11:33:24.999Z</time></trkpt><trkpt lat="45.0315412814233" lon="8.331773889607502"><ele>266.0</ele><time>2026-04-18T11:33:25.999Z</time></trkpt><trkpt lat="45.03156162596018" lon="8.3316418270873"><ele>266.0</ele><time>2026-04-18T11:33:26.999Z</time></trkpt><trkpt lat="45.031582340664826" lon="8.331507204288817"><ele>266.0</ele><time>2026-04-18T11:33:27.999Z</time></trkpt><trkpt lat="45.03160199670967" lon="8.331399420095433"><ele>266.0</ele><time>2026-04-18T11:33:28.999Z</time></trkpt><trkpt lat="45.03161963246785" lon="8.331292059271375"><ele>266.0</ele><time>2026-04-18T11:33:29.999Z</time></trkpt><trkpt lat="45.03164060406917" lon="8.3311688248773"><ele>266.0</ele><time>2026-04-18T11:33:30.999Z</time></trkpt><trkpt lat="45.03166197827327" lon="8.331039138974424"><ele>266.0</ele><time>2026-04-18T11:33:31.999Z</time></trkpt><trkpt lat="45.031683499133564" lon="8.330895115636244"><ele>267.40000000000003</ele><time>2026-04-18T11:33:32.999Z</time></trkpt><trkpt lat="45.03170775126389" lon="8.33074196676039"><ele>268.8</ele><time>2026-04-18T11:33:33.999Z</time></trkpt><trkpt lat="45.03172710921956" lon="8.330610612812723"><ele>270.20000000000005</ele><time>2026-04-18T11:33:34.999Z</time></trkpt><trkpt lat="45.03174502241135" lon="8.330483109529174"><ele>271.6</ele><time>2026-04-18T11:33:35.999Z</time></trkpt><trkpt lat="45.031766818094745" lon="8.330361712038988"><ele>273.0</ele><time>2026-04-18T11:33:36.999Z</time></trkpt><trkpt lat="45.03179419459291" lon="8.33027449084708"><ele>273.0</ele><time>2026-04-18T11:33:37.999Z</time></trkpt><trkpt lat="45.031831814202214" lon="8.330193598852416"><ele>273.0</ele><time>2026-04-18T11:33:38.999Z</time></trkpt><trkpt lat="45.03188894572308" lon="8.330110022648455"><ele>273.0</ele><time>2026-04-18T11:33:39.999Z</time></trkpt><trkpt lat="45.03195050261378" lon="8.33000994793594"><ele>273.0</ele><time>2026-04-18T11:33:40.999Z</time></trkpt><trkpt lat="45.03202881520681" lon="8.329899499430331"><ele>273.0</ele><time>2026-04-18T11:33:41.999Z</time></trkpt><trkpt lat="45.03210055846865" lon="8.329800462339353"><ele>273.0</ele><time>2026-04-18T11:33:42.999Z</time></trkpt><trkpt lat="45.0321694932688" lon="8.32971852868247"><ele>273.0</ele><time>2026-04-18T11:33:43.999Z</time></trkpt><trkpt lat="45.032229493679594" lon="8.329657368230668"><ele>273.0</ele><time>2026-04-18T11:33:44.999Z</time></trkpt><trkpt lat="45.03228424418131" lon="8.32960991108161"><ele>273.0</ele><time>2026-04-18T11:33:45.999Z</time></trkpt><trkpt lat="45.032347459076355" lon="8.329575444321618"><ele>273.0</ele><time>2026-04-18T11:33:46.999Z</time></trkpt><trkpt lat="45.03242071082572" lon="8.329554098371055"><ele>273.0</ele><time>2026-04-18T11:33:47.999Z</time></trkpt><trkpt lat="45.03249928798609" lon="8.329530774532753"><ele>274.6</ele><time>2026-04-18T11:33:48.999Z</time></trkpt><trkpt lat="45.032583127058366" lon="8.329507355980637"><ele>276.20000000000005</ele><time>2026-04-18T11:33:49.999Z</time></trkpt><trkpt lat="45.032673249527136" lon="8.329471977146815"><ele>277.8</ele><time>2026-04-18T11:33:50.999Z</time></trkpt><trkpt lat="45.03276958723073" lon="8.329425981827713"><ele>279.40000000000003</ele><time>2026-04-18T11:33:52Z</time></trkpt><trkpt lat="45.03288780074197" lon="8.329367208898987"><ele>281.0</ele><time>2026-04-18T11:33:53Z</time></trkpt><trkpt lat="45.03300599838573" lon="8.329304745478172"><ele>281.0</ele><time>2026-04-18T11:33:54Z</time></trkpt><trkpt lat="45.03311486492444" lon="8.329254313756783"><ele>281.0</ele><time>2026-04-18T11:33:55Z</time></trkpt><trkpt lat="45.03321107195112" lon="8.329216465015804"><ele>281.0</ele><time>2026-04-18T11:33:56Z</time></trkpt><trkpt lat="45.03329328362119" lon="8.32917364095446"><ele>281.0</ele><time>2026-04-18T11:33:57Z</time></trkpt><trkpt lat="45.033384611172394" lon="8.329108375492993"><ele>281.0</ele><time>2026-04-18T11:33:58Z</time></trkpt><trkpt lat="45.033468055120736" lon="8.32903521766001"><ele>282.25</ele><time>2026-04-18T11:33:59Z</time></trkpt><trkpt lat="45.0334978361258" lon="8.328871486314258"><ele>283.5</ele><time>2026-04-18T11:34:00Z</time></trkpt><trkpt lat="45.03361568365187" lon="8.328804755588488"><ele>284.75</ele><time>2026-04-18T11:34:02Z</time></trkpt><trkpt lat="45.03370149563977" lon="8.328713182182177"><ele>286.0</ele><time>2026-04-18T11:34:03Z</time></trkpt><trkpt lat="45.03378716982085" lon="8.328565584304876"><ele>286.0</ele><time>2026-04-18T11:34:04Z</time></trkpt><trkpt lat="45.03384123040684" lon="8.3284200320722"><ele>286.0</ele><time>2026-04-18T11:34:05Z</time></trkpt><trkpt lat="45.03388481189442" lon="8.328296031697242"><ele>286.0</ele><time>2026-04-18T11:34:06Z</time></trkpt><trkpt lat="45.033930936419125" lon="8.3281531630447"><ele>286.0</ele><time>2026-04-18T11:34:07Z</time></trkpt><trkpt lat="45.03398167045699" lon="8.328004650689703"><ele>286.0</ele><time>2026-04-18T11:34:08Z</time></trkpt><trkpt lat="45.03403506148412" lon="8.327876520972413"><ele>284.40000000000003</ele><time>2026-04-18T11:34:09Z</time></trkpt><trkpt lat="45.03409905124827" lon="8.327774153895811"><ele>282.8</ele><time>2026-04-18T11:34:10Z</time></trkpt><trkpt lat="45.03418548793043" lon="8.32767125569969"><ele>281.20000000000005</ele><time>2026-04-18T11:34:11Z</time></trkpt><trkpt lat="45.0342740880234" lon="8.327573820676779"><ele>279.6</ele><time>2026-04-18T11:34:12Z</time></trkpt><trkpt lat="45.03435579589153" lon="8.327487709205384"><ele>278.0</ele><time>2026-04-18T11:34:13Z</time></trkpt><trkpt lat="45.034423111272595" lon="8.327420450097662"><ele>278.0</ele><time>2026-04-18T11:34:14Z</time></trkpt><trkpt lat="45.03449241922457" lon="8.32735550047872"><ele>278.0</ele><time>2026-04-18T11:34:15Z</time></trkpt><trkpt lat="45.034577596255495" lon="8.327287634166701"><ele>278.0</ele><time>2026-04-18T11:34:16Z</time></trkpt><trkpt lat="45.03467102700261" lon="8.327238107127467"><ele>278.0</ele><time>2026-04-18T11:34:17Z</time></trkpt><trkpt lat="45.034749712393214" lon="8.327208035592234"><ele>278.0</ele><time>2026-04-18T11:34:18Z</time></trkpt><trkpt lat="45.03483476966136" lon="8.327173374883346"><ele>276.4</ele><time>2026-04-18T11:34:19Z</time></trkpt><trkpt lat="45.03491864102128" lon="8.327130297357016"><ele>274.8</ele><time>2026-04-18T11:34:20Z</time></trkpt><trkpt lat="45.03499083852895" lon="8.327076611918645"><ele>273.2</ele><time>2026-04-18T11:34:21Z</time></trkpt><trkpt lat="45.035055745221776" lon="8.326999464201664"><ele>271.6</ele><time>2026-04-18T11:34:22Z</time></trkpt><trkpt lat="45.03512705680156" lon="8.326872924803768"><ele>270.0</ele><time>2026-04-18T11:34:23Z</time></trkpt><trkpt lat="45.03522855503264" lon="8.326793105938384"><ele>270.0</ele><time>2026-04-18T11:34:24Z</time></trkpt><trkpt lat="45.035304600465636" lon="8.326704193049729"><ele>270.0</ele><time>2026-04-18T11:34:25Z</time></trkpt><trkpt lat="45.03537991459103" lon="8.326635958533958"><ele>270.0</ele><time>2026-04-18T11:34:26Z</time></trkpt><trkpt lat="45.03546061346924" lon="8.326539086777668"><ele>270.0</ele><time>2026-04-18T11:34:27Z</time></trkpt><trkpt lat="45.03553375402959" lon="8.326443493093933"><ele>270.0</ele><time>2026-04-18T11:34:28Z</time></trkpt><trkpt lat="45.03559862837503" lon="8.326368710022573"><ele>269.1666666666667</ele><time>2026-04-18T11:34:29Z</time></trkpt><trkpt lat="45.0356588199631" lon="8.326298847712849"><ele>268.3333333333333</ele><time>2026-04-18T11:34:30Z</time></trkpt><trkpt lat="45.03573412515197" lon="8.326255705758157"><ele>267.5</ele><time>2026-04-18T11:34:31Z</time></trkpt><trkpt lat="45.035791971039124" lon="8.32621089489843"><ele>266.66666666666663</ele><time>2026-04-18T11:34:32Z</time></trkpt><trkpt lat="45.035870307582876" lon="8.326167475227791"><ele>265.8333333333333</ele><time>2026-04-18T11:34:33Z</time></trkpt><trkpt lat="45.03594795203879" lon="8.32616851535868"><ele>265.0</ele><time>2026-04-18T11:34:34Z</time></trkpt><trkpt lat="45.03603923226544" lon="8.32616389137508"><ele>265.0</ele><time>2026-04-18T11:34:35Z</time></trkpt><trkpt lat="45.03611468359436" lon="8.326143343109356"><ele>265.0</ele><time>2026-04-18T11:34:36Z</time></trkpt><trkpt lat="45.03619060408291" lon="8.32614062757838"><ele>265.0</ele><time>2026-04-18T11:34:37Z</time></trkpt><trkpt lat="45.036260927209604" lon="8.326148859492282"><ele>265.0</ele><time>2026-04-18T11:34:38Z</time></trkpt><trkpt lat="45.03633025486952" lon="8.326146796125894"><ele>265.0</ele><time>2026-04-18T11:34:39Z</time></trkpt><trkpt lat="45.03644236889127" lon="8.326091751417831"><ele>265.0</ele><time>2026-04-18T11:34:41Z</time></trkpt><trkpt lat="45.03650011791884" lon="8.326017417020715"><ele>265.0</ele><time>2026-04-18T11:34:42Z</time></trkpt><trkpt lat="45.03654300173445" lon="8.325865238159203"><ele>265.0</ele><time>2026-04-18T11:34:43Z</time></trkpt><trkpt lat="45.03658422387861" lon="8.325736738701966"><ele>265.0</ele><time>2026-04-18T11:34:44Z</time></trkpt><trkpt lat="45.03661296628114" lon="8.325624797176657"><ele>265.0</ele><time>2026-04-18T11:34:45Z</time></trkpt><trkpt lat="45.036621119558525" lon="8.325533733571644"><ele>265.0</ele><time>2026-04-18T11:34:46Z</time></trkpt><trkpt lat="45.03666960022558" lon="8.3254022631245"><ele>263.6</ele><time>2026-04-18T11:34:48Z</time></trkpt><trkpt lat="45.036691958543315" lon="8.325310006053762"><ele>262.2</ele><time>2026-04-18T11:34:50Z</time></trkpt><trkpt lat="45.036712747835985" lon="8.325147123096427"><ele>260.8</ele><time>2026-04-18T11:34:52Z</time></trkpt><trkpt lat="45.03675902134733" lon="8.3250148643113"><ele>259.4</ele><time>2026-04-18T11:34:53Z</time></trkpt><trkpt lat="45.03678693104723" lon="8.324868593101375"><ele>258.0</ele><time>2026-04-18T11:34:54Z</time></trkpt><trkpt lat="45.03680083651706" lon="8.32474687286297"><ele>258.0</ele><time>2026-04-18T11:34:55Z</time></trkpt><trkpt lat="45.036806996441754" lon="8.324641420187143"><ele>258.0</ele><time>2026-04-18T11:34:56Z</time></trkpt><trkpt lat="45.036794855303256" lon="8.324510543905827"><ele>258.0</ele><time>2026-04-18T11:34:57Z</time></trkpt><trkpt lat="45.03675777736641" lon="8.324377227578951"><ele>258.0</ele><time>2026-04-18T11:34:58Z</time></trkpt><trkpt lat="45.036729346756886" lon="8.324269209976363"><ele>258.0</ele><time>2026-04-18T11:34:59Z</time></trkpt><trkpt lat="45.036703184191666" lon="8.32415988020895"><ele>258.0</ele><time>2026-04-18T11:35:00Z</time></trkpt><trkpt lat="45.03668364263874" lon="8.324060365596308"><ele>258.0</ele><time>2026-04-18T11:35:01Z</time></trkpt><trkpt lat="45.03669195541951" lon="8.323924362025547"><ele>258.0</ele><time>2026-04-18T11:35:03Z</time></trkpt><trkpt lat="45.03671930132947" lon="8.323795635118566"><ele>258.0</ele><time>2026-04-18T11:35:05Z</time></trkpt><trkpt lat="45.036760936580514" lon="8.32372470427073"><ele>258.0</ele><time>2026-04-18T11:35:06Z</time></trkpt><trkpt lat="45.036861177866406" lon="8.323613220532627"><ele>258.0</ele><time>2026-04-18T11:35:08Z</time></trkpt><trkpt lat="45.03691647494916" lon="8.323553271897799"><ele>256.6</ele><time>2026-04-18T11:35:09Z</time></trkpt><trkpt lat="45.03697701359738" lon="8.323496618170703"><ele>255.20000000000002</ele><time>2026-04-18T11:35:10Z</time></trkpt><trkpt lat="45.03703740928904" lon="8.323433793530109"><ele>253.8</ele><time>2026-04-18T11:35:11Z</time></trkpt><trkpt lat="45.037115818730555" lon="8.323365039955682"><ele>252.4</ele><time>2026-04-18T11:35:12Z</time></trkpt><trkpt lat="45.03720363900568" lon="8.323277841383755"><ele>251.0</ele><time>2026-04-18T11:35:13Z</time></trkpt><trkpt lat="45.037314484095425" lon="8.32317065583273"><ele>252.0</ele><time>2026-04-18T11:35:14Z</time></trkpt><trkpt lat="45.037437335614634" lon="8.323056908817936"><ele>253.0</ele><time>2026-04-18T11:35:15Z</time></trkpt><trkpt lat="45.037527229780345" lon="8.322914170002358"><ele>254.0</ele><time>2026-04-18T11:35:16Z</time></trkpt><trkpt lat="45.03760761992107" lon="8.322795765285731"><ele>255.0</ele><time>2026-04-18T11:35:17Z</time></trkpt><trkpt lat="45.037674883455686" lon="8.322704053764255"><ele>255.0</ele><time>2026-04-18T11:35:18Z</time></trkpt><trkpt lat="45.037740782437176" lon="8.322607614340363"><ele>255.0</ele><time>2026-04-18T11:35:19Z</time></trkpt><trkpt lat="45.037800791332536" lon="8.322524476989452"><ele>255.0</ele><time>2026-04-18T11:35:20Z</time></trkpt><trkpt lat="45.03784893183922" lon="8.32244424408577"><ele>255.0</ele><time>2026-04-18T11:35:21Z</time></trkpt><trkpt lat="45.037891194387164" lon="8.322338725502895"><ele>255.0</ele><time>2026-04-18T11:35:22Z</time></trkpt><trkpt lat="45.037919667114785" lon="8.322223584557488"><ele>255.0</ele><time>2026-04-18T11:35:23Z</time></trkpt><trkpt lat="45.03792536992818" lon="8.322106356161958"><ele>254.33333333333334</ele><time>2026-04-18T11:35:24Z</time></trkpt><trkpt lat="45.037951164997494" lon="8.321977330044755"><ele>253.66666666666669</ele><time>2026-04-18T11:35:25Z</time></trkpt><trkpt lat="45.03795304612718" lon="8.321858309683858"><ele>253.0</ele><time>2026-04-18T11:35:26Z</time></trkpt><trkpt lat="45.03793763730074" lon="8.32173147785947"><ele>252.33333333333334</ele><time>2026-04-18T11:35:27Z</time></trkpt><trkpt lat="45.03794470817793" lon="8.321619609958208"><ele>251.66666666666669</ele><time>2026-04-18T11:35:28Z</time></trkpt><trkpt lat="45.03794501278274" lon="8.321505019530608"><ele>251.0</ele><time>2026-04-18T11:35:29Z</time></trkpt><trkpt lat="45.03795127955212" lon="8.321382915052984"><ele>253.0</ele><time>2026-04-18T11:35:30Z</time></trkpt><trkpt lat="45.037966543801225" lon="8.321264556156944"><ele>255.0</ele><time>2026-04-18T11:35:31Z</time></trkpt><trkpt lat="45.03798558241523" lon="8.321166572156269"><ele>257.0</ele><time>2026-04-18T11:35:32Z</time></trkpt><trkpt lat="45.038001427923135" lon="8.321077561522108"><ele>259.0</ele><time>2026-04-18T11:35:33Z</time></trkpt><trkpt lat="45.03774140299533" lon="8.32104007717407"><ele>259.0</ele><time>2026-04-18T11:36:01.001Z</time></trkpt><trkpt lat="45.03767594873478" lon="8.321047699998267"><ele>259.0</ele><time>2026-04-18T11:36:02.001Z</time></trkpt><trkpt lat="45.0375456450231" lon="8.321056923580029"><ele>259.0</ele><time>2026-04-18T11:36:04.001Z</time></trkpt><trkpt lat="45.03740495095109" lon="8.32105791973805"><ele>259.0</ele><time>2026-04-18T11:36:06.001Z</time></trkpt><trkpt lat="45.03733678269457" lon="8.321060857616445"><ele>259.0</ele><time>2026-04-18T11:36:07.001Z</time></trkpt><trkpt lat="45.037272935108504" lon="8.321063981411694"><ele>258.4</ele><time>2026-04-18T11:36:08.001Z</time></trkpt><trkpt lat="45.03713769787306" lon="8.321055789952092"><ele>257.79999999999995</ele><time>2026-04-18T11:36:10.001Z</time></trkpt><trkpt lat="45.03705493755822" lon="8.321024838598492"><ele>257.20000000000005</ele><time>2026-04-18T11:36:11.001Z</time></trkpt><trkpt lat="45.03691820578234" lon="8.320950578302678"><ele>256.6</ele><time>2026-04-18T11:36:13.001Z</time></trkpt><trkpt lat="45.03684948473677" lon="8.320909707158814"><ele>256.0</ele><time>2026-04-18T11:36:14.001Z</time></trkpt><trkpt lat="45.03673610845758" lon="8.320911975398218"><ele>256.0</ele><time>2026-04-18T11:36:16.001Z</time></trkpt><trkpt lat="45.03667102089738" lon="8.32094982818654"><ele>256.0</ele><time>2026-04-18T11:36:17.001Z</time></trkpt><trkpt lat="45.03660670756327" lon="8.32100472339939"><ele>256.0</ele><time>2026-04-18T11:36:18.001Z</time></trkpt><trkpt lat="45.03652803866752" lon="8.321094303328628"><ele>256.0</ele><time>2026-04-18T11:36:19.001Z</time></trkpt><trkpt lat="45.03638759074034" lon="8.321272151544463"><ele>256.0</ele><time>2026-04-18T11:36:21.001Z</time></trkpt><trkpt lat="45.03632947667944" lon="8.321374239771362"><ele>254.49999999999997</ele><time>2026-04-18T11:36:22.001Z</time></trkpt><trkpt lat="45.03627647756313" lon="8.32147155333202"><ele>253.0</ele><time>2026-04-18T11:36:23.001Z</time></trkpt><trkpt lat="45.03621976748182" lon="8.321577661105286"><ele>251.5</ele><time>2026-04-18T11:36:24.001Z</time></trkpt><trkpt lat="45.03616290608103" lon="8.32165500260425"><ele>250.0</ele><time>2026-04-18T11:36:25.001Z</time></trkpt><trkpt lat="45.03610588678481" lon="8.321708711669615"><ele>248.49999999999997</ele><time>2026-04-18T11:36:26.001Z</time></trkpt><trkpt lat="45.03604456674919" lon="8.321811080845581"><ele>247.0</ele><time>2026-04-18T11:36:28.001Z</time></trkpt><trkpt lat="45.03599853116664" lon="8.321876355914979"><ele>247.0</ele><time>2026-04-18T11:36:47.999Z</time></trkpt><trkpt lat="45.035953479787814" lon="8.321944423494207"><ele>247.0</ele><time>2026-04-18T11:37:41.999Z</time></trkpt><trkpt lat="45.03585698323351" lon="8.322035263791895"><ele>247.0</ele><time>2026-04-18T11:37:43.999Z</time></trkpt><trkpt lat="45.03580024538321" lon="8.322100289089645"><ele>247.0</ele><time>2026-04-18T11:37:44.999Z</time></trkpt><trkpt lat="45.035730242725904" lon="8.32217696878864"><ele>247.0</ele><time>2026-04-18T11:37:45.999Z</time></trkpt><trkpt lat="45.03562489174239" lon="8.322275965080657"><ele>244.25</ele><time>2026-04-18T11:37:46.999Z</time></trkpt><trkpt lat="45.03549235544782" lon="8.322394805730433"><ele>241.5</ele><time>2026-04-18T11:37:47.999Z</time></trkpt><trkpt lat="45.0353589266355" lon="8.322498303723041"><ele>238.75</ele><time>2026-04-18T11:37:48.999Z</time></trkpt><trkpt lat="45.03524820354336" lon="8.322563077899341"><ele>236.0</ele><time>2026-04-18T11:37:49.999Z</time></trkpt><trkpt lat="45.03512680116649" lon="8.322620046493189"><ele>236.0</ele><time>2026-04-18T11:37:50.999Z</time></trkpt><trkpt lat="45.035013441901874" lon="8.322659411958298"><ele>236.00000000000003</ele><time>2026-04-18T11:37:51.999Z</time></trkpt><trkpt lat="45.03491617652069" lon="8.322688353609996"><ele>236.00000000000003</ele><time>2026-04-18T11:37:52.999Z</time></trkpt><trkpt lat="45.03482457819646" lon="8.322704536278707"><ele>236.0</ele><time>2026-04-18T11:37:53.999Z</time></trkpt><trkpt lat="45.03474082177976" lon="8.322719953852852"><ele>236.0</ele><time>2026-04-18T11:37:54.999Z</time></trkpt><trkpt lat="45.03464179821971" lon="8.322732062004112"><ele>237.16666666666669</ele><time>2026-04-18T11:37:55.999Z</time></trkpt><trkpt lat="45.0345359659426" lon="8.322732895989809"><ele>238.33333333333334</ele><time>2026-04-18T11:37:56.999Z</time></trkpt><trkpt lat="45.034443797052326" lon="8.322732088982088"><ele>239.5</ele><time>2026-04-18T11:37:57.999Z</time></trkpt><trkpt lat="45.03436318307227" lon="8.322728759051701"><ele>240.66666666666669</ele><time>2026-04-18T11:37:58.999Z</time></trkpt><trkpt lat="45.03429592786336" lon="8.322728479313346"><ele>241.83333333333334</ele><time>2026-04-18T11:37:59.999Z</time></trkpt><trkpt lat="45.03422539835015" lon="8.322736391512354"><ele>243.0</ele><time>2026-04-18T11:38:00.999Z</time></trkpt><trkpt lat="45.034151331235755" lon="8.32274013534814"><ele>242.57142857142856</ele><time>2026-04-18T11:38:01.999Z</time></trkpt><trkpt lat="45.034069400196906" lon="8.322757486897927"><ele>242.14285714285717</ele><time>2026-04-18T11:38:02.999Z</time></trkpt><trkpt lat="45.03400298181939" lon="8.322790520723727"><ele>241.71428571428572</ele><time>2026-04-18T11:38:04Z</time></trkpt><trkpt lat="45.03393693775464" lon="8.322815096718976"><ele>241.28571428571428</ele><time>2026-04-18T11:38:07Z</time></trkpt><trkpt lat="45.033875040217715" lon="8.322833121831337"><ele>240.85714285714283</ele><time>2026-04-18T11:38:18Z</time></trkpt><trkpt lat="45.03381305829094" lon="8.322853188189002"><ele>240.42857142857144</ele><time>2026-04-18T11:38:19Z</time></trkpt><trkpt lat="45.033746399692035" lon="8.322868079164794"><ele>240.0</ele><time>2026-04-18T11:38:20Z</time></trkpt><trkpt lat="45.0336704025212" lon="8.322886545358665"><ele>240.0</ele><time>2026-04-18T11:38:21Z</time></trkpt><trkpt lat="45.03359484971498" lon="8.322902974502034"><ele>240.0</ele><time>2026-04-18T11:38:22Z</time></trkpt><trkpt lat="45.03351970882392" lon="8.322924184685839"><ele>240.0</ele><time>2026-04-18T11:38:23Z</time></trkpt><trkpt lat="45.03343023298164" lon="8.323002517340054"><ele>240.0</ele><time>2026-04-18T11:38:25Z</time></trkpt><trkpt lat="45.03340462947337" lon="8.323113846428807"><ele>240.0</ele><time>2026-04-18T11:38:27Z</time></trkpt><trkpt lat="45.03340811312119" lon="8.323211322854691"><ele>240.0</ele><time>2026-04-18T11:38:28Z</time></trkpt><trkpt lat="45.03343581309381" lon="8.323323907278146"><ele>237.2</ele><time>2026-04-18T11:38:29Z</time></trkpt><trkpt lat="45.03347005617163" lon="8.323479342726328"><ele>234.4</ele><time>2026-04-18T11:38:30Z</time></trkpt><trkpt lat="45.03348801873737" lon="8.32360151908729"><ele>231.60000000000002</ele><time>2026-04-18T11:38:31Z</time></trkpt><trkpt lat="45.03348788339094" lon="8.323702141405747"><ele>228.8</ele><time>2026-04-18T11:38:32Z</time></trkpt><trkpt lat="45.033417001047894" lon="8.32383776600953"><ele>226.0</ele><time>2026-04-18T11:38:34Z</time></trkpt><trkpt lat="45.03335214586426" lon="8.323883637635959"><ele>223.75</ele><time>2026-04-18T11:38:35Z</time></trkpt><trkpt lat="45.03325665045156" lon="8.32391108362846"><ele>221.5</ele><time>2026-04-18T11:38:36Z</time></trkpt><trkpt lat="45.0331478391213" lon="8.323919826971705"><ele>219.25</ele><time>2026-04-18T11:38:37Z</time></trkpt><trkpt lat="45.03299991791139" lon="8.32392607117711"><ele>217.0</ele><time>2026-04-18T11:38:38Z</time></trkpt><trkpt lat="45.03284936010315" lon="8.323931417156517"><ele>217.0</ele><time>2026-04-18T11:38:39Z</time></trkpt><trkpt lat="45.03272385308255" lon="8.323931798450019"><ele>217.0</ele><time>2026-04-18T11:38:40Z</time></trkpt><trkpt lat="45.03261729011222" lon="8.323937870403412"><ele>217.0</ele><time>2026-04-18T11:38:41Z</time></trkpt><trkpt lat="45.03253248924917" lon="8.323947155655187"><ele>217.0</ele><time>2026-04-18T11:38:42Z</time></trkpt><trkpt lat="45.032418944515626" lon="8.32397731330295"><ele>217.0</ele><time>2026-04-18T11:38:44Z</time></trkpt><trkpt lat="45.03233601620904" lon="8.323995351598095"><ele>216.49999999999997</ele><time>2026-04-18T11:38:45Z</time></trkpt><trkpt lat="45.03226460089931" lon="8.324017473558163"><ele>216.0</ele><time>2026-04-18T11:38:46Z</time></trkpt><trkpt lat="45.03213353463908" lon="8.324063907558962"><ele>215.5</ele><time>2026-04-18T11:38:48Z</time></trkpt><trkpt lat="45.03206210048803" lon="8.324101564641506"><ele>215.0</ele><time>2026-04-18T11:38:49Z</time></trkpt><trkpt lat="45.03200098941014" lon="8.324129349916726"><ele>214.49999999999997</ele><time>2026-04-18T11:38:50Z</time></trkpt><trkpt lat="45.03193155340885" lon="8.324161342804267"><ele>214.0</ele><time>2026-04-18T11:38:51Z</time></trkpt><trkpt lat="45.031855186525874" lon="8.324203148532984"><ele>213.99999999999997</ele><time>2026-04-18T11:38:52Z</time></trkpt><trkpt lat="45.03178932885997" lon="8.324242112119371"><ele>214.0</ele><time>2026-04-18T11:38:53Z</time></trkpt><trkpt lat="45.0316746366233" lon="8.32429394778515"><ele>214.0</ele><time>2026-04-18T11:38:55Z</time></trkpt><trkpt lat="45.031601609677864" lon="8.324298852017623"><ele>214.0</ele><time>2026-04-18T11:38:56Z</time></trkpt><trkpt lat="45.031513399241845" lon="8.324282838761482"><ele>213.99999999999997</ele><time>2026-04-18T11:38:57Z</time></trkpt><trkpt lat="45.03142525932927" lon="8.324269414177774"><ele>214.0</ele><time>2026-04-18T11:38:58Z</time></trkpt><trkpt lat="45.03134918383863" lon="8.324255063448183"><ele>213.25</ele><time>2026-04-18T11:38:59Z</time></trkpt><trkpt lat="45.031209748248074" lon="8.324224960177135"><ele>212.5</ele><time>2026-04-18T11:39:01Z</time></trkpt><trkpt lat="45.03111025690792" lon="8.324204397252581"><ele>211.75</ele><time>2026-04-18T11:39:02Z</time></trkpt><trkpt lat="45.031006893188206" lon="8.324184632754562"><ele>211.0</ele><time>2026-04-18T11:39:03Z</time></trkpt><trkpt lat="45.03089944518521" lon="8.324161597716781"><ele>211.0</ele><time>2026-04-18T11:39:04Z</time></trkpt><trkpt lat="45.03080666515401" lon="8.324119194898648"><ele>211.0</ele><time>2026-04-18T11:39:05Z</time></trkpt><trkpt lat="45.030716278369944" lon="8.324073889559825"><ele>211.0</ele><time>2026-04-18T11:39:06Z</time></trkpt><trkpt lat="45.03061659507401" lon="8.32401894011944"><ele>211.0</ele><time>2026-04-18T11:39:07Z</time></trkpt><trkpt lat="45.03050423397731" lon="8.323961162338517"><ele>211.0</ele><time>2026-04-18T11:39:08Z</time></trkpt><trkpt lat="45.03040751876622" lon="8.323904626897766"><ele>210.4</ele><time>2026-04-18T11:39:09Z</time></trkpt><trkpt lat="45.03032443486773" lon="8.323818249910163"><ele>209.8</ele><time>2026-04-18T11:39:10Z</time></trkpt><trkpt lat="45.03025105129909" lon="8.323723814520124"><ele>209.20000000000002</ele><time>2026-04-18T11:39:11Z</time></trkpt><trkpt lat="45.03016245828711" lon="8.323629467114303"><ele>208.60000000000002</ele><time>2026-04-18T11:39:12Z</time></trkpt><trkpt lat="45.03007960768863" lon="8.323545878921983"><ele>208.0</ele><time>2026-04-18T11:39:13Z</time></trkpt><trkpt lat="45.03000364345215" lon="8.323480185839278"><ele>207.8</ele><time>2026-04-18T11:39:14Z</time></trkpt><trkpt lat="45.029901129971734" lon="8.323388834163163"><ele>207.60000000000002</ele><time>2026-04-18T11:39:15Z</time></trkpt><trkpt lat="45.029801263363346" lon="8.323308183876948"><ele>207.39999999999998</ele><time>2026-04-18T11:39:15.999Z</time></trkpt><trkpt lat="45.02970747811184" lon="8.323232812975629"><ele>207.2</ele><time>2026-04-18T11:39:16.999Z</time></trkpt><trkpt lat="45.0296207549673" lon="8.323162456866589"><ele>207.0</ele><time>2026-04-18T11:39:17.999Z</time></trkpt><trkpt lat="45.029553395101004" lon="8.32310026504442"><ele>206.66666666666666</ele><time>2026-04-18T11:39:18.999Z</time></trkpt><trkpt lat="45.02948691299752" lon="8.323045543971746"><ele>206.33333333333331</ele><time>2026-04-18T11:39:19.999Z</time></trkpt><trkpt lat="45.02942707820949" lon="8.322994569922038"><ele>206.0</ele><time>2026-04-18T11:39:20.999Z</time></trkpt><trkpt lat="45.02931801217057" lon="8.322940209615345"><ele>205.66666666666666</ele><time>2026-04-18T11:39:22.999Z</time></trkpt><trkpt lat="45.02928505898469" lon="8.322830328843759"><ele>205.33333333333331</ele><time>2026-04-18T11:39:25.999Z</time></trkpt><trkpt lat="45.029360287683026" lon="8.322788122095863"><ele>205.0</ele><time>2026-04-18T11:39:27.999Z</time></trkpt><trkpt lat="45.029456325259936" lon="8.322750670443826"><ele>204.99999999999997</ele><time>2026-04-18T11:39:29.999Z</time></trkpt><trkpt lat="45.02955437282021" lon="8.322711725945478"><ele>205.0</ele><time>2026-04-18T11:39:31.999Z</time></trkpt><trkpt lat="45.029613311186814" lon="8.322671598683907"><ele>205.0</ele><time>2026-04-18T11:39:32.999Z</time></trkpt><trkpt lat="45.02968670621111" lon="8.322615724355682"><ele>205.0</ele><time>2026-04-18T11:39:33.999Z</time></trkpt><trkpt lat="45.02975313319054" lon="8.322563592347844"><ele>204.99999999999997</ele><time>2026-04-18T11:39:34.999Z</time></trkpt><trkpt lat="45.029847758092096" lon="8.322491332909026"><ele>205.0</ele><time>2026-04-18T11:39:36.999Z</time></trkpt><trkpt lat="45.029913128521265" lon="8.322441648885256"><ele>204.83333333333331</ele><time>2026-04-18T11:39:38.999Z</time></trkpt><trkpt lat="45.02999401167299" lon="8.322338283277988"><ele>204.66666666666666</ele><time>2026-04-18T11:39:40.999Z</time></trkpt><trkpt lat="45.03003930511748" lon="8.32227571223207"><ele>204.5</ele><time>2026-04-18T11:39:41.999Z</time></trkpt><trkpt lat="45.03008170067945" lon="8.322208029739423"><ele>204.33333333333331</ele><time>2026-04-18T11:39:42.999Z</time></trkpt><trkpt lat="45.030141709113934" lon="8.322118583755797"><ele>204.16666666666666</ele><time>2026-04-18T11:39:44.999Z</time></trkpt><trkpt lat="45.03022205889748" lon="8.322127048788552"><ele>204.0</ele><time>2026-04-18T11:39:46.999Z</time></trkpt><trkpt lat="45.03027595569807" lon="8.322174085649706"><ele>204.0</ele><time>2026-04-18T11:39:47.999Z</time></trkpt><trkpt lat="45.03037893997986" lon="8.322262181114578"><ele>204.0</ele><time>2026-04-18T11:39:48.999Z</time></trkpt><trkpt lat="45.03046412912764" lon="8.322305145754568"><ele>204.0</ele><time>2026-04-18T11:39:49.999Z</time></trkpt><trkpt lat="45.03055149350826" lon="8.322312660439412"><ele>204.0</ele><time>2026-04-18T11:39:50.999Z</time></trkpt><trkpt lat="45.03065446871675" lon="8.322297973622875"><ele>204.0</ele><time>2026-04-18T11:39:51.999Z</time></trkpt><trkpt lat="45.03079212570128" lon="8.322274115046511"><ele>206.66666666666669</ele><time>2026-04-18T11:39:52.999Z</time></trkpt><trkpt lat="45.03093728594349" lon="8.32223447783691"><ele>209.33333333333334</ele><time>2026-04-18T11:39:53.999Z</time></trkpt><trkpt lat="45.03110202436564" lon="8.322186937269516"><ele>212.0</ele><time>2026-04-18T11:39:54.999Z</time></trkpt><trkpt lat="45.03126247753255" lon="8.322147976273442"><ele>212.0</ele><time>2026-04-18T11:39:55.999Z</time></trkpt><trkpt lat="45.03141336402245" lon="8.322106805547309"><ele>212.0</ele><time>2026-04-18T11:39:56.999Z</time></trkpt><trkpt lat="45.03154547127015" lon="8.322061280193852"><ele>212.0</ele><time>2026-04-18T11:39:57.999Z</time></trkpt><trkpt lat="45.03165441295747" lon="8.322014350229761"><ele>212.0</ele><time>2026-04-18T11:39:58.999Z</time></trkpt><trkpt lat="45.0317599695319" lon="8.321965985794034"><ele>214.39999999999998</ele><time>2026-04-18T11:39:59.999Z</time></trkpt><trkpt lat="45.03185669427129" lon="8.321931506553994"><ele>216.79999999999998</ele><time>2026-04-18T11:40:00.999Z</time></trkpt><trkpt lat="45.03195690815305" lon="8.321912538504622"><ele>219.2</ele><time>2026-04-18T11:40:01.999Z</time></trkpt><trkpt lat="45.03206433344368" lon="8.32190138147645"><ele>221.6</ele><time>2026-04-18T11:40:02.999Z</time></trkpt><trkpt lat="45.03216379792086" lon="8.321907359324271"><ele>224.0</ele><time>2026-04-18T11:40:03.999Z</time></trkpt><trkpt lat="45.032270756899734" lon="8.321923631296565"><ele>224.0</ele><time>2026-04-18T11:40:04.999Z</time></trkpt><trkpt lat="45.03241833471182" lon="8.32195305602825"><ele>224.0</ele><time>2026-04-18T11:40:05.999Z</time></trkpt><trkpt lat="45.03255111668192" lon="8.321969635228651"><ele>224.0</ele><time>2026-04-18T11:40:06.999Z</time></trkpt><trkpt lat="45.03264659116773" lon="8.321965484200906"><ele>224.0</ele><time>2026-04-18T11:40:07.999Z</time></trkpt><trkpt lat="45.03274535041096" lon="8.321941530221357"><ele>227.75</ele><time>2026-04-18T11:40:09Z</time></trkpt><trkpt lat="45.03284510528537" lon="8.321899097475477"><ele>231.5</ele><time>2026-04-18T11:40:10Z</time></trkpt><trkpt lat="45.032975189670225" lon="8.321845158824042"><ele>235.25</ele><time>2026-04-18T11:40:11Z</time></trkpt><trkpt lat="45.033120109206486" lon="8.321780968801022"><ele>239.0</ele><time>2026-04-18T11:40:12Z</time></trkpt><trkpt lat="45.033239602647384" lon="8.321709462700523"><ele>241.6</ele><time>2026-04-18T11:40:13Z</time></trkpt><trkpt lat="45.033318571774096" lon="8.321658248091257"><ele>244.2</ele><time>2026-04-18T11:40:14Z</time></trkpt><trkpt lat="45.03340933172897" lon="8.321609512510852"><ele>246.79999999999998</ele><time>2026-04-18T11:40:16Z</time></trkpt><trkpt lat="45.03352598879444" lon="8.32154448727939"><ele>249.39999999999998</ele><time>2026-04-18T11:40:18Z</time></trkpt><trkpt lat="45.0335918733603" lon="8.321507594785864"><ele>252.0</ele><time>2026-04-18T11:40:19Z</time></trkpt><trkpt lat="45.03371471627142" lon="8.321420605882034"><ele>252.83333333333334</ele><time>2026-04-18T11:40:21Z</time></trkpt><trkpt lat="45.03377316662457" lon="8.321376434755985"><ele>253.66666666666669</ele><time>2026-04-18T11:40:22Z</time></trkpt><trkpt lat="45.0338559053639" lon="8.321318870606179"><ele>254.5</ele><time>2026-04-18T11:40:24Z</time></trkpt><trkpt lat="45.03395564498033" lon="8.321284351453956"><ele>255.33333333333334</ele><time>2026-04-18T11:40:26Z</time></trkpt><trkpt lat="45.03405657507891" lon="8.321256584655197"><ele>256.1666666666667</ele><time>2026-04-18T11:40:28Z</time></trkpt><trkpt lat="45.034117712906024" lon="8.32122838227531"><ele>257.0</ele><time>2026-04-18T11:40:29Z</time></trkpt><trkpt lat="45.03418517786538" lon="8.321189273007574"><ele>257.0</ele><time>2026-04-18T11:40:30Z</time></trkpt><trkpt lat="45.0342461143058" lon="8.321157403452116"><ele>257.0</ele><time>2026-04-18T11:40:31Z</time></trkpt><trkpt lat="45.03430931231294" lon="8.3211215152099"><ele>257.0</ele><time>2026-04-18T11:40:32Z</time></trkpt><trkpt lat="45.0343732161685" lon="8.321092107085674"><ele>257.0</ele><time>2026-04-18T11:40:33Z</time></trkpt><trkpt lat="45.03448701215238" lon="8.321028676144993"><ele>257.0</ele><time>2026-04-18T11:40:35Z</time></trkpt><trkpt lat="45.03455642791865" lon="8.320995758868953"><ele>257.0</ele><time>2026-04-18T11:40:36Z</time></trkpt><trkpt lat="45.03463381800389" lon="8.32095881026871"><ele>257.0</ele><time>2026-04-18T11:40:37Z</time></trkpt><trkpt lat="45.03470435582012" lon="8.320922165304813"><ele>257.0</ele><time>2026-04-18T11:40:38Z</time></trkpt><trkpt lat="45.03479092860164" lon="8.320890084410648"><ele>257.0</ele><time>2026-04-18T11:40:39Z</time></trkpt><trkpt lat="45.03487986981476" lon="8.320857004553128"><ele>257.0</ele><time>2026-04-18T11:40:40Z</time></trkpt><trkpt lat="45.03496278250366" lon="8.320838138219056"><ele>257.0</ele><time>2026-04-18T11:40:41Z</time></trkpt><trkpt lat="45.03503958224925" lon="8.32082611295862"><ele>257.0</ele><time>2026-04-18T11:40:42Z</time></trkpt><trkpt lat="45.03511572565933" lon="8.320813682377288"><ele>257.83333333333337</ele><time>2026-04-18T11:40:43Z</time></trkpt><trkpt lat="45.03521173010635" lon="8.320794963020585"><ele>258.6666666666667</ele><time>2026-04-18T11:40:44Z</time></trkpt><trkpt lat="45.03530696449832" lon="8.320782105721326"><ele>259.5</ele><time>2026-04-18T11:40:45Z</time></trkpt><trkpt lat="45.03540008450451" lon="8.32076059019705"><ele>260.3333333333333</ele><time>2026-04-18T11:40:46Z</time></trkpt><trkpt lat="45.03548196971085" lon="8.32074592208163"><ele>261.16666666666663</ele><time>2026-04-18T11:40:47Z</time></trkpt><trkpt lat="45.03554386479633" lon="8.320729621622805"><ele>262.0</ele><time>2026-04-18T11:40:48Z</time></trkpt><trkpt lat="45.03564508062732" lon="8.320696447005474"><ele>262.0</ele><time>2026-04-18T11:40:50Z</time></trkpt><trkpt lat="45.03572386842296" lon="8.320628119367694"><ele>262.0</ele><time>2026-04-18T11:42:47Z</time></trkpt><trkpt lat="45.035840831734845" lon="8.320547755357337"><ele>262.0</ele><time>2026-04-18T11:42:49Z</time></trkpt><trkpt lat="45.03590380195544" lon="8.320506477164058"><ele>262.0</ele><time>2026-04-18T11:42:50Z</time></trkpt><trkpt lat="45.03596966259511" lon="8.32046372313942"><ele>262.0</ele><time>2026-04-18T11:42:51Z</time></trkpt><trkpt lat="45.03605790757385" lon="8.320401848943952"><ele>262.16666666666663</ele><time>2026-04-18T11:42:53Z</time></trkpt><trkpt lat="45.03612084058729" lon="8.320349240658459"><ele>262.3333333333333</ele><time>2026-04-18T11:42:54Z</time></trkpt><trkpt lat="45.03619041497894" lon="8.320286685930409"><ele>262.5</ele><time>2026-04-18T11:42:55Z</time></trkpt><trkpt lat="45.03624846241283" lon="8.320231680630961"><ele>262.6666666666667</ele><time>2026-04-18T11:42:56Z</time></trkpt><trkpt lat="45.03630887914099" lon="8.320179584149278"><ele>262.83333333333337</ele><time>2026-04-18T11:42:57Z</time></trkpt><trkpt lat="45.036398280098176" lon="8.320087922637525"><ele>263.0</ele><time>2026-04-18T11:42:59Z</time></trkpt><trkpt lat="45.03646083893365" lon="8.320020676062343"><ele>263.0</ele><time>2026-04-18T11:43:01Z</time></trkpt><trkpt lat="45.036503886664065" lon="8.319930758668287"><ele>263.0</ele><time>2026-04-18T11:43:03Z</time></trkpt><trkpt lat="45.036433031545776" lon="8.319921963961265"><ele>263.0</ele><time>2026-04-18T11:43:06Z</time></trkpt><trkpt lat="45.0363557261731" lon="8.320015406765963"><ele>263.0</ele><time>2026-04-18T11:43:09Z</time></trkpt><trkpt lat="45.03629525160523" lon="8.320085156823136"><ele>263.0</ele><time>2026-04-18T11:43:11Z</time></trkpt><trkpt lat="45.03621984054628" lon="8.320082913551879"><ele>263.0</ele><time>2026-04-18T11:43:13Z</time></trkpt><trkpt lat="45.036122689378175" lon="8.320060291565063"><ele>263.0</ele><time>2026-04-18T11:43:15Z</time></trkpt><trkpt lat="45.03603222291304" lon="8.320052142801352"><ele>263.0</ele><time>2026-04-18T11:43:17Z</time></trkpt><trkpt lat="45.0359362323432" lon="8.320042337522388"><ele>263.0</ele><time>2026-04-18T11:43:19Z</time></trkpt><trkpt lat="45.03585202394861" lon="8.320023932753623"><ele>263.0</ele><time>2026-04-18T11:43:21Z</time></trkpt><trkpt lat="45.03578309926132" lon="8.320010385762027"><ele>263.0</ele><time>2026-04-18T11:43:26Z</time></trkpt><trkpt lat="45.03571089136352" lon="8.319979259060485"><ele>263.0</ele><time>2026-04-18T11:43:28Z</time></trkpt><trkpt lat="45.03564719833811" lon="8.31996389882781"><ele>260.2</ele><time>2026-04-18T11:44:13.999Z</time></trkpt><trkpt lat="45.03555429661817" lon="8.319943639992367"><ele>257.4</ele><time>2026-04-18T11:44:15.999Z</time></trkpt><trkpt lat="45.03544770970545" lon="8.319902982581974"><ele>254.59999999999997</ele><time>2026-04-18T11:44:17.999Z</time></trkpt><trkpt lat="45.03538726381053" lon="8.319873720517437"><ele>251.79999999999998</ele><time>2026-04-18T11:44:19Z</time></trkpt><trkpt lat="45.0352959502124" lon="8.319805101681869"><ele>249.0</ele><time>2026-04-18T11:44:21Z</time></trkpt><trkpt lat="45.03521494354419" lon="8.31975199410676"><ele>247.83333333333334</ele><time>2026-04-18T11:44:23Z</time></trkpt><trkpt lat="45.035150859326045" lon="8.319696756073167"><ele>246.66666666666669</ele><time>2026-04-18T11:44:25Z</time></trkpt><trkpt lat="45.035149797865614" lon="8.319593423359077"><ele>245.5</ele><time>2026-04-18T11:44:28Z</time></trkpt><trkpt lat="45.0351873335432" lon="8.319486129282737"><ele>244.33333333333334</ele><time>2026-04-18T11:44:30Z</time></trkpt><trkpt lat="45.035173732093625" lon="8.319304668528956"><ele>243.16666666666669</ele><time>2026-04-18T11:44:32Z</time></trkpt><trkpt lat="45.03515067408831" lon="8.319194895997054"><ele>242.0</ele><time>2026-04-18T11:44:33Z</time></trkpt><trkpt lat="45.035122721232426" lon="8.319089301423459"><ele>242.00000000000003</ele><time>2026-04-18T11:44:34Z</time></trkpt><trkpt lat="45.03509550452677" lon="8.318984961994687"><ele>242.0</ele><time>2026-04-18T11:44:35Z</time></trkpt><trkpt lat="45.03506605132307" lon="8.318880636544087"><ele>242.0</ele><time>2026-04-18T11:44:36Z</time></trkpt><trkpt lat="45.0350414931318" lon="8.318786448013057"><ele>242.0</ele><time>2026-04-18T11:44:37Z</time></trkpt><trkpt lat="45.034978919077005" lon="8.318631050838533"><ele>242.00000000000003</ele><time>2026-04-18T11:44:39Z</time></trkpt><trkpt lat="45.03490533885648" lon="8.318550347932314"><ele>242.0</ele><time>2026-04-18T11:44:41Z</time></trkpt><trkpt lat="45.03482485998117" lon="8.31848360517478"><ele>243.0</ele><time>2026-04-18T11:44:43Z</time></trkpt><trkpt lat="45.03478488938189" lon="8.318379453963265"><ele>244.0</ele><time>2026-04-18T11:44:45Z</time></trkpt><trkpt lat="45.03477734921046" lon="8.31822231684835"><ele>245.0</ele><time>2026-04-18T11:44:47Z</time></trkpt><trkpt lat="45.03484545845265" lon="8.318142106891582"><ele>246.0</ele><time>2026-04-18T11:44:49Z</time></trkpt><trkpt lat="45.03495782274654" lon="8.318126826785143"><ele>247.0</ele><time>2026-04-18T11:44:51Z</time></trkpt><trkpt lat="45.035075752830856" lon="8.318144794162546"><ele>247.0</ele><time>2026-04-18T11:44:53Z</time></trkpt><trkpt lat="45.03515639200803" lon="8.318161527374693"><ele>247.0</ele><time>2026-04-18T11:44:55Z</time></trkpt><trkpt lat="45.03522148025817" lon="8.31818981599745"><ele>247.0</ele><time>2026-04-18T11:44:56Z</time></trkpt><trkpt lat="45.035361136560105" lon="8.318263309227273"><ele>247.0</ele><time>2026-04-18T11:44:58Z</time></trkpt><trkpt lat="45.03545496064228" lon="8.31830917105448"><ele>247.0</ele><time>2026-04-18T11:44:59Z</time></trkpt><trkpt lat="45.03557039514072" lon="8.318354135579828"><ele>246.99999999999997</ele><time>2026-04-18T11:44:59.999Z</time></trkpt><trkpt lat="45.035668017984406" lon="8.318412613576474"><ele>247.0</ele><time>2026-04-18T11:45:00.999Z</time></trkpt><trkpt lat="45.03575638467288" lon="8.318451943447736"><ele>247.0</ele><time>2026-04-18T11:45:01.999Z</time></trkpt><trkpt lat="45.03584594825074" lon="8.318522282027649"><ele>247.0</ele><time>2026-04-18T11:45:02.999Z</time></trkpt><trkpt lat="45.035915266585235" lon="8.318562213915687"><ele>246.99999999999997</ele><time>2026-04-18T11:45:03.999Z</time></trkpt><trkpt lat="45.035983293423406" lon="8.318576411052799"><ele>247.0</ele><time>2026-04-18T11:45:04.999Z</time></trkpt><trkpt lat="45.03607145881472" lon="8.31862768270627"><ele>249.39999999999998</ele><time>2026-04-18T11:45:05.999Z</time></trkpt><trkpt lat="45.03614327561409" lon="8.318692605202205"><ele>251.79999999999998</ele><time>2026-04-18T11:45:06.999Z</time></trkpt><trkpt lat="45.036234194082134" lon="8.318740154581514"><ele>254.2</ele><time>2026-04-18T11:45:07.999Z</time></trkpt><trkpt lat="45.03630286901791" lon="8.31876789820438"><ele>256.59999999999997</ele><time>2026-04-18T11:45:08.999Z</time></trkpt><trkpt lat="45.0361815749248" lon="8.31871347291528"><ele>259.0</ele><time>2026-04-18T11:46:08.999Z</time></trkpt><trkpt lat="45.03607445138689" lon="8.318637085113851"><ele>259.0</ele><time>2026-04-18T11:46:10.999Z</time></trkpt><trkpt lat="45.03595818131224" lon="8.318562065947459"><ele>259.0</ele><time>2026-04-18T11:46:12.999Z</time></trkpt><trkpt lat="45.03585339855646" lon="8.318526574424611"><ele>259.0</ele><time>2026-04-18T11:46:14.999Z</time></trkpt><trkpt lat="45.03575213695233" lon="8.318470765776027"><ele>259.0</ele><time>2026-04-18T11:46:16.999Z</time></trkpt><trkpt lat="45.0356969650491" lon="8.31842114446015"><ele>259.0</ele><time>2026-04-18T11:46:17.999Z</time></trkpt><trkpt lat="45.035626771178755" lon="8.31840324639083"><ele>257.0</ele><time>2026-04-18T11:46:18.999Z</time></trkpt><trkpt lat="45.03555246575913" lon="8.318363227031897"><ele>255.0</ele><time>2026-04-18T11:46:19.999Z</time></trkpt><trkpt lat="45.035499134723665" lon="8.318310296431887"><ele>253.0</ele><time>2026-04-18T11:46:20.999Z</time></trkpt><trkpt lat="45.035415875513365" lon="8.318265749705851"><ele>251.0</ele><time>2026-04-18T11:46:21.999Z</time></trkpt><trkpt lat="45.03533107731474" lon="8.318249670802896"><ele>248.99999999999997</ele><time>2026-04-18T11:46:22.999Z</time></trkpt><trkpt lat="45.035270911043746" lon="8.318198403848537"><ele>247.0</ele><time>2026-04-18T11:46:23.999Z</time></trkpt><trkpt lat="45.03518598504245" lon="8.31815772479102"><ele>247.0</ele><time>2026-04-18T11:46:24.999Z</time></trkpt><trkpt lat="45.03509941087982" lon="8.31814181954796"><ele>247.0</ele><time>2026-04-18T11:46:25.999Z</time></trkpt><trkpt lat="45.035021118635676" lon="8.318120146970692"><ele>247.0</ele><time>2026-04-18T11:46:27.999Z</time></trkpt><trkpt lat="45.034971114553926" lon="8.318481930378226"><ele>247.0</ele><time>2026-04-18T11:46:32.999Z</time></trkpt><trkpt lat="45.034970840976314" lon="8.31858574263654"><ele>247.0</ele><time>2026-04-18T11:46:33.999Z</time></trkpt><trkpt lat="45.03501738151451" lon="8.318767517319092"><ele>247.0</ele><time>2026-04-18T11:46:35.999Z</time></trkpt><trkpt lat="45.03507222957421" lon="8.31894183296752"><ele>247.0</ele><time>2026-04-18T11:46:36.999Z</time></trkpt><trkpt lat="45.03511332405119" lon="8.319086997230142"><ele>247.0</ele><time>2026-04-18T11:46:37.999Z</time></trkpt><trkpt lat="45.03513732282138" lon="8.319216095077806"><ele>247.33333333333331</ele><time>2026-04-18T11:46:38.999Z</time></trkpt><trkpt lat="45.03515893221377" lon="8.31932925576763"><ele>247.66666666666666</ele><time>2026-04-18T11:46:39.999Z</time></trkpt><trkpt lat="45.03518332594116" lon="8.31942754513953"><ele>248.0</ele><time>2026-04-18T11:46:40.999Z</time></trkpt><trkpt lat="45.035175529437794" lon="8.31954993396273"><ele>248.33333333333331</ele><time>2026-04-18T11:46:42.999Z</time></trkpt><trkpt lat="45.03513311349383" lon="8.319648134908963"><ele>248.66666666666666</ele><time>2026-04-18T11:46:44.999Z</time></trkpt><trkpt lat="45.0351684544447" lon="8.319741008752274"><ele>249.0</ele><time>2026-04-18T11:46:46.999Z</time></trkpt><trkpt lat="45.03530024050143" lon="8.319818050580427"><ele>249.0</ele><time>2026-04-18T11:46:48.999Z</time></trkpt><trkpt lat="45.0354136600327" lon="8.319889785481944"><ele>248.99999999999997</ele><time>2026-04-18T11:46:49.999Z</time></trkpt><trkpt lat="45.035517986200276" lon="8.319937637166673"><ele>248.99999999999997</ele><time>2026-04-18T11:46:50.999Z</time></trkpt><trkpt lat="45.035634740435604" lon="8.319981464973448"><ele>249.0</ele><time>2026-04-18T11:46:51.999Z</time></trkpt><trkpt lat="45.035719852323766" lon="8.319991128925166"><ele>249.0</ele><time>2026-04-18T11:46:52.999Z</time></trkpt><trkpt lat="45.035825538510565" lon="8.320005209833289"><ele>252.5</ele><time>2026-04-18T11:46:53.999Z</time></trkpt><trkpt lat="45.03596112654944" lon="8.320040773968365"><ele>256.0</ele><time>2026-04-18T11:46:54.999Z</time></trkpt><trkpt lat="45.036100673942634" lon="8.320067285647998"><ele>259.5</ele><time>2026-04-18T11:46:55.999Z</time></trkpt><trkpt lat="45.03619809877048" lon="8.32008025822695"><ele>263.0</ele><time>2026-04-18T11:46:56.999Z</time></trkpt><trkpt lat="45.03627185974343" lon="8.320074206111553"><ele>263.0</ele><time>2026-04-18T11:46:57.999Z</time></trkpt><trkpt lat="45.03640106041497" lon="8.319975120280002"><ele>263.0</ele><time>2026-04-18T11:46:59.999Z</time></trkpt><trkpt lat="45.036454086041296" lon="8.319895400267333"><ele>263.0</ele><time>2026-04-18T11:47:00.999Z</time></trkpt><trkpt lat="45.0365276306043" lon="8.319823961451318"><ele>263.0</ele><time>2026-04-18T11:47:01.999Z</time></trkpt><trkpt lat="45.036609434693766" lon="8.319741767378506"><ele>263.0</ele><time>2026-04-18T11:47:02.999Z</time></trkpt><trkpt lat="45.03668637514114" lon="8.319659376360878"><ele>266.75</ele><time>2026-04-18T11:47:03.999Z</time></trkpt><trkpt lat="45.03675938731164" lon="8.319594012513527"><ele>270.5</ele><time>2026-04-18T11:47:04.999Z</time></trkpt><trkpt lat="45.036835808015695" lon="8.319496245901421"><ele>274.25</ele><time>2026-04-18T11:47:06.999Z</time></trkpt><trkpt lat="45.03697445724866" lon="8.319341118265802"><ele>278.0</ele><time>2026-04-18T11:47:08.999Z</time></trkpt><trkpt lat="45.036972854441274" lon="8.31921035625107"><ele>278.0</ele><time>2026-04-18T11:47:10.999Z</time></trkpt><trkpt lat="45.03697113684524" lon="8.319070229034802"><ele>278.0</ele><time>2026-04-18T11:47:12.999Z</time></trkpt><trkpt lat="45.036969550481466" lon="8.318940808639704"><ele>278.0</ele><time>2026-04-18T11:47:14.999Z</time></trkpt><trkpt lat="45.03682379238542" lon="8.31893267939123"><ele>278.0</ele><time>2026-04-18T11:47:16.999Z</time></trkpt><trkpt lat="45.036860238774054" lon="8.319024983942485"><ele>278.0</ele><time>2026-04-18T11:47:19.999Z</time></trkpt><trkpt lat="45.03687645583456" lon="8.31919606286725"><ele>278.0</ele><time>2026-04-18T11:47:20.999Z</time></trkpt><trkpt lat="45.0369644081367" lon="8.319256248888232"><ele>278.0</ele><time>2026-04-18T11:47:22.999Z</time></trkpt><trkpt lat="45.03703010889316" lon="8.319217975779361"><ele>278.0</ele><time>2026-04-18T11:47:23.999Z</time></trkpt><trkpt lat="45.03705846214364" lon="8.319068080576592"><ele>278.0</ele><time>2026-04-18T11:47:25.999Z</time></trkpt><trkpt lat="45.03695291222422" lon="8.318970893828956"><ele>278.0</ele><time>2026-04-18T11:47:27.999Z</time></trkpt><trkpt lat="45.036890194415946" lon="8.318947285011255"><ele>278.0</ele><time>2026-04-18T11:47:28.999Z</time></trkpt><trkpt lat="45.03682032915663" lon="8.319201493204954"><ele>278.0</ele><time>2026-04-18T11:47:31.999Z</time></trkpt><trkpt lat="45.0368630858549" lon="8.319279535942615"><ele>278.0</ele><time>2026-04-18T11:47:32.999Z</time></trkpt><trkpt lat="45.03691556491026" lon="8.319333465236712"><ele>278.0</ele><time>2026-04-18T11:47:33.999Z</time></trkpt><trkpt lat="45.037014306995275" lon="8.319337168633075"><ele>278.0</ele><time>2026-04-18T11:47:35.999Z</time></trkpt><trkpt lat="45.037050438987144" lon="8.319178961260587"><ele>278.0</ele><time>2026-04-18T11:47:37.999Z</time></trkpt><trkpt lat="45.037002122110636" lon="8.31910827095343"><ele>278.0</ele><time>2026-04-18T11:47:38.999Z</time></trkpt><trkpt lat="45.036932699122" lon="8.319087586512568"><ele>278.0</ele><time>2026-04-18T11:47:39.999Z</time></trkpt><trkpt lat="45.0368653860381" lon="8.319136901233962"><ele>278.0</ele><time>2026-04-18T11:47:40.999Z</time></trkpt><trkpt lat="45.0368682903158" lon="8.319294418017215"><ele>278.0</ele><time>2026-04-18T11:47:42.999Z</time></trkpt><trkpt lat="45.03692954857905" lon="8.31932590950985"><ele>278.0</ele><time>2026-04-18T11:47:43.999Z</time></trkpt><trkpt lat="45.03699685219803" lon="8.3192935863757"><ele>278.0</ele><time>2026-04-18T11:48:19.999Z</time></trkpt><trkpt lat="45.03704103853855" lon="8.319165506573848"><ele>278.0</ele><time>2026-04-18T11:48:21.999Z</time></trkpt><trkpt lat="45.037081708729055" lon="8.319041195820992"><ele>278.0</ele><time>2026-04-18T11:48:22.999Z</time></trkpt><trkpt lat="45.0371763767571" lon="8.31900332251675"><ele>278.0</ele><time>2026-04-18T11:48:24.999Z</time></trkpt><trkpt lat="45.03723769640259" lon="8.319064461771456"><ele>278.0</ele><time>2026-04-18T11:48:25.999Z</time></trkpt><trkpt lat="45.03736900542821" lon="8.319054137811944"><ele>278.75</ele><time>2026-04-18T11:48:26.999Z</time></trkpt><trkpt lat="45.03749374626988" lon="8.319047162153263"><ele>279.5</ele><time>2026-04-18T11:48:27.999Z</time></trkpt><trkpt lat="45.03761786231561" lon="8.319033154394521"><ele>280.25</ele><time>2026-04-18T11:48:28.999Z</time></trkpt><trkpt lat="45.03773596364708" lon="8.319007486860729"><ele>281.0</ele><time>2026-04-18T11:48:29.999Z</time></trkpt><trkpt lat="45.03783917650929" lon="8.318982078184861"><ele>281.0</ele><time>2026-04-18T11:48:30.999Z</time></trkpt><trkpt lat="45.03793040037944" lon="8.31895689301803"><ele>281.0</ele><time>2026-04-18T11:48:31.999Z</time></trkpt><trkpt lat="45.03801284125123" lon="8.318922765765118"><ele>281.0</ele><time>2026-04-18T11:48:32.999Z</time></trkpt><trkpt lat="45.038087526255026" lon="8.31890335753798"><ele>281.0</ele><time>2026-04-18T11:48:33.999Z</time></trkpt><trkpt lat="45.03815554967612" lon="8.318855807013676"><ele>281.0</ele><time>2026-04-18T11:48:34.999Z</time></trkpt><trkpt lat="45.03821166551414" lon="8.318808295766246"><ele>281.0</ele><time>2026-04-18T11:48:35.999Z</time></trkpt><trkpt lat="45.03827400324588" lon="8.318750493641602"><ele>280.0</ele><time>2026-04-18T11:48:36.999Z</time></trkpt><trkpt lat="45.03838835299683" lon="8.318649408994899"><ele>279.0</ele><time>2026-04-18T11:48:37.999Z</time></trkpt><trkpt lat="45.03850053915617" lon="8.318574248612256"><ele>278.0</ele><time>2026-04-18T11:48:38.999Z</time></trkpt><trkpt lat="45.03856722758146" lon="8.31851023331836"><ele>277.0</ele><time>2026-04-18T11:48:39.999Z</time></trkpt><trkpt lat="45.03864085956642" lon="8.31832381618325"><ele>277.0</ele><time>2026-04-18T11:48:41.999Z</time></trkpt><trkpt lat="45.03867191723683" lon="8.318235914765364"><ele>277.0</ele><time>2026-04-18T11:48:42.999Z</time></trkpt><trkpt lat="45.03868641649111" lon="8.318075453052593"><ele>277.0</ele><time>2026-04-18T11:48:43.999Z</time></trkpt><trkpt lat="45.03871375124308" lon="8.317810784135029"><ele>277.0</ele><time>2026-04-18T11:48:44.999Z</time></trkpt><trkpt lat="45.038729456520784" lon="8.317496616185162"><ele>277.25</ele><time>2026-04-18T11:48:45.999Z</time></trkpt><trkpt lat="45.038769154269886" lon="8.317288720108554"><ele>277.5</ele><time>2026-04-18T11:48:46.999Z</time></trkpt><trkpt lat="45.038799214662696" lon="8.317128089618071"><ele>277.75</ele><time>2026-04-18T11:48:47.999Z</time></trkpt><trkpt lat="45.038840216852805" lon="8.316972251043696"><ele>278.0</ele><time>2026-04-18T11:48:48.999Z</time></trkpt><trkpt lat="45.03889382758177" lon="8.316843549260785"><ele>277.6</ele><time>2026-04-18T11:48:49.999Z</time></trkpt><trkpt lat="45.03895437440087" lon="8.316706409560474"><ele>277.20000000000005</ele><time>2026-04-18T11:48:50.999Z</time></trkpt><trkpt lat="45.0390136443757" lon="8.316583074160356"><ele>276.8</ele><time>2026-04-18T11:48:51.999Z</time></trkpt><trkpt lat="45.03907325158348" lon="8.316469172321082"><ele>276.40000000000003</ele><time>2026-04-18T11:48:52.999Z</time></trkpt><trkpt lat="45.0391244991331" lon="8.316370117669683"><ele>276.0</ele><time>2026-04-18T11:48:53.999Z</time></trkpt><trkpt lat="45.039167753751144" lon="8.316279798401434"><ele>276.0</ele><time>2026-04-18T11:48:54.999Z</time></trkpt><trkpt lat="45.03918876117891" lon="8.316178484878767"><ele>276.0</ele><time>2026-04-18T11:48:55.999Z</time></trkpt><trkpt lat="45.039171767150386" lon="8.31607481192303"><ele>276.0</ele><time>2026-04-18T11:48:56.999Z</time></trkpt><trkpt lat="45.03911204290875" lon="8.315958562764447"><ele>276.0</ele><time>2026-04-18T11:48:57.999Z</time></trkpt><trkpt lat="45.039074998535845" lon="8.315773734937403"><ele>276.0</ele><time>2026-04-18T11:48:58.999Z</time></trkpt><trkpt lat="45.039042680431095" lon="8.315566246706254"><ele>272.0</ele><time>2026-04-18T11:48:59.999Z</time></trkpt><trkpt lat="45.039017163485454" lon="8.31538828540939"><ele>268.0</ele><time>2026-04-18T11:49:00.999Z</time></trkpt><trkpt lat="45.03899386233332" lon="8.315221053080277"><ele>264.0</ele><time>2026-04-18T11:49:01.999Z</time></trkpt><trkpt lat="45.03895801722904" lon="8.315055370158746"><ele>260.0</ele><time>2026-04-18T11:49:02.999Z</time></trkpt><trkpt lat="45.03894286732282" lon="8.31488995650876"><ele>262.0</ele><time>2026-04-18T11:49:03.999Z</time></trkpt><trkpt lat="45.03894222913403" lon="8.314736207147936"><ele>264.0</ele><time>2026-04-18T11:49:04.999Z</time></trkpt><trkpt lat="45.0389289393102" lon="8.314601520487518"><ele>266.0</ele><time>2026-04-18T11:49:05.999Z</time></trkpt><trkpt lat="45.03891330711649" lon="8.314469663927744"><ele>268.0</ele><time>2026-04-18T11:49:06.999Z</time></trkpt><trkpt lat="45.03888750009945" lon="8.31433587558629"><ele>270.0</ele><time>2026-04-18T11:49:07.999Z</time></trkpt><trkpt lat="45.03885857902527" lon="8.314203589627017"><ele>270.0</ele><time>2026-04-18T11:49:08.999Z</time></trkpt><trkpt lat="45.038803830632524" lon="8.314092576857714"><ele>270.0</ele><time>2026-04-18T11:49:09.999Z</time></trkpt><trkpt lat="45.03874100884699" lon="8.314016344662017"><ele>270.0</ele><time>2026-04-18T11:49:10.999Z</time></trkpt><trkpt lat="45.03869050026349" lon="8.313936688563796"><ele>270.0</ele><time>2026-04-18T11:49:11.999Z</time></trkpt><trkpt lat="45.038630305733314" lon="8.313827128496143"><ele>270.0</ele><time>2026-04-18T11:49:13.999Z</time></trkpt><trkpt lat="45.03857814215299" lon="8.313697124669769"><ele>270.2</ele><time>2026-04-18T11:49:15.999Z</time></trkpt><trkpt lat="45.03861249488595" lon="8.313563558336822"><ele>270.4</ele><time>2026-04-18T11:49:17.999Z</time></trkpt><trkpt lat="45.03869316582731" lon="8.31342003357596"><ele>270.6</ele><time>2026-04-18T11:49:18.999Z</time></trkpt><trkpt lat="45.03876103418834" lon="8.313307203615619"><ele>270.8</ele><time>2026-04-18T11:49:19.999Z</time></trkpt><trkpt lat="45.03882108084757" lon="8.313221683128937"><ele>271.0</ele><time>2026-04-18T11:49:20.999Z</time></trkpt><trkpt lat="45.03888378516468" lon="8.31317602207919"><ele>271.0</ele><time>2026-04-18T11:49:21.999Z</time></trkpt><trkpt lat="45.03896020201664" lon="8.313122012570751"><ele>271.0</ele><time>2026-04-18T11:49:22.999Z</time></trkpt><trkpt lat="45.039059580014296" lon="8.313057190208486"><ele>271.0</ele><time>2026-04-18T11:49:23.999Z</time></trkpt><trkpt lat="45.039149078053384" lon="8.312990383531377"><ele>271.0</ele><time>2026-04-18T11:49:24.999Z</time></trkpt><trkpt lat="45.039244765665885" lon="8.312959321411958"><ele>271.0</ele><time>2026-04-18T11:49:25.999Z</time></trkpt><trkpt lat="45.03934632320616" lon="8.31292783224003"><ele>271.40000000000003</ele><time>2026-04-18T11:49:26.999Z</time></trkpt><trkpt lat="45.03944615425426" lon="8.312900486474106"><ele>271.8</ele><time>2026-04-18T11:49:27.999Z</time></trkpt><trkpt lat="45.03953435348606" lon="8.312875535208407"><ele>272.20000000000005</ele><time>2026-04-18T11:49:28.999Z</time></trkpt><trkpt lat="45.03961902091844" lon="8.312872425536229"><ele>272.6</ele><time>2026-04-18T11:49:29.999Z</time></trkpt><trkpt lat="45.03970787084213" lon="8.312856289865262"><ele>273.0</ele><time>2026-04-18T11:49:30.999Z</time></trkpt><trkpt lat="45.039803842969214" lon="8.312822966273833"><ele>273.0</ele><time>2026-04-18T11:49:31.999Z</time></trkpt><trkpt lat="45.039897395483386" lon="8.312814548835835"><ele>273.0</ele><time>2026-04-18T11:49:32.999Z</time></trkpt><trkpt lat="45.03998497410644" lon="8.312798075002647"><ele>273.0</ele><time>2026-04-18T11:49:33.999Z</time></trkpt><trkpt lat="45.04005067291915" lon="8.312781617081622"><ele>273.0</ele><time>2026-04-18T11:49:34.999Z</time></trkpt><trkpt lat="45.04010665885875" lon="8.312705405040056"><ele>273.0</ele><time>2026-04-18T11:49:35.999Z</time></trkpt><trkpt lat="45.040159943506545" lon="8.312633034732515"><ele>273.0</ele><time>2026-04-18T11:49:36.999Z</time></trkpt><trkpt lat="45.04022737042998" lon="8.31253969011682"><ele>272.4</ele><time>2026-04-18T11:49:37.999Z</time></trkpt><trkpt lat="45.04029690583195" lon="8.312436003094795"><ele>271.8</ele><time>2026-04-18T11:49:38.999Z</time></trkpt><trkpt lat="45.04035951786177" lon="8.312322004729703"><ele>271.2</ele><time>2026-04-18T11:49:39.999Z</time></trkpt><trkpt lat="45.04041295543017" lon="8.312212234889037"><ele>270.6</ele><time>2026-04-18T11:49:40.999Z</time></trkpt><trkpt lat="45.04046471847013" lon="8.312095772131089"><ele>270.0</ele><time>2026-04-18T11:49:41.999Z</time></trkpt><trkpt lat="45.040519663966705" lon="8.311973516826344"><ele>270.0</ele><time>2026-04-18T11:49:42.999Z</time></trkpt><trkpt lat="45.04057789790303" lon="8.311846092898318"><ele>270.0</ele><time>2026-04-18T11:49:43.999Z</time></trkpt><trkpt lat="45.04065455463479" lon="8.31167745491567"><ele>270.0</ele><time>2026-04-18T11:49:44.999Z</time></trkpt><trkpt lat="45.04073852096236" lon="8.311490077337439"><ele>270.0</ele><time>2026-04-18T11:49:45.999Z</time></trkpt><trkpt lat="45.04080301200139" lon="8.31132151400307"><ele>270.0</ele><time>2026-04-18T11:49:46.999Z</time></trkpt><trkpt lat="45.04083750428089" lon="8.311209736609634"><ele>270.0</ele><time>2026-04-18T11:49:47.999Z</time></trkpt><trkpt lat="45.040867240450545" lon="8.311111358552916"><ele>270.0</ele><time>2026-04-18T11:49:48.999Z</time></trkpt><trkpt lat="45.040902460253434" lon="8.3109946226994"><ele>270.0</ele><time>2026-04-18T11:49:50.999Z</time></trkpt><trkpt lat="45.0408953841683" lon="8.310884996446555"><ele>270.0</ele><time>2026-04-18T11:49:52.999Z</time></trkpt><trkpt lat="45.04089204608548" lon="8.310611799608917"><ele>270.3333333333333</ele><time>2026-04-18T11:49:54.999Z</time></trkpt><trkpt lat="45.04089129118526" lon="8.310336758431648"><ele>270.66666666666663</ele><time>2026-04-18T11:49:55.999Z</time></trkpt><trkpt lat="45.04088390381937" lon="8.309986889869004"><ele>271.0</ele><time>2026-04-18T11:49:56.999Z</time></trkpt><trkpt lat="45.04084417161711" lon="8.309691489455838"><ele>272.3333333333333</ele><time>2026-04-18T11:49:57.999Z</time></trkpt><trkpt lat="45.04085600099168" lon="8.309483707195284"><ele>273.6666666666667</ele><time>2026-04-18T11:49:58.999Z</time></trkpt><trkpt lat="45.04086990503188" lon="8.309281194761931"><ele>275.0</ele><time>2026-04-18T11:49:59.999Z</time></trkpt><trkpt lat="45.040851150030456" lon="8.309054566047223"><ele>275.8</ele><time>2026-04-18T11:50:00.999Z</time></trkpt><trkpt lat="45.0408416938397" lon="8.308869523748312"><ele>276.6</ele><time>2026-04-18T11:50:01.999Z</time></trkpt><trkpt lat="45.04083633736592" lon="8.308697372860072"><ele>277.4</ele><time>2026-04-18T11:50:02.999Z</time></trkpt><trkpt lat="45.04083244147639" lon="8.308556774232635"><ele>278.2</ele><time>2026-04-18T11:50:03.999Z</time></trkpt><trkpt lat="45.040831714284685" lon="8.308440624347675"><ele>279.0</ele><time>2026-04-18T11:50:04.999Z</time></trkpt><trkpt lat="45.040850762096134" lon="8.3083238885501"><ele>279.0</ele><time>2026-04-18T11:50:06.999Z</time></trkpt><trkpt lat="45.04086865442218" lon="8.308223457090724"><ele>279.0</ele><time>2026-04-18T11:50:35.999Z</time></trkpt><trkpt lat="45.040853781075626" lon="8.308316699910744"><ele>279.0</ele><time>2026-04-18T11:51:21.999Z</time></trkpt><trkpt lat="45.04084575824393" lon="8.308409259228275"><ele>279.0</ele><time>2026-04-18T11:51:23.999Z</time></trkpt><trkpt lat="45.040700548439766" lon="8.308291603438711"><ele>279.0</ele><time>2026-04-18T11:51:26.999Z</time></trkpt><trkpt lat="45.04061331084388" lon="8.308262399779874"><ele>277.4</ele><time>2026-04-18T11:51:44.999Z</time></trkpt><trkpt lat="45.04054183903391" lon="8.308218886828085"><ele>275.79999999999995</ele><time>2026-04-18T11:51:45.999Z</time></trkpt><trkpt lat="45.040458330395694" lon="8.308148046017163"><ele>274.20000000000005</ele><time>2026-04-18T11:51:46.999Z</time></trkpt><trkpt lat="45.040353438682224" lon="8.30808409931753"><ele>272.6</ele><time>2026-04-18T11:51:47.999Z</time></trkpt><trkpt lat="45.04024921159736" lon="8.308016869451697"><ele>271.0</ele><time>2026-04-18T11:51:48.999Z</time></trkpt><trkpt lat="45.0401510118829" lon="8.307950946199831"><ele>270.0</ele><time>2026-04-18T11:51:49.999Z</time></trkpt><trkpt lat="45.040061932492094" lon="8.30789093857124"><ele>269.0</ele><time>2026-04-18T11:51:50.999Z</time></trkpt><trkpt lat="45.03997116518791" lon="8.30782817694881"><ele>268.0</ele><time>2026-04-18T11:51:51.999Z</time></trkpt><trkpt lat="45.0398856303379" lon="8.307769033319184"><ele>267.0</ele><time>2026-04-18T11:51:52.999Z</time></trkpt><trkpt lat="45.03980090811967" lon="8.307710451609921"><ele>266.0</ele><time>2026-04-18T11:51:53.999Z</time></trkpt><trkpt lat="45.03971644872859" lon="8.307655178008252"><ele>265.33333333333337</ele><time>2026-04-18T11:51:54.999Z</time></trkpt><trkpt lat="45.039633864555775" lon="8.307606232540047"><ele>264.6666666666667</ele><time>2026-04-18T11:51:55.999Z</time></trkpt><trkpt lat="45.039552680471395" lon="8.307559935676775"><ele>264.0</ele><time>2026-04-18T11:51:56.999Z</time></trkpt><trkpt lat="45.039473573736274" lon="8.307520887814377"><ele>263.3333333333333</ele><time>2026-04-18T11:51:57.999Z</time></trkpt><trkpt lat="45.039396165405066" lon="8.307490429854031"><ele>262.66666666666663</ele><time>2026-04-18T11:51:58.999Z</time></trkpt><trkpt lat="45.03931869382645" lon="8.307468421225508"><ele>262.0</ele><time>2026-04-18T11:51:59.999Z</time></trkpt><trkpt lat="45.039227463600994" lon="8.307440164609119"><ele>262.2</ele><time>2026-04-18T11:52:00.999Z</time></trkpt><trkpt lat="45.03912774539952" lon="8.307409134723635"><ele>262.4</ele><time>2026-04-18T11:52:01.999Z</time></trkpt><trkpt lat="45.03901536546965" lon="8.307384570955056"><ele>262.6</ele><time>2026-04-18T11:52:02.999Z</time></trkpt><trkpt lat="45.038895333598944" lon="8.307391523440009"><ele>262.8</ele><time>2026-04-18T11:52:03.999Z</time></trkpt><trkpt lat="45.03878539200123" lon="8.307375878300457"><ele>263.0</ele><time>2026-04-18T11:52:04.999Z</time></trkpt><trkpt lat="45.03869442713012" lon="8.307364582948825"><ele>263.0</ele><time>2026-04-18T11:52:05.999Z</time></trkpt><trkpt lat="45.03861477019665" lon="8.30734621286025"><ele>263.0</ele><time>2026-04-18T11:52:06.999Z</time></trkpt><trkpt lat="45.038558136696494" lon="8.307304190948015"><ele>263.0</ele><time>2026-04-18T11:52:07.999Z</time></trkpt><trkpt lat="45.03848235034331" lon="8.307240050592771"><ele>263.0</ele><time>2026-04-18T11:52:09.999Z</time></trkpt><trkpt lat="45.0385501618246" lon="8.307294777491053"><ele>263.0</ele><time>2026-04-18T11:52:15.999Z</time></trkpt><trkpt lat="45.03860967405395" lon="8.307343391904258"><ele>263.0</ele><time>2026-04-18T11:52:16.999Z</time></trkpt><trkpt lat="45.03868255369012" lon="8.307349213589804"><ele>263.0</ele><time>2026-04-18T11:52:17.999Z</time></trkpt><trkpt lat="45.03880659690717" lon="8.30736057706215"><ele>263.0</ele><time>2026-04-18T11:52:18.999Z</time></trkpt><trkpt lat="45.038928010727304" lon="8.30738136136326"><ele>263.0</ele><time>2026-04-18T11:52:19.999Z</time></trkpt><trkpt lat="45.03903937949898" lon="8.30741092865898"><ele>263.0</ele><time>2026-04-18T11:52:20.999Z</time></trkpt><trkpt lat="45.03915531628703" lon="8.307436990770176"><ele>263.0</ele><time>2026-04-18T11:52:21.999Z</time></trkpt><trkpt lat="45.0392487888573" lon="8.307465248534989"><ele>263.0</ele><time>2026-04-18T11:52:22.999Z</time></trkpt><trkpt lat="45.03930995310685" lon="8.307492897664382"><ele>263.0</ele><time>2026-04-18T11:52:23.999Z</time></trkpt><trkpt lat="45.039288048794866" lon="8.307391405647325"><ele>263.0</ele><time>2026-04-18T11:52:28.999Z</time></trkpt><trkpt lat="45.039161192187656" lon="8.307311235263155"><ele>263.0</ele><time>2026-04-18T11:52:30.999Z</time></trkpt><trkpt lat="45.039065020341" lon="8.30727495542703"><ele>263.4</ele><time>2026-04-18T11:52:31.999Z</time></trkpt><trkpt lat="45.03894840879951" lon="8.307230964051659"><ele>263.8</ele><time>2026-04-18T11:52:32.999Z</time></trkpt><trkpt lat="45.03885196651701" lon="8.30719458036188"><ele>264.2</ele><time>2026-04-18T11:52:33.999Z</time></trkpt><trkpt lat="45.03876734758342" lon="8.307162657132181"><ele>264.6</ele><time>2026-04-18T11:52:34.999Z</time></trkpt><trkpt lat="45.038684619796825" lon="8.307131447353326"><ele>265.0</ele><time>2026-04-18T11:52:35.999Z</time></trkpt><trkpt lat="45.03861765160464" lon="8.307106183019272"><ele>265.0</ele><time>2026-04-18T11:52:36.999Z</time></trkpt><trkpt lat="45.03855188910245" lon="8.307099476752914"><ele>265.0</ele><time>2026-04-18T11:52:37.999Z</time></trkpt><trkpt lat="45.03851755172582" lon="8.307013162747927"><ele>265.0</ele><time>2026-04-18T11:52:38.999Z</time></trkpt><trkpt lat="45.03850827741816" lon="8.30690971674508"><ele>265.0</ele><time>2026-04-18T11:52:39.999Z</time></trkpt><trkpt lat="45.03850701564766" lon="8.306757591688934"><ele>265.0</ele><time>2026-04-18T11:52:40.999Z</time></trkpt><trkpt lat="45.03851959003588" lon="8.306574997820553"><ele>265.0</ele><time>2026-04-18T11:52:41.999Z</time></trkpt><trkpt lat="45.03851238257742" lon="8.306414784750817"><ele>263.8</ele><time>2026-04-18T11:52:42.999Z</time></trkpt><trkpt lat="45.03851214438393" lon="8.306261897966948"><ele>262.6</ele><time>2026-04-18T11:52:43.999Z</time></trkpt><trkpt lat="45.03849734249874" lon="8.306121425024415"><ele>261.4</ele><time>2026-04-18T11:52:44.999Z</time></trkpt><trkpt lat="45.03848633056536" lon="8.305991417207423"><ele>260.2</ele><time>2026-04-18T11:52:45.999Z</time></trkpt><trkpt lat="45.03848571527825" lon="8.305866486712553"><ele>259.0</ele><time>2026-04-18T11:52:46.999Z</time></trkpt><trkpt lat="45.03846654556594" lon="8.305750497283581"><ele>259.0</ele><time>2026-04-18T11:52:48Z</time></trkpt><trkpt lat="45.038434855753884" lon="8.30564504978303"><ele>259.0</ele><time>2026-04-18T11:52:49Z</time></trkpt><trkpt lat="45.038363616360954" lon="8.305534715416554"><ele>259.0</ele><time>2026-04-18T11:52:50Z</time></trkpt><trkpt lat="45.03830417390612" lon="8.305375315198871"><ele>259.0</ele><time>2026-04-18T11:52:51Z</time></trkpt><trkpt lat="45.03823520872074" lon="8.305244350769016"><ele>259.0</ele><time>2026-04-18T11:52:52Z</time></trkpt><trkpt lat="45.03816024779624" lon="8.305126930903064"><ele>259.4</ele><time>2026-04-18T11:52:53Z</time></trkpt><trkpt lat="45.03808860414214" lon="8.30502068313473"><ele>259.79999999999995</ele><time>2026-04-18T11:52:54Z</time></trkpt><trkpt lat="45.038031870759" lon="8.304923876584803"><ele>260.20000000000005</ele><time>2026-04-18T11:52:55Z</time></trkpt><trkpt lat="45.037973281775685" lon="8.30483884831413"><ele>260.6</ele><time>2026-04-18T11:52:56Z</time></trkpt><trkpt lat="45.03789033708149" lon="8.304759240758724"><ele>261.0</ele><time>2026-04-18T11:52:57Z</time></trkpt><trkpt lat="45.037803598092445" lon="8.3046602982865"><ele>258.8</ele><time>2026-04-18T11:52:58Z</time></trkpt><trkpt lat="45.037703858714" lon="8.304549050384368"><ele>256.6</ele><time>2026-04-18T11:52:59Z</time></trkpt><trkpt lat="45.03760817539825" lon="8.304426631229212"><ele>254.4</ele><time>2026-04-18T11:53:00Z</time></trkpt><trkpt lat="45.03753423367386" lon="8.304338773089858"><ele>252.2</ele><time>2026-04-18T11:53:01Z</time></trkpt><trkpt lat="45.037461676330665" lon="8.304250551409835"><ele>250.0</ele><time>2026-04-18T11:53:02Z</time></trkpt><trkpt lat="45.03739094679518" lon="8.304174369285937"><ele>250.0</ele><time>2026-04-18T11:53:03Z</time></trkpt><trkpt lat="45.03731778347855" lon="8.30410024640934"><ele>250.0</ele><time>2026-04-18T11:53:04Z</time></trkpt><trkpt lat="45.037240974075395" lon="8.304021126583871"><ele>250.0</ele><time>2026-04-18T11:53:05Z</time></trkpt><trkpt lat="45.037163590824356" lon="8.30394914703778"><ele>250.0</ele><time>2026-04-18T11:53:06Z</time></trkpt><trkpt lat="45.03708888435044" lon="8.30388178098482"><ele>250.0</ele><time>2026-04-18T11:53:07Z</time></trkpt><trkpt lat="45.037021456795884" lon="8.303808603521597"><ele>247.0</ele><time>2026-04-18T11:53:08Z</time></trkpt><trkpt lat="45.03695706903405" lon="8.303743848640755"><ele>244.0</ele><time>2026-04-18T11:53:09Z</time></trkpt><trkpt lat="45.036885417719446" lon="8.303687055438932"><ele>241.0</ele><time>2026-04-18T11:53:10Z</time></trkpt><trkpt lat="45.03682269216307" lon="8.303648790190087"><ele>238.0</ele><time>2026-04-18T11:53:11Z</time></trkpt><trkpt lat="45.03670157906819" lon="8.303589089389424"><ele>235.0</ele><time>2026-04-18T11:53:13Z</time></trkpt><trkpt lat="45.03659358902126" lon="8.303584352909006"><ele>234.99999999999997</ele><time>2026-04-18T11:53:15Z</time></trkpt><trkpt lat="45.03651184744288" lon="8.303602628066818"><ele>235.0</ele><time>2026-04-18T11:53:17Z</time></trkpt><trkpt lat="45.036429091094575" lon="8.3035457155761"><ele>235.0</ele><time>2026-04-18T11:53:19Z</time></trkpt><trkpt lat="45.036352135857996" lon="8.303479443068376"><ele>235.0</ele><time>2026-04-18T11:53:22Z</time></trkpt><trkpt lat="45.03628220837582" lon="8.303423426019823"><ele>234.99999999999997</ele><time>2026-04-18T11:53:24Z</time></trkpt><trkpt lat="45.03625047195276" lon="8.303325348636154"><ele>235.0</ele><time>2026-04-18T11:53:26Z</time></trkpt><trkpt lat="45.036234834587944" lon="8.303214884291322"><ele>235.0</ele><time>2026-04-18T11:53:28Z</time></trkpt><trkpt lat="45.03623062736059" lon="8.303095160399355"><ele>235.0</ele><time>2026-04-18T11:53:30Z</time></trkpt><trkpt lat="45.036220645585665" lon="8.302959089145006"><ele>235.0</ele><time>2026-04-18T11:53:32Z</time></trkpt><trkpt lat="45.03620918159567" lon="8.30282264357971"><ele>235.0</ele><time>2026-04-18T11:53:34Z</time></trkpt><trkpt lat="45.03620461329981" lon="8.302677596221049"><ele>235.0</ele><time>2026-04-18T11:53:36Z</time></trkpt><trkpt lat="45.03620244333634" lon="8.30252639926989"><ele>233.4</ele><time>2026-04-18T11:53:38Z</time></trkpt><trkpt lat="45.03619548385826" lon="8.302365051986895"><ele>231.8</ele><time>2026-04-18T11:53:40Z</time></trkpt><trkpt lat="45.03617854680182" lon="8.302269834791556"><ele>230.2</ele><time>2026-04-18T11:53:41Z</time></trkpt><trkpt lat="45.03616034711781" lon="8.302165185475896"><ele>228.6</ele><time>2026-04-18T11:53:42Z</time></trkpt><trkpt lat="45.03611889551788" lon="8.302041890804945"><ele>227.0</ele><time>2026-04-18T11:53:43Z</time></trkpt><trkpt lat="45.03606893378805" lon="8.301899864587707"><ele>227.6</ele><time>2026-04-18T11:53:44Z</time></trkpt><trkpt lat="45.03601688730411" lon="8.301791751683306"><ele>228.2</ele><time>2026-04-18T11:53:45Z</time></trkpt><trkpt lat="45.03597296799491" lon="8.30167674360715"><ele>228.8</ele><time>2026-04-18T11:53:46Z</time></trkpt><trkpt lat="45.03591670056886" lon="8.30155053638635"><ele>229.4</ele><time>2026-04-18T11:53:47Z</time></trkpt><trkpt lat="45.03585241643899" lon="8.301429110992451"><ele>230.0</ele><time>2026-04-18T11:53:48Z</time></trkpt><trkpt lat="45.03579660028134" lon="8.30130194700242"><ele>230.0</ele><time>2026-04-18T11:53:49Z</time></trkpt><trkpt lat="45.035740703368255" lon="8.301161308084616"><ele>230.0</ele><time>2026-04-18T11:53:50Z</time></trkpt><trkpt lat="45.03568635262079" lon="8.301030640043148"><ele>230.0</ele><time>2026-04-18T11:53:51Z</time></trkpt><trkpt lat="45.03564134845916" lon="8.300898107746887"><ele>230.0</ele><time>2026-04-18T11:53:52Z</time></trkpt><trkpt lat="45.035603366729795" lon="8.300773830947605"><ele>230.0</ele><time>2026-04-18T11:53:53Z</time></trkpt><trkpt lat="45.03557179660484" lon="8.300655259423053"><ele>229.50000000000003</ele><time>2026-04-18T11:53:54Z</time></trkpt><trkpt lat="45.035548863209605" lon="8.300550077006225"><ele>229.0</ele><time>2026-04-18T11:53:55Z</time></trkpt><trkpt lat="45.03552046088428" lon="8.300428484225923"><ele>228.5</ele><time>2026-04-18T11:53:56Z</time></trkpt><trkpt lat="45.035494632475036" lon="8.300331041055854"><ele>228.0</ele><time>2026-04-18T11:53:57Z</time></trkpt><trkpt lat="45.035467910574475" lon="8.300208799279366"><ele>227.50000000000003</ele><time>2026-04-18T11:53:58Z</time></trkpt><trkpt lat="45.03543336546818" lon="8.300120867505886"><ele>227.0</ele><time>2026-04-18T11:53:59Z</time></trkpt><trkpt lat="45.03539608726369" lon="8.300021413746787"><ele>227.0</ele><time>2026-04-18T11:54:00Z</time></trkpt><trkpt lat="45.03535732780303" lon="8.29992830509273"><ele>227.0</ele><time>2026-04-18T11:54:01Z</time></trkpt><trkpt lat="45.03530845858675" lon="8.29982243508535"><ele>227.0</ele><time>2026-04-18T11:54:02Z</time></trkpt><trkpt lat="45.03526394172692" lon="8.299711000350413"><ele>227.0</ele><time>2026-04-18T11:54:03Z</time></trkpt><trkpt lat="45.03520756111047" lon="8.299602240327602"><ele>227.0</ele><time>2026-04-18T11:54:04Z</time></trkpt><trkpt lat="45.035163927895816" lon="8.299473370305677"><ele>225.39999999999998</ele><time>2026-04-18T11:54:05Z</time></trkpt><trkpt lat="45.03513406282145" lon="8.299355101049105"><ele>223.79999999999998</ele><time>2026-04-18T11:54:06Z</time></trkpt><trkpt lat="45.03510832721296" lon="8.2992286657566"><ele>222.2</ele><time>2026-04-18T11:54:07Z</time></trkpt><trkpt lat="45.03509101147288" lon="8.299095860746903"><ele>220.6</ele><time>2026-04-18T11:54:07.999Z</time></trkpt><trkpt lat="45.03508234637113" lon="8.29894799735705"><ele>219.0</ele><time>2026-04-18T11:54:08.999Z</time></trkpt><trkpt lat="45.035077682198356" lon="8.298794188480938"><ele>218.0</ele><time>2026-04-18T11:54:09.999Z</time></trkpt><trkpt lat="45.03507169243668" lon="8.298674594447796"><ele>217.0</ele><time>2026-04-18T11:54:10.999Z</time></trkpt><trkpt lat="45.03506163392945" lon="8.298535721092785"><ele>216.0</ele><time>2026-04-18T11:54:11.999Z</time></trkpt><trkpt lat="45.03505418679332" lon="8.298406535169434"><ele>215.0</ele><time>2026-04-18T11:54:12.999Z</time></trkpt><trkpt lat="45.03504907946161" lon="8.298283678729831"><ele>214.0</ele><time>2026-04-18T11:54:13.999Z</time></trkpt><trkpt lat="45.035047211508086" lon="8.29817068847791"><ele>213.0</ele><time>2026-04-18T11:54:14.999Z</time></trkpt><trkpt lat="45.03504017595466" lon="8.298041249707039"><ele>212.8</ele><time>2026-04-18T11:54:15.999Z</time></trkpt><trkpt lat="45.035025127783435" lon="8.297911398047725"><ele>212.60000000000002</ele><time>2026-04-18T11:54:16.999Z</time></trkpt><trkpt lat="45.03500727294853" lon="8.297739826063049"><ele>212.39999999999998</ele><time>2026-04-18T11:54:17.999Z</time></trkpt><trkpt lat="45.03499746158755" lon="8.297575457865113"><ele>212.2</ele><time>2026-04-18T11:54:18.999Z</time></trkpt><trkpt lat="45.03499108862205" lon="8.297441556638558"><ele>212.0</ele><time>2026-04-18T11:54:19.999Z</time></trkpt><trkpt lat="45.03498399544979" lon="8.297320006037886"><ele>212.0</ele><time>2026-04-18T11:54:20.999Z</time></trkpt><trkpt lat="45.034974637137786" lon="8.297169992262402"><ele>212.0</ele><time>2026-04-18T11:54:21.999Z</time></trkpt><trkpt lat="45.03496465375752" lon="8.29703541461449"><ele>212.0</ele><time>2026-04-18T11:54:22.999Z</time></trkpt><trkpt lat="45.034959122613984" lon="8.29690469154546"><ele>212.0</ele><time>2026-04-18T11:54:23.999Z</time></trkpt><trkpt lat="45.03495427594647" lon="8.296777987873483"><ele>212.0</ele><time>2026-04-18T11:54:24.999Z</time></trkpt><trkpt lat="45.034946320393985" lon="8.296634418082082"><ele>211.8</ele><time>2026-04-18T11:54:25.999Z</time></trkpt><trkpt lat="45.03493591090008" lon="8.296482741714227"><ele>211.6</ele><time>2026-04-18T11:54:26.999Z</time></trkpt><trkpt lat="45.03492622913022" lon="8.296334605765571"><ele>211.4</ele><time>2026-04-18T11:54:27.999Z</time></trkpt><trkpt lat="45.034915635064436" lon="8.296180870025887"><ele>211.20000000000002</ele><time>2026-04-18T11:54:28.999Z</time></trkpt><trkpt lat="45.034904162483485" lon="8.29603236215467"><ele>211.0</ele><time>2026-04-18T11:54:29.999Z</time></trkpt><trkpt lat="45.03489651436082" lon="8.29588306783547"><ele>210.99999999999997</ele><time>2026-04-18T11:54:30.999Z</time></trkpt><trkpt lat="45.03488412681898" lon="8.295737858172085"><ele>211.0</ele><time>2026-04-18T11:54:31.999Z</time></trkpt><trkpt lat="45.03487330381055" lon="8.295602448089848"><ele>211.0</ele><time>2026-04-18T11:54:32.999Z</time></trkpt><trkpt lat="45.03486378982881" lon="8.295467302585301"><ele>211.0</ele><time>2026-04-18T11:54:33.999Z</time></trkpt><trkpt lat="45.03485335276482" lon="8.295362446079599"><ele>210.99999999999997</ele><time>2026-04-18T11:54:34.999Z</time></trkpt><trkpt lat="45.03485288945915" lon="8.295273331770568"><ele>211.0</ele><time>2026-04-18T11:54:36.999Z</time></trkpt><trkpt lat="45.03483707155583" lon="8.29510709552023"><ele>211.83333333333331</ele><time>2026-04-18T11:54:37.999Z</time></trkpt><trkpt lat="45.03482989466938" lon="8.294941386763552"><ele>212.66666666666666</ele><time>2026-04-18T11:54:38.999Z</time></trkpt><trkpt lat="45.034855436703" lon="8.294848847367566"><ele>213.5</ele><time>2026-04-18T11:54:39.999Z</time></trkpt><trkpt lat="45.0348545518645" lon="8.294759177433296"><ele>214.33333333333331</ele><time>2026-04-18T11:54:40.999Z</time></trkpt><trkpt lat="45.03481516752227" lon="8.294626269155671"><ele>215.16666666666666</ele><time>2026-04-18T11:55:45Z</time></trkpt><trkpt lat="45.034819536462976" lon="8.294528465451993"><ele>216.0</ele><time>2026-04-18T11:55:46Z</time></trkpt><trkpt lat="45.03483474872103" lon="8.29436045964938"><ele>217.20000000000002</ele><time>2026-04-18T11:55:48Z</time></trkpt><trkpt lat="45.0348054892915" lon="8.294214267971045"><ele>218.40000000000003</ele><time>2026-04-18T11:55:50Z</time></trkpt><trkpt lat="45.03477515345157" lon="8.29401814275866"><ele>219.6</ele><time>2026-04-18T11:55:51Z</time></trkpt><trkpt lat="45.03474369818732" lon="8.293919654113909"><ele>220.8</ele><time>2026-04-18T11:55:52Z</time></trkpt><trkpt lat="45.034679361330014" lon="8.29385477090549"><ele>222.0</ele><time>2026-04-18T11:55:53Z</time></trkpt><trkpt lat="45.03461704880959" lon="8.29375402803893"><ele>222.6</ele><time>2026-04-18T11:55:54Z</time></trkpt><trkpt lat="45.03454591490647" lon="8.293650581530155"><ele>223.2</ele><time>2026-04-18T11:55:55Z</time></trkpt><trkpt lat="45.034477274599254" lon="8.293542377561309"><ele>223.8</ele><time>2026-04-18T11:55:56Z</time></trkpt><trkpt lat="45.03445532170883" lon="8.293427635848063"><ele>224.4</ele><time>2026-04-18T11:55:57Z</time></trkpt><trkpt lat="45.034445730923125" lon="8.293320655043123"><ele>225.0</ele><time>2026-04-18T11:55:58Z</time></trkpt><trkpt lat="45.03444535801861" lon="8.293180665188245"><ele>226.0</ele><time>2026-04-18T11:55:59Z</time></trkpt><trkpt lat="45.034455910753785" lon="8.293037225268389"><ele>227.0</ele><time>2026-04-18T11:56:00Z</time></trkpt><trkpt lat="45.0344731745093" lon="8.292899782141845"><ele>228.0</ele><time>2026-04-18T11:56:01Z</time></trkpt><trkpt lat="45.034490727416" lon="8.29278174286839"><ele>229.0</ele><time>2026-04-18T11:56:02Z</time></trkpt><trkpt lat="45.034511912460864" lon="8.2926456245328"><ele>230.0</ele><time>2026-04-18T11:56:03Z</time></trkpt><trkpt lat="45.03453708852344" lon="8.292494743992217"><ele>230.0</ele><time>2026-04-18T11:56:04Z</time></trkpt><trkpt lat="45.03456403538484" lon="8.292344446561215"><ele>230.0</ele><time>2026-04-18T11:56:05Z</time></trkpt><trkpt lat="45.03459297114477" lon="8.292183055283882"><ele>230.0</ele><time>2026-04-18T11:56:06Z</time></trkpt><trkpt lat="45.0346209692286" lon="8.292019057717361"><ele>230.0</ele><time>2026-04-18T11:56:07Z</time></trkpt><trkpt lat="45.034635090407754" lon="8.291838178707655"><ele>231.6</ele><time>2026-04-18T11:56:08Z</time></trkpt><trkpt lat="45.034668331845104" lon="8.291674323301141"><ele>233.2</ele><time>2026-04-18T11:56:09Z</time></trkpt><trkpt lat="45.03471347630691" lon="8.291521021565105"><ele>234.8</ele><time>2026-04-18T11:56:10Z</time></trkpt><trkpt lat="45.03474145987219" lon="8.291404942128018"><ele>236.4</ele><time>2026-04-18T11:56:11Z</time></trkpt><trkpt lat="45.03477961417373" lon="8.29130497805358"><ele>238.0</ele><time>2026-04-18T11:56:12Z</time></trkpt><trkpt lat="45.03482194848377" lon="8.291227576834563"><ele>239.83333333333331</ele><time>2026-04-18T11:56:13Z</time></trkpt><trkpt lat="45.03489734405978" lon="8.291081707802904"><ele>241.66666666666666</ele><time>2026-04-18T11:56:15Z</time></trkpt><trkpt lat="45.03493636475001" lon="8.29101155641956"><ele>243.5</ele><time>2026-04-18T11:56:16Z</time></trkpt><trkpt lat="45.03497825302288" lon="8.290934847832027"><ele>245.33333333333331</ele><time>2026-04-18T11:56:17Z</time></trkpt><trkpt lat="45.03500110949814" lon="8.290844155013106"><ele>247.16666666666666</ele><time>2026-04-18T11:56:18Z</time></trkpt><trkpt lat="45.03504638266566" lon="8.290770233069958"><ele>249.0</ele><time>2026-04-18T11:56:20Z</time></trkpt><trkpt lat="45.03509759826383" lon="8.29062824655925"><ele>247.75</ele><time>2026-04-18T11:56:25Z</time></trkpt><trkpt lat="45.03514986518228" lon="8.290483345592863"><ele>246.5</ele><time>2026-04-18T11:56:27Z</time></trkpt><trkpt lat="45.03507670930298" lon="8.290330021502708"><ele>245.25</ele><time>2026-04-18T11:56:28Z</time></trkpt><trkpt lat="45.035114855907196" lon="8.290247024990935"><ele>244.0</ele><time>2026-04-18T11:56:29Z</time></trkpt><trkpt lat="45.03518101132048" lon="8.289991101063128"><ele>243.99999999999997</ele><time>2026-04-18T11:56:32Z</time></trkpt><trkpt lat="45.03520187711272" lon="8.289896479178136"><ele>244.0</ele><time>2026-04-18T11:56:33Z</time></trkpt><trkpt lat="45.03522259117755" lon="8.289810024300229"><ele>244.0</ele><time>2026-04-18T11:56:34Z</time></trkpt><trkpt lat="45.03528863789669" lon="8.289716013114734"><ele>244.0</ele><time>2026-04-18T11:56:36Z</time></trkpt><trkpt lat="45.03537013069406" lon="8.289642792854673"><ele>243.99999999999997</ele><time>2026-04-18T11:56:39Z</time></trkpt><trkpt lat="45.03546501106433" lon="8.289577303861323"><ele>244.0</ele><time>2026-04-18T11:56:40Z</time></trkpt><trkpt lat="45.035578533639196" lon="8.289510229002818"><ele>241.5</ele><time>2026-04-18T11:56:41Z</time></trkpt><trkpt lat="45.03569274954484" lon="8.289444967479717"><ele>239.0</ele><time>2026-04-18T11:56:42Z</time></trkpt><trkpt lat="45.03581290670582" lon="8.28939084139905"><ele>236.5</ele><time>2026-04-18T11:56:43Z</time></trkpt><trkpt lat="45.03591584407794" lon="8.289355733660036"><ele>234.0</ele><time>2026-04-18T11:56:44Z</time></trkpt><trkpt lat="45.03600997686498" lon="8.28933401488272"><ele>233.79999999999998</ele><time>2026-04-18T11:56:45Z</time></trkpt><trkpt lat="45.036100112852075" lon="8.289323182884345"><ele>233.59999999999997</ele><time>2026-04-18T11:56:46Z</time></trkpt><trkpt lat="45.03621377677514" lon="8.289327619729239"><ele>233.4</ele><time>2026-04-18T11:56:47Z</time></trkpt><trkpt lat="45.036326838176755" lon="8.289347525346152"><ele>233.2</ele><time>2026-04-18T11:56:48Z</time></trkpt><trkpt lat="45.036433626740084" lon="8.289385846443658"><ele>233.0</ele><time>2026-04-18T11:56:49Z</time></trkpt><trkpt lat="45.03655041976832" lon="8.289436879880288"><ele>232.2</ele><time>2026-04-18T11:56:50Z</time></trkpt><trkpt lat="45.03665719858367" lon="8.289494110442826"><ele>231.4</ele><time>2026-04-18T11:56:51Z</time></trkpt><trkpt lat="45.03675128268879" lon="8.289539732739955"><ele>230.59999999999997</ele><time>2026-04-18T11:56:52Z</time></trkpt><trkpt lat="45.036826906102114" lon="8.289574214670452"><ele>229.79999999999998</ele><time>2026-04-18T11:56:53Z</time></trkpt><trkpt lat="45.03689236571267" lon="8.289604730733997"><ele>229.0</ele><time>2026-04-18T11:56:54Z</time></trkpt><trkpt lat="45.03699515091879" lon="8.289582791186273"><ele>229.0</ele><time>2026-04-18T11:56:56.001Z</time></trkpt><trkpt lat="45.037084163800344" lon="8.28948244348577"><ele>228.99999999999997</ele><time>2026-04-18T11:56:58.001Z</time></trkpt><trkpt lat="45.03716957691025" lon="8.289323943188858"><ele>228.99999999999997</ele><time>2026-04-18T11:57:00.001Z</time></trkpt><trkpt lat="45.03721509770465" lon="8.289230001877506"><ele>229.0</ele><time>2026-04-18T11:57:01.001Z</time></trkpt><trkpt lat="45.037261117071125" lon="8.289133339748622"><ele>229.0</ele><time>2026-04-18T11:57:02.001Z</time></trkpt><trkpt lat="45.03730534327133" lon="8.28903154547249"><ele>227.79999999999998</ele><time>2026-04-18T11:57:03.001Z</time></trkpt><trkpt lat="45.037357027600464" lon="8.288921280287518"><ele>226.59999999999997</ele><time>2026-04-18T11:57:04.001Z</time></trkpt><trkpt lat="45.037409588773734" lon="8.28884187977166"><ele>225.4</ele><time>2026-04-18T11:57:05.001Z</time></trkpt><trkpt lat="45.037463851169846" lon="8.288736563863695"><ele>224.2</ele><time>2026-04-18T11:57:06.001Z</time></trkpt><trkpt lat="45.037573012509704" lon="8.288586415340072"><ele>223.0</ele><time>2026-04-18T11:57:08.001Z</time></trkpt><trkpt lat="45.037631377826955" lon="8.288471632956474"><ele>222.16666666666666</ele><time>2026-04-18T11:57:09.001Z</time></trkpt><trkpt lat="45.03766961234826" lon="8.288376953012456"><ele>221.33333333333331</ele><time>2026-04-18T11:57:10.001Z</time></trkpt><trkpt lat="45.03770128290161" lon="8.288290528086801"><ele>220.5</ele><time>2026-04-18T11:57:11.001Z</time></trkpt><trkpt lat="45.03773292079709" lon="8.28821120953998"><ele>219.66666666666669</ele><time>2026-04-18T11:57:12.001Z</time></trkpt><trkpt lat="45.03778589377164" lon="8.288126387871747"><ele>218.83333333333334</ele><time>2026-04-18T11:57:14.001Z</time></trkpt><trkpt lat="45.037845102556886" lon="8.288045043246901"><ele>218.0</ele><time>2026-04-18T11:57:16.001Z</time></trkpt><trkpt lat="45.03790642270861" lon="8.287968142887385"><ele>217.2</ele><time>2026-04-18T11:57:18.001Z</time></trkpt><trkpt lat="45.03795859456992" lon="8.287868468130595"><ele>216.4</ele><time>2026-04-18T11:57:20.001Z</time></trkpt><trkpt lat="45.037987368306666" lon="8.287717013466557"><ele>215.59999999999997</ele><time>2026-04-18T11:57:22.001Z</time></trkpt><trkpt lat="45.03798873810862" lon="8.287551386423356"><ele>214.79999999999998</ele><time>2026-04-18T11:57:24.001Z</time></trkpt><trkpt lat="45.03797458446061" lon="8.28744748034916"><ele>214.0</ele><time>2026-04-18T11:57:25.001Z</time></trkpt><trkpt lat="45.0379390327049" lon="8.28730832215735"><ele>214.75</ele><time>2026-04-18T11:57:26.001Z</time></trkpt><trkpt lat="45.037890287492274" lon="8.287141616853013"><ele>215.5</ele><time>2026-04-18T11:57:27.001Z</time></trkpt><trkpt lat="45.03784523336289" lon="8.286981048700543"><ele>216.25</ele><time>2026-04-18T11:57:28.001Z</time></trkpt><trkpt lat="45.037794585210214" lon="8.286787070637718"><ele>217.0</ele><time>2026-04-18T11:57:29.001Z</time></trkpt><trkpt lat="45.037746426040755" lon="8.286579828797493"><ele>219.0</ele><time>2026-04-18T11:57:30.001Z</time></trkpt><trkpt lat="45.03769877378033" lon="8.286404088662893"><ele>221.0</ele><time>2026-04-18T11:57:31.001Z</time></trkpt><trkpt lat="45.03763247529927" lon="8.286197937074329"><ele>223.0</ele><time>2026-04-18T11:57:32.001Z</time></trkpt><trkpt lat="45.03753802945829" lon="8.285980206957316"><ele>222.0</ele><time>2026-04-18T11:57:33.001Z</time></trkpt><trkpt lat="45.03744116429121" lon="8.28576818492032"><ele>221.0</ele><time>2026-04-18T11:57:34.001Z</time></trkpt><trkpt lat="45.03737123327245" lon="8.285600933592468"><ele>220.0</ele><time>2026-04-18T11:57:35.001Z</time></trkpt><trkpt lat="45.037309613929715" lon="8.28542556977453"><ele>221.8</ele><time>2026-04-18T11:57:36.001Z</time></trkpt><trkpt lat="45.03725457938198" lon="8.285281842731345"><ele>223.6</ele><time>2026-04-18T11:57:37.001Z</time></trkpt><trkpt lat="45.03720930929625" lon="8.285157627796373"><ele>225.39999999999998</ele><time>2026-04-18T11:57:38.001Z</time></trkpt><trkpt lat="45.03716365769125" lon="8.285047418370143"><ele>227.2</ele><time>2026-04-18T11:57:39.001Z</time></trkpt><trkpt lat="45.0371280309345" lon="8.284973426457961"><ele>229.0</ele><time>2026-04-18T11:57:40.001Z</time></trkpt><trkpt lat="45.03705364913188" lon="8.2849134465437"><ele>228.99999999999997</ele><time>2026-04-18T11:57:42.001Z</time></trkpt><trkpt lat="45.036944308774956" lon="8.284879440101703"><ele>229.0</ele><time>2026-04-18T11:57:44.001Z</time></trkpt><trkpt lat="45.036891438771335" lon="8.284813455529113"><ele>229.0</ele><time>2026-04-18T11:57:45.001Z</time></trkpt><trkpt lat="45.03683335203921" lon="8.284759400300912"><ele>229.0</ele><time>2026-04-18T11:57:46.001Z</time></trkpt><trkpt lat="45.03676025051703" lon="8.284680029639217"><ele>228.99999999999997</ele><time>2026-04-18T11:57:48.001Z</time></trkpt><trkpt lat="45.0367067670521" lon="8.284590447217271"><ele>229.0</ele><time>2026-04-18T11:57:51.001Z</time></trkpt><trkpt lat="45.03675013445435" lon="8.284665358389981"><ele>229.2</ele><time>2026-04-18T11:58:16.999Z</time></trkpt><trkpt lat="45.03681672220105" lon="8.284745106795103"><ele>229.39999999999998</ele><time>2026-04-18T11:58:24.999Z</time></trkpt><trkpt lat="45.036747294611004" lon="8.284660624997654"><ele>229.6</ele><time>2026-04-18T11:58:38.999Z</time></trkpt><trkpt lat="45.036698217372596" lon="8.28449607291895"><ele>229.8</ele><time>2026-04-18T11:58:41.999Z</time></trkpt><trkpt lat="45.036700138004356" lon="8.284332103562939"><ele>230.0</ele><time>2026-04-18T11:58:42.999Z</time></trkpt><trkpt lat="45.03671085345796" lon="8.284163385357633"><ele>230.0</ele><time>2026-04-18T11:58:43.999Z</time></trkpt><trkpt lat="45.03672238235036" lon="8.284016458902634"><ele>230.0</ele><time>2026-04-18T11:58:44.999Z</time></trkpt><trkpt lat="45.03673671544734" lon="8.283886171794585"><ele>230.0</ele><time>2026-04-18T11:58:45.999Z</time></trkpt><trkpt lat="45.03675996327545" lon="8.283761077793283"><ele>230.0</ele><time>2026-04-18T11:58:46.999Z</time></trkpt><trkpt lat="45.036806014437815" lon="8.283622860659603"><ele>230.0</ele><time>2026-04-18T11:58:47.999Z</time></trkpt><trkpt lat="45.03687282936663" lon="8.283435759914491"><ele>229.33333333333334</ele><time>2026-04-18T11:58:48.999Z</time></trkpt><trkpt lat="45.03695212787319" lon="8.283221113539081"><ele>228.66666666666669</ele><time>2026-04-18T11:58:49.999Z</time></trkpt><trkpt lat="45.03702655519515" lon="8.283020146022961"><ele>228.0</ele><time>2026-04-18T11:58:50.999Z</time></trkpt><trkpt lat="45.03709288743337" lon="8.282846193687575"><ele>226.66666666666669</ele><time>2026-04-18T11:58:51.999Z</time></trkpt><trkpt lat="45.0371682275338" lon="8.282649873551767"><ele>225.33333333333334</ele><time>2026-04-18T11:58:52.999Z</time></trkpt><trkpt lat="45.03724017499861" lon="8.282454471196884"><ele>224.0</ele><time>2026-04-18T11:58:53.999Z</time></trkpt><trkpt lat="45.03730390158753" lon="8.28227027412849"><ele>223.0</ele><time>2026-04-18T11:58:54.999Z</time></trkpt><trkpt lat="45.03735760378709" lon="8.282103990325405"><ele>222.0</ele><time>2026-04-18T11:58:55.999Z</time></trkpt><trkpt lat="45.037407336615956" lon="8.281939022764314"><ele>221.0</ele><time>2026-04-18T11:58:56.999Z</time></trkpt><trkpt lat="45.03746579753532" lon="8.281745103343825"><ele>220.0</ele><time>2026-04-18T11:58:57.999Z</time></trkpt><trkpt lat="45.03752724724213" lon="8.281539906941992"><ele>222.66666666666666</ele><time>2026-04-18T11:58:58.999Z</time></trkpt><trkpt lat="45.0375905289146" lon="8.281311766217064"><ele>225.33333333333331</ele><time>2026-04-18T11:58:59.999Z</time></trkpt><trkpt lat="45.03764633765754" lon="8.28111056680724"><ele>228.0</ele><time>2026-04-18T11:59:01Z</time></trkpt><trkpt lat="45.03770291548858" lon="8.280917110591773"><ele>228.0</ele><time>2026-04-18T11:59:02Z</time></trkpt><trkpt lat="45.03776195382745" lon="8.280715490272998"><ele>228.0</ele><time>2026-04-18T11:59:03Z</time></trkpt><trkpt lat="45.037822387872325" lon="8.28050403567961"><ele>228.0</ele><time>2026-04-18T11:59:04Z</time></trkpt><trkpt lat="45.0378761181549" lon="8.280316036563152"><ele>227.5</ele><time>2026-04-18T11:59:05Z</time></trkpt><trkpt lat="45.03792453287298" lon="8.280146636286407"><ele>227.0</ele><time>2026-04-18T11:59:06Z</time></trkpt><trkpt lat="45.037973000572784" lon="8.279981728124119"><ele>226.5</ele><time>2026-04-18T11:59:07Z</time></trkpt><trkpt lat="45.03801971146176" lon="8.279824291759175"><ele>226.0</ele><time>2026-04-18T11:59:08Z</time></trkpt><trkpt lat="45.038063685665804" lon="8.279683024325061"><ele>226.20000000000002</ele><time>2026-04-18T11:59:09Z</time></trkpt><trkpt lat="45.038109913560845" lon="8.279539697253075"><ele>226.40000000000003</ele><time>2026-04-18T11:59:10Z</time></trkpt><trkpt lat="45.03818477803554" lon="8.27943662204051"><ele>226.6</ele><time>2026-04-18T11:59:11Z</time></trkpt><trkpt lat="45.03826336560583" lon="8.27933062807722"><ele>226.8</ele><time>2026-04-18T11:59:12Z</time></trkpt><trkpt lat="45.03834519809379" lon="8.279228824361459"><ele>227.0</ele><time>2026-04-18T11:59:13Z</time></trkpt><trkpt lat="45.038426075012836" lon="8.279152213870596"><ele>227.0</ele><time>2026-04-18T11:59:14Z</time></trkpt><trkpt lat="45.03850040533196" lon="8.279090227346725"><ele>227.0</ele><time>2026-04-18T11:59:15Z</time></trkpt><trkpt lat="45.03859955770424" lon="8.279009415035201"><ele>227.0</ele><time>2026-04-18T11:59:16Z</time></trkpt><trkpt lat="45.03870650405061" lon="8.2789189491857"><ele>227.0</ele><time>2026-04-18T11:59:17Z</time></trkpt><trkpt lat="45.03880503541201" lon="8.27883277708794"><ele>227.0</ele><time>2026-04-18T11:59:18Z</time></trkpt><trkpt lat="45.038884502040965" lon="8.27876147827563"><ele>226.2</ele><time>2026-04-18T11:59:19Z</time></trkpt><trkpt lat="45.03895792090946" lon="8.278681960843251"><ele>225.39999999999998</ele><time>2026-04-18T11:59:20Z</time></trkpt><trkpt lat="45.03901673844506" lon="8.278585112905434"><ele>224.60000000000002</ele><time>2026-04-18T11:59:21Z</time></trkpt><trkpt lat="45.03905230745538" lon="8.27848389226753"><ele>223.8</ele><time>2026-04-18T11:59:22Z</time></trkpt><trkpt lat="45.039080432506054" lon="8.278329542795701"><ele>223.0</ele><time>2026-04-18T11:59:23Z</time></trkpt><trkpt lat="45.03910955384969" lon="8.278127345513491"><ele>223.4</ele><time>2026-04-18T11:59:24Z</time></trkpt><trkpt lat="45.039137918044936" lon="8.277962383693072"><ele>223.8</ele><time>2026-04-18T11:59:25Z</time></trkpt><trkpt lat="45.03917491541107" lon="8.277833807156147"><ele>224.2</ele><time>2026-04-18T11:59:26Z</time></trkpt><trkpt lat="45.03923542256847" lon="8.277717263224531"><ele>224.6</ele><time>2026-04-18T11:59:27Z</time></trkpt><trkpt lat="45.03931968132131" lon="8.277589926920752"><ele>225.0</ele><time>2026-04-18T11:59:28Z</time></trkpt><trkpt lat="45.03940090119066" lon="8.277487322169131"><ele>225.0</ele><time>2026-04-18T11:59:29Z</time></trkpt><trkpt lat="45.03949092118002" lon="8.277408144757544"><ele>225.0</ele><time>2026-04-18T11:59:30Z</time></trkpt><trkpt lat="45.03958246520675" lon="8.277335710820896"><ele>225.0</ele><time>2026-04-18T11:59:31Z</time></trkpt><trkpt lat="45.03968331431966" lon="8.277260704342561"><ele>225.0</ele><time>2026-04-18T11:59:32Z</time></trkpt><trkpt lat="45.03978584834898" lon="8.277157230196996"><ele>225.75</ele><time>2026-04-18T11:59:33Z</time></trkpt><trkpt lat="45.03987103285125" lon="8.27702712816664"><ele>226.5</ele><time>2026-04-18T11:59:34Z</time></trkpt><trkpt lat="45.03994213982434" lon="8.276852501572517"><ele>227.25</ele><time>2026-04-18T11:59:35Z</time></trkpt><trkpt lat="45.039989847062905" lon="8.27665500515254"><ele>228.0</ele><time>2026-04-18T11:59:36Z</time></trkpt><trkpt lat="45.040024697488896" lon="8.276478719851493"><ele>231.25</ele><time>2026-04-18T11:59:37Z</time></trkpt><trkpt lat="45.04004690504698" lon="8.276314619636246"><ele>234.5</ele><time>2026-04-18T11:59:38Z</time></trkpt><trkpt lat="45.04003835470237" lon="8.276123095490073"><ele>237.75</ele><time>2026-04-18T11:59:39Z</time></trkpt><trkpt lat="45.04000799619193" lon="8.27591209499162"><ele>241.0</ele><time>2026-04-18T11:59:40Z</time></trkpt><trkpt lat="45.03999377929596" lon="8.27568531413234"><ele>242.0</ele><time>2026-04-18T11:59:41Z</time></trkpt><trkpt lat="45.0400041368118" lon="8.275420931805703"><ele>243.0</ele><time>2026-04-18T11:59:42Z</time></trkpt><trkpt lat="45.04001720087466" lon="8.27514753037752"><ele>244.0</ele><time>2026-04-18T11:59:43Z</time></trkpt><trkpt lat="45.0400260147288" lon="8.27487131237529"><ele>245.0</ele><time>2026-04-18T11:59:44Z</time></trkpt><trkpt lat="45.04002103474934" lon="8.274602320549556"><ele>246.0</ele><time>2026-04-18T11:59:45Z</time></trkpt><trkpt lat="45.04000665463966" lon="8.2743871013302"><ele>247.0</ele><time>2026-04-18T11:59:46Z</time></trkpt><trkpt lat="45.03998757540578" lon="8.2741755303752"><ele>247.0</ele><time>2026-04-18T11:59:47Z</time></trkpt><trkpt lat="45.03996846757031" lon="8.274009946553354"><ele>247.0</ele><time>2026-04-18T11:59:48Z</time></trkpt><trkpt lat="45.03995055949383" lon="8.273858274405574"><ele>247.0</ele><time>2026-04-18T11:59:49Z</time></trkpt><trkpt lat="45.03993701548435" lon="8.273732848074797"><ele>247.0</ele><time>2026-04-18T11:59:50Z</time></trkpt><trkpt lat="45.03993394614824" lon="8.273624956472867"><ele>247.0</ele><time>2026-04-18T11:59:51Z</time></trkpt><trkpt lat="45.039938997101125" lon="8.273528768088093"><ele>248.2</ele><time>2026-04-18T11:59:52Z</time></trkpt><trkpt lat="45.03999241947758" lon="8.2733984896349"><ele>249.39999999999998</ele><time>2026-04-18T11:59:54Z</time></trkpt><trkpt lat="45.04005353019455" lon="8.273291855013698"><ele>250.60000000000002</ele><time>2026-04-18T11:59:56Z</time></trkpt><trkpt lat="45.040129803561015" lon="8.273168642714113"><ele>251.8</ele><time>2026-04-18T11:59:58Z</time></trkpt><trkpt lat="45.040196336213945" lon="8.27304082591957"><ele>253.0</ele><time>2026-04-18T12:00:00Z</time></trkpt><trkpt lat="45.040261916154996" lon="8.272907864890815"><ele>253.99999999999997</ele><time>2026-04-18T12:00:02Z</time></trkpt><trkpt lat="45.04029840681969" lon="8.27283283065579"><ele>255.0</ele><time>2026-04-18T12:00:03Z</time></trkpt><trkpt lat="45.040337049556854" lon="8.272750447443618"><ele>256.0</ele><time>2026-04-18T12:00:04Z</time></trkpt><trkpt lat="45.0403654970445" lon="8.272643787440533"><ele>257.0</ele><time>2026-04-18T12:00:05Z</time></trkpt><trkpt lat="45.04041853327129" lon="8.272555093526304"><ele>258.0</ele><time>2026-04-18T12:00:06Z</time></trkpt><trkpt lat="45.040471716931705" lon="8.272414774873727"><ele>259.0</ele><time>2026-04-18T12:00:08Z</time></trkpt><trkpt lat="45.040505663214404" lon="8.27233029624478"><ele>258.3333333333333</ele><time>2026-04-18T12:00:09Z</time></trkpt><trkpt lat="45.04054895248466" lon="8.27222907277566"><ele>257.66666666666663</ele><time>2026-04-18T12:00:10Z</time></trkpt><trkpt lat="45.040593621865426" lon="8.272121762139257"><ele>257.0</ele><time>2026-04-18T12:00:11Z</time></trkpt><trkpt lat="45.04062519384582" lon="8.27201383793747"><ele>256.3333333333333</ele><time>2026-04-18T12:00:12Z</time></trkpt><trkpt lat="45.04071790518688" lon="8.271956493722742"><ele>255.66666666666666</ele><time>2026-04-18T12:00:13Z</time></trkpt><trkpt lat="45.04078134817936" lon="8.271873902160227"><ele>255.0</ele><time>2026-04-18T12:00:14Z</time></trkpt><trkpt lat="45.04084306076501" lon="8.271795179297394"><ele>254.8</ele><time>2026-04-18T12:00:15Z</time></trkpt><trkpt lat="45.04090489129519" lon="8.271717910687446"><ele>254.6</ele><time>2026-04-18T12:00:16Z</time></trkpt><trkpt lat="45.04097063571737" lon="8.271649581334032"><ele>254.39999999999998</ele><time>2026-04-18T12:00:17Z</time></trkpt><trkpt lat="45.041051715266576" lon="8.271585000332365"><ele>254.2</ele><time>2026-04-18T12:00:18Z</time></trkpt><trkpt lat="45.041151544979556" lon="8.271523527347526"><ele>254.0</ele><time>2026-04-18T12:00:19Z</time></trkpt><trkpt lat="45.041277437677984" lon="8.27148500374887"><ele>254.0</ele><time>2026-04-18T12:00:20Z</time></trkpt><trkpt lat="45.041409154350134" lon="8.271483803817356"><ele>254.0</ele><time>2026-04-18T12:00:21Z</time></trkpt><trkpt lat="45.0415543645707" lon="8.271446132643897"><ele>254.0</ele><time>2026-04-18T12:00:22Z</time></trkpt><trkpt lat="45.04170019936876" lon="8.271434376078778"><ele>254.0</ele><time>2026-04-18T12:00:22.999Z</time></trkpt><trkpt lat="45.04182520526306" lon="8.271433079531473"><ele>250.0</ele><time>2026-04-18T12:00:23.999Z</time></trkpt><trkpt lat="45.041945326278004" lon="8.27142013352072"><ele>246.0</ele><time>2026-04-18T12:00:24.999Z</time></trkpt><trkpt lat="45.04207876159042" lon="8.271403501079922"><ele>242.0</ele><time>2026-04-18T12:00:25.999Z</time></trkpt><trkpt lat="45.04221378723203" lon="8.271416585078063"><ele>238.0</ele><time>2026-04-18T12:00:26.999Z</time></trkpt><trkpt lat="45.042348728899825" lon="8.271398788300852"><ele>238.5</ele><time>2026-04-18T12:00:27.999Z</time></trkpt><trkpt lat="45.042491599851814" lon="8.271394364781212"><ele>239.0</ele><time>2026-04-18T12:00:28.999Z</time></trkpt><trkpt lat="45.042626751896506" lon="8.271405180813584"><ele>239.5</ele><time>2026-04-18T12:00:29.999Z</time></trkpt><trkpt lat="45.042753892397386" lon="8.271428761363598"><ele>240.0</ele><time>2026-04-18T12:00:30.999Z</time></trkpt><trkpt lat="45.042863307454965" lon="8.271464095882726"><ele>240.0</ele><time>2026-04-18T12:00:31.999Z</time></trkpt><trkpt lat="45.042958390628776" lon="8.271479716476769"><ele>240.0</ele><time>2026-04-18T12:00:32.999Z</time></trkpt><trkpt lat="45.04306990674237" lon="8.27147741807603"><ele>240.0</ele><time>2026-04-18T12:00:33.999Z</time></trkpt><trkpt lat="45.043184459444824" lon="8.271434120794492"><ele>240.0</ele><time>2026-04-18T12:00:34.999Z</time></trkpt><trkpt lat="45.043281582373105" lon="8.271357491616502"><ele>240.0</ele><time>2026-04-18T12:00:35.999Z</time></trkpt><trkpt lat="45.04338846849983" lon="8.271250034131116"><ele>240.2</ele><time>2026-04-18T12:00:36.999Z</time></trkpt><trkpt lat="45.04346681883569" lon="8.271116817891194"><ele>240.4</ele><time>2026-04-18T12:00:37.999Z</time></trkpt><trkpt lat="45.043531061122295" lon="8.270986211542132"><ele>240.60000000000002</ele><time>2026-04-18T12:00:38.999Z</time></trkpt><trkpt lat="45.04357943932246" lon="8.270860717149828"><ele>240.8</ele><time>2026-04-18T12:00:39.999Z</time></trkpt><trkpt lat="45.04362037467016" lon="8.270724964120564"><ele>241.0</ele><time>2026-04-18T12:00:40.999Z</time></trkpt><trkpt lat="45.0436566132402" lon="8.270592281942145"><ele>241.0</ele><time>2026-04-18T12:00:41.999Z</time></trkpt><trkpt lat="45.043687002699855" lon="8.270463075107953"><ele>241.00000000000003</ele><time>2026-04-18T12:00:42.999Z</time></trkpt><trkpt lat="45.04370823826456" lon="8.270365831809414"><ele>241.00000000000003</ele><time>2026-04-18T12:00:43.999Z</time></trkpt><trkpt lat="45.04373125953176" lon="8.270260411219814"><ele>241.0</ele><time>2026-04-18T12:00:45.999Z</time></trkpt><trkpt lat="45.04386914897967" lon="8.270199335638287"><ele>241.0</ele><time>2026-04-18T12:00:47.999Z</time></trkpt><trkpt lat="45.04401928806806" lon="8.270150380943598"><ele>243.75</ele><time>2026-04-18T12:00:48.999Z</time></trkpt><trkpt lat="45.04413882814345" lon="8.270078255576731"><ele>246.5</ele><time>2026-04-18T12:00:49.999Z</time></trkpt><trkpt lat="45.04426740621176" lon="8.269995933512785"><ele>249.25</ele><time>2026-04-18T12:00:50.999Z</time></trkpt><trkpt lat="45.04440080507465" lon="8.269905911405631"><ele>252.0</ele><time>2026-04-18T12:00:51.999Z</time></trkpt><trkpt lat="45.044532721055326" lon="8.269800242072696"><ele>251.0</ele><time>2026-04-18T12:00:52.999Z</time></trkpt><trkpt lat="45.04466115284473" lon="8.269686063546933"><ele>250.0</ele><time>2026-04-18T12:00:53.999Z</time></trkpt><trkpt lat="45.044791036665075" lon="8.269554821863695"><ele>249.0</ele><time>2026-04-18T12:00:54.999Z</time></trkpt><trkpt lat="45.044940613027954" lon="8.269403286851656"><ele>250.66666666666669</ele><time>2026-04-18T12:00:55.999Z</time></trkpt><trkpt lat="45.04511072210775" lon="8.269233785063673"><ele>252.33333333333334</ele><time>2026-04-18T12:00:56.999Z</time></trkpt><trkpt lat="45.045279072370796" lon="8.269059043100393"><ele>254.0</ele><time>2026-04-18T12:00:57.999Z</time></trkpt><trkpt lat="45.04546157106418" lon="8.268895044258432"><ele>254.0</ele><time>2026-04-18T12:00:58.999Z</time></trkpt><trkpt lat="45.04561451958091" lon="8.268738296982503"><ele>254.0</ele><time>2026-04-18T12:00:59.999Z</time></trkpt><trkpt lat="45.04574792469442" lon="8.268602761896647"><ele>254.0</ele><time>2026-04-18T12:01:00.999Z</time></trkpt><trkpt lat="45.04586984512991" lon="8.268478581675899"><ele>255.25</ele><time>2026-04-18T12:01:01.999Z</time></trkpt><trkpt lat="45.04597689606297" lon="8.268369632335068"><ele>256.5</ele><time>2026-04-18T12:01:02.999Z</time></trkpt><trkpt lat="45.04607033659338" lon="8.26824635712964"><ele>257.75</ele><time>2026-04-18T12:01:03.999Z</time></trkpt><trkpt lat="45.04616289020922" lon="8.268156083325664"><ele>259.0</ele><time>2026-04-18T12:01:04.999Z</time></trkpt><trkpt lat="45.04625002739024" lon="8.26809231832055"><ele>259.0</ele><time>2026-04-18T12:01:05.999Z</time></trkpt><trkpt lat="45.04633013881285" lon="8.268011182848122"><ele>259.0</ele><time>2026-04-18T12:01:07Z</time></trkpt><trkpt lat="45.046401150642865" lon="8.267940082805351"><ele>259.0</ele><time>2026-04-18T12:01:08Z</time></trkpt><trkpt lat="45.04645744653569" lon="8.267859009564102"><ele>259.0</ele><time>2026-04-18T12:01:09Z</time></trkpt><trkpt lat="45.04652623011508" lon="8.267788889273044"><ele>259.0</ele><time>2026-04-18T12:01:10Z</time></trkpt><trkpt lat="45.046606796947536" lon="8.267706826440605"><ele>261.0</ele><time>2026-04-18T12:01:11Z</time></trkpt><trkpt lat="45.046694922982454" lon="8.26762023743488"><ele>263.0</ele><time>2026-04-18T12:01:12Z</time></trkpt><trkpt lat="45.04679626331758" lon="8.267543605150806"><ele>265.0</ele><time>2026-04-18T12:01:13Z</time></trkpt><trkpt lat="45.04688233738802" lon="8.267457248534088"><ele>267.0</ele><time>2026-04-18T12:01:14Z</time></trkpt><trkpt lat="45.04696025823802" lon="8.267379567916768"><ele>269.0</ele><time>2026-04-18T12:01:15Z</time></trkpt><trkpt lat="45.04703516492409" lon="8.267304892012286"><ele>268.1666666666667</ele><time>2026-04-18T12:01:16Z</time></trkpt><trkpt lat="45.04710989607907" lon="8.267230391045668"><ele>267.33333333333337</ele><time>2026-04-18T12:01:17Z</time></trkpt><trkpt lat="45.04718454211929" lon="8.267163714071103"><ele>266.5</ele><time>2026-04-18T12:01:18Z</time></trkpt><trkpt lat="45.04723261021882" lon="8.267092084685416"><ele>265.6666666666667</ele><time>2026-04-18T12:01:19Z</time></trkpt><trkpt lat="45.04731561469882" lon="8.267057858733612"><ele>264.8333333333333</ele><time>2026-04-18T12:01:21Z</time></trkpt><trkpt lat="45.0474224226635" lon="8.267084021977622"><ele>264.0</ele><time>2026-04-18T12:01:23Z</time></trkpt><trkpt lat="45.0474951004275" lon="8.267114929149612"><ele>267.5</ele><time>2026-04-18T12:01:24Z</time></trkpt><trkpt lat="45.04761734932397" lon="8.267175363873104"><ele>271.0</ele><time>2026-04-18T12:01:25Z</time></trkpt><trkpt lat="45.04774221435927" lon="8.267253850659243"><ele>274.5</ele><time>2026-04-18T12:01:26Z</time></trkpt><trkpt lat="45.04784758025856" lon="8.26734058464097"><ele>278.0</ele><time>2026-04-18T12:01:27Z</time></trkpt><trkpt lat="45.04797443350521" lon="8.267432106479745"><ele>281.0</ele><time>2026-04-18T12:01:28Z</time></trkpt><trkpt lat="45.04809561312946" lon="8.267510019023192"><ele>284.0</ele><time>2026-04-18T12:01:29Z</time></trkpt><trkpt lat="45.04824886777406" lon="8.267621680031422"><ele>287.0</ele><time>2026-04-18T12:01:30Z</time></trkpt><trkpt lat="45.048389615523135" lon="8.267722602508695"><ele>292.6666666666667</ele><time>2026-04-18T12:01:31Z</time></trkpt><trkpt lat="45.04852832033146" lon="8.267817997308171"><ele>298.3333333333333</ele><time>2026-04-18T12:01:32Z</time></trkpt><trkpt lat="45.048760432509916" lon="8.267862997151262"><ele>304.0</ele><time>2026-04-18T12:01:33Z</time></trkpt><trkpt lat="45.048979062244086" lon="8.267966473612363"><ele>296.0</ele><time>2026-04-18T12:01:34Z</time></trkpt><trkpt lat="45.04919478381402" lon="8.268052204927114"><ele>288.0</ele><time>2026-04-18T12:01:35Z</time></trkpt><trkpt lat="45.0494478762215" lon="8.268060282741347"><ele>288.0</ele><time>2026-04-18T12:01:36Z</time></trkpt><trkpt lat="45.04963095444391" lon="8.26803597381563"><ele>288.0</ele><time>2026-04-18T12:01:37Z</time></trkpt><trkpt lat="45.049814512845074" lon="8.268009862225124"><ele>288.0</ele><time>2026-04-18T12:01:38Z</time></trkpt><trkpt lat="45.04999513987669" lon="8.267976791839969"><ele>285.3333333333333</ele><time>2026-04-18T12:01:39Z</time></trkpt><trkpt lat="45.05016587053216" lon="8.267979962405855"><ele>282.66666666666663</ele><time>2026-04-18T12:01:40Z</time></trkpt><trkpt lat="45.050361959211706" lon="8.268048983528333"><ele>280.0</ele><time>2026-04-18T12:01:41Z</time></trkpt><trkpt lat="45.05054491315989" lon="8.268173188957794"><ele>276.0</ele><time>2026-04-18T12:01:42Z</time></trkpt><trkpt lat="45.05068900620524" lon="8.268315501291129"><ele>272.0</ele><time>2026-04-18T12:01:43Z</time></trkpt><trkpt lat="45.050812946144035" lon="8.268475732351899"><ele>268.0</ele><time>2026-04-18T12:01:44Z</time></trkpt><trkpt lat="45.05093740401831" lon="8.26864414154394"><ele>268.0</ele><time>2026-04-18T12:01:45Z</time></trkpt><trkpt lat="45.05105651491755" lon="8.268795934832196"><ele>268.0</ele><time>2026-04-18T12:01:46Z</time></trkpt><trkpt lat="45.05116111610461" lon="8.268937848519203"><ele>268.0</ele><time>2026-04-18T12:01:47Z</time></trkpt><trkpt lat="45.05125087864229" lon="8.269073514648099"><ele>268.0</ele><time>2026-04-18T12:01:48Z</time></trkpt><trkpt lat="45.051314933652144" lon="8.2691992650287"><ele>265.6</ele><time>2026-04-18T12:01:49Z</time></trkpt><trkpt lat="45.05135613150432" lon="8.269313802463415"><ele>263.20000000000005</ele><time>2026-04-18T12:01:50Z</time></trkpt><trkpt lat="45.05139306089976" lon="8.269425642141087"><ele>260.8</ele><time>2026-04-18T12:01:51Z</time></trkpt><trkpt lat="45.051425124857126" lon="8.269521360603425"><ele>258.40000000000003</ele><time>2026-04-18T12:01:52Z</time></trkpt><trkpt lat="45.051458967289406" lon="8.26960705495017"><ele>256.0</ele><time>2026-04-18T12:01:53Z</time></trkpt><trkpt lat="45.051610902235" lon="8.269532968522544"><ele>257.2</ele><time>2026-04-18T12:01:56Z</time></trkpt><trkpt lat="45.051639257291676" lon="8.269425381539696"><ele>258.40000000000003</ele><time>2026-04-18T12:01:57Z</time></trkpt><trkpt lat="45.05168046728847" lon="8.269334393221584"><ele>259.6</ele><time>2026-04-18T12:01:58Z</time></trkpt><trkpt lat="45.05176610833209" lon="8.26923419381875"><ele>260.8</ele><time>2026-04-18T12:01:59Z</time></trkpt><trkpt lat="45.051886353602235" lon="8.269153775688475"><ele>262.0</ele><time>2026-04-18T12:02:00Z</time></trkpt><trkpt lat="45.05202203848022" lon="8.269093963908553"><ele>262.0</ele><time>2026-04-18T12:02:01Z</time></trkpt><trkpt lat="45.052155443535405" lon="8.269009581141779"><ele>262.0</ele><time>2026-04-18T12:02:02Z</time></trkpt><trkpt lat="45.052270461053695" lon="8.268971675918676"><ele>262.0</ele><time>2026-04-18T12:02:03Z</time></trkpt><trkpt lat="45.05235339713723" lon="8.268906534646627"><ele>262.0</ele><time>2026-04-18T12:02:04Z</time></trkpt><trkpt lat="45.05240328414091" lon="8.268800793304415"><ele>262.0</ele><time>2026-04-18T12:02:05Z</time></trkpt><trkpt lat="45.05241356902222" lon="8.268651701960364"><ele>264.75</ele><time>2026-04-18T12:02:06Z</time></trkpt><trkpt lat="45.05237226632109" lon="8.268511158878093"><ele>267.5</ele><time>2026-04-18T12:02:07Z</time></trkpt><trkpt lat="45.0522538530688" lon="8.268423299242762"><ele>270.25</ele><time>2026-04-18T12:02:08Z</time></trkpt><trkpt lat="45.05213581298819" lon="8.268311203914193"><ele>273.0</ele><time>2026-04-18T12:02:09Z</time></trkpt><trkpt lat="45.05200265451162" lon="8.268171002187845"><ele>278.0</ele><time>2026-04-18T12:02:10Z</time></trkpt><trkpt lat="45.05186837171732" lon="8.268048781427483"><ele>283.0</ele><time>2026-04-18T12:02:11Z</time></trkpt><trkpt lat="45.05172968375544" lon="8.267921702827499"><ele>288.0</ele><time>2026-04-18T12:02:12Z</time></trkpt><trkpt lat="45.051588527668876" lon="8.267793059106705"><ele>288.0</ele><time>2026-04-18T12:02:13Z</time></trkpt><trkpt lat="45.05143482059726" lon="8.267654875825384"><ele>288.0</ele><time>2026-04-18T12:02:14Z</time></trkpt><trkpt lat="45.05128763085758" lon="8.267521046213519"><ele>288.0</ele><time>2026-04-18T12:02:15Z</time></trkpt><trkpt lat="45.05115971863614" lon="8.267405557366601"><ele>288.0</ele><time>2026-04-18T12:02:16Z</time></trkpt><trkpt lat="45.05105100619554" lon="8.267313173234038"><ele>288.0</ele><time>2026-04-18T12:02:17Z</time></trkpt><trkpt lat="45.050937184540814" lon="8.26721935037659"><ele>288.0</ele><time>2026-04-18T12:02:18Z</time></trkpt><trkpt lat="45.05081931723642" lon="8.267121406843007"><ele>288.0</ele><time>2026-04-18T12:02:19Z</time></trkpt><trkpt lat="45.050697685263486" lon="8.26702187062294"><ele>289.4</ele><time>2026-04-18T12:02:20Z</time></trkpt><trkpt lat="45.05059194522825" lon="8.266932509414804"><ele>290.8</ele><time>2026-04-18T12:02:21Z</time></trkpt><trkpt lat="45.050503340708424" lon="8.266851159786905"><ele>292.2</ele><time>2026-04-18T12:02:22Z</time></trkpt><trkpt lat="45.05042272942771" lon="8.266776689259876"><ele>293.6</ele><time>2026-04-18T12:02:23Z</time></trkpt><trkpt lat="45.050332574268374" lon="8.266705040976488"><ele>295.0</ele><time>2026-04-18T12:02:24Z</time></trkpt><trkpt lat="45.05025308103585" lon="8.26664435610719"><ele>295.0</ele><time>2026-04-18T12:02:25Z</time></trkpt><trkpt lat="45.05018669522107" lon="8.266592495156129"><ele>295.0</ele><time>2026-04-18T12:02:26Z</time></trkpt><trkpt lat="45.050129039486464" lon="8.266547194256303"><ele>295.0</ele><time>2026-04-18T12:02:27Z</time></trkpt><trkpt lat="45.05007167049211" lon="8.266502117899414"><ele>295.0</ele><time>2026-04-18T12:02:28Z</time></trkpt><trkpt lat="45.050005706428664" lon="8.266456830339685"><ele>295.0</ele><time>2026-04-18T12:02:29Z</time></trkpt><trkpt lat="45.0499304262707" lon="8.266405234871018"><ele>295.0</ele><time>2026-04-18T12:02:30Z</time></trkpt><trkpt lat="45.04984625267504" lon="8.266351626893464"><ele>295.3333333333333</ele><time>2026-04-18T12:02:31Z</time></trkpt><trkpt lat="45.04976678833755" lon="8.266263014651297"><ele>295.66666666666663</ele><time>2026-04-18T12:02:32Z</time></trkpt><trkpt lat="45.04970853858678" lon="8.26618005888642"><ele>296.0</ele><time>2026-04-18T12:02:33Z</time></trkpt><trkpt lat="45.04966564874893" lon="8.26607514925588"><ele>296.3333333333333</ele><time>2026-04-18T12:02:35Z</time></trkpt><trkpt lat="45.04964045841817" lon="8.265967953933668"><ele>296.6666666666667</ele><time>2026-04-18T12:02:46Z</time></trkpt><trkpt lat="45.04960826814753" lon="8.265890664987875"><ele>297.0</ele><time>2026-04-18T12:02:49Z</time></trkpt><trkpt lat="45.04957837416321" lon="8.265779199539455"><ele>297.0</ele><time>2026-04-18T12:02:52Z</time></trkpt><trkpt lat="45.04955247932746" lon="8.265881023926957"><ele>297.0</ele><time>2026-04-18T12:02:57Z</time></trkpt><trkpt lat="45.0496527509449" lon="8.26609257779992"><ele>297.0</ele><time>2026-04-18T12:02:58Z</time></trkpt><trkpt lat="45.04967297928748" lon="8.266181879198092"><ele>297.0</ele><time>2026-04-18T12:02:59Z</time></trkpt><trkpt lat="45.04959787999007" lon="8.26619994961646"><ele>297.0</ele><time>2026-04-18T12:03:02Z</time></trkpt><trkpt lat="45.04953449426415" lon="8.266178935913203"><ele>297.0</ele><time>2026-04-18T12:03:07Z</time></trkpt><trkpt lat="45.049486524533336" lon="8.26623678232381"><ele>297.0</ele><time>2026-04-18T12:03:34.001Z</time></trkpt><trkpt lat="45.049558587667086" lon="8.26617821237986"><ele>297.0</ele><time>2026-04-18T12:03:41.001Z</time></trkpt><trkpt lat="45.04965355973589" lon="8.26617431021956"><ele>297.0</ele><time>2026-04-18T12:03:43.001Z</time></trkpt><trkpt lat="45.04963590961492" lon="8.265955437753092"><ele>297.0</ele><time>2026-04-18T12:03:47Z</time></trkpt><trkpt lat="45.049685125247635" lon="8.266014258938123"><ele>297.0</ele><time>2026-04-18T12:04:04Z</time></trkpt><trkpt lat="45.049638735417666" lon="8.266093819490207"><ele>297.0</ele><time>2026-04-18T12:06:48Z</time></trkpt><trkpt lat="45.04957388772582" lon="8.266131249958562"><ele>297.0</ele><time>2026-04-18T12:06:55Z</time></trkpt><trkpt lat="45.04947590281747" lon="8.266137934786014"><ele>297.0</ele><time>2026-04-18T12:07:43.001Z</time></trkpt><trkpt lat="45.049451811179914" lon="8.266030596058792"><ele>297.0</ele><time>2026-04-18T12:07:53.001Z</time></trkpt><trkpt lat="45.04951991602209" lon="8.265992040950822"><ele>297.0</ele><time>2026-04-18T12:45:06.997Z</time></trkpt><trkpt lat="45.049465896084335" lon="8.266040651972043"><ele>297.0</ele><time>2026-04-18T12:53:45.001Z</time></trkpt><trkpt lat="45.04945231063947" lon="8.266130975691834"><ele>297.0</ele><time>2026-04-18T13:03:38.998Z</time></trkpt><trkpt lat="45.04952086711244" lon="8.266181350114623"><ele>297.0</ele><time>2026-04-18T13:04:43.999Z</time></trkpt><trkpt lat="45.04958723141815" lon="8.266135072215747"><ele>297.0</ele><time>2026-04-18T13:04:46.999Z</time></trkpt><trkpt lat="45.04961651622977" lon="8.266033689941386"><ele>297.0</ele><time>2026-04-18T13:04:50.999Z</time></trkpt><trkpt lat="45.049595211381195" lon="8.266131256999603"><ele>297.0</ele><time>2026-04-18T13:05:24.998Z</time></trkpt><trkpt lat="45.04953298324397" lon="8.266073781706158"><ele>297.0</ele><time>2026-04-18T13:05:33.998Z</time></trkpt><trkpt lat="45.049459032568414" lon="8.266035447629575"><ele>297.0</ele><time>2026-04-18T13:05:48.998Z</time></trkpt><trkpt lat="45.049486126794775" lon="8.266130119628784"><ele>297.0</ele><time>2026-04-18T13:07:17.999Z</time></trkpt><trkpt lat="45.04954708180854" lon="8.266171732229733"><ele>297.0</ele><time>2026-04-18T13:07:22.999Z</time></trkpt><trkpt lat="45.04960470429007" lon="8.266132243215226"><ele>297.0</ele><time>2026-04-18T13:07:26.999Z</time></trkpt><trkpt lat="45.049632866157474" lon="8.266032003195122"><ele>297.0</ele><time>2026-04-18T13:07:32.999Z</time></trkpt><trkpt lat="45.049572295055825" lon="8.26597730070896"><ele>297.0</ele><time>2026-04-18T13:16:29.997Z</time></trkpt><trkpt lat="45.04953418181394" lon="8.265884959442934"><ele>297.0</ele><time>2026-04-18T13:16:32.997Z</time></trkpt><trkpt lat="45.049545148457625" lon="8.26578897169772"><ele>297.0</ele><time>2026-04-18T13:16:35.997Z</time></trkpt><trkpt lat="45.04957899646329" lon="8.265708929531874"><ele>297.0</ele><time>2026-04-18T13:16:37.997Z</time></trkpt><trkpt lat="45.049625793925486" lon="8.265598864348492"><ele>297.0</ele><time>2026-04-18T13:16:39.997Z</time></trkpt><trkpt lat="45.04966890516303" lon="8.26548058999751"><ele>297.0</ele><time>2026-04-18T13:16:41.997Z</time></trkpt><trkpt lat="45.049706667661944" lon="8.26534112616001"><ele>297.0</ele><time>2026-04-18T13:16:43.997Z</time></trkpt><trkpt lat="45.04968202290906" lon="8.265183611287831"><ele>294.6</ele><time>2026-04-18T13:16:45.997Z</time></trkpt><trkpt lat="45.049650337145955" lon="8.265037078997624"><ele>292.2</ele><time>2026-04-18T13:16:47.998Z</time></trkpt><trkpt lat="45.049637662740025" lon="8.264878349047875"><ele>289.8</ele><time>2026-04-18T13:16:49.998Z</time></trkpt><trkpt lat="45.049608203363235" lon="8.264778531510323"><ele>287.4</ele><time>2026-04-18T13:16:51.998Z</time></trkpt><trkpt lat="45.04960704043407" lon="8.264685154882953"><ele>285.0</ele><time>2026-04-18T13:16:54.998Z</time></trkpt><trkpt lat="45.04970240954782" lon="8.264558359327822"><ele>283.3333333333333</ele><time>2026-04-18T13:16:56.998Z</time></trkpt><trkpt lat="45.04974550137044" lon="8.264480951144865"><ele>281.6666666666667</ele><time>2026-04-18T13:16:57.998Z</time></trkpt><trkpt lat="45.049775084513655" lon="8.264392446356304"><ele>280.0</ele><time>2026-04-18T13:16:58.998Z</time></trkpt><trkpt lat="45.04980354440647" lon="8.264290837969638"><ele>278.33333333333337</ele><time>2026-04-18T13:16:59.998Z</time></trkpt><trkpt lat="45.0498346669898" lon="8.264201500892876"><ele>276.6666666666667</ele><time>2026-04-18T13:17:00.998Z</time></trkpt><trkpt lat="45.049874461318915" lon="8.264103098430219"><ele>275.0</ele><time>2026-04-18T13:17:01.998Z</time></trkpt><trkpt lat="45.04994336397118" lon="8.264004613918873"><ele>276.0</ele><time>2026-04-18T13:17:02.998Z</time></trkpt><trkpt lat="45.05001140613785" lon="8.263907362786398"><ele>277.0</ele><time>2026-04-18T13:17:03.998Z</time></trkpt><trkpt lat="45.050075292361626" lon="8.263825529874863"><ele>278.0</ele><time>2026-04-18T13:17:04.998Z</time></trkpt><trkpt lat="45.05014018372414" lon="8.263761156275754"><ele>279.0</ele><time>2026-04-18T13:17:05.998Z</time></trkpt><trkpt lat="45.0501923766958" lon="8.263706268991415"><ele>280.0</ele><time>2026-04-18T13:17:06.998Z</time></trkpt><trkpt lat="45.050248526640516" lon="8.263641673260619"><ele>281.0</ele><time>2026-04-18T13:17:07.998Z</time></trkpt><trkpt lat="45.050316406455075" lon="8.263583756007021"><ele>281.0</ele><time>2026-04-18T13:17:08.998Z</time></trkpt><trkpt lat="45.050375220848295" lon="8.263482415600263"><ele>281.0</ele><time>2026-04-18T13:17:09.998Z</time></trkpt><trkpt lat="45.05044159555332" lon="8.263399246097306"><ele>281.0</ele><time>2026-04-18T13:17:10.998Z</time></trkpt><trkpt lat="45.05051241408461" lon="8.263314298038582"><ele>281.0</ele><time>2026-04-18T13:17:11.998Z</time></trkpt><trkpt lat="45.05056866368872" lon="8.263204734834558"><ele>281.0</ele><time>2026-04-18T13:17:12.998Z</time></trkpt><trkpt lat="45.05061976585374" lon="8.263095164543198"><ele>279.2</ele><time>2026-04-18T13:17:13.998Z</time></trkpt><trkpt lat="45.050673506546836" lon="8.262979866454378"><ele>277.40000000000003</ele><time>2026-04-18T13:17:14.998Z</time></trkpt><trkpt lat="45.05072903589518" lon="8.262863113690777"><ele>275.6</ele><time>2026-04-18T13:17:15.998Z</time></trkpt><trkpt lat="45.050777597774555" lon="8.262749286114516"><ele>273.8</ele><time>2026-04-18T13:17:16.998Z</time></trkpt><trkpt lat="45.050824656520206" lon="8.262629115541241"><ele>272.0</ele><time>2026-04-18T13:17:17.998Z</time></trkpt><trkpt lat="45.050861363069416" lon="8.262499795907873"><ele>274.6</ele><time>2026-04-18T13:17:18.998Z</time></trkpt><trkpt lat="45.050887607128956" lon="8.262369845738078"><ele>277.2</ele><time>2026-04-18T13:17:19.998Z</time></trkpt><trkpt lat="45.050948946502295" lon="8.26224209045002"><ele>279.8</ele><time>2026-04-18T13:17:20.998Z</time></trkpt><trkpt lat="45.051026682780765" lon="8.262136781601823"><ele>282.4</ele><time>2026-04-18T13:17:21.998Z</time></trkpt><trkpt lat="45.051097270499284" lon="8.26200971528286"><ele>285.0</ele><time>2026-04-18T13:17:22.998Z</time></trkpt><trkpt lat="45.0511643711038" lon="8.261877474767616"><ele>285.0</ele><time>2026-04-18T13:17:23.998Z</time></trkpt><trkpt lat="45.0512156315957" lon="8.261723965647207"><ele>285.0</ele><time>2026-04-18T13:17:24.998Z</time></trkpt><trkpt lat="45.05128539315951" lon="8.261577515173249"><ele>285.0</ele><time>2026-04-18T13:17:25.998Z</time></trkpt><trkpt lat="45.05134639507045" lon="8.261441217297284"><ele>285.0</ele><time>2026-04-18T13:17:26.998Z</time></trkpt><trkpt lat="45.05141668316899" lon="8.261331611895924"><ele>283.4</ele><time>2026-04-18T13:17:27.998Z</time></trkpt><trkpt lat="45.05145823723977" lon="8.261206296303776"><ele>281.8</ele><time>2026-04-18T13:17:28.998Z</time></trkpt><trkpt lat="45.05151921220173" lon="8.261088803267096"><ele>280.2</ele><time>2026-04-18T13:17:29.998Z</time></trkpt><trkpt lat="45.05158099623968" lon="8.260954812661103"><ele>278.6</ele><time>2026-04-18T13:17:30.998Z</time></trkpt><trkpt lat="45.0516412581368" lon="8.260827998221288"><ele>277.0</ele><time>2026-04-18T13:17:31.998Z</time></trkpt><trkpt lat="45.05169117962141" lon="8.260710020654631"><ele>280.4</ele><time>2026-04-18T13:17:32.998Z</time></trkpt><trkpt lat="45.05174253832187" lon="8.26059097300071"><ele>283.79999999999995</ele><time>2026-04-18T13:17:33.998Z</time></trkpt><trkpt lat="45.051792299816555" lon="8.260477262794977"><ele>287.2</ele><time>2026-04-18T13:17:34.998Z</time></trkpt><trkpt lat="45.05183794325148" lon="8.260379254185466"><ele>290.59999999999997</ele><time>2026-04-18T13:17:35.998Z</time></trkpt><trkpt lat="45.05187330336783" lon="8.260295474186591"><ele>294.0</ele><time>2026-04-18T13:17:36.998Z</time></trkpt><trkpt lat="45.0518830878842" lon="8.260121278746794"><ele>294.0</ele><time>2026-04-18T13:17:38.998Z</time></trkpt><trkpt lat="45.051814385205994" lon="8.26003201465396"><ele>294.0</ele><time>2026-04-18T13:17:39.998Z</time></trkpt><trkpt lat="45.05181412576124" lon="8.25992037449117"><ele>294.0</ele><time>2026-04-18T13:17:40.998Z</time></trkpt><trkpt lat="45.051810341320085" lon="8.259805539650566"><ele>294.0</ele><time>2026-04-18T13:17:41.998Z</time></trkpt><trkpt lat="45.05182677310005" lon="8.259686974430734"><ele>294.0</ele><time>2026-04-18T13:17:42.998Z</time></trkpt><trkpt lat="45.05185368074075" lon="8.259571484583988"><ele>294.0</ele><time>2026-04-18T13:17:43.998Z</time></trkpt><trkpt lat="45.051886670490674" lon="8.259470028260512"><ele>293.4</ele><time>2026-04-18T13:17:44.998Z</time></trkpt><trkpt lat="45.05193007858623" lon="8.259360286931733"><ele>292.79999999999995</ele><time>2026-04-18T13:17:45.998Z</time></trkpt><trkpt lat="45.05198231424842" lon="8.259248849596831"><ele>292.20000000000005</ele><time>2026-04-18T13:17:46.998Z</time></trkpt><trkpt lat="45.05204299872158" lon="8.259124919101724"><ele>291.6</ele><time>2026-04-18T13:17:47.998Z</time></trkpt><trkpt lat="45.052101943534076" lon="8.259004541421959"><ele>291.0</ele><time>2026-04-18T13:17:48.998Z</time></trkpt><trkpt lat="45.05216217656812" lon="8.258881612057683"><ele>289.8</ele><time>2026-04-18T13:17:49.998Z</time></trkpt><trkpt lat="45.052220250278154" lon="8.258759154565878"><ele>288.6</ele><time>2026-04-18T13:17:50.998Z</time></trkpt><trkpt lat="45.05226487497316" lon="8.258623024415739"><ele>287.4</ele><time>2026-04-18T13:17:51.998Z</time></trkpt><trkpt lat="45.05232635663135" lon="8.258509221908614"><ele>286.2</ele><time>2026-04-18T13:17:52.998Z</time></trkpt><trkpt lat="45.05238459896104" lon="8.258388881535366"><ele>285.0</ele><time>2026-04-18T13:17:53.998Z</time></trkpt><trkpt lat="45.05243897628305" lon="8.258271871002053"><ele>287.2</ele><time>2026-04-18T13:17:54.998Z</time></trkpt><trkpt lat="45.052511289251996" lon="8.258153428018224"><ele>289.4</ele><time>2026-04-18T13:17:55.998Z</time></trkpt><trkpt lat="45.05258850468577" lon="8.258046788126366"><ele>291.6</ele><time>2026-04-18T13:17:56.998Z</time></trkpt><trkpt lat="45.05266718069471" lon="8.25794123278356"><ele>293.8</ele><time>2026-04-18T13:17:57.998Z</time></trkpt><trkpt lat="45.052742393383404" lon="8.257852655224486"><ele>296.0</ele><time>2026-04-18T13:17:58.998Z</time></trkpt><trkpt lat="45.0528197561685" lon="8.257758713688581"><ele>296.0</ele><time>2026-04-18T13:17:59.998Z</time></trkpt><trkpt lat="45.052891927464856" lon="8.257664774664116"><ele>296.0</ele><time>2026-04-18T13:18:00.998Z</time></trkpt><trkpt lat="45.05296939569608" lon="8.25755694405262"><ele>296.0</ele><time>2026-04-18T13:18:01.998Z</time></trkpt><trkpt lat="45.05305335849734" lon="8.25745709291049"><ele>296.0</ele><time>2026-04-18T13:18:02.998Z</time></trkpt><trkpt lat="45.05311854220584" lon="8.257340933883697"><ele>296.0</ele><time>2026-04-18T13:18:03.998Z</time></trkpt><trkpt lat="45.05318712701836" lon="8.257249007430962"><ele>294.40000000000003</ele><time>2026-04-18T13:18:04.998Z</time></trkpt><trkpt lat="45.05325560438679" lon="8.257164247173723"><ele>292.8</ele><time>2026-04-18T13:18:05.998Z</time></trkpt><trkpt lat="45.05331263340953" lon="8.257060119955518"><ele>291.20000000000005</ele><time>2026-04-18T13:18:06.998Z</time></trkpt><trkpt lat="45.053371472553046" lon="8.256943211717154"><ele>289.6</ele><time>2026-04-18T13:18:07.998Z</time></trkpt><trkpt lat="45.05343372800014" lon="8.256826905099246"><ele>288.0</ele><time>2026-04-18T13:18:08.998Z</time></trkpt><trkpt lat="45.053489263907146" lon="8.256685568956765"><ele>290.25</ele><time>2026-04-18T13:18:09.998Z</time></trkpt><trkpt lat="45.05354538743794" lon="8.256542858936932"><ele>292.5</ele><time>2026-04-18T13:18:10.998Z</time></trkpt><trkpt lat="45.053594631973" lon="8.25639389413632"><ele>294.75</ele><time>2026-04-18T13:18:11.998Z</time></trkpt><trkpt lat="45.053639112289865" lon="8.256239004311755"><ele>297.0</ele><time>2026-04-18T13:18:12.998Z</time></trkpt><trkpt lat="45.05368039560867" lon="8.2560796539773"><ele>297.0</ele><time>2026-04-18T13:18:13.998Z</time></trkpt><trkpt lat="45.053720739684195" lon="8.255916636795183"><ele>297.0</ele><time>2026-04-18T13:18:14.998Z</time></trkpt><trkpt lat="45.05376140372661" lon="8.255761236433901"><ele>297.0</ele><time>2026-04-18T13:18:15.998Z</time></trkpt><trkpt lat="45.05378481743964" lon="8.255601384623061"><ele>297.0</ele><time>2026-04-18T13:18:16.998Z</time></trkpt><trkpt lat="45.05381014343232" lon="8.2554494355585"><ele>297.2</ele><time>2026-04-18T13:18:17.998Z</time></trkpt><trkpt lat="45.053828297617464" lon="8.255318999735218"><ele>297.4</ele><time>2026-04-18T13:18:18.997Z</time></trkpt><trkpt lat="45.053854060649776" lon="8.255190860122369"><ele>297.6</ele><time>2026-04-18T13:18:19.997Z</time></trkpt><trkpt lat="45.05387152833147" lon="8.255057348069109"><ele>297.8</ele><time>2026-04-18T13:18:20.997Z</time></trkpt><trkpt lat="45.05389266756981" lon="8.25491556913197"><ele>298.0</ele><time>2026-04-18T13:18:21.997Z</time></trkpt><trkpt lat="45.05391299703297" lon="8.254771457102883"><ele>299.6</ele><time>2026-04-18T13:18:22.997Z</time></trkpt><trkpt lat="45.053928225203464" lon="8.254632389484204"><ele>301.20000000000005</ele><time>2026-04-18T13:18:23.997Z</time></trkpt><trkpt lat="45.053932164552805" lon="8.25450488097801"><ele>302.8</ele><time>2026-04-18T13:18:24.997Z</time></trkpt><trkpt lat="45.053917740256075" lon="8.254375080511194"><ele>304.40000000000003</ele><time>2026-04-18T13:18:25.997Z</time></trkpt><trkpt lat="45.05388184569987" lon="8.254247166149241"><ele>306.0</ele><time>2026-04-18T13:18:26.997Z</time></trkpt><trkpt lat="45.05383372830229" lon="8.254116174541723"><ele>306.0</ele><time>2026-04-18T13:18:27.997Z</time></trkpt><trkpt lat="45.05377787074969" lon="8.253981462530867"><ele>306.0</ele><time>2026-04-18T13:18:28.997Z</time></trkpt><trkpt lat="45.05372512804726" lon="8.253856679610942"><ele>306.0</ele><time>2026-04-18T13:18:29.997Z</time></trkpt><trkpt lat="45.05367407222624" lon="8.253732306975861"><ele>306.0</ele><time>2026-04-18T13:18:30.997Z</time></trkpt><trkpt lat="45.05362144289432" lon="8.253608634708991"><ele>306.0</ele><time>2026-04-18T13:18:31.997Z</time></trkpt><trkpt lat="45.05355751817046" lon="8.253503278642047"><ele>308.25</ele><time>2026-04-18T13:18:32.997Z</time></trkpt><trkpt lat="45.05347249005877" lon="8.253418965454314"><ele>310.5</ele><time>2026-04-18T13:18:33.997Z</time></trkpt><trkpt lat="45.05336529632496" lon="8.253348509738661"><ele>312.75</ele><time>2026-04-18T13:18:34.997Z</time></trkpt><trkpt lat="45.05325863686423" lon="8.253299667402418"><ele>315.0</ele><time>2026-04-18T13:18:35.997Z</time></trkpt><trkpt lat="45.05314525118415" lon="8.253257242188207"><ele>315.0</ele><time>2026-04-18T13:18:36.997Z</time></trkpt><trkpt lat="45.05302665163415" lon="8.253208278949465"><ele>315.0</ele><time>2026-04-18T13:18:37.997Z</time></trkpt><trkpt lat="45.05291750267279" lon="8.253174809797457"><ele>315.0</ele><time>2026-04-18T13:18:38.997Z</time></trkpt><trkpt lat="45.05282608798665" lon="8.25315136856194"><ele>315.0</ele><time>2026-04-18T13:18:39.997Z</time></trkpt><trkpt lat="45.052756118597635" lon="8.253096130610269"><ele>315.0</ele><time>2026-04-18T13:18:40.997Z</time></trkpt><trkpt lat="45.052693913578935" lon="8.253026232401472"><ele>312.8</ele><time>2026-04-18T13:18:41.997Z</time></trkpt><trkpt lat="45.0526402177132" lon="8.252940347608606"><ele>310.6</ele><time>2026-04-18T13:18:42.997Z</time></trkpt><trkpt lat="45.05257293026614" lon="8.252828840496662"><ele>308.4</ele><time>2026-04-18T13:18:44.997Z</time></trkpt><trkpt lat="45.05264849387407" lon="8.252695456091944"><ele>306.2</ele><time>2026-04-18T13:18:45.997Z</time></trkpt><trkpt lat="45.05271353084524" lon="8.252600359188794"><ele>304.0</ele><time>2026-04-18T13:18:46.997Z</time></trkpt><trkpt lat="45.05278580034265" lon="8.252485321831063"><ele>304.0</ele><time>2026-04-18T13:18:47.997Z</time></trkpt><trkpt lat="45.052869942254695" lon="8.252383385279876"><ele>304.0</ele><time>2026-04-18T13:18:48.997Z</time></trkpt><trkpt lat="45.0529562170459" lon="8.252258035051408"><ele>304.0</ele><time>2026-04-18T13:18:49.997Z</time></trkpt><trkpt lat="45.05306500974476" lon="8.252155403921318"><ele>304.0</ele><time>2026-04-18T13:18:50.998Z</time></trkpt><trkpt lat="45.05316024941852" lon="8.252054748559614"><ele>305.0</ele><time>2026-04-18T13:18:51.998Z</time></trkpt><trkpt lat="45.05319629341199" lon="8.25195091144687"><ele>306.0</ele><time>2026-04-18T13:18:52.998Z</time></trkpt><trkpt lat="45.05327608611997" lon="8.251836584160062"><ele>307.0</ele><time>2026-04-18T13:18:53.998Z</time></trkpt><trkpt lat="45.053340360526924" lon="8.251736508863088"><ele>308.0</ele><time>2026-04-18T13:18:54.998Z</time></trkpt><trkpt lat="45.05337817677265" lon="8.251628431628804"><ele>309.0</ele><time>2026-04-18T13:18:55.998Z</time></trkpt><trkpt lat="45.05338067098873" lon="8.251504013518987"><ele>309.0</ele><time>2026-04-18T13:18:56.998Z</time></trkpt><trkpt lat="45.053349464899235" lon="8.251357948653766"><ele>309.0</ele><time>2026-04-18T13:18:57.998Z</time></trkpt><trkpt lat="45.05328903563049" lon="8.251194568857963"><ele>309.0</ele><time>2026-04-18T13:18:58.998Z</time></trkpt><trkpt lat="45.05322238181576" lon="8.251030846559155"><ele>309.0</ele><time>2026-04-18T13:18:59.998Z</time></trkpt><trkpt lat="45.053162856451834" lon="8.250862611366726"><ele>303.25</ele><time>2026-04-18T13:19:00.998Z</time></trkpt><trkpt lat="45.0531253727166" lon="8.250699681830115"><ele>297.5</ele><time>2026-04-18T13:19:01.998Z</time></trkpt><trkpt lat="45.05309800530844" lon="8.25054505258872"><ele>291.75</ele><time>2026-04-18T13:19:02.998Z</time></trkpt><trkpt lat="45.05306626413637" lon="8.250379277218949"><ele>286.0</ele><time>2026-04-18T13:19:03.998Z</time></trkpt><trkpt lat="45.05303000452617" lon="8.2502271420559"><ele>286.0</ele><time>2026-04-18T13:19:04.998Z</time></trkpt><trkpt lat="45.05297694031554" lon="8.250100292226254"><ele>286.0</ele><time>2026-04-18T13:19:05.998Z</time></trkpt><trkpt lat="45.05290449760628" lon="8.249982225693511"><ele>286.0</ele><time>2026-04-18T13:19:06.998Z</time></trkpt><trkpt lat="45.05281786164379" lon="8.249851089500746"><ele>286.0</ele><time>2026-04-18T13:19:07.998Z</time></trkpt><trkpt lat="45.05272414292038" lon="8.249706506388549"><ele>286.40000000000003</ele><time>2026-04-18T13:19:08.998Z</time></trkpt><trkpt lat="45.05265478670299" lon="8.249549325493323"><ele>286.8</ele><time>2026-04-18T13:19:09.998Z</time></trkpt><trkpt lat="45.052596212869744" lon="8.249416952602163"><ele>287.20000000000005</ele><time>2026-04-18T13:19:10.998Z</time></trkpt><trkpt lat="45.052571770835726" lon="8.249297666614051"><ele>287.6</ele><time>2026-04-18T13:19:11.998Z</time></trkpt><trkpt lat="45.05257164636383" lon="8.249185659591024"><ele>288.0</ele><time>2026-04-18T13:19:12.998Z</time></trkpt><trkpt lat="45.05264075698559" lon="8.249065936730213"><ele>286.0</ele><time>2026-04-18T13:19:13.998Z</time></trkpt><trkpt lat="45.05273977091235" lon="8.248949587225376"><ele>284.0</ele><time>2026-04-18T13:19:14.998Z</time></trkpt><trkpt lat="45.05283885717126" lon="8.248861940130906"><ele>282.0</ele><time>2026-04-18T13:19:15.998Z</time></trkpt><trkpt lat="45.05293203093566" lon="8.248814741953263"><ele>280.0</ele><time>2026-04-18T13:19:16.998Z</time></trkpt><trkpt lat="45.053034783076164" lon="8.248825112864996"><ele>278.0</ele><time>2026-04-18T13:19:17.998Z</time></trkpt><trkpt lat="45.05312506598637" lon="8.248915204412073"><ele>280.5</ele><time>2026-04-18T13:19:18.998Z</time></trkpt><trkpt lat="45.05322879616369" lon="8.24898003111653"><ele>283.0</ele><time>2026-04-18T13:19:19.998Z</time></trkpt><trkpt lat="45.053342244928785" lon="8.249044766850165"><ele>285.5</ele><time>2026-04-18T13:19:20.998Z</time></trkpt><trkpt lat="45.053445819230745" lon="8.249116272369223"><ele>288.0</ele><time>2026-04-18T13:19:21.998Z</time></trkpt><trkpt lat="45.05355889933551" lon="8.249186334207113"><ele>289.25</ele><time>2026-04-18T13:19:22.998Z</time></trkpt><trkpt lat="45.05367909883856" lon="8.24923772902142"><ele>290.5</ele><time>2026-04-18T13:19:23.998Z</time></trkpt><trkpt lat="45.05378919786269" lon="8.249287120862709"><ele>291.75</ele><time>2026-04-18T13:19:24.998Z</time></trkpt><trkpt lat="45.053906998105816" lon="8.249310367927267"><ele>293.0</ele><time>2026-04-18T13:19:25.998Z</time></trkpt><trkpt lat="45.054026279899766" lon="8.249294132356088"><ele>291.75</ele><time>2026-04-18T13:19:26.998Z</time></trkpt><trkpt lat="45.054149070140284" lon="8.249205121475464"><ele>290.5</ele><time>2026-04-18T13:19:27.998Z</time></trkpt><trkpt lat="45.05426818941995" lon="8.249108922880922"><ele>289.25</ele><time>2026-04-18T13:19:28.998Z</time></trkpt><trkpt lat="45.05438451594653" lon="8.249005791388367"><ele>288.0</ele><time>2026-04-18T13:19:29.998Z</time></trkpt><trkpt lat="45.05450075230804" lon="8.248892335196054"><ele>284.75</ele><time>2026-04-18T13:19:30.998Z</time></trkpt><trkpt lat="45.054618010875174" lon="8.248776335887118"><ele>281.5</ele><time>2026-04-18T13:19:31.998Z</time></trkpt><trkpt lat="45.05474105784631" lon="8.248685464676567"><ele>278.25</ele><time>2026-04-18T13:19:32.998Z</time></trkpt><trkpt lat="45.05485050431202" lon="8.248579907939028"><ele>275.0</ele><time>2026-04-18T13:19:33.998Z</time></trkpt><trkpt lat="45.054949385865434" lon="8.248473601586863"><ele>274.5</ele><time>2026-04-18T13:19:34.998Z</time></trkpt><trkpt lat="45.05502778153344" lon="8.248338011387371"><ele>274.0</ele><time>2026-04-18T13:19:35.998Z</time></trkpt><trkpt lat="45.05510179578562" lon="8.248212446009466"><ele>273.5</ele><time>2026-04-18T13:19:36.998Z</time></trkpt><trkpt lat="45.05516336730885" lon="8.248076775540412"><ele>273.0</ele><time>2026-04-18T13:19:37.998Z</time></trkpt><trkpt lat="45.05520840913167" lon="8.247932296543144"><ele>273.0</ele><time>2026-04-18T13:19:38.998Z</time></trkpt><trkpt lat="45.05525879905345" lon="8.247787511648214"><ele>273.0</ele><time>2026-04-18T13:19:39.998Z</time></trkpt><trkpt lat="45.05526527267608" lon="8.247609772024754"><ele>273.0</ele><time>2026-04-18T13:19:40.998Z</time></trkpt><trkpt lat="45.05526907789686" lon="8.247429442171907"><ele>273.0</ele><time>2026-04-18T13:19:41.998Z</time></trkpt><trkpt lat="45.055255805162204" lon="8.247240286546646"><ele>271.0</ele><time>2026-04-18T13:19:42.998Z</time></trkpt><trkpt lat="45.0552561913427" lon="8.247052942472575"><ele>269.0</ele><time>2026-04-18T13:19:43.998Z</time></trkpt><trkpt lat="45.05524380021276" lon="8.246876618214536"><ele>267.0</ele><time>2026-04-18T13:19:44.998Z</time></trkpt><trkpt lat="45.05521415709608" lon="8.246704237424137"><ele>265.0</ele><time>2026-04-18T13:19:45.998Z</time></trkpt><trkpt lat="45.055204199038805" lon="8.246512548259265"><ele>264.0</ele><time>2026-04-18T13:19:46.998Z</time></trkpt><trkpt lat="45.055186159061314" lon="8.246312323328437"><ele>263.0</ele><time>2026-04-18T13:19:47.998Z</time></trkpt><trkpt lat="45.05517456065054" lon="8.246106396506775"><ele>262.0</ele><time>2026-04-18T13:19:48.998Z</time></trkpt><trkpt lat="45.05515949860617" lon="8.245915773169628"><ele>261.0</ele><time>2026-04-18T13:19:49.998Z</time></trkpt><trkpt lat="45.05514710407849" lon="8.245727005926629"><ele>260.25</ele><time>2026-04-18T13:19:50.998Z</time></trkpt><trkpt lat="45.05513231470265" lon="8.245536146429277"><ele>259.5</ele><time>2026-04-18T13:19:51.998Z</time></trkpt><trkpt lat="45.055116277218914" lon="8.245338220752318"><ele>258.75</ele><time>2026-04-18T13:19:52.998Z</time></trkpt><trkpt lat="45.055101734764634" lon="8.245130026510925"><ele>258.0</ele><time>2026-04-18T13:19:53.998Z</time></trkpt><trkpt lat="45.05508907338858" lon="8.244921716125083"><ele>257.25</ele><time>2026-04-18T13:19:54.998Z</time></trkpt><trkpt lat="45.055076176913296" lon="8.24472889209439"><ele>256.5</ele><time>2026-04-18T13:19:55.998Z</time></trkpt><trkpt lat="45.055063438721795" lon="8.24453937667067"><ele>255.75</ele><time>2026-04-18T13:19:56.998Z</time></trkpt><trkpt lat="45.05504982459325" lon="8.244355568537673"><ele>255.0</ele><time>2026-04-18T13:19:57.998Z</time></trkpt><trkpt lat="45.055035767121076" lon="8.244173251715821"><ele>255.0</ele><time>2026-04-18T13:19:58.998Z</time></trkpt><trkpt lat="45.055027388319104" lon="8.24398482862364"><ele>255.0</ele><time>2026-04-18T13:19:59.998Z</time></trkpt><trkpt lat="45.05500968925463" lon="8.243798565636604"><ele>255.0</ele><time>2026-04-18T13:20:00.998Z</time></trkpt><trkpt lat="45.0549981587354" lon="8.243607408068566"><ele>255.0</ele><time>2026-04-18T13:20:01.998Z</time></trkpt><trkpt lat="45.054984151127414" lon="8.24341706499177"><ele>253.5</ele><time>2026-04-18T13:20:02.998Z</time></trkpt><trkpt lat="45.05497160551676" lon="8.243228373103442"><ele>252.0</ele><time>2026-04-18T13:20:03.998Z</time></trkpt><trkpt lat="45.05495623889006" lon="8.243046317813116"><ele>250.5</ele><time>2026-04-18T13:20:04.998Z</time></trkpt><trkpt lat="45.05495437707586" lon="8.242863773952347"><ele>249.0</ele><time>2026-04-18T13:20:05.998Z</time></trkpt><trkpt lat="45.05495014610035" lon="8.242705496027757"><ele>248.0</ele><time>2026-04-18T13:20:06.998Z</time></trkpt><trkpt lat="45.0549631670882" lon="8.242549773740182"><ele>247.0</ele><time>2026-04-18T13:20:07.998Z</time></trkpt><trkpt lat="45.05500236722884" lon="8.24238380063261"><ele>246.0</ele><time>2026-04-18T13:20:08.998Z</time></trkpt><trkpt lat="45.055041377686784" lon="8.242199285275744"><ele>245.0</ele><time>2026-04-18T13:20:09.998Z</time></trkpt><trkpt lat="45.0550992450348" lon="8.24202338901292"><ele>242.5</ele><time>2026-04-18T13:20:10.998Z</time></trkpt><trkpt lat="45.05514293617807" lon="8.241852975520265"><ele>240.0</ele><time>2026-04-18T13:20:11.998Z</time></trkpt><trkpt lat="45.055171590132105" lon="8.24167825477924"><ele>237.5</ele><time>2026-04-18T13:20:12.998Z</time></trkpt><trkpt lat="45.0551821390077" lon="8.24148710698679"><ele>235.0</ele><time>2026-04-18T13:20:13.998Z</time></trkpt><trkpt lat="45.055175689109255" lon="8.241286728384903"><ele>233.5</ele><time>2026-04-18T13:20:14.998Z</time></trkpt><trkpt lat="45.05516360238861" lon="8.241085706419133"><ele>232.0</ele><time>2026-04-18T13:20:15.998Z</time></trkpt><trkpt lat="45.05515514443583" lon="8.240886662116452"><ele>230.5</ele><time>2026-04-18T13:20:16.998Z</time></trkpt><trkpt lat="45.055146421265945" lon="8.240702988938299"><ele>229.0</ele><time>2026-04-18T13:20:17.998Z</time></trkpt><trkpt lat="45.05513931577601" lon="8.240517621113618"><ele>228.5</ele><time>2026-04-18T13:20:18.998Z</time></trkpt><trkpt lat="45.055131851453474" lon="8.240333934015345"><ele>228.0</ele><time>2026-04-18T13:20:19.998Z</time></trkpt><trkpt lat="45.05512412134407" lon="8.240157782091792"><ele>227.5</ele><time>2026-04-18T13:20:20.998Z</time></trkpt><trkpt lat="45.055133292071865" lon="8.23997962795473"><ele>227.0</ele><time>2026-04-18T13:20:21.998Z</time></trkpt><trkpt lat="45.055125009049334" lon="8.23978056820209"><ele>225.66666666666669</ele><time>2026-04-18T13:20:22.998Z</time></trkpt><trkpt lat="45.0551003032917" lon="8.239576927318092"><ele>224.33333333333331</ele><time>2026-04-18T13:20:23.998Z</time></trkpt><trkpt lat="45.05509714684882" lon="8.239359790895776"><ele>223.0</ele><time>2026-04-18T13:20:24.998Z</time></trkpt><trkpt lat="45.05509571559804" lon="8.239142670251752"><ele>221.0</ele><time>2026-04-18T13:20:25.998Z</time></trkpt><trkpt lat="45.05509249123902" lon="8.238918965134816"><ele>219.0</ele><time>2026-04-18T13:20:26.998Z</time></trkpt><trkpt lat="45.05508888554566" lon="8.23870461032703"><ele>217.0</ele><time>2026-04-18T13:20:27.998Z</time></trkpt><trkpt lat="45.055084551061064" lon="8.238502644856876"><ele>217.0</ele><time>2026-04-18T13:20:28.998Z</time></trkpt><trkpt lat="45.05507599615392" lon="8.238329419064295"><ele>217.0</ele><time>2026-04-18T13:20:29.998Z</time></trkpt><trkpt lat="45.05508740632177" lon="8.23817258254685"><ele>217.0</ele><time>2026-04-18T13:20:30.998Z</time></trkpt><trkpt lat="45.05510067873406" lon="8.23804312646792"><ele>217.0</ele><time>2026-04-18T13:20:31.998Z</time></trkpt><trkpt lat="45.05513786763064" lon="8.23793896677765"><ele>217.0</ele><time>2026-04-18T13:20:32.998Z</time></trkpt><trkpt lat="45.05520670187364" lon="8.237857338031262"><ele>215.0</ele><time>2026-04-18T13:20:33.998Z</time></trkpt><trkpt lat="45.055319520137814" lon="8.237859369551533"><ele>213.0</ele><time>2026-04-18T13:20:34.998Z</time></trkpt><trkpt lat="45.05544171759498" lon="8.237840694406817"><ele>211.0</ele><time>2026-04-18T13:20:35.998Z</time></trkpt><trkpt lat="45.055565540345484" lon="8.237844595860558"><ele>209.0</ele><time>2026-04-18T13:20:36.998Z</time></trkpt><trkpt lat="45.055691272348234" lon="8.237836227390995"><ele>208.79999999999998</ele><time>2026-04-18T13:20:37.998Z</time></trkpt><trkpt lat="45.05581857952699" lon="8.237827204643178"><ele>208.6</ele><time>2026-04-18T13:20:38.998Z</time></trkpt><trkpt lat="45.05593593168333" lon="8.237817773073408"><ele>208.4</ele><time>2026-04-18T13:20:39.998Z</time></trkpt><trkpt lat="45.05603419055948" lon="8.237800336935797"><ele>208.2</ele><time>2026-04-18T13:20:40.998Z</time></trkpt><trkpt lat="45.056110778988526" lon="8.2377542060955"><ele>208.0</ele><time>2026-04-18T13:20:41.998Z</time></trkpt><trkpt lat="45.056160672819914" lon="8.237657150361066"><ele>208.0</ele><time>2026-04-18T13:20:42.998Z</time></trkpt><trkpt lat="45.056193559267236" lon="8.237526016178043"><ele>208.0</ele><time>2026-04-18T13:20:43.998Z</time></trkpt><trkpt lat="45.056133200513386" lon="8.237402983725454"><ele>208.0</ele><time>2026-04-18T13:20:44.998Z</time></trkpt><trkpt lat="45.05605586389591" lon="8.237326900987238"><ele>208.0</ele><time>2026-04-18T13:20:45.998Z</time></trkpt><trkpt lat="45.05594076105238" lon="8.23726948481807"><ele>208.0</ele><time>2026-04-18T13:20:46.998Z</time></trkpt><trkpt lat="45.05582086843528" lon="8.237186874744019"><ele>206.75</ele><time>2026-04-18T13:20:47.998Z</time></trkpt><trkpt lat="45.05570776949824" lon="8.237119560244"><ele>205.5</ele><time>2026-04-18T13:20:48.998Z</time></trkpt><trkpt lat="45.055585023980136" lon="8.237032081885145"><ele>204.25</ele><time>2026-04-18T13:20:49.998Z</time></trkpt><trkpt lat="45.05546326527744" lon="8.236923787504544"><ele>203.0</ele><time>2026-04-18T13:20:50.999Z</time></trkpt><trkpt lat="45.05535185613963" lon="8.23681169509953"><ele>203.0</ele><time>2026-04-18T13:20:51.999Z</time></trkpt><trkpt lat="45.05525025293882" lon="8.236693413199408"><ele>203.0</ele><time>2026-04-18T13:20:52.999Z</time></trkpt><trkpt lat="45.05514628315501" lon="8.23655811301373"><ele>203.0</ele><time>2026-04-18T13:20:53.999Z</time></trkpt><trkpt lat="45.05504861015124" lon="8.236413262695914"><ele>203.0</ele><time>2026-04-18T13:20:54.999Z</time></trkpt><trkpt lat="45.05496946343615" lon="8.236273516743896"><ele>200.5</ele><time>2026-04-18T13:20:55.999Z</time></trkpt><trkpt lat="45.054918050345655" lon="8.23612501539126"><ele>198.0</ele><time>2026-04-18T13:20:56.999Z</time></trkpt><trkpt lat="45.05487817076155" lon="8.235962943790243"><ele>195.5</ele><time>2026-04-18T13:20:57.999Z</time></trkpt><trkpt lat="45.05489914832886" lon="8.235772656947653"><ele>193.0</ele><time>2026-04-18T13:20:58.999Z</time></trkpt><trkpt lat="45.05489823238089" lon="8.235571495177409"><ele>191.8</ele><time>2026-04-18T13:20:59.999Z</time></trkpt><trkpt lat="45.05492087116707" lon="8.235391520216396"><ele>190.60000000000002</ele><time>2026-04-18T13:21:00.999Z</time></trkpt><trkpt lat="45.054934061606794" lon="8.235234648856864"><ele>189.39999999999998</ele><time>2026-04-18T13:21:01.999Z</time></trkpt><trkpt lat="45.05494175630137" lon="8.23511809603311"><ele>188.2</ele><time>2026-04-18T13:21:02.999Z</time></trkpt><trkpt lat="45.054946694885885" lon="8.235022505222283"><ele>187.0</ele><time>2026-04-18T13:21:03.999Z</time></trkpt><trkpt lat="45.054940327932584" lon="8.23483992922387"><ele>186.6</ele><time>2026-04-18T13:21:05.999Z</time></trkpt><trkpt lat="45.05492075455863" lon="8.234733524240667"><ele>186.2</ele><time>2026-04-18T13:21:06.999Z</time></trkpt><trkpt lat="45.054908493340584" lon="8.234604635791417"><ele>185.8</ele><time>2026-04-18T13:21:07.999Z</time></trkpt><trkpt lat="45.05491079169967" lon="8.234484530377198"><ele>185.4</ele><time>2026-04-18T13:21:08.999Z</time></trkpt><trkpt lat="45.05489600220088" lon="8.234351049457208"><ele>185.0</ele><time>2026-04-18T13:21:09.999Z</time></trkpt><trkpt lat="45.05486580117437" lon="8.234205104779331"><ele>185.0</ele><time>2026-04-18T13:21:10.999Z</time></trkpt><trkpt lat="45.0548378417924" lon="8.234052902839043"><ele>185.0</ele><time>2026-04-18T13:21:11.999Z</time></trkpt><trkpt lat="45.05481740556542" lon="8.233900296874108"><ele>185.0</ele><time>2026-04-18T13:21:12.999Z</time></trkpt><trkpt lat="45.05479830416679" lon="8.233744854185321"><ele>185.0</ele><time>2026-04-18T13:21:13.999Z</time></trkpt><trkpt lat="45.05477808019352" lon="8.233584783408423"><ele>185.0</ele><time>2026-04-18T13:21:14.999Z</time></trkpt><trkpt lat="45.054749158225455" lon="8.23344256044175"><ele>185.6</ele><time>2026-04-18T13:21:15.999Z</time></trkpt><trkpt lat="45.05469508798233" lon="8.233324354559358"><ele>186.2</ele><time>2026-04-18T13:21:16.999Z</time></trkpt><trkpt lat="45.0546063898617" lon="8.233233221427168"><ele>186.8</ele><time>2026-04-18T13:21:17.999Z</time></trkpt><trkpt lat="45.05448977892333" lon="8.233191744167808"><ele>187.4</ele><time>2026-04-18T13:21:18.999Z</time></trkpt><trkpt lat="45.05437095220697" lon="8.23317418284995"><ele>188.0</ele><time>2026-04-18T13:21:19.999Z</time></trkpt><trkpt lat="45.054257491560236" lon="8.233159612344997"><ele>189.75</ele><time>2026-04-18T13:21:20.999Z</time></trkpt><trkpt lat="45.054131620404036" lon="8.233136427949937"><ele>191.5</ele><time>2026-04-18T13:21:21.999Z</time></trkpt><trkpt lat="45.05400144115372" lon="8.233110806640564"><ele>193.25</ele><time>2026-04-18T13:21:22.999Z</time></trkpt><trkpt lat="45.053853993873034" lon="8.233076372094402"><ele>195.0</ele><time>2026-04-18T13:21:23.999Z</time></trkpt><trkpt lat="45.0536904062827" lon="8.233042567298313"><ele>195.0</ele><time>2026-04-18T13:21:24.999Z</time></trkpt><trkpt lat="45.05351895274301" lon="8.233009017255279"><ele>195.0</ele><time>2026-04-18T13:21:25.999Z</time></trkpt><trkpt lat="45.05336488221789" lon="8.232974780144884"><ele>195.0</ele><time>2026-04-18T13:21:26.999Z</time></trkpt><trkpt lat="45.05322712859383" lon="8.232940972404148"><ele>193.5</ele><time>2026-04-18T13:21:27.999Z</time></trkpt><trkpt lat="45.05309729342124" lon="8.23291153357695"><ele>192.0</ele><time>2026-04-18T13:21:28.999Z</time></trkpt><trkpt lat="45.05296197809588" lon="8.232849497083834"><ele>190.5</ele><time>2026-04-18T13:21:29.999Z</time></trkpt><trkpt lat="45.05281616104432" lon="8.232755300450155"><ele>189.0</ele><time>2026-04-18T13:21:30.999Z</time></trkpt><trkpt lat="45.052660831030366" lon="8.232646003419346"><ele>189.0</ele><time>2026-04-18T13:21:31.999Z</time></trkpt><trkpt lat="45.05254468572382" lon="8.23252583555477"><ele>189.0</ele><time>2026-04-18T13:21:32.999Z</time></trkpt><trkpt lat="45.05243459118079" lon="8.23242277308378"><ele>189.0</ele><time>2026-04-18T13:21:33.999Z</time></trkpt><trkpt lat="45.05236260716021" lon="8.23230178967165"><ele>189.0</ele><time>2026-04-18T13:21:34.999Z</time></trkpt><trkpt lat="45.052328308593616" lon="8.232190071486727"><ele>188.6</ele><time>2026-04-18T13:21:35.999Z</time></trkpt><trkpt lat="45.0522688425325" lon="8.232104984295981"><ele>188.2</ele><time>2026-04-18T13:21:36.999Z</time></trkpt><trkpt lat="45.05218444589006" lon="8.232047464921791"><ele>187.79999999999998</ele><time>2026-04-18T13:21:37.999Z</time></trkpt><trkpt lat="45.05206654314077" lon="8.231983286169813"><ele>187.39999999999998</ele><time>2026-04-18T13:21:38.999Z</time></trkpt><trkpt lat="45.05194003825266" lon="8.23188747049008"><ele>187.0</ele><time>2026-04-18T13:21:39.999Z</time></trkpt><trkpt lat="45.05181825436241" lon="8.231737419958318"><ele>187.0</ele><time>2026-04-18T13:21:40.999Z</time></trkpt><trkpt lat="45.051680155808896" lon="8.231552379727146"><ele>187.0</ele><time>2026-04-18T13:21:41.999Z</time></trkpt><trkpt lat="45.05153466839923" lon="8.231363357096825"><ele>187.0</ele><time>2026-04-18T13:21:42.999Z</time></trkpt><trkpt lat="45.051397866599565" lon="8.231170342494266"><ele>187.0</ele><time>2026-04-18T13:21:43.999Z</time></trkpt><trkpt lat="45.05126004677878" lon="8.23098325233496"><ele>187.0</ele><time>2026-04-18T13:21:44.999Z</time></trkpt><trkpt lat="45.0511265651528" lon="8.23079144426499"><ele>187.0</ele><time>2026-04-18T13:21:45.999Z</time></trkpt><trkpt lat="45.051004246543364" lon="8.230608126478883"><ele>187.0</ele><time>2026-04-18T13:21:46.999Z</time></trkpt><trkpt lat="45.050896302046866" lon="8.230440582015353"><ele>187.0</ele><time>2026-04-18T13:21:47.999Z</time></trkpt><trkpt lat="45.05079920992898" lon="8.230284659550852"><ele>187.0</ele><time>2026-04-18T13:21:48.999Z</time></trkpt><trkpt lat="45.05070065268665" lon="8.230127778834497"><ele>187.0</ele><time>2026-04-18T13:21:49.998Z</time></trkpt><trkpt lat="45.05062115685437" lon="8.229985203137604"><ele>187.0</ele><time>2026-04-18T13:21:50.998Z</time></trkpt><trkpt lat="45.050545945620264" lon="8.229829863246781"><ele>187.0</ele><time>2026-04-18T13:21:51.998Z</time></trkpt><trkpt lat="45.05046877467573" lon="8.229639065576922"><ele>187.0</ele><time>2026-04-18T13:21:52.998Z</time></trkpt><trkpt lat="45.050411284811084" lon="8.229436887713312"><ele>188.0</ele><time>2026-04-18T13:21:53.998Z</time></trkpt><trkpt lat="45.05035252559496" lon="8.229208271175741"><ele>189.0</ele><time>2026-04-18T13:21:54.998Z</time></trkpt><trkpt lat="45.05028486698937" lon="8.228983810213213"><ele>190.0</ele><time>2026-04-18T13:21:55.998Z</time></trkpt><trkpt lat="45.050210766514894" lon="8.228760821060053"><ele>190.33333333333334</ele><time>2026-04-18T13:21:56.998Z</time></trkpt><trkpt lat="45.05013980810693" lon="8.228551861745677"><ele>190.66666666666666</ele><time>2026-04-18T13:21:57.998Z</time></trkpt><trkpt lat="45.05007079297063" lon="8.22836248026948"><ele>191.0</ele><time>2026-04-18T13:21:58.998Z</time></trkpt><trkpt lat="45.04999502454831" lon="8.228173001662375"><ele>192.5</ele><time>2026-04-18T13:21:59.998Z</time></trkpt><trkpt lat="45.04991288888436" lon="8.227981884496275"><ele>194.0</ele><time>2026-04-18T13:22:00.998Z</time></trkpt><trkpt lat="45.049829643636826" lon="8.227810498868253"><ele>195.5</ele><time>2026-04-18T13:22:01.998Z</time></trkpt><trkpt lat="45.049745499020375" lon="8.227669728179489"><ele>197.0</ele><time>2026-04-18T13:22:02.998Z</time></trkpt><trkpt lat="45.049682799242355" lon="8.227526640917054"><ele>197.0</ele><time>2026-04-18T13:22:03.998Z</time></trkpt><trkpt lat="45.04962928410837" lon="8.227399742703447"><ele>197.0</ele><time>2026-04-18T13:22:04.998Z</time></trkpt><trkpt lat="45.049600091007555" lon="8.22723900943635"><ele>197.0</ele><time>2026-04-18T13:22:05.998Z</time></trkpt><trkpt lat="45.04965028777278" lon="8.22707362066209"><ele>197.0</ele><time>2026-04-18T13:22:06.998Z</time></trkpt><trkpt lat="45.04976996725526" lon="8.226986886295913"><ele>198.0</ele><time>2026-04-18T13:22:07.998Z</time></trkpt><trkpt lat="45.049847353736" lon="8.226881855386603"><ele>199.0</ele><time>2026-04-18T13:22:08.998Z</time></trkpt><trkpt lat="45.049889152166735" lon="8.226766353743974"><ele>200.0</ele><time>2026-04-18T13:22:09.998Z</time></trkpt><trkpt lat="45.049865107016274" lon="8.22660415879606"><ele>201.0</ele><time>2026-04-18T13:22:10.998Z</time></trkpt><trkpt lat="45.04979050137568" lon="8.226468971409819"><ele>202.0</ele><time>2026-04-18T13:22:11.998Z</time></trkpt><trkpt lat="45.04966935392545" lon="8.226400400290533"><ele>204.5</ele><time>2026-04-18T13:22:12.998Z</time></trkpt><trkpt lat="45.049537779359525" lon="8.226404551220785"><ele>207.0</ele><time>2026-04-18T13:22:13.998Z</time></trkpt><trkpt lat="45.04941544633185" lon="8.226426641065"><ele>209.5</ele><time>2026-04-18T13:22:14.998Z</time></trkpt><trkpt lat="45.04929795753145" lon="8.226333072974697"><ele>212.0</ele><time>2026-04-18T13:22:15.998Z</time></trkpt><trkpt lat="45.04919582087347" lon="8.226208692655511"><ele>211.5</ele><time>2026-04-18T13:22:16.998Z</time></trkpt><trkpt lat="45.04911532816724" lon="8.226070635893935"><ele>211.0</ele><time>2026-04-18T13:22:17.998Z</time></trkpt><trkpt lat="45.0490386316435" lon="8.22592395743652"><ele>210.5</ele><time>2026-04-18T13:22:18.998Z</time></trkpt><trkpt lat="45.04895097502445" lon="8.225767409963773"><ele>210.0</ele><time>2026-04-18T13:22:19.998Z</time></trkpt><trkpt lat="45.048880508476024" lon="8.225576618001545"><ele>210.0</ele><time>2026-04-18T13:22:20.998Z</time></trkpt><trkpt lat="45.04881070009091" lon="8.225375164911085"><ele>210.0</ele><time>2026-04-18T13:22:21.998Z</time></trkpt><trkpt lat="45.04874178861793" lon="8.225164745619864"><ele>210.0</ele><time>2026-04-18T13:22:22.998Z</time></trkpt><trkpt lat="45.048666760461984" lon="8.22495436650961"><ele>213.0</ele><time>2026-04-18T13:22:23.998Z</time></trkpt><trkpt lat="45.04859178658052" lon="8.224747359158876"><ele>216.0</ele><time>2026-04-18T13:22:24.998Z</time></trkpt><trkpt lat="45.04851626760947" lon="8.22453620167647"><ele>219.0</ele><time>2026-04-18T13:22:25.998Z</time></trkpt><trkpt lat="45.04844628652059" lon="8.22433692666469"><ele>219.0</ele><time>2026-04-18T13:22:26.998Z</time></trkpt><trkpt lat="45.048381756578245" lon="8.224147796436812"><ele>219.0</ele><time>2026-04-18T13:22:27.998Z</time></trkpt><trkpt lat="45.04832023137819" lon="8.223966891327219"><ele>219.0</ele><time>2026-04-18T13:22:28.998Z</time></trkpt><trkpt lat="45.048252230959825" lon="8.223793029250873"><ele>219.0</ele><time>2026-04-18T13:22:29.998Z</time></trkpt><trkpt lat="45.048180215952684" lon="8.223632769903704"><ele>220.75</ele><time>2026-04-18T13:22:30.998Z</time></trkpt><trkpt lat="45.04811670048537" lon="8.22349502092778"><ele>222.5</ele><time>2026-04-18T13:22:31.998Z</time></trkpt><trkpt lat="45.048057994808794" lon="8.223359249098213"><ele>224.25</ele><time>2026-04-18T13:22:32.998Z</time></trkpt><trkpt lat="45.048001988519225" lon="8.223223420476295"><ele>226.0</ele><time>2026-04-18T13:22:33.998Z</time></trkpt><trkpt lat="45.047951474926926" lon="8.223083550769125"><ele>228.75</ele><time>2026-04-18T13:22:34.998Z</time></trkpt><trkpt lat="45.04791378864768" lon="8.222939456504852"><ele>231.5</ele><time>2026-04-18T13:22:35.998Z</time></trkpt><trkpt lat="45.04788095425472" lon="8.222795349067967"><ele>234.25</ele><time>2026-04-18T13:22:36.998Z</time></trkpt><trkpt lat="45.0478170153561" lon="8.222632878423475"><ele>237.0</ele><time>2026-04-18T13:22:37.998Z</time></trkpt><trkpt lat="45.04771869870865" lon="8.222417003267893"><ele>238.0</ele><time>2026-04-18T13:22:38.998Z</time></trkpt><trkpt lat="45.0475830270258" lon="8.222192934846046"><ele>239.0</ele><time>2026-04-18T13:22:39.998Z</time></trkpt><trkpt lat="45.04745383404322" lon="8.222009559193236"><ele>240.0</ele><time>2026-04-18T13:22:40.998Z</time></trkpt><trkpt lat="45.04735748117553" lon="8.221843132297156"><ele>240.0</ele><time>2026-04-18T13:22:41.998Z</time></trkpt><trkpt lat="45.047254306264016" lon="8.221722496147539"><ele>240.0</ele><time>2026-04-18T13:22:42.998Z</time></trkpt><trkpt lat="45.04712039163967" lon="8.22165494547827"><ele>240.0</ele><time>2026-04-18T13:22:43.998Z</time></trkpt><trkpt lat="45.04696752063876" lon="8.221634616103014"><ele>240.0</ele><time>2026-04-18T13:22:44.998Z</time></trkpt><trkpt lat="45.04683220655005" lon="8.221539930171904"><ele>244.0</ele><time>2026-04-18T13:22:45.998Z</time></trkpt><trkpt lat="45.04670050301889" lon="8.221425669274833"><ele>248.0</ele><time>2026-04-18T13:22:46.998Z</time></trkpt><trkpt lat="45.04655274054761" lon="8.221309631956736"><ele>252.0</ele><time>2026-04-18T13:22:47.998Z</time></trkpt><trkpt lat="45.04641756732729" lon="8.221169640867519"><ele>252.0</ele><time>2026-04-18T13:22:48.998Z</time></trkpt><trkpt lat="45.04627330814512" lon="8.221029990298552"><ele>252.0</ele><time>2026-04-18T13:22:49.998Z</time></trkpt><trkpt lat="45.04614634512095" lon="8.220912750543906"><ele>252.0</ele><time>2026-04-18T13:22:50.998Z</time></trkpt><trkpt lat="45.04604061807751" lon="8.22080670596159"><ele>252.0</ele><time>2026-04-18T13:22:51.999Z</time></trkpt><trkpt lat="45.0459390848732" lon="8.22070877282787"><ele>252.0</ele><time>2026-04-18T13:22:52.999Z</time></trkpt><trkpt lat="45.04582299243673" lon="8.220631476024025"><ele>252.0</ele><time>2026-04-18T13:22:53.999Z</time></trkpt><trkpt lat="45.04569241482625" lon="8.22059679301529"><ele>252.0</ele><time>2026-04-18T13:22:54.999Z</time></trkpt><trkpt lat="45.045564916779455" lon="8.220624808285201"><ele>254.0</ele><time>2026-04-18T13:22:55.999Z</time></trkpt><trkpt lat="45.04546067977338" lon="8.220694054864586"><ele>256.0</ele><time>2026-04-18T13:22:56.999Z</time></trkpt><trkpt lat="45.04538870127472" lon="8.220840839993816"><ele>258.0</ele><time>2026-04-18T13:22:57.999Z</time></trkpt><trkpt lat="45.045350550856874" lon="8.221032000750329"><ele>260.0</ele><time>2026-04-18T13:22:58.999Z</time></trkpt><trkpt lat="45.04529489352284" lon="8.221172629252827"><ele>260.0</ele><time>2026-04-18T13:22:59.999Z</time></trkpt><trkpt lat="45.04521849107037" lon="8.221250217712791"><ele>260.0</ele><time>2026-04-18T13:23:00.999Z</time></trkpt><trkpt lat="45.04511084486419" lon="8.221255029522233"><ele>260.0</ele><time>2026-04-18T13:23:01.999Z</time></trkpt><trkpt lat="45.0450144831337" lon="8.22117522143646"><ele>260.0</ele><time>2026-04-18T13:23:02.999Z</time></trkpt><trkpt lat="45.044960947306414" lon="8.22104753619129"><ele>260.0</ele><time>2026-04-18T13:23:03.999Z</time></trkpt><trkpt lat="45.044934619683545" lon="8.220893820200073"><ele>262.0</ele><time>2026-04-18T13:23:04.999Z</time></trkpt><trkpt lat="45.04490291701099" lon="8.220723705916479"><ele>264.0</ele><time>2026-04-18T13:23:05.999Z</time></trkpt><trkpt lat="45.04487261969255" lon="8.220539249003298"><ele>266.0</ele><time>2026-04-18T13:23:06.999Z</time></trkpt><trkpt lat="45.04483547941834" lon="8.220337363655085"><ele>268.0</ele><time>2026-04-18T13:23:07.999Z</time></trkpt><trkpt lat="45.04480273978054" lon="8.220156734984764"><ele>268.0</ele><time>2026-04-18T13:23:08.999Z</time></trkpt><trkpt lat="45.044771697162" lon="8.220000837314682"><ele>268.0</ele><time>2026-04-18T13:23:09.999Z</time></trkpt><trkpt lat="45.044769564728846" lon="8.219852402910183"><ele>268.0</ele><time>2026-04-18T13:23:10.999Z</time></trkpt><trkpt lat="45.04478472959558" lon="8.219711975397274"><ele>268.0</ele><time>2026-04-18T13:23:11.999Z</time></trkpt><trkpt lat="45.04483722189105" lon="8.219594920802315"><ele>268.0</ele><time>2026-04-18T13:23:12.999Z</time></trkpt><trkpt lat="45.04492885631457" lon="8.219502490804949"><ele>267.25</ele><time>2026-04-18T13:23:13.999Z</time></trkpt><trkpt lat="45.04503387237101" lon="8.219418778161549"><ele>266.5</ele><time>2026-04-18T13:23:14.999Z</time></trkpt><trkpt lat="45.045155822404354" lon="8.21935400955538"><ele>265.75</ele><time>2026-04-18T13:23:15.999Z</time></trkpt><trkpt lat="45.04527622898022" lon="8.219268266502274"><ele>265.0</ele><time>2026-04-18T13:23:16.999Z</time></trkpt><trkpt lat="45.04539596424855" lon="8.219172328697809"><ele>265.0</ele><time>2026-04-18T13:23:17.999Z</time></trkpt><trkpt lat="45.045502879179274" lon="8.219053791350595"><ele>265.0</ele><time>2026-04-18T13:23:18.999Z</time></trkpt><trkpt lat="45.045595344853076" lon="8.218901423518105"><ele>265.0</ele><time>2026-04-18T13:23:19.999Z</time></trkpt><trkpt lat="45.04568402647215" lon="8.21873463529488"><ele>265.0</ele><time>2026-04-18T13:23:20.999Z</time></trkpt><trkpt lat="45.04576870713531" lon="8.218581846512224"><ele>265.25</ele><time>2026-04-18T13:23:21.999Z</time></trkpt><trkpt lat="45.04585297027144" lon="8.218457727606017"><ele>265.5</ele><time>2026-04-18T13:23:22.999Z</time></trkpt><trkpt lat="45.045959418836205" lon="8.218370653718637"><ele>265.75</ele><time>2026-04-18T13:23:23.999Z</time></trkpt><trkpt lat="45.04606644219241" lon="8.218287013490983"><ele>266.0</ele><time>2026-04-18T13:23:24.999Z</time></trkpt><trkpt lat="45.046191721676" lon="8.21821678584235"><ele>266.0</ele><time>2026-04-18T13:23:25.999Z</time></trkpt><trkpt lat="45.0463295536607" lon="8.218171013051943"><ele>266.0</ele><time>2026-04-18T13:23:26.999Z</time></trkpt><trkpt lat="45.04647328301563" lon="8.218161780974327"><ele>266.0</ele><time>2026-04-18T13:23:27.999Z</time></trkpt><trkpt lat="45.04662719606052" lon="8.218148736055165"><ele>266.0</ele><time>2026-04-18T13:23:28.999Z</time></trkpt><trkpt lat="45.04678896393619" lon="8.218156367688046"><ele>265.75</ele><time>2026-04-18T13:23:29.999Z</time></trkpt><trkpt lat="45.04694935048271" lon="8.218111564468618"><ele>265.5</ele><time>2026-04-18T13:23:30.999Z</time></trkpt><trkpt lat="45.047084112270404" lon="8.218063648814832"><ele>265.25</ele><time>2026-04-18T13:23:31.999Z</time></trkpt><trkpt lat="45.04720276495384" lon="8.218031213125915"><ele>265.0</ele><time>2026-04-18T13:23:32.999Z</time></trkpt><trkpt lat="45.047310398931614" lon="8.217979946429315"><ele>265.0</ele><time>2026-04-18T13:23:33.999Z</time></trkpt><trkpt lat="45.04740131574724" lon="8.217930747493972"><ele>265.0</ele><time>2026-04-18T13:23:34.999Z</time></trkpt><trkpt lat="45.04748153308652" lon="8.217880254090197"><ele>265.0</ele><time>2026-04-18T13:23:35.999Z</time></trkpt><trkpt lat="45.047556600687145" lon="8.217832412725093"><ele>265.0</ele><time>2026-04-18T13:23:36.999Z</time></trkpt><trkpt lat="45.04762419180157" lon="8.21776700159368"><ele>265.0</ele><time>2026-04-18T13:23:37.999Z</time></trkpt><trkpt lat="45.047683334929104" lon="8.217688658601283"><ele>265.0</ele><time>2026-04-18T13:23:38.999Z</time></trkpt><trkpt lat="45.04774128467017" lon="8.217615009490814"><ele>264.4285714285714</ele><time>2026-04-18T13:23:39.999Z</time></trkpt><trkpt lat="45.04779756154922" lon="8.217546458861785"><ele>263.85714285714283</ele><time>2026-04-18T13:23:40.999Z</time></trkpt><trkpt lat="45.047860781244" lon="8.217490956700264"><ele>263.2857142857143</ele><time>2026-04-18T13:23:41.999Z</time></trkpt><trkpt lat="45.04792471802316" lon="8.217441948144177"><ele>262.71428571428567</ele><time>2026-04-18T13:23:42.999Z</time></trkpt><trkpt lat="45.04799023894356" lon="8.217399713200276"><ele>262.1428571428571</ele><time>2026-04-18T13:23:43.999Z</time></trkpt><trkpt lat="45.04805618843804" lon="8.217365344551135"><ele>261.57142857142856</ele><time>2026-04-18T13:23:44.999Z</time></trkpt><trkpt lat="45.048118109769206" lon="8.21733811366713"><ele>261.0</ele><time>2026-04-18T13:23:45.999Z</time></trkpt><trkpt lat="45.04822732564355" lon="8.21726849226804"><ele>261.0</ele><time>2026-04-18T13:23:47.999Z</time></trkpt><trkpt lat="45.04828705529009" lon="8.217238716623527"><ele>261.0</ele><time>2026-04-18T13:23:48.999Z</time></trkpt><trkpt lat="45.048396684734556" lon="8.217182030974904"><ele>261.0</ele><time>2026-04-18T13:23:50.999Z</time></trkpt><trkpt lat="45.04849195674799" lon="8.217090109179441"><ele>261.0</ele><time>2026-04-18T13:23:52.999Z</time></trkpt><trkpt lat="45.04857903653307" lon="8.217000149492346"><ele>261.0</ele><time>2026-04-18T13:23:54.999Z</time></trkpt><trkpt lat="45.04864087031312" lon="8.216927345040464"><ele>263.3333333333333</ele><time>2026-04-18T13:23:56.999Z</time></trkpt><trkpt lat="45.04870470883132" lon="8.216879941591323"><ele>265.6666666666667</ele><time>2026-04-18T13:23:58.999Z</time></trkpt><trkpt lat="45.04879783971953" lon="8.216774440400577"><ele>268.0</ele><time>2026-04-18T13:24:00.999Z</time></trkpt><trkpt lat="45.048853142390904" lon="8.216711792017733"><ele>270.33333333333337</ele><time>2026-04-18T13:24:01.999Z</time></trkpt><trkpt lat="45.04891211032074" lon="8.216644991598018"><ele>272.6666666666667</ele><time>2026-04-18T13:24:02.999Z</time></trkpt><trkpt lat="45.048970955096166" lon="8.216578330495796"><ele>275.0</ele><time>2026-04-18T13:24:03.999Z</time></trkpt><trkpt lat="45.04902560048581" lon="8.216492711999852"><ele>275.6666666666667</ele><time>2026-04-18T13:24:04.999Z</time></trkpt><trkpt lat="45.04908599086817" lon="8.216421120765402"><ele>276.33333333333337</ele><time>2026-04-18T13:24:05.999Z</time></trkpt><trkpt lat="45.049151764141186" lon="8.216353218112701"><ele>277.0</ele><time>2026-04-18T13:24:06.999Z</time></trkpt><trkpt lat="45.04920989626295" lon="8.216286549567078"><ele>277.6666666666667</ele><time>2026-04-18T13:24:07.999Z</time></trkpt><trkpt lat="45.049276710800875" lon="8.216212737392873"><ele>278.3333333333333</ele><time>2026-04-18T13:24:08.999Z</time></trkpt><trkpt lat="45.04934710407178" lon="8.21612190911376"><ele>279.0</ele><time>2026-04-18T13:24:09.999Z</time></trkpt><trkpt lat="45.04941763986586" lon="8.216028228860404"><ele>279.0</ele><time>2026-04-18T13:24:10.999Z</time></trkpt><trkpt lat="45.04948661998833" lon="8.21591529677064"><ele>279.0</ele><time>2026-04-18T13:24:11.999Z</time></trkpt><trkpt lat="45.04952304313086" lon="8.215746162249808"><ele>279.0</ele><time>2026-04-18T13:24:12.999Z</time></trkpt><trkpt lat="45.04951461847863" lon="8.215516253708861"><ele>279.0</ele><time>2026-04-18T13:24:13.999Z</time></trkpt><trkpt lat="45.04945823598561" lon="8.215284805494703"><ele>280.5</ele><time>2026-04-18T13:24:14.999Z</time></trkpt><trkpt lat="45.04937894365338" lon="8.21509787676711"><ele>282.0</ele><time>2026-04-18T13:24:15.999Z</time></trkpt><trkpt lat="45.049294322865066" lon="8.214958337609604"><ele>283.5</ele><time>2026-04-18T13:24:16.999Z</time></trkpt><trkpt lat="45.04915763058608" lon="8.214862970863651"><ele>285.0</ele><time>2026-04-18T13:24:17.999Z</time></trkpt><trkpt lat="45.04900198826395" lon="8.214792455104927"><ele>285.5</ele><time>2026-04-18T13:24:18.999Z</time></trkpt><trkpt lat="45.0488578992446" lon="8.214746031797876"><ele>286.0</ele><time>2026-04-18T13:24:19.999Z</time></trkpt><trkpt lat="45.04874320634434" lon="8.214689804694103"><ele>286.5</ele><time>2026-04-18T13:24:20.999Z</time></trkpt><trkpt lat="45.0486279682437" lon="8.214645047952773"><ele>287.0</ele><time>2026-04-18T13:24:21.999Z</time></trkpt><trkpt lat="45.048511316485815" lon="8.214575266591769"><ele>287.0</ele><time>2026-04-18T13:24:22.999Z</time></trkpt><trkpt lat="45.048415763868455" lon="8.214454701275763"><ele>287.0</ele><time>2026-04-18T13:24:23.999Z</time></trkpt><trkpt lat="45.04834601834216" lon="8.214306816570955"><ele>287.0</ele><time>2026-04-18T13:24:24.999Z</time></trkpt><trkpt lat="45.04832061586293" lon="8.214141344385608"><ele>287.0</ele><time>2026-04-18T13:24:25.999Z</time></trkpt><trkpt lat="45.0483116204553" lon="8.213944981730064"><ele>288.5</ele><time>2026-04-18T13:24:26.999Z</time></trkpt><trkpt lat="45.04829320104947" lon="8.213715766275548"><ele>290.0</ele><time>2026-04-18T13:24:27.999Z</time></trkpt><trkpt lat="45.04824581512124" lon="8.213525601935842"><ele>291.5</ele><time>2026-04-18T13:24:28.999Z</time></trkpt><trkpt lat="45.04816581803992" lon="8.213364474332588"><ele>293.0</ele><time>2026-04-18T13:24:29.999Z</time></trkpt><trkpt lat="45.048043359586636" lon="8.21322321192293"><ele>290.75</ele><time>2026-04-18T13:24:30.999Z</time></trkpt><trkpt lat="45.04794049809043" lon="8.213077929577384"><ele>288.5</ele><time>2026-04-18T13:24:31.999Z</time></trkpt><trkpt lat="45.04785284699253" lon="8.212955268790932"><ele>286.25</ele><time>2026-04-18T13:24:32.999Z</time></trkpt><trkpt lat="45.04779006364071" lon="8.212824581576655"><ele>284.0</ele><time>2026-04-18T13:24:33.999Z</time></trkpt><trkpt lat="45.04775205319918" lon="8.212677474738161"><ele>284.0</ele><time>2026-04-18T13:24:34.999Z</time></trkpt><trkpt lat="45.047737700257" lon="8.212518695265224"><ele>284.0</ele><time>2026-04-18T13:24:35.999Z</time></trkpt><trkpt lat="45.04774052574554" lon="8.212336394216813"><ele>284.0</ele><time>2026-04-18T13:24:36.999Z</time></trkpt><trkpt lat="45.047762104653145" lon="8.212132883193046"><ele>284.0</ele><time>2026-04-18T13:24:37.999Z</time></trkpt><trkpt lat="45.04779346353381" lon="8.211923833859773"><ele>283.25</ele><time>2026-04-18T13:24:38.999Z</time></trkpt><trkpt lat="45.04781672412689" lon="8.211709887782135"><ele>282.5</ele><time>2026-04-18T13:24:39.999Z</time></trkpt><trkpt lat="45.04786283849254" lon="8.211527685297604"><ele>281.75</ele><time>2026-04-18T13:24:40.999Z</time></trkpt><trkpt lat="45.047908699112355" lon="8.211345694036979"><ele>281.0</ele><time>2026-04-18T13:24:41.999Z</time></trkpt><trkpt lat="45.047959164235934" lon="8.211175387797493"><ele>280.0</ele><time>2026-04-18T13:24:42.999Z</time></trkpt><trkpt lat="45.048007339302664" lon="8.211021035695628"><ele>279.0</ele><time>2026-04-18T13:24:43.999Z</time></trkpt><trkpt lat="45.04804821447886" lon="8.210886725035802"><ele>278.0</ele><time>2026-04-18T13:24:44.999Z</time></trkpt><trkpt lat="45.04807124719834" lon="8.210767546185206"><ele>277.0</ele><time>2026-04-18T13:24:45.999Z</time></trkpt><trkpt lat="45.04805989571758" lon="8.210644042442013"><ele>276.0</ele><time>2026-04-18T13:24:46.999Z</time></trkpt><trkpt lat="45.048036584677945" lon="8.210497924099101"><ele>275.75</ele><time>2026-04-18T13:24:47.999Z</time></trkpt><trkpt lat="45.04802204371443" lon="8.210348049111786"><ele>275.5</ele><time>2026-04-18T13:24:48.999Z</time></trkpt><trkpt lat="45.048011500250325" lon="8.210187784301697"><ele>275.25</ele><time>2026-04-18T13:24:49.999Z</time></trkpt><trkpt lat="45.048002534452856" lon="8.210028249633922"><ele>275.0</ele><time>2026-04-18T13:24:50.999Z</time></trkpt><trkpt lat="45.04798522841511" lon="8.209865522675317"><ele>275.25</ele><time>2026-04-18T13:24:51.999Z</time></trkpt><trkpt lat="45.04795389316986" lon="8.209710099407852"><ele>275.5</ele><time>2026-04-18T13:24:52.999Z</time></trkpt><trkpt lat="45.04792598644609" lon="8.209563964393855"><ele>275.75</ele><time>2026-04-18T13:24:53.999Z</time></trkpt><trkpt lat="45.04788821847728" lon="8.209402239508332"><ele>276.0</ele><time>2026-04-18T13:24:54.999Z</time></trkpt><trkpt lat="45.04785261305884" lon="8.209238856237992"><ele>276.0</ele><time>2026-04-18T13:24:55.999Z</time></trkpt><trkpt lat="45.04782492713701" lon="8.20907003583416"><ele>276.0</ele><time>2026-04-18T13:24:56.999Z</time></trkpt><trkpt lat="45.04780479874595" lon="8.208918031932157"><ele>276.0</ele><time>2026-04-18T13:24:57.999Z</time></trkpt><trkpt lat="45.04779573877615" lon="8.208771607441433"><ele>276.0</ele><time>2026-04-18T13:24:58.999Z</time></trkpt><trkpt lat="45.04784020576521" lon="8.208625001821135"><ele>276.0</ele><time>2026-04-18T13:24:59.999Z</time></trkpt><trkpt lat="45.04784438400791" lon="8.208482037020751"><ele>276.0</ele><time>2026-04-18T13:25:00.999Z</time></trkpt><trkpt lat="45.047869095213024" lon="8.20836143051443"><ele>276.0</ele><time>2026-04-18T13:25:01.999Z</time></trkpt><trkpt lat="45.047889512356896" lon="8.208245259927297"><ele>276.0</ele><time>2026-04-18T13:25:02.999Z</time></trkpt><trkpt lat="45.047900197001816" lon="8.208132270311301"><ele>276.0</ele><time>2026-04-18T13:25:03.999Z</time></trkpt><trkpt lat="45.04791325291926" lon="8.208007704313408"><ele>276.0</ele><time>2026-04-18T13:25:04.999Z</time></trkpt><trkpt lat="45.04792486725566" lon="8.20789057770586"><ele>276.0</ele><time>2026-04-18T13:25:05.999Z</time></trkpt><trkpt lat="45.047940859978745" lon="8.207771346288602"><ele>275.3333333333333</ele><time>2026-04-18T13:25:06.999Z</time></trkpt><trkpt lat="45.0479647472117" lon="8.207660998453433"><ele>274.6666666666667</ele><time>2026-04-18T13:25:07.999Z</time></trkpt><trkpt lat="45.04801959266638" lon="8.20757352907068"><ele>274.0</ele><time>2026-04-18T13:25:08.999Z</time></trkpt><trkpt lat="45.04806670656103" lon="8.207499974762056"><ele>273.33333333333337</ele><time>2026-04-18T13:25:09.999Z</time></trkpt><trkpt lat="45.04811690134683" lon="8.207416665418904"><ele>272.6666666666667</ele><time>2026-04-18T13:25:10.999Z</time></trkpt><trkpt lat="45.0481831041492" lon="8.207358872038846"><ele>272.0</ele><time>2026-04-18T13:25:11.999Z</time></trkpt><trkpt lat="45.048248529104555" lon="8.207297473006737"><ele>271.83333333333337</ele><time>2026-04-18T13:25:12.999Z</time></trkpt><trkpt lat="45.04831686951855" lon="8.207239067991598"><ele>271.6666666666667</ele><time>2026-04-18T13:25:13.999Z</time></trkpt><trkpt lat="45.04838900184509" lon="8.20718231227971"><ele>271.5</ele><time>2026-04-18T13:25:14.999Z</time></trkpt><trkpt lat="45.04845669473247" lon="8.207132780877322"><ele>271.3333333333333</ele><time>2026-04-18T13:25:15.999Z</time></trkpt><trkpt lat="45.0485312369489" lon="8.207071354478455"><ele>271.16666666666663</ele><time>2026-04-18T13:25:16.999Z</time></trkpt><trkpt lat="45.048606036415784" lon="8.207013271983332"><ele>271.0</ele><time>2026-04-18T13:25:17.999Z</time></trkpt><trkpt lat="45.04868233543714" lon="8.206957600332915"><ele>271.0</ele><time>2026-04-18T13:25:18.999Z</time></trkpt><trkpt lat="45.04875717624817" lon="8.2069041420444"><ele>271.0</ele><time>2026-04-18T13:25:19.999Z</time></trkpt><trkpt lat="45.048834447930055" lon="8.206846217639605"><ele>271.0</ele><time>2026-04-18T13:25:20.999Z</time></trkpt><trkpt lat="45.04890766561871" lon="8.206790330334721"><ele>271.0</ele><time>2026-04-18T13:25:21.999Z</time></trkpt><trkpt lat="45.04898391046933" lon="8.206735862786882"><ele>271.0</ele><time>2026-04-18T13:25:22.999Z</time></trkpt><trkpt lat="45.049060292565045" lon="8.206679449024366"><ele>271.0</ele><time>2026-04-18T13:25:23.999Z</time></trkpt><trkpt lat="45.04913477912036" lon="8.206622315802719"><ele>271.16666666666663</ele><time>2026-04-18T13:25:24.999Z</time></trkpt><trkpt lat="45.04920397161172" lon="8.206566782060886"><ele>271.3333333333333</ele><time>2026-04-18T13:25:25.999Z</time></trkpt><trkpt lat="45.049272457881585" lon="8.206513748041063"><ele>271.5</ele><time>2026-04-18T13:25:26.999Z</time></trkpt><trkpt lat="45.04933614998635" lon="8.206463469681166"><ele>271.6666666666667</ele><time>2026-04-18T13:25:27.999Z</time></trkpt><trkpt lat="45.04940836404921" lon="8.206413224100093"><ele>271.83333333333337</ele><time>2026-04-18T13:25:28.999Z</time></trkpt><trkpt lat="45.049472832596905" lon="8.2063644519289"><ele>272.0</ele><time>2026-04-18T13:25:29.999Z</time></trkpt><trkpt lat="45.049530139475884" lon="8.206305616782178"><ele>272.0</ele><time>2026-04-18T13:25:30.999Z</time></trkpt><trkpt lat="45.049575724677084" lon="8.206243842998203"><ele>272.0</ele><time>2026-04-18T13:25:31.999Z</time></trkpt><trkpt lat="45.04961344239111" lon="8.206171553377269"><ele>272.0</ele><time>2026-04-18T13:25:32.999Z</time></trkpt><trkpt lat="45.04964986790737" lon="8.206022508200814"><ele>272.0</ele><time>2026-04-18T13:25:34.999Z</time></trkpt><trkpt lat="45.04967543629884" lon="8.205882732193455"><ele>272.0</ele><time>2026-04-18T13:25:36.999Z</time></trkpt><trkpt lat="45.049700283726665" lon="8.205717017846224"><ele>271.2857142857143</ele><time>2026-04-18T13:25:38.999Z</time></trkpt><trkpt lat="45.049696803327" lon="8.205621637605375"><ele>270.57142857142856</ele><time>2026-04-18T13:25:39.999Z</time></trkpt><trkpt lat="45.04971578771829" lon="8.20552891439806"><ele>269.8571428571429</ele><time>2026-04-18T13:25:40.999Z</time></trkpt><trkpt lat="45.049723369118254" lon="8.205430735868596"><ele>269.1428571428571</ele><time>2026-04-18T13:25:41.999Z</time></trkpt><trkpt lat="45.04973092326662" lon="8.205331411669924"><ele>268.42857142857144</ele><time>2026-04-18T13:25:42.999Z</time></trkpt><trkpt lat="45.04972787483459" lon="8.205225419377909"><ele>267.7142857142857</ele><time>2026-04-18T13:25:43.999Z</time></trkpt><trkpt lat="45.049722249997956" lon="8.20512066067002"><ele>267.0</ele><time>2026-04-18T13:25:44.999Z</time></trkpt><trkpt lat="45.04970877098929" lon="8.20501079859186"><ele>267.0</ele><time>2026-04-18T13:25:45.999Z</time></trkpt><trkpt lat="45.049697469893985" lon="8.204893521481361"><ele>267.0</ele><time>2026-04-18T13:25:46.999Z</time></trkpt><trkpt lat="45.04969451232272" lon="8.2047779425319"><ele>267.0</ele><time>2026-04-18T13:25:47.999Z</time></trkpt><trkpt lat="45.04970801971273" lon="8.20467233106818"><ele>267.0</ele><time>2026-04-18T13:25:48.999Z</time></trkpt><trkpt lat="45.04969824971625" lon="8.204573407013125"><ele>267.0</ele><time>2026-04-18T13:25:49.999Z</time></trkpt><trkpt lat="45.04970998636433" lon="8.204477618855146"><ele>267.0</ele><time>2026-04-18T13:25:50.999Z</time></trkpt><trkpt lat="45.04972503913083" lon="8.20437450069284"><ele>266.0</ele><time>2026-04-18T13:25:51.999Z</time></trkpt><trkpt lat="45.04974358480715" lon="8.204255975555874"><ele>265.0</ele><time>2026-04-18T13:25:52.999Z</time></trkpt><trkpt lat="45.04977312856175" lon="8.204115916721356"><ele>264.0</ele><time>2026-04-18T13:25:53.999Z</time></trkpt><trkpt lat="45.049810478038076" lon="8.203968590276386"><ele>263.0</ele><time>2026-04-18T13:25:54.999Z</time></trkpt><trkpt lat="45.049854991300556" lon="8.203803925472792"><ele>262.0</ele><time>2026-04-18T13:25:55.999Z</time></trkpt><trkpt lat="45.049898010808484" lon="8.203625645833922"><ele>261.5</ele><time>2026-04-18T13:25:56.999Z</time></trkpt><trkpt lat="45.04993794628065" lon="8.203434979475977"><ele>261.0</ele><time>2026-04-18T13:25:57.999Z</time></trkpt><trkpt lat="45.049977736001345" lon="8.203255261524912"><ele>260.5</ele><time>2026-04-18T13:25:58.999Z</time></trkpt><trkpt lat="45.0500256734222" lon="8.203092451319844"><ele>260.0</ele><time>2026-04-18T13:25:59.999Z</time></trkpt><trkpt lat="45.0500831527592" lon="8.202934822880435"><ele>259.5</ele><time>2026-04-18T13:26:00.999Z</time></trkpt><trkpt lat="45.05015721998538" lon="8.202758566494127"><ele>259.0</ele><time>2026-04-18T13:26:01.999Z</time></trkpt><trkpt lat="45.05023377521743" lon="8.202579187831308"><ele>258.5</ele><time>2026-04-18T13:26:02.999Z</time></trkpt><trkpt lat="45.05030691662" lon="8.202393163212784"><ele>258.0</ele><time>2026-04-18T13:26:03.999Z</time></trkpt><trkpt lat="45.05037745038328" lon="8.202199922981185"><ele>258.0</ele><time>2026-04-18T13:26:04.999Z</time></trkpt><trkpt lat="45.05043437237497" lon="8.202015988103772"><ele>258.0</ele><time>2026-04-18T13:26:05.999Z</time></trkpt><trkpt lat="45.05048547467033" lon="8.20183101280538"><ele>258.0</ele><time>2026-04-18T13:26:06.999Z</time></trkpt><trkpt lat="45.05056335724985" lon="8.201664138914309"><ele>258.0</ele><time>2026-04-18T13:26:07.999Z</time></trkpt><trkpt lat="45.05062876051143" lon="8.201485358305902"><ele>257.75</ele><time>2026-04-18T13:26:08.999Z</time></trkpt><trkpt lat="45.050712367372306" lon="8.201321043294072"><ele>257.5</ele><time>2026-04-18T13:26:09.999Z</time></trkpt><trkpt lat="45.05079388611888" lon="8.20115291452984"><ele>257.25</ele><time>2026-04-18T13:26:10.999Z</time></trkpt><trkpt lat="45.05086485549752" lon="8.20097542177272"><ele>257.0</ele><time>2026-04-18T13:26:11.999Z</time></trkpt><trkpt lat="45.05093164036174" lon="8.200784662397943"><ele>260.0</ele><time>2026-04-18T13:26:12.999Z</time></trkpt><trkpt lat="45.05099500463726" lon="8.200591670820053"><ele>263.0</ele><time>2026-04-18T13:26:13.999Z</time></trkpt><trkpt lat="45.05106143052792" lon="8.200392292914481"><ele>266.0</ele><time>2026-04-18T13:26:14.999Z</time></trkpt><trkpt lat="45.051120064972864" lon="8.200193453988229"><ele>266.0</ele><time>2026-04-18T13:26:15.999Z</time></trkpt><trkpt lat="45.051170906029476" lon="8.199967207141691"><ele>266.0</ele><time>2026-04-18T13:26:16.999Z</time></trkpt><trkpt lat="45.05118767616423" lon="8.199753166669149"><ele>266.0</ele><time>2026-04-18T13:26:17.999Z</time></trkpt><trkpt lat="45.05122571060604" lon="8.19955215886446"><ele>265.5</ele><time>2026-04-18T13:26:18.999Z</time></trkpt><trkpt lat="45.051262800550546" lon="8.199356240874186"><ele>265.0</ele><time>2026-04-18T13:26:19.999Z</time></trkpt><trkpt lat="45.051307398193394" lon="8.199170233985003"><ele>264.5</ele><time>2026-04-18T13:26:20.999Z</time></trkpt><trkpt lat="45.05138385043336" lon="8.199013810922004"><ele>264.0</ele><time>2026-04-18T13:26:21.999Z</time></trkpt><trkpt lat="45.051456768657715" lon="8.198837805290813"><ele>264.0</ele><time>2026-04-18T13:26:22.999Z</time></trkpt><trkpt lat="45.05153323245254" lon="8.198643548675173"><ele>264.0</ele><time>2026-04-18T13:26:23.999Z</time></trkpt><trkpt lat="45.051606117798364" lon="8.198446508577883"><ele>264.0</ele><time>2026-04-18T13:26:24.999Z</time></trkpt><trkpt lat="45.051679124349455" lon="8.198258268747177"><ele>262.3333333333333</ele><time>2026-04-18T13:26:25.999Z</time></trkpt><trkpt lat="45.05176065007138" lon="8.198058683055487"><ele>260.66666666666663</ele><time>2026-04-18T13:26:26.999Z</time></trkpt><trkpt lat="45.05184154828657" lon="8.197862554253422"><ele>259.0</ele><time>2026-04-18T13:26:27.999Z</time></trkpt><trkpt lat="45.05190915515931" lon="8.19765286079618"><ele>259.0</ele><time>2026-04-18T13:26:28.999Z</time></trkpt><trkpt lat="45.05199678849015" lon="8.197447786403181"><ele>259.0</ele><time>2026-04-18T13:26:29.999Z</time></trkpt><trkpt lat="45.05207817437362" lon="8.197254981529342"><ele>259.0</ele><time>2026-04-18T13:26:30.999Z</time></trkpt><trkpt lat="45.05216256516652" lon="8.1970473280581"><ele>256.3333333333333</ele><time>2026-04-18T13:26:31.999Z</time></trkpt><trkpt lat="45.052246271494" lon="8.196855083711633"><ele>253.66666666666669</ele><time>2026-04-18T13:26:32.999Z</time></trkpt><trkpt lat="45.052322084124214" lon="8.196650232984354"><ele>251.0</ele><time>2026-04-18T13:26:33.999Z</time></trkpt><trkpt lat="45.0523798767531" lon="8.19644540285248"><ele>250.66666666666669</ele><time>2026-04-18T13:26:34.999Z</time></trkpt><trkpt lat="45.052407962553616" lon="8.196217799851615"><ele>250.33333333333331</ele><time>2026-04-18T13:26:35.999Z</time></trkpt><trkpt lat="45.05238160967254" lon="8.195980425870859"><ele>250.0</ele><time>2026-04-18T13:26:36.999Z</time></trkpt><trkpt lat="45.052328789130804" lon="8.19571697195349"><ele>251.0</ele><time>2026-04-18T13:26:37.999Z</time></trkpt><trkpt lat="45.05226871739179" lon="8.195563757175224"><ele>252.0</ele><time>2026-04-18T13:26:38.999Z</time></trkpt><trkpt lat="45.05219315044571" lon="8.195365841604612"><ele>253.0</ele><time>2026-04-18T13:26:39.999Z</time></trkpt><trkpt lat="45.05216250874673" lon="8.195207028972897"><ele>254.0</ele><time>2026-04-18T13:26:40.999Z</time></trkpt><trkpt lat="45.05217429570228" lon="8.194968005132552"><ele>255.25</ele><time>2026-04-18T13:26:41.999Z</time></trkpt><trkpt lat="45.05222124780741" lon="8.194768183197413"><ele>256.5</ele><time>2026-04-18T13:26:42.999Z</time></trkpt><trkpt lat="45.052275713922604" lon="8.194570925026351"><ele>257.75</ele><time>2026-04-18T13:26:43.999Z</time></trkpt><trkpt lat="45.05230275373512" lon="8.194371076868572"><ele>259.0</ele><time>2026-04-18T13:26:44.999Z</time></trkpt><trkpt lat="45.05234261631257" lon="8.194168004125038"><ele>261.0</ele><time>2026-04-18T13:26:45.999Z</time></trkpt><trkpt lat="45.052365432461436" lon="8.193956184866877"><ele>263.0</ele><time>2026-04-18T13:26:46.999Z</time></trkpt><trkpt lat="45.05238306801507" lon="8.193744387926227"><ele>265.0</ele><time>2026-04-18T13:26:47.999Z</time></trkpt><trkpt lat="45.05238789905417" lon="8.193523779252757"><ele>265.0</ele><time>2026-04-18T13:26:48.999Z</time></trkpt><trkpt lat="45.05238521592911" lon="8.193307057359924"><ele>265.0</ele><time>2026-04-18T13:26:49.999Z</time></trkpt><trkpt lat="45.0523596087396" lon="8.193090976489904"><ele>265.0</ele><time>2026-04-18T13:26:50.999Z</time></trkpt><trkpt lat="45.0523529445632" lon="8.192873497339622"><ele>267.0</ele><time>2026-04-18T13:26:51.999Z</time></trkpt><trkpt lat="45.05235733690511" lon="8.192643362223713"><ele>269.0</ele><time>2026-04-18T13:26:52.999Z</time></trkpt><trkpt lat="45.05236640698554" lon="8.192437698276034"><ele>271.0</ele><time>2026-04-18T13:26:53.999Z</time></trkpt><trkpt lat="45.05238729603341" lon="8.192219221994806"><ele>273.0</ele><time>2026-04-18T13:26:54.999Z</time></trkpt><trkpt lat="45.05243051588189" lon="8.192009855058183"><ele>275.0</ele><time>2026-04-18T13:26:55.999Z</time></trkpt><trkpt lat="45.052459500506274" lon="8.191799455092035"><ele>277.0</ele><time>2026-04-18T13:26:56.999Z</time></trkpt><trkpt lat="45.052513810554316" lon="8.191599132235826"><ele>277.8</ele><time>2026-04-18T13:26:57.999Z</time></trkpt><trkpt lat="45.05256165333679" lon="8.19141097669711"><ele>278.6</ele><time>2026-04-18T13:26:58.999Z</time></trkpt><trkpt lat="45.05260102382879" lon="8.191271013624593"><ele>279.40000000000003</ele><time>2026-04-18T13:26:59.999Z</time></trkpt><trkpt lat="45.05263412848524" lon="8.19115993849804"><ele>280.2</ele><time>2026-04-18T13:27:00.999Z</time></trkpt><trkpt lat="45.05265908554212" lon="8.191039736141109"><ele>281.0</ele><time>2026-04-18T13:27:01.999Z</time></trkpt><trkpt lat="45.05268062488157" lon="8.19087513823445"><ele>281.0</ele><time>2026-04-18T13:27:02.999Z</time></trkpt><trkpt lat="45.05270954134598" lon="8.190710868279886"><ele>281.0</ele><time>2026-04-18T13:27:04Z</time></trkpt><trkpt lat="45.05273957075108" lon="8.190544945630018"><ele>281.0</ele><time>2026-04-18T13:27:05Z</time></trkpt><trkpt lat="45.052772480646844" lon="8.19038723793578"><ele>281.0</ele><time>2026-04-18T13:27:06Z</time></trkpt><trkpt lat="45.0528058667283" lon="8.190232344004105"><ele>279.8</ele><time>2026-04-18T13:27:07Z</time></trkpt><trkpt lat="45.05283445243288" lon="8.190073607348358"><ele>278.6</ele><time>2026-04-18T13:27:08Z</time></trkpt><trkpt lat="45.05285591703137" lon="8.189916817562315"><ele>277.4</ele><time>2026-04-18T13:27:09Z</time></trkpt><trkpt lat="45.0528685014945" lon="8.189777847525153"><ele>276.2</ele><time>2026-04-18T13:27:10Z</time></trkpt><trkpt lat="45.05288432660191" lon="8.189629563551925"><ele>275.0</ele><time>2026-04-18T13:27:11Z</time></trkpt><trkpt lat="45.05288100924394" lon="8.189488239168906"><ele>274.0</ele><time>2026-04-18T13:27:12Z</time></trkpt><trkpt lat="45.052869864183705" lon="8.18935180091063"><ele>273.0</ele><time>2026-04-18T13:27:13Z</time></trkpt><trkpt lat="45.05289413518428" lon="8.189223603156087"><ele>272.0</ele><time>2026-04-18T13:27:14Z</time></trkpt><trkpt lat="45.052928705170046" lon="8.189103663569425"><ele>271.0</ele><time>2026-04-18T13:27:15Z</time></trkpt><trkpt lat="45.05298121514415" lon="8.188990423208955"><ele>270.0</ele><time>2026-04-18T13:27:16Z</time></trkpt><trkpt lat="45.05302803177048" lon="8.188856891245509"><ele>270.0</ele><time>2026-04-18T13:27:17Z</time></trkpt><trkpt lat="45.05309874449425" lon="8.188738682776988"><ele>270.0</ele><time>2026-04-18T13:27:18Z</time></trkpt><trkpt lat="45.0531684390367" lon="8.18861984919549"><ele>270.0</ele><time>2026-04-18T13:27:19Z</time></trkpt><trkpt lat="45.053237017321045" lon="8.188504592628863"><ele>270.0</ele><time>2026-04-18T13:27:20Z</time></trkpt><trkpt lat="45.053299991864506" lon="8.188396549657513"><ele>270.0</ele><time>2026-04-18T13:27:21Z</time></trkpt><trkpt lat="45.0533587331135" lon="8.188293494378113"><ele>270.0</ele><time>2026-04-18T13:27:22Z</time></trkpt><trkpt lat="45.053414328862274" lon="8.188187765830229"><ele>270.0</ele><time>2026-04-18T13:27:23Z</time></trkpt><trkpt lat="45.0534681853448" lon="8.188088350664367"><ele>270.0</ele><time>2026-04-18T13:27:24Z</time></trkpt><trkpt lat="45.05352193138632" lon="8.18799401061567"><ele>270.0</ele><time>2026-04-18T13:27:25Z</time></trkpt><trkpt lat="45.05357401432268" lon="8.187890907924249"><ele>270.0</ele><time>2026-04-18T13:27:26Z</time></trkpt><trkpt lat="45.053590646590905" lon="8.187758978255172"><ele>268.2</ele><time>2026-04-18T13:27:27Z</time></trkpt><trkpt lat="45.053585647409435" lon="8.187632110254512"><ele>266.4</ele><time>2026-04-18T13:27:28Z</time></trkpt><trkpt lat="45.053553135081295" lon="8.187491918452686"><ele>264.6</ele><time>2026-04-18T13:27:29Z</time></trkpt><trkpt lat="45.053500643632894" lon="8.187375755079964"><ele>262.8</ele><time>2026-04-18T13:27:30Z</time></trkpt><trkpt lat="45.05344277837433" lon="8.18726706212007"><ele>261.0</ele><time>2026-04-18T13:27:31Z</time></trkpt><trkpt lat="45.053384193320525" lon="8.18717596956466"><ele>259.6</ele><time>2026-04-18T13:27:32Z</time></trkpt><trkpt lat="45.053309761378195" lon="8.18711695975372"><ele>258.20000000000005</ele><time>2026-04-18T13:27:33Z</time></trkpt><trkpt lat="45.05322343722293" lon="8.187090972547505"><ele>256.79999999999995</ele><time>2026-04-18T13:27:34Z</time></trkpt><trkpt lat="45.05312338263797" lon="8.187091100515486"><ele>255.39999999999998</ele><time>2026-04-18T13:27:35Z</time></trkpt><trkpt lat="45.053010680317634" lon="8.187119779382082"><ele>254.0</ele><time>2026-04-18T13:27:36Z</time></trkpt><trkpt lat="45.052891779775116" lon="8.187162009113477"><ele>252.2</ele><time>2026-04-18T13:27:37Z</time></trkpt><trkpt lat="45.05277043777957" lon="8.187192544651928"><ele>250.39999999999998</ele><time>2026-04-18T13:27:38Z</time></trkpt><trkpt lat="45.05266842938267" lon="8.187220900120797"><ele>248.6</ele><time>2026-04-18T13:27:39Z</time></trkpt><trkpt lat="45.05257215599912" lon="8.187246648959434"><ele>246.8</ele><time>2026-04-18T13:27:40Z</time></trkpt><trkpt lat="45.052481767342144" lon="8.187271077826844"><ele>245.0</ele><time>2026-04-18T13:27:41Z</time></trkpt><trkpt lat="45.05239472530071" lon="8.187291440802278"><ele>244.0</ele><time>2026-04-18T13:27:42Z</time></trkpt><trkpt lat="45.05232238344981" lon="8.187309151932714"><ele>243.0</ele><time>2026-04-18T13:27:43Z</time></trkpt><trkpt lat="45.05224570515282" lon="8.187315069936494"><ele>242.0</ele><time>2026-04-18T13:27:45Z</time></trkpt><trkpt lat="45.05223604039305" lon="8.187176954485482"><ele>241.0</ele><time>2026-04-18T13:27:48Z</time></trkpt><trkpt lat="45.05224217164894" lon="8.187016410709113"><ele>240.0</ele><time>2026-04-18T13:27:50Z</time></trkpt><trkpt lat="45.05223922417247" lon="8.186869834221502"><ele>240.0</ele><time>2026-04-18T13:27:52Z</time></trkpt><trkpt lat="45.052242929676595" lon="8.18669549633153"><ele>240.0</ele><time>2026-04-18T13:27:54Z</time></trkpt><trkpt lat="45.05224520809086" lon="8.186601747637042"><ele>240.0</ele><time>2026-04-18T13:27:55Z</time></trkpt><trkpt lat="45.05224803373624" lon="8.186441199048469"><ele>240.0</ele><time>2026-04-18T13:27:57Z</time></trkpt><trkpt lat="45.05222688269965" lon="8.186306472619384"><ele>240.0</ele><time>2026-04-18T13:27:59Z</time></trkpt><trkpt lat="45.05220445736199" lon="8.186219310094824"><ele>238.0</ele><time>2026-04-18T13:28:00Z</time></trkpt><trkpt lat="45.05214916823356" lon="8.186078827687457"><ele>236.0</ele><time>2026-04-18T13:28:02Z</time></trkpt><trkpt lat="45.052102750548016" lon="8.185950259327832"><ele>234.0</ele><time>2026-04-18T13:28:04Z</time></trkpt><trkpt lat="45.05207208719923" lon="8.185774063418418"><ele>232.0</ele><time>2026-04-18T13:28:06Z</time></trkpt><trkpt lat="45.05206497905446" lon="8.185680665588905"><ele>230.0</ele><time>2026-04-18T13:28:07Z</time></trkpt><trkpt lat="45.052055532124406" lon="8.185530392102859"><ele>229.0</ele><time>2026-04-18T13:28:09Z</time></trkpt><trkpt lat="45.052041800175324" lon="8.185348374138439"><ele>228.0</ele><time>2026-04-18T13:28:11Z</time></trkpt><trkpt lat="45.05202921899587" lon="8.185227069369974"><ele>227.0</ele><time>2026-04-18T13:28:12Z</time></trkpt><trkpt lat="45.05198257127119" lon="8.185155908965873"><ele>226.0</ele><time>2026-04-18T13:28:13Z</time></trkpt><trkpt lat="45.05191644210892" lon="8.185007090211142"><ele>225.0</ele><time>2026-04-18T13:28:15Z</time></trkpt><trkpt lat="45.051867299220696" lon="8.1849485161608"><ele>224.0</ele><time>2026-04-18T13:28:16Z</time></trkpt><trkpt lat="45.05197676320832" lon="8.184672077759414"><ele>223.0</ele><time>2026-04-18T13:28:18Z</time></trkpt><trkpt lat="45.051975308951306" lon="8.184542521966845"><ele>222.0</ele><time>2026-04-18T13:28:20Z</time></trkpt><trkpt lat="45.051973823519496" lon="8.184377277775553"><ele>221.0</ele><time>2026-04-18T13:28:22Z</time></trkpt><trkpt lat="45.05198962606371" lon="8.18426784772031"><ele>221.0</ele><time>2026-04-18T13:28:31Z</time></trkpt><trkpt lat="45.05219829370186" lon="8.184241118426621"><ele>221.0</ele><time>2026-04-18T13:28:33Z</time></trkpt><trkpt lat="45.05234764299314" lon="8.184208165468633"><ele>221.0</ele><time>2026-04-18T13:28:34Z</time></trkpt><trkpt lat="45.05246698910122" lon="8.184176890548326"><ele>221.4</ele><time>2026-04-18T13:28:35Z</time></trkpt><trkpt lat="45.05257685463739" lon="8.184147178312354"><ele>221.8</ele><time>2026-04-18T13:28:36Z</time></trkpt><trkpt lat="45.05267865648474" lon="8.184121289325466"><ele>222.20000000000002</ele><time>2026-04-18T13:28:37Z</time></trkpt><trkpt lat="45.052770330203174" lon="8.184100794894668"><ele>222.60000000000002</ele><time>2026-04-18T13:28:38Z</time></trkpt><trkpt lat="45.05285314289037" lon="8.184087351524617"><ele>223.0</ele><time>2026-04-18T13:28:39Z</time></trkpt><trkpt lat="45.05293562921433" lon="8.184075860741247"><ele>222.99999999999997</ele><time>2026-04-18T13:28:40Z</time></trkpt><trkpt lat="45.053027188224945" lon="8.18404140091816"><ele>223.0</ele><time>2026-04-18T13:28:41Z</time></trkpt><trkpt lat="45.05312260180506" lon="8.18398562552266"><ele>223.0</ele><time>2026-04-18T13:28:42Z</time></trkpt><trkpt lat="45.053204647081884" lon="8.183922576453346"><ele>223.0</ele><time>2026-04-18T13:28:43Z</time></trkpt><trkpt lat="45.05327180509765" lon="8.183871876340808"><ele>222.99999999999997</ele><time>2026-04-18T13:28:44Z</time></trkpt><trkpt lat="45.0533372199103" lon="8.18383139129056"><ele>223.0</ele><time>2026-04-18T13:28:45Z</time></trkpt><trkpt lat="45.05339609825847" lon="8.183775039528559"><ele>223.33333333333331</ele><time>2026-04-18T13:28:46Z</time></trkpt><trkpt lat="45.05347383399275" lon="8.1837308260352"><ele>223.66666666666666</ele><time>2026-04-18T13:28:47Z</time></trkpt><trkpt lat="45.053546675174566" lon="8.183652866140207"><ele>224.0</ele><time>2026-04-18T13:28:48Z</time></trkpt><trkpt lat="45.05362099489471" lon="8.183611636419622"><ele>224.33333333333331</ele><time>2026-04-18T13:28:49Z</time></trkpt><trkpt lat="45.0536975690914" lon="8.18354459492861"><ele>224.66666666666666</ele><time>2026-04-18T13:28:51Z</time></trkpt><trkpt lat="45.05361904724472" lon="8.183617774228681"><ele>225.0</ele><time>2026-04-18T13:28:56.999Z</time></trkpt><trkpt lat="45.05353345043722" lon="8.183686043784451"><ele>225.0</ele><time>2026-04-18T13:28:57.999Z</time></trkpt><trkpt lat="45.053433465808" lon="8.183762561202665"><ele>225.0</ele><time>2026-04-18T13:28:58.999Z</time></trkpt><trkpt lat="45.05332205369885" lon="8.183850152386135"><ele>225.0</ele><time>2026-04-18T13:28:59.999Z</time></trkpt><trkpt lat="45.05321102462954" lon="8.183937444773255"><ele>225.0</ele><time>2026-04-18T13:29:00.999Z</time></trkpt><trkpt lat="45.053112382351074" lon="8.184005106634098"><ele>224.6</ele><time>2026-04-18T13:29:01.999Z</time></trkpt><trkpt lat="45.05302962733398" lon="8.184051368798162"><ele>224.2</ele><time>2026-04-18T13:29:02.999Z</time></trkpt><trkpt lat="45.052961699763934" lon="8.184094916082994"><ele>223.8</ele><time>2026-04-18T13:29:03.999Z</time></trkpt><trkpt lat="45.05289273701687" lon="8.184102932408093"><ele>223.4</ele><time>2026-04-18T13:29:04.999Z</time></trkpt><trkpt lat="45.05277358000961" lon="8.184116571901495"><ele>223.0</ele><time>2026-04-18T13:29:06.999Z</time></trkpt><trkpt lat="45.052644845191644" lon="8.184111230169728"><ele>223.0</ele><time>2026-04-18T13:29:09Z</time></trkpt><trkpt lat="45.05257648524169" lon="8.184128981636338"><ele>223.0</ele><time>2026-04-18T13:29:10Z</time></trkpt><trkpt lat="45.0525065758309" lon="8.184146636244689"><ele>223.0</ele><time>2026-04-18T13:29:11Z</time></trkpt><trkpt lat="45.05243605026774" lon="8.184161014322521"><ele>223.0</ele><time>2026-04-18T13:29:12Z</time></trkpt><trkpt lat="45.05236666474926" lon="8.18417249646935"><ele>223.0</ele><time>2026-04-18T13:29:13Z</time></trkpt><trkpt lat="45.05228889493318" lon="8.184189138491375"><ele>223.0</ele><time>2026-04-18T13:29:14Z</time></trkpt><trkpt lat="45.052210006090924" lon="8.184205034581925"><ele>223.0</ele><time>2026-04-18T13:29:15Z</time></trkpt><trkpt lat="45.0521053579243" lon="8.184231666160764"><ele>220.0</ele><time>2026-04-18T13:29:17Z</time></trkpt><trkpt lat="45.05213430029646" lon="8.183947729503943"><ele>217.0</ele><time>2026-04-18T13:29:22Z</time></trkpt><trkpt lat="45.05216573819868" lon="8.18377687749845"><ele>214.0</ele><time>2026-04-18T13:29:24Z</time></trkpt><trkpt lat="45.05216198674467" lon="8.183602561979262"><ele>214.0</ele><time>2026-04-18T13:29:26Z</time></trkpt><trkpt lat="45.052149774416065" lon="8.183486860388017"><ele>213.99999999999997</ele><time>2026-04-18T13:29:27Z</time></trkpt><trkpt lat="45.05213895860042" lon="8.183357205820746"><ele>213.99999999999997</ele><time>2026-04-18T13:29:28Z</time></trkpt><trkpt lat="45.052132322607" lon="8.183243145891847"><ele>214.0</ele><time>2026-04-18T13:29:29Z</time></trkpt><trkpt lat="45.05211543443455" lon="8.18305310353046"><ele>214.0</ele><time>2026-04-18T13:29:30Z</time></trkpt><trkpt lat="45.05210473354722" lon="8.18290588716668"><ele>214.99999999999997</ele><time>2026-04-18T13:29:31Z</time></trkpt><trkpt lat="45.05209891191826" lon="8.182778956735993"><ele>216.0</ele><time>2026-04-18T13:29:32Z</time></trkpt><trkpt lat="45.05208327643822" lon="8.182639034074327"><ele>217.0</ele><time>2026-04-18T13:29:34Z</time></trkpt><trkpt lat="45.0519825584846" lon="8.182648243523236"><ele>218.0</ele><time>2026-04-18T13:29:37Z</time></trkpt><trkpt lat="45.051917430336076" lon="8.182670200908946"><ele>218.99999999999997</ele><time>2026-04-18T13:29:38Z</time></trkpt><trkpt lat="45.05184671189838" lon="8.182678047270924"><ele>220.0</ele><time>2026-04-18T13:29:39Z</time></trkpt><trkpt lat="45.05177075462268" lon="8.182675078348877"><ele>220.0</ele><time>2026-04-18T13:29:40Z</time></trkpt><trkpt lat="45.051692007968605" lon="8.182673492620342"><ele>220.0</ele><time>2026-04-18T13:29:41Z</time></trkpt><trkpt lat="45.051621670834194" lon="8.182667296104501"><ele>220.0</ele><time>2026-04-18T13:29:42Z</time></trkpt><trkpt lat="45.05145975161263" lon="8.182659631640083"><ele>220.0</ele><time>2026-04-18T13:29:44Z</time></trkpt><trkpt lat="45.05137171193779" lon="8.182653112248426"><ele>220.0</ele><time>2026-04-18T13:29:45Z</time></trkpt><trkpt lat="45.051303369201825" lon="8.18265384268956"><ele>219.25</ele><time>2026-04-18T13:29:46Z</time></trkpt><trkpt lat="45.051203657363295" lon="8.182642945126956"><ele>218.5</ele><time>2026-04-18T13:29:47Z</time></trkpt><trkpt lat="45.051086853360445" lon="8.18265519983851"><ele>217.75</ele><time>2026-04-18T13:29:48Z</time></trkpt><trkpt lat="45.050963598661376" lon="8.182678082985513"><ele>217.0</ele><time>2026-04-18T13:29:49Z</time></trkpt><trkpt lat="45.050825941492675" lon="8.182738808724762"><ele>217.75</ele><time>2026-04-18T13:29:50Z</time></trkpt><trkpt lat="45.05068598953818" lon="8.182802325577208"><ele>218.5</ele><time>2026-04-18T13:29:51Z</time></trkpt><trkpt lat="45.05054534087035" lon="8.182858278478305"><ele>219.25</ele><time>2026-04-18T13:29:52Z</time></trkpt><trkpt lat="45.05041111463356" lon="8.182897546672045"><ele>220.0</ele><time>2026-04-18T13:29:53Z</time></trkpt><trkpt lat="45.050291303191266" lon="8.182913479207599"><ele>220.0</ele><time>2026-04-18T13:29:54Z</time></trkpt><trkpt lat="45.05014283539514" lon="8.182926956586819"><ele>220.0</ele><time>2026-04-18T13:29:55Z</time></trkpt><trkpt lat="45.05000431967039" lon="8.182935902712714"><ele>220.0</ele><time>2026-04-18T13:29:56Z</time></trkpt><trkpt lat="45.049863683308544" lon="8.18294655874257"><ele>220.0</ele><time>2026-04-18T13:29:57Z</time></trkpt><trkpt lat="45.04973383237909" lon="8.182975123171566"><ele>219.75</ele><time>2026-04-18T13:29:58Z</time></trkpt><trkpt lat="45.04959852488075" lon="8.183025162499906"><ele>219.5</ele><time>2026-04-18T13:29:59Z</time></trkpt><trkpt lat="45.04946844567415" lon="8.183074544718732"><ele>219.25</ele><time>2026-04-18T13:30:00Z</time></trkpt><trkpt lat="45.04933516509132" lon="8.183103120404617"><ele>219.0</ele><time>2026-04-18T13:30:01Z</time></trkpt><trkpt lat="45.04921270780149" lon="8.183129434859318"><ele>218.75</ele><time>2026-04-18T13:30:02Z</time></trkpt><trkpt lat="45.049087669142246" lon="8.183145632412579"><ele>218.5</ele><time>2026-04-18T13:30:03Z</time></trkpt><trkpt lat="45.04895568386204" lon="8.183145453995348"><ele>218.25</ele><time>2026-04-18T13:30:04Z</time></trkpt><trkpt lat="45.048808770909275" lon="8.183139207464619"><ele>218.0</ele><time>2026-04-18T13:30:05Z</time></trkpt><trkpt lat="45.048667078411405" lon="8.183135520001628"><ele>218.0</ele><time>2026-04-18T13:30:06Z</time></trkpt><trkpt lat="45.04854379248212" lon="8.183151967397444"><ele>218.0</ele><time>2026-04-18T13:30:07Z</time></trkpt><trkpt lat="45.048426818426435" lon="8.183159308182578"><ele>218.0</ele><time>2026-04-18T13:30:08Z</time></trkpt><trkpt lat="45.04831610449441" lon="8.183166490103366"><ele>218.0</ele><time>2026-04-18T13:30:09Z</time></trkpt><trkpt lat="45.04821191047869" lon="8.183162925499735"><ele>216.00000000000003</ele><time>2026-04-18T13:30:10Z</time></trkpt><trkpt lat="45.04812032317516" lon="8.183153126112666"><ele>214.0</ele><time>2026-04-18T13:30:11Z</time></trkpt><trkpt lat="45.04802515959529" lon="8.183146489531275"><ele>212.0</ele><time>2026-04-18T13:30:12Z</time></trkpt><trkpt lat="45.0479409118283" lon="8.183138572480887"><ele>210.0</ele><time>2026-04-18T13:30:13Z</time></trkpt><trkpt lat="45.04787253312014" lon="8.183148679382912"><ele>208.00000000000003</ele><time>2026-04-18T13:30:14Z</time></trkpt><trkpt lat="45.04780702356996" lon="8.183255996753028"><ele>206.0</ele><time>2026-04-18T13:30:16Z</time></trkpt><trkpt lat="45.04777705276149" lon="8.183361103192953"><ele>206.20000000000002</ele><time>2026-04-18T13:30:17Z</time></trkpt><trkpt lat="45.04774049335163" lon="8.183513292295384"><ele>206.4</ele><time>2026-04-18T13:30:18Z</time></trkpt><trkpt lat="45.04771508542557" lon="8.183638770695085"><ele>206.6</ele><time>2026-04-18T13:30:19Z</time></trkpt><trkpt lat="45.04769276001242" lon="8.183737864792267"><ele>206.8</ele><time>2026-04-18T13:30:20Z</time></trkpt><trkpt lat="45.047658557209594" lon="8.183885050282424"><ele>207.0</ele><time>2026-04-18T13:30:22Z</time></trkpt><trkpt lat="45.04761661033685" lon="8.184044291715592"><ele>207.0</ele><time>2026-04-18T13:30:24Z</time></trkpt><trkpt lat="45.04758057280509" lon="8.1842104761363"><ele>207.0</ele><time>2026-04-18T13:30:26Z</time></trkpt><trkpt lat="45.04756293851107" lon="8.184303000377257"><ele>207.0</ele><time>2026-04-18T13:30:27Z</time></trkpt><trkpt lat="45.0475441046471" lon="8.184390535197808"><ele>207.0</ele><time>2026-04-18T13:30:28Z</time></trkpt><trkpt lat="45.047521218580314" lon="8.184477905144057"><ele>207.0</ele><time>2026-04-18T13:30:29Z</time></trkpt><trkpt lat="45.04747171319413" lon="8.184620058775064"><ele>207.0</ele><time>2026-04-18T13:30:31Z</time></trkpt><trkpt lat="45.04739365549119" lon="8.184631513535074"><ele>206.8</ele><time>2026-04-18T13:30:33Z</time></trkpt><trkpt lat="45.04733431200828" lon="8.184592326261848"><ele>206.6</ele><time>2026-04-18T13:30:34Z</time></trkpt><trkpt lat="45.04725470204313" lon="8.184530939987717"><ele>206.4</ele><time>2026-04-18T13:30:35Z</time></trkpt><trkpt lat="45.047160129468736" lon="8.18445139356102"><ele>206.20000000000002</ele><time>2026-04-18T13:30:36Z</time></trkpt><trkpt lat="45.04704943637655" lon="8.184366278292092"><ele>206.0</ele><time>2026-04-18T13:30:37Z</time></trkpt><trkpt lat="45.04695344821919" lon="8.184299075282087"><ele>206.0</ele><time>2026-04-18T13:30:38Z</time></trkpt><trkpt lat="45.0468497790633" lon="8.184231282603582"><ele>206.0</ele><time>2026-04-18T13:30:39Z</time></trkpt><trkpt lat="45.046765707643935" lon="8.184188309774953"><ele>206.0</ele><time>2026-04-18T13:30:40Z</time></trkpt><trkpt lat="45.04666239954465" lon="8.18413819030366"><ele>206.0</ele><time>2026-04-18T13:30:41Z</time></trkpt><trkpt lat="45.046590396803445" lon="8.184088907843858"><ele>206.0</ele><time>2026-04-18T13:30:42Z</time></trkpt><trkpt lat="45.04651686120893" lon="8.184037084744748"><ele>204.66666666666669</ele><time>2026-04-18T13:30:43Z</time></trkpt><trkpt lat="45.04646099909612" lon="8.183980240170172"><ele>203.33333333333334</ele><time>2026-04-18T13:30:44Z</time></trkpt><trkpt lat="45.04634667633558" lon="8.183893373612289"><ele>202.0</ele><time>2026-04-18T13:30:46Z</time></trkpt><trkpt lat="45.04628581380539" lon="8.183842853049754"><ele>200.66666666666669</ele><time>2026-04-18T13:30:47Z</time></trkpt><trkpt lat="45.046212824194775" lon="8.183795034769428"><ele>199.33333333333334</ele><time>2026-04-18T13:30:49Z</time></trkpt><trkpt lat="45.046128039456775" lon="8.183737792288843"><ele>198.0</ele><time>2026-04-18T13:30:52Z</time></trkpt><trkpt lat="45.04600327950737" lon="8.18365973627181"><ele>198.0</ele><time>2026-04-18T13:30:54Z</time></trkpt><trkpt lat="45.045931270825896" lon="8.1836256319209"><ele>198.0</ele><time>2026-04-18T13:30:55Z</time></trkpt><trkpt lat="45.04585941161307" lon="8.183590812611055"><ele>198.0</ele><time>2026-04-18T13:30:56Z</time></trkpt><trkpt lat="45.0457823893606" lon="8.183559262613603"><ele>198.0</ele><time>2026-04-18T13:30:57Z</time></trkpt><trkpt lat="45.04570941397446" lon="8.183541267920681"><ele>198.0</ele><time>2026-04-18T13:30:58Z</time></trkpt><trkpt lat="45.045637182397506" lon="8.183534261035934"><ele>198.0</ele><time>2026-04-18T13:30:59Z</time></trkpt><trkpt lat="45.04554547916714" lon="8.18353464640439"><ele>198.0</ele><time>2026-04-18T13:31:01Z</time></trkpt><trkpt lat="45.045463524299585" lon="8.183535395276872"><ele>198.0</ele><time>2026-04-18T13:31:03Z</time></trkpt><trkpt lat="45.04539521804128" lon="8.18352933169035"><ele>198.0</ele><time>2026-04-18T13:31:04Z</time></trkpt><trkpt lat="45.045292115107856" lon="8.183509858066003"><ele>198.0</ele><time>2026-04-18T13:31:06Z</time></trkpt><trkpt lat="45.045236647840994" lon="8.18338466562906"><ele>198.0</ele><time>2026-04-18T13:31:08Z</time></trkpt><trkpt lat="45.04522948517857" lon="8.183295561187958"><ele>198.0</ele><time>2026-04-18T13:31:09Z</time></trkpt><trkpt lat="45.04520716178245" lon="8.183135535659234"><ele>198.0</ele><time>2026-04-18T13:31:11Z</time></trkpt><trkpt lat="45.04515749164605" lon="8.182999391367833"><ele>198.0</ele><time>2026-04-18T13:31:13Z</time></trkpt><trkpt lat="45.045099886552755" lon="8.182909776737617"><ele>198.0</ele><time>2026-04-18T13:31:14Z</time></trkpt><trkpt lat="45.04502867503221" lon="8.182834547953284"><ele>198.0</ele><time>2026-04-18T13:31:15.001Z</time></trkpt><trkpt lat="45.044942673072036" lon="8.182766696060815"><ele>198.0</ele><time>2026-04-18T13:31:16.001Z</time></trkpt><trkpt lat="45.04485237544024" lon="8.182691842560562"><ele>197.83333333333334</ele><time>2026-04-18T13:31:17.001Z</time></trkpt><trkpt lat="45.044778630672916" lon="8.182636881382107"><ele>197.66666666666669</ele><time>2026-04-18T13:31:18.001Z</time></trkpt><trkpt lat="45.044709209468095" lon="8.182578785645648"><ele>197.5</ele><time>2026-04-18T13:31:19.001Z</time></trkpt><trkpt lat="45.04463617520377" lon="8.182511382144904"><ele>197.33333333333334</ele><time>2026-04-18T13:31:20.001Z</time></trkpt><trkpt lat="45.044565472436176" lon="8.182420298107335"><ele>197.16666666666669</ele><time>2026-04-18T13:31:21.001Z</time></trkpt><trkpt lat="45.04450618647415" lon="8.182311634635628"><ele>197.0</ele><time>2026-04-18T13:31:22.001Z</time></trkpt><trkpt lat="45.04444500066316" lon="8.182162245326083"><ele>196.39999999999998</ele><time>2026-04-18T13:31:23.001Z</time></trkpt><trkpt lat="45.044391442099105" lon="8.182017585004107"><ele>195.79999999999998</ele><time>2026-04-18T13:31:24.001Z</time></trkpt><trkpt lat="45.0443418889445" lon="8.181884193981984"><ele>195.2</ele><time>2026-04-18T13:31:25.001Z</time></trkpt><trkpt lat="45.04429389604559" lon="8.181764886030097"><ele>194.6</ele><time>2026-04-18T13:31:26.001Z</time></trkpt><trkpt lat="45.0442395792137" lon="8.181658606120164"><ele>194.0</ele><time>2026-04-18T13:31:27.001Z</time></trkpt><trkpt lat="45.04416734572404" lon="8.181550495837506"><ele>194.0</ele><time>2026-04-18T13:31:28.001Z</time></trkpt><trkpt lat="45.04408344865579" lon="8.181427132203009"><ele>194.0</ele><time>2026-04-18T13:31:29.001Z</time></trkpt><trkpt lat="45.044013445063584" lon="8.181313827289996"><ele>194.0</ele><time>2026-04-18T13:31:30.001Z</time></trkpt><trkpt lat="45.04395314808935" lon="8.181189749659234"><ele>194.0</ele><time>2026-04-18T13:31:31.001Z</time></trkpt><trkpt lat="45.043882158712584" lon="8.181044172525137"><ele>194.0</ele><time>2026-04-18T13:31:32.001Z</time></trkpt><trkpt lat="45.043811646065556" lon="8.180909077538026"><ele>194.0</ele><time>2026-04-18T13:31:33.001Z</time></trkpt><trkpt lat="45.04375051210185" lon="8.180798446692886"><ele>194.0</ele><time>2026-04-18T13:31:34.001Z</time></trkpt><trkpt lat="45.04369874062565" lon="8.180716128145459"><ele>194.0</ele><time>2026-04-18T13:31:35.001Z</time></trkpt><trkpt lat="45.043642272241605" lon="8.180626834950722"><ele>194.0</ele><time>2026-04-18T13:31:36.001Z</time></trkpt><trkpt lat="45.04358516086855" lon="8.180542736598216"><ele>194.16666666666669</ele><time>2026-04-18T13:31:37.001Z</time></trkpt><trkpt lat="45.04352414580102" lon="8.180449479752998"><ele>194.33333333333334</ele><time>2026-04-18T13:31:38.001Z</time></trkpt><trkpt lat="45.0434661571301" lon="8.180371226662851"><ele>194.5</ele><time>2026-04-18T13:31:39.001Z</time></trkpt><trkpt lat="45.043413837596816" lon="8.180305841261758"><ele>194.66666666666669</ele><time>2026-04-18T13:31:40.001Z</time></trkpt><trkpt lat="45.04335507494566" lon="8.180254194703966"><ele>194.83333333333334</ele><time>2026-04-18T13:31:41.001Z</time></trkpt><trkpt lat="45.043269046564006" lon="8.18019069056118"><ele>195.0</ele><time>2026-04-18T13:31:42.001Z</time></trkpt><trkpt lat="45.043179378941446" lon="8.18013243190136"><ele>195.0</ele><time>2026-04-18T13:31:43.001Z</time></trkpt><trkpt lat="45.04309424137456" lon="8.18009655899182"><ele>195.0</ele><time>2026-04-18T13:31:44.001Z</time></trkpt><trkpt lat="45.04299952564778" lon="8.180072495962404"><ele>195.0</ele><time>2026-04-18T13:31:45.001Z</time></trkpt><trkpt lat="45.042899183048334" lon="8.180049940430719"><ele>195.0</ele><time>2026-04-18T13:31:46.001Z</time></trkpt><trkpt lat="45.04280735670733" lon="8.180013145207926"><ele>195.0</ele><time>2026-04-18T13:31:47.001Z</time></trkpt><trkpt lat="45.04272904230892" lon="8.179946250618721"><ele>194.25</ele><time>2026-04-18T13:31:48.001Z</time></trkpt><trkpt lat="45.04263359709168" lon="8.179837031844782"><ele>193.5</ele><time>2026-04-18T13:31:49.001Z</time></trkpt><trkpt lat="45.04252379490314" lon="8.179711281498955"><ele>192.75</ele><time>2026-04-18T13:31:50.001Z</time></trkpt><trkpt lat="45.042410086433094" lon="8.17959493284848"><ele>192.0</ele><time>2026-04-18T13:31:51.001Z</time></trkpt><trkpt lat="45.042285630751714" lon="8.179475098200855"><ele>192.0</ele><time>2026-04-18T13:31:52.001Z</time></trkpt><trkpt lat="45.04216177101429" lon="8.17935504347072"><ele>192.0</ele><time>2026-04-18T13:31:53.001Z</time></trkpt><trkpt lat="45.04205004636672" lon="8.179237886731242"><ele>192.0</ele><time>2026-04-18T13:31:54.001Z</time></trkpt><trkpt lat="45.041943571459576" lon="8.179127361429739"><ele>192.0</ele><time>2026-04-18T13:31:55.001Z</time></trkpt><trkpt lat="45.04184162340779" lon="8.179029438956642"><ele>191.5</ele><time>2026-04-18T13:31:56.001Z</time></trkpt><trkpt lat="45.04173806001746" lon="8.178935672720076"><ele>191.0</ele><time>2026-04-18T13:31:57.001Z</time></trkpt><trkpt lat="45.041642632715764" lon="8.17885459132427"><ele>190.5</ele><time>2026-04-18T13:31:58Z</time></trkpt><trkpt lat="45.041532434170364" lon="8.178766006898918"><ele>190.0</ele><time>2026-04-18T13:31:59Z</time></trkpt><trkpt lat="45.041417490966104" lon="8.178679396501838"><ele>189.25</ele><time>2026-04-18T13:32:00Z</time></trkpt><trkpt lat="45.041296242988444" lon="8.178605967658509"><ele>188.5</ele><time>2026-04-18T13:32:01Z</time></trkpt><trkpt lat="45.041166512319386" lon="8.178537751956144"><ele>187.75</ele><time>2026-04-18T13:32:02Z</time></trkpt><trkpt lat="45.04103497147103" lon="8.178469336296939"><ele>187.0</ele><time>2026-04-18T13:32:03Z</time></trkpt><trkpt lat="45.040906466504666" lon="8.17839730802272"><ele>187.5</ele><time>2026-04-18T13:32:04Z</time></trkpt><trkpt lat="45.04077071084103" lon="8.178320053416817"><ele>188.0</ele><time>2026-04-18T13:32:05Z</time></trkpt><trkpt lat="45.040643123446955" lon="8.1782586004851"><ele>188.5</ele><time>2026-04-18T13:32:06Z</time></trkpt><trkpt lat="45.04052178713646" lon="8.17819395071768"><ele>189.0</ele><time>2026-04-18T13:32:07Z</time></trkpt><trkpt lat="45.04040278643921" lon="8.178139543430367"><ele>188.5</ele><time>2026-04-18T13:32:08Z</time></trkpt><trkpt lat="45.04027665494422" lon="8.178088075062567"><ele>188.0</ele><time>2026-04-18T13:32:09Z</time></trkpt><trkpt lat="45.04015525352438" lon="8.178033413890818"><ele>187.5</ele><time>2026-04-18T13:32:10Z</time></trkpt><trkpt lat="45.040040856323635" lon="8.177986151203063"><ele>187.0</ele><time>2026-04-18T13:32:11Z</time></trkpt><trkpt lat="45.03992166336368" lon="8.177943035983743"><ele>187.0</ele><time>2026-04-18T13:32:12Z</time></trkpt><trkpt lat="45.03980463073587" lon="8.177914705041921"><ele>187.0</ele><time>2026-04-18T13:32:13Z</time></trkpt><trkpt lat="45.03968460387139" lon="8.177876214918463"><ele>187.0</ele><time>2026-04-18T13:32:14Z</time></trkpt><trkpt lat="45.039562782736965" lon="8.177837144075166"><ele>187.0</ele><time>2026-04-18T13:32:15Z</time></trkpt><trkpt lat="45.03944741791232" lon="8.177796650286174"><ele>187.0</ele><time>2026-04-18T13:32:16Z</time></trkpt><trkpt lat="45.03933189026833" lon="8.17774727665022"><ele>187.0</ele><time>2026-04-18T13:32:17Z</time></trkpt><trkpt lat="45.039224350542916" lon="8.177698133734511"><ele>187.0</ele><time>2026-04-18T13:32:18Z</time></trkpt><trkpt lat="45.03913955543015" lon="8.177634881519184"><ele>187.0</ele><time>2026-04-18T13:32:19Z</time></trkpt><trkpt lat="45.03906238508646" lon="8.177552904614911"><ele>187.0</ele><time>2026-04-18T13:32:20Z</time></trkpt><trkpt lat="45.039005793281454" lon="8.177490330654763"><ele>187.0</ele><time>2026-04-18T13:32:21Z</time></trkpt><trkpt lat="45.038926933753615" lon="8.177393959906855"><ele>187.0</ele><time>2026-04-18T13:32:23Z</time></trkpt><trkpt lat="45.03885417039565" lon="8.17731224517431"><ele>187.0</ele><time>2026-04-18T13:32:25Z</time></trkpt><trkpt lat="45.038775360953345" lon="8.17723637506299"><ele>187.0</ele><time>2026-04-18T13:32:27Z</time></trkpt><trkpt lat="45.03867066085316" lon="8.177154534307203"><ele>187.0</ele><time>2026-04-18T13:32:29Z</time></trkpt><trkpt lat="45.03860208824939" lon="8.1771054756025"><ele>187.0</ele><time>2026-04-18T13:32:30Z</time></trkpt><trkpt lat="45.038540142796656" lon="8.177054350478489"><ele>187.0</ele><time>2026-04-18T13:32:31Z</time></trkpt><trkpt lat="45.038467894943366" lon="8.17699485579186"><ele>187.0</ele><time>2026-04-18T13:32:32Z</time></trkpt><trkpt lat="45.03840815785692" lon="8.176910878619646"><ele>187.0</ele><time>2026-04-18T13:32:33Z</time></trkpt><trkpt lat="45.03834320769495" lon="8.176812682964622"><ele>187.0</ele><time>2026-04-18T13:32:34Z</time></trkpt><trkpt lat="45.03828643864437" lon="8.176715236765823"><ele>187.0</ele><time>2026-04-18T13:32:35Z</time></trkpt><trkpt lat="45.038228850804906" lon="8.176603118531672"><ele>187.5</ele><time>2026-04-18T13:32:36Z</time></trkpt><trkpt lat="45.03817149020611" lon="8.176468257651543"><ele>188.0</ele><time>2026-04-18T13:32:37Z</time></trkpt><trkpt lat="45.03811773167497" lon="8.176318277413198"><ele>188.5</ele><time>2026-04-18T13:32:38Z</time></trkpt><trkpt lat="45.03807003600887" lon="8.176166744340447"><ele>189.0</ele><time>2026-04-18T13:32:39Z</time></trkpt><trkpt lat="45.03802790708192" lon="8.176032431219724"><ele>189.0</ele><time>2026-04-18T13:32:40Z</time></trkpt><trkpt lat="45.03798659140505" lon="8.175919498061457"><ele>189.0</ele><time>2026-04-18T13:32:41Z</time></trkpt><trkpt lat="45.03794225676586" lon="8.175822491359753"><ele>189.0</ele><time>2026-04-18T13:32:42Z</time></trkpt><trkpt lat="45.037849669710596" lon="8.175711562000963"><ele>189.0</ele><time>2026-04-18T13:32:44Z</time></trkpt><trkpt lat="45.03778204314187" lon="8.175651993595729"><ele>189.0</ele><time>2026-04-18T13:32:45Z</time></trkpt><trkpt lat="45.037692802371275" lon="8.175576327797708"><ele>187.33333333333334</ele><time>2026-04-18T13:32:46Z</time></trkpt><trkpt lat="45.03756756967872" lon="8.175477300262159"><ele>185.66666666666669</ele><time>2026-04-18T13:32:47Z</time></trkpt><trkpt lat="45.037412827392735" lon="8.175351154346169"><ele>184.0</ele><time>2026-04-18T13:32:48Z</time></trkpt><trkpt lat="45.03724002823548" lon="8.17520418866952"><ele>184.0</ele><time>2026-04-18T13:32:49Z</time></trkpt><trkpt lat="45.03709841132023" lon="8.175087680054851"><ele>184.0</ele><time>2026-04-18T13:32:50Z</time></trkpt><trkpt lat="45.03696614786211" lon="8.174971787532316"><ele>184.0</ele><time>2026-04-18T13:32:51Z</time></trkpt><trkpt lat="45.03684669054571" lon="8.174883158582526"><ele>183.25</ele><time>2026-04-18T13:32:52Z</time></trkpt><trkpt lat="45.036711339532935" lon="8.174795193525155"><ele>182.5</ele><time>2026-04-18T13:32:53Z</time></trkpt><trkpt lat="45.03658731928112" lon="8.174725192770628"><ele>181.75</ele><time>2026-04-18T13:32:54Z</time></trkpt><trkpt lat="45.03645783459037" lon="8.174657148063199"><ele>181.0</ele><time>2026-04-18T13:32:55Z</time></trkpt><trkpt lat="45.03633336670297" lon="8.174592085883024"><ele>180.5</ele><time>2026-04-18T13:32:56Z</time></trkpt><trkpt lat="45.036218756633716" lon="8.174536686736385"><ele>180.0</ele><time>2026-04-18T13:32:57Z</time></trkpt><trkpt lat="45.036103917952744" lon="8.174486795146318"><ele>179.5</ele><time>2026-04-18T13:32:58Z</time></trkpt><trkpt lat="45.03599351922545" lon="8.174426458446371"><ele>179.0</ele><time>2026-04-18T13:32:59Z</time></trkpt><trkpt lat="45.03591516115365" lon="8.174355194601574"><ele>179.0</ele><time>2026-04-18T13:33:00Z</time></trkpt><trkpt lat="45.035830769641116" lon="8.174248963594884"><ele>179.0</ele><time>2026-04-18T13:33:01Z</time></trkpt><trkpt lat="45.035738812647296" lon="8.174109623280797"><ele>179.0</ele><time>2026-04-18T13:33:02Z</time></trkpt><trkpt lat="45.03562978455224" lon="8.17391581290851"><ele>179.0</ele><time>2026-04-18T13:33:03Z</time></trkpt><trkpt lat="45.035527593839916" lon="8.17373188934081"><ele>177.75</ele><time>2026-04-18T13:33:04Z</time></trkpt><trkpt lat="45.03544014575522" lon="8.173580227948948"><ele>176.5</ele><time>2026-04-18T13:33:05Z</time></trkpt><trkpt lat="45.03535476117229" lon="8.173444013726048"><ele>175.25</ele><time>2026-04-18T13:33:06Z</time></trkpt><trkpt lat="45.035267405448444" lon="8.173318846195873"><ele>174.0</ele><time>2026-04-18T13:33:07Z</time></trkpt><trkpt lat="45.0351823594181" lon="8.173206218902006"><ele>173.5</ele><time>2026-04-18T13:33:08Z</time></trkpt><trkpt lat="45.035106430036954" lon="8.173098215872516"><ele>173.0</ele><time>2026-04-18T13:33:09Z</time></trkpt><trkpt lat="45.03503364692513" lon="8.172999799490098"><ele>172.5</ele><time>2026-04-18T13:33:10Z</time></trkpt><trkpt lat="45.03494297064097" lon="8.172896379017647"><ele>172.0</ele><time>2026-04-18T13:33:11Z</time></trkpt><trkpt lat="45.034840956931326" lon="8.172788616424356"><ele>172.0</ele><time>2026-04-18T13:33:12Z</time></trkpt><trkpt lat="45.03474809511931" lon="8.172687229133645"><ele>172.0</ele><time>2026-04-18T13:33:13Z</time></trkpt><trkpt lat="45.03464991700812" lon="8.172589457449634"><ele>172.0</ele><time>2026-04-18T13:33:14Z</time></trkpt><trkpt lat="45.03455318821681" lon="8.172505639919732"><ele>172.0</ele><time>2026-04-18T13:33:15Z</time></trkpt><trkpt lat="45.03447514926041" lon="8.172441701918956"><ele>172.0</ele><time>2026-04-18T13:33:16Z</time></trkpt><trkpt lat="45.03439892929991" lon="8.172379704918797"><ele>172.6</ele><time>2026-04-18T13:33:17Z</time></trkpt><trkpt lat="45.03429701827718" lon="8.172300488506128"><ele>173.2</ele><time>2026-04-18T13:33:19Z</time></trkpt><trkpt lat="45.03424146252614" lon="8.17224645005518"><ele>173.8</ele><time>2026-04-18T13:33:22.002Z</time></trkpt><trkpt lat="45.03416709764069" lon="8.172186634542824"><ele>174.4</ele><time>2026-04-18T13:33:38.001Z</time></trkpt><trkpt lat="45.0341008582854" lon="8.172124625660649"><ele>175.0</ele><time>2026-04-18T13:33:39.001Z</time></trkpt><trkpt lat="45.03400161171861" lon="8.172038096828684"><ele>175.0</ele><time>2026-04-18T13:33:40.001Z</time></trkpt><trkpt lat="45.03388150834529" lon="8.171931771248456"><ele>175.0</ele><time>2026-04-18T13:33:41.001Z</time></trkpt><trkpt lat="45.03376892319124" lon="8.17182780151637"><ele>175.0</ele><time>2026-04-18T13:33:42.001Z</time></trkpt><trkpt lat="45.03366776348689" lon="8.171735832691871"><ele>175.0</ele><time>2026-04-18T13:33:43.001Z</time></trkpt><trkpt lat="45.03357754307674" lon="8.171651465538393"><ele>175.0</ele><time>2026-04-18T13:33:44.001Z</time></trkpt><trkpt lat="45.03347785907369" lon="8.171564166970432"><ele>175.0</ele><time>2026-04-18T13:33:45.001Z</time></trkpt><trkpt lat="45.03337712951878" lon="8.171487993001742"><ele>175.0</ele><time>2026-04-18T13:33:46.001Z</time></trkpt><trkpt lat="45.03326580074655" lon="8.171411591683398"><ele>175.0</ele><time>2026-04-18T13:33:47.001Z</time></trkpt><trkpt lat="45.03315902352107" lon="8.171341363766812"><ele>175.75</ele><time>2026-04-18T13:33:48.001Z</time></trkpt><trkpt lat="45.033052123873226" lon="8.171269124333804"><ele>176.5</ele><time>2026-04-18T13:33:49.001Z</time></trkpt><trkpt lat="45.03293631333307" lon="8.17118707412112"><ele>177.25</ele><time>2026-04-18T13:33:50.001Z</time></trkpt><trkpt lat="45.03281458784381" lon="8.171099446247137"><ele>178.0</ele><time>2026-04-18T13:33:51.001Z</time></trkpt><trkpt lat="45.032713234960745" lon="8.171021029206464"><ele>178.0</ele><time>2026-04-18T13:33:52.001Z</time></trkpt><trkpt lat="45.032621040993675" lon="8.170945776969209"><ele>178.0</ele><time>2026-04-18T13:33:53.001Z</time></trkpt><trkpt lat="45.03250660275614" lon="8.170840400076537"><ele>178.0</ele><time>2026-04-18T13:33:54.001Z</time></trkpt><trkpt lat="45.032401790053655" lon="8.170736651016528"><ele>178.0</ele><time>2026-04-18T13:33:55.001Z</time></trkpt><trkpt lat="45.03231084408662" lon="8.17064494432813"><ele>176.2</ele><time>2026-04-18T13:33:56.001Z</time></trkpt><trkpt lat="45.032208304037795" lon="8.170543249082744"><ele>174.4</ele><time>2026-04-18T13:33:57.001Z</time></trkpt><trkpt lat="45.03210945420798" lon="8.170447353659528"><ele>172.6</ele><time>2026-04-18T13:33:58.001Z</time></trkpt><trkpt lat="45.03201567780352" lon="8.170357513789789"><ele>170.79999999999998</ele><time>2026-04-18T13:33:59.001Z</time></trkpt><trkpt lat="45.03195227624741" lon="8.170292255799728"><ele>169.0</ele><time>2026-04-18T13:34:00.001Z</time></trkpt><trkpt lat="45.03189296238211" lon="8.170219417871817"><ele>169.0</ele><time>2026-04-18T13:34:01.001Z</time></trkpt><trkpt lat="45.03187616652215" lon="8.170057963723464"><ele>169.0</ele><time>2026-04-18T13:34:03.001Z</time></trkpt><trkpt lat="45.031907944249134" lon="8.169959763650185"><ele>169.0</ele><time>2026-04-18T13:34:04.001Z</time></trkpt><trkpt lat="45.03194851413307" lon="8.16984916797948"><ele>169.0</ele><time>2026-04-18T13:34:05.001Z</time></trkpt><trkpt lat="45.03199706317087" lon="8.16969321336451"><ele>169.0</ele><time>2026-04-18T13:34:06.001Z</time></trkpt><trkpt lat="45.03204211469775" lon="8.169538097635604"><ele>168.79999999999998</ele><time>2026-04-18T13:34:07.001Z</time></trkpt><trkpt lat="45.03206461248894" lon="8.169395660175796"><ele>168.6</ele><time>2026-04-18T13:34:08.001Z</time></trkpt><trkpt lat="45.032077060940544" lon="8.16925813864744"><ele>168.4</ele><time>2026-04-18T13:34:09.001Z</time></trkpt><trkpt lat="45.03208367652687" lon="8.169119643671213"><ele>168.2</ele><time>2026-04-18T13:34:10.001Z</time></trkpt><trkpt lat="45.03210938012045" lon="8.16895079484565"><ele>168.0</ele><time>2026-04-18T13:34:11.001Z</time></trkpt><trkpt lat="45.032137329483184" lon="8.168763309638933"><ele>168.0</ele><time>2026-04-18T13:34:12.001Z</time></trkpt><trkpt lat="45.03215827673232" lon="8.168589660198178"><ele>168.0</ele><time>2026-04-18T13:34:13.001Z</time></trkpt><trkpt lat="45.03216668421363" lon="8.168397300455958"><ele>168.0</ele><time>2026-04-18T13:34:14.001Z</time></trkpt><trkpt lat="45.03214726960809" lon="8.16821239528264"><ele>168.0</ele><time>2026-04-18T13:34:15.001Z</time></trkpt><trkpt lat="45.032120602725925" lon="8.16805510069609"><ele>168.4</ele><time>2026-04-18T13:34:16.001Z</time></trkpt><trkpt lat="45.03209834254394" lon="8.16791975354163"><ele>168.8</ele><time>2026-04-18T13:34:17.001Z</time></trkpt><trkpt lat="45.032079069657044" lon="8.167801891346064"><ele>169.2</ele><time>2026-04-18T13:34:18.001Z</time></trkpt><trkpt lat="45.03203816824988" lon="8.167717958729744"><ele>169.6</ele><time>2026-04-18T13:34:19.001Z</time></trkpt><trkpt lat="45.03196083836729" lon="8.167632231006918"><ele>170.0</ele><time>2026-04-18T13:34:20.001Z</time></trkpt><trkpt lat="45.03185368126932" lon="8.167514401121743"><ele>170.0</ele><time>2026-04-18T13:34:21.001Z</time></trkpt><trkpt lat="45.03173337924338" lon="8.167386001370875"><ele>170.0</ele><time>2026-04-18T13:34:22.001Z</time></trkpt><trkpt lat="45.031628429305286" lon="8.167261135253659"><ele>170.0</ele><time>2026-04-18T13:34:23.001Z</time></trkpt><trkpt lat="45.03152855230981" lon="8.167140879962373"><ele>170.0</ele><time>2026-04-18T13:34:24.001Z</time></trkpt><trkpt lat="45.03143586809706" lon="8.167028959476552"><ele>169.6</ele><time>2026-04-18T13:34:25.001Z</time></trkpt><trkpt lat="45.03136046372789" lon="8.166929980858535"><ele>169.2</ele><time>2026-04-18T13:34:26.001Z</time></trkpt><trkpt lat="45.03130235248552" lon="8.166835537361429"><ele>168.8</ele><time>2026-04-18T13:34:27.001Z</time></trkpt><trkpt lat="45.031257639653425" lon="8.166734165714294"><ele>168.4</ele><time>2026-04-18T13:34:28.001Z</time></trkpt><trkpt lat="45.0312128018773" lon="8.166574708276224"><ele>168.0</ele><time>2026-04-18T13:34:29.001Z</time></trkpt><trkpt lat="45.03115956163775" lon="8.166378527528053"><ele>168.0</ele><time>2026-04-18T13:34:30.001Z</time></trkpt><trkpt lat="45.03110952540718" lon="8.166221876973214"><ele>168.0</ele><time>2026-04-18T13:34:31.001Z</time></trkpt><trkpt lat="45.03107070939705" lon="8.166106695401517"><ele>168.0</ele><time>2026-04-18T13:34:32.001Z</time></trkpt><trkpt lat="45.03103246384536" lon="8.165998265131108"><ele>168.0</ele><time>2026-04-18T13:34:33.001Z</time></trkpt><trkpt lat="45.030983980894284" lon="8.165883768579516"><ele>168.0</ele><time>2026-04-18T13:34:34.001Z</time></trkpt><trkpt lat="45.03093493757203" lon="8.165788034555113"><ele>168.5</ele><time>2026-04-18T13:34:35.001Z</time></trkpt><trkpt lat="45.03087744653899" lon="8.165683460054739"><ele>169.0</ele><time>2026-04-18T13:34:36.001Z</time></trkpt><trkpt lat="45.030822581594315" lon="8.165591944118987"><ele>169.5</ele><time>2026-04-18T13:34:37.001Z</time></trkpt><trkpt lat="45.0307796319262" lon="8.165516520126758"><ele>170.0</ele><time>2026-04-18T13:34:38.001Z</time></trkpt><trkpt lat="45.030736857981225" lon="8.165434392953015"><ele>170.5</ele><time>2026-04-18T13:34:39.001Z</time></trkpt><trkpt lat="45.03067076011803" lon="8.165321323721106"><ele>171.0</ele><time>2026-04-18T13:34:41.001Z</time></trkpt><trkpt lat="45.03062815015772" lon="8.165252260966804"><ele>169.83333333333334</ele><time>2026-04-18T13:34:42.001Z</time></trkpt><trkpt lat="45.03058135641894" lon="8.165189409633653"><ele>168.66666666666666</ele><time>2026-04-18T13:34:43.001Z</time></trkpt><trkpt lat="45.030524109714506" lon="8.165082612924841"><ele>167.5</ele><time>2026-04-18T13:34:44.001Z</time></trkpt><trkpt lat="45.03046948152554" lon="8.164986874099212"><ele>166.33333333333331</ele><time>2026-04-18T13:34:45Z</time></trkpt><trkpt lat="45.030423199476466" lon="8.16491261997504"><ele>165.16666666666666</ele><time>2026-04-18T13:34:46Z</time></trkpt><trkpt lat="45.030369749953685" lon="8.164859970175263"><ele>164.0</ele><time>2026-04-18T13:34:47Z</time></trkpt><trkpt lat="45.03030463662976" lon="8.164828370033405"><ele>163.66666666666666</ele><time>2026-04-18T13:34:48Z</time></trkpt><trkpt lat="45.030223637222775" lon="8.164815441656907"><ele>163.33333333333331</ele><time>2026-04-18T13:34:49Z</time></trkpt><trkpt lat="45.030133973620075" lon="8.164815450005843"><ele>163.0</ele><time>2026-04-18T13:34:50Z</time></trkpt><trkpt lat="45.03004064012781" lon="8.164828560055334"><ele>162.66666666666666</ele><time>2026-04-18T13:34:51Z</time></trkpt><trkpt lat="45.02996630085548" lon="8.164842225566955"><ele>162.33333333333334</ele><time>2026-04-18T13:34:52Z</time></trkpt><trkpt lat="45.029901836149755" lon="8.164848472345255"><ele>162.0</ele><time>2026-04-18T13:34:53Z</time></trkpt><trkpt lat="45.02980037061752" lon="8.164791294997546"><ele>162.0</ele><time>2026-04-18T13:34:55Z</time></trkpt><trkpt lat="45.029765544011916" lon="8.164716939255165"><ele>162.0</ele><time>2026-04-18T13:34:56Z</time></trkpt><trkpt lat="45.02974089998695" lon="8.164608291539404"><ele>162.0</ele><time>2026-04-18T13:34:57Z</time></trkpt><trkpt lat="45.02971363192624" lon="8.164465686978229"><ele>162.0</ele><time>2026-04-18T13:34:58Z</time></trkpt><trkpt lat="45.02968044870786" lon="8.164331699384746"><ele>162.0</ele><time>2026-04-18T13:34:59Z</time></trkpt><trkpt lat="45.02965592836477" lon="8.164227481932212"><ele>162.0</ele><time>2026-04-18T13:35:00Z</time></trkpt><trkpt lat="45.02958400862074" lon="8.164080767789107"><ele>161.5</ele><time>2026-04-18T13:35:02Z</time></trkpt><trkpt lat="45.02950384729958" lon="8.16391307955329"><ele>161.0</ele><time>2026-04-18T13:35:03Z</time></trkpt><trkpt lat="45.029412275450795" lon="8.163760707466631"><ele>160.5</ele><time>2026-04-18T13:35:04Z</time></trkpt><trkpt lat="45.02934062151052" lon="8.163619947946705"><ele>160.0</ele><time>2026-04-18T13:35:05Z</time></trkpt><trkpt lat="45.02927534191739" lon="8.163464816630013"><ele>160.0</ele><time>2026-04-18T13:35:06Z</time></trkpt><trkpt lat="45.02921616658715" lon="8.163315017088003"><ele>160.0</ele><time>2026-04-18T13:35:07Z</time></trkpt><trkpt lat="45.0291735978452" lon="8.163201072529281"><ele>160.0</ele><time>2026-04-18T13:35:08Z</time></trkpt><trkpt lat="45.029127568763755" lon="8.16308221516033"><ele>160.0</ele><time>2026-04-18T13:35:09Z</time></trkpt><trkpt lat="45.0290931055582" lon="8.162970384487595"><ele>160.0</ele><time>2026-04-18T13:35:10Z</time></trkpt><trkpt lat="45.02906281707561" lon="8.162863593033823"><ele>160.4</ele><time>2026-04-18T13:35:11Z</time></trkpt><trkpt lat="45.02902880201469" lon="8.162766634130069"><ele>160.8</ele><time>2026-04-18T13:35:12Z</time></trkpt><trkpt lat="45.028999490245596" lon="8.162678464631048"><ele>161.2</ele><time>2026-04-18T13:35:13Z</time></trkpt><trkpt lat="45.028907022952815" lon="8.16264362278907"><ele>161.6</ele><time>2026-04-18T13:35:15Z</time></trkpt><trkpt lat="45.028813674021876" lon="8.162636017708861"><ele>162.0</ele><time>2026-04-18T13:35:17Z</time></trkpt><trkpt lat="45.028742177056" lon="8.162474894305817"><ele>161.8</ele><time>2026-04-18T13:35:19Z</time></trkpt><trkpt lat="45.02869745767549" lon="8.16233927489788"><ele>161.6</ele><time>2026-04-18T13:35:20Z</time></trkpt><trkpt lat="45.02865257109207" lon="8.162205005694899"><ele>161.4</ele><time>2026-04-18T13:35:21Z</time></trkpt><trkpt lat="45.02861265765997" lon="8.16210081919447"><ele>161.20000000000002</ele><time>2026-04-18T13:35:22Z</time></trkpt><trkpt lat="45.02856078274324" lon="8.161983875068211"><ele>161.0</ele><time>2026-04-18T13:35:23Z</time></trkpt><trkpt lat="45.028501563025095" lon="8.161862180998524"><ele>161.0</ele><time>2026-04-18T13:35:24Z</time></trkpt><trkpt lat="45.028444580363825" lon="8.161770457323387"><ele>161.0</ele><time>2026-04-18T13:35:25Z</time></trkpt><trkpt lat="45.0283952142088" lon="8.161695128986022"><ele>161.0</ele><time>2026-04-18T13:35:26Z</time></trkpt><trkpt lat="45.0283067886344" lon="8.161621264444483"><ele>161.0</ele><time>2026-04-18T13:35:28.002Z</time></trkpt><trkpt lat="45.02818764134007" lon="8.161638046202558"><ele>161.0</ele><time>2026-04-18T13:35:30.002Z</time></trkpt><trkpt lat="45.028104582613835" lon="8.161688734600329"><ele>160.5</ele><time>2026-04-18T13:35:31.002Z</time></trkpt><trkpt lat="45.02798634920906" lon="8.161739147239334"><ele>160.0</ele><time>2026-04-18T13:35:32.002Z</time></trkpt><trkpt lat="45.027851296522286" lon="8.161786893049378"><ele>159.5</ele><time>2026-04-18T13:35:33.002Z</time></trkpt><trkpt lat="45.02771141790773" lon="8.161823689075051"><ele>159.0</ele><time>2026-04-18T13:35:34.002Z</time></trkpt><trkpt lat="45.027579178877225" lon="8.161857669721458"><ele>158.8</ele><time>2026-04-18T13:35:35.002Z</time></trkpt><trkpt lat="45.02745342103163" lon="8.161888940416622"><ele>158.60000000000002</ele><time>2026-04-18T13:35:36.002Z</time></trkpt><trkpt lat="45.02734258081918" lon="8.161915562815727"><ele>158.4</ele><time>2026-04-18T13:35:37.002Z</time></trkpt><trkpt lat="45.02725206483888" lon="8.161935946688544"><ele>158.20000000000002</ele><time>2026-04-18T13:35:38.002Z</time></trkpt><trkpt lat="45.02716891089182" lon="8.161953088411343"><ele>158.0</ele><time>2026-04-18T13:35:39.002Z</time></trkpt><trkpt lat="45.02706199891245" lon="8.161959034899882"><ele>158.0</ele><time>2026-04-18T13:35:41.002Z</time></trkpt><trkpt lat="45.02699053338678" lon="8.16194589991553"><ele>158.0</ele><time>2026-04-18T13:35:43.002Z</time></trkpt><trkpt lat="45.02695483008325" lon="8.162076639552781"><ele>158.0</ele><time>2026-04-18T13:35:46.002Z</time></trkpt><trkpt lat="45.02694410223457" lon="8.162241768625332"><ele>158.0</ele><time>2026-04-18T13:35:48.002Z</time></trkpt><trkpt lat="45.026929365801905" lon="8.162387091530764"><ele>158.0</ele><time>2026-04-18T13:35:50.001Z</time></trkpt><trkpt lat="45.02691933715455" lon="8.162566088017497"><ele>157.75</ele><time>2026-04-18T13:35:52.001Z</time></trkpt><trkpt lat="45.02691067673958" lon="8.162734781785018"><ele>157.5</ele><time>2026-04-18T13:35:54.001Z</time></trkpt><trkpt lat="45.026900652695154" lon="8.162907386328147"><ele>157.25</ele><time>2026-04-18T13:35:56.001Z</time></trkpt><trkpt lat="45.02689219914065" lon="8.163077161111723"><ele>157.0</ele><time>2026-04-18T13:35:58.001Z</time></trkpt><trkpt lat="45.02688518353194" lon="8.163234421855744"><ele>157.33333333333334</ele><time>2026-04-18T13:36:00Z</time></trkpt><trkpt lat="45.026886183299276" lon="8.16332418361302"><ele>157.66666666666669</ele><time>2026-04-18T13:36:01Z</time></trkpt><trkpt lat="45.02688404549885" lon="8.163419883038754"><ele>158.0</ele><time>2026-04-18T13:36:02Z</time></trkpt><trkpt lat="45.02689071123433" lon="8.163524350840584"><ele>158.33333333333334</ele><time>2026-04-18T13:36:03Z</time></trkpt><trkpt lat="45.02689223175936" lon="8.16363249534966"><ele>158.66666666666666</ele><time>2026-04-18T13:36:04Z</time></trkpt><trkpt lat="45.026901942157465" lon="8.16379528987848"><ele>159.0</ele><time>2026-04-18T13:36:06Z</time></trkpt><trkpt lat="45.02691854383259" lon="8.163960869791623"><ele>159.8</ele><time>2026-04-18T13:36:08Z</time></trkpt><trkpt lat="45.02693467171709" lon="8.164114701770236"><ele>160.60000000000002</ele><time>2026-04-18T13:36:10Z</time></trkpt><trkpt lat="45.02694442334073" lon="8.16425836139308"><ele>161.4</ele><time>2026-04-18T13:36:12Z</time></trkpt><trkpt lat="45.02694147046742" lon="8.164356634036265"><ele>162.20000000000002</ele><time>2026-04-18T13:36:14Z</time></trkpt><trkpt lat="45.02694715814108" lon="8.164451004972134"><ele>163.0</ele><time>2026-04-18T13:36:17Z</time></trkpt><trkpt lat="45.02694818591393" lon="8.164612187766625"><ele>163.0</ele><time>2026-04-18T13:36:20Z</time></trkpt><trkpt lat="45.026938163314874" lon="8.164814553136882"><ele>163.0</ele><time>2026-04-18T13:36:22Z</time></trkpt><trkpt lat="45.0269270979463" lon="8.164978997674698"><ele>163.0</ele><time>2026-04-18T13:36:23Z</time></trkpt><trkpt lat="45.026913576919384" lon="8.165188703186342"><ele>163.0</ele><time>2026-04-18T13:36:24Z</time></trkpt><trkpt lat="45.02691081205766" lon="8.16542002451851"><ele>165.0</ele><time>2026-04-18T13:36:25Z</time></trkpt><trkpt lat="45.02689282197208" lon="8.16567614714709"><ele>167.0</ele><time>2026-04-18T13:36:26Z</time></trkpt><trkpt lat="45.026889505772054" lon="8.165939171273724"><ele>169.0</ele><time>2026-04-18T13:36:27Z</time></trkpt><trkpt lat="45.02689543869576" lon="8.166212364496804"><ele>171.0</ele><time>2026-04-18T13:36:28Z</time></trkpt><trkpt lat="45.026915222591356" lon="8.166430414257528"><ele>173.0</ele><time>2026-04-18T13:36:29Z</time></trkpt><trkpt lat="45.02692214386642" lon="8.166618312518924"><ele>175.0</ele><time>2026-04-18T13:36:30Z</time></trkpt><trkpt lat="45.026936343823934" lon="8.166809658100938"><ele>177.0</ele><time>2026-04-18T13:36:31Z</time></trkpt><trkpt lat="45.02693787900553" lon="8.167016093821589"><ele>179.33333333333334</ele><time>2026-04-18T13:36:32Z</time></trkpt><trkpt lat="45.02693212964246" lon="8.16723539236618"><ele>181.66666666666669</ele><time>2026-04-18T13:36:33Z</time></trkpt><trkpt lat="45.02691946404009" lon="8.167487817276006"><ele>184.0</ele><time>2026-04-18T13:36:34Z</time></trkpt><trkpt lat="45.02689974636343" lon="8.167751317217624"><ele>185.75</ele><time>2026-04-18T13:36:35Z</time></trkpt><trkpt lat="45.026885929919096" lon="8.167984498677704"><ele>187.5</ele><time>2026-04-18T13:36:36Z</time></trkpt><trkpt lat="45.0268883379393" lon="8.168188601553881"><ele>189.25</ele><time>2026-04-18T13:36:37Z</time></trkpt><trkpt lat="45.02689559099237" lon="8.16837457473688"><ele>191.0</ele><time>2026-04-18T13:36:38Z</time></trkpt><trkpt lat="45.02689666484352" lon="8.168534405270504"><ele>193.0</ele><time>2026-04-18T13:36:39Z</time></trkpt><trkpt lat="45.026889928329645" lon="8.168697324283603"><ele>195.0</ele><time>2026-04-18T13:36:40Z</time></trkpt><trkpt lat="45.02689070613247" lon="8.168872667765296"><ele>197.0</ele><time>2026-04-18T13:36:41Z</time></trkpt><trkpt lat="45.026856414530634" lon="8.169050649365632"><ele>199.0</ele><time>2026-04-18T13:36:42Z</time></trkpt><trkpt lat="45.02683001500548" lon="8.169233197197391"><ele>200.25</ele><time>2026-04-18T13:36:43Z</time></trkpt><trkpt lat="45.02680019517407" lon="8.169412736322368"><ele>201.5</ele><time>2026-04-18T13:36:44Z</time></trkpt><trkpt lat="45.02678210140672" lon="8.169595669318452"><ele>202.75</ele><time>2026-04-18T13:36:45Z</time></trkpt><trkpt lat="45.02679037168964" lon="8.169767624572405"><ele>204.0</ele><time>2026-04-18T13:36:46Z</time></trkpt><trkpt lat="45.02679982936287" lon="8.169937764253802"><ele>204.66666666666669</ele><time>2026-04-18T13:36:47Z</time></trkpt><trkpt lat="45.02682901706704" lon="8.17013534793331"><ele>205.33333333333334</ele><time>2026-04-18T13:36:48Z</time></trkpt><trkpt lat="45.0268719955218" lon="8.170329831948136"><ele>206.0</ele><time>2026-04-18T13:36:49Z</time></trkpt><trkpt lat="45.02693533585207" lon="8.17056177768484"><ele>208.0</ele><time>2026-04-18T13:36:50Z</time></trkpt><trkpt lat="45.02702372697452" lon="8.170810714043398"><ele>210.0</ele><time>2026-04-18T13:36:51Z</time></trkpt><trkpt lat="45.027110174092314" lon="8.171081617612602"><ele>212.0</ele><time>2026-04-18T13:36:52Z</time></trkpt><trkpt lat="45.02720635691131" lon="8.171327041833685"><ele>213.0</ele><time>2026-04-18T13:36:53Z</time></trkpt><trkpt lat="45.02731492793513" lon="8.17155799239772"><ele>214.0</ele><time>2026-04-18T13:36:54Z</time></trkpt><trkpt lat="45.02738935260303" lon="8.171819772800395"><ele>215.0</ele><time>2026-04-18T13:36:55Z</time></trkpt><trkpt lat="45.02746517096057" lon="8.17207503483236"><ele>214.66666666666669</ele><time>2026-04-18T13:36:56Z</time></trkpt><trkpt lat="45.02753623715443" lon="8.172320050425826"><ele>214.33333333333331</ele><time>2026-04-18T13:36:57Z</time></trkpt><trkpt lat="45.02759566138053" lon="8.172550316376311"><ele>214.0</ele><time>2026-04-18T13:36:58Z</time></trkpt><trkpt lat="45.027625374808" lon="8.172742798127011"><ele>214.0</ele><time>2026-04-18T13:36:59Z</time></trkpt><trkpt lat="45.02763712265624" lon="8.172915641751331"><ele>214.0</ele><time>2026-04-18T13:37:00Z</time></trkpt><trkpt lat="45.02765698678604" lon="8.173125158097468"><ele>214.0</ele><time>2026-04-18T13:37:01Z</time></trkpt><trkpt lat="45.02767417339433" lon="8.173297492387368"><ele>214.0</ele><time>2026-04-18T13:37:02Z</time></trkpt><trkpt lat="45.027693037290575" lon="8.173486645411707"><ele>213.66666666666666</ele><time>2026-04-18T13:37:02.999Z</time></trkpt><trkpt lat="45.02771420016517" lon="8.173698850871844"><ele>213.33333333333331</ele><time>2026-04-18T13:37:03.999Z</time></trkpt><trkpt lat="45.02773686223539" lon="8.17393144753186"><ele>213.0</ele><time>2026-04-18T13:37:04.999Z</time></trkpt><trkpt lat="45.02775801378746" lon="8.17418194223767"><ele>213.0</ele><time>2026-04-18T13:37:05.999Z</time></trkpt><trkpt lat="45.02777726650828" lon="8.17444912556096"><ele>213.0</ele><time>2026-04-18T13:37:06.999Z</time></trkpt><trkpt lat="45.02779517012718" lon="8.174728484720944"><ele>213.0</ele><time>2026-04-18T13:37:07.999Z</time></trkpt><trkpt lat="45.027800619707364" lon="8.175005457479578"><ele>212.66666666666669</ele><time>2026-04-18T13:37:08.999Z</time></trkpt><trkpt lat="45.02779450226448" lon="8.175279274288604"><ele>212.33333333333334</ele><time>2026-04-18T13:37:09.999Z</time></trkpt><trkpt lat="45.02778227391815" lon="8.17551018131464"><ele>212.0</ele><time>2026-04-18T13:37:10.999Z</time></trkpt><trkpt lat="45.027766908694566" lon="8.175711851826009"><ele>213.2</ele><time>2026-04-18T13:37:11.999Z</time></trkpt><trkpt lat="45.02775270939709" lon="8.17589606183786"><ele>214.39999999999998</ele><time>2026-04-18T13:37:12.999Z</time></trkpt><trkpt lat="45.02774242291413" lon="8.176057434676757"><ele>215.60000000000002</ele><time>2026-04-18T13:37:13.999Z</time></trkpt><trkpt lat="45.02773461149082" lon="8.17620276499112"><ele>216.8</ele><time>2026-04-18T13:37:14.999Z</time></trkpt><trkpt lat="45.02773743180403" lon="8.176334712369691"><ele>218.0</ele><time>2026-04-18T13:37:15.999Z</time></trkpt><trkpt lat="45.02772896728513" lon="8.176457757487931"><ele>218.16666666666669</ele><time>2026-04-18T13:37:16.999Z</time></trkpt><trkpt lat="45.02772276178269" lon="8.176562830217769"><ele>218.33333333333334</ele><time>2026-04-18T13:37:17.999Z</time></trkpt><trkpt lat="45.02770421534563" lon="8.176657736581443"><ele>218.5</ele><time>2026-04-18T13:37:18.999Z</time></trkpt><trkpt lat="45.027686822124004" lon="8.176747053652903"><ele>218.66666666666669</ele><time>2026-04-18T13:37:20.999Z</time></trkpt><trkpt lat="45.02754856607704" lon="8.176676365130213"><ele>218.83333333333334</ele><time>2026-04-18T13:37:21.999Z</time></trkpt><trkpt lat="45.02747466535706" lon="8.176667358807865"><ele>219.0</ele><time>2026-04-18T13:37:22.999Z</time></trkpt><trkpt lat="45.02738183403728" lon="8.176665948678854"><ele>219.0</ele><time>2026-04-18T13:37:23.999Z</time></trkpt><trkpt lat="45.0272803455715" lon="8.176625009613694"><ele>218.99999999999997</ele><time>2026-04-18T13:37:24.999Z</time></trkpt><trkpt lat="45.02718113674993" lon="8.176584819434666"><ele>218.99999999999997</ele><time>2026-04-18T13:37:25.999Z</time></trkpt><trkpt lat="45.02709480619036" lon="8.176535595778034"><ele>219.0</ele><time>2026-04-18T13:37:26.999Z</time></trkpt><trkpt lat="45.02701612709193" lon="8.176490423346802"><ele>219.0</ele><time>2026-04-18T13:37:27.999Z</time></trkpt><trkpt lat="45.02694176836397" lon="8.176447731382156"><ele>217.66666666666666</ele><time>2026-04-18T13:37:28.999Z</time></trkpt><trkpt lat="45.026860796893914" lon="8.176413687412733"><ele>216.33333333333331</ele><time>2026-04-18T13:37:29.999Z</time></trkpt><trkpt lat="45.026782418591466" lon="8.176368648817112"><ele>215.0</ele><time>2026-04-18T13:37:30.999Z</time></trkpt><trkpt lat="45.026713016285" lon="8.176335071192893"><ele>213.66666666666666</ele><time>2026-04-18T13:37:31.999Z</time></trkpt><trkpt lat="45.02664924571697" lon="8.176313681828898"><ele>212.33333333333331</ele><time>2026-04-18T13:37:33.001Z</time></trkpt><trkpt lat="45.02658382117621" lon="8.176339365849232"><ele>211.0</ele><time>2026-04-18T13:37:34.001Z</time></trkpt><trkpt lat="45.026513356090526" lon="8.176382858335527"><ele>211.8</ele><time>2026-04-18T13:37:35.001Z</time></trkpt><trkpt lat="45.026437700178704" lon="8.176448464373658"><ele>212.60000000000002</ele><time>2026-04-18T13:37:36.001Z</time></trkpt><trkpt lat="45.02635637142599" lon="8.176528309269566"><ele>213.4</ele><time>2026-04-18T13:37:37.001Z</time></trkpt><trkpt lat="45.02626579978859" lon="8.176635445746424"><ele>214.2</ele><time>2026-04-18T13:37:38.001Z</time></trkpt><trkpt lat="45.026207284909496" lon="8.176747324990822"><ele>215.0</ele><time>2026-04-18T13:37:39.001Z</time></trkpt><trkpt lat="45.02617155267884" lon="8.176872561320115"><ele>215.0</ele><time>2026-04-18T13:37:40.001Z</time></trkpt><trkpt lat="45.026143163327504" lon="8.177032272765764"><ele>215.0</ele><time>2026-04-18T13:37:41.001Z</time></trkpt><trkpt lat="45.026104224165124" lon="8.177184861169657"><ele>215.0</ele><time>2026-04-18T13:37:42.001Z</time></trkpt><trkpt lat="45.02606688540883" lon="8.177264622560463"><ele>215.0</ele><time>2026-04-18T13:37:43.001Z</time></trkpt><trkpt lat="45.02592828289015" lon="8.177288621927866"><ele>215.0</ele><time>2026-04-18T13:37:45.001Z</time></trkpt><trkpt lat="45.0258249379696" lon="8.177303456830419"><ele>213.75</ele><time>2026-04-18T13:37:46.001Z</time></trkpt><trkpt lat="45.025703217277716" lon="8.177329787219769"><ele>212.5</ele><time>2026-04-18T13:37:47.001Z</time></trkpt><trkpt lat="45.02558341463735" lon="8.177392224724148"><ele>211.25</ele><time>2026-04-18T13:37:48.001Z</time></trkpt><trkpt lat="45.02547507170757" lon="8.177443332546448"><ele>210.0</ele><time>2026-04-18T13:37:49.001Z</time></trkpt><trkpt lat="45.025371727522746" lon="8.177475440076982"><ele>209.83333333333334</ele><time>2026-04-18T13:37:50.001Z</time></trkpt><trkpt lat="45.02526849684278" lon="8.177481540355824"><ele>209.66666666666669</ele><time>2026-04-18T13:37:51.001Z</time></trkpt><trkpt lat="45.02516933418558" lon="8.177467628045974"><ele>209.5</ele><time>2026-04-18T13:37:52.001Z</time></trkpt><trkpt lat="45.025080989824374" lon="8.177445795882276"><ele>209.33333333333334</ele><time>2026-04-18T13:37:53.001Z</time></trkpt><trkpt lat="45.0250112525615" lon="8.17743067886718"><ele>209.16666666666669</ele><time>2026-04-18T13:37:54.001Z</time></trkpt><trkpt lat="45.024946312689934" lon="8.177397611324874"><ele>209.0</ele><time>2026-04-18T13:37:55.001Z</time></trkpt><trkpt lat="45.024884316912946" lon="8.177445419239717"><ele>209.0</ele><time>2026-04-18T13:37:57Z</time></trkpt><trkpt lat="45.024933436998275" lon="8.177579063510963"><ele>209.0</ele><time>2026-04-18T13:37:59Z</time></trkpt><trkpt lat="45.024989297196036" lon="8.177691264130923"><ele>209.0</ele><time>2026-04-18T13:38:00Z</time></trkpt><trkpt lat="45.025052689892696" lon="8.177828101272658"><ele>209.0</ele><time>2026-04-18T13:38:01Z</time></trkpt><trkpt lat="45.02510459328587" lon="8.177939348897285"><ele>209.0</ele><time>2026-04-18T13:38:02Z</time></trkpt><trkpt lat="45.02516514647308" lon="8.178072625939881"><ele>207.39999999999998</ele><time>2026-04-18T13:38:03Z</time></trkpt><trkpt lat="45.02522258932449" lon="8.178204322660475"><ele>205.8</ele><time>2026-04-18T13:38:04Z</time></trkpt><trkpt lat="45.02528180433792" lon="8.178344262307768"><ele>204.2</ele><time>2026-04-18T13:38:05Z</time></trkpt><trkpt lat="45.02533729815331" lon="8.178481252853617"><ele>202.60000000000002</ele><time>2026-04-18T13:38:06Z</time></trkpt><trkpt lat="45.02538628671835" lon="8.178608595953817"><ele>201.0</ele><time>2026-04-18T13:38:07Z</time></trkpt><trkpt lat="45.02543409616848" lon="8.178731374407961"><ele>201.0</ele><time>2026-04-18T13:38:08Z</time></trkpt><trkpt lat="45.0254772480429" lon="8.178849130440126"><ele>201.0</ele><time>2026-04-18T13:38:09Z</time></trkpt><trkpt lat="45.0255198900205" lon="8.178979657110622"><ele>201.0</ele><time>2026-04-18T13:38:10Z</time></trkpt><trkpt lat="45.02556149723942" lon="8.179110761141619"><ele>201.0</ele><time>2026-04-18T13:38:11Z</time></trkpt><trkpt lat="45.02559909119699" lon="8.179245138753513"><ele>201.0</ele><time>2026-04-18T13:38:12Z</time></trkpt><trkpt lat="45.02562414054199" lon="8.179378119393947"><ele>198.4</ele><time>2026-04-18T13:38:13Z</time></trkpt><trkpt lat="45.02564332399657" lon="8.17952065259444"><ele>195.8</ele><time>2026-04-18T13:38:14Z</time></trkpt><trkpt lat="45.02565285037803" lon="8.179659689218905"><ele>193.20000000000002</ele><time>2026-04-18T13:38:15Z</time></trkpt><trkpt lat="45.02565731573482" lon="8.179799242623863"><ele>190.60000000000002</ele><time>2026-04-18T13:38:16Z</time></trkpt><trkpt lat="45.02565526995989" lon="8.179936194924874"><ele>188.0</ele><time>2026-04-18T13:38:17Z</time></trkpt><trkpt lat="45.02566311361687" lon="8.180062629302242"><ele>187.16666666666666</ele><time>2026-04-18T13:38:18Z</time></trkpt><trkpt lat="45.02567655994753" lon="8.180188562342812"><ele>186.33333333333331</ele><time>2026-04-18T13:38:19Z</time></trkpt><trkpt lat="45.02568081268395" lon="8.180301818964528"><ele>185.5</ele><time>2026-04-18T13:38:20Z</time></trkpt><trkpt lat="45.02567949217729" lon="8.180434432760968"><ele>184.66666666666666</ele><time>2026-04-18T13:38:21Z</time></trkpt><trkpt lat="45.02566479293285" lon="8.180564519840859"><ele>183.83333333333334</ele><time>2026-04-18T13:38:22Z</time></trkpt><trkpt lat="45.02564919488958" lon="8.180686454902052"><ele>183.0</ele><time>2026-04-18T13:38:23Z</time></trkpt><trkpt lat="45.02562985161484" lon="8.18081631379902"><ele>183.0</ele><time>2026-04-18T13:38:24Z</time></trkpt><trkpt lat="45.02561770178909" lon="8.180929990263081"><ele>183.0</ele><time>2026-04-18T13:38:25Z</time></trkpt><trkpt lat="45.02561027253193" lon="8.181047964459077"><ele>183.0</ele><time>2026-04-18T13:38:26Z</time></trkpt><trkpt lat="45.025616693596454" lon="8.181172833629857"><ele>183.0</ele><time>2026-04-18T13:38:27Z</time></trkpt><trkpt lat="45.02563791951697" lon="8.181300166474783"><ele>183.0</ele><time>2026-04-18T13:38:28Z</time></trkpt><trkpt lat="45.02565900085878" lon="8.181441393402485"><ele>183.0</ele><time>2026-04-18T13:38:29Z</time></trkpt><trkpt lat="45.025678467016945" lon="8.181579856877573"><ele>183.2</ele><time>2026-04-18T13:38:30Z</time></trkpt><trkpt lat="45.02569863364711" lon="8.181727240456421"><ele>183.4</ele><time>2026-04-18T13:38:31Z</time></trkpt><trkpt lat="45.02572025295164" lon="8.181862618816567"><ele>183.6</ele><time>2026-04-18T13:38:32Z</time></trkpt><trkpt lat="45.02575062234457" lon="8.181994855889748"><ele>183.79999999999998</ele><time>2026-04-18T13:38:33Z</time></trkpt><trkpt lat="45.0257814373095" lon="8.182137624354308"><ele>184.0</ele><time>2026-04-18T13:38:34Z</time></trkpt><trkpt lat="45.02580820771088" lon="8.18227325356258"><ele>185.2</ele><time>2026-04-18T13:38:35Z</time></trkpt><trkpt lat="45.025833283796565" lon="8.18240292321566"><ele>186.39999999999998</ele><time>2026-04-18T13:38:36Z</time></trkpt><trkpt lat="45.02585551554679" lon="8.182532306678688"><ele>187.6</ele><time>2026-04-18T13:38:37Z</time></trkpt><trkpt lat="45.025866549676" lon="8.182662914484803"><ele>188.8</ele><time>2026-04-18T13:38:38Z</time></trkpt><trkpt lat="45.02588313204847" lon="8.182783712808167"><ele>190.0</ele><time>2026-04-18T13:38:39Z</time></trkpt><trkpt lat="45.025898276379685" lon="8.182935362520055"><ele>190.0</ele><time>2026-04-18T13:38:40Z</time></trkpt><trkpt lat="45.025915147764074" lon="8.183092988333366"><ele>190.0</ele><time>2026-04-18T13:38:41Z</time></trkpt><trkpt lat="45.02592482402712" lon="8.183227572864624"><ele>190.0</ele><time>2026-04-18T13:38:42Z</time></trkpt><trkpt lat="45.02592363346242" lon="8.18337385428032"><ele>190.0</ele><time>2026-04-18T13:38:43Z</time></trkpt><trkpt lat="45.025901913233994" lon="8.18353029531297"><ele>190.0</ele><time>2026-04-18T13:38:45Z</time></trkpt><trkpt lat="45.02589088602693" lon="8.183642808524285"><ele>192.5</ele><time>2026-04-18T13:38:46Z</time></trkpt><trkpt lat="45.02587620228558" lon="8.183788813318174"><ele>195.0</ele><time>2026-04-18T13:38:47Z</time></trkpt><trkpt lat="45.02585677788944" lon="8.183948228434888"><ele>197.5</ele><time>2026-04-18T13:38:48Z</time></trkpt><trkpt lat="45.02583522711862" lon="8.18411083521174"><ele>200.0</ele><time>2026-04-18T13:38:49Z</time></trkpt><trkpt lat="45.02581281462849" lon="8.18428565317518"><ele>202.4</ele><time>2026-04-18T13:38:50Z</time></trkpt><trkpt lat="45.02578970616049" lon="8.18446362069823"><ele>204.8</ele><time>2026-04-18T13:38:51Z</time></trkpt><trkpt lat="45.025761786438295" lon="8.184618715181184"><ele>207.2</ele><time>2026-04-18T13:38:52Z</time></trkpt><trkpt lat="45.02573041410566" lon="8.184742619170533"><ele>209.6</ele><time>2026-04-18T13:38:53Z</time></trkpt><trkpt lat="45.02569096046905" lon="8.184891162254617"><ele>212.0</ele><time>2026-04-18T13:38:54Z</time></trkpt><trkpt lat="45.02565375152786" lon="8.184998036489999"><ele>213.66666666666669</ele><time>2026-04-18T13:38:55Z</time></trkpt><trkpt lat="45.025617702153916" lon="8.185102865205232"><ele>215.33333333333334</ele><time>2026-04-18T13:38:56Z</time></trkpt><trkpt lat="45.02557517086897" lon="8.1852044681507"><ele>217.0</ele><time>2026-04-18T13:38:57Z</time></trkpt><trkpt lat="45.02553105917163" lon="8.18528691141446"><ele>218.66666666666669</ele><time>2026-04-18T13:38:58Z</time></trkpt><trkpt lat="45.025467083899755" lon="8.185407100659818"><ele>220.33333333333334</ele><time>2026-04-18T13:39:00Z</time></trkpt><trkpt lat="45.02540920043001" lon="8.185483333580628"><ele>222.0</ele><time>2026-04-18T13:39:03Z</time></trkpt><trkpt lat="45.02531202652077" lon="8.185569297718727"><ele>222.0</ele><time>2026-04-18T13:39:04.999Z</time></trkpt><trkpt lat="45.02524677775493" lon="8.185617176032448"><ele>222.0</ele><time>2026-04-18T13:39:05.999Z</time></trkpt><trkpt lat="45.02519110251848" lon="8.1856831702069"><ele>222.0</ele><time>2026-04-18T13:39:06.999Z</time></trkpt><trkpt lat="45.025129875093874" lon="8.185748822920585"><ele>222.0</ele><time>2026-04-18T13:39:07.999Z</time></trkpt><trkpt lat="45.02507287448848" lon="8.185816638262217"><ele>222.0</ele><time>2026-04-18T13:39:08.999Z</time></trkpt><trkpt lat="45.02502576643911" lon="8.185894452858815"><ele>222.0</ele><time>2026-04-18T13:39:09.999Z</time></trkpt><trkpt lat="45.0249871944104" lon="8.18601746353289"><ele>223.66666666666666</ele><time>2026-04-18T13:39:11.999Z</time></trkpt><trkpt lat="45.02491058686088" lon="8.186055850708133"><ele>225.33333333333331</ele><time>2026-04-18T13:39:12.999Z</time></trkpt><trkpt lat="45.02484499934891" lon="8.186088765560966"><ele>227.0</ele><time>2026-04-18T13:39:14.999Z</time></trkpt><trkpt lat="45.024721887671596" lon="8.186120644202672"><ele>228.66666666666666</ele><time>2026-04-18T13:39:16.999Z</time></trkpt><trkpt lat="45.02463246304573" lon="8.186132284432395"><ele>230.33333333333331</ele><time>2026-04-18T13:39:17.999Z</time></trkpt><trkpt lat="45.02456239900675" lon="8.186139128138025"><ele>232.0</ele><time>2026-04-18T13:39:18.999Z</time></trkpt><trkpt lat="45.024505245274874" lon="8.186092099573122"><ele>232.0</ele><time>2026-04-18T13:39:20.999Z</time></trkpt><trkpt lat="45.02440560337205" lon="8.186056397945908"><ele>232.0</ele><time>2026-04-18T13:39:40.001Z</time></trkpt><trkpt lat="45.02434131444527" lon="8.185993469791978"><ele>232.0</ele><time>2026-04-18T13:39:41.001Z</time></trkpt><trkpt lat="45.02429478174293" lon="8.18587916364736"><ele>232.0</ele><time>2026-04-18T13:39:42.001Z</time></trkpt><trkpt lat="45.0242343862658" lon="8.185759097670557"><ele>232.0</ele><time>2026-04-18T13:39:43.001Z</time></trkpt><trkpt lat="45.02417491199021" lon="8.185614563014516"><ele>229.5</ele><time>2026-04-18T13:39:44.001Z</time></trkpt><trkpt lat="45.024115515650294" lon="8.185433375201532"><ele>227.0</ele><time>2026-04-18T13:39:45.001Z</time></trkpt><trkpt lat="45.02406659800218" lon="8.185248839287498"><ele>224.5</ele><time>2026-04-18T13:39:46.001Z</time></trkpt><trkpt lat="45.02399748791796" lon="8.185073736171372"><ele>222.0</ele><time>2026-04-18T13:39:47.001Z</time></trkpt><trkpt lat="45.02394811288688" lon="8.18490334813806"><ele>221.25</ele><time>2026-04-18T13:39:48.001Z</time></trkpt><trkpt lat="45.023896174522434" lon="8.18474978121294"><ele>220.5</ele><time>2026-04-18T13:39:49.001Z</time></trkpt><trkpt lat="45.02384246091354" lon="8.18460154199006"><ele>219.75</ele><time>2026-04-18T13:39:50.001Z</time></trkpt><trkpt lat="45.023790310024104" lon="8.184454887658331"><ele>219.0</ele><time>2026-04-18T13:39:51.001Z</time></trkpt><trkpt lat="45.02372854128754" lon="8.184317557525222"><ele>219.0</ele><time>2026-04-18T13:39:52.001Z</time></trkpt><trkpt lat="45.02366091459886" lon="8.184186727761134"><ele>219.0</ele><time>2026-04-18T13:39:53.001Z</time></trkpt><trkpt lat="45.02357309623439" lon="8.184052918380655"><ele>219.0</ele><time>2026-04-18T13:39:54.001Z</time></trkpt><trkpt lat="45.023472399174864" lon="8.183901087369076"><ele>219.0</ele><time>2026-04-18T13:39:55.001Z</time></trkpt><trkpt lat="45.023364670088256" lon="8.183752229537006"><ele>217.25</ele><time>2026-04-18T13:39:56.001Z</time></trkpt><trkpt lat="45.0232739375378" lon="8.183631934296873"><ele>215.5</ele><time>2026-04-18T13:39:57.001Z</time></trkpt><trkpt lat="45.0231888843375" lon="8.1835246708067"><ele>213.75</ele><time>2026-04-18T13:39:58.001Z</time></trkpt><trkpt lat="45.023111873528286" lon="8.18341839379119"><ele>212.0</ele><time>2026-04-18T13:39:59.001Z</time></trkpt><trkpt lat="45.023030808178035" lon="8.18332388466478"><ele>212.0</ele><time>2026-04-18T13:40:00.001Z</time></trkpt><trkpt lat="45.02296790584611" lon="8.183220678166638"><ele>212.0</ele><time>2026-04-18T13:40:01.001Z</time></trkpt><trkpt lat="45.022891078886246" lon="8.183155920422708"><ele>212.0</ele><time>2026-04-18T13:40:02.001Z</time></trkpt><trkpt lat="45.02282345748297" lon="8.183083429298897"><ele>212.0</ele><time>2026-04-18T13:40:03.001Z</time></trkpt><trkpt lat="45.02275170333106" lon="8.183020691841088"><ele>212.0</ele><time>2026-04-18T13:40:04.001Z</time></trkpt><trkpt lat="45.02265428067467" lon="8.182948114772048"><ele>211.6</ele><time>2026-04-18T13:40:05.001Z</time></trkpt><trkpt lat="45.02256372149095" lon="8.182897414156079"><ele>211.2</ele><time>2026-04-18T13:40:06Z</time></trkpt><trkpt lat="45.02247097486898" lon="8.18285739182815"><ele>210.8</ele><time>2026-04-18T13:40:07Z</time></trkpt><trkpt lat="45.02238651368985" lon="8.18282534286712"><ele>210.4</ele><time>2026-04-18T13:40:08Z</time></trkpt><trkpt lat="45.02229250888422" lon="8.182789997830216"><ele>210.0</ele><time>2026-04-18T13:40:09Z</time></trkpt><trkpt lat="45.02217161097962" lon="8.182751069954225"><ele>208.75</ele><time>2026-04-18T13:40:10Z</time></trkpt><trkpt lat="45.02204163773676" lon="8.182715619088576"><ele>207.5</ele><time>2026-04-18T13:40:11Z</time></trkpt><trkpt lat="45.02190580185689" lon="8.182664967230489"><ele>206.25</ele><time>2026-04-18T13:40:12Z</time></trkpt><trkpt lat="45.021764181982164" lon="8.182614478004107"><ele>205.0</ele><time>2026-04-18T13:40:13Z</time></trkpt><trkpt lat="45.02162177325473" lon="8.182562225136648"><ele>203.5</ele><time>2026-04-18T13:40:14Z</time></trkpt><trkpt lat="45.021491172502465" lon="8.18251675721616"><ele>202.0</ele><time>2026-04-18T13:40:15Z</time></trkpt><trkpt lat="45.02137301302294" lon="8.182474311060842"><ele>200.5</ele><time>2026-04-18T13:40:16Z</time></trkpt><trkpt lat="45.02127109876336" lon="8.182440508062388"><ele>199.0</ele><time>2026-04-18T13:40:17Z</time></trkpt><trkpt lat="45.02118591423542" lon="8.18240470732616"><ele>198.6</ele><time>2026-04-18T13:40:18Z</time></trkpt><trkpt lat="45.02110566767352" lon="8.182344463713672"><ele>198.2</ele><time>2026-04-18T13:40:19Z</time></trkpt><trkpt lat="45.02101942163665" lon="8.182321494656412"><ele>197.79999999999998</ele><time>2026-04-18T13:40:20Z</time></trkpt><trkpt lat="45.02092817846606" lon="8.182296882715292"><ele>197.39999999999998</ele><time>2026-04-18T13:40:21Z</time></trkpt><trkpt lat="45.02083211441677" lon="8.182270970349899"><ele>197.0</ele><time>2026-04-18T13:40:22Z</time></trkpt><trkpt lat="45.02068748506287" lon="8.182236564448718"><ele>196.5</ele><time>2026-04-18T13:40:23Z</time></trkpt><trkpt lat="45.02053869523012" lon="8.182205596973184"><ele>196.0</ele><time>2026-04-18T13:40:25Z</time></trkpt><trkpt lat="45.0204419275991" lon="8.182186322931525"><ele>195.5</ele><time>2026-04-18T13:40:26Z</time></trkpt><trkpt lat="45.02034010480111" lon="8.18216616791199"><ele>195.0</ele><time>2026-04-18T13:40:27Z</time></trkpt><trkpt lat="45.02023279082402" lon="8.182144925960667"><ele>195.0</ele><time>2026-04-18T13:40:28Z</time></trkpt><trkpt lat="45.020116992102565" lon="8.182122004518453"><ele>195.0</ele><time>2026-04-18T13:40:29Z</time></trkpt><trkpt lat="45.019995538253546" lon="8.182097963693126"><ele>195.0</ele><time>2026-04-18T13:40:30Z</time></trkpt><trkpt lat="45.019875586199205" lon="8.182074220133364"><ele>195.0</ele><time>2026-04-18T13:40:31Z</time></trkpt><trkpt lat="45.01975002079377" lon="8.182049462531806"><ele>194.75</ele><time>2026-04-18T13:40:32Z</time></trkpt><trkpt lat="45.01961802582581" lon="8.182023819330182"><ele>194.5</ele><time>2026-04-18T13:40:33Z</time></trkpt><trkpt lat="45.01948856753844" lon="8.181998668946303"><ele>194.25</ele><time>2026-04-18T13:40:34Z</time></trkpt><trkpt lat="45.0193800719656" lon="8.181977591077134"><ele>194.0</ele><time>2026-04-18T13:40:35Z</time></trkpt><trkpt lat="45.01928106563122" lon="8.181958356712467"><ele>194.0</ele><time>2026-04-18T13:40:36Z</time></trkpt><trkpt lat="45.019177260683605" lon="8.181938018765777"><ele>194.0</ele><time>2026-04-18T13:40:37Z</time></trkpt><trkpt lat="45.01907063573184" lon="8.181915847497855"><ele>194.0</ele><time>2026-04-18T13:40:38Z</time></trkpt><trkpt lat="45.01896021428677" lon="8.1818928868014"><ele>194.0</ele><time>2026-04-18T13:40:39Z</time></trkpt><trkpt lat="45.018861113795026" lon="8.181872280142176"><ele>194.0</ele><time>2026-04-18T13:40:40Z</time></trkpt><trkpt lat="45.01876783007453" lon="8.181853762955495"><ele>193.16666666666669</ele><time>2026-04-18T13:40:41Z</time></trkpt><trkpt lat="45.0186670415088" lon="8.181834446446304"><ele>192.33333333333334</ele><time>2026-04-18T13:40:42Z</time></trkpt><trkpt lat="45.01857296504627" lon="8.181816416330344"><ele>191.5</ele><time>2026-04-18T13:40:43Z</time></trkpt><trkpt lat="45.01850704912181" lon="8.181785955740278"><ele>190.66666666666669</ele><time>2026-04-18T13:40:44Z</time></trkpt><trkpt lat="45.01844589515438" lon="8.181753074908094"><ele>189.83333333333334</ele><time>2026-04-18T13:40:45Z</time></trkpt><trkpt lat="45.01838544534726" lon="8.181715943061"><ele>189.0</ele><time>2026-04-18T13:40:46Z</time></trkpt><trkpt lat="45.0184043885056" lon="8.180789037031213"><ele>189.0</ele><time>2026-04-18T13:40:47Z</time></trkpt><trkpt lat="45.01835663633511" lon="8.180682834470984"><ele>189.0</ele><time>2026-04-18T13:40:48Z</time></trkpt><trkpt lat="45.01831192503451" lon="8.180584803221032"><ele>189.0</ele><time>2026-04-18T13:40:49Z</time></trkpt><trkpt lat="45.01827612359049" lon="8.180502051836084"><ele>189.0</ele><time>2026-04-18T13:40:50Z</time></trkpt><trkpt lat="45.0182363049892" lon="8.180406615582182"><ele>189.0</ele><time>2026-04-18T13:40:51Z</time></trkpt><trkpt lat="45.01819889252686" lon="8.180320368382604"><ele>189.0</ele><time>2026-04-18T13:40:52Z</time></trkpt><trkpt lat="45.0181675603083" lon="8.180214011668532"><ele>188.33333333333334</ele><time>2026-04-18T13:40:53Z</time></trkpt><trkpt lat="45.01813396930393" lon="8.180108526503282"><ele>187.66666666666666</ele><time>2026-04-18T13:40:54Z</time></trkpt><trkpt lat="45.01812148173924" lon="8.179990526835251"><ele>187.0</ele><time>2026-04-18T13:40:55Z</time></trkpt><trkpt lat="45.018116377442226" lon="8.179861050374393"><ele>186.33333333333331</ele><time>2026-04-18T13:40:56Z</time></trkpt><trkpt lat="45.018124002644335" lon="8.179728747889012"><ele>185.66666666666666</ele><time>2026-04-18T13:40:57Z</time></trkpt><trkpt lat="45.0181430891832" lon="8.179616786795044"><ele>185.0</ele><time>2026-04-18T13:40:58Z</time></trkpt><trkpt lat="45.0181630344592" lon="8.179496907206367"><ele>182.8</ele><time>2026-04-18T13:40:59Z</time></trkpt><trkpt lat="45.01817116406826" lon="8.179376756767814"><ele>180.6</ele><time>2026-04-18T13:41:00Z</time></trkpt><trkpt lat="45.01816725944407" lon="8.179283889046543"><ele>178.39999999999998</ele><time>2026-04-18T13:41:01Z</time></trkpt><trkpt lat="45.01810272831038" lon="8.179119335292281"><ele>176.2</ele><time>2026-04-18T13:41:03Z</time></trkpt><trkpt lat="45.0180432115824" lon="8.17903308631952"><ele>174.0</ele><time>2026-04-18T13:41:04Z</time></trkpt><trkpt lat="45.0179822984654" lon="8.178940641433085"><ele>172.33333333333334</ele><time>2026-04-18T13:41:05Z</time></trkpt><trkpt lat="45.01791740482447" lon="8.178843058795822"><ele>170.66666666666666</ele><time>2026-04-18T13:41:06Z</time></trkpt><trkpt lat="45.01784995018403" lon="8.17874589707504"><ele>169.0</ele><time>2026-04-18T13:41:07Z</time></trkpt><trkpt lat="45.0177941495939" lon="8.178658047813263"><ele>167.33333333333331</ele><time>2026-04-18T13:41:08Z</time></trkpt><trkpt lat="45.01773828097824" lon="8.178576393598952"><ele>165.66666666666666</ele><time>2026-04-18T13:41:09Z</time></trkpt><trkpt lat="45.017696537723886" lon="8.178496264418229"><ele>164.0</ele><time>2026-04-18T13:41:10Z</time></trkpt><trkpt lat="45.01766208922612" lon="8.178408206016597"><ele>164.0</ele><time>2026-04-18T13:41:11Z</time></trkpt><trkpt lat="45.01765045085634" lon="8.17828897543846"><ele>164.0</ele><time>2026-04-18T13:41:12Z</time></trkpt><trkpt lat="45.01767160365588" lon="8.178190126837672"><ele>164.0</ele><time>2026-04-18T13:41:13Z</time></trkpt><trkpt lat="45.01771682570468" lon="8.178064186756245"><ele>164.0</ele><time>2026-04-18T13:41:14Z</time></trkpt><trkpt lat="45.01776360641355" lon="8.177914776812093"><ele>164.0</ele><time>2026-04-18T13:41:15Z</time></trkpt><trkpt lat="45.01778529446797" lon="8.177796458857493"><ele>163.79999999999998</ele><time>2026-04-18T13:41:16Z</time></trkpt><trkpt lat="45.0177647080395" lon="8.177697688472938"><ele>163.6</ele><time>2026-04-18T13:41:17Z</time></trkpt><trkpt lat="45.01771161391951" lon="8.177589448373157"><ele>163.4</ele><time>2026-04-18T13:41:18Z</time></trkpt><trkpt lat="45.017627073095305" lon="8.177486589083884"><ele>163.2</ele><time>2026-04-18T13:41:18.999Z</time></trkpt><trkpt lat="45.017515736685056" lon="8.177392844038229"><ele>163.0</ele><time>2026-04-18T13:41:19.999Z</time></trkpt><trkpt lat="45.01742145533955" lon="8.177310010226355"><ele>162.0</ele><time>2026-04-18T13:41:20.999Z</time></trkpt><trkpt lat="45.01734416903755" lon="8.177210955732045"><ele>161.0</ele><time>2026-04-18T13:41:21.999Z</time></trkpt><trkpt lat="45.01726631878648" lon="8.177073900376243"><ele>160.0</ele><time>2026-04-18T13:41:22.999Z</time></trkpt><trkpt lat="45.0171893987727" lon="8.176929219812605"><ele>159.0</ele><time>2026-04-18T13:41:23.999Z</time></trkpt><trkpt lat="45.01710339857698" lon="8.176784486801294"><ele>159.0</ele><time>2026-04-18T13:41:24.999Z</time></trkpt><trkpt lat="45.01698538190932" lon="8.176630277590304"><ele>159.0</ele><time>2026-04-18T13:41:25.999Z</time></trkpt><trkpt lat="45.016845135497114" lon="8.176485036888744"><ele>159.0</ele><time>2026-04-18T13:41:26.999Z</time></trkpt><trkpt lat="45.0167201821504" lon="8.176372813253032"><ele>159.0</ele><time>2026-04-18T13:41:27.999Z</time></trkpt><trkpt lat="45.01662308738197" lon="8.176286845416506"><ele>159.0</ele><time>2026-04-18T13:41:28.999Z</time></trkpt><trkpt lat="45.01653653234916" lon="8.176221185638205"><ele>159.0</ele><time>2026-04-18T13:41:29.999Z</time></trkpt><trkpt lat="45.01645424212103" lon="8.176171215138963"><ele>159.0</ele><time>2026-04-18T13:41:30.999Z</time></trkpt><trkpt lat="45.0163804913289" lon="8.176151831098084"><ele>159.0</ele><time>2026-04-18T13:41:31.999Z</time></trkpt><trkpt lat="45.0162987571505" lon="8.176127834851812"><ele>159.0</ele><time>2026-04-18T13:41:32.999Z</time></trkpt><trkpt lat="45.016215303575144" lon="8.176089278652299"><ele>159.0</ele><time>2026-04-18T13:41:33.999Z</time></trkpt><trkpt lat="45.01612825507949" lon="8.176047352401628"><ele>159.0</ele><time>2026-04-18T13:41:34.999Z</time></trkpt><trkpt lat="45.01604480049352" lon="8.17601180124294"><ele>159.0</ele><time>2026-04-18T13:41:35.999Z</time></trkpt><trkpt lat="45.0159556889936" lon="8.175976810225672"><ele>159.0</ele><time>2026-04-18T13:41:36.999Z</time></trkpt><trkpt lat="45.015871860095935" lon="8.175945908496308"><ele>159.0</ele><time>2026-04-18T13:41:37.999Z</time></trkpt><trkpt lat="45.01578342840466" lon="8.175918344343975"><ele>159.6</ele><time>2026-04-18T13:41:38.999Z</time></trkpt><trkpt lat="45.01569383138219" lon="8.175883016632417"><ele>160.2</ele><time>2026-04-18T13:41:39.999Z</time></trkpt><trkpt lat="45.015601811178016" lon="8.175844772068015"><ele>160.79999999999998</ele><time>2026-04-18T13:41:40.999Z</time></trkpt><trkpt lat="45.01550238237374" lon="8.175809756208404"><ele>161.4</ele><time>2026-04-18T13:41:41.999Z</time></trkpt><trkpt lat="45.015415825725576" lon="8.175778255075201"><ele>162.0</ele><time>2026-04-18T13:41:42.999Z</time></trkpt><trkpt lat="45.01534486974809" lon="8.175755369511483"><ele>162.0</ele><time>2026-04-18T13:41:43.999Z</time></trkpt><trkpt lat="45.01527836128679" lon="8.175688049066387"><ele>162.0</ele><time>2026-04-18T13:41:46.001Z</time></trkpt><trkpt lat="45.01531206208528" lon="8.175559036734818"><ele>162.0</ele><time>2026-04-18T13:41:48.001Z</time></trkpt><trkpt lat="45.01539263714936" lon="8.175403695128077"><ele>162.0</ele><time>2026-04-18T13:41:50.001Z</time></trkpt><trkpt lat="45.01544436320639" lon="8.175293919265389"><ele>162.0</ele><time>2026-04-18T13:41:51.001Z</time></trkpt><trkpt lat="45.01549665766013" lon="8.175171939928099"><ele>161.75</ele><time>2026-04-18T13:41:52.001Z</time></trkpt><trkpt lat="45.01555106530647" lon="8.175042193370412"><ele>161.5</ele><time>2026-04-18T13:41:53.001Z</time></trkpt><trkpt lat="45.015607556839356" lon="8.174896405312271"><ele>161.25</ele><time>2026-04-18T13:41:54.001Z</time></trkpt><trkpt lat="45.01566570029794" lon="8.174744403065976"><ele>161.0</ele><time>2026-04-18T13:41:55.001Z</time></trkpt><trkpt lat="45.01572229679581" lon="8.174585372775224"><ele>161.0</ele><time>2026-04-18T13:41:56.001Z</time></trkpt><trkpt lat="45.01578056456289" lon="8.174407731745077"><ele>161.0</ele><time>2026-04-18T13:41:57.001Z</time></trkpt><trkpt lat="45.015833063773044" lon="8.174238188438348"><ele>161.0</ele><time>2026-04-18T13:41:58.001Z</time></trkpt><trkpt lat="45.01588718223807" lon="8.174079542748034"><ele>161.0</ele><time>2026-04-18T13:41:59.001Z</time></trkpt><trkpt lat="45.01592580654505" lon="8.173941614390674"><ele>163.8</ele><time>2026-04-18T13:42:00.001Z</time></trkpt><trkpt lat="45.01593354539706" lon="8.173821786711645"><ele>166.60000000000002</ele><time>2026-04-18T13:42:01.001Z</time></trkpt><trkpt lat="45.01592690512502" lon="8.173696602750352"><ele>169.4</ele><time>2026-04-18T13:42:02.001Z</time></trkpt><trkpt lat="45.015898534884265" lon="8.17353071311579"><ele>172.2</ele><time>2026-04-18T13:42:03.001Z</time></trkpt><trkpt lat="45.015856156338124" lon="8.17336835932152"><ele>175.0</ele><time>2026-04-18T13:42:04.001Z</time></trkpt><trkpt lat="45.015826854727564" lon="8.173206242098615"><ele>175.0</ele><time>2026-04-18T13:42:05.001Z</time></trkpt><trkpt lat="45.01583894045491" lon="8.17305217457414"><ele>175.0</ele><time>2026-04-18T13:42:06.001Z</time></trkpt><trkpt lat="45.01584979652069" lon="8.172912685685011"><ele>175.0</ele><time>2026-04-18T13:42:07.001Z</time></trkpt><trkpt lat="45.01587992256613" lon="8.17278729480494"><ele>175.0</ele><time>2026-04-18T13:42:08.001Z</time></trkpt><trkpt lat="45.015905678542495" lon="8.1726532796263"><ele>175.0</ele><time>2026-04-18T13:42:09.001Z</time></trkpt><trkpt lat="45.01591914956513" lon="8.172537150977044"><ele>175.0</ele><time>2026-04-18T13:42:10.001Z</time></trkpt><trkpt lat="45.01592218965839" lon="8.172404477499628"><ele>175.0</ele><time>2026-04-18T13:42:11.001Z</time></trkpt><trkpt lat="45.01591339472033" lon="8.172251265661561"><ele>175.0</ele><time>2026-04-18T13:42:12.001Z</time></trkpt><trkpt lat="45.015891764612924" lon="8.172087746179274"><ele>175.0</ele><time>2026-04-18T13:42:13.001Z</time></trkpt><trkpt lat="45.01588462653581" lon="8.171941160263907"><ele>175.0</ele><time>2026-04-18T13:42:14.001Z</time></trkpt><trkpt lat="45.01587833759396" lon="8.171787113504909"><ele>174.0</ele><time>2026-04-18T13:42:15.001Z</time></trkpt><trkpt lat="45.015861752228595" lon="8.171639873654293"><ele>173.0</ele><time>2026-04-18T13:42:16.001Z</time></trkpt><trkpt lat="45.01583393545101" lon="8.171486164732027"><ele>172.0</ele><time>2026-04-18T13:42:17.001Z</time></trkpt><trkpt lat="45.015783724503336" lon="8.171348274328782"><ele>171.0</ele><time>2026-04-18T13:42:18.001Z</time></trkpt><trkpt lat="45.01574909129128" lon="8.171194507892244"><ele>170.0</ele><time>2026-04-18T13:42:19.001Z</time></trkpt><trkpt lat="45.01572353307134" lon="8.171033744663033"><ele>167.6</ele><time>2026-04-18T13:42:20Z</time></trkpt><trkpt lat="45.015705053836555" lon="8.170895421634139"><ele>165.2</ele><time>2026-04-18T13:42:21Z</time></trkpt><trkpt lat="45.01568493872109" lon="8.170762852502602"><ele>162.8</ele><time>2026-04-18T13:42:22Z</time></trkpt><trkpt lat="45.01566448653933" lon="8.170645916086174"><ele>160.4</ele><time>2026-04-18T13:42:23Z</time></trkpt><trkpt lat="45.015637161013366" lon="8.170522402048084"><ele>158.0</ele><time>2026-04-18T13:42:24Z</time></trkpt><trkpt lat="45.015620840854915" lon="8.170409410547935"><ele>157.5</ele><time>2026-04-18T13:42:25Z</time></trkpt><trkpt lat="45.01559883418303" lon="8.17029783647787"><ele>157.0</ele><time>2026-04-18T13:42:26Z</time></trkpt><trkpt lat="45.0155805501738" lon="8.17019188427825"><ele>156.5</ele><time>2026-04-18T13:42:27Z</time></trkpt><trkpt lat="45.015565768634794" lon="8.170088662449073"><ele>156.0</ele><time>2026-04-18T13:42:28Z</time></trkpt><trkpt lat="45.01555225662057" lon="8.169973865137782"><ele>155.5</ele><time>2026-04-18T13:42:29Z</time></trkpt><trkpt lat="45.015543815647725" lon="8.169868596741487"><ele>155.0</ele><time>2026-04-18T13:42:30Z</time></trkpt><trkpt lat="45.01552131045634" lon="8.169742786207218"><ele>154.75</ele><time>2026-04-18T13:42:31Z</time></trkpt><trkpt lat="45.01549170278166" lon="8.169610276297764"><ele>154.5</ele><time>2026-04-18T13:42:32Z</time></trkpt><trkpt lat="45.01545777993787" lon="8.169464373913566"><ele>154.25</ele><time>2026-04-18T13:42:33Z</time></trkpt><trkpt lat="45.0154194397456" lon="8.169288478654504"><ele>154.0</ele><time>2026-04-18T13:42:34Z</time></trkpt><trkpt lat="45.01538456606057" lon="8.169096393757346"><ele>153.75</ele><time>2026-04-18T13:42:35Z</time></trkpt><trkpt lat="45.015342373341895" lon="8.168941022036039"><ele>153.5</ele><time>2026-04-18T13:42:36Z</time></trkpt><trkpt lat="45.015310142858894" lon="8.168782018518135"><ele>153.25</ele><time>2026-04-18T13:42:37Z</time></trkpt><trkpt lat="45.01526386292316" lon="8.168600735940496"><ele>153.0</ele><time>2026-04-18T13:42:38Z</time></trkpt><trkpt lat="45.01521430563106" lon="8.168405215109061"><ele>153.0</ele><time>2026-04-18T13:42:39Z</time></trkpt><trkpt lat="45.015157679641966" lon="8.168193817332755"><ele>153.0</ele><time>2026-04-18T13:42:40Z</time></trkpt><trkpt lat="45.01509685948741" lon="8.16799077586971"><ele>153.0</ele><time>2026-04-18T13:42:41Z</time></trkpt><trkpt lat="45.01504309078459" lon="8.167813803959255"><ele>153.0</ele><time>2026-04-18T13:42:42Z</time></trkpt><trkpt lat="45.01500469252745" lon="8.167649450828124"><ele>153.0</ele><time>2026-04-18T13:42:43Z</time></trkpt><trkpt lat="45.014965916139616" lon="8.167507931738037"><ele>153.0</ele><time>2026-04-18T13:42:44Z</time></trkpt><trkpt lat="45.01493013667852" lon="8.167342565266381"><ele>153.0</ele><time>2026-04-18T13:42:45Z</time></trkpt><trkpt lat="45.014903792172234" lon="8.167150486717095"><ele>153.0</ele><time>2026-04-18T13:42:46Z</time></trkpt><trkpt lat="45.01489338112407" lon="8.166975324086197"><ele>153.0</ele><time>2026-04-18T13:42:47Z</time></trkpt><trkpt lat="45.01488235657244" lon="8.166817347649705"><ele>153.0</ele><time>2026-04-18T13:42:48Z</time></trkpt><trkpt lat="45.014874286337765" lon="8.16667570893298"><ele>153.0</ele><time>2026-04-18T13:42:49Z</time></trkpt><trkpt lat="45.01487062345834" lon="8.16654869755616"><ele>153.0</ele><time>2026-04-18T13:42:50Z</time></trkpt><trkpt lat="45.01487269577234" lon="8.16644388521901"><ele>152.8</ele><time>2026-04-18T13:42:51Z</time></trkpt><trkpt lat="45.01493337787686" lon="8.166325614673106"><ele>152.60000000000002</ele><time>2026-04-18T13:42:53Z</time></trkpt><trkpt lat="45.0149792725112" lon="8.166240905902672"><ele>152.39999999999998</ele><time>2026-04-18T13:42:55Z</time></trkpt><trkpt lat="45.01495847345777" lon="8.166121189120783"><ele>152.2</ele><time>2026-04-18T13:42:57Z</time></trkpt><trkpt lat="45.0148976179474" lon="8.165961153390173"><ele>152.0</ele><time>2026-04-18T13:42:59Z</time></trkpt><trkpt lat="45.01489644540855" lon="8.16584079094203"><ele>152.0</ele><time>2026-04-18T13:43:00Z</time></trkpt><trkpt lat="45.01489215188626" lon="8.165708119820671"><ele>152.0</ele><time>2026-04-18T13:43:01Z</time></trkpt><trkpt lat="45.01486294905998" lon="8.165580517727614"><ele>152.0</ele><time>2026-04-18T13:43:02Z</time></trkpt><trkpt lat="45.01482786905567" lon="8.165448065991855"><ele>152.0</ele><time>2026-04-18T13:43:03Z</time></trkpt><trkpt lat="45.01479625835462" lon="8.165354683026171"><ele>152.0</ele><time>2026-04-18T13:43:03.999Z</time></trkpt><trkpt lat="45.01475802767" lon="8.165225522105933"><ele>151.79999999999998</ele><time>2026-04-18T13:43:05.999Z</time></trkpt><trkpt lat="45.01474598801355" lon="8.165115887663335"><ele>151.6</ele><time>2026-04-18T13:43:08.999Z</time></trkpt><trkpt lat="45.01488579098616" lon="8.165018671323258"><ele>151.39999999999998</ele><time>2026-04-18T13:43:09.999Z</time></trkpt><trkpt lat="45.014960718350345" lon="8.164919937820894"><ele>151.2</ele><time>2026-04-18T13:43:11.999Z</time></trkpt><trkpt lat="45.0150137399053" lon="8.164850113276927"><ele>151.0</ele><time>2026-04-18T13:43:13.999Z</time></trkpt><trkpt lat="45.01507004843742" lon="8.164769957013297"><ele>151.33333333333334</ele><time>2026-04-18T13:43:16.999Z</time></trkpt><trkpt lat="45.015112333112995" lon="8.164701830377428"><ele>151.66666666666669</ele><time>2026-04-18T13:43:19.999Z</time></trkpt><trkpt lat="45.01516930543183" lon="8.164646822774866"><ele>152.0</ele><time>2026-04-18T13:43:23.999Z</time></trkpt><trkpt lat="45.01522171858644" lon="8.164591408696113"><ele>152.33333333333334</ele><time>2026-04-18T13:43:28.998Z</time></trkpt><trkpt lat="45.015286195443814" lon="8.16446926949106"><ele>152.66666666666666</ele><time>2026-04-18T13:43:45.998Z</time></trkpt><trkpt lat="45.01534927876305" lon="8.164386546143414"><ele>153.0</ele><time>2026-04-18T13:43:46.998Z</time></trkpt><trkpt lat="45.01543263749985" lon="8.164278658275345"><ele>153.0</ele><time>2026-04-18T13:43:47.998Z</time></trkpt><trkpt lat="45.01557880601005" lon="8.164092789348246"><ele>153.0</ele><time>2026-04-18T13:43:48.998Z</time></trkpt><trkpt lat="45.01574252263908" lon="8.16388056938989"><ele>153.0</ele><time>2026-04-18T13:43:49.998Z</time></trkpt><trkpt lat="45.015920927364846" lon="8.163655732721862"><ele>153.0</ele><time>2026-04-18T13:43:51Z</time></trkpt><trkpt lat="45.01609271171043" lon="8.163432934133168"><ele>153.0</ele><time>2026-04-18T13:43:52Z</time></trkpt><trkpt lat="45.01623897733882" lon="8.163243156331617"><ele>153.0</ele><time>2026-04-18T13:43:53Z</time></trkpt><trkpt lat="45.01637356136341" lon="8.163061720233399"><ele>153.0</ele><time>2026-04-18T13:43:54Z</time></trkpt><trkpt lat="45.01650678209177" lon="8.162888075717177"><ele>153.0</ele><time>2026-04-18T13:43:55Z</time></trkpt><trkpt lat="45.01664571387162" lon="8.16270525602765"><ele>153.0</ele><time>2026-04-18T13:43:56Z</time></trkpt><trkpt lat="45.01678590516045" lon="8.16252315418212"><ele>153.33333333333334</ele><time>2026-04-18T13:43:57Z</time></trkpt><trkpt lat="45.0169167896781" lon="8.162350576148498"><ele>153.66666666666669</ele><time>2026-04-18T13:43:58Z</time></trkpt><trkpt lat="45.01705257159182" lon="8.162171608469967"><ele>154.0</ele><time>2026-04-18T13:43:59Z</time></trkpt><trkpt lat="45.01719034668046" lon="8.162004560195767"><ele>154.0</ele><time>2026-04-18T13:44:00Z</time></trkpt><trkpt lat="45.017335967723" lon="8.161839917964594"><ele>154.0</ele><time>2026-04-18T13:44:01Z</time></trkpt><trkpt lat="45.017488151571875" lon="8.161686288448234"><ele>154.0</ele><time>2026-04-18T13:44:02Z</time></trkpt><trkpt lat="45.017639192812574" lon="8.16154932779922"><ele>154.33333333333334</ele><time>2026-04-18T13:44:03Z</time></trkpt><trkpt lat="45.01778058414409" lon="8.161425199916945"><ele>154.66666666666666</ele><time>2026-04-18T13:44:04Z</time></trkpt><trkpt lat="45.01790794363551" lon="8.161307310158632"><ele>155.0</ele><time>2026-04-18T13:44:05Z</time></trkpt><trkpt lat="45.018029417842484" lon="8.161198081298004"><ele>155.0</ele><time>2026-04-18T13:44:06Z</time></trkpt><trkpt lat="45.01814086582731" lon="8.161096679840956"><ele>155.0</ele><time>2026-04-18T13:44:07Z</time></trkpt><trkpt lat="45.01824591111835" lon="8.16100015750993"><ele>155.0</ele><time>2026-04-18T13:44:08Z</time></trkpt><trkpt lat="45.018346214383776" lon="8.160909462615523"><ele>155.0</ele><time>2026-04-18T13:44:09Z</time></trkpt><trkpt lat="45.01844940578219" lon="8.160808320545"><ele>156.33333333333331</ele><time>2026-04-18T13:44:10Z</time></trkpt><trkpt lat="45.018567486281796" lon="8.16069484266376"><ele>157.66666666666666</ele><time>2026-04-18T13:44:11Z</time></trkpt><trkpt lat="45.01869821934962" lon="8.16057228275793"><ele>159.0</ele><time>2026-04-18T13:44:12Z</time></trkpt><trkpt lat="45.01883268971125" lon="8.160448565109967"><ele>159.0</ele><time>2026-04-18T13:44:13Z</time></trkpt><trkpt lat="45.01895570015489" lon="8.160340226094162"><ele>159.0</ele><time>2026-04-18T13:44:14Z</time></trkpt><trkpt lat="45.019080193601" lon="8.160233733204032"><ele>159.0</ele><time>2026-04-18T13:44:15Z</time></trkpt><trkpt lat="45.01920315628613" lon="8.160121610409803"><ele>159.0</ele><time>2026-04-18T13:44:16Z</time></trkpt><trkpt lat="45.019333557200625" lon="8.159998527670421"><ele>159.0</ele><time>2026-04-18T13:44:17Z</time></trkpt><trkpt lat="45.0194640755477" lon="8.159873583646023"><ele>159.0</ele><time>2026-04-18T13:44:18Z</time></trkpt><trkpt lat="45.019596138258564" lon="8.159749209772965"><ele>159.0</ele><time>2026-04-18T13:44:19Z</time></trkpt><trkpt lat="45.019736987969225" lon="8.159617236152698"><ele>159.0</ele><time>2026-04-18T13:44:20Z</time></trkpt><trkpt lat="45.019885206997586" lon="8.159482062538498"><ele>159.0</ele><time>2026-04-18T13:44:21Z</time></trkpt><trkpt lat="45.02003667518511" lon="8.159342773247102"><ele>159.0</ele><time>2026-04-18T13:44:22Z</time></trkpt><trkpt lat="45.020189518651755" lon="8.159202367681356"><ele>159.0</ele><time>2026-04-18T13:44:23Z</time></trkpt><trkpt lat="45.02034661644205" lon="8.159058225614233"><ele>159.0</ele><time>2026-04-18T13:44:24Z</time></trkpt><trkpt lat="45.02050859134113" lon="8.158906231882623"><ele>159.0</ele><time>2026-04-18T13:44:25Z</time></trkpt><trkpt lat="45.020662592264614" lon="8.158761387597458"><ele>159.0</ele><time>2026-04-18T13:44:26Z</time></trkpt><trkpt lat="45.02079594486095" lon="8.158635204710318"><ele>159.0</ele><time>2026-04-18T13:44:27Z</time></trkpt><trkpt lat="45.02091703964126" lon="8.158515980295912"><ele>159.0</ele><time>2026-04-18T13:44:28Z</time></trkpt><trkpt lat="45.021023451732184" lon="8.158406730702328"><ele>159.0</ele><time>2026-04-18T13:44:29Z</time></trkpt><trkpt lat="45.021118986143016" lon="8.158302125500052"><ele>159.0</ele><time>2026-04-18T13:44:30Z</time></trkpt><trkpt lat="45.021201083201426" lon="8.158199522579016"><ele>159.0</ele><time>2026-04-18T13:44:31Z</time></trkpt><trkpt lat="45.021280379804864" lon="8.15808716019544"><ele>159.0</ele><time>2026-04-18T13:44:32Z</time></trkpt><trkpt lat="45.02136352105294" lon="8.157961614969667"><ele>159.0</ele><time>2026-04-18T13:44:33Z</time></trkpt><trkpt lat="45.02144526568208" lon="8.157826113454146"><ele>159.0</ele><time>2026-04-18T13:44:34Z</time></trkpt><trkpt lat="45.02152205209355" lon="8.157691566487713"><ele>159.0</ele><time>2026-04-18T13:44:35Z</time></trkpt><trkpt lat="45.02159062396822" lon="8.15757283107247"><ele>159.0</ele><time>2026-04-18T13:44:35.999Z</time></trkpt><trkpt lat="45.02163761378985" lon="8.157464853238835"><ele>159.0</ele><time>2026-04-18T13:44:36.999Z</time></trkpt><trkpt lat="45.021687701669684" lon="8.157337312393766"><ele>159.0</ele><time>2026-04-18T13:44:37.999Z</time></trkpt><trkpt lat="45.02173510830877" lon="8.157229204854488"><ele>159.0</ele><time>2026-04-18T13:44:38.999Z</time></trkpt><trkpt lat="45.02161877362469" lon="8.15717662955852"><ele>159.0</ele><time>2026-04-18T13:44:43.999Z</time></trkpt><trkpt lat="45.0215531591812" lon="8.15724215989908"><ele>159.0</ele><time>2026-04-18T13:44:45.999Z</time></trkpt><trkpt lat="45.02142103093665" lon="8.157302935955633"><ele>159.0</ele><time>2026-04-18T13:44:47.999Z</time></trkpt><trkpt lat="45.021326048365054" lon="8.15735648070375"><ele>159.0</ele><time>2026-04-18T13:44:48.999Z</time></trkpt><trkpt lat="45.02123509264981" lon="8.157400081896919"><ele>159.0</ele><time>2026-04-18T13:44:49.999Z</time></trkpt><trkpt lat="45.021158321402964" lon="8.157463526389023"><ele>159.0</ele><time>2026-04-18T13:44:50.999Z</time></trkpt><trkpt lat="45.02108801615678" lon="8.157535726850918"><ele>159.0</ele><time>2026-04-18T13:44:51.999Z</time></trkpt><trkpt lat="45.02103241956194" lon="8.157601661829885"><ele>159.0</ele><time>2026-04-18T13:44:52.999Z</time></trkpt><trkpt lat="45.02097181697339" lon="8.157656247645383"><ele>159.0</ele><time>2026-04-18T13:44:53.999Z</time></trkpt><trkpt lat="45.02090740914411" lon="8.157688655549538"><ele>159.0</ele><time>2026-04-18T13:44:54.999Z</time></trkpt><trkpt lat="45.02078212878579" lon="8.15766263343586"><ele>159.0</ele><time>2026-04-18T13:44:56.999Z</time></trkpt><trkpt lat="45.02068147260956" lon="8.157586101579083"><ele>159.0</ele><time>2026-04-18T13:44:57.999Z</time></trkpt><trkpt lat="45.020583269000554" lon="8.157509988111014"><ele>159.0</ele><time>2026-04-18T13:44:58.999Z</time></trkpt><trkpt lat="45.02048489119254" lon="8.157438706863566"><ele>159.0</ele><time>2026-04-18T13:44:59.999Z</time></trkpt><trkpt lat="45.020394417807964" lon="8.157377562570783"><ele>159.0</ele><time>2026-04-18T13:45:00.999Z</time></trkpt><trkpt lat="45.02030436178703" lon="8.157316033792195"><ele>159.0</ele><time>2026-04-18T13:45:01.999Z</time></trkpt><trkpt lat="45.020232863935654" lon="8.157262082757505"><ele>159.0</ele><time>2026-04-18T13:45:02.999Z</time></trkpt><trkpt lat="45.0201780580712" lon="8.157191113222005"><ele>159.0</ele><time>2026-04-18T13:45:03.999Z</time></trkpt><trkpt lat="45.02012495975955" lon="8.157113342990082"><ele>159.0</ele><time>2026-04-18T13:45:04.999Z</time></trkpt><trkpt lat="45.0200802872365" lon="8.157013356604633"><ele>159.0</ele><time>2026-04-18T13:45:05.999Z</time></trkpt><trkpt lat="45.0200288770072" lon="8.15689133492382"><ele>159.0</ele><time>2026-04-18T13:45:06.999Z</time></trkpt><trkpt lat="45.01996600700509" lon="8.156749007894181"><ele>160.25</ele><time>2026-04-18T13:45:07.999Z</time></trkpt><trkpt lat="45.01990877102659" lon="8.156607174493876"><ele>161.5</ele><time>2026-04-18T13:45:08.999Z</time></trkpt><trkpt lat="45.019872096240775" lon="8.156465701765743"><ele>162.75</ele><time>2026-04-18T13:45:09.999Z</time></trkpt><trkpt lat="45.01985645797644" lon="8.156295207869578"><ele>164.0</ele><time>2026-04-18T13:45:10.999Z</time></trkpt><trkpt lat="45.01985069685874" lon="8.156087626551102"><ele>164.25</ele><time>2026-04-18T13:45:11.999Z</time></trkpt><trkpt lat="45.01984639546232" lon="8.155906127252438"><ele>164.5</ele><time>2026-04-18T13:45:12.999Z</time></trkpt><trkpt lat="45.01983679663444" lon="8.155742197743898"><ele>164.75</ele><time>2026-04-18T13:45:13.999Z</time></trkpt><trkpt lat="45.019813094918916" lon="8.155557595532228"><ele>165.0</ele><time>2026-04-18T13:45:14.999Z</time></trkpt><trkpt lat="45.01976508081764" lon="8.155357655285087"><ele>165.75</ele><time>2026-04-18T13:45:15.999Z</time></trkpt><trkpt lat="45.01970821356493" lon="8.15511923547181"><ele>166.5</ele><time>2026-04-18T13:45:16.999Z</time></trkpt><trkpt lat="45.01966474194236" lon="8.154915998756799"><ele>167.25</ele><time>2026-04-18T13:45:17.999Z</time></trkpt><trkpt lat="45.019630113586416" lon="8.154761137592178"><ele>168.0</ele><time>2026-04-18T13:45:18.999Z</time></trkpt><trkpt lat="45.01959432653518" lon="8.15460668176943"><ele>169.0</ele><time>2026-04-18T13:45:19.999Z</time></trkpt><trkpt lat="45.0195517702236" lon="8.15444493000489"><ele>170.0</ele><time>2026-04-18T13:45:20.999Z</time></trkpt><trkpt lat="45.01951467459187" lon="8.154305846206302"><ele>171.0</ele><time>2026-04-18T13:45:21.999Z</time></trkpt><trkpt lat="45.01947153426192" lon="8.15416418708309"><ele>172.0</ele><time>2026-04-18T13:45:22.999Z</time></trkpt><trkpt lat="45.01943289819863" lon="8.154051400004308"><ele>173.0</ele><time>2026-04-18T13:45:23.999Z</time></trkpt><trkpt lat="45.019401271551146" lon="8.153954627461728"><ele>173.0</ele><time>2026-04-18T13:45:24.999Z</time></trkpt><trkpt lat="45.01935626729817" lon="8.153853604353387"><ele>173.0</ele><time>2026-04-18T13:45:26.999Z</time></trkpt><trkpt lat="45.01938625459196" lon="8.153755423417083"><ele>173.0</ele><time>2026-04-18T13:45:29.999Z</time></trkpt><trkpt lat="45.01950176255961" lon="8.153654862606652"><ele>173.0</ele><time>2026-04-18T13:45:31.999Z</time></trkpt><trkpt lat="45.01956468002321" lon="8.153606677482681"><ele>173.0</ele><time>2026-04-18T13:45:32.999Z</time></trkpt><trkpt lat="45.01967245766533" lon="8.153494926197597"><ele>173.0</ele><time>2026-04-18T13:45:34.999Z</time></trkpt><trkpt lat="45.01973287450274" lon="8.153440591742214"><ele>173.0</ele><time>2026-04-18T13:45:35.999Z</time></trkpt><trkpt lat="45.019797707593874" lon="8.153386855988344"><ele>173.0</ele><time>2026-04-18T13:45:36.999Z</time></trkpt><trkpt lat="45.0198738833133" lon="8.15334110208659"><ele>173.0</ele><time>2026-04-18T13:45:37.999Z</time></trkpt><trkpt lat="45.01996184883673" lon="8.153286120416649"><ele>173.0</ele><time>2026-04-18T13:45:38.999Z</time></trkpt><trkpt lat="45.02004525177776" lon="8.153230785446636"><ele>173.0</ele><time>2026-04-18T13:45:39.999Z</time></trkpt><trkpt lat="45.020136065119324" lon="8.153175427747144"><ele>173.5</ele><time>2026-04-18T13:45:40.999Z</time></trkpt><trkpt lat="45.02021049438374" lon="8.153121534323196"><ele>174.0</ele><time>2026-04-18T13:45:41.999Z</time></trkpt><trkpt lat="45.02028343956514" lon="8.153050697567508"><ele>174.5</ele><time>2026-04-18T13:45:42.998Z</time></trkpt><trkpt lat="45.02034287722167" lon="8.152975205299153"><ele>175.0</ele><time>2026-04-18T13:45:43.998Z</time></trkpt><trkpt lat="45.02039935372995" lon="8.152904373514367"><ele>175.5</ele><time>2026-04-18T13:45:44.998Z</time></trkpt><trkpt lat="45.02045196544816" lon="8.152826073418135"><ele>176.0</ele><time>2026-04-18T13:45:45.998Z</time></trkpt><trkpt lat="45.02052069081427" lon="8.152716143430201"><ele>176.0</ele><time>2026-04-18T13:45:47.998Z</time></trkpt><trkpt lat="45.0205687049683" lon="8.15264547996202"><ele>176.0</ele><time>2026-04-18T13:45:49.998Z</time></trkpt><trkpt lat="45.02055358746635" lon="8.152527523129608"><ele>176.0</ele><time>2026-04-18T13:45:51.998Z</time></trkpt><trkpt lat="45.02051330390682" lon="8.15243627702547"><ele>176.0</ele><time>2026-04-18T13:45:52.998Z</time></trkpt><trkpt lat="45.02046865055999" lon="8.152364515149104"><ele>176.0</ele><time>2026-04-18T13:45:53.998Z</time></trkpt><trkpt lat="45.020385200394685" lon="8.152278474846817"><ele>176.0</ele><time>2026-04-18T13:45:55.998Z</time></trkpt><trkpt lat="45.020333002814205" lon="8.152211932980643"><ele>177.5</ele><time>2026-04-18T13:45:57Z</time></trkpt><trkpt lat="45.02025152475197" lon="8.152092509528625"><ele>179.0</ele><time>2026-04-18T13:45:59Z</time></trkpt><trkpt lat="45.02020713141812" lon="8.15201969843351"><ele>180.5</ele><time>2026-04-18T13:46:00Z</time></trkpt><trkpt lat="45.02015970499731" lon="8.15194674394227"><ele>182.0</ele><time>2026-04-18T13:46:01Z</time></trkpt><trkpt lat="45.02011570301135" lon="8.151876835417648"><ele>183.5</ele><time>2026-04-18T13:46:02Z</time></trkpt><trkpt lat="45.020059600864926" lon="8.151801058000487"><ele>185.0</ele><time>2026-04-18T13:46:03Z</time></trkpt><trkpt lat="45.02001063259309" lon="8.15172643074252"><ele>184.99999999999997</ele><time>2026-04-18T13:46:04Z</time></trkpt><trkpt lat="45.01997457485906" lon="8.151651467870156"><ele>185.0</ele><time>2026-04-18T13:46:05Z</time></trkpt><trkpt lat="45.0199469765108" lon="8.151568433177347"><ele>185.0</ele><time>2026-04-18T13:46:06Z</time></trkpt><trkpt lat="45.01992927417531" lon="8.15147574434375"><ele>185.0</ele><time>2026-04-18T13:46:07Z</time></trkpt><trkpt lat="45.01995931568163" lon="8.151313945246939"><ele>185.0</ele><time>2026-04-18T13:46:09Z</time></trkpt><trkpt lat="45.01996525068278" lon="8.151216827741905"><ele>184.99999999999997</ele><time>2026-04-18T13:46:10Z</time></trkpt><trkpt lat="45.019956328287826" lon="8.151126891766191"><ele>185.0</ele><time>2026-04-18T13:46:11Z</time></trkpt><trkpt lat="45.0199645868508" lon="8.15102603867594"><ele>185.0</ele><time>2026-04-18T13:46:12Z</time></trkpt><trkpt lat="45.019954199033805" lon="8.150920238420932"><ele>185.0</ele><time>2026-04-18T13:46:13Z</time></trkpt><trkpt lat="45.01992831327358" lon="8.150813368390825"><ele>185.0</ele><time>2026-04-18T13:46:14Z</time></trkpt><trkpt lat="45.01988987479927" lon="8.150727707993498"><ele>185.0</ele><time>2026-04-18T13:46:15Z</time></trkpt><trkpt lat="45.01984257565312" lon="8.150668449444773"><ele>185.0</ele><time>2026-04-18T13:46:16Z</time></trkpt><trkpt lat="45.019777957574476" lon="8.150599929894684"><ele>185.0</ele><time>2026-04-18T13:46:17Z</time></trkpt><trkpt lat="45.019694953912634" lon="8.150539621563977"><ele>185.33333333333331</ele><time>2026-04-18T13:46:18Z</time></trkpt><trkpt lat="45.019623605434866" lon="8.150483993177534"><ele>185.66666666666666</ele><time>2026-04-18T13:46:19Z</time></trkpt><trkpt lat="45.019541322231184" lon="8.150412365399305"><ele>186.0</ele><time>2026-04-18T13:46:20Z</time></trkpt><trkpt lat="45.01946587918206" lon="8.150343854437404"><ele>186.33333333333334</ele><time>2026-04-18T13:46:21Z</time></trkpt><trkpt lat="45.01939385546898" lon="8.150277456652605"><ele>186.66666666666669</ele><time>2026-04-18T13:46:22Z</time></trkpt><trkpt lat="45.01932588524453" lon="8.150205997100349"><ele>187.0</ele><time>2026-04-18T13:46:23Z</time></trkpt><trkpt lat="45.019273200289696" lon="8.150131419637274"><ele>187.0</ele><time>2026-04-18T13:46:24Z</time></trkpt><trkpt lat="45.01921906903402" lon="8.150049337793478"><ele>187.0</ele><time>2026-04-18T13:46:25Z</time></trkpt><trkpt lat="45.019158599607955" lon="8.149929937660902"><ele>187.0</ele><time>2026-04-18T13:46:26Z</time></trkpt><trkpt lat="45.01912235747065" lon="8.149808218279912"><ele>187.0</ele><time>2026-04-18T13:46:27Z</time></trkpt><trkpt lat="45.01909784623246" lon="8.149701299866164"><ele>187.0</ele><time>2026-04-18T13:46:28Z</time></trkpt><trkpt lat="45.01908256620288" lon="8.149573256767882"><ele>187.0</ele><time>2026-04-18T13:46:29Z</time></trkpt><trkpt lat="45.01907252527939" lon="8.149438970167196"><ele>187.2</ele><time>2026-04-18T13:46:30Z</time></trkpt><trkpt lat="45.01907346241905" lon="8.1493286694622"><ele>187.39999999999998</ele><time>2026-04-18T13:46:31Z</time></trkpt><trkpt lat="45.019081351283575" lon="8.149221323109263"><ele>187.60000000000002</ele><time>2026-04-18T13:46:32Z</time></trkpt><trkpt lat="45.01907244705088" lon="8.149085097955238"><ele>187.8</ele><time>2026-04-18T13:46:33Z</time></trkpt><trkpt lat="45.019056743039016" lon="8.148939745771917"><ele>188.0</ele><time>2026-04-18T13:46:34Z</time></trkpt><trkpt lat="45.019029717163" lon="8.148803282192135"><ele>188.75</ele><time>2026-04-18T13:46:35Z</time></trkpt><trkpt lat="45.01898786266783" lon="8.148667293871016"><ele>189.5</ele><time>2026-04-18T13:46:36Z</time></trkpt><trkpt lat="45.01892229023917" lon="8.148476701129661"><ele>190.25</ele><time>2026-04-18T13:46:37Z</time></trkpt><trkpt lat="45.018859394854466" lon="8.148277637236253"><ele>191.0</ele><time>2026-04-18T13:46:38Z</time></trkpt><trkpt lat="45.018812340546276" lon="8.14812124209037"><ele>191.5</ele><time>2026-04-18T13:46:39Z</time></trkpt><trkpt lat="45.018790636081576" lon="8.14798328828214"><ele>192.0</ele><time>2026-04-18T13:46:40Z</time></trkpt><trkpt lat="45.01877816055337" lon="8.147859644697498"><ele>192.5</ele><time>2026-04-18T13:46:41Z</time></trkpt><trkpt lat="45.018766397057604" lon="8.147751565416526"><ele>193.0</ele><time>2026-04-18T13:46:42Z</time></trkpt><trkpt lat="45.01874733120518" lon="8.147656428122492"><ele>193.50000000000003</ele><time>2026-04-18T13:46:43Z</time></trkpt><trkpt lat="45.01865307147344" lon="8.147585363942268"><ele>194.0</ele><time>2026-04-18T13:46:45Z</time></trkpt><trkpt lat="45.01856193090667" lon="8.14756903566308"><ele>194.00000000000003</ele><time>2026-04-18T13:46:45.999Z</time></trkpt><trkpt lat="45.0184781909405" lon="8.147550619864177"><ele>194.0</ele><time>2026-04-18T13:46:46.999Z</time></trkpt><trkpt lat="45.01837923758168" lon="8.147533753277669"><ele>194.0</ele><time>2026-04-18T13:46:47.999Z</time></trkpt><trkpt lat="45.01830580378081" lon="8.147501501216285"><ele>194.0</ele><time>2026-04-18T13:46:48.999Z</time></trkpt><trkpt lat="45.01825601289684" lon="8.14741484742511"><ele>194.00000000000003</ele><time>2026-04-18T13:46:50.999Z</time></trkpt><trkpt lat="45.01828024494473" lon="8.147326683960664"><ele>194.0</ele><time>2026-04-18T13:46:52.999Z</time></trkpt><trkpt lat="45.018312988474555" lon="8.147221295597484"><ele>194.39999999999998</ele><time>2026-04-18T13:46:53.999Z</time></trkpt><trkpt lat="45.01834070785893" lon="8.147113133614642"><ele>194.8</ele><time>2026-04-18T13:46:54.999Z</time></trkpt><trkpt lat="45.0183553934902" lon="8.147009713325856"><ele>195.2</ele><time>2026-04-18T13:46:55.999Z</time></trkpt><trkpt lat="45.01842104890563" lon="8.146845347204088"><ele>195.60000000000002</ele><time>2026-04-18T13:46:56.999Z</time></trkpt><trkpt lat="45.01846021000562" lon="8.146705092008437"><ele>196.0</ele><time>2026-04-18T13:46:57.999Z</time></trkpt><trkpt lat="45.018501809721876" lon="8.146543408742158"><ele>197.0</ele><time>2026-04-18T13:46:58.999Z</time></trkpt><trkpt lat="45.01854739480056" lon="8.146396709346572"><ele>198.0</ele><time>2026-04-18T13:46:59.999Z</time></trkpt><trkpt lat="45.01858387172778" lon="8.146274981870583"><ele>199.0</ele><time>2026-04-18T13:47:00.999Z</time></trkpt><trkpt lat="45.01860477168081" lon="8.1461807623304"><ele>200.0</ele><time>2026-04-18T13:47:01.999Z</time></trkpt><trkpt lat="45.01863221797977" lon="8.146078969997115"><ele>201.0</ele><time>2026-04-18T13:47:03.999Z</time></trkpt><trkpt lat="45.018667249445315" lon="8.145949793371209"><ele>201.0</ele><time>2026-04-18T13:47:06.999Z</time></trkpt><trkpt lat="45.018709056766504" lon="8.14579395546893"><ele>201.0</ele><time>2026-04-18T13:47:08.999Z</time></trkpt><trkpt lat="45.018742882282346" lon="8.145704814670646"><ele>201.0</ele><time>2026-04-18T13:47:09.999Z</time></trkpt><trkpt lat="45.01877507558705" lon="8.145610077802601"><ele>201.0</ele><time>2026-04-18T13:47:10.999Z</time></trkpt><trkpt lat="45.01879707202858" lon="8.145511672535017"><ele>201.0</ele><time>2026-04-18T13:47:11.999Z</time></trkpt><trkpt lat="45.01883172251766" lon="8.145372885692218"><ele>201.0</ele><time>2026-04-18T13:47:12.999Z</time></trkpt><trkpt lat="45.01887066047955" lon="8.145230942324636"><ele>201.8</ele><time>2026-04-18T13:47:13.999Z</time></trkpt><trkpt lat="45.01891000504386" lon="8.145107008897353"><ele>202.60000000000002</ele><time>2026-04-18T13:47:14.999Z</time></trkpt><trkpt lat="45.018948690682656" lon="8.144983965471221"><ele>203.4</ele><time>2026-04-18T13:47:16.999Z</time></trkpt><trkpt lat="45.01897446796841" lon="8.14489309083131"><ele>204.2</ele><time>2026-04-18T13:47:18.999Z</time></trkpt><trkpt lat="45.01901003607625" lon="8.144759362424491"><ele>205.0</ele><time>2026-04-18T13:47:21.999Z</time></trkpt><trkpt lat="45.019047836721626" lon="8.144600745046422"><ele>205.16666666666666</ele><time>2026-04-18T13:47:23.999Z</time></trkpt><trkpt lat="45.01907263892253" lon="8.144518706531636"><ele>205.33333333333331</ele><time>2026-04-18T13:47:24.999Z</time></trkpt><trkpt lat="45.019095710097076" lon="8.144419126723745"><ele>205.5</ele><time>2026-04-18T13:47:25.999Z</time></trkpt><trkpt lat="45.0191128171366" lon="8.14431820673621"><ele>205.66666666666669</ele><time>2026-04-18T13:47:26.999Z</time></trkpt><trkpt lat="45.01912434271625" lon="8.14419826322457"><ele>205.83333333333334</ele><time>2026-04-18T13:47:27.999Z</time></trkpt><trkpt lat="45.01912584156799" lon="8.144081366307539"><ele>206.0</ele><time>2026-04-18T13:47:28.999Z</time></trkpt><trkpt lat="45.019131000779026" lon="8.143943363669194"><ele>206.60000000000002</ele><time>2026-04-18T13:47:29.999Z</time></trkpt><trkpt lat="45.01914490687376" lon="8.14381011130779"><ele>207.2</ele><time>2026-04-18T13:47:30.999Z</time></trkpt><trkpt lat="45.01916357561034" lon="8.143699370544285"><ele>207.8</ele><time>2026-04-18T13:47:31.999Z</time></trkpt><trkpt lat="45.01929038365342" lon="8.14357354672323"><ele>208.39999999999998</ele><time>2026-04-18T13:47:32.999Z</time></trkpt><trkpt lat="45.01929737853231" lon="8.143445938984991"><ele>209.0</ele><time>2026-04-18T13:47:33.999Z</time></trkpt><trkpt lat="45.01932186879698" lon="8.143328572656786"><ele>207.2</ele><time>2026-04-18T13:47:34.999Z</time></trkpt><trkpt lat="45.01938160451535" lon="8.143212637758657"><ele>205.39999999999998</ele><time>2026-04-18T13:47:36.999Z</time></trkpt><trkpt lat="45.01944373203259" lon="8.14308838119883"><ele>203.6</ele><time>2026-04-18T13:47:38.999Z</time></trkpt><trkpt lat="45.01950076891857" lon="8.142969478661799"><ele>201.8</ele><time>2026-04-18T13:47:40.999Z</time></trkpt><trkpt lat="45.019536247345705" lon="8.142867378971646"><ele>200.0</ele><time>2026-04-18T13:47:41.999Z</time></trkpt><trkpt lat="45.01957379689559" lon="8.14275138400873"><ele>200.0</ele><time>2026-04-18T13:47:42.999Z</time></trkpt><trkpt lat="45.01961086309602" lon="8.142637332851864"><ele>200.0</ele><time>2026-04-18T13:47:43.999Z</time></trkpt><trkpt lat="45.01962810416187" lon="8.142505636201667"><ele>200.0</ele><time>2026-04-18T13:47:44.999Z</time></trkpt><trkpt lat="45.019640168468236" lon="8.142352591518229"><ele>200.0</ele><time>2026-04-18T13:47:45.999Z</time></trkpt><trkpt lat="45.01964015936552" lon="8.142203909286545"><ele>200.0</ele><time>2026-04-18T13:47:46.999Z</time></trkpt><trkpt lat="45.019638540916375" lon="8.142073403070047"><ele>201.25</ele><time>2026-04-18T13:47:47.999Z</time></trkpt><trkpt lat="45.01963510415271" lon="8.14192855227914"><ele>202.5</ele><time>2026-04-18T13:47:48.999Z</time></trkpt><trkpt lat="45.019631050772944" lon="8.141757713142017"><ele>203.75</ele><time>2026-04-18T13:47:49.999Z</time></trkpt><trkpt lat="45.01962688529276" lon="8.14158214918506"><ele>205.0</ele><time>2026-04-18T13:47:50.998Z</time></trkpt><trkpt lat="45.019622674087806" lon="8.141404658037615"><ele>206.25</ele><time>2026-04-18T13:47:51.998Z</time></trkpt><trkpt lat="45.01961793369752" lon="8.14122574700611"><ele>207.5</ele><time>2026-04-18T13:47:52.998Z</time></trkpt><trkpt lat="45.01961267599242" lon="8.14104334547674"><ele>208.75</ele><time>2026-04-18T13:47:53.998Z</time></trkpt><trkpt lat="45.019592041301536" lon="8.140868102279558"><ele>210.0</ele><time>2026-04-18T13:47:54.998Z</time></trkpt><trkpt lat="45.019602305600834" lon="8.140716139683754"><ele>210.83333333333334</ele><time>2026-04-18T13:47:55.998Z</time></trkpt><trkpt lat="45.019573233288625" lon="8.140605820743714"><ele>211.66666666666669</ele><time>2026-04-18T13:47:56.998Z</time></trkpt><trkpt lat="45.01957011934139" lon="8.140513831977138"><ele>212.5</ele><time>2026-04-18T13:47:57.998Z</time></trkpt><trkpt lat="45.01952092050483" lon="8.140439564538632"><ele>213.33333333333334</ele><time>2026-04-18T13:47:58.998Z</time></trkpt><trkpt lat="45.01946051311753" lon="8.140363683332318"><ele>214.16666666666669</ele><time>2026-04-18T13:47:59.998Z</time></trkpt><trkpt lat="45.01938559272943" lon="8.140308366098926"><ele>215.0</ele><time>2026-04-18T13:48:00.998Z</time></trkpt><trkpt lat="45.019305417579965" lon="8.140304074289338"><ele>215.00000000000003</ele><time>2026-04-18T13:48:03Z</time></trkpt><trkpt lat="45.01936740654433" lon="8.140217926346596"><ele>215.0</ele><time>2026-04-18T13:48:05Z</time></trkpt><trkpt lat="45.01943736698028" lon="8.140180283541788"><ele>215.0</ele><time>2026-04-18T13:48:06Z</time></trkpt><trkpt lat="45.01951709635937" lon="8.140175994619673"><ele>215.0</ele><time>2026-04-18T13:48:07Z</time></trkpt><trkpt lat="45.01958812844261" lon="8.140163892275083"><ele>215.00000000000003</ele><time>2026-04-18T13:48:08Z</time></trkpt><trkpt lat="45.0197011925081" lon="8.14009087549428"><ele>215.0</ele><time>2026-04-18T13:48:10Z</time></trkpt><trkpt lat="45.01978872700047" lon="8.14005606704788"><ele>215.0</ele><time>2026-04-18T13:48:11Z</time></trkpt><trkpt lat="45.01987918349349" lon="8.140008054596965"><ele>215.0</ele><time>2026-04-18T13:48:12Z</time></trkpt><trkpt lat="45.019967836189096" lon="8.1399628904679"><ele>215.0</ele><time>2026-04-18T13:48:13Z</time></trkpt><trkpt lat="45.02005792316928" lon="8.1399174013078"><ele>215.0</ele><time>2026-04-18T13:48:14Z</time></trkpt><trkpt lat="45.02013686836556" lon="8.139878554277916"><ele>215.0</ele><time>2026-04-18T13:48:15Z</time></trkpt><trkpt lat="45.02021219789629" lon="8.139830455827143"><ele>213.0</ele><time>2026-04-18T13:48:16Z</time></trkpt><trkpt lat="45.020299051788655" lon="8.13976702544257"><ele>211.0</ele><time>2026-04-18T13:48:17Z</time></trkpt><trkpt lat="45.020391559651024" lon="8.13969884779696"><ele>209.0</ele><time>2026-04-18T13:48:18Z</time></trkpt><trkpt lat="45.020510257580256" lon="8.13959169690364"><ele>207.0</ele><time>2026-04-18T13:48:20Z</time></trkpt><trkpt lat="45.02058656950714" lon="8.139527796125671"><ele>205.0</ele><time>2026-04-18T13:48:21Z</time></trkpt><trkpt lat="45.02065222503503" lon="8.139472525864656"><ele>204.99999999999997</ele><time>2026-04-18T13:48:22Z</time></trkpt><trkpt lat="45.020724875043214" lon="8.13941588791155"><ele>205.0</ele><time>2026-04-18T13:48:23Z</time></trkpt><trkpt lat="45.02079509672714" lon="8.139370966934278"><ele>205.0</ele><time>2026-04-18T13:48:24Z</time></trkpt><trkpt lat="45.02086216350471" lon="8.13931288038816"><ele>205.0</ele><time>2026-04-18T13:48:25Z</time></trkpt><trkpt lat="45.020935611204614" lon="8.13924488537151"><ele>204.99999999999997</ele><time>2026-04-18T13:48:26Z</time></trkpt><trkpt lat="45.02100710439591" lon="8.139199121971457"><ele>205.0</ele><time>2026-04-18T13:48:27Z</time></trkpt><trkpt lat="45.021081135724515" lon="8.139135014974993"><ele>203.33333333333331</ele><time>2026-04-18T13:48:28Z</time></trkpt><trkpt lat="45.021149837381564" lon="8.13906987557378"><ele>201.66666666666666</ele><time>2026-04-18T13:48:29Z</time></trkpt><trkpt lat="45.021211455331375" lon="8.138997861840242"><ele>200.0</ele><time>2026-04-18T13:48:30Z</time></trkpt><trkpt lat="45.021265589517995" lon="8.138932848832713"><ele>198.33333333333331</ele><time>2026-04-18T13:48:31Z</time></trkpt><trkpt lat="45.02132840418175" lon="8.13885962175061"><ele>196.66666666666666</ele><time>2026-04-18T13:48:32Z</time></trkpt><trkpt lat="45.02139994915101" lon="8.138777641597677"><ele>195.0</ele><time>2026-04-18T13:48:33Z</time></trkpt><trkpt lat="45.02146560927802" lon="8.138685129534952"><ele>194.5</ele><time>2026-04-18T13:48:34Z</time></trkpt><trkpt lat="45.021519789826854" lon="8.138605856584357"><ele>194.0</ele><time>2026-04-18T13:48:35Z</time></trkpt><trkpt lat="45.02156448848859" lon="8.138520782318334"><ele>193.5</ele><time>2026-04-18T13:48:36Z</time></trkpt><trkpt lat="45.02161715651885" lon="8.13843985083561"><ele>193.0</ele><time>2026-04-18T13:48:37Z</time></trkpt><trkpt lat="45.02166135505155" lon="8.138359171867078"><ele>192.5</ele><time>2026-04-18T13:48:38Z</time></trkpt><trkpt lat="45.02172249821798" lon="8.138249616471182"><ele>192.0</ele><time>2026-04-18T13:48:39Z</time></trkpt><trkpt lat="45.02178198872943" lon="8.138142316381366"><ele>188.83333333333334</ele><time>2026-04-18T13:48:40Z</time></trkpt><trkpt lat="45.02183197697882" lon="8.138049202949524"><ele>185.66666666666666</ele><time>2026-04-18T13:48:41Z</time></trkpt><trkpt lat="45.02187547230309" lon="8.137961735205176"><ele>182.5</ele><time>2026-04-18T13:48:42Z</time></trkpt><trkpt lat="45.02191731387314" lon="8.13787988248748"><ele>179.33333333333331</ele><time>2026-04-18T13:48:43Z</time></trkpt><trkpt lat="45.02197537786321" lon="8.137743368147982"><ele>176.16666666666666</ele><time>2026-04-18T13:48:45Z</time></trkpt><trkpt lat="45.022039200166475" lon="8.137629228426261"><ele>173.0</ele><time>2026-04-18T13:48:47Z</time></trkpt><trkpt lat="45.02209623515015" lon="8.137524324225785"><ele>173.0</ele><time>2026-04-18T13:48:49Z</time></trkpt><trkpt lat="45.02213503750672" lon="8.137448862531482"><ele>173.0</ele><time>2026-04-18T13:48:50Z</time></trkpt><trkpt lat="45.022211876416584" lon="8.137291471799557"><ele>173.0</ele><time>2026-04-18T13:48:52Z</time></trkpt><trkpt lat="45.02224774013847" lon="8.137212708661124"><ele>173.0</ele><time>2026-04-18T13:48:53Z</time></trkpt><trkpt lat="45.0223096008637" lon="8.137072923818186"><ele>173.0</ele><time>2026-04-18T13:48:55Z</time></trkpt><trkpt lat="45.022367945841076" lon="8.136971968623497"><ele>172.7142857142857</ele><time>2026-04-18T13:48:57Z</time></trkpt><trkpt lat="45.02241528856139" lon="8.136888668946733"><ele>172.42857142857144</ele><time>2026-04-18T13:48:58Z</time></trkpt><trkpt lat="45.02246017291258" lon="8.136795071303506"><ele>172.14285714285714</ele><time>2026-04-18T13:48:59Z</time></trkpt><trkpt lat="45.02250779199588" lon="8.136706331611721"><ele>171.85714285714283</ele><time>2026-04-18T13:49:00Z</time></trkpt><trkpt lat="45.02254779304159" lon="8.136617838060209"><ele>171.57142857142856</ele><time>2026-04-18T13:49:01Z</time></trkpt><trkpt lat="45.02258585963964" lon="8.136546264569827"><ele>171.28571428571428</ele><time>2026-04-18T13:49:02Z</time></trkpt><trkpt lat="45.02262547791056" lon="8.136462947037616"><ele>171.0</ele><time>2026-04-18T13:49:03Z</time></trkpt><trkpt lat="45.022669937993946" lon="8.136373602879802"><ele>171.0</ele><time>2026-04-18T13:49:04Z</time></trkpt><trkpt lat="45.022713371757504" lon="8.13630673448852"><ele>171.0</ele><time>2026-04-18T13:49:05Z</time></trkpt><trkpt lat="45.022761723008095" lon="8.13623587538054"><ele>171.0</ele><time>2026-04-18T13:49:06Z</time></trkpt><trkpt lat="45.02281764224221" lon="8.13616163340623"><ele>171.0</ele><time>2026-04-18T13:49:07Z</time></trkpt><trkpt lat="45.022864990396705" lon="8.136083357171788"><ele>171.0</ele><time>2026-04-18T13:49:08Z</time></trkpt><trkpt lat="45.02290665390246" lon="8.135998517155416"><ele>171.0</ele><time>2026-04-18T13:49:08.999Z</time></trkpt><trkpt lat="45.022959481968435" lon="8.135852071107582"><ele>170.60000000000002</ele><time>2026-04-18T13:49:10.999Z</time></trkpt><trkpt lat="45.02301567559203" lon="8.135709618653076"><ele>170.2</ele><time>2026-04-18T13:49:12.999Z</time></trkpt><trkpt lat="45.02310912521623" lon="8.135661899905614"><ele>169.8</ele><time>2026-04-18T13:49:14.999Z</time></trkpt><trkpt lat="45.02323620634642" lon="8.135679105184233"><ele>169.39999999999998</ele><time>2026-04-18T13:49:16.999Z</time></trkpt><trkpt lat="45.023304799709464" lon="8.135674122517242"><ele>169.0</ele><time>2026-04-18T13:49:17.999Z</time></trkpt><trkpt lat="45.0233865221044" lon="8.135671404613559"><ele>168.79999999999998</ele><time>2026-04-18T13:49:18.999Z</time></trkpt><trkpt lat="45.02345952116868" lon="8.13569810746804"><ele>168.6</ele><time>2026-04-18T13:49:19.999Z</time></trkpt><trkpt lat="45.023526533510626" lon="8.135745824515482"><ele>168.4</ele><time>2026-04-18T13:49:20.999Z</time></trkpt><trkpt lat="45.023619365109056" lon="8.135803193189487"><ele>168.2</ele><time>2026-04-18T13:49:21.999Z</time></trkpt><trkpt lat="45.023731056075064" lon="8.135873761275656"><ele>168.0</ele><time>2026-04-18T13:49:22.999Z</time></trkpt><trkpt lat="45.02383545378278" lon="8.135950810219247"><ele>168.0</ele><time>2026-04-18T13:49:23.999Z</time></trkpt><trkpt lat="45.023963670486815" lon="8.136019905956088"><ele>168.0</ele><time>2026-04-18T13:49:24.999Z</time></trkpt><trkpt lat="45.024100417927905" lon="8.136070329405241"><ele>168.0</ele><time>2026-04-18T13:49:25.999Z</time></trkpt><trkpt lat="45.02422601849443" lon="8.136118533969016"><ele>168.0</ele><time>2026-04-18T13:49:26.999Z</time></trkpt><trkpt lat="45.02434111063367" lon="8.136192151693963"><ele>167.33333333333334</ele><time>2026-04-18T13:49:27.999Z</time></trkpt><trkpt lat="45.02450593174848" lon="8.136282720500184"><ele>166.66666666666669</ele><time>2026-04-18T13:49:28.999Z</time></trkpt><trkpt lat="45.02466512197464" lon="8.136367906060213"><ele>166.0</ele><time>2026-04-18T13:49:29.999Z</time></trkpt><trkpt lat="45.02478898741071" lon="8.136433218713638"><ele>166.0</ele><time>2026-04-18T13:49:30.999Z</time></trkpt><trkpt lat="45.024921898957025" lon="8.136497190553992"><ele>166.0</ele><time>2026-04-18T13:49:31.999Z</time></trkpt><trkpt lat="45.02510487943258" lon="8.13658758499226"><ele>166.0</ele><time>2026-04-18T13:49:32.999Z</time></trkpt><trkpt lat="45.0252735048198" lon="8.136660819574368"><ele>165.5</ele><time>2026-04-18T13:49:33.999Z</time></trkpt><trkpt lat="45.02541266246069" lon="8.136725071821644"><ele>165.0</ele><time>2026-04-18T13:49:34.999Z</time></trkpt><trkpt lat="45.02553369181351" lon="8.136781380515012"><ele>164.5</ele><time>2026-04-18T13:49:35.999Z</time></trkpt><trkpt lat="45.02563994882607" lon="8.136830852973235"><ele>164.0</ele><time>2026-04-18T13:49:36.999Z</time></trkpt><trkpt lat="45.02575684765375" lon="8.136888502267935"><ele>164.33333333333331</ele><time>2026-04-18T13:49:37.999Z</time></trkpt><trkpt lat="45.0258467448905" lon="8.136933698591742"><ele>164.66666666666666</ele><time>2026-04-18T13:49:38.999Z</time></trkpt><trkpt lat="45.025915317736" lon="8.136970219862285"><ele>165.0</ele><time>2026-04-18T13:49:39.999Z</time></trkpt><trkpt lat="45.02597750941883" lon="8.136996908561319"><ele>165.33333333333334</ele><time>2026-04-18T13:49:42.999Z</time></trkpt><trkpt lat="45.026048561119886" lon="8.137036542037563"><ele>165.66666666666669</ele><time>2026-04-18T13:49:46.999Z</time></trkpt><trkpt lat="45.02611915907272" lon="8.137071859822488"><ele>166.0</ele><time>2026-04-18T13:49:48.999Z</time></trkpt><trkpt lat="45.02614174490074" lon="8.136895826944192"><ele>166.0</ele><time>2026-04-18T13:50:01.999Z</time></trkpt><trkpt lat="45.02612960515815" lon="8.136785522775714"><ele>166.0</ele><time>2026-04-18T13:50:04.999Z</time></trkpt><trkpt lat="45.02612864581723" lon="8.136602190181435"><ele>166.0</ele><time>2026-04-18T13:50:06.999Z</time></trkpt><trkpt lat="45.026186923859136" lon="8.136420495238024"><ele>166.0</ele><time>2026-04-18T13:50:07.999Z</time></trkpt><trkpt lat="45.02622865007399" lon="8.136180656261262"><ele>165.33333333333334</ele><time>2026-04-18T13:50:08.999Z</time></trkpt><trkpt lat="45.02629934031586" lon="8.13588642805702"><ele>164.66666666666666</ele><time>2026-04-18T13:50:09.999Z</time></trkpt><trkpt lat="45.02637335663923" lon="8.13561699538462"><ele>164.0</ele><time>2026-04-18T13:50:10.999Z</time></trkpt><trkpt lat="45.02643276033029" lon="8.135383935273067"><ele>163.66666666666666</ele><time>2026-04-18T13:50:11.999Z</time></trkpt><trkpt lat="45.026487089193004" lon="8.135175406002107"><ele>163.33333333333334</ele><time>2026-04-18T13:50:12.999Z</time></trkpt><trkpt lat="45.02653732509666" lon="8.134982596656437"><ele>163.0</ele><time>2026-04-18T13:50:13.999Z</time></trkpt><trkpt lat="45.02659231518755" lon="8.134780052873225"><ele>163.5</ele><time>2026-04-18T13:50:14.999Z</time></trkpt><trkpt lat="45.02664679206939" lon="8.13457194957318"><ele>164.0</ele><time>2026-04-18T13:50:15.999Z</time></trkpt><trkpt lat="45.0266979127918" lon="8.134381021042621"><ele>164.5</ele><time>2026-04-18T13:50:16.999Z</time></trkpt><trkpt lat="45.02674605177124" lon="8.13419522639212"><ele>165.0</ele><time>2026-04-18T13:50:17.999Z</time></trkpt><trkpt lat="45.02681021564614" lon="8.134006908560453"><ele>165.0</ele><time>2026-04-18T13:50:18.999Z</time></trkpt><trkpt lat="45.02685940548877" lon="8.133819782871043"><ele>165.0</ele><time>2026-04-18T13:50:19.999Z</time></trkpt><trkpt lat="45.026907111985395" lon="8.133638299663025"><ele>165.0</ele><time>2026-04-18T13:50:20.999Z</time></trkpt><trkpt lat="45.026941221176" lon="8.133442139384103"><ele>165.0</ele><time>2026-04-18T13:50:21.999Z</time></trkpt><trkpt lat="45.02699432709623" lon="8.133245176860177"><ele>165.0</ele><time>2026-04-18T13:50:22.999Z</time></trkpt><trkpt lat="45.02704940610102" lon="8.133040717883668"><ele>165.0</ele><time>2026-04-18T13:50:23.999Z</time></trkpt><trkpt lat="45.027103388043265" lon="8.13282757074377"><ele>165.0</ele><time>2026-04-18T13:50:24.999Z</time></trkpt><trkpt lat="45.0271661812062" lon="8.132587743585907"><ele>165.33333333333334</ele><time>2026-04-18T13:50:25.999Z</time></trkpt><trkpt lat="45.027235241249166" lon="8.132323791253109"><ele>165.66666666666669</ele><time>2026-04-18T13:50:26.999Z</time></trkpt><trkpt lat="45.02730889229292" lon="8.132046452268096"><ele>166.0</ele><time>2026-04-18T13:50:27.999Z</time></trkpt><trkpt lat="45.02737336920544" lon="8.13180845899193"><ele>166.0</ele><time>2026-04-18T13:50:28.999Z</time></trkpt><trkpt lat="45.02743044056265" lon="8.131590666236148"><ele>166.0</ele><time>2026-04-18T13:50:29.999Z</time></trkpt><trkpt lat="45.02748548185247" lon="8.131386014456886"><ele>166.0</ele><time>2026-04-18T13:50:30.999Z</time></trkpt><trkpt lat="45.027542126443834" lon="8.131167308923413"><ele>166.66666666666669</ele><time>2026-04-18T13:50:31.999Z</time></trkpt><trkpt lat="45.02760397586024" lon="8.130936078199717"><ele>167.33333333333334</ele><time>2026-04-18T13:50:32.999Z</time></trkpt><trkpt lat="45.02767105162505" lon="8.130691571390587"><ele>168.0</ele><time>2026-04-18T13:50:33.999Z</time></trkpt><trkpt lat="45.02773382383353" lon="8.130450736092252"><ele>168.0</ele><time>2026-04-18T13:50:34.999Z</time></trkpt><trkpt lat="45.027791862425524" lon="8.130232715829937"><ele>168.0</ele><time>2026-04-18T13:50:35.999Z</time></trkpt><trkpt lat="45.027842547296466" lon="8.130040415424492"><ele>168.0</ele><time>2026-04-18T13:50:36.999Z</time></trkpt><trkpt lat="45.02788601999856" lon="8.129874787435798"><ele>168.0</ele><time>2026-04-18T13:50:37.999Z</time></trkpt><trkpt lat="45.027922486196225" lon="8.129733428268123"><ele>168.0</ele><time>2026-04-18T13:50:38.999Z</time></trkpt><trkpt lat="45.027957624972295" lon="8.129617252519024"><ele>168.0</ele><time>2026-04-18T13:50:39.999Z</time></trkpt><trkpt lat="45.027983690709995" lon="8.129518221257086"><ele>168.0</ele><time>2026-04-18T13:50:41.999Z</time></trkpt><trkpt lat="45.027794037731134" lon="8.129399309247715"><ele>168.0</ele><time>2026-04-18T13:50:42.999Z</time></trkpt><trkpt lat="45.0276487052414" lon="8.129304427967025"><ele>167.66666666666666</ele><time>2026-04-18T13:50:43.999Z</time></trkpt><trkpt lat="45.02747290177629" lon="8.129185352852906"><ele>167.33333333333331</ele><time>2026-04-18T13:50:44.999Z</time></trkpt><trkpt lat="45.02729024060061" lon="8.129055813676228"><ele>167.0</ele><time>2026-04-18T13:50:45.999Z</time></trkpt><trkpt lat="45.02710571388107" lon="8.128922752771725"><ele>167.66666666666666</ele><time>2026-04-18T13:50:46.999Z</time></trkpt><trkpt lat="45.02694465000723" lon="8.128777607911294"><ele>168.33333333333334</ele><time>2026-04-18T13:50:47.999Z</time></trkpt><trkpt lat="45.026793817679355" lon="8.128665385338744"><ele>169.0</ele><time>2026-04-18T13:50:48.999Z</time></trkpt><trkpt lat="45.02665244447957" lon="8.12858478382194"><ele>168.6</ele><time>2026-04-18T13:50:49.999Z</time></trkpt><trkpt lat="45.02653550289856" lon="8.128496617795259"><ele>168.2</ele><time>2026-04-18T13:50:50.999Z</time></trkpt><trkpt lat="45.02646518889451" lon="8.128420877199101"><ele>167.79999999999998</ele><time>2026-04-18T13:50:51.999Z</time></trkpt><trkpt lat="45.02647229955104" lon="8.128318553189857"><ele>167.39999999999998</ele><time>2026-04-18T13:50:55.999Z</time></trkpt><trkpt lat="45.02646367745339" lon="8.128153388994367"><ele>167.0</ele><time>2026-04-18T13:50:57.999Z</time></trkpt><trkpt lat="45.02644222129362" lon="8.128061604122832"><ele>167.0</ele><time>2026-04-18T13:50:58.999Z</time></trkpt><trkpt lat="45.02641394592969" lon="8.127970045929565"><ele>167.0</ele><time>2026-04-18T13:50:59.999Z</time></trkpt><trkpt lat="45.026378399816714" lon="8.127835296473071"><ele>167.0</ele><time>2026-04-18T13:51:00.999Z</time></trkpt><trkpt lat="45.026374124199045" lon="8.127719275956707"><ele>167.0</ele><time>2026-04-18T13:51:01.999Z</time></trkpt><trkpt lat="45.0263839765015" lon="8.127592687971685"><ele>167.0</ele><time>2026-04-18T13:51:02.999Z</time></trkpt><trkpt lat="45.02638128008536" lon="8.127413661392676"><ele>167.2</ele><time>2026-04-18T13:51:03.999Z</time></trkpt><trkpt lat="45.026380577729704" lon="8.12723837460132"><ele>167.39999999999998</ele><time>2026-04-18T13:51:04.999Z</time></trkpt><trkpt lat="45.02639285506217" lon="8.127103586928747"><ele>167.60000000000002</ele><time>2026-04-18T13:51:05.999Z</time></trkpt><trkpt lat="45.02641866237151" lon="8.127004751172146"><ele>167.8</ele><time>2026-04-18T13:51:06.999Z</time></trkpt><trkpt lat="45.02650825429758" lon="8.126880763093862"><ele>168.0</ele><time>2026-04-18T13:51:08.999Z</time></trkpt><trkpt lat="45.02658153975355" lon="8.126849458552153"><ele>167.8</ele><time>2026-04-18T13:51:09.999Z</time></trkpt><trkpt lat="45.0266747772548" lon="8.12685321954515"><ele>167.60000000000002</ele><time>2026-04-18T13:51:10.999Z</time></trkpt><trkpt lat="45.02676883736304" lon="8.126854464079395"><ele>167.39999999999998</ele><time>2026-04-18T13:51:11.999Z</time></trkpt><trkpt lat="45.02683508914993" lon="8.12683684709474"><ele>167.2</ele><time>2026-04-18T13:51:12.999Z</time></trkpt><trkpt lat="45.02690413654436" lon="8.126679087553184"><ele>167.0</ele><time>2026-04-18T13:51:14.999Z</time></trkpt><trkpt lat="45.026946255022395" lon="8.126556698823572"><ele>167.0</ele><time>2026-04-18T13:51:15.999Z</time></trkpt><trkpt lat="45.02699635118765" lon="8.126397923094752"><ele>167.0</ele><time>2026-04-18T13:51:16.999Z</time></trkpt><trkpt lat="45.02704906783506" lon="8.126209973486544"><ele>167.0</ele><time>2026-04-18T13:51:17.999Z</time></trkpt><trkpt lat="45.02711431380435" lon="8.126019554406826"><ele>167.0</ele><time>2026-04-18T13:51:18.999Z</time></trkpt><trkpt lat="45.02718911207096" lon="8.125822971208997"><ele>167.75</ele><time>2026-04-18T13:51:19.999Z</time></trkpt><trkpt lat="45.027262202856946" lon="8.125634762853721"><ele>168.5</ele><time>2026-04-18T13:51:20.999Z</time></trkpt><trkpt lat="45.02733189884765" lon="8.1254438054315"><ele>169.25</ele><time>2026-04-18T13:51:21.999Z</time></trkpt><trkpt lat="45.02739064265635" lon="8.125279712437614"><ele>170.0</ele><time>2026-04-18T13:51:22.999Z</time></trkpt><trkpt lat="45.02743779236987" lon="8.125142986495382"><ele>169.8</ele><time>2026-04-18T13:51:23.999Z</time></trkpt><trkpt lat="45.02747828061727" lon="8.125022835104666"><ele>169.6</ele><time>2026-04-18T13:51:24.999Z</time></trkpt><trkpt lat="45.02751256647231" lon="8.124926113179422"><ele>169.39999999999998</ele><time>2026-04-18T13:51:25.999Z</time></trkpt><trkpt lat="45.02754659268842" lon="8.124819491080645"><ele>169.2</ele><time>2026-04-18T13:51:26.999Z</time></trkpt><trkpt lat="45.02758809587646" lon="8.124696345528157"><ele>169.0</ele><time>2026-04-18T13:51:27.999Z</time></trkpt><trkpt lat="45.02765067803517" lon="8.124554142378953"><ele>169.0</ele><time>2026-04-18T13:51:28.999Z</time></trkpt><trkpt lat="45.02771795916728" lon="8.124396484899385"><ele>169.0</ele><time>2026-04-18T13:51:29.999Z</time></trkpt><trkpt lat="45.027791441431056" lon="8.124228255474641"><ele>169.0</ele><time>2026-04-18T13:51:30.999Z</time></trkpt><trkpt lat="45.02787267548417" lon="8.124054479732605"><ele>169.0</ele><time>2026-04-18T13:51:31.999Z</time></trkpt><trkpt lat="45.027950483333186" lon="8.123891717795146"><ele>169.0</ele><time>2026-04-18T13:51:32.998Z</time></trkpt><trkpt lat="45.02802838814021" lon="8.123722041976091"><ele>169.0</ele><time>2026-04-18T13:51:33.998Z</time></trkpt><trkpt lat="45.02810590246668" lon="8.123539136145073"><ele>169.0</ele><time>2026-04-18T13:51:34.998Z</time></trkpt><trkpt lat="45.02817741319235" lon="8.123361346779237"><ele>169.0</ele><time>2026-04-18T13:51:35.998Z</time></trkpt><trkpt lat="45.02823721692051" lon="8.12321757845073"><ele>169.16666666666669</ele><time>2026-04-18T13:51:36.998Z</time></trkpt><trkpt lat="45.02829046892414" lon="8.123082925418725"><ele>169.33333333333334</ele><time>2026-04-18T13:51:37.998Z</time></trkpt><trkpt lat="45.02833065716136" lon="8.122972780956305"><ele>169.5</ele><time>2026-04-18T13:51:38.998Z</time></trkpt><trkpt lat="45.0283743912173" lon="8.12286790702525"><ele>169.66666666666666</ele><time>2026-04-18T13:51:39.998Z</time></trkpt><trkpt lat="45.02842175760207" lon="8.122752985972442"><ele>169.83333333333331</ele><time>2026-04-18T13:51:40.998Z</time></trkpt><trkpt lat="45.02845208963409" lon="8.122663935626948"><ele>170.0</ele><time>2026-04-18T13:51:41.998Z</time></trkpt><trkpt lat="45.0284898619494" lon="8.12253406897381"><ele>170.0</ele><time>2026-04-18T13:51:43.998Z</time></trkpt><trkpt lat="45.02853567987397" lon="8.122427363826278"><ele>170.0</ele><time>2026-04-18T13:51:45.998Z</time></trkpt><trkpt lat="45.028568518273836" lon="8.122329115368695"><ele>170.0</ele><time>2026-04-18T13:51:47.998Z</time></trkpt><trkpt lat="45.02862420822787" lon="8.1222115725764"><ele>170.0</ele><time>2026-04-18T13:51:49.998Z</time></trkpt><trkpt lat="45.028659221805384" lon="8.122135856825533"><ele>170.0</ele><time>2026-04-18T13:51:50.998Z</time></trkpt><trkpt lat="45.02870513206971" lon="8.12202825275932"><ele>170.0</ele><time>2026-04-18T13:51:51.998Z</time></trkpt><trkpt lat="45.028761661645575" lon="8.121905400029526"><ele>169.8</ele><time>2026-04-18T13:51:52.998Z</time></trkpt><trkpt lat="45.02881311171205" lon="8.121789182575158"><ele>169.6</ele><time>2026-04-18T13:51:53.998Z</time></trkpt><trkpt lat="45.02885561789932" lon="8.12167865651333"><ele>169.39999999999998</ele><time>2026-04-18T13:51:54.998Z</time></trkpt><trkpt lat="45.02889732670617" lon="8.121561338188029"><ele>169.2</ele><time>2026-04-18T13:51:55.998Z</time></trkpt><trkpt lat="45.02894466626726" lon="8.121439062875337"><ele>169.0</ele><time>2026-04-18T13:51:56.998Z</time></trkpt><trkpt lat="45.028991477830544" lon="8.121313250950518"><ele>169.0</ele><time>2026-04-18T13:51:57.998Z</time></trkpt><trkpt lat="45.02903544084372" lon="8.12118225067355"><ele>169.0</ele><time>2026-04-18T13:51:58.998Z</time></trkpt><trkpt lat="45.029080118818946" lon="8.12103878338293"><ele>169.0</ele><time>2026-04-18T13:51:59.998Z</time></trkpt><trkpt lat="45.02912771515033" lon="8.120892478302558"><ele>169.0</ele><time>2026-04-18T13:52:00.998Z</time></trkpt><trkpt lat="45.02917329359124" lon="8.120752065909524"><ele>169.0</ele><time>2026-04-18T13:52:01.998Z</time></trkpt><trkpt lat="45.02921146968971" lon="8.120626599139856"><ele>168.66666666666669</ele><time>2026-04-18T13:52:02.998Z</time></trkpt><trkpt lat="45.029247301832456" lon="8.120498391935287"><ele>168.33333333333334</ele><time>2026-04-18T13:52:03.998Z</time></trkpt><trkpt lat="45.02928454638751" lon="8.120366327848217"><ele>168.0</ele><time>2026-04-18T13:52:04.998Z</time></trkpt><trkpt lat="45.02931398027044" lon="8.120272372845351"><ele>167.66666666666666</ele><time>2026-04-18T13:52:05.998Z</time></trkpt><trkpt lat="45.029344871921964" lon="8.120192706180983"><ele>167.33333333333331</ele><time>2026-04-18T13:52:06.998Z</time></trkpt><trkpt lat="45.02943802823391" lon="8.120142469600449"><ele>167.0</ele><time>2026-04-18T13:52:08.998Z</time></trkpt><trkpt lat="45.029553749925114" lon="8.120284077625415"><ele>167.0</ele><time>2026-04-18T13:52:10.998Z</time></trkpt><trkpt lat="45.029655739281885" lon="8.120399985976178"><ele>167.0</ele><time>2026-04-18T13:52:11.998Z</time></trkpt><trkpt lat="45.029770200902696" lon="8.120506361575993"><ele>167.0</ele><time>2026-04-18T13:52:12.998Z</time></trkpt><trkpt lat="45.02991510151642" lon="8.120632256894144"><ele>167.0</ele><time>2026-04-18T13:52:13.998Z</time></trkpt><trkpt lat="45.03002993500621" lon="8.120729373716602"><ele>167.6</ele><time>2026-04-18T13:52:15Z</time></trkpt><trkpt lat="45.03011681089073" lon="8.120802699614158"><ele>168.2</ele><time>2026-04-18T13:52:16Z</time></trkpt><trkpt lat="45.03018179731395" lon="8.120861807803864"><ele>168.8</ele><time>2026-04-18T13:52:17Z</time></trkpt><trkpt lat="45.03026235837675" lon="8.120971240304465"><ele>169.4</ele><time>2026-04-18T13:52:19Z</time></trkpt><trkpt lat="45.03033831022702" lon="8.121058663823597"><ele>170.0</ele><time>2026-04-18T13:52:20Z</time></trkpt><trkpt lat="45.03043840353583" lon="8.121134541044187"><ele>170.0</ele><time>2026-04-18T13:52:21Z</time></trkpt><trkpt lat="45.03052675567465" lon="8.121174590463745"><ele>170.0</ele><time>2026-04-18T13:52:22Z</time></trkpt><trkpt lat="45.03061223332207" lon="8.121216668572531"><ele>170.0</ele><time>2026-04-18T13:52:23Z</time></trkpt><trkpt lat="45.03070791899678" lon="8.121262099043818"><ele>170.0</ele><time>2026-04-18T13:52:24Z</time></trkpt><trkpt lat="45.03080867800449" lon="8.121311407653025"><ele>170.0</ele><time>2026-04-18T13:52:25Z</time></trkpt><trkpt lat="45.0309102128897" lon="8.121370884243351"><ele>170.2</ele><time>2026-04-18T13:52:26Z</time></trkpt><trkpt lat="45.031005947947406" lon="8.121420876534573"><ele>170.4</ele><time>2026-04-18T13:52:27Z</time></trkpt><trkpt lat="45.0310947247913" lon="8.121470730850602"><ele>170.60000000000002</ele><time>2026-04-18T13:52:28Z</time></trkpt><trkpt lat="45.031178140105915" lon="8.121522949781559"><ele>170.8</ele><time>2026-04-18T13:52:29Z</time></trkpt><trkpt lat="45.03126306074249" lon="8.121577833767386"><ele>171.0</ele><time>2026-04-18T13:52:30Z</time></trkpt><trkpt lat="45.03134761709013" lon="8.121625346426118"><ele>171.0</ele><time>2026-04-18T13:52:31Z</time></trkpt><trkpt lat="45.0314367478868" lon="8.121663993818064"><ele>171.0</ele><time>2026-04-18T13:52:32Z</time></trkpt><trkpt lat="45.031523041167155" lon="8.121695114888233"><ele>171.0</ele><time>2026-04-18T13:52:33Z</time></trkpt><trkpt lat="45.031610035359385" lon="8.121704324240374"><ele>171.0</ele><time>2026-04-18T13:52:34Z</time></trkpt><trkpt lat="45.031681638945635" lon="8.121689014052146"><ele>171.0</ele><time>2026-04-18T13:52:35Z</time></trkpt><trkpt lat="45.03178232223299" lon="8.121661324535625"><ele>171.0</ele><time>2026-04-18T13:52:37Z</time></trkpt><trkpt lat="45.03184880620898" lon="8.121653422453548"><ele>171.5</ele><time>2026-04-18T13:52:40Z</time></trkpt><trkpt lat="45.03183293652919" lon="8.121874715923743"><ele>172.0</ele><time>2026-04-18T13:52:44Z</time></trkpt><trkpt lat="45.031797779573004" lon="8.122039106284163"><ele>172.5</ele><time>2026-04-18T14:00:10.998Z</time></trkpt><trkpt lat="45.03179708751787" lon="8.122165122194435"><ele>173.0</ele><time>2026-04-18T14:00:15.998Z</time></trkpt><trkpt lat="45.03178349587725" lon="8.122291317633676"><ele>173.0</ele><time>2026-04-18T14:00:18.998Z</time></trkpt><trkpt lat="45.0317733427707" lon="8.1223927507097"><ele>173.0</ele><time>2026-04-18T14:00:20.998Z</time></trkpt><trkpt lat="45.031761190485426" lon="8.122495322913059"><ele>173.0</ele><time>2026-04-18T14:00:22.998Z</time></trkpt><trkpt lat="45.03173022193762" lon="8.12260385223386"><ele>173.0</ele><time>2026-04-18T14:00:24.998Z</time></trkpt><trkpt lat="45.03168956486268" lon="8.122741772893656"><ele>173.0</ele><time>2026-04-18T14:00:26.998Z</time></trkpt><trkpt lat="45.03165664962794" lon="8.122858797685913"><ele>173.0</ele><time>2026-04-18T14:00:28.998Z</time></trkpt><trkpt lat="45.03160961616977" lon="8.12297988115182"><ele>172.7142857142857</ele><time>2026-04-18T14:00:30.998Z</time></trkpt><trkpt lat="45.031571962245025" lon="8.123089735386088"><ele>172.42857142857144</ele><time>2026-04-18T14:00:32.998Z</time></trkpt><trkpt lat="45.03154541703092" lon="8.123184211202187"><ele>172.14285714285714</ele><time>2026-04-18T14:00:34.998Z</time></trkpt><trkpt lat="45.03149974125185" lon="8.123289570101763"><ele>171.85714285714283</ele><time>2026-04-18T14:00:36.998Z</time></trkpt><trkpt lat="45.03147693352429" lon="8.123374531553846"><ele>171.57142857142856</ele><time>2026-04-18T14:00:37.999Z</time></trkpt><trkpt lat="45.031450341308556" lon="8.123461363196814"><ele>171.28571428571428</ele><time>2026-04-18T14:00:38.999Z</time></trkpt><trkpt lat="45.03142431540427" lon="8.12355294635745"><ele>171.0</ele><time>2026-04-18T14:00:39.999Z</time></trkpt><trkpt lat="45.0313921962147" lon="8.12364209531624"><ele>171.0</ele><time>2026-04-18T14:00:40.999Z</time></trkpt><trkpt lat="45.03136603938827" lon="8.123732437827718"><ele>171.0</ele><time>2026-04-18T14:00:41.999Z</time></trkpt><trkpt lat="45.031346916588966" lon="8.123874230987012"><ele>171.0</ele><time>2026-04-18T14:00:43.999Z</time></trkpt><trkpt lat="45.031355442745046" lon="8.123989890404275"><ele>171.0</ele><time>2026-04-18T14:00:45.999Z</time></trkpt><trkpt lat="45.03138360010498" lon="8.124112971167802"><ele>171.0</ele><time>2026-04-18T14:00:47.999Z</time></trkpt><trkpt lat="45.031407929644246" lon="8.124203082455036"><ele>171.0</ele><time>2026-04-18T14:00:50.999Z</time></trkpt><trkpt lat="45.031455077530566" lon="8.124338105666112"><ele>171.0</ele><time>2026-04-18T14:01:02.999Z</time></trkpt><trkpt lat="45.031488371390694" lon="8.12443771911588"><ele>171.0</ele><time>2026-04-18T14:01:03.999Z</time></trkpt><trkpt lat="45.03152916852549" lon="8.124544254010205"><ele>171.0</ele><time>2026-04-18T14:01:04.999Z</time></trkpt><trkpt lat="45.03157624377482" lon="8.12464728777561"><ele>171.0</ele><time>2026-04-18T14:01:05.999Z</time></trkpt><trkpt lat="45.03162737005085" lon="8.12474257631045"><ele>171.0</ele><time>2026-04-18T14:01:06.999Z</time></trkpt><trkpt lat="45.03167795957803" lon="8.124822791041577"><ele>171.0</ele><time>2026-04-18T14:01:07.999Z</time></trkpt><trkpt lat="45.031723514613226" lon="8.124885898140759"><ele>170.8</ele><time>2026-04-18T14:01:08.999Z</time></trkpt><trkpt lat="45.03177836337663" lon="8.124952692970531"><ele>170.60000000000002</ele><time>2026-04-18T14:01:09.999Z</time></trkpt><trkpt lat="45.0318928022409" lon="8.124991248286529"><ele>170.4</ele><time>2026-04-18T14:01:11.999Z</time></trkpt><trkpt lat="45.03198270775696" lon="8.125011177662333"><ele>170.2</ele><time>2026-04-18T14:01:12.999Z</time></trkpt><trkpt lat="45.03210218902985" lon="8.125074327728408"><ele>170.0</ele><time>2026-04-18T14:01:13.999Z</time></trkpt><trkpt lat="45.03223741122982" lon="8.125176904460513"><ele>170.0</ele><time>2026-04-18T14:01:14.999Z</time></trkpt><trkpt lat="45.03236027558804" lon="8.125279865803394"><ele>170.0</ele><time>2026-04-18T14:01:15.999Z</time></trkpt><trkpt lat="45.032465809307254" lon="8.125360628254096"><ele>170.0</ele><time>2026-04-18T14:01:16.999Z</time></trkpt><trkpt lat="45.03255922024592" lon="8.125439938722627"><ele>170.0</ele><time>2026-04-18T14:01:17.999Z</time></trkpt><trkpt lat="45.032645604164095" lon="8.125511276935502"><ele>170.0</ele><time>2026-04-18T14:01:18.999Z</time></trkpt><trkpt lat="45.03271000277482" lon="8.12558553099322"><ele>170.0</ele><time>2026-04-18T14:01:19.999Z</time></trkpt><trkpt lat="45.03275489875457" lon="8.125648625158032"><ele>170.0</ele><time>2026-04-18T14:01:20.999Z</time></trkpt><trkpt lat="45.03280714596781" lon="8.125754208575255"><ele>170.0</ele><time>2026-04-18T14:01:22.999Z</time></trkpt><trkpt lat="45.032906881460896" lon="8.125841225250817"><ele>170.0</ele><time>2026-04-18T14:01:24.999Z</time></trkpt><trkpt lat="45.03298013016106" lon="8.125854527280897"><ele>170.0</ele><time>2026-04-18T14:01:25.999Z</time></trkpt><trkpt lat="45.0330606065061" lon="8.125842437845268"><ele>170.0</ele><time>2026-04-18T14:01:26.999Z</time></trkpt><trkpt lat="45.03313897530501" lon="8.125807913745914"><ele>170.0</ele><time>2026-04-18T14:01:27.999Z</time></trkpt><trkpt lat="45.033242363520834" lon="8.125768096973713"><ele>170.0</ele><time>2026-04-18T14:01:28.999Z</time></trkpt><trkpt lat="45.03332515278828" lon="8.12574513472032"><ele>170.0</ele><time>2026-04-18T14:01:29.999Z</time></trkpt><trkpt lat="45.03339456851235" lon="8.125730003349405"><ele>170.0</ele><time>2026-04-18T14:01:30.999Z</time></trkpt><trkpt lat="45.03346867809746" lon="8.125721124292731"><ele>170.0</ele><time>2026-04-18T14:01:31.999Z</time></trkpt><trkpt lat="45.03356696423084" lon="8.125725456582273"><ele>170.8</ele><time>2026-04-18T14:01:32.999Z</time></trkpt><trkpt lat="45.03366800074056" lon="8.125744984992318"><ele>171.6</ele><time>2026-04-18T14:01:33.999Z</time></trkpt><trkpt lat="45.03375077535277" lon="8.125754854401196"><ele>172.39999999999998</ele><time>2026-04-18T14:01:34.999Z</time></trkpt><trkpt lat="45.03382117845465" lon="8.12577253310487"><ele>173.2</ele><time>2026-04-18T14:01:35.999Z</time></trkpt><trkpt lat="45.03391615175377" lon="8.125877021422445"><ele>174.0</ele><time>2026-04-18T14:01:37.999Z</time></trkpt><trkpt lat="45.03395300360171" lon="8.125974233726794"><ele>174.0</ele><time>2026-04-18T14:01:38.999Z</time></trkpt><trkpt lat="45.03399961459463" lon="8.126107767193085"><ele>174.0</ele><time>2026-04-18T14:01:39.999Z</time></trkpt><trkpt lat="45.03405295433301" lon="8.126275236254278"><ele>174.0</ele><time>2026-04-18T14:01:40.999Z</time></trkpt><trkpt lat="45.034102722559886" lon="8.12643177038918"><ele>174.0</ele><time>2026-04-18T14:01:41.999Z</time></trkpt><trkpt lat="45.03414988222997" lon="8.126587316584937"><ele>174.79999999999998</ele><time>2026-04-18T14:01:42.999Z</time></trkpt><trkpt lat="45.03420059094443" lon="8.12670629923608"><ele>175.6</ele><time>2026-04-18T14:01:43.999Z</time></trkpt><trkpt lat="45.0342523335799" lon="8.126833202606237"><ele>176.4</ele><time>2026-04-18T14:01:44.999Z</time></trkpt><trkpt lat="45.0343088496199" lon="8.126912450781814"><ele>177.2</ele><time>2026-04-18T14:01:45.999Z</time></trkpt><trkpt lat="45.03439402377903" lon="8.127016288479549"><ele>178.0</ele><time>2026-04-18T14:01:46.999Z</time></trkpt><trkpt lat="45.03447925896165" lon="8.127138059425507"><ele>178.0</ele><time>2026-04-18T14:01:47.999Z</time></trkpt><trkpt lat="45.03457354414416" lon="8.127256099121004"><ele>178.0</ele><time>2026-04-18T14:01:48.999Z</time></trkpt><trkpt lat="45.034623786879685" lon="8.127339898346708"><ele>178.0</ele><time>2026-04-18T14:01:49.999Z</time></trkpt><trkpt lat="45.034675640758806" lon="8.127462685738294"><ele>178.0</ele><time>2026-04-18T14:01:51.999Z</time></trkpt><trkpt lat="45.034683609231585" lon="8.12760286078536"><ele>178.0</ele><time>2026-04-18T14:01:53.999Z</time></trkpt><trkpt lat="45.034686585982364" lon="8.127703719695862"><ele>178.83333333333334</ele><time>2026-04-18T14:02:02.998Z</time></trkpt><trkpt lat="45.034697820336945" lon="8.127853771849717"><ele>179.66666666666669</ele><time>2026-04-18T14:02:04.998Z</time></trkpt><trkpt lat="45.034722479107565" lon="8.12801417528027"><ele>180.5</ele><time>2026-04-18T14:02:06.998Z</time></trkpt><trkpt lat="45.03477423460333" lon="8.128102896371367"><ele>181.33333333333334</ele><time>2026-04-18T14:02:07.998Z</time></trkpt><trkpt lat="45.0348355392685" lon="8.128158747940052"><ele>182.16666666666666</ele><time>2026-04-18T14:02:08.998Z</time></trkpt><trkpt lat="45.03489841728766" lon="8.128203204320231"><ele>183.0</ele><time>2026-04-18T14:02:09.998Z</time></trkpt><trkpt lat="45.034974285318796" lon="8.128218471050445"><ele>182.60000000000002</ele><time>2026-04-18T14:02:10.998Z</time></trkpt><trkpt lat="45.035047127359654" lon="8.128238518932342"><ele>182.20000000000002</ele><time>2026-04-18T14:02:11.998Z</time></trkpt><trkpt lat="45.03514639100124" lon="8.128320251627827"><ele>181.8</ele><time>2026-04-18T14:02:13.998Z</time></trkpt><trkpt lat="45.03519916822303" lon="8.128382955753306"><ele>181.4</ele><time>2026-04-18T14:02:14.998Z</time></trkpt><trkpt lat="45.03523775998348" lon="8.12847071864314"><ele>181.0</ele><time>2026-04-18T14:02:15.998Z</time></trkpt><trkpt lat="45.03525427292564" lon="8.128638071495153"><ele>181.0</ele><time>2026-04-18T14:02:17.998Z</time></trkpt><trkpt lat="45.035265310199094" lon="8.128756514624207"><ele>181.0</ele><time>2026-04-18T14:02:18.998Z</time></trkpt><trkpt lat="45.03526939651765" lon="8.128863972909995"><ele>181.0</ele><time>2026-04-18T14:02:19.998Z</time></trkpt><trkpt lat="45.03526828487078" lon="8.128977984518349"><ele>181.0</ele><time>2026-04-18T14:02:20.998Z</time></trkpt><trkpt lat="45.03527026076765" lon="8.129075918847814"><ele>181.0</ele><time>2026-04-18T14:02:21.998Z</time></trkpt><trkpt lat="45.0352730886502" lon="8.129183863706192"><ele>181.0</ele><time>2026-04-18T14:02:22.998Z</time></trkpt><trkpt lat="45.035271656045836" lon="8.129342388321191"><ele>179.33333333333334</ele><time>2026-04-18T14:02:24.998Z</time></trkpt><trkpt lat="45.03529609394688" lon="8.129467565827133"><ele>177.66666666666669</ele><time>2026-04-18T14:02:28.998Z</time></trkpt><trkpt lat="45.03531521143448" lon="8.129610618574057"><ele>176.0</ele><time>2026-04-18T14:02:30.998Z</time></trkpt><trkpt lat="45.03533726097586" lon="8.12972142293783"><ele>174.33333333333334</ele><time>2026-04-18T14:02:32.998Z</time></trkpt><trkpt lat="45.03534759844475" lon="8.12980984568421"><ele>172.66666666666666</ele><time>2026-04-18T14:02:36.998Z</time></trkpt><trkpt lat="45.035368564578576" lon="8.129895747876445"><ele>171.0</ele><time>2026-04-18T14:02:39.998Z</time></trkpt><trkpt lat="45.0353990360066" lon="8.129976934955323"><ele>170.66666666666666</ele><time>2026-04-18T14:02:43.998Z</time></trkpt><trkpt lat="45.035459071726606" lon="8.13007375326556"><ele>170.33333333333334</ele><time>2026-04-18T14:02:45.998Z</time></trkpt><trkpt lat="45.03551361660092" lon="8.130159038995117"><ele>170.0</ele><time>2026-04-18T14:02:48.998Z</time></trkpt><trkpt lat="45.03558676751766" lon="8.130271013726997"><ele>169.66666666666669</ele><time>2026-04-18T14:02:51.998Z</time></trkpt><trkpt lat="45.0356340257409" lon="8.130338357381543"><ele>169.33333333333334</ele><time>2026-04-18T14:02:53.998Z</time></trkpt><trkpt lat="45.03568302045311" lon="8.130409997020745"><ele>169.0</ele><time>2026-04-18T14:02:56.999Z</time></trkpt><trkpt lat="45.03574184608017" lon="8.130490466350517"><ele>169.0</ele><time>2026-04-18T14:02:58.999Z</time></trkpt><trkpt lat="45.03579381589845" lon="8.13059323350133"><ele>169.0</ele><time>2026-04-18T14:03:00.999Z</time></trkpt><trkpt lat="45.03586987648708" lon="8.130692227132641"><ele>169.0</ele><time>2026-04-18T14:03:02.999Z</time></trkpt><trkpt lat="45.035955653115344" lon="8.130803961712287"><ele>169.0</ele><time>2026-04-18T14:03:04.999Z</time></trkpt><trkpt lat="45.036006016756396" lon="8.130868534275468"><ele>169.0</ele><time>2026-04-18T14:03:05.999Z</time></trkpt><trkpt lat="45.03609308154611" lon="8.130978754114242"><ele>169.79999999999998</ele><time>2026-04-18T14:03:07.999Z</time></trkpt><trkpt lat="45.036189978495074" lon="8.131044108338513"><ele>170.6</ele><time>2026-04-18T14:03:09.999Z</time></trkpt><trkpt lat="45.036262442547" lon="8.13109444527327"><ele>171.4</ele><time>2026-04-18T14:03:10.999Z</time></trkpt><trkpt lat="45.03634716658712" lon="8.131154461504611"><ele>172.2</ele><time>2026-04-18T14:03:11.999Z</time></trkpt><trkpt lat="45.03644068149319" lon="8.1312525316116"><ele>173.0</ele><time>2026-04-18T14:03:13.999Z</time></trkpt><trkpt lat="45.0365099941565" lon="8.131314197650715"><ele>173.0</ele><time>2026-04-18T14:03:14.999Z</time></trkpt><trkpt lat="45.0366077074601" lon="8.131398355863755"><ele>173.0</ele><time>2026-04-18T14:03:15.999Z</time></trkpt><trkpt lat="45.0366929404078" lon="8.131468147643853"><ele>173.0</ele><time>2026-04-18T14:03:16.999Z</time></trkpt><trkpt lat="45.0367770396506" lon="8.1315486471576"><ele>173.0</ele><time>2026-04-18T14:03:17.999Z</time></trkpt><trkpt lat="45.036867993386686" lon="8.131625654684672"><ele>173.0</ele><time>2026-04-18T14:03:18.999Z</time></trkpt><trkpt lat="45.03694392154497" lon="8.13167814584149"><ele>173.0</ele><time>2026-04-18T14:03:19.999Z</time></trkpt><trkpt lat="45.03703154688255" lon="8.131723243690988"><ele>173.0</ele><time>2026-04-18T14:03:20.999Z</time></trkpt><trkpt lat="45.037116292411326" lon="8.131747004229918"><ele>173.0</ele><time>2026-04-18T14:03:21.999Z</time></trkpt><trkpt lat="45.037207958952074" lon="8.131759482045481"><ele>173.0</ele><time>2026-04-18T14:03:22.999Z</time></trkpt><trkpt lat="45.03731253783602" lon="8.131759362576881"><ele>173.0</ele><time>2026-04-18T14:03:23.999Z</time></trkpt><trkpt lat="45.037445802851096" lon="8.13175714025536"><ele>174.8</ele><time>2026-04-18T14:03:24.999Z</time></trkpt><trkpt lat="45.03755475097293" lon="8.131758540059105"><ele>176.60000000000002</ele><time>2026-04-18T14:03:25.999Z</time></trkpt><trkpt lat="45.03764527816236" lon="8.131732458755229"><ele>178.39999999999998</ele><time>2026-04-18T14:03:26.999Z</time></trkpt><trkpt lat="45.03772294378266" lon="8.131697889250402"><ele>180.2</ele><time>2026-04-18T14:03:27.999Z</time></trkpt><trkpt lat="45.03781377637118" lon="8.131663677329612"><ele>182.0</ele><time>2026-04-18T14:03:28.999Z</time></trkpt><trkpt lat="45.03789981125206" lon="8.131612595491603"><ele>181.39999999999998</ele><time>2026-04-18T14:03:29.999Z</time></trkpt><trkpt lat="45.03800984410608" lon="8.131544617402488"><ele>180.79999999999998</ele><time>2026-04-18T14:03:30.999Z</time></trkpt><trkpt lat="45.038107359970425" lon="8.131500422273346"><ele>180.2</ele><time>2026-04-18T14:03:31.999Z</time></trkpt><trkpt lat="45.038209949438496" lon="8.131457934404171"><ele>179.6</ele><time>2026-04-18T14:03:32.999Z</time></trkpt><trkpt lat="45.03831041500992" lon="8.131425096465215"><ele>179.0</ele><time>2026-04-18T14:03:33.999Z</time></trkpt><trkpt lat="45.03841477738568" lon="8.131399416300754"><ele>180.39999999999998</ele><time>2026-04-18T14:03:34.999Z</time></trkpt><trkpt lat="45.03853367460835" lon="8.13136485007799"><ele>181.8</ele><time>2026-04-18T14:03:35.999Z</time></trkpt><trkpt lat="45.038643738135285" lon="8.131338935257109"><ele>183.2</ele><time>2026-04-18T14:03:36.999Z</time></trkpt><trkpt lat="45.03874495194335" lon="8.13131678248799"><ele>184.60000000000002</ele><time>2026-04-18T14:03:37.999Z</time></trkpt><trkpt lat="45.03884747033741" lon="8.131301050107046"><ele>186.0</ele><time>2026-04-18T14:03:38.999Z</time></trkpt><trkpt lat="45.03894348776052" lon="8.131297466217097"><ele>186.0</ele><time>2026-04-18T14:03:39.999Z</time></trkpt><trkpt lat="45.03904676876733" lon="8.131324319263522"><ele>186.0</ele><time>2026-04-18T14:03:40.999Z</time></trkpt><trkpt lat="45.03916346370165" lon="8.131361051417413"><ele>186.0</ele><time>2026-04-18T14:03:41.999Z</time></trkpt><trkpt lat="45.03925100790198" lon="8.131402159537227"><ele>186.0</ele><time>2026-04-18T14:03:42.999Z</time></trkpt><trkpt lat="45.039333363473624" lon="8.131466566637908"><ele>186.0</ele><time>2026-04-18T14:03:43.999Z</time></trkpt><trkpt lat="45.03944077732909" lon="8.131531855200649"><ele>191.0</ele><time>2026-04-18T14:03:44.999Z</time></trkpt><trkpt lat="45.03958121660266" lon="8.131588012931353"><ele>196.0</ele><time>2026-04-18T14:03:45.999Z</time></trkpt><trkpt lat="45.03973278305643" lon="8.131611559842872"><ele>201.0</ele><time>2026-04-18T14:03:46.999Z</time></trkpt><trkpt lat="45.03991695356457" lon="8.131626241449244"><ele>202.25</ele><time>2026-04-18T14:03:47.999Z</time></trkpt><trkpt lat="45.04006078902383" lon="8.131634448924256"><ele>203.5</ele><time>2026-04-18T14:03:48.999Z</time></trkpt><trkpt lat="45.04019000676642" lon="8.131638043963557"><ele>204.75</ele><time>2026-04-18T14:03:49.999Z</time></trkpt><trkpt lat="45.040313950917835" lon="8.131650780272944"><ele>206.0</ele><time>2026-04-18T14:03:50.999Z</time></trkpt><trkpt lat="45.040460161406706" lon="8.131663917911101"><ele>206.0</ele><time>2026-04-18T14:03:51.999Z</time></trkpt><trkpt lat="45.04060289272831" lon="8.131675673769555"><ele>206.0</ele><time>2026-04-18T14:03:52.999Z</time></trkpt><trkpt lat="45.04072734396645" lon="8.131686111450799"><ele>206.0</ele><time>2026-04-18T14:03:53.999Z</time></trkpt><trkpt lat="45.04083892207859" lon="8.131695982652687"><ele>206.0</ele><time>2026-04-18T14:03:54.999Z</time></trkpt><trkpt lat="45.040936001479665" lon="8.131703138610362"><ele>207.20000000000002</ele><time>2026-04-18T14:03:55.999Z</time></trkpt><trkpt lat="45.041039756039595" lon="8.13170845337219"><ele>208.4</ele><time>2026-04-18T14:03:56.999Z</time></trkpt><trkpt lat="45.04115244459868" lon="8.131715706713395"><ele>209.6</ele><time>2026-04-18T14:03:57.999Z</time></trkpt><trkpt lat="45.04127161332894" lon="8.13172547580122"><ele>210.8</ele><time>2026-04-18T14:03:58.999Z</time></trkpt><trkpt lat="45.041374501075985" lon="8.131739959307698"><ele>212.0</ele><time>2026-04-18T14:03:59.999Z</time></trkpt><trkpt lat="45.04150313350107" lon="8.13176293455472"><ele>214.0</ele><time>2026-04-18T14:04:00.999Z</time></trkpt><trkpt lat="45.04164545648046" lon="8.131796040427856"><ele>216.0</ele><time>2026-04-18T14:04:01.999Z</time></trkpt><trkpt lat="45.041803191003034" lon="8.131818746024987"><ele>218.0</ele><time>2026-04-18T14:04:02.999Z</time></trkpt><trkpt lat="45.0419649963123" lon="8.131847313099218"><ele>218.0</ele><time>2026-04-18T14:04:03.999Z</time></trkpt><trkpt lat="45.042129683923655" lon="8.13190597633087"><ele>218.0</ele><time>2026-04-18T14:04:04.999Z</time></trkpt><trkpt lat="45.04229086569254" lon="8.13199644852059"><ele>218.0</ele><time>2026-04-18T14:04:05.999Z</time></trkpt><trkpt lat="45.042455752538544" lon="8.13204897759321"><ele>219.33333333333334</ele><time>2026-04-18T14:04:06.999Z</time></trkpt><trkpt lat="45.04261193546359" lon="8.132118935240504"><ele>220.66666666666669</ele><time>2026-04-18T14:04:07.999Z</time></trkpt><trkpt lat="45.04276296248727" lon="8.132172075188462"><ele>222.0</ele><time>2026-04-18T14:04:08.999Z</time></trkpt><trkpt lat="45.04292864810402" lon="8.132226700593174"><ele>222.0</ele><time>2026-04-18T14:04:09.999Z</time></trkpt><trkpt lat="45.043120719511144" lon="8.132288376827951"><ele>222.0</ele><time>2026-04-18T14:04:10.999Z</time></trkpt><trkpt lat="45.043305498322326" lon="8.132352131100538"><ele>222.0</ele><time>2026-04-18T14:04:11.999Z</time></trkpt><trkpt lat="45.04347073923517" lon="8.132411628787883"><ele>223.66666666666669</ele><time>2026-04-18T14:04:12.999Z</time></trkpt><trkpt lat="45.04363269551859" lon="8.132464743322837"><ele>225.33333333333334</ele><time>2026-04-18T14:04:13.999Z</time></trkpt><trkpt lat="45.04381496368143" lon="8.132522577813003"><ele>227.0</ele><time>2026-04-18T14:04:14.999Z</time></trkpt><trkpt lat="45.043996252388816" lon="8.132570859208311"><ele>227.66666666666669</ele><time>2026-04-18T14:04:15.999Z</time></trkpt><trkpt lat="45.044170564457445" lon="8.132611418689894"><ele>228.33333333333331</ele><time>2026-04-18T14:04:16.999Z</time></trkpt><trkpt lat="45.04435034057995" lon="8.132652634463167"><ele>229.0</ele><time>2026-04-18T14:04:17.998Z</time></trkpt><trkpt lat="45.04450402287243" lon="8.1326959596753"><ele>229.0</ele><time>2026-04-18T14:04:18.998Z</time></trkpt><trkpt lat="45.04465624498214" lon="8.132743557378571"><ele>229.0</ele><time>2026-04-18T14:04:19.998Z</time></trkpt><trkpt lat="45.04478240022099" lon="8.13283045129425"><ele>229.0</ele><time>2026-04-18T14:04:20.998Z</time></trkpt><trkpt lat="45.044900147002195" lon="8.132891023717251"><ele>229.0</ele><time>2026-04-18T14:04:21.998Z</time></trkpt><trkpt lat="45.045015341342456" lon="8.132950357485557"><ele>231.25</ele><time>2026-04-18T14:04:22.998Z</time></trkpt><trkpt lat="45.04513932348296" lon="8.132993479736536"><ele>233.5</ele><time>2026-04-18T14:04:23.998Z</time></trkpt><trkpt lat="45.04525512237" lon="8.133066989762515"><ele>235.75</ele><time>2026-04-18T14:04:24.998Z</time></trkpt><trkpt lat="45.04538086589448" lon="8.133137309317299"><ele>238.0</ele><time>2026-04-18T14:04:25.998Z</time></trkpt><trkpt lat="45.04548564331366" lon="8.133212211996796"><ele>238.33333333333331</ele><time>2026-04-18T14:04:26.998Z</time></trkpt><trkpt lat="45.045568775891695" lon="8.133295533628845"><ele>238.66666666666666</ele><time>2026-04-18T14:04:27.998Z</time></trkpt><trkpt lat="45.04565272569018" lon="8.133358337471504"><ele>239.0</ele><time>2026-04-18T14:04:28.998Z</time></trkpt><trkpt lat="45.04571886914473" lon="8.133385766284567"><ele>239.33333333333331</ele><time>2026-04-18T14:04:29.997Z</time></trkpt><trkpt lat="45.04577282744274" lon="8.13346784051587"><ele>239.66666666666666</ele><time>2026-04-18T14:04:31.997Z</time></trkpt><trkpt lat="45.04575081193871" lon="8.133565382339476"><ele>240.0</ele><time>2026-04-18T14:04:33.997Z</time></trkpt><trkpt lat="45.04570412158886" lon="8.133668930098372"><ele>240.0</ele><time>2026-04-18T14:05:28.999Z</time></trkpt><trkpt lat="45.04570973520348" lon="8.133829414050323"><ele>240.0</ele><time>2026-04-18T14:05:30.999Z</time></trkpt><trkpt lat="45.045671393066755" lon="8.133912973264962"><ele>240.0</ele><time>2026-04-18T14:05:31.999Z</time></trkpt><trkpt lat="45.0456461877722" lon="8.134006734135928"><ele>240.0</ele><time>2026-04-18T14:05:32.999Z</time></trkpt><trkpt lat="45.04560316752047" lon="8.134172056855787"><ele>240.0</ele><time>2026-04-18T14:05:34.999Z</time></trkpt><trkpt lat="45.04558027415488" lon="8.134299892097312"><ele>240.0</ele><time>2026-04-18T14:05:35.999Z</time></trkpt><trkpt lat="45.04556240030925" lon="8.134448356727953"><ele>240.0</ele><time>2026-04-18T14:05:36.999Z</time></trkpt><trkpt lat="45.04556867215682" lon="8.13457083729164"><ele>240.0</ele><time>2026-04-18T14:05:37.999Z</time></trkpt><trkpt lat="45.0455626149831" lon="8.134675458270541"><ele>240.0</ele><time>2026-04-18T14:05:38.999Z</time></trkpt><trkpt lat="45.04555077407496" lon="8.134789152740614"><ele>240.0</ele><time>2026-04-18T14:05:39.999Z</time></trkpt><trkpt lat="45.04555635682579" lon="8.134888022647283"><ele>240.0</ele><time>2026-04-18T14:05:40.999Z</time></trkpt><trkpt lat="45.04555290084789" lon="8.134983145555962"><ele>240.0</ele><time>2026-04-18T14:05:41.999Z</time></trkpt><trkpt lat="45.045545930117974" lon="8.135078174613527"><ele>240.0</ele><time>2026-04-18T14:05:42.999Z</time></trkpt><trkpt lat="45.04552413968389" lon="8.135193957161405"><ele>240.0</ele><time>2026-04-18T14:05:44.999Z</time></trkpt><trkpt lat="45.04555012872943" lon="8.135395068000003"><ele>240.0</ele><time>2026-04-18T14:05:46.999Z</time></trkpt><trkpt lat="45.04557006948159" lon="8.135516735019339"><ele>240.0</ele><time>2026-04-18T14:05:47.999Z</time></trkpt><trkpt lat="45.04559140851688" lon="8.135636614127698"><ele>240.16666666666666</ele><time>2026-04-18T14:05:48.999Z</time></trkpt><trkpt lat="45.04561490490729" lon="8.135742233790298"><ele>240.33333333333331</ele><time>2026-04-18T14:05:49.999Z</time></trkpt><trkpt lat="45.045634890706545" lon="8.135846498906515"><ele>240.5</ele><time>2026-04-18T14:05:50.999Z</time></trkpt><trkpt lat="45.04563802845876" lon="8.135964229688195"><ele>240.66666666666666</ele><time>2026-04-18T14:05:51.999Z</time></trkpt><trkpt lat="45.045626592565796" lon="8.13609869280586"><ele>240.83333333333331</ele><time>2026-04-18T14:05:52.999Z</time></trkpt><trkpt lat="45.04561058513572" lon="8.136228716520396"><ele>241.0</ele><time>2026-04-18T14:05:53.999Z</time></trkpt><trkpt lat="45.04561857679249" lon="8.136332614647777"><ele>241.0</ele><time>2026-04-18T14:05:54.999Z</time></trkpt><trkpt lat="45.04564255077411" lon="8.13647628449039"><ele>241.00000000000003</ele><time>2026-04-18T14:05:56.999Z</time></trkpt><trkpt lat="45.04565283921658" lon="8.136610675353369"><ele>241.00000000000003</ele><time>2026-04-18T14:06:04.999Z</time></trkpt><trkpt lat="45.045693139807106" lon="8.136711316906041"><ele>241.0</ele><time>2026-04-18T14:06:07.999Z</time></trkpt><trkpt lat="45.045725830485" lon="8.136821613520619"><ele>241.0</ele><time>2026-04-18T14:06:10.999Z</time></trkpt><trkpt lat="45.04576193495924" lon="8.136951797867596"><ele>242.0</ele><time>2026-04-18T14:06:12.998Z</time></trkpt><trkpt lat="45.04578389126976" lon="8.137071177453727"><ele>243.0</ele><time>2026-04-18T14:06:14.998Z</time></trkpt><trkpt lat="45.04611726335087" lon="8.137091140413988"><ele>244.0</ele><time>2026-04-18T14:06:16.998Z</time></trkpt><trkpt lat="45.04618464651542" lon="8.13713914199644"><ele>244.66666666666666</ele><time>2026-04-18T14:06:17.998Z</time></trkpt><trkpt lat="45.04624933774823" lon="8.137194075340739"><ele>245.33333333333331</ele><time>2026-04-18T14:06:18.998Z</time></trkpt><trkpt lat="45.04630915340343" lon="8.137255648388749"><ele>246.0</ele><time>2026-04-18T14:06:19.998Z</time></trkpt><trkpt lat="45.046363884122414" lon="8.137310466648511"><ele>246.66666666666669</ele><time>2026-04-18T14:06:20.998Z</time></trkpt><trkpt lat="45.04643908351266" lon="8.137418666769648"><ele>247.33333333333334</ele><time>2026-04-18T14:06:22.998Z</time></trkpt><trkpt lat="45.04647807849778" lon="8.137496318820387"><ele>248.0</ele><time>2026-04-18T14:06:23.998Z</time></trkpt><trkpt lat="45.04651920218702" lon="8.13760230069905"><ele>248.0</ele><time>2026-04-18T14:06:24.998Z</time></trkpt><trkpt lat="45.04656354327833" lon="8.137718734225984"><ele>248.0</ele><time>2026-04-18T14:06:25.998Z</time></trkpt><trkpt lat="45.04661265307707" lon="8.137833560046133"><ele>248.0</ele><time>2026-04-18T14:06:26.998Z</time></trkpt><trkpt lat="45.04665698001585" lon="8.137932533789066"><ele>248.0</ele><time>2026-04-18T14:06:27.998Z</time></trkpt><trkpt lat="45.04672280550346" lon="8.138038669133618"><ele>248.0</ele><time>2026-04-18T14:06:28.998Z</time></trkpt><trkpt lat="45.04678240999978" lon="8.138141544353878"><ele>245.33333333333334</ele><time>2026-04-18T14:06:29.998Z</time></trkpt><trkpt lat="45.046833916825264" lon="8.138219325606807"><ele>242.66666666666669</ele><time>2026-04-18T14:06:30.998Z</time></trkpt><trkpt lat="45.04690070058154" lon="8.138304338378429"><ele>240.0</ele><time>2026-04-18T14:06:32.998Z</time></trkpt><trkpt lat="45.04696823351464" lon="8.138380378243518"><ele>237.33333333333331</ele><time>2026-04-18T14:06:35.998Z</time></trkpt><trkpt lat="45.04701912657782" lon="8.138460621497234"><ele>234.66666666666666</ele><time>2026-04-18T14:06:38.998Z</time></trkpt><trkpt lat="45.047090636009735" lon="8.138555386052566"><ele>232.0</ele><time>2026-04-18T14:06:41.998Z</time></trkpt><trkpt lat="45.04714330371642" lon="8.138625448884325"><ele>231.99999999999997</ele><time>2026-04-18T14:06:43.998Z</time></trkpt><trkpt lat="45.04719691002191" lon="8.138705360092093"><ele>232.0</ele><time>2026-04-18T14:06:46.998Z</time></trkpt><trkpt lat="45.047255170584116" lon="8.138769696102068"><ele>232.0</ele><time>2026-04-18T14:06:49.998Z</time></trkpt><trkpt lat="45.04730454045633" lon="8.138837915613479"><ele>232.0</ele><time>2026-04-18T14:06:52.998Z</time></trkpt><trkpt lat="45.047358742514454" lon="8.138905401636675"><ele>231.99999999999997</ele><time>2026-04-18T14:06:55.999Z</time></trkpt><trkpt lat="45.047409251455974" lon="8.138980609738537"><ele>232.0</ele><time>2026-04-18T14:06:58.999Z</time></trkpt><trkpt lat="45.04748500193176" lon="8.139074289814733"><ele>228.42857142857147</ele><time>2026-04-18T14:07:01.999Z</time></trkpt><trkpt lat="45.047540377144294" lon="8.139131565482709"><ele>224.85714285714286</ele><time>2026-04-18T14:07:04.999Z</time></trkpt><trkpt lat="45.04759928153848" lon="8.139199092013614"><ele>221.2857142857143</ele><time>2026-04-18T14:07:10.999Z</time></trkpt><trkpt lat="45.04766092420869" lon="8.139242698768907"><ele>217.71428571428572</ele><time>2026-04-18T14:07:12.999Z</time></trkpt><trkpt lat="45.047724754065044" lon="8.139273642781314"><ele>214.14285714285717</ele><time>2026-04-18T14:07:14.999Z</time></trkpt><trkpt lat="45.0477987410702" lon="8.13931636289848"><ele>210.57142857142858</ele><time>2026-04-18T14:07:18.999Z</time></trkpt><trkpt lat="45.04785962989726" lon="8.1393534029876"><ele>207.0</ele><time>2026-04-18T14:07:22Z</time></trkpt><trkpt lat="45.04793321096406" lon="8.139401930248724"><ele>207.00000000000003</ele><time>2026-04-18T14:07:25Z</time></trkpt><trkpt lat="45.04801322752725" lon="8.13944285650942"><ele>207.0</ele><time>2026-04-18T14:07:28Z</time></trkpt><trkpt lat="45.04807480200874" lon="8.139479648770607"><ele>207.0</ele><time>2026-04-18T14:07:30Z</time></trkpt><trkpt lat="45.04813530403362" lon="8.139525051614067"><ele>207.0</ele><time>2026-04-18T14:07:32Z</time></trkpt><trkpt lat="45.048207912283225" lon="8.13957041050587"><ele>207.0</ele><time>2026-04-18T14:07:33.999Z</time></trkpt><trkpt lat="45.04827343952041" lon="8.139609906666905"><ele>207.00000000000003</ele><time>2026-04-18T14:07:35.999Z</time></trkpt><trkpt lat="45.04833552206015" lon="8.139649885605875"><ele>207.0</ele><time>2026-04-18T14:07:37.999Z</time></trkpt><trkpt lat="45.04840488807094" lon="8.139671615549462"><ele>204.39999999999998</ele><time>2026-04-18T14:07:39.999Z</time></trkpt><trkpt lat="45.04849262564874" lon="8.139749629566708"><ele>201.79999999999998</ele><time>2026-04-18T14:07:41.999Z</time></trkpt><trkpt lat="45.04858034272584" lon="8.139836310716584"><ele>199.2</ele><time>2026-04-18T14:07:43.999Z</time></trkpt><trkpt lat="45.04867415238621" lon="8.139903387272788"><ele>196.6</ele><time>2026-04-18T14:07:45.999Z</time></trkpt><trkpt lat="45.048768792391726" lon="8.139980020784433"><ele>194.0</ele><time>2026-04-18T14:07:47.999Z</time></trkpt><trkpt lat="45.04882408017583" lon="8.140027708412898"><ele>193.0</ele><time>2026-04-18T14:07:48.999Z</time></trkpt><trkpt lat="45.04891119441865" lon="8.140099636339391"><ele>192.0</ele><time>2026-04-18T14:07:50.999Z</time></trkpt><trkpt lat="45.048964665292395" lon="8.140160590231725"><ele>191.0</ele><time>2026-04-18T14:07:52.999Z</time></trkpt><trkpt lat="45.04900243937176" lon="8.140250012335255"><ele>190.0</ele><time>2026-04-18T14:08:44.999Z</time></trkpt><trkpt lat="45.04903658107555" lon="8.140396338297235"><ele>189.0</ele><time>2026-04-18T14:08:46.999Z</time></trkpt><trkpt lat="45.04900712846364" lon="8.140584515448205"><ele>189.0</ele><time>2026-04-18T14:08:48.999Z</time></trkpt><trkpt lat="45.0489535928796" lon="8.140702127830684"><ele>189.0</ele><time>2026-04-18T14:08:49.999Z</time></trkpt><trkpt lat="45.048893082654025" lon="8.140778204141913"><ele>189.0</ele><time>2026-04-18T14:08:50.999Z</time></trkpt><trkpt lat="45.04881892545534" lon="8.140838488983128"><ele>189.0</ele><time>2026-04-18T14:08:51.999Z</time></trkpt><trkpt lat="45.04872929521464" lon="8.14090542796411"><ele>189.0</ele><time>2026-04-18T14:08:52.999Z</time></trkpt><trkpt lat="45.04863526920798" lon="8.140971728189065"><ele>187.6</ele><time>2026-04-18T14:08:53.999Z</time></trkpt><trkpt lat="45.048547830487784" lon="8.14103996672321"><ele>186.2</ele><time>2026-04-18T14:08:54.999Z</time></trkpt><trkpt lat="45.04847333114332" lon="8.14110627207751"><ele>184.79999999999998</ele><time>2026-04-18T14:08:55.999Z</time></trkpt><trkpt lat="45.04842510842181" lon="8.141179857411935"><ele>183.39999999999998</ele><time>2026-04-18T14:08:56.999Z</time></trkpt><trkpt lat="45.0483743508192" lon="8.141288830956073"><ele>182.0</ele><time>2026-04-18T14:08:57.999Z</time></trkpt><trkpt lat="45.048330362622124" lon="8.14141893067578"><ele>182.0</ele><time>2026-04-18T14:08:58.999Z</time></trkpt><trkpt lat="45.048297222564905" lon="8.141543208025709"><ele>182.0</ele><time>2026-04-18T14:08:59.999Z</time></trkpt><trkpt lat="45.04826391124932" lon="8.141660573255324"><ele>182.0</ele><time>2026-04-18T14:09:00.999Z</time></trkpt><trkpt lat="45.04823786678291" lon="8.141758200112932"><ele>182.0</ele><time>2026-04-18T14:09:02Z</time></trkpt><trkpt lat="45.04822597780055" lon="8.141846618969783"><ele>182.0</ele><time>2026-04-18T14:09:03Z</time></trkpt><trkpt lat="45.048256284842324" lon="8.142012335213384"><ele>182.0</ele><time>2026-04-18T14:09:05Z</time></trkpt><trkpt lat="45.048283104242266" lon="8.142121862346599"><ele>181.8</ele><time>2026-04-18T14:09:06Z</time></trkpt><trkpt lat="45.04831662556336" lon="8.142248181219975"><ele>181.6</ele><time>2026-04-18T14:09:07Z</time></trkpt><trkpt lat="45.04834950307941" lon="8.142369895608782"><ele>181.4</ele><time>2026-04-18T14:09:08Z</time></trkpt><trkpt lat="45.04836908075384" lon="8.142467273796745"><ele>181.20000000000002</ele><time>2026-04-18T14:09:09Z</time></trkpt><trkpt lat="45.04838723555914" lon="8.14255802074399"><ele>181.0</ele><time>2026-04-18T14:09:10Z</time></trkpt><trkpt lat="45.04844422358663" lon="8.14271533181832"><ele>181.0</ele><time>2026-04-18T14:09:12Z</time></trkpt><trkpt lat="45.048478193170524" lon="8.14279441199412"><ele>181.0</ele><time>2026-04-18T14:09:13Z</time></trkpt><trkpt lat="45.048529518958325" lon="8.142896457546392"><ele>181.0</ele><time>2026-04-18T14:09:15Z</time></trkpt><trkpt lat="45.048563676000555" lon="8.14297383035998"><ele>181.0</ele><time>2026-04-18T14:09:16Z</time></trkpt><trkpt lat="45.048599315051504" lon="8.143075673594426"><ele>181.0</ele><time>2026-04-18T14:09:18Z</time></trkpt><trkpt lat="45.04863113053404" lon="8.143192506650369"><ele>181.0</ele><time>2026-04-18T14:09:20Z</time></trkpt><trkpt lat="45.04865388287414" lon="8.14328715388136"><ele>180.8</ele><time>2026-04-18T14:09:21Z</time></trkpt><trkpt lat="45.0486890390194" lon="8.14341985613214"><ele>180.60000000000002</ele><time>2026-04-18T14:09:23Z</time></trkpt><trkpt lat="45.04877040708584" lon="8.143461157130588"><ele>180.4</ele><time>2026-04-18T14:09:26Z</time></trkpt><trkpt lat="45.0489032234917" lon="8.14346734456472"><ele>180.2</ele><time>2026-04-18T14:09:28Z</time></trkpt><trkpt lat="45.04898385072117" lon="8.143454875539325"><ele>180.0</ele><time>2026-04-18T14:09:29Z</time></trkpt><trkpt lat="45.04906731844876" lon="8.143437770680583"><ele>179.85714285714286</ele><time>2026-04-18T14:09:30Z</time></trkpt><trkpt lat="45.04914358126412" lon="8.143405852457608"><ele>179.71428571428572</ele><time>2026-04-18T14:09:31Z</time></trkpt><trkpt lat="45.04920756315966" lon="8.143370284917504"><ele>179.57142857142858</ele><time>2026-04-18T14:09:32Z</time></trkpt><trkpt lat="45.049272514970376" lon="8.143329901794543"><ele>179.42857142857144</ele><time>2026-04-18T14:09:33Z</time></trkpt><trkpt lat="45.049352357997904" lon="8.143301324906103"><ele>179.28571428571428</ele><time>2026-04-18T14:09:34Z</time></trkpt><trkpt lat="45.04942803592415" lon="8.143273605768389"><ele>179.14285714285717</ele><time>2026-04-18T14:09:35Z</time></trkpt><trkpt lat="45.04949075222601" lon="8.143238003820292"><ele>179.0</ele><time>2026-04-18T14:09:36Z</time></trkpt><trkpt lat="45.04957099673919" lon="8.14320083914588"><ele>179.39999999999998</ele><time>2026-04-18T14:09:37Z</time></trkpt><trkpt lat="45.04965711557665" lon="8.1431631965781"><ele>179.8</ele><time>2026-04-18T14:09:38Z</time></trkpt><trkpt lat="45.04974736231347" lon="8.143123419630625"><ele>180.2</ele><time>2026-04-18T14:09:39Z</time></trkpt><trkpt lat="45.04985595716565" lon="8.143076298277474"><ele>180.60000000000002</ele><time>2026-04-18T14:09:40Z</time></trkpt><trkpt lat="45.049970686507514" lon="8.143033664474505"><ele>181.0</ele><time>2026-04-18T14:09:41Z</time></trkpt><trkpt lat="45.05007685290058" lon="8.143002229883217"><ele>181.0</ele><time>2026-04-18T14:09:42Z</time></trkpt><trkpt lat="45.05018063571331" lon="8.142976557871226"><ele>181.0</ele><time>2026-04-18T14:09:43Z</time></trkpt><trkpt lat="45.05027258620277" lon="8.142943319295322"><ele>181.0</ele><time>2026-04-18T14:09:44Z</time></trkpt><trkpt lat="45.05037153038778" lon="8.142886533738052"><ele>181.0</ele><time>2026-04-18T14:09:45Z</time></trkpt><trkpt lat="45.05046258863658" lon="8.142824431097742"><ele>181.0</ele><time>2026-04-18T14:09:46Z</time></trkpt><trkpt lat="45.05054636270022" lon="8.142770369023454"><ele>181.0</ele><time>2026-04-18T14:09:47Z</time></trkpt><trkpt lat="45.050631926638495" lon="8.142715293323365"><ele>181.0</ele><time>2026-04-18T14:09:48Z</time></trkpt><trkpt lat="45.05070858355634" lon="8.142667869722729"><ele>181.0</ele><time>2026-04-18T14:09:49Z</time></trkpt><trkpt lat="45.050785604395095" lon="8.142635984926951"><ele>181.0</ele><time>2026-04-18T14:09:50Z</time></trkpt><trkpt lat="45.05085756378176" lon="8.142620944597727"><ele>181.0</ele><time>2026-04-18T14:09:51Z</time></trkpt><trkpt lat="45.05093294194393" lon="8.142618948708279"><ele>181.0</ele><time>2026-04-18T14:09:52Z</time></trkpt><trkpt lat="45.05099716951732" lon="8.142622413048645"><ele>180.8</ele><time>2026-04-18T14:09:53Z</time></trkpt><trkpt lat="45.051077413467965" lon="8.142643396909165"><ele>180.60000000000002</ele><time>2026-04-18T14:09:54Z</time></trkpt><trkpt lat="45.051174037764916" lon="8.142682520932015"><ele>180.4</ele><time>2026-04-18T14:09:55Z</time></trkpt><trkpt lat="45.05126259118621" lon="8.142730006044257"><ele>180.2</ele><time>2026-04-18T14:09:56Z</time></trkpt><trkpt lat="45.05136278766488" lon="8.142806456238688"><ele>180.0</ele><time>2026-04-18T14:09:57Z</time></trkpt><trkpt lat="45.051470090453904" lon="8.14290102935591"><ele>180.0</ele><time>2026-04-18T14:09:58Z</time></trkpt><trkpt lat="45.05157228559126" lon="8.142977695506197"><ele>180.0</ele><time>2026-04-18T14:09:59Z</time></trkpt><trkpt lat="45.05169091327024" lon="8.143041700502213"><ele>180.0</ele><time>2026-04-18T14:10:00Z</time></trkpt><trkpt lat="45.05180945501816" lon="8.143096724469869"><ele>180.0</ele><time>2026-04-18T14:10:01Z</time></trkpt><trkpt lat="45.051906714266046" lon="8.143134877166586"><ele>179.8</ele><time>2026-04-18T14:10:02Z</time></trkpt><trkpt lat="45.05200289995617" lon="8.143168497803401"><ele>179.6</ele><time>2026-04-18T14:10:03Z</time></trkpt><trkpt lat="45.052092203888265" lon="8.143198702729471"><ele>179.39999999999998</ele><time>2026-04-18T14:10:04Z</time></trkpt><trkpt lat="45.0521905061666" lon="8.143237503442107"><ele>179.2</ele><time>2026-04-18T14:10:05Z</time></trkpt><trkpt lat="45.05229642187779" lon="8.143274157490806"><ele>179.0</ele><time>2026-04-18T14:10:06Z</time></trkpt><trkpt lat="45.05240569256078" lon="8.143319062978048"><ele>179.0</ele><time>2026-04-18T14:10:07Z</time></trkpt><trkpt lat="45.052522896373425" lon="8.143375244563035"><ele>179.0</ele><time>2026-04-18T14:10:08Z</time></trkpt><trkpt lat="45.05264261554544" lon="8.14342832910393"><ele>179.0</ele><time>2026-04-18T14:10:09Z</time></trkpt><trkpt lat="45.0527411300024" lon="8.143466704413143"><ele>179.0</ele><time>2026-04-18T14:10:10Z</time></trkpt><trkpt lat="45.05281956789272" lon="8.143505660319521"><ele>179.0</ele><time>2026-04-18T14:10:11Z</time></trkpt><trkpt lat="45.052877834910504" lon="8.143568789506777"><ele>179.0</ele><time>2026-04-18T14:10:12Z</time></trkpt><trkpt lat="45.05294537855028" lon="8.143669101273645"><ele>179.0</ele><time>2026-04-18T14:10:13Z</time></trkpt><trkpt lat="45.053020527706025" lon="8.143777085804986"><ele>179.0</ele><time>2026-04-18T14:10:14Z</time></trkpt><trkpt lat="45.05310886569803" lon="8.14385615941526"><ele>179.0</ele><time>2026-04-18T14:10:15Z</time></trkpt><trkpt lat="45.053196187900895" lon="8.143907642770715"><ele>179.0</ele><time>2026-04-18T14:10:16Z</time></trkpt><trkpt lat="45.05328394719445" lon="8.143923541430363"><ele>179.5</ele><time>2026-04-18T14:10:17Z</time></trkpt><trkpt lat="45.05339624702038" lon="8.143950222767057"><ele>180.0</ele><time>2026-04-18T14:10:18Z</time></trkpt><trkpt lat="45.05353238232938" lon="8.143990501492949"><ele>180.5</ele><time>2026-04-18T14:10:19Z</time></trkpt><trkpt lat="45.05366762350884" lon="8.14402889660997"><ele>181.0</ele><time>2026-04-18T14:10:20Z</time></trkpt><trkpt lat="45.053775897768176" lon="8.14406432173833"><ele>181.75</ele><time>2026-04-18T14:10:21Z</time></trkpt><trkpt lat="45.053871571228896" lon="8.144100233810887"><ele>182.5</ele><time>2026-04-18T14:10:22Z</time></trkpt><trkpt lat="45.0539874165244" lon="8.144140524976287"><ele>183.25</ele><time>2026-04-18T14:10:23Z</time></trkpt><trkpt lat="45.05413751012113" lon="8.144186699602551"><ele>184.0</ele><time>2026-04-18T14:10:24Z</time></trkpt><trkpt lat="45.05428642259348" lon="8.144220270248988"><ele>184.0</ele><time>2026-04-18T14:10:25Z</time></trkpt><trkpt lat="45.05441225941585" lon="8.144246371030578"><ele>184.0</ele><time>2026-04-18T14:10:26Z</time></trkpt><trkpt lat="45.054525349037924" lon="8.144272776232649"><ele>184.0</ele><time>2026-04-18T14:10:27Z</time></trkpt><trkpt lat="45.054623658909364" lon="8.14430217725496"><ele>184.0</ele><time>2026-04-18T14:10:28Z</time></trkpt><trkpt lat="45.054724920009264" lon="8.144337149442123"><ele>184.0</ele><time>2026-04-18T14:10:29Z</time></trkpt><trkpt lat="45.05481674065178" lon="8.144363683283434"><ele>184.0</ele><time>2026-04-18T14:10:30Z</time></trkpt><trkpt lat="45.0549233798775" lon="8.144399725705808"><ele>184.0</ele><time>2026-04-18T14:10:31Z</time></trkpt><trkpt lat="45.05504106659415" lon="8.14443623732966"><ele>184.0</ele><time>2026-04-18T14:10:32Z</time></trkpt><trkpt lat="45.05515757359737" lon="8.144473627485773"><ele>184.0</ele><time>2026-04-18T14:10:33Z</time></trkpt><trkpt lat="45.05525198837232" lon="8.144504714374992"><ele>184.0</ele><time>2026-04-18T14:10:34Z</time></trkpt><trkpt lat="45.05533629675427" lon="8.144529918258705"><ele>183.83333333333334</ele><time>2026-04-18T14:10:35Z</time></trkpt><trkpt lat="45.05542043948117" lon="8.144566442538594"><ele>183.66666666666669</ele><time>2026-04-18T14:10:36Z</time></trkpt><trkpt lat="45.055484705731" lon="8.144614281280885"><ele>183.5</ele><time>2026-04-18T14:10:37Z</time></trkpt><trkpt lat="45.0555844486717" lon="8.144669028885135"><ele>183.33333333333334</ele><time>2026-04-18T14:10:39Z</time></trkpt><trkpt lat="45.055654582470765" lon="8.144680233900916"><ele>183.16666666666666</ele><time>2026-04-18T14:10:41Z</time></trkpt><trkpt lat="45.05574076940452" lon="8.144714857221569"><ele>183.0</ele><time>2026-04-18T14:10:44Z</time></trkpt><trkpt lat="45.05580632960414" lon="8.144748771990592"><ele>183.0</ele><time>2026-04-18T14:10:46Z</time></trkpt><trkpt lat="45.05591328653731" lon="8.144829350151053"><ele>183.0</ele><time>2026-04-18T14:10:48Z</time></trkpt><trkpt lat="45.05603276047701" lon="8.144902221721987"><ele>183.0</ele><time>2026-04-18T14:10:50Z</time></trkpt><trkpt lat="45.05610712758186" lon="8.144936951569772"><ele>183.0</ele><time>2026-04-18T14:10:51Z</time></trkpt><trkpt lat="45.05618738719342" lon="8.144988495382648"><ele>183.0</ele><time>2026-04-18T14:10:52Z</time></trkpt><trkpt lat="45.056275606128246" lon="8.145047475245674"><ele>183.0</ele><time>2026-04-18T14:10:53Z</time></trkpt><trkpt lat="45.05636530633841" lon="8.145111281931138"><ele>183.0</ele><time>2026-04-18T14:10:54Z</time></trkpt><trkpt lat="45.05646605247245" lon="8.145186675308889"><ele>183.0</ele><time>2026-04-18T14:10:55Z</time></trkpt><trkpt lat="45.05657772801218" lon="8.145263363189905"><ele>183.0</ele><time>2026-04-18T14:10:56Z</time></trkpt><trkpt lat="45.0566808807324" lon="8.14532605282755"><ele>183.0</ele><time>2026-04-18T14:10:57Z</time></trkpt><trkpt lat="45.05677133614243" lon="8.14536160032037"><ele>183.0</ele><time>2026-04-18T14:10:58Z</time></trkpt><trkpt lat="45.05684609375389" lon="8.145366630017593"><ele>183.0</ele><time>2026-04-18T14:10:59Z</time></trkpt><trkpt lat="45.05692119057334" lon="8.145338736165982"><ele>183.0</ele><time>2026-04-18T14:11:00Z</time></trkpt><trkpt lat="45.05701655591319" lon="8.145280216368953"><ele>183.0</ele><time>2026-04-18T14:11:01Z</time></trkpt><trkpt lat="45.05712457288057" lon="8.145212400744143"><ele>183.0</ele><time>2026-04-18T14:11:02Z</time></trkpt><trkpt lat="45.05723278922016" lon="8.145156676062902"><ele>183.0</ele><time>2026-04-18T14:11:03Z</time></trkpt><trkpt lat="45.05732104181217" lon="8.145102161762221"><ele>183.0</ele><time>2026-04-18T14:11:04Z</time></trkpt><trkpt lat="45.057413507699195" lon="8.14505124701397"><ele>183.0</ele><time>2026-04-18T14:11:05Z</time></trkpt><trkpt lat="45.05752200769622" lon="8.145002513427086"><ele>183.0</ele><time>2026-04-18T14:11:06Z</time></trkpt><trkpt lat="45.05762620635012" lon="8.14496181612468"><ele>183.4</ele><time>2026-04-18T14:11:07Z</time></trkpt><trkpt lat="45.057750916246846" lon="8.144911435931167"><ele>183.8</ele><time>2026-04-18T14:11:08Z</time></trkpt><trkpt lat="45.05784792269241" lon="8.14487069523536"><ele>184.2</ele><time>2026-04-18T14:11:09Z</time></trkpt><trkpt lat="45.05793366624278" lon="8.14483432974047"><ele>184.6</ele><time>2026-04-18T14:11:10Z</time></trkpt><trkpt lat="45.05803326473241" lon="8.144789177780108"><ele>185.0</ele><time>2026-04-18T14:11:11Z</time></trkpt><trkpt lat="45.05812191782654" lon="8.144747798460282"><ele>185.0</ele><time>2026-04-18T14:11:12Z</time></trkpt><trkpt lat="45.05819205630488" lon="8.144727749849062"><ele>185.0</ele><time>2026-04-18T14:11:13Z</time></trkpt><trkpt lat="45.05825920082571" lon="8.144736110878133"><ele>185.0</ele><time>2026-04-18T14:11:14Z</time></trkpt><trkpt lat="45.05837851127719" lon="8.144865872614409"><ele>185.0</ele><time>2026-04-18T14:11:16Z</time></trkpt><trkpt lat="45.05844388928878" lon="8.144952399721662"><ele>185.0</ele><time>2026-04-18T14:11:17Z</time></trkpt><trkpt lat="45.05850397917541" lon="8.144995447003396"><ele>185.0</ele><time>2026-04-18T14:11:18Z</time></trkpt><trkpt lat="45.05865248230152" lon="8.144936056402319"><ele>185.0</ele><time>2026-04-18T14:11:20Z</time></trkpt><trkpt lat="45.05875655365528" lon="8.144891406845575"><ele>185.0</ele><time>2026-04-18T14:11:21Z</time></trkpt><trkpt lat="45.05886703133623" lon="8.14483580004818"><ele>185.0</ele><time>2026-04-18T14:11:22Z</time></trkpt><trkpt lat="45.05896493660306" lon="8.144798807704838"><ele>185.0</ele><time>2026-04-18T14:11:22.999Z</time></trkpt><trkpt lat="45.05908018903546" lon="8.144763674485556"><ele>185.0</ele><time>2026-04-18T14:11:23.999Z</time></trkpt><trkpt lat="45.0591921376515" lon="8.144740880869936"><ele>185.2</ele><time>2026-04-18T14:11:24.999Z</time></trkpt><trkpt lat="45.05930257165466" lon="8.144735149581068"><ele>185.4</ele><time>2026-04-18T14:11:25.999Z</time></trkpt><trkpt lat="45.05940056232082" lon="8.14474963207278"><ele>185.60000000000002</ele><time>2026-04-18T14:11:26.999Z</time></trkpt><trkpt lat="45.059492174282184" lon="8.144769939906269"><ele>185.8</ele><time>2026-04-18T14:11:27.999Z</time></trkpt><trkpt lat="45.05959087316601" lon="8.144795867311412"><ele>186.0</ele><time>2026-04-18T14:11:28.999Z</time></trkpt><trkpt lat="45.05969795606653" lon="8.144835827165025"><ele>186.60000000000002</ele><time>2026-04-18T14:11:29.999Z</time></trkpt><trkpt lat="45.059812196531574" lon="8.144881485256892"><ele>187.2</ele><time>2026-04-18T14:11:30.999Z</time></trkpt><trkpt lat="45.05992886127985" lon="8.144931690926093"><ele>187.8</ele><time>2026-04-18T14:11:31.999Z</time></trkpt><trkpt lat="45.060021609907885" lon="8.14496315288456"><ele>188.39999999999998</ele><time>2026-04-18T14:11:32.999Z</time></trkpt><trkpt lat="45.0601084602311" lon="8.144968260332714"><ele>189.0</ele><time>2026-04-18T14:11:33.999Z</time></trkpt><trkpt lat="45.060210645641874" lon="8.144969857969151"><ele>189.0</ele><time>2026-04-18T14:11:34.999Z</time></trkpt><trkpt lat="45.06032812964079" lon="8.144983426303945"><ele>189.0</ele><time>2026-04-18T14:11:35.999Z</time></trkpt><trkpt lat="45.06045923426307" lon="8.144993704299836"><ele>189.0</ele><time>2026-04-18T14:11:36.999Z</time></trkpt><trkpt lat="45.060577238133774" lon="8.14499078249048"><ele>189.0</ele><time>2026-04-18T14:11:37.999Z</time></trkpt><trkpt lat="45.06068278929716" lon="8.144972671655763"><ele>189.0</ele><time>2026-04-18T14:11:38.999Z</time></trkpt><trkpt lat="45.06079036557511" lon="8.144956195659015"><ele>189.0</ele><time>2026-04-18T14:11:39.999Z</time></trkpt><trkpt lat="45.060919663271136" lon="8.144945519979256"><ele>189.0</ele><time>2026-04-18T14:11:40.999Z</time></trkpt><trkpt lat="45.06104475021083" lon="8.144934001592281"><ele>189.0</ele><time>2026-04-18T14:11:41.999Z</time></trkpt><trkpt lat="45.06115669131929" lon="8.14491850952316"><ele>189.0</ele><time>2026-04-18T14:11:42.999Z</time></trkpt><trkpt lat="45.06127694003889" lon="8.144909789974424"><ele>189.0</ele><time>2026-04-18T14:11:43.999Z</time></trkpt><trkpt lat="45.06138113757084" lon="8.144905772003327"><ele>189.0</ele><time>2026-04-18T14:11:44.999Z</time></trkpt><trkpt lat="45.06146487801151" lon="8.144898509539848"><ele>189.0</ele><time>2026-04-18T14:11:45.999Z</time></trkpt><trkpt lat="45.06155031993451" lon="8.144885363084855"><ele>189.0</ele><time>2026-04-18T14:11:46.999Z</time></trkpt><trkpt lat="45.061675097761636" lon="8.144897890923817"><ele>189.79999999999998</ele><time>2026-04-18T14:11:48.999Z</time></trkpt><trkpt lat="45.06177308764593" lon="8.14493765230466"><ele>190.6</ele><time>2026-04-18T14:11:49.999Z</time></trkpt><trkpt lat="45.06187697440262" lon="8.144965484817309"><ele>191.4</ele><time>2026-04-18T14:11:50.999Z</time></trkpt><trkpt lat="45.06197690762017" lon="8.144976222503113"><ele>192.2</ele><time>2026-04-18T14:11:51.999Z</time></trkpt><trkpt lat="45.06205638134462" lon="8.1449764050394"><ele>193.0</ele><time>2026-04-18T14:11:52.999Z</time></trkpt><trkpt lat="45.06212531350449" lon="8.144945656167296"><ele>193.0</ele><time>2026-04-18T14:11:53.999Z</time></trkpt><trkpt lat="45.06219874763585" lon="8.144893343429672"><ele>193.0</ele><time>2026-04-18T14:11:54.999Z</time></trkpt><trkpt lat="45.06225917734464" lon="8.144817612049742"><ele>193.0</ele><time>2026-04-18T14:11:55.999Z</time></trkpt><trkpt lat="45.06229706475996" lon="8.144713484412216"><ele>193.0</ele><time>2026-04-18T14:11:56.999Z</time></trkpt><trkpt lat="45.06233329918124" lon="8.144588958297524"><ele>193.0</ele><time>2026-04-18T14:11:57.999Z</time></trkpt><trkpt lat="45.062386258527724" lon="8.144444553673628"><ele>193.25</ele><time>2026-04-18T14:11:58.999Z</time></trkpt><trkpt lat="45.062446200084906" lon="8.144302255757855"><ele>193.5</ele><time>2026-04-18T14:11:59.999Z</time></trkpt><trkpt lat="45.062504211577554" lon="8.144158514839937"><ele>193.75</ele><time>2026-04-18T14:12:00.999Z</time></trkpt><trkpt lat="45.06256667685793" lon="8.144014265764788"><ele>194.0</ele><time>2026-04-18T14:12:01.999Z</time></trkpt><trkpt lat="45.06262175726315" lon="8.143892963042045"><ele>193.39999999999998</ele><time>2026-04-18T14:12:02.999Z</time></trkpt><trkpt lat="45.06266881085901" lon="8.143797638047046"><ele>192.8</ele><time>2026-04-18T14:12:03.999Z</time></trkpt><trkpt lat="45.06276595111497" lon="8.143710377486766"><ele>192.2</ele><time>2026-04-18T14:12:05.999Z</time></trkpt><trkpt lat="45.06286014255024" lon="8.143681846731996"><ele>191.60000000000002</ele><time>2026-04-18T14:12:06.999Z</time></trkpt><trkpt lat="45.062978965975915" lon="8.14362030974719"><ele>191.0</ele><time>2026-04-18T14:12:07.999Z</time></trkpt><trkpt lat="45.06310151656744" lon="8.143545511775962"><ele>191.0</ele><time>2026-04-18T14:12:08.999Z</time></trkpt><trkpt lat="45.063204180887155" lon="8.14347788434739"><ele>191.0</ele><time>2026-04-18T14:12:09.999Z</time></trkpt><trkpt lat="45.0632890042496" lon="8.143415366411961"><ele>191.0</ele><time>2026-04-18T14:12:10.999Z</time></trkpt><trkpt lat="45.06336503857535" lon="8.143358539588297"><ele>191.0</ele><time>2026-04-18T14:12:11.999Z</time></trkpt><trkpt lat="45.06343852356512" lon="8.143314929910257"><ele>191.0</ele><time>2026-04-18T14:12:12.999Z</time></trkpt><trkpt lat="45.06352706847586" lon="8.143265955968047"><ele>190.8</ele><time>2026-04-18T14:12:13.999Z</time></trkpt><trkpt lat="45.063626410936244" lon="8.143213990315951"><ele>190.60000000000002</ele><time>2026-04-18T14:12:14.999Z</time></trkpt><trkpt lat="45.0637337333295" lon="8.14315856626459"><ele>190.4</ele><time>2026-04-18T14:12:15.999Z</time></trkpt><trkpt lat="45.06383275484927" lon="8.14311481713837"><ele>190.2</ele><time>2026-04-18T14:12:16.999Z</time></trkpt><trkpt lat="45.063939644529576" lon="8.143073466053949"><ele>190.0</ele><time>2026-04-18T14:12:17.999Z</time></trkpt><trkpt lat="45.06404199702281" lon="8.143030188569671"><ele>190.6</ele><time>2026-04-18T14:12:18.999Z</time></trkpt><trkpt lat="45.0641477171812" lon="8.142988026689276"><ele>191.2</ele><time>2026-04-18T14:12:19.999Z</time></trkpt><trkpt lat="45.064258498233286" lon="8.142950581109373"><ele>191.8</ele><time>2026-04-18T14:12:20.999Z</time></trkpt><trkpt lat="45.0643653853299" lon="8.142916357253828"><ele>192.4</ele><time>2026-04-18T14:12:21.999Z</time></trkpt><trkpt lat="45.06446272970268" lon="8.142880636036923"><ele>193.0</ele><time>2026-04-18T14:12:22.999Z</time></trkpt><trkpt lat="45.064550564451295" lon="8.14285036163601"><ele>193.0</ele><time>2026-04-18T14:12:23.999Z</time></trkpt><trkpt lat="45.06460600686827" lon="8.142802007083251"><ele>193.0</ele><time>2026-04-18T14:15:36.001Z</time></trkpt><trkpt lat="45.06471697461542" lon="8.142730174874714"><ele>193.0</ele><time>2026-04-18T14:15:38.001Z</time></trkpt><trkpt lat="45.06483195543598" lon="8.14265511738932"><ele>193.0</ele><time>2026-04-18T14:15:40.001Z</time></trkpt><trkpt lat="45.064906550677605" lon="8.142596643760006"><ele>193.0</ele><time>2026-04-18T14:15:41.001Z</time></trkpt><trkpt lat="45.06499437650489" lon="8.142529122922777"><ele>193.2</ele><time>2026-04-18T14:15:42.001Z</time></trkpt><trkpt lat="45.06506858821143" lon="8.142462498423672"><ele>193.4</ele><time>2026-04-18T14:15:43.001Z</time></trkpt><trkpt lat="45.0651371463773" lon="8.14240873462062"><ele>193.6</ele><time>2026-04-18T14:15:44.001Z</time></trkpt><trkpt lat="45.06528079078512" lon="8.142317080364485"><ele>193.79999999999998</ele><time>2026-04-18T14:15:45.001Z</time></trkpt><trkpt lat="45.06537621095085" lon="8.142277452586075"><ele>194.0</ele><time>2026-04-18T14:15:46.001Z</time></trkpt><trkpt lat="45.065477195423995" lon="8.14224359373673"><ele>194.0</ele><time>2026-04-18T14:15:47.001Z</time></trkpt><trkpt lat="45.0655561621219" lon="8.142230835854367"><ele>194.0</ele><time>2026-04-18T14:15:48Z</time></trkpt><trkpt lat="45.065637353510766" lon="8.142243443156573"><ele>194.0</ele><time>2026-04-18T14:15:49Z</time></trkpt><trkpt lat="45.06572278316085" lon="8.142277689953216"><ele>194.0</ele><time>2026-04-18T14:15:50Z</time></trkpt><trkpt lat="45.06580712692203" lon="8.142330318102148"><ele>194.0</ele><time>2026-04-18T14:15:51Z</time></trkpt><trkpt lat="45.06591412135356" lon="8.14240928738265"><ele>195.6</ele><time>2026-04-18T14:15:52Z</time></trkpt><trkpt lat="45.06602390012728" lon="8.142506326051798"><ele>197.2</ele><time>2026-04-18T14:15:53Z</time></trkpt><trkpt lat="45.06611867580766" lon="8.142611047840752"><ele>198.79999999999998</ele><time>2026-04-18T14:15:54Z</time></trkpt><trkpt lat="45.066189310377645" lon="8.142705120948959"><ele>200.39999999999998</ele><time>2026-04-18T14:15:55Z</time></trkpt><trkpt lat="45.06624572383428" lon="8.142778610134707"><ele>202.0</ele><time>2026-04-18T14:15:56Z</time></trkpt><trkpt lat="45.06630287412653" lon="8.142852699231858"><ele>202.0</ele><time>2026-04-18T14:15:57Z</time></trkpt><trkpt lat="45.06640128134583" lon="8.14289187346542"><ele>202.0</ele><time>2026-04-18T14:15:59Z</time></trkpt><trkpt lat="45.06647082437693" lon="8.14287798832522"><ele>202.0</ele><time>2026-04-18T14:16:00Z</time></trkpt><trkpt lat="45.066564006220375" lon="8.142848246283286"><ele>202.0</ele><time>2026-04-18T14:16:01Z</time></trkpt><trkpt lat="45.0666834368425" lon="8.142809520375545"><ele>202.0</ele><time>2026-04-18T14:16:02Z</time></trkpt><trkpt lat="45.06680521169665" lon="8.142777588819115"><ele>202.0</ele><time>2026-04-18T14:16:03Z</time></trkpt><trkpt lat="45.066920334324934" lon="8.1427520262034"><ele>202.0</ele><time>2026-04-18T14:16:04Z</time></trkpt><trkpt lat="45.0670324688261" lon="8.14271733970032"><ele>202.0</ele><time>2026-04-18T14:16:05Z</time></trkpt><trkpt lat="45.067143236692125" lon="8.142672792693812"><ele>202.0</ele><time>2026-04-18T14:16:06Z</time></trkpt><trkpt lat="45.06723954704142" lon="8.142633525321902"><ele>202.0</ele><time>2026-04-18T14:16:07Z</time></trkpt><trkpt lat="45.06740957398866" lon="8.142558217163788"><ele>201.8</ele><time>2026-04-18T14:16:08Z</time></trkpt><trkpt lat="45.06754548449216" lon="8.142508966671135"><ele>201.6</ele><time>2026-04-18T14:16:09Z</time></trkpt><trkpt lat="45.06767165018012" lon="8.14247662427055"><ele>201.4</ele><time>2026-04-18T14:16:10Z</time></trkpt><trkpt lat="45.06776447624197" lon="8.14247214771075"><ele>201.20000000000002</ele><time>2026-04-18T14:16:11Z</time></trkpt><trkpt lat="45.067840623462885" lon="8.142492166273204"><ele>201.0</ele><time>2026-04-18T14:16:12Z</time></trkpt><trkpt lat="45.06792512694913" lon="8.142482742023162"><ele>201.0</ele><time>2026-04-18T14:16:13Z</time></trkpt><trkpt lat="45.068021685547365" lon="8.142436363227793"><ele>201.0</ele><time>2026-04-18T14:16:14Z</time></trkpt><trkpt lat="45.068121369979686" lon="8.142366335808134"><ele>201.0</ele><time>2026-04-18T14:16:15Z</time></trkpt><trkpt lat="45.0681966235792" lon="8.142305140561733"><ele>201.0</ele><time>2026-04-18T14:16:16Z</time></trkpt><trkpt lat="45.06826262398207" lon="8.142255209867368"><ele>201.0</ele><time>2026-04-18T14:16:17Z</time></trkpt><trkpt lat="45.06832169443284" lon="8.14221105006957"><ele>201.0</ele><time>2026-04-18T14:16:18Z</time></trkpt><trkpt lat="45.06836786421382" lon="8.142121311719617"><ele>201.75</ele><time>2026-04-18T14:16:20Z</time></trkpt><trkpt lat="45.068311875169066" lon="8.141944755587492"><ele>202.5</ele><time>2026-04-18T14:16:22Z</time></trkpt><trkpt lat="45.06825041401661" lon="8.141747876551278"><ele>203.25</ele><time>2026-04-18T14:16:23Z</time></trkpt><trkpt lat="45.06818609843117" lon="8.14154815638458"><ele>204.0</ele><time>2026-04-18T14:16:24Z</time></trkpt><trkpt lat="45.068121344881526" lon="8.14135491033054"><ele>203.25</ele><time>2026-04-18T14:16:25Z</time></trkpt><trkpt lat="45.06806776653305" lon="8.141180431466642"><ele>202.5</ele><time>2026-04-18T14:16:26Z</time></trkpt><trkpt lat="45.06801417623459" lon="8.14103640032668"><ele>201.75</ele><time>2026-04-18T14:16:27Z</time></trkpt><trkpt lat="45.06795846699807" lon="8.140862259233355"><ele>201.0</ele><time>2026-04-18T14:16:28Z</time></trkpt><trkpt lat="45.0679126489659" lon="8.140712602332764"><ele>201.0</ele><time>2026-04-18T14:16:29Z</time></trkpt><trkpt lat="45.06787893648678" lon="8.14057401661646"><ele>201.0</ele><time>2026-04-18T14:16:30Z</time></trkpt><trkpt lat="45.06784335128635" lon="8.14042478619808"><ele>201.0</ele><time>2026-04-18T14:16:31Z</time></trkpt><trkpt lat="45.06780163862379" lon="8.140286266388854"><ele>201.0</ele><time>2026-04-18T14:16:32Z</time></trkpt><trkpt lat="45.067769487670645" lon="8.140170045065991"><ele>201.0</ele><time>2026-04-18T14:16:33Z</time></trkpt><trkpt lat="45.06773561945788" lon="8.140067029238397"><ele>201.0</ele><time>2026-04-18T14:16:34Z</time></trkpt><trkpt lat="45.067692162412" lon="8.139986883729062"><ele>201.0</ele><time>2026-04-18T14:16:35Z</time></trkpt><trkpt lat="45.06764553851587" lon="8.139925047866273"><ele>201.0</ele><time>2026-04-18T14:16:36Z</time></trkpt><trkpt lat="45.06759857581005" lon="8.139855456053397"><ele>201.0</ele><time>2026-04-18T14:16:37Z</time></trkpt><trkpt lat="45.06754515191739" lon="8.139716413832286"><ele>201.0</ele><time>2026-04-18T14:16:39Z</time></trkpt><trkpt lat="45.067521440397776" lon="8.139568522644739"><ele>201.0</ele><time>2026-04-18T14:16:41Z</time></trkpt><trkpt lat="45.067497898140395" lon="8.139450996468788"><ele>201.16666666666666</ele><time>2026-04-18T14:16:43Z</time></trkpt><trkpt lat="45.067482028999905" lon="8.139357248000275"><ele>201.33333333333331</ele><time>2026-04-18T14:16:45Z</time></trkpt><trkpt lat="45.06755508120412" lon="8.139304377251413"><ele>201.5</ele><time>2026-04-18T14:16:48Z</time></trkpt><trkpt lat="45.067669236098155" lon="8.13933036786758"><ele>201.66666666666666</ele><time>2026-04-18T14:16:50Z</time></trkpt><trkpt lat="45.067769967923454" lon="8.139312534458668"><ele>201.83333333333331</ele><time>2026-04-18T14:16:52Z</time></trkpt><trkpt lat="45.06784584006041" lon="8.139309147859054"><ele>202.0</ele><time>2026-04-18T14:16:53Z</time></trkpt><trkpt lat="45.06791982249432" lon="8.139303390386477"><ele>201.99999999999997</ele><time>2026-04-18T14:16:54Z</time></trkpt><trkpt lat="45.06798620726334" lon="8.13929942459943"><ele>202.0</ele><time>2026-04-18T14:16:55Z</time></trkpt><trkpt lat="45.06806848905054" lon="8.139297910852816"><ele>202.0</ele><time>2026-04-18T14:16:57Z</time></trkpt><trkpt lat="45.06815004840086" lon="8.139288746776502"><ele>202.0</ele><time>2026-04-18T14:17:00Z</time></trkpt><trkpt lat="45.06821564562992" lon="8.139280523525118"><ele>201.99999999999997</ele><time>2026-04-18T14:17:01Z</time></trkpt><trkpt lat="45.06830110747872" lon="8.139260162274951"><ele>202.0</ele><time>2026-04-18T14:17:02Z</time></trkpt><trkpt lat="45.06839690822334" lon="8.13922575678209"><ele>202.25</ele><time>2026-04-18T14:17:03Z</time></trkpt><trkpt lat="45.06851994319279" lon="8.139181200041703"><ele>202.5</ele><time>2026-04-18T14:17:04Z</time></trkpt><trkpt lat="45.06866321327667" lon="8.139137863662349"><ele>202.75</ele><time>2026-04-18T14:17:05Z</time></trkpt><trkpt lat="45.068813122253324" lon="8.139110220418207"><ele>203.0</ele><time>2026-04-18T14:17:06Z</time></trkpt><trkpt lat="45.06894236790261" lon="8.139096580235366"><ele>203.0</ele><time>2026-04-18T14:17:07Z</time></trkpt><trkpt lat="45.06908604411112" lon="8.139081518654692"><ele>203.0</ele><time>2026-04-18T14:17:08Z</time></trkpt><trkpt lat="45.06922647929755" lon="8.13906142229154"><ele>203.0</ele><time>2026-04-18T14:17:09Z</time></trkpt><trkpt lat="45.06936218060699" lon="8.139040655648206"><ele>203.0</ele><time>2026-04-18T14:17:10Z</time></trkpt><trkpt lat="45.0694962340176" lon="8.139014890707777"><ele>204.4</ele><time>2026-04-18T14:17:11Z</time></trkpt><trkpt lat="45.069607127569014" lon="8.138988122031465"><ele>205.8</ele><time>2026-04-18T14:17:12Z</time></trkpt><trkpt lat="45.06971449390655" lon="8.1389736117178"><ele>207.2</ele><time>2026-04-18T14:17:13Z</time></trkpt><trkpt lat="45.06980871388037" lon="8.138981036064692"><ele>208.6</ele><time>2026-04-18T14:17:14Z</time></trkpt><trkpt lat="45.06988025305757" lon="8.13901091835307"><ele>210.0</ele><time>2026-04-18T14:17:15Z</time></trkpt><trkpt lat="45.06999083179581" lon="8.139044343370342"><ele>209.6</ele><time>2026-04-18T14:17:16Z</time></trkpt><trkpt lat="45.070102677402936" lon="8.139074806208516"><ele>209.2</ele><time>2026-04-18T14:17:17Z</time></trkpt><trkpt lat="45.070216990581805" lon="8.13911330133462"><ele>208.8</ele><time>2026-04-18T14:17:18Z</time></trkpt><trkpt lat="45.070306768394296" lon="8.139132779375378"><ele>208.4</ele><time>2026-04-18T14:17:19Z</time></trkpt><trkpt lat="45.07040290683165" lon="8.139146792269868"><ele>208.0</ele><time>2026-04-18T14:17:20Z</time></trkpt><trkpt lat="45.07049455524034" lon="8.139154290699077"><ele>207.99999999999997</ele><time>2026-04-18T14:17:21Z</time></trkpt><trkpt lat="45.0705611048036" lon="8.139135290039894"><ele>208.0</ele><time>2026-04-18T14:17:22Z</time></trkpt><trkpt lat="45.070647212647685" lon="8.139106950168841"><ele>208.0</ele><time>2026-04-18T14:17:23Z</time></trkpt><trkpt lat="45.0707340946086" lon="8.139065094075757"><ele>208.0</ele><time>2026-04-18T14:17:24Z</time></trkpt><trkpt lat="45.070806613295716" lon="8.139016822809403"><ele>207.99999999999997</ele><time>2026-04-18T14:17:25Z</time></trkpt><trkpt lat="45.070892160899255" lon="8.138951841144332"><ele>208.0</ele><time>2026-04-18T14:17:26.001Z</time></trkpt><trkpt lat="45.07098574737797" lon="8.138868632723298"><ele>210.25</ele><time>2026-04-18T14:17:27.001Z</time></trkpt><trkpt lat="45.071096225739495" lon="8.138783588883669"><ele>212.5</ele><time>2026-04-18T14:17:28.001Z</time></trkpt><trkpt lat="45.071202995906646" lon="8.138728724833486"><ele>214.75</ele><time>2026-04-18T14:17:29.001Z</time></trkpt><trkpt lat="45.071318236443645" lon="8.138701463871636"><ele>217.0</ele><time>2026-04-18T14:17:30.001Z</time></trkpt><trkpt lat="45.071452342086964" lon="8.13866095425634"><ele>217.0</ele><time>2026-04-18T14:17:31.001Z</time></trkpt><trkpt lat="45.07158492393676" lon="8.138620517675898"><ele>217.0</ele><time>2026-04-18T14:17:32.001Z</time></trkpt><trkpt lat="45.07171159527916" lon="8.138581374162406"><ele>217.0</ele><time>2026-04-18T14:17:33.001Z</time></trkpt><trkpt lat="45.07183371976944" lon="8.138538699435792"><ele>217.0</ele><time>2026-04-18T14:17:34.001Z</time></trkpt><trkpt lat="45.07196326301078" lon="8.138488597820412"><ele>216.6</ele><time>2026-04-18T14:17:35.001Z</time></trkpt><trkpt lat="45.07208783568921" lon="8.138451637775042"><ele>216.2</ele><time>2026-04-18T14:17:36.001Z</time></trkpt><trkpt lat="45.07219243329442" lon="8.138414942419667"><ele>215.8</ele><time>2026-04-18T14:17:37.001Z</time></trkpt><trkpt lat="45.07229382665451" lon="8.138380554235269"><ele>215.4</ele><time>2026-04-18T14:17:38.001Z</time></trkpt><trkpt lat="45.0723825372419" lon="8.13833742873186"><ele>215.0</ele><time>2026-04-18T14:17:39.001Z</time></trkpt><trkpt lat="45.07245417930119" lon="8.138302451215699"><ele>215.0</ele><time>2026-04-18T14:17:40.001Z</time></trkpt><trkpt lat="45.07255229760273" lon="8.138280575508965"><ele>215.0</ele><time>2026-04-18T14:17:42.001Z</time></trkpt><trkpt lat="45.07261821101996" lon="8.138376802390372"><ele>215.0</ele><time>2026-04-18T14:17:44.001Z</time></trkpt><trkpt lat="45.07263768353898" lon="8.138507690893611"><ele>215.0</ele><time>2026-04-18T14:17:46.001Z</time></trkpt><trkpt lat="45.072686772081475" lon="8.138657135207524"><ele>215.0</ele><time>2026-04-18T14:17:48.001Z</time></trkpt><trkpt lat="45.0727170682633" lon="8.13875145838464"><ele>215.00000000000003</ele><time>2026-04-18T14:17:49.001Z</time></trkpt><trkpt lat="45.07275020044466" lon="8.138846852398366"><ele>215.0</ele><time>2026-04-18T14:17:50.001Z</time></trkpt><trkpt lat="45.07278776950851" lon="8.138942570732974"><ele>215.0</ele><time>2026-04-18T14:17:51.001Z</time></trkpt><trkpt lat="45.07282427455267" lon="8.139056174099885"><ele>215.0</ele><time>2026-04-18T14:17:52.001Z</time></trkpt><trkpt lat="45.07285832851112" lon="8.139172941770607"><ele>215.00000000000003</ele><time>2026-04-18T14:17:53.001Z</time></trkpt><trkpt lat="45.07289381154911" lon="8.139306895060948"><ele>215.0</ele><time>2026-04-18T14:17:54.001Z</time></trkpt><trkpt lat="45.072926133993434" lon="8.139428840510684"><ele>213.8</ele><time>2026-04-18T14:17:55.001Z</time></trkpt><trkpt lat="45.0729635567761" lon="8.139570926815951"><ele>212.6</ele><time>2026-04-18T14:17:56.001Z</time></trkpt><trkpt lat="45.07300609991004" lon="8.139710094682473"><ele>211.39999999999998</ele><time>2026-04-18T14:17:57.001Z</time></trkpt><trkpt lat="45.07305025739829" lon="8.139842059189366"><ele>210.2</ele><time>2026-04-18T14:17:58.001Z</time></trkpt><trkpt lat="45.073097691091526" lon="8.139972791208672"><ele>209.0</ele><time>2026-04-18T14:17:59.001Z</time></trkpt><trkpt lat="45.073140811853264" lon="8.140109267258646"><ele>209.0</ele><time>2026-04-18T14:18:00.001Z</time></trkpt><trkpt lat="45.073167140035544" lon="8.140251559960857"><ele>209.0</ele><time>2026-04-18T14:18:01.001Z</time></trkpt><trkpt lat="45.073182011035584" lon="8.140394920311577"><ele>209.0</ele><time>2026-04-18T14:18:02.001Z</time></trkpt><trkpt lat="45.07319422887009" lon="8.140519942474782"><ele>209.0</ele><time>2026-04-18T14:18:03.001Z</time></trkpt><trkpt lat="45.073217922475294" lon="8.140646817800812"><ele>209.0</ele><time>2026-04-18T14:18:04.001Z</time></trkpt><trkpt lat="45.073275788408" lon="8.140875463251497"><ele>211.0</ele><time>2026-04-18T14:18:05.001Z</time></trkpt><trkpt lat="45.073317638383834" lon="8.141010717215128"><ele>213.0</ele><time>2026-04-18T14:18:06.001Z</time></trkpt><trkpt lat="45.07335595813329" lon="8.14114603752962"><ele>214.99999999999997</ele><time>2026-04-18T14:18:07.001Z</time></trkpt><trkpt lat="45.07339655440127" lon="8.141292283196142"><ele>217.0</ele><time>2026-04-18T14:18:08.001Z</time></trkpt><trkpt lat="45.07343252210659" lon="8.14140511193486"><ele>219.0</ele><time>2026-04-18T14:18:09.001Z</time></trkpt><trkpt lat="45.07346267057315" lon="8.141500010227393"><ele>219.83333333333334</ele><time>2026-04-18T14:18:10.001Z</time></trkpt><trkpt lat="45.07348660514047" lon="8.141599052328576"><ele>220.66666666666669</ele><time>2026-04-18T14:18:11.001Z</time></trkpt><trkpt lat="45.07355419199833" lon="8.141738379567952"><ele>221.5</ele><time>2026-04-18T14:18:13.001Z</time></trkpt><trkpt lat="45.073582919144215" lon="8.141868656863508"><ele>222.33333333333334</ele><time>2026-04-18T14:18:15Z</time></trkpt><trkpt lat="45.073565381988914" lon="8.141983125582538"><ele>223.16666666666669</ele><time>2026-04-18T14:18:16Z</time></trkpt><trkpt lat="45.0735544014471" lon="8.142074829589939"><ele>224.0</ele><time>2026-04-18T14:18:17Z</time></trkpt><trkpt lat="45.07355697522192" lon="8.142178521373502"><ele>224.0</ele><time>2026-04-18T14:18:18Z</time></trkpt><trkpt lat="45.07355855837509" lon="8.142306679635153"><ele>223.99999999999997</ele><time>2026-04-18T14:18:19Z</time></trkpt><trkpt lat="45.07355814276799" lon="8.142445341153898"><ele>223.99999999999997</ele><time>2026-04-18T14:18:20Z</time></trkpt><trkpt lat="45.07354656420105" lon="8.14259954999686"><ele>224.0</ele><time>2026-04-18T14:18:21Z</time></trkpt><trkpt lat="45.0735368753183" lon="8.142766803644083"><ele>224.0</ele><time>2026-04-18T14:18:22Z</time></trkpt><trkpt lat="45.073547268588044" lon="8.142915271907619"><ele>225.6</ele><time>2026-04-18T14:18:23Z</time></trkpt><trkpt lat="45.07356509066341" lon="8.1430518816938"><ele>227.2</ele><time>2026-04-18T14:18:24Z</time></trkpt><trkpt lat="45.073590323880204" lon="8.143192960568351"><ele>228.79999999999998</ele><time>2026-04-18T14:18:25Z</time></trkpt><trkpt lat="45.07361569856923" lon="8.143337857781235"><ele>230.39999999999998</ele><time>2026-04-18T14:18:26Z</time></trkpt><trkpt lat="45.07365331913408" lon="8.143476772498541"><ele>232.0</ele><time>2026-04-18T14:18:27Z</time></trkpt><trkpt lat="45.0736907827115" lon="8.143622430335846"><ele>233.0</ele><time>2026-04-18T14:18:27.999Z</time></trkpt><trkpt lat="45.07372330430746" lon="8.143722606579207"><ele>234.0</ele><time>2026-04-18T14:18:28.999Z</time></trkpt><trkpt lat="45.07375501666114" lon="8.143830271450643"><ele>235.0</ele><time>2026-04-18T14:18:29.999Z</time></trkpt><trkpt lat="45.0737854499389" lon="8.14395004930918"><ele>236.0</ele><time>2026-04-18T14:18:30.999Z</time></trkpt><trkpt lat="45.073822496074534" lon="8.14407837997041"><ele>237.0</ele><time>2026-04-18T14:18:31.999Z</time></trkpt><trkpt lat="45.073860612454695" lon="8.144217619450238"><ele>238.6</ele><time>2026-04-18T14:18:32.999Z</time></trkpt><trkpt lat="45.07394153766545" lon="8.144415700014164"><ele>240.2</ele><time>2026-04-18T14:18:34.999Z</time></trkpt><trkpt lat="45.074007573179394" lon="8.144509226384057"><ele>241.8</ele><time>2026-04-18T14:18:36.999Z</time></trkpt><trkpt lat="45.07400306752691" lon="8.144607006105376"><ele>243.4</ele><time>2026-04-18T14:18:38.999Z</time></trkpt><trkpt lat="45.07393375559033" lon="8.144681588130068"><ele>245.0</ele><time>2026-04-18T14:18:40.999Z</time></trkpt><trkpt lat="45.07387855099886" lon="8.144736868237176"><ele>245.0</ele><time>2026-04-18T14:19:12.999Z</time></trkpt><trkpt lat="45.07378152053822" lon="8.144849265407084"><ele>245.0</ele><time>2026-04-18T14:19:14.999Z</time></trkpt><trkpt lat="45.07371275237454" lon="8.14493980644862"><ele>245.0</ele><time>2026-04-18T14:19:15.999Z</time></trkpt><trkpt lat="45.0736200113063" lon="8.145042375412315"><ele>245.0</ele><time>2026-04-18T14:19:16.999Z</time></trkpt><trkpt lat="45.073513503605774" lon="8.14513411213421"><ele>245.0</ele><time>2026-04-18T14:19:17.999Z</time></trkpt><trkpt lat="45.07342636355577" lon="8.145204008376213"><ele>245.0</ele><time>2026-04-18T14:19:18.999Z</time></trkpt><trkpt lat="45.07335193769128" lon="8.145268850341626"><ele>245.0</ele><time>2026-04-18T14:19:19.999Z</time></trkpt><trkpt lat="45.073296953449386" lon="8.145321678270722"><ele>245.0</ele><time>2026-04-18T14:19:20.999Z</time></trkpt><trkpt lat="45.073248161829284" lon="8.145423896327316"><ele>245.0</ele><time>2026-04-18T14:19:22.999Z</time></trkpt><trkpt lat="45.07327608134664" lon="8.145588084472719"><ele>246.2</ele><time>2026-04-18T14:19:24.999Z</time></trkpt><trkpt lat="45.073319747663504" lon="8.145688749748063"><ele>247.4</ele><time>2026-04-18T14:19:25.999Z</time></trkpt><trkpt lat="45.07337214878346" lon="8.14579373316741"><ele>248.60000000000002</ele><time>2026-04-18T14:19:26.999Z</time></trkpt><trkpt lat="45.073428773915666" lon="8.145936475034377"><ele>249.8</ele><time>2026-04-18T14:19:27.999Z</time></trkpt><trkpt lat="45.073485928244565" lon="8.146091795358377"><ele>251.0</ele><time>2026-04-18T14:19:28.999Z</time></trkpt><trkpt lat="45.073604580363316" lon="8.146337935818876"><ele>252.20000000000002</ele><time>2026-04-18T14:19:31Z</time></trkpt><trkpt lat="45.07367331352806" lon="8.146478534812264"><ele>253.40000000000003</ele><time>2026-04-18T14:19:32Z</time></trkpt><trkpt lat="45.073725387604085" lon="8.146604860930891"><ele>254.6</ele><time>2026-04-18T14:19:33Z</time></trkpt><trkpt lat="45.07377307504487" lon="8.146758791802373"><ele>255.8</ele><time>2026-04-18T14:19:34Z</time></trkpt><trkpt lat="45.073790767363434" lon="8.146892139045832"><ele>257.0</ele><time>2026-04-18T14:19:35Z</time></trkpt><trkpt lat="45.07379675071554" lon="8.14700494783169"><ele>258.6</ele><time>2026-04-18T14:19:36Z</time></trkpt><trkpt lat="45.073801490130826" lon="8.147096352425066"><ele>260.2</ele><time>2026-04-18T14:19:37Z</time></trkpt><trkpt lat="45.07380499602266" lon="8.147272590244736"><ele>261.8</ele><time>2026-04-18T14:19:39Z</time></trkpt><trkpt lat="45.07381584420409" lon="8.14742182494918"><ele>263.4</ele><time>2026-04-18T14:19:41Z</time></trkpt><trkpt lat="45.07381160457492" lon="8.147550952425444"><ele>265.0</ele><time>2026-04-18T14:19:44Z</time></trkpt><trkpt lat="45.07373426733821" lon="8.14758296559821"><ele>265.5</ele><time>2026-04-18T14:19:46Z</time></trkpt><trkpt lat="45.07366731212504" lon="8.147584687887333"><ele>266.0</ele><time>2026-04-18T14:19:47Z</time></trkpt><trkpt lat="45.07358982749614" lon="8.147613372325251"><ele>266.5</ele><time>2026-04-18T14:19:48Z</time></trkpt><trkpt lat="45.07350674537893" lon="8.147657628751281"><ele>267.0</ele><time>2026-04-18T14:19:49Z</time></trkpt><trkpt lat="45.073425238935386" lon="8.147703889891998"><ele>267.5</ele><time>2026-04-18T14:19:50Z</time></trkpt><trkpt lat="45.073343340117816" lon="8.147746347308066"><ele>268.0</ele><time>2026-04-18T14:19:51Z</time></trkpt><trkpt lat="45.07325247996792" lon="8.147786909914135"><ele>268.0</ele><time>2026-04-18T14:19:52Z</time></trkpt><trkpt lat="45.07313968006991" lon="8.147846207141992"><ele>268.0</ele><time>2026-04-18T14:19:53Z</time></trkpt><trkpt lat="45.07299119488666" lon="8.147916990853904"><ele>268.0</ele><time>2026-04-18T14:19:54Z</time></trkpt><trkpt lat="45.07282592584516" lon="8.14800455762662"><ele>268.0</ele><time>2026-04-18T14:19:55Z</time></trkpt><trkpt lat="45.072686060686536" lon="8.148085179604141"><ele>268.0</ele><time>2026-04-18T14:19:56Z</time></trkpt><trkpt lat="45.07256443201163" lon="8.148152786239788"><ele>268.0</ele><time>2026-04-18T14:19:57Z</time></trkpt><trkpt lat="45.07245343510377" lon="8.148215149856098"><ele>268.0</ele><time>2026-04-18T14:19:58Z</time></trkpt><trkpt lat="45.07235209848314" lon="8.148272801074182"><ele>269.2</ele><time>2026-04-18T14:19:59Z</time></trkpt><trkpt lat="45.07225420246224" lon="8.148325353785868"><ele>270.4</ele><time>2026-04-18T14:20:00Z</time></trkpt><trkpt lat="45.07216343381834" lon="8.148377419965518"><ele>271.59999999999997</ele><time>2026-04-18T14:20:01Z</time></trkpt><trkpt lat="45.07207991435464" lon="8.148425796346967"><ele>272.8</ele><time>2026-04-18T14:20:02Z</time></trkpt><trkpt lat="45.072000461495485" lon="8.148470560529411"><ele>274.0</ele><time>2026-04-18T14:20:03Z</time></trkpt><trkpt lat="45.07185449232642" lon="8.148547984659961"><ele>274.0</ele><time>2026-04-18T14:20:05Z</time></trkpt><trkpt lat="45.07176376328421" lon="8.148563386511565"><ele>274.0</ele><time>2026-04-18T14:20:07Z</time></trkpt><trkpt lat="45.07176302434701" lon="8.148704896578545"><ele>274.0</ele><time>2026-04-18T14:20:08Z</time></trkpt><trkpt lat="45.0716791174323" lon="8.148881897201763"><ele>274.0</ele><time>2026-04-18T14:20:10Z</time></trkpt><trkpt lat="45.07162554522534" lon="8.148981565324968"><ele>274.0</ele><time>2026-04-18T14:20:11Z</time></trkpt><trkpt lat="45.07154610519229" lon="8.149057526753989"><ele>274.8</ele><time>2026-04-18T14:20:13Z</time></trkpt><trkpt lat="45.07150738164211" lon="8.149165752298297"><ele>275.59999999999997</ele><time>2026-04-18T14:20:18Z</time></trkpt><trkpt lat="45.07159376045066" lon="8.149409409071673"><ele>276.4</ele><time>2026-04-18T14:20:20Z</time></trkpt><trkpt lat="45.07159937956344" lon="8.149508655872587"><ele>277.2</ele><time>2026-04-18T14:20:21Z</time></trkpt><trkpt lat="45.07160407289978" lon="8.149604537520945"><ele>278.0</ele><time>2026-04-18T14:20:22Z</time></trkpt><trkpt lat="45.07161015857438" lon="8.14971440439327"><ele>278.0</ele><time>2026-04-18T14:20:23Z</time></trkpt><trkpt lat="45.0716210988451" lon="8.149819900616142"><ele>278.0</ele><time>2026-04-18T14:20:24Z</time></trkpt><trkpt lat="45.07163010072302" lon="8.149921719619092"><ele>278.0</ele><time>2026-04-18T14:20:25Z</time></trkpt><trkpt lat="45.07164120839761" lon="8.150019906497883"><ele>278.0</ele><time>2026-04-18T14:20:26Z</time></trkpt><trkpt lat="45.07165266120172" lon="8.15012214501441"><ele>278.0</ele><time>2026-04-18T14:20:27Z</time></trkpt><trkpt lat="45.071654357013344" lon="8.150221852259998"><ele>278.0</ele><time>2026-04-18T14:20:28Z</time></trkpt><trkpt lat="45.07164664239489" lon="8.150317634489108"><ele>278.0</ele><time>2026-04-18T14:20:29Z</time></trkpt><trkpt lat="45.07163890209648" lon="8.150409041151075"><ele>276.33333333333337</ele><time>2026-04-18T14:20:30Z</time></trkpt><trkpt lat="45.07163462706073" lon="8.150499411072403"><ele>274.6666666666667</ele><time>2026-04-18T14:20:31Z</time></trkpt><trkpt lat="45.07163490865086" lon="8.15059681454498"><ele>273.0</ele><time>2026-04-18T14:20:32Z</time></trkpt><trkpt lat="45.07162305871499" lon="8.150709507750122"><ele>271.3333333333333</ele><time>2026-04-18T14:20:33Z</time></trkpt><trkpt lat="45.071607486380756" lon="8.150852699773251"><ele>269.66666666666663</ele><time>2026-04-18T14:20:34Z</time></trkpt><trkpt lat="45.071599197702255" lon="8.150952122236538"><ele>268.0</ele><time>2026-04-18T14:20:35Z</time></trkpt><trkpt lat="45.0715782805187" lon="8.151097794139314"><ele>266.6</ele><time>2026-04-18T14:20:37Z</time></trkpt><trkpt lat="45.07155724867448" lon="8.151242313692308"><ele>265.20000000000005</ele><time>2026-04-18T14:20:38.999Z</time></trkpt><trkpt lat="45.071536159393126" lon="8.151420005582176"><ele>263.8</ele><time>2026-04-18T14:20:40.999Z</time></trkpt><trkpt lat="45.071512685893424" lon="8.151559076531521"><ele>262.40000000000003</ele><time>2026-04-18T14:20:42.999Z</time></trkpt><trkpt lat="45.07149132754376" lon="8.151670532360395"><ele>261.0</ele><time>2026-04-18T14:20:44.999Z</time></trkpt><trkpt lat="45.07147384317627" lon="8.151797584670604"><ele>258.75</ele><time>2026-04-18T14:20:46.999Z</time></trkpt><trkpt lat="45.071439587588166" lon="8.152044177127008"><ele>256.5</ele><time>2026-04-18T14:20:49.999Z</time></trkpt><trkpt lat="45.071417811163734" lon="8.152186646758368"><ele>254.25</ele><time>2026-04-18T14:20:51.999Z</time></trkpt><trkpt lat="45.07139914415878" lon="8.152327231597749"><ele>252.0</ele><time>2026-04-18T14:20:53.999Z</time></trkpt><trkpt lat="45.07137881443735" lon="8.152453308743196"><ele>249.75</ele><time>2026-04-18T14:20:55.999Z</time></trkpt><trkpt lat="45.07135686632928" lon="8.152601720675571"><ele>247.5</ele><time>2026-04-18T14:20:57.999Z</time></trkpt><trkpt lat="45.071337671780256" lon="8.152770055437001"><ele>245.25</ele><time>2026-04-18T14:20:59.999Z</time></trkpt><trkpt lat="45.07131521127955" lon="8.152924605746254"><ele>243.0</ele><time>2026-04-18T14:21:01.999Z</time></trkpt><trkpt lat="45.07129831572567" lon="8.153085884995106"><ele>241.83333333333334</ele><time>2026-04-18T14:21:03.999Z</time></trkpt><trkpt lat="45.071280099499916" lon="8.153238246054382"><ele>240.66666666666669</ele><time>2026-04-18T14:21:05.999Z</time></trkpt><trkpt lat="45.071267572165716" lon="8.153367406783056"><ele>239.5</ele><time>2026-04-18T14:21:07.999Z</time></trkpt><trkpt lat="45.071255639752295" lon="8.153498549305892"><ele>238.33333333333334</ele><time>2026-04-18T14:21:09.999Z</time></trkpt><trkpt lat="45.07123800224573" lon="8.153614977288138"><ele>237.16666666666669</ele><time>2026-04-18T14:21:11.999Z</time></trkpt><trkpt lat="45.07121362414745" lon="8.153702288474637"><ele>236.0</ele><time>2026-04-18T14:21:13.999Z</time></trkpt><trkpt lat="45.071184046706826" lon="8.153797681710927"><ele>236.0</ele><time>2026-04-18T14:21:15.999Z</time></trkpt><trkpt lat="45.07115593277889" lon="8.153880865261767"><ele>236.0</ele><time>2026-04-18T14:21:17.999Z</time></trkpt><trkpt lat="45.07112631581718" lon="8.153964182105204"><ele>236.0</ele><time>2026-04-18T14:21:20.999Z</time></trkpt><trkpt lat="45.071100003862284" lon="8.15404564014375"><ele>236.0</ele><time>2026-04-18T14:21:24.999Z</time></trkpt><trkpt lat="45.071070291648965" lon="8.154148402547666"><ele>236.0</ele><time>2026-04-18T14:21:28.999Z</time></trkpt><trkpt lat="45.07105420481124" lon="8.154242755684676"><ele>236.0</ele><time>2026-04-18T14:21:31.999Z</time></trkpt><trkpt lat="45.07109388967438" lon="8.154320870314686"><ele>236.0</ele><time>2026-04-18T14:22:03Z</time></trkpt><trkpt lat="45.07116266433892" lon="8.154357967636388"><ele>235.28571428571428</ele><time>2026-04-18T14:22:07Z</time></trkpt><trkpt lat="45.07123620225168" lon="8.15439656280129"><ele>234.57142857142858</ele><time>2026-04-18T14:22:11Z</time></trkpt><trkpt lat="45.07116717913372" lon="8.154366230650862"><ele>233.85714285714286</ele><time>2026-04-18T14:25:02Z</time></trkpt><trkpt lat="45.0711013139698" lon="8.154328815941081"><ele>233.14285714285714</ele><time>2026-04-18T14:25:05Z</time></trkpt><trkpt lat="45.071040212197424" lon="8.154242060321977"><ele>232.42857142857144</ele><time>2026-04-18T14:25:09Z</time></trkpt><trkpt lat="45.07108186433744" lon="8.15431010696366"><ele>231.71428571428572</ele><time>2026-04-18T14:33:22.999Z</time></trkpt><trkpt lat="45.07113626678999" lon="8.154360200300214"><ele>231.0</ele><time>2026-04-18T14:33:26.999Z</time></trkpt><trkpt lat="45.071207253054816" lon="8.154429813383997"><ele>231.0</ele><time>2026-04-18T14:33:30.999Z</time></trkpt><trkpt lat="45.0712967433967" lon="8.154475461522782"><ele>231.0</ele><time>2026-04-18T14:33:33.999Z</time></trkpt><trkpt lat="45.07137348676831" lon="8.154505081532756"><ele>231.0</ele><time>2026-04-18T14:33:35.999Z</time></trkpt><trkpt lat="45.07145436148267" lon="8.154571650407352"><ele>231.0</ele><time>2026-04-18T14:33:38.999Z</time></trkpt><trkpt lat="45.07150752825398" lon="8.154630632886622"><ele>231.0</ele><time>2026-04-18T14:33:40.999Z</time></trkpt><trkpt lat="45.07152398857314" lon="8.154732574408413"><ele>231.0</ele><time>2026-04-18T14:33:43.999Z</time></trkpt><trkpt lat="45.071552775478786" lon="8.154835759155038"><ele>231.0</ele><time>2026-04-18T14:33:46.999Z</time></trkpt><trkpt lat="45.07156732770347" lon="8.154935870678745"><ele>231.0</ele><time>2026-04-18T14:33:48.999Z</time></trkpt><trkpt lat="45.07158975143045" lon="8.155058178176413"><ele>231.0</ele><time>2026-04-18T14:33:50.999Z</time></trkpt><trkpt lat="45.071607326281104" lon="8.155166167747653"><ele>231.0</ele><time>2026-04-18T14:33:52.999Z</time></trkpt><trkpt lat="45.07163207611917" lon="8.155297762117382"><ele>231.0</ele><time>2026-04-18T14:33:54.999Z</time></trkpt><trkpt lat="45.07165279390546" lon="8.155416721022933"><ele>231.0</ele><time>2026-04-18T14:33:56.998Z</time></trkpt><trkpt lat="45.071673607454805" lon="8.155526749663258"><ele>232.20000000000002</ele><time>2026-04-18T14:33:58.998Z</time></trkpt><trkpt lat="45.07170613752749" lon="8.155641625099543"><ele>233.40000000000003</ele><time>2026-04-18T14:34:00.998Z</time></trkpt><trkpt lat="45.07175081231605" lon="8.155776907966882"><ele>234.6</ele><time>2026-04-18T14:34:02.998Z</time></trkpt><trkpt lat="45.07179751800601" lon="8.155904366603405"><ele>235.8</ele><time>2026-04-18T14:34:04.998Z</time></trkpt><trkpt lat="45.07184498497539" lon="8.156030844706043"><ele>237.0</ele><time>2026-04-18T14:34:06.998Z</time></trkpt><trkpt lat="45.07189452079804" lon="8.156132890416602"><ele>237.5</ele><time>2026-04-18T14:34:08.998Z</time></trkpt><trkpt lat="45.07195567576613" lon="8.156245267310215"><ele>238.0</ele><time>2026-04-18T14:34:10.998Z</time></trkpt><trkpt lat="45.072003724222185" lon="8.156342151463585"><ele>238.5</ele><time>2026-04-18T14:34:12.999Z</time></trkpt><trkpt lat="45.072074997307254" lon="8.156419750803838"><ele>239.0</ele><time>2026-04-18T14:34:14.999Z</time></trkpt><trkpt lat="45.072151875178484" lon="8.15651346798332"><ele>239.5</ele><time>2026-04-18T14:34:16.999Z</time></trkpt><trkpt lat="45.07218168873446" lon="8.156595738845434"><ele>240.0</ele><time>2026-04-18T14:34:17.999Z</time></trkpt><trkpt lat="45.072200638134305" lon="8.156686836164665"><ele>240.8</ele><time>2026-04-18T14:34:18.999Z</time></trkpt><trkpt lat="45.072194605893436" lon="8.15685277182132"><ele>241.6</ele><time>2026-04-18T14:34:20.999Z</time></trkpt><trkpt lat="45.07215295690181" lon="8.156989492872052"><ele>242.39999999999998</ele><time>2026-04-18T14:34:22.999Z</time></trkpt><trkpt lat="45.07211097783644" lon="8.157105812566256"><ele>243.2</ele><time>2026-04-18T14:34:24.999Z</time></trkpt><trkpt lat="45.072069116085935" lon="8.157232267704279"><ele>244.0</ele><time>2026-04-18T14:34:26.999Z</time></trkpt><trkpt lat="45.0720200217659" lon="8.157370370593847"><ele>245.49999999999997</ele><time>2026-04-18T14:34:28.999Z</time></trkpt><trkpt lat="45.07199681781855" lon="8.15749789421628"><ele>247.0</ele><time>2026-04-18T14:34:30.999Z</time></trkpt><trkpt lat="45.071980853841126" lon="8.157614601577926"><ele>248.5</ele><time>2026-04-18T14:34:32.999Z</time></trkpt><trkpt lat="45.07197981750237" lon="8.157728846827379"><ele>250.0</ele><time>2026-04-18T14:34:34.999Z</time></trkpt><trkpt lat="45.07197682881949" lon="8.157830896474309"><ele>251.49999999999997</ele><time>2026-04-18T14:34:36.999Z</time></trkpt><trkpt lat="45.07196411393647" lon="8.157923441230475"><ele>253.0</ele><time>2026-04-18T14:34:38.999Z</time></trkpt><trkpt lat="45.07191467235517" lon="8.15799715147443"><ele>253.0</ele><time>2026-04-18T14:34:54.999Z</time></trkpt><trkpt lat="45.07189152276209" lon="8.157830323631073"><ele>253.0</ele><time>2026-04-18T14:35:05.999Z</time></trkpt><trkpt lat="45.07182623148804" lon="8.157744525315612"><ele>253.0</ele><time>2026-04-18T14:35:07.999Z</time></trkpt><trkpt lat="45.07175488790314" lon="8.157683120725213"><ele>253.0</ele><time>2026-04-18T14:35:10.999Z</time></trkpt><trkpt lat="45.071663488254465" lon="8.157606321841204"><ele>253.0</ele><time>2026-04-18T14:35:13.999Z</time></trkpt><trkpt lat="45.071593148976156" lon="8.157542195740945"><ele>251.99999999999997</ele><time>2026-04-18T14:35:15.999Z</time></trkpt><trkpt lat="45.07150914980722" lon="8.157496540746601"><ele>251.0</ele><time>2026-04-18T14:35:17.999Z</time></trkpt><trkpt lat="45.07141504043575" lon="8.157411015459056"><ele>250.0</ele><time>2026-04-18T14:35:19.999Z</time></trkpt><trkpt lat="45.071337110258895" lon="8.157350166866415"><ele>249.0</ele><time>2026-04-18T14:35:21.999Z</time></trkpt><trkpt lat="45.0712677201502" lon="8.157298741623146"><ele>247.99999999999997</ele><time>2026-04-18T14:35:23.999Z</time></trkpt><trkpt lat="45.07120622905258" lon="8.157245322730498"><ele>247.0</ele><time>2026-04-18T14:35:25.999Z</time></trkpt><trkpt lat="45.07113913169373" lon="8.157193066666053"><ele>245.49999999999997</ele><time>2026-04-18T14:35:27.999Z</time></trkpt><trkpt lat="45.071060720349294" lon="8.157150745547835"><ele>244.0</ele><time>2026-04-18T14:35:29.999Z</time></trkpt><trkpt lat="45.07099300847311" lon="8.157106723265255"><ele>242.5</ele><time>2026-04-18T14:35:31.999Z</time></trkpt><trkpt lat="45.07092147980888" lon="8.157043279493422"><ele>241.0</ele><time>2026-04-18T14:35:34.999Z</time></trkpt><trkpt lat="45.070872407688725" lon="8.156969136663509"><ele>239.49999999999997</ele><time>2026-04-18T14:35:37.999Z</time></trkpt><trkpt lat="45.070839082674254" lon="8.156875257974502"><ele>238.0</ele><time>2026-04-18T14:35:41.999Z</time></trkpt><trkpt lat="45.07080736001728" lon="8.15679544800334"><ele>237.99999999999997</ele><time>2026-04-18T14:35:55.999Z</time></trkpt><trkpt lat="45.070783807982714" lon="8.156690885288288"><ele>238.0</ele><time>2026-04-18T14:36:01.999Z</time></trkpt><trkpt lat="45.07074677705567" lon="8.156591164694788"><ele>238.0</ele><time>2026-04-18T14:36:05.998Z</time></trkpt><trkpt lat="45.07073866772473" lon="8.156466926434799"><ele>238.0</ele><time>2026-04-18T14:36:08.998Z</time></trkpt><trkpt lat="45.070713643524904" lon="8.156360230095624"><ele>237.99999999999997</ele><time>2026-04-18T14:36:11.998Z</time></trkpt><trkpt lat="45.07070011281253" lon="8.156245141425687"><ele>238.0</ele><time>2026-04-18T14:36:14.998Z</time></trkpt><trkpt lat="45.07067808941053" lon="8.15615137113845"><ele>236.42857142857144</ele><time>2026-04-18T14:36:16.998Z</time></trkpt><trkpt lat="45.07064137639561" lon="8.156048100054058"><ele>234.85714285714286</ele><time>2026-04-18T14:36:19.999Z</time></trkpt><trkpt lat="45.07060534697481" lon="8.155971214088746"><ele>233.28571428571428</ele><time>2026-04-18T14:36:21.999Z</time></trkpt><trkpt lat="45.07060099770236" lon="8.15587329819868"><ele>231.71428571428572</ele><time>2026-04-18T14:36:23.999Z</time></trkpt><trkpt lat="45.070565468288116" lon="8.155788620910801"><ele>230.14285714285717</ele><time>2026-04-18T14:36:25.999Z</time></trkpt><trkpt lat="45.07055303935154" lon="8.1556775306477"><ele>228.57142857142858</ele><time>2026-04-18T14:36:28.999Z</time></trkpt><trkpt lat="45.070520257956424" lon="8.155568606539907"><ele>227.0</ele><time>2026-04-18T14:36:30.999Z</time></trkpt><trkpt lat="45.07050136194865" lon="8.155457634837466"><ele>226.83333333333334</ele><time>2026-04-18T14:36:32.999Z</time></trkpt><trkpt lat="45.070486495336596" lon="8.155331020914927"><ele>226.66666666666669</ele><time>2026-04-18T14:36:34.999Z</time></trkpt><trkpt lat="45.07047577534971" lon="8.155207586325272"><ele>226.5</ele><time>2026-04-18T14:36:36.999Z</time></trkpt><trkpt lat="45.070457211700194" lon="8.155093227030605"><ele>226.33333333333331</ele><time>2026-04-18T14:36:38.999Z</time></trkpt><trkpt lat="45.070396709261956" lon="8.15503489841252"><ele>226.16666666666666</ele><time>2026-04-18T14:36:51.999Z</time></trkpt><trkpt lat="45.07029622712672" lon="8.155011067751577"><ele>226.0</ele><time>2026-04-18T14:36:53.999Z</time></trkpt><trkpt lat="45.07017560095042" lon="8.155019359134368"><ele>226.0</ele><time>2026-04-18T14:36:55.999Z</time></trkpt><trkpt lat="45.07004665601016" lon="8.15504660127761"><ele>226.00000000000003</ele><time>2026-04-18T14:36:57.999Z</time></trkpt><trkpt lat="45.06992126086339" lon="8.155056584587912"><ele>226.00000000000003</ele><time>2026-04-18T14:36:59.999Z</time></trkpt><trkpt lat="45.06985682128295" lon="8.155055337862127"><ele>226.0</ele><time>2026-04-18T14:37:00.999Z</time></trkpt><trkpt lat="45.069784018262354" lon="8.155058916188615"><ele>226.0</ele><time>2026-04-18T14:37:01.999Z</time></trkpt><trkpt lat="45.06971643602063" lon="8.155070001030614"><ele>226.16666666666666</ele><time>2026-04-18T14:37:02.999Z</time></trkpt><trkpt lat="45.069624246600654" lon="8.155076517506345"><ele>226.33333333333331</ele><time>2026-04-18T14:37:04.999Z</time></trkpt><trkpt lat="45.069561301597254" lon="8.155124938541862"><ele>226.5</ele><time>2026-04-18T14:37:06.999Z</time></trkpt><trkpt lat="45.069508013166505" lon="8.155223915111423"><ele>226.66666666666669</ele><time>2026-04-18T14:37:08.999Z</time></trkpt><trkpt lat="45.06946457115697" lon="8.15528941102001"><ele>226.83333333333334</ele><time>2026-04-18T14:37:09.999Z</time></trkpt><trkpt lat="45.06941957515049" lon="8.155365208027222"><ele>227.0</ele><time>2026-04-18T14:37:10.999Z</time></trkpt><trkpt lat="45.06935841053931" lon="8.155489607681956"><ele>227.00000000000003</ele><time>2026-04-18T14:37:12.999Z</time></trkpt><trkpt lat="45.06930398755173" lon="8.155581576781854"><ele>227.0</ele><time>2026-04-18T14:37:14.999Z</time></trkpt><trkpt lat="45.069250712436904" lon="8.155677214578127"><ele>227.0</ele><time>2026-04-18T14:37:16.999Z</time></trkpt><trkpt lat="45.069182840207404" lon="8.1557702737406"><ele>227.0</ele><time>2026-04-18T14:37:18.999Z</time></trkpt><trkpt lat="45.069104239378596" lon="8.155865029360363"><ele>227.00000000000003</ele><time>2026-04-18T14:37:20.999Z</time></trkpt><trkpt lat="45.06905321083292" lon="8.155922270541863"><ele>227.0</ele><time>2026-04-18T14:37:21.999Z</time></trkpt><trkpt lat="45.068946374305575" lon="8.155996152462816"><ele>226.2</ele><time>2026-04-18T14:37:23.999Z</time></trkpt><trkpt lat="45.06883331301648" lon="8.156013987454381"><ele>225.39999999999998</ele><time>2026-04-18T14:37:25.999Z</time></trkpt><trkpt lat="45.06876317061794" lon="8.156016631509525"><ele>224.60000000000002</ele><time>2026-04-18T14:37:26.999Z</time></trkpt><trkpt lat="45.06869046567519" lon="8.156018032370824"><ele>223.8</ele><time>2026-04-18T14:37:27.999Z</time></trkpt><trkpt lat="45.06856175121938" lon="8.15600103150042"><ele>223.0</ele><time>2026-04-18T14:37:29.999Z</time></trkpt><trkpt lat="45.06848736440851" lon="8.155981500138155"><ele>223.0</ele><time>2026-04-18T14:37:30.999Z</time></trkpt><trkpt lat="45.06840876647246" lon="8.155970662790905"><ele>223.0</ele><time>2026-04-18T14:37:31.999Z</time></trkpt><trkpt lat="45.06832307282929" lon="8.155961586951474"><ele>223.0</ele><time>2026-04-18T14:37:32.999Z</time></trkpt><trkpt lat="45.06824186080839" lon="8.155963979201289"><ele>223.0</ele><time>2026-04-18T14:37:33.999Z</time></trkpt><trkpt lat="45.068142174324116" lon="8.155975399980404"><ele>223.0</ele><time>2026-04-18T14:37:34.999Z</time></trkpt><trkpt lat="45.068035407361336" lon="8.155997422775322"><ele>223.2</ele><time>2026-04-18T14:37:35.999Z</time></trkpt><trkpt lat="45.0679432763616" lon="8.156019406488914"><ele>223.4</ele><time>2026-04-18T14:37:36.999Z</time></trkpt><trkpt lat="45.06784948461667" lon="8.156052226470155"><ele>223.59999999999997</ele><time>2026-04-18T14:37:37.999Z</time></trkpt><trkpt lat="45.06773626675295" lon="8.156090914797215"><ele>223.79999999999998</ele><time>2026-04-18T14:37:38.999Z</time></trkpt><trkpt lat="45.0676390143531" lon="8.156118550804496"><ele>224.0</ele><time>2026-04-18T14:37:39.999Z</time></trkpt><trkpt lat="45.06755794228935" lon="8.156121254020341"><ele>224.0</ele><time>2026-04-18T14:37:40.999Z</time></trkpt><trkpt lat="45.067467236521715" lon="8.15610162786663"><ele>223.99999999999997</ele><time>2026-04-18T14:37:41.999Z</time></trkpt><trkpt lat="45.06734872725893" lon="8.156077963997975"><ele>223.99999999999997</ele><time>2026-04-18T14:37:42.999Z</time></trkpt><trkpt lat="45.06722807123372" lon="8.156054647475939"><ele>224.0</ele><time>2026-04-18T14:37:43.999Z</time></trkpt><trkpt lat="45.06712379492952" lon="8.156031031412022"><ele>224.0</ele><time>2026-04-18T14:37:44.999Z</time></trkpt><trkpt lat="45.0670344068253" lon="8.15600812811937"><ele>222.79999999999998</ele><time>2026-04-18T14:37:45.999Z</time></trkpt><trkpt lat="45.06691693733093" lon="8.155979953896493"><ele>221.59999999999997</ele><time>2026-04-18T14:37:46.999Z</time></trkpt><trkpt lat="45.06681843058399" lon="8.155967559656826"><ele>220.4</ele><time>2026-04-18T14:37:47.999Z</time></trkpt><trkpt lat="45.06671642448619" lon="8.155952782296815"><ele>219.2</ele><time>2026-04-18T14:37:48.999Z</time></trkpt><trkpt lat="45.06662720406978" lon="8.155941293696728"><ele>218.0</ele><time>2026-04-18T14:37:49.999Z</time></trkpt><trkpt lat="45.06654929877401" lon="8.155930981249304"><ele>217.66666666666669</ele><time>2026-04-18T14:37:50.999Z</time></trkpt><trkpt lat="45.06647339755308" lon="8.155922052255313"><ele>217.33333333333334</ele><time>2026-04-18T14:37:51.999Z</time></trkpt><trkpt lat="45.066400126135875" lon="8.15591961263016"><ele>217.0</ele><time>2026-04-18T14:37:52.999Z</time></trkpt><trkpt lat="45.066316459404234" lon="8.155927679114647"><ele>216.66666666666669</ele><time>2026-04-18T14:37:53.999Z</time></trkpt><trkpt lat="45.066218213898246" lon="8.155946523960989"><ele>216.33333333333334</ele><time>2026-04-18T14:37:54.999Z</time></trkpt><trkpt lat="45.06610564717217" lon="8.155968183210378"><ele>216.0</ele><time>2026-04-18T14:37:55.999Z</time></trkpt><trkpt lat="45.0659989785759" lon="8.155970188753582"><ele>216.0</ele><time>2026-04-18T14:37:56.999Z</time></trkpt><trkpt lat="45.06588844965292" lon="8.155977671898105"><ele>216.00000000000003</ele><time>2026-04-18T14:37:57.999Z</time></trkpt><trkpt lat="45.06577116630901" lon="8.155996222269073"><ele>216.00000000000003</ele><time>2026-04-18T14:37:58.999Z</time></trkpt><trkpt lat="45.06566785256392" lon="8.156012180651304"><ele>216.0</ele><time>2026-04-18T14:37:59.999Z</time></trkpt><trkpt lat="45.06557105223459" lon="8.15602371577122"><ele>216.0</ele><time>2026-04-18T14:38:00.999Z</time></trkpt><trkpt lat="45.065469221053355" lon="8.156031423927038"><ele>215.5</ele><time>2026-04-18T14:38:01.999Z</time></trkpt><trkpt lat="45.06536507123067" lon="8.156035347056886"><ele>215.0</ele><time>2026-04-18T14:38:02.999Z</time></trkpt><trkpt lat="45.06525067995583" lon="8.156040308290729"><ele>214.5</ele><time>2026-04-18T14:38:03.999Z</time></trkpt><trkpt lat="45.06513453354131" lon="8.15604766872383"><ele>214.0</ele><time>2026-04-18T14:38:04.999Z</time></trkpt><trkpt lat="45.06501761999977" lon="8.1560532318453"><ele>213.6</ele><time>2026-04-18T14:38:05.999Z</time></trkpt><trkpt lat="45.064913944055625" lon="8.156067052025868"><ele>213.2</ele><time>2026-04-18T14:38:06.999Z</time></trkpt><trkpt lat="45.06481166512331" lon="8.15608239059712"><ele>212.79999999999998</ele><time>2026-04-18T14:38:07.999Z</time></trkpt><trkpt lat="45.06472795555047" lon="8.156104240646743"><ele>212.39999999999998</ele><time>2026-04-18T14:38:08.999Z</time></trkpt><trkpt lat="45.06465131219119" lon="8.156120000900138"><ele>212.0</ele><time>2026-04-18T14:38:09.999Z</time></trkpt><trkpt lat="45.06455261467176" lon="8.156161164930234"><ele>212.00000000000003</ele><time>2026-04-18T14:38:11.999Z</time></trkpt><trkpt lat="45.06452180223303" lon="8.156270104651481"><ele>212.0</ele><time>2026-04-18T14:38:13.999Z</time></trkpt><trkpt lat="45.06455273222175" lon="8.156409526718448"><ele>212.0</ele><time>2026-04-18T14:38:15.999Z</time></trkpt><trkpt lat="45.06457051348757" lon="8.15649793771831"><ele>212.0</ele><time>2026-04-18T14:38:16.999Z</time></trkpt><trkpt lat="45.064585008020146" lon="8.156613354372643"><ele>212.00000000000003</ele><time>2026-04-18T14:38:18.999Z</time></trkpt><trkpt lat="45.064614226893774" lon="8.156760353931224"><ele>212.0</ele><time>2026-04-18T14:38:20.999Z</time></trkpt><trkpt lat="45.06458757397335" lon="8.156897834265681"><ele>212.8</ele><time>2026-04-18T14:38:22.999Z</time></trkpt><trkpt lat="45.06452226419319" lon="8.156958616639754"><ele>213.6</ele><time>2026-04-18T14:38:24.999Z</time></trkpt><trkpt lat="45.064437455495856" lon="8.156882451501597"><ele>214.40000000000003</ele><time>2026-04-18T14:38:27.999Z</time></trkpt><trkpt lat="45.06432340574177" lon="8.156767926648026"><ele>215.20000000000002</ele><time>2026-04-18T14:38:29.999Z</time></trkpt><trkpt lat="45.06423397069623" lon="8.156707236345941"><ele>216.0</ele><time>2026-04-18T14:38:30.999Z</time></trkpt><trkpt lat="45.06413868753916" lon="8.15664621184333"><ele>215.0</ele><time>2026-04-18T14:38:31.999Z</time></trkpt><trkpt lat="45.06412534412903" lon="8.156462566481814"><ele>214.0</ele><time>2026-04-18T14:38:32.999Z</time></trkpt><trkpt lat="45.06401852191704" lon="8.15630253770198"><ele>213.0</ele><time>2026-04-18T14:38:33.999Z</time></trkpt><trkpt lat="45.06393859358893" lon="8.15618431308306"><ele>212.0</ele><time>2026-04-18T14:38:34.999Z</time></trkpt><trkpt lat="45.063852879997725" lon="8.1560639854975"><ele>211.8</ele><time>2026-04-18T14:38:35.999Z</time></trkpt><trkpt lat="45.063760330370656" lon="8.155977045164569"><ele>211.6</ele><time>2026-04-18T14:38:36.999Z</time></trkpt><trkpt lat="45.06365478211554" lon="8.15592176480919"><ele>211.4</ele><time>2026-04-18T14:38:37.999Z</time></trkpt><trkpt lat="45.063558687655316" lon="8.155898669686605"><ele>211.20000000000002</ele><time>2026-04-18T14:38:38.999Z</time></trkpt><trkpt lat="45.063458062894746" lon="8.155883114495067"><ele>211.0</ele><time>2026-04-18T14:38:39.999Z</time></trkpt><trkpt lat="45.06330938344073" lon="8.155864700516881"><ele>210.25</ele><time>2026-04-18T14:38:40.999Z</time></trkpt><trkpt lat="45.06315711606539" lon="8.155809732470495"><ele>209.5</ele><time>2026-04-18T14:38:41.999Z</time></trkpt><trkpt lat="45.06302789165974" lon="8.155745503241882"><ele>208.75</ele><time>2026-04-18T14:38:42.999Z</time></trkpt><trkpt lat="45.06290465188166" lon="8.155669497567324"><ele>208.0</ele><time>2026-04-18T14:38:43.999Z</time></trkpt><trkpt lat="45.062797024468914" lon="8.155598721812757"><ele>207.60000000000002</ele><time>2026-04-18T14:38:44.999Z</time></trkpt><trkpt lat="45.062704382422304" lon="8.15554175471218"><ele>207.20000000000002</ele><time>2026-04-18T14:38:45.999Z</time></trkpt><trkpt lat="45.06261841697405" lon="8.155490607422358"><ele>206.8</ele><time>2026-04-18T14:38:46.999Z</time></trkpt><trkpt lat="45.062542199065156" lon="8.155444285068368"><ele>206.4</ele><time>2026-04-18T14:38:47.999Z</time></trkpt><trkpt lat="45.06247987598743" lon="8.155408682876173"><ele>206.0</ele><time>2026-04-18T14:38:48.999Z</time></trkpt><trkpt lat="45.06237455804992" lon="8.155371580064813"><ele>205.60000000000002</ele><time>2026-04-18T14:38:50.999Z</time></trkpt><trkpt lat="45.06226682158298" lon="8.155419822081813"><ele>205.2</ele><time>2026-04-18T14:38:53Z</time></trkpt><trkpt lat="45.06214822980619" lon="8.15544027721986"><ele>204.8</ele><time>2026-04-18T14:38:55Z</time></trkpt><trkpt lat="45.06205948806784" lon="8.155456862148256"><ele>204.39999999999998</ele><time>2026-04-18T14:38:56Z</time></trkpt><trkpt lat="45.06197239918846" lon="8.155474894976985"><ele>204.0</ele><time>2026-04-18T14:38:57Z</time></trkpt><trkpt lat="45.061903470559315" lon="8.155517026403597"><ele>204.0</ele><time>2026-04-18T14:38:58Z</time></trkpt><trkpt lat="45.06183374944678" lon="8.155539466909392"><ele>204.0</ele><time>2026-04-18T14:38:59Z</time></trkpt><trkpt lat="45.061747661337186" lon="8.155571676206788"><ele>204.0</ele><time>2026-04-18T14:39:00Z</time></trkpt><trkpt lat="45.0616583063485" lon="8.155614028473607"><ele>204.0</ele><time>2026-04-18T14:39:01Z</time></trkpt><trkpt lat="45.061566215002415" lon="8.155643659619903"><ele>204.0</ele><time>2026-04-18T14:39:02Z</time></trkpt><trkpt lat="45.061489932300994" lon="8.155682407930696"><ele>204.0</ele><time>2026-04-18T14:39:03Z</time></trkpt><trkpt lat="45.06141818408964" lon="8.155719591741985"><ele>204.33333333333334</ele><time>2026-04-18T14:39:04Z</time></trkpt><trkpt lat="45.06135077425203" lon="8.155754527148334"><ele>204.66666666666669</ele><time>2026-04-18T14:39:05Z</time></trkpt><trkpt lat="45.06127402631316" lon="8.155794302076872"><ele>205.0</ele><time>2026-04-18T14:39:06Z</time></trkpt><trkpt lat="45.06119656904707" lon="8.155834444639684"><ele>205.33333333333334</ele><time>2026-04-18T14:39:07Z</time></trkpt><trkpt lat="45.061119288543104" lon="8.15587422225321"><ele>205.66666666666669</ele><time>2026-04-18T14:39:08Z</time></trkpt><trkpt lat="45.06105030632159" lon="8.155928004218426"><ele>206.0</ele><time>2026-04-18T14:39:09Z</time></trkpt><trkpt lat="45.06097374597983" lon="8.15595973630562"><ele>206.00000000000003</ele><time>2026-04-18T14:39:10Z</time></trkpt><trkpt lat="45.06090025325295" lon="8.15600499342898"><ele>206.0</ele><time>2026-04-18T14:39:11Z</time></trkpt><trkpt lat="45.06082314846401" lon="8.15604482736876"><ele>206.0</ele><time>2026-04-18T14:39:11.999Z</time></trkpt><trkpt lat="45.06074454389372" lon="8.156085189333668"><ele>206.0</ele><time>2026-04-18T14:39:12.999Z</time></trkpt><trkpt lat="45.06066797947458" lon="8.156120709146546"><ele>206.00000000000003</ele><time>2026-04-18T14:39:13.999Z</time></trkpt><trkpt lat="45.060591023321244" lon="8.156159226078023"><ele>206.0</ele><time>2026-04-18T14:39:14.999Z</time></trkpt><trkpt lat="45.06051667330827" lon="8.156196175810068"><ele>205.00000000000003</ele><time>2026-04-18T14:39:15.999Z</time></trkpt><trkpt lat="45.06044037408326" lon="8.15623720453088"><ele>204.0</ele><time>2026-04-18T14:39:16.999Z</time></trkpt><trkpt lat="45.06036379704193" lon="8.156276505570158"><ele>203.0</ele><time>2026-04-18T14:39:17.999Z</time></trkpt><trkpt lat="45.06028640003127" lon="8.156315305296257"><ele>202.0</ele><time>2026-04-18T14:39:18.999Z</time></trkpt><trkpt lat="45.060209461271505" lon="8.156346541764183"><ele>201.00000000000003</ele><time>2026-04-18T14:39:19.999Z</time></trkpt><trkpt lat="45.06013303754825" lon="8.156372239988883"><ele>200.0</ele><time>2026-04-18T14:39:20.999Z</time></trkpt><trkpt lat="45.060053144818944" lon="8.156393688307846"><ele>200.00000000000003</ele><time>2026-04-18T14:39:21.999Z</time></trkpt><trkpt lat="45.059969238628625" lon="8.15641463728443"><ele>200.0</ele><time>2026-04-18T14:39:22.999Z</time></trkpt><trkpt lat="45.059889161613384" lon="8.156436538439301"><ele>200.0</ele><time>2026-04-18T14:39:23.999Z</time></trkpt><trkpt lat="45.05981315003082" lon="8.156473227641191"><ele>200.0</ele><time>2026-04-18T14:39:24.999Z</time></trkpt><trkpt lat="45.05973293841588" lon="8.156497638374592"><ele>200.00000000000003</ele><time>2026-04-18T14:39:25.999Z</time></trkpt><trkpt lat="45.059658942650806" lon="8.156543219177907"><ele>200.0</ele><time>2026-04-18T14:39:26.999Z</time></trkpt><trkpt lat="45.059585423014944" lon="8.156593482937367"><ele>199.50000000000003</ele><time>2026-04-18T14:39:27.999Z</time></trkpt><trkpt lat="45.05951133363355" lon="8.15665301220085"><ele>199.0</ele><time>2026-04-18T14:39:28.999Z</time></trkpt><trkpt lat="45.059450603163704" lon="8.156732470296326"><ele>198.5</ele><time>2026-04-18T14:39:29.999Z</time></trkpt><trkpt lat="45.05938758791435" lon="8.156799277052295"><ele>198.0</ele><time>2026-04-18T14:39:30.999Z</time></trkpt><trkpt lat="45.059330049425064" lon="8.156876924374727"><ele>197.50000000000003</ele><time>2026-04-18T14:39:31.999Z</time></trkpt><trkpt lat="45.059285170916986" lon="8.15697059190803"><ele>197.0</ele><time>2026-04-18T14:39:32.999Z</time></trkpt><trkpt lat="45.05925521275068" lon="8.157080970355029"><ele>197.00000000000003</ele><time>2026-04-18T14:39:33.999Z</time></trkpt><trkpt lat="45.059232601676854" lon="8.15719333840146"><ele>197.0</ele><time>2026-04-18T14:39:34.999Z</time></trkpt><trkpt lat="45.0592129243693" lon="8.157302648879131"><ele>197.0</ele><time>2026-04-18T14:39:35.999Z</time></trkpt><trkpt lat="45.059193909503776" lon="8.157418796051418"><ele>197.0</ele><time>2026-04-18T14:39:36.999Z</time></trkpt><trkpt lat="45.0591764950547" lon="8.157533274048266"><ele>197.00000000000003</ele><time>2026-04-18T14:39:37.999Z</time></trkpt><trkpt lat="45.05915762498518" lon="8.157637236208556"><ele>197.0</ele><time>2026-04-18T14:39:38.999Z</time></trkpt><trkpt lat="45.05913313368159" lon="8.157751544340451"><ele>197.83333333333334</ele><time>2026-04-18T14:39:39.999Z</time></trkpt><trkpt lat="45.059109230571565" lon="8.15785789235369"><ele>198.66666666666669</ele><time>2026-04-18T14:39:40.999Z</time></trkpt><trkpt lat="45.05908573574086" lon="8.15796924204166"><ele>199.5</ele><time>2026-04-18T14:39:41.999Z</time></trkpt><trkpt lat="45.05906071198315" lon="8.158071752942384"><ele>200.33333333333331</ele><time>2026-04-18T14:39:42.999Z</time></trkpt><trkpt lat="45.05903004276536" lon="8.158171675731612"><ele>201.16666666666666</ele><time>2026-04-18T14:39:43.998Z</time></trkpt><trkpt lat="45.05899277877949" lon="8.158282829017722"><ele>202.0</ele><time>2026-04-18T14:39:45.998Z</time></trkpt><trkpt lat="45.0589327574266" lon="8.158231530970042"><ele>202.0</ele><time>2026-04-18T14:39:46.998Z</time></trkpt><trkpt lat="45.05884352414912" lon="8.158222440232919"><ele>202.0</ele><time>2026-04-18T14:39:47.998Z</time></trkpt><trkpt lat="45.05874350609447" lon="8.158204284483604"><ele>202.0</ele><time>2026-04-18T14:39:48.998Z</time></trkpt><trkpt lat="45.05864235588352" lon="8.158206640463591"><ele>202.0</ele><time>2026-04-18T14:39:49.998Z</time></trkpt><trkpt lat="45.05854035979919" lon="8.158175789283629"><ele>202.0</ele><time>2026-04-18T14:39:50.998Z</time></trkpt><trkpt lat="45.058463162071526" lon="8.15814845079416"><ele>201.99999999999997</ele><time>2026-04-18T14:39:51.998Z</time></trkpt><trkpt lat="45.05839929540947" lon="8.158095680563038"><ele>202.0</ele><time>2026-04-18T14:39:52.998Z</time></trkpt><trkpt lat="45.058348975630544" lon="8.158034559063003"><ele>202.0</ele><time>2026-04-18T14:39:53.998Z</time></trkpt><trkpt lat="45.05831833874505" lon="8.15795050935299"><ele>202.0</ele><time>2026-04-18T14:39:54.998Z</time></trkpt><trkpt lat="45.05831039504606" lon="8.157832023548945"><ele>201.99999999999997</ele><time>2026-04-18T14:39:55.998Z</time></trkpt><trkpt lat="45.058295202209635" lon="8.157696392719966"><ele>202.0</ele><time>2026-04-18T14:39:56.998Z</time></trkpt><trkpt lat="45.05828386488157" lon="8.157551164613402"><ele>202.33333333333331</ele><time>2026-04-18T14:39:57.998Z</time></trkpt><trkpt lat="45.058247019303195" lon="8.157438346184907"><ele>202.66666666666666</ele><time>2026-04-18T14:39:58.998Z</time></trkpt><trkpt lat="45.05822905370482" lon="8.157333749072638"><ele>203.0</ele><time>2026-04-18T14:39:59.998Z</time></trkpt><trkpt lat="45.05820118344782" lon="8.15724197549252"><ele>203.33333333333331</ele><time>2026-04-18T14:40:00.998Z</time></trkpt><trkpt lat="45.0581555877787" lon="8.157144317118016"><ele>203.66666666666666</ele><time>2026-04-18T14:40:01.998Z</time></trkpt><trkpt lat="45.05811564941536" lon="8.157040641705525"><ele>204.0</ele><time>2026-04-18T14:40:02.998Z</time></trkpt><trkpt lat="45.05806119527565" lon="8.156885520781774"><ele>204.0</ele><time>2026-04-18T14:40:04.998Z</time></trkpt><trkpt lat="45.05802658273021" lon="8.156743616567184"><ele>204.0</ele><time>2026-04-18T14:40:06.998Z</time></trkpt><trkpt lat="45.05798341462957" lon="8.156627073621474"><ele>204.0</ele><time>2026-04-18T14:40:08.998Z</time></trkpt><trkpt lat="45.05792125136506" lon="8.156473098850721"><ele>204.0</ele><time>2026-04-18T14:40:10.998Z</time></trkpt><trkpt lat="45.05788763558224" lon="8.156391612547624"><ele>204.0</ele><time>2026-04-18T14:40:11.998Z</time></trkpt><trkpt lat="45.057844857156084" lon="8.156287928755322"><ele>203.33333333333331</ele><time>2026-04-18T14:40:12.998Z</time></trkpt><trkpt lat="45.057800675440284" lon="8.156180838087737"><ele>202.66666666666666</ele><time>2026-04-18T14:40:13.998Z</time></trkpt><trkpt lat="45.05751935491722" lon="8.156261256357455"><ele>202.0</ele><time>2026-04-18T14:40:14.998Z</time></trkpt><trkpt lat="45.05743599399491" lon="8.156170433743519"><ele>201.99999999999997</ele><time>2026-04-18T14:40:15.998Z</time></trkpt><trkpt lat="45.05737154213021" lon="8.156097277513947"><ele>202.0</ele><time>2026-04-18T14:40:16.998Z</time></trkpt><trkpt lat="45.05730355711713" lon="8.15604384600613"><ele>202.0</ele><time>2026-04-18T14:40:17.998Z</time></trkpt><trkpt lat="45.05722610372771" lon="8.156008386277845"><ele>202.0</ele><time>2026-04-18T14:40:18.998Z</time></trkpt><trkpt lat="45.05712875150817" lon="8.15599134719612"><ele>201.99999999999997</ele><time>2026-04-18T14:40:19.998Z</time></trkpt><trkpt lat="45.05701989584327" lon="8.15597681598217"><ele>202.0</ele><time>2026-04-18T14:40:20.998Z</time></trkpt><trkpt lat="45.05692792625342" lon="8.155965201306286"><ele>201.99999999999997</ele><time>2026-04-18T14:40:21.998Z</time></trkpt><trkpt lat="45.05683654048239" lon="8.15595492410991"><ele>202.0</ele><time>2026-04-18T14:40:22.998Z</time></trkpt><trkpt lat="45.05675320792917" lon="8.155952394232093"><ele>202.0</ele><time>2026-04-18T14:40:23.998Z</time></trkpt><trkpt lat="45.05668590507607" lon="8.15594443803496"><ele>202.0</ele><time>2026-04-18T14:40:24.998Z</time></trkpt><trkpt lat="45.05660177461384" lon="8.155935258933738"><ele>201.99999999999997</ele><time>2026-04-18T14:40:25.998Z</time></trkpt><trkpt lat="45.05652259609101" lon="8.155924236515416"><ele>202.0</ele><time>2026-04-18T14:40:26.998Z</time></trkpt><trkpt lat="45.05643552896713" lon="8.155919000444008"><ele>202.33333333333331</ele><time>2026-04-18T14:40:27.998Z</time></trkpt><trkpt lat="45.056359035170686" lon="8.155916478706976"><ele>202.66666666666666</ele><time>2026-04-18T14:40:28.999Z</time></trkpt><trkpt lat="45.05627856412408" lon="8.15591728171763"><ele>203.0</ele><time>2026-04-18T14:40:29.999Z</time></trkpt><trkpt lat="45.056175852872244" lon="8.155917287205325"><ele>203.33333333333331</ele><time>2026-04-18T14:40:30.999Z</time></trkpt><trkpt lat="45.0560864512412" lon="8.155910884641013"><ele>203.66666666666666</ele><time>2026-04-18T14:40:31.999Z</time></trkpt><trkpt lat="45.05599921105439" lon="8.155895787777588"><ele>204.0</ele><time>2026-04-18T14:40:32.999Z</time></trkpt><trkpt lat="45.05592359329816" lon="8.15587413319228"><ele>204.0</ele><time>2026-04-18T14:40:33.999Z</time></trkpt><trkpt lat="45.055791813275896" lon="8.15582859087196"><ele>204.0</ele><time>2026-04-18T14:40:35.999Z</time></trkpt><trkpt lat="45.05566348397147" lon="8.155783322423874"><ele>204.0</ele><time>2026-04-18T14:40:37.999Z</time></trkpt><trkpt lat="45.05556458668226" lon="8.155745664400472"><ele>204.0</ele><time>2026-04-18T14:40:39.999Z</time></trkpt><trkpt lat="45.0554505255529" lon="8.155714007005598"><ele>202.39999999999998</ele><time>2026-04-18T14:40:41.999Z</time></trkpt><trkpt lat="45.05533438865478" lon="8.155683450145572"><ele>200.8</ele><time>2026-04-18T14:40:43.999Z</time></trkpt><trkpt lat="45.05522755779468" lon="8.155640732197236"><ele>199.2</ele><time>2026-04-18T14:40:45.999Z</time></trkpt><trkpt lat="45.05511698707135" lon="8.155588088850132"><ele>197.60000000000002</ele><time>2026-04-18T14:40:47.999Z</time></trkpt><trkpt lat="45.05505435531062" lon="8.155539971397358"><ele>196.0</ele><time>2026-04-18T14:40:49.999Z</time></trkpt><trkpt lat="45.05501706284863" lon="8.155647942188013"><ele>196.8</ele><time>2026-04-18T14:40:59.999Z</time></trkpt><trkpt lat="45.055034412662344" lon="8.155747885692884"><ele>197.60000000000002</ele><time>2026-04-18T14:41:00.999Z</time></trkpt><trkpt lat="45.055053800743345" lon="8.155847671507477"><ele>198.4</ele><time>2026-04-18T14:41:01.999Z</time></trkpt><trkpt lat="45.05508712730512" lon="8.155965525771759"><ele>199.2</ele><time>2026-04-18T14:41:02.999Z</time></trkpt><trkpt lat="45.05511532237204" lon="8.1561328543839"><ele>200.0</ele><time>2026-04-18T14:41:03.999Z</time></trkpt><trkpt lat="45.05516433934303" lon="8.156297338271845"><ele>200.00000000000003</ele><time>2026-04-18T14:41:04.999Z</time></trkpt><trkpt lat="45.05519488939524" lon="8.156393186898372"><ele>200.0</ele><time>2026-04-18T14:41:05.999Z</time></trkpt><trkpt lat="45.055257046098724" lon="8.156529103406976"><ele>200.0</ele><time>2026-04-18T14:41:07.999Z</time></trkpt><trkpt lat="45.05529172580989" lon="8.156628653277684"><ele>200.0</ele><time>2026-04-18T14:41:08.999Z</time></trkpt><trkpt lat="45.05531552741837" lon="8.156716535607506"><ele>200.00000000000003</ele><time>2026-04-18T14:41:09.999Z</time></trkpt><trkpt lat="45.05533263132093" lon="8.156811421928404"><ele>200.0</ele><time>2026-04-18T14:41:10.999Z</time></trkpt><trkpt lat="45.05533783580521" lon="8.15700157223865"><ele>201.6</ele><time>2026-04-18T14:41:12.999Z</time></trkpt><trkpt lat="45.05534368614211" lon="8.157136690640545"><ele>203.2</ele><time>2026-04-18T14:41:13.999Z</time></trkpt><trkpt lat="45.0553592390316" lon="8.157247085215811"><ele>204.8</ele><time>2026-04-18T14:41:14.999Z</time></trkpt><trkpt lat="45.05539077819756" lon="8.157368776903338"><ele>206.4</ele><time>2026-04-18T14:41:15.999Z</time></trkpt><trkpt lat="45.055429807755885" lon="8.15751577891123"><ele>208.0</ele><time>2026-04-18T14:41:16.999Z</time></trkpt><trkpt lat="45.05548643277964" lon="8.157643944816611"><ele>209.75</ele><time>2026-04-18T14:41:17.999Z</time></trkpt><trkpt lat="45.05554986606796" lon="8.157776494757147"><ele>211.5</ele><time>2026-04-18T14:41:18.999Z</time></trkpt><trkpt lat="45.05562869398438" lon="8.157933329912657"><ele>213.25</ele><time>2026-04-18T14:41:19.999Z</time></trkpt><trkpt lat="45.05570080412735" lon="8.158075508891425"><ele>215.0</ele><time>2026-04-18T14:41:20.999Z</time></trkpt><trkpt lat="45.05576645676859" lon="8.158211366686494"><ele>216.25</ele><time>2026-04-18T14:41:21.999Z</time></trkpt><trkpt lat="45.05584197745125" lon="8.15836596994824"><ele>217.5</ele><time>2026-04-18T14:41:22.999Z</time></trkpt><trkpt lat="45.05591180992342" lon="8.158530897410248"><ele>218.75</ele><time>2026-04-18T14:41:23.999Z</time></trkpt><trkpt lat="45.05597596644159" lon="8.158709176171774"><ele>220.0</ele><time>2026-04-18T14:41:24.999Z</time></trkpt><trkpt lat="45.05603860234194" lon="8.158903011443359"><ele>222.0</ele><time>2026-04-18T14:41:25.999Z</time></trkpt><trkpt lat="45.05609878263859" lon="8.159086515283056"><ele>224.0</ele><time>2026-04-18T14:41:26.999Z</time></trkpt><trkpt lat="45.05614698277024" lon="8.159223993040555"><ele>226.0</ele><time>2026-04-18T14:41:27.999Z</time></trkpt><trkpt lat="45.05617711081592" lon="8.15931516535952"><ele>228.0</ele><time>2026-04-18T14:41:28.999Z</time></trkpt><trkpt lat="45.056202975118524" lon="8.159404891058424"><ele>230.0</ele><time>2026-04-18T14:41:29.999Z</time></trkpt><trkpt lat="45.05625183442082" lon="8.159536538595173"><ele>230.00000000000003</ele><time>2026-04-18T14:41:31.999Z</time></trkpt><trkpt lat="45.05628623550669" lon="8.15961234020259"><ele>230.0</ele><time>2026-04-18T14:41:32.999Z</time></trkpt><trkpt lat="45.05633109219442" lon="8.159707098574252"><ele>230.0</ele><time>2026-04-18T14:41:33.999Z</time></trkpt><trkpt lat="45.05636648341404" lon="8.15979338169888"><ele>230.0</ele><time>2026-04-18T14:41:34.999Z</time></trkpt><trkpt lat="45.05640254875647" lon="8.159888994747295"><ele>230.00000000000003</ele><time>2026-04-18T14:41:35.999Z</time></trkpt><trkpt lat="45.05644408979176" lon="8.15998258599194"><ele>230.0</ele><time>2026-04-18T14:41:36.999Z</time></trkpt><trkpt lat="45.056493571604655" lon="8.160082582113281"><ele>230.16666666666669</ele><time>2026-04-18T14:41:37.999Z</time></trkpt><trkpt lat="45.056541037966916" lon="8.160189182754822"><ele>230.33333333333334</ele><time>2026-04-18T14:41:38.999Z</time></trkpt><trkpt lat="45.05658498128494" lon="8.160273584620741"><ele>230.5</ele><time>2026-04-18T14:41:39.999Z</time></trkpt><trkpt lat="45.0566289237666" lon="8.160374568374094"><ele>230.66666666666669</ele><time>2026-04-18T14:41:40.999Z</time></trkpt><trkpt lat="45.05669033925659" lon="8.160501445780948"><ele>230.83333333333334</ele><time>2026-04-18T14:41:42.999Z</time></trkpt><trkpt lat="45.05672591740692" lon="8.160598315810443"><ele>231.0</ele><time>2026-04-18T14:41:45.999Z</time></trkpt><trkpt lat="45.056761555099044" lon="8.160707216873638"><ele>232.0</ele><time>2026-04-18T14:41:55.999Z</time></trkpt><trkpt lat="45.05679362173617" lon="8.160790257425054"><ele>233.00000000000003</ele><time>2026-04-18T14:41:56.999Z</time></trkpt><trkpt lat="45.05684847986246" lon="8.160981354183424"><ele>234.00000000000003</ele><time>2026-04-18T14:41:58.999Z</time></trkpt><trkpt lat="45.0568759536921" lon="8.161106059103927"><ele>235.0</ele><time>2026-04-18T14:41:59.999Z</time></trkpt><trkpt lat="45.05690424229268" lon="8.161244307755794"><ele>236.0</ele><time>2026-04-18T14:42:00.999Z</time></trkpt><trkpt lat="45.05693094209651" lon="8.161376416982762"><ele>236.0</ele><time>2026-04-18T14:42:01.999Z</time></trkpt><trkpt lat="45.056957210542365" lon="8.161521524128837"><ele>236.00000000000003</ele><time>2026-04-18T14:42:02.999Z</time></trkpt><trkpt lat="45.056985663087644" lon="8.161669247576691"><ele>236.00000000000003</ele><time>2026-04-18T14:42:03.999Z</time></trkpt><trkpt lat="45.05701460489329" lon="8.161817744966026"><ele>236.0</ele><time>2026-04-18T14:42:04.999Z</time></trkpt><trkpt lat="45.05703446790768" lon="8.161947052261219"><ele>236.0</ele><time>2026-04-18T14:42:05.999Z</time></trkpt><trkpt lat="45.0570517334982" lon="8.1620522707448"><ele>237.00000000000003</ele><time>2026-04-18T14:42:06.999Z</time></trkpt><trkpt lat="45.05706405082786" lon="8.162149497542432"><ele>238.0</ele><time>2026-04-18T14:42:07.999Z</time></trkpt><trkpt lat="45.05707206000102" lon="8.162301679482354"><ele>239.0</ele><time>2026-04-18T14:42:09.999Z</time></trkpt><trkpt lat="45.05703376171786" lon="8.16241045489738"><ele>240.0</ele><time>2026-04-18T14:42:11.999Z</time></trkpt><trkpt lat="45.057015754283725" lon="8.162528526959864"><ele>241.00000000000003</ele><time>2026-04-18T14:42:13.999Z</time></trkpt><trkpt lat="45.057071303447074" lon="8.162458775151443"><ele>242.0</ele><time>2026-04-18T14:42:36Z</time></trkpt><trkpt lat="45.05714206138074" lon="8.162399366589177"><ele>242.0</ele><time>2026-04-18T14:42:38Z</time></trkpt><trkpt lat="45.05722689896647" lon="8.16238068599246"><ele>242.0</ele><time>2026-04-18T14:42:40Z</time></trkpt><trkpt lat="45.05728530958509" lon="8.162344268987663"><ele>242.0</ele><time>2026-04-18T14:42:42Z</time></trkpt><trkpt lat="45.057131465805405" lon="8.16273718808505"><ele>242.66666666666669</ele><time>2026-04-18T14:42:45Z</time></trkpt><trkpt lat="45.05717905466415" lon="8.162823191676503"><ele>243.33333333333334</ele><time>2026-04-18T14:42:47Z</time></trkpt><trkpt lat="45.057223835914975" lon="8.162910749123894"><ele>244.0</ele><time>2026-04-18T14:42:49Z</time></trkpt><trkpt lat="45.0572820621307" lon="8.163021837270806"><ele>244.66666666666669</ele><time>2026-04-18T14:42:52Z</time></trkpt><trkpt lat="45.05734014847035" lon="8.163138266607042"><ele>245.33333333333334</ele><time>2026-04-18T14:42:55Z</time></trkpt><trkpt lat="45.057386892850246" lon="8.163235267536189"><ele>246.0</ele><time>2026-04-18T14:42:57Z</time></trkpt><trkpt lat="45.05743404962568" lon="8.16333312233853"><ele>244.66666666666669</ele><time>2026-04-18T14:42:59Z</time></trkpt><trkpt lat="45.05748146638739" lon="8.163431513133006"><ele>243.33333333333334</ele><time>2026-04-18T14:43:01Z</time></trkpt><trkpt lat="45.05755734028412" lon="8.163556279797263"><ele>242.0</ele><time>2026-04-18T14:43:03Z</time></trkpt><trkpt lat="45.05802676435443" lon="8.16318853180887"><ele>242.00000000000003</ele><time>2026-04-18T14:43:04Z</time></trkpt><trkpt lat="45.0581263051586" lon="8.16326999896342"><ele>242.0</ele><time>2026-04-18T14:43:06Z</time></trkpt><trkpt lat="45.058184535203395" lon="8.163315682444535"><ele>242.0</ele><time>2026-04-18T14:43:07Z</time></trkpt><trkpt lat="45.05824622191574" lon="8.1633579094914"><ele>242.0</ele><time>2026-04-18T14:43:08Z</time></trkpt><trkpt lat="45.058309800589015" lon="8.163407805173211"><ele>242.00000000000003</ele><time>2026-04-18T14:43:09Z</time></trkpt><trkpt lat="45.05838004084062" lon="8.163460662222368"><ele>242.0</ele><time>2026-04-18T14:43:10Z</time></trkpt><trkpt lat="45.05845599685014" lon="8.163520707138963"><ele>239.57142857142856</ele><time>2026-04-18T14:43:11Z</time></trkpt><trkpt lat="45.05852786341873" lon="8.163573326509413"><ele>237.1428571428571</ele><time>2026-04-18T14:43:12Z</time></trkpt><trkpt lat="45.05860644318835" lon="8.163630844374829"><ele>234.71428571428572</ele><time>2026-04-18T14:43:13Z</time></trkpt><trkpt lat="45.058667012637585" lon="8.163675831678633"><ele>232.28571428571428</ele><time>2026-04-18T14:43:14Z</time></trkpt><trkpt lat="45.058734304493406" lon="8.16372578130387"><ele>229.85714285714286</ele><time>2026-04-18T14:43:15Z</time></trkpt><trkpt lat="45.05879577244464" lon="8.163768767793552"><ele>227.42857142857144</ele><time>2026-04-18T14:43:16Z</time></trkpt><trkpt lat="45.05885342009901" lon="8.163809822032363"><ele>225.00000000000003</ele><time>2026-04-18T14:43:17Z</time></trkpt><trkpt lat="45.05894431821802" lon="8.163858033176538"><ele>225.4</ele><time>2026-04-18T14:43:19Z</time></trkpt><trkpt lat="45.058952553879266" lon="8.164099485639612"><ele>225.8</ele><time>2026-04-18T14:43:20Z</time></trkpt><trkpt lat="45.05903552374078" lon="8.164121032259779"><ele>226.2</ele><time>2026-04-18T14:43:23Z</time></trkpt><trkpt lat="45.05909822061868" lon="8.164149409345319"><ele>226.6</ele><time>2026-04-18T14:43:26Z</time></trkpt><trkpt lat="45.059167703457284" lon="8.164189596916092"><ele>227.0</ele><time>2026-04-18T14:43:31Z</time></trkpt><trkpt lat="45.0592724895707" lon="8.164264270238451"><ele>227.0</ele><time>2026-04-18T14:43:33Z</time></trkpt><trkpt lat="45.05937403210719" lon="8.16434070971726"><ele>227.0</ele><time>2026-04-18T14:43:35Z</time></trkpt><trkpt lat="45.0594687476476" lon="8.164412010081236"><ele>227.0</ele><time>2026-04-18T14:43:37Z</time></trkpt><trkpt lat="45.05955292372707" lon="8.164475005521213"><ele>227.0</ele><time>2026-04-18T14:43:39Z</time></trkpt><trkpt lat="45.05966433613822" lon="8.164559337490626"><ele>227.0</ele><time>2026-04-18T14:43:41Z</time></trkpt><trkpt lat="45.05972673383016" lon="8.164606605097806"><ele>227.0</ele><time>2026-04-18T14:43:42Z</time></trkpt><trkpt lat="45.05978283935273" lon="8.164649106453863"><ele>227.0</ele><time>2026-04-18T14:43:43Z</time></trkpt><trkpt lat="45.059870463297266" lon="8.164714466229567"><ele>227.0</ele><time>2026-04-18T14:43:45Z</time></trkpt><trkpt lat="45.05998890919903" lon="8.164399256375185"><ele>227.0</ele><time>2026-04-18T14:43:54Z</time></trkpt><trkpt lat="45.05991944759069" lon="8.16434463453774"><ele>227.00000000000003</ele><time>2026-04-18T14:43:55Z</time></trkpt><trkpt lat="45.05986812104988" lon="8.16426356845255"><ele>227.0</ele><time>2026-04-18T14:43:56Z</time></trkpt><trkpt lat="45.05981766321257" lon="8.164176442667335"><ele>227.0</ele><time>2026-04-18T14:43:58Z</time></trkpt><trkpt lat="45.059766711528255" lon="8.16408323698401"><ele>227.0</ele><time>2026-04-18T14:44:03Z</time></trkpt><trkpt lat="45.05970663820367" lon="8.163973040245184"><ele>227.00000000000003</ele><time>2026-04-18T14:44:05Z</time></trkpt><trkpt lat="45.05965773786544" lon="8.163884507455549"><ele>227.0</ele><time>2026-04-18T14:44:06Z</time></trkpt><trkpt lat="45.0596055151957" lon="8.163792068196459"><ele>223.33333333333334</ele><time>2026-04-18T14:44:07Z</time></trkpt><trkpt lat="45.05955348935613" lon="8.163699981124806"><ele>219.66666666666669</ele><time>2026-04-18T14:44:08Z</time></trkpt><trkpt lat="45.05946953524603" lon="8.163633392402538"><ele>216.0</ele><time>2026-04-18T14:44:11Z</time></trkpt><trkpt lat="45.058945063418946" lon="8.164076605171699"><ele>219.66666666666666</ele><time>2026-04-18T14:44:12Z</time></trkpt><trkpt lat="45.058881352309406" lon="8.16409930955149"><ele>223.33333333333331</ele><time>2026-04-18T14:44:13Z</time></trkpt><trkpt lat="45.05882691981647" lon="8.164163073376244"><ele>227.0</ele><time>2026-04-18T14:44:14Z</time></trkpt><trkpt lat="45.058789580950666" lon="8.164257834280951"><ele>230.66666666666666</ele><time>2026-04-18T14:44:15Z</time></trkpt><trkpt lat="45.05878709846891" lon="8.16436853248753"><ele>234.33333333333331</ele><time>2026-04-18T14:44:16Z</time></trkpt><trkpt lat="45.058817708753104" lon="8.164495470028829"><ele>238.0</ele><time>2026-04-18T14:44:17Z</time></trkpt><trkpt lat="45.05886008451668" lon="8.164623294802304"><ele>238.0</ele><time>2026-04-18T14:44:18Z</time></trkpt><trkpt lat="45.05890954627066" lon="8.16473597787431"><ele>238.0</ele><time>2026-04-18T14:44:19Z</time></trkpt><trkpt lat="45.0589609533692" lon="8.164859539694202"><ele>238.0</ele><time>2026-04-18T14:44:20Z</time></trkpt><trkpt lat="45.059012569545644" lon="8.1649756882289"><ele>238.0</ele><time>2026-04-18T14:44:21Z</time></trkpt><trkpt lat="45.05907085558963" lon="8.165116357371788"><ele>238.0</ele><time>2026-04-18T14:44:22Z</time></trkpt><trkpt lat="45.05916696529947" lon="8.165322491760355"><ele>237.0</ele><time>2026-04-18T14:44:23Z</time></trkpt><trkpt lat="45.059284835018026" lon="8.165559544645335"><ele>236.0</ele><time>2026-04-18T14:44:24Z</time></trkpt><trkpt lat="45.05938633430659" lon="8.165769104444193"><ele>235.0</ele><time>2026-04-18T14:44:25Z</time></trkpt><trkpt lat="45.05946651419102" lon="8.165937181600952"><ele>237.0</ele><time>2026-04-18T14:44:26Z</time></trkpt><trkpt lat="45.059536255393326" lon="8.166088700928611"><ele>239.0</ele><time>2026-04-18T14:44:27Z</time></trkpt><trkpt lat="45.05959874824148" lon="8.166236920114114"><ele>241.0</ele><time>2026-04-18T14:44:28Z</time></trkpt><trkpt lat="45.059645671570564" lon="8.166398741029223"><ele>243.0</ele><time>2026-04-18T14:44:29Z</time></trkpt><trkpt lat="45.05968105630747" lon="8.166564649001888"><ele>243.4</ele><time>2026-04-18T14:44:30Z</time></trkpt><trkpt lat="45.05970280579848" lon="8.166718648616692"><ele>243.8</ele><time>2026-04-18T14:44:31Z</time></trkpt><trkpt lat="45.05972818110417" lon="8.166872832386373"><ele>244.2</ele><time>2026-04-18T14:44:32Z</time></trkpt><trkpt lat="45.05976305553128" lon="8.167024520829683"><ele>244.6</ele><time>2026-04-18T14:44:33Z</time></trkpt><trkpt lat="45.05979448003378" lon="8.167166402703907"><ele>245.0</ele><time>2026-04-18T14:44:34Z</time></trkpt><trkpt lat="45.05981702360322" lon="8.167294605582201"><ele>244.66666666666669</ele><time>2026-04-18T14:44:35Z</time></trkpt><trkpt lat="45.05980987048792" lon="8.167416708486035"><ele>244.33333333333334</ele><time>2026-04-18T14:44:36Z</time></trkpt><trkpt lat="45.05975125781725" lon="8.167514766437101"><ele>244.0</ele><time>2026-04-18T14:44:37Z</time></trkpt><trkpt lat="45.05969664190612" lon="8.167574069676752"><ele>243.66666666666669</ele><time>2026-04-18T14:44:38Z</time></trkpt><trkpt lat="45.05966326373644" lon="8.167681982538163"><ele>243.33333333333334</ele><time>2026-04-18T14:44:40Z</time></trkpt><trkpt lat="45.059671558467436" lon="8.167798801591069"><ele>243.0</ele><time>2026-04-18T14:44:41.001Z</time></trkpt><trkpt lat="45.059698335058904" lon="8.1679298961046"><ele>243.0</ele><time>2026-04-18T14:44:42.001Z</time></trkpt><trkpt lat="45.059742699696805" lon="8.168088635030328"><ele>243.0</ele><time>2026-04-18T14:44:43.001Z</time></trkpt><trkpt lat="45.059801621203796" lon="8.1682504086566"><ele>243.0</ele><time>2026-04-18T14:44:44.001Z</time></trkpt><trkpt lat="45.059851672076555" lon="8.168396224757673"><ele>243.0</ele><time>2026-04-18T14:44:45.001Z</time></trkpt><trkpt lat="45.059888142249754" lon="8.168515928276063"><ele>243.0</ele><time>2026-04-18T14:44:46.001Z</time></trkpt><trkpt lat="45.05990341664929" lon="8.168629912656906"><ele>243.0</ele><time>2026-04-18T14:44:47.001Z</time></trkpt><trkpt lat="45.05990305034483" lon="8.168733282860194"><ele>243.0</ele><time>2026-04-18T14:44:48.001Z</time></trkpt><trkpt lat="45.05988348924647" lon="8.16883462058234"><ele>243.0</ele><time>2026-04-18T14:44:49.001Z</time></trkpt><trkpt lat="45.05986194250164" lon="8.168938994638127"><ele>243.0</ele><time>2026-04-18T14:44:50.001Z</time></trkpt><trkpt lat="45.05992876364988" lon="8.169075628327692"><ele>243.0</ele><time>2026-04-18T14:44:51.001Z</time></trkpt><trkpt lat="45.05995932734116" lon="8.169212584798982"><ele>243.83333333333334</ele><time>2026-04-18T14:44:52.001Z</time></trkpt><trkpt lat="45.0599882384927" lon="8.169343420818748"><ele>244.66666666666669</ele><time>2026-04-18T14:44:53.001Z</time></trkpt><trkpt lat="45.06001125985663" lon="8.169448815619928"><ele>245.5</ele><time>2026-04-18T14:44:54.001Z</time></trkpt><trkpt lat="45.060031333125366" lon="8.169534299131415"><ele>246.33333333333334</ele><time>2026-04-18T14:44:55.001Z</time></trkpt><trkpt lat="45.06005816321808" lon="8.169706061419712"><ele>247.16666666666669</ele><time>2026-04-18T14:44:57.001Z</time></trkpt><trkpt lat="45.06006385637366" lon="8.16980281946798"><ele>248.0</ele><time>2026-04-18T14:44:58.001Z</time></trkpt><trkpt lat="45.06007842751794" lon="8.169907735072972"><ele>249.16666666666669</ele><time>2026-04-18T14:44:59.001Z</time></trkpt><trkpt lat="45.060093201100095" lon="8.170019512654823"><ele>250.33333333333334</ele><time>2026-04-18T14:45:00.001Z</time></trkpt><trkpt lat="45.06010329334522" lon="8.170116321140725"><ele>251.5</ele><time>2026-04-18T14:45:01.001Z</time></trkpt><trkpt lat="45.060111798246986" lon="8.170221817894006"><ele>252.66666666666669</ele><time>2026-04-18T14:45:04.001Z</time></trkpt><trkpt lat="45.06011973031244" lon="8.170349611557075"><ele>253.83333333333334</ele><time>2026-04-18T14:45:06.001Z</time></trkpt><trkpt lat="45.0601177336819" lon="8.170500366220596"><ele>255.0</ele><time>2026-04-18T14:45:07.001Z</time></trkpt><trkpt lat="45.06011718890162" lon="8.170666625856537"><ele>255.66666666666666</ele><time>2026-04-18T14:45:08.001Z</time></trkpt><trkpt lat="45.060119742231954" lon="8.170784508634085"><ele>256.3333333333333</ele><time>2026-04-18T14:45:09.001Z</time></trkpt><trkpt lat="45.06012446411184" lon="8.17089141047528"><ele>257.0</ele><time>2026-04-18T14:45:10.001Z</time></trkpt><trkpt lat="45.06013064546252" lon="8.171017532188985"><ele>257.66666666666663</ele><time>2026-04-18T14:45:11.001Z</time></trkpt><trkpt lat="45.06013883347131" lon="8.171155732090895"><ele>258.3333333333333</ele><time>2026-04-18T14:45:12.001Z</time></trkpt><trkpt lat="45.06015182824076" lon="8.171300478451078"><ele>259.0</ele><time>2026-04-18T14:45:13.001Z</time></trkpt><trkpt lat="45.06016747915387" lon="8.171430943777919"><ele>260.2</ele><time>2026-04-18T14:45:14.001Z</time></trkpt><trkpt lat="45.060171316186775" lon="8.17154594688277"><ele>261.4</ele><time>2026-04-18T14:45:15.001Z</time></trkpt><trkpt lat="45.060161806411074" lon="8.17166922785942"><ele>262.6</ele><time>2026-04-18T14:45:16.001Z</time></trkpt><trkpt lat="45.060144769312544" lon="8.17183083957603"><ele>263.8</ele><time>2026-04-18T14:45:17.001Z</time></trkpt><trkpt lat="45.06011549713239" lon="8.172019103539528"><ele>265.0</ele><time>2026-04-18T14:45:18.001Z</time></trkpt><trkpt lat="45.06005378707128" lon="8.172216662702745"><ele>266.0</ele><time>2026-04-18T14:45:19.001Z</time></trkpt><trkpt lat="45.060023351272676" lon="8.172407457183493"><ele>267.0</ele><time>2026-04-18T14:45:20.001Z</time></trkpt><trkpt lat="45.05998863913961" lon="8.172541104434142"><ele>268.0</ele><time>2026-04-18T14:45:21.001Z</time></trkpt><trkpt lat="45.05995935200803" lon="8.172655776925632"><ele>269.0</ele><time>2026-04-18T14:45:22.001Z</time></trkpt><trkpt lat="45.059932459211474" lon="8.172749355273105"><ele>270.0</ele><time>2026-04-18T14:45:23.001Z</time></trkpt><trkpt lat="45.05990579138902" lon="8.172866010828045"><ele>270.0</ele><time>2026-04-18T14:45:24.001Z</time></trkpt><trkpt lat="45.05987849856975" lon="8.172993280723755"><ele>270.0</ele><time>2026-04-18T14:45:25Z</time></trkpt><trkpt lat="45.05984671152969" lon="8.173124901891025"><ele>270.0</ele><time>2026-04-18T14:45:26Z</time></trkpt><trkpt lat="45.059812830841985" lon="8.173261545276159"><ele>270.0</ele><time>2026-04-18T14:45:27Z</time></trkpt><trkpt lat="45.059776679470204" lon="8.173399647415001"><ele>270.0</ele><time>2026-04-18T14:45:28Z</time></trkpt><trkpt lat="45.0597478693745" lon="8.173510502431196"><ele>271.6</ele><time>2026-04-18T14:45:29Z</time></trkpt><trkpt lat="45.05972295726495" lon="8.173613356797333"><ele>273.2</ele><time>2026-04-18T14:45:30Z</time></trkpt><trkpt lat="45.05968967397923" lon="8.173749461223371"><ele>274.8</ele><time>2026-04-18T14:45:32Z</time></trkpt><trkpt lat="45.05966386582917" lon="8.17383281632504"><ele>276.4</ele><time>2026-04-18T14:45:34Z</time></trkpt><trkpt lat="45.059605726833276" lon="8.17400164773826"><ele>278.0</ele><time>2026-04-18T14:45:36Z</time></trkpt><trkpt lat="45.05955009461516" lon="8.17411015317449"><ele>280.2</ele><time>2026-04-18T14:45:37Z</time></trkpt><trkpt lat="45.05947027240005" lon="8.17420245095848"><ele>282.4</ele><time>2026-04-18T14:45:38Z</time></trkpt><trkpt lat="45.05941588322586" lon="8.174312794873382"><ele>284.59999999999997</ele><time>2026-04-18T14:45:39Z</time></trkpt><trkpt lat="45.05934225761786" lon="8.17440888564932"><ele>286.8</ele><time>2026-04-18T14:45:40Z</time></trkpt><trkpt lat="45.05927453676295" lon="8.174504322810643"><ele>289.0</ele><time>2026-04-18T14:45:41Z</time></trkpt><trkpt lat="45.05921619387803" lon="8.174601082127827"><ele>289.0</ele><time>2026-04-18T14:45:42Z</time></trkpt><trkpt lat="45.05915645174749" lon="8.174713474971902"><ele>289.0</ele><time>2026-04-18T14:45:43Z</time></trkpt><trkpt lat="45.059091451532424" lon="8.174845701426149"><ele>289.0</ele><time>2026-04-18T14:45:44Z</time></trkpt><trkpt lat="45.0590256524957" lon="8.174988199115475"><ele>289.0</ele><time>2026-04-18T14:45:45Z</time></trkpt><trkpt lat="45.05896807097195" lon="8.175138020396046"><ele>290.59999999999997</ele><time>2026-04-18T14:45:46Z</time></trkpt><trkpt lat="45.058926846801285" lon="8.175280236015327"><ele>292.2</ele><time>2026-04-18T14:45:47Z</time></trkpt><trkpt lat="45.05889236783704" lon="8.175418525975127"><ele>293.79999999999995</ele><time>2026-04-18T14:45:48Z</time></trkpt><trkpt lat="45.05886227241162" lon="8.175560366309584"><ele>295.4</ele><time>2026-04-18T14:45:49Z</time></trkpt><trkpt lat="45.05882915809771" lon="8.175716898666911"><ele>297.0</ele><time>2026-04-18T14:45:50Z</time></trkpt><trkpt lat="45.05879824668927" lon="8.175876459337303"><ele>298.4</ele><time>2026-04-18T14:45:51Z</time></trkpt><trkpt lat="45.058770660443464" lon="8.17602619207125"><ele>299.79999999999995</ele><time>2026-04-18T14:45:52Z</time></trkpt><trkpt lat="45.05874722486629" lon="8.176154041645635"><ele>301.2</ele><time>2026-04-18T14:45:53Z</time></trkpt><trkpt lat="45.058726953364385" lon="8.176277082419634"><ele>302.59999999999997</ele><time>2026-04-18T14:45:54Z</time></trkpt><trkpt lat="45.05870986843479" lon="8.176411392713996"><ele>304.0</ele><time>2026-04-18T14:45:55Z</time></trkpt><trkpt lat="45.05868976912514" lon="8.176539999143767"><ele>304.3333333333333</ele><time>2026-04-18T14:45:56Z</time></trkpt><trkpt lat="45.058672130886244" lon="8.176626240881111"><ele>304.66666666666663</ele><time>2026-04-18T14:45:57Z</time></trkpt><trkpt lat="45.05866708406201" lon="8.17672172387624"><ele>305.0</ele><time>2026-04-18T14:45:59Z</time></trkpt><trkpt lat="45.05876900719332" lon="8.176793657678504"><ele>305.3333333333333</ele><time>2026-04-18T14:46:02Z</time></trkpt><trkpt lat="45.058877907234624" lon="8.17678541979602"><ele>305.6666666666667</ele><time>2026-04-18T14:46:03Z</time></trkpt><trkpt lat="45.05896925210349" lon="8.176778355589297"><ele>306.0</ele><time>2026-04-18T14:46:04Z</time></trkpt><trkpt lat="45.05904681997372" lon="8.17676862315154"><ele>306.8</ele><time>2026-04-18T14:46:05Z</time></trkpt><trkpt lat="45.05913778467073" lon="8.176757626028845"><ele>307.6</ele><time>2026-04-18T14:46:06Z</time></trkpt><trkpt lat="45.0592460973199" lon="8.176748836943627"><ele>308.4</ele><time>2026-04-18T14:46:07Z</time></trkpt><trkpt lat="45.05936281332919" lon="8.176743376727066"><ele>309.2</ele><time>2026-04-18T14:46:08Z</time></trkpt><trkpt lat="45.05947870131999" lon="8.176754882971714"><ele>310.0</ele><time>2026-04-18T14:46:09Z</time></trkpt><trkpt lat="45.059573495191266" lon="8.176793755093543"><ele>310.0</ele><time>2026-04-18T14:46:10Z</time></trkpt><trkpt lat="45.059655796803284" lon="8.176858706570341"><ele>310.0</ele><time>2026-04-18T14:46:11Z</time></trkpt><trkpt lat="45.05973059774784" lon="8.176932717228928"><ele>310.0</ele><time>2026-04-18T14:46:12Z</time></trkpt><trkpt lat="45.0598096771376" lon="8.177028085966647"><ele>310.0</ele><time>2026-04-18T14:46:13Z</time></trkpt><trkpt lat="45.059888093340795" lon="8.177118678079434"><ele>310.0</ele><time>2026-04-18T14:46:14Z</time></trkpt><trkpt lat="45.059957116828386" lon="8.17719146052746"><ele>310.16666666666663</ele><time>2026-04-18T14:46:15Z</time></trkpt><trkpt lat="45.06001060257677" lon="8.177257126652819"><ele>310.3333333333333</ele><time>2026-04-18T14:46:16Z</time></trkpt><trkpt lat="45.06006402298747" lon="8.177319053498529"><ele>310.5</ele><time>2026-04-18T14:46:17Z</time></trkpt><trkpt lat="45.06011914343006" lon="8.177392505697362"><ele>310.6666666666667</ele><time>2026-04-18T14:46:18Z</time></trkpt><trkpt lat="45.06017678452366" lon="8.177497596748724"><ele>310.83333333333337</ele><time>2026-04-18T14:46:19Z</time></trkpt><trkpt lat="45.06023734842493" lon="8.177627519421984"><ele>311.0</ele><time>2026-04-18T14:46:20Z</time></trkpt><trkpt lat="45.06029927083413" lon="8.177780027404154"><ele>311.0</ele><time>2026-04-18T14:46:21Z</time></trkpt><trkpt lat="45.060372557713144" lon="8.177925293208874"><ele>311.0</ele><time>2026-04-18T14:46:22Z</time></trkpt><trkpt lat="45.060439653815486" lon="8.178044318321009"><ele>311.0</ele><time>2026-04-18T14:46:23Z</time></trkpt><trkpt lat="45.060503444438744" lon="8.178150694708483"><ele>311.0</ele><time>2026-04-18T14:46:24Z</time></trkpt><trkpt lat="45.060559000592804" lon="8.17824351112075"><ele>311.0</ele><time>2026-04-18T14:46:25Z</time></trkpt><trkpt lat="45.06061895089776" lon="8.178352326190351"><ele>311.0</ele><time>2026-04-18T14:46:26Z</time></trkpt><trkpt lat="45.060690764645784" lon="8.178464036473917"><ele>311.0</ele><time>2026-04-18T14:46:27Z</time></trkpt><trkpt lat="45.06076203396484" lon="8.17858584885655"><ele>311.0</ele><time>2026-04-18T14:46:28Z</time></trkpt><trkpt lat="45.060838559506735" lon="8.17871192702427"><ele>311.0</ele><time>2026-04-18T14:46:29Z</time></trkpt><trkpt lat="45.06091897741141" lon="8.178829209830402"><ele>312.75</ele><time>2026-04-18T14:46:30Z</time></trkpt><trkpt lat="45.061010114269486" lon="8.17893693586942"><ele>314.5</ele><time>2026-04-18T14:46:31Z</time></trkpt><trkpt lat="45.06110887116142" lon="8.179042684006975"><ele>316.25</ele><time>2026-04-18T14:46:32Z</time></trkpt><trkpt lat="45.06120493500168" lon="8.179135379716653"><ele>318.0</ele><time>2026-04-18T14:46:33Z</time></trkpt><trkpt lat="45.06128392283054" lon="8.179228526770599"><ele>318.4</ele><time>2026-04-18T14:46:34Z</time></trkpt><trkpt lat="45.061361227303955" lon="8.179319632275485"><ele>318.8</ele><time>2026-04-18T14:46:35Z</time></trkpt><trkpt lat="45.06143731036189" lon="8.17941450876191"><ele>319.2</ele><time>2026-04-18T14:46:36Z</time></trkpt><trkpt lat="45.06151558688832" lon="8.17951121612209"><ele>319.6</ele><time>2026-04-18T14:46:37Z</time></trkpt><trkpt lat="45.06159038148549" lon="8.179616382952462"><ele>320.0</ele><time>2026-04-18T14:46:38Z</time></trkpt><trkpt lat="45.06167000842125" lon="8.179691751098774"><ele>324.25</ele><time>2026-04-18T14:46:39Z</time></trkpt><trkpt lat="45.06168852319122" lon="8.179880449235442"><ele>328.5</ele><time>2026-04-18T14:46:40Z</time></trkpt><trkpt lat="45.06171944673016" lon="8.180026604597938"><ele>332.75</ele><time>2026-04-18T14:46:41Z</time></trkpt><trkpt lat="45.061753053425676" lon="8.180162807261771"><ele>337.0</ele><time>2026-04-18T14:46:42Z</time></trkpt><trkpt lat="45.06179600917334" lon="8.180299495317884"><ele>337.0</ele><time>2026-04-18T14:46:43Z</time></trkpt><trkpt lat="45.061839686050206" lon="8.180435903394148"><ele>337.0</ele><time>2026-04-18T14:46:44Z</time></trkpt><trkpt lat="45.061851925403" lon="8.180580571150044"><ele>337.0</ele><time>2026-04-18T14:46:45Z</time></trkpt><trkpt lat="45.06184915205565" lon="8.180700353457214"><ele>337.0</ele><time>2026-04-18T14:46:46Z</time></trkpt><trkpt lat="45.06182328178517" lon="8.180821964596053"><ele>337.0</ele><time>2026-04-18T14:46:48.001Z</time></trkpt><trkpt lat="45.06180190558811" lon="8.18092958024429"><ele>336.0</ele><time>2026-04-18T14:46:51Z</time></trkpt><trkpt lat="45.061773806601394" lon="8.181010497162863"><ele>335.0</ele><time>2026-04-18T14:46:52Z</time></trkpt><trkpt lat="45.06173354324848" lon="8.181114716029931"><ele>334.0</ele><time>2026-04-18T14:46:53Z</time></trkpt><trkpt lat="45.0616870351724" lon="8.181210166813045"><ele>333.0</ele><time>2026-04-18T14:46:54Z</time></trkpt><trkpt lat="45.06163240204393" lon="8.181302139252297"><ele>332.0</ele><time>2026-04-18T14:46:56Z</time></trkpt><trkpt lat="45.0615890912475" lon="8.181377300917744"><ele>331.0</ele><time>2026-04-18T14:47:01Z</time></trkpt><trkpt lat="45.06170596941452" lon="8.181609923062215"><ele>333.8</ele><time>2026-04-18T14:47:03Z</time></trkpt><trkpt lat="45.061750677344754" lon="8.181738548943237"><ele>336.6</ele><time>2026-04-18T14:47:05Z</time></trkpt><trkpt lat="45.06182256561938" lon="8.181838409490219"><ele>339.4</ele><time>2026-04-18T14:47:07Z</time></trkpt><trkpt lat="45.06193152216718" lon="8.181915256434898"><ele>342.2</ele><time>2026-04-18T14:47:09Z</time></trkpt><trkpt lat="45.06203503491" lon="8.18192482612232"><ele>345.0</ele><time>2026-04-18T14:47:11Z</time></trkpt><trkpt lat="45.06214361141638" lon="8.181961960764635"><ele>345.0</ele><time>2026-04-18T14:47:13Z</time></trkpt><trkpt lat="45.06225154705981" lon="8.181973561094006"><ele>345.0</ele><time>2026-04-18T14:47:15Z</time></trkpt><trkpt lat="45.06238898590369" lon="8.181939959580463"><ele>345.0</ele><time>2026-04-18T14:47:17Z</time></trkpt><trkpt lat="45.06258580045585" lon="8.181929277833472"><ele>345.0</ele><time>2026-04-18T14:47:19Z</time></trkpt><trkpt lat="45.06267036658144" lon="8.181927671516068"><ele>348.0</ele><time>2026-04-18T14:47:20Z</time></trkpt><trkpt lat="45.062766912398025" lon="8.181937945286164"><ele>351.0</ele><time>2026-04-18T14:47:21Z</time></trkpt><trkpt lat="45.06286655843679" lon="8.18196279005021"><ele>354.0</ele><time>2026-04-18T14:47:22Z</time></trkpt><trkpt lat="45.062974436212215" lon="8.182018123029245"><ele>357.0</ele><time>2026-04-18T14:47:23Z</time></trkpt><trkpt lat="45.06304286714459" lon="8.182081222266193"><ele>360.0</ele><time>2026-04-18T14:47:24Z</time></trkpt><trkpt lat="45.063087555001886" lon="8.18216165728911"><ele>360.0</ele><time>2026-04-18T14:47:25Z</time></trkpt><trkpt lat="45.06311620394511" lon="8.182253799898863"><ele>360.0</ele><time>2026-04-18T14:47:26Z</time></trkpt><trkpt lat="45.06312420172209" lon="8.182345899605943"><ele>360.0</ele><time>2026-04-18T14:47:27Z</time></trkpt><trkpt lat="45.06313769995416" lon="8.182457796952415"><ele>360.0</ele><time>2026-04-18T14:47:28Z</time></trkpt><trkpt lat="45.06317681569332" lon="8.182598625798036"><ele>360.0</ele><time>2026-04-18T14:47:30Z</time></trkpt><trkpt lat="45.06321281302406" lon="8.18273986464554"><ele>360.0</ele><time>2026-04-18T14:47:32Z</time></trkpt><trkpt lat="45.063191115695965" lon="8.182872795380742"><ele>358.0</ele><time>2026-04-18T14:47:34Z</time></trkpt><trkpt lat="45.06312433349878" lon="8.183008469040287"><ele>356.0</ele><time>2026-04-18T14:47:36Z</time></trkpt><trkpt lat="45.0630695867833" lon="8.183110180442874"><ele>354.0</ele><time>2026-04-18T14:47:37Z</time></trkpt><trkpt lat="45.06301939879103" lon="8.183194995854713"><ele>352.0</ele><time>2026-04-18T14:47:38Z</time></trkpt><trkpt lat="45.06292396222893" lon="8.183377036984579"><ele>350.0</ele><time>2026-04-18T14:47:39Z</time></trkpt><trkpt lat="45.062860996172034" lon="8.18344284721975"><ele>350.0</ele><time>2026-04-18T14:47:40Z</time></trkpt><trkpt lat="45.062780826531906" lon="8.183554722765043"><ele>350.0</ele><time>2026-04-18T14:47:42Z</time></trkpt><trkpt lat="45.06273549888418" lon="8.183624799763747"><ele>350.0</ele><time>2026-04-18T14:47:43.999Z</time></trkpt><trkpt lat="45.06271952899003" lon="8.183730126405916"><ele>350.0</ele><time>2026-04-18T14:47:45.999Z</time></trkpt><trkpt lat="45.062718964678425" lon="8.183838976367081"><ele>350.0</ele><time>2026-04-18T14:47:46.999Z</time></trkpt><trkpt lat="45.062738214874635" lon="8.1839563159562"><ele>350.0</ele><time>2026-04-18T14:47:47.999Z</time></trkpt><trkpt lat="45.062767395908224" lon="8.184040599123056"><ele>351.2</ele><time>2026-04-18T14:47:48.999Z</time></trkpt><trkpt lat="45.06280174532752" lon="8.184154309678208"><ele>352.4</ele><time>2026-04-18T14:47:49.999Z</time></trkpt><trkpt lat="45.06284230178509" lon="8.184241213943968"><ele>353.6</ele><time>2026-04-18T14:47:50.999Z</time></trkpt><trkpt lat="45.062886776190396" lon="8.184361574502143"><ele>354.8</ele><time>2026-04-18T14:47:51.999Z</time></trkpt><trkpt lat="45.06292038960777" lon="8.184481958560895"><ele>356.0</ele><time>2026-04-18T14:47:52.999Z</time></trkpt><trkpt lat="45.06298366174936" lon="8.184665840885259"><ele>356.0</ele><time>2026-04-18T14:47:54.999Z</time></trkpt><trkpt lat="45.06302287007016" lon="8.184767801343954"><ele>356.0</ele><time>2026-04-18T14:47:55.999Z</time></trkpt><trkpt lat="45.063067810165826" lon="8.18487059066134"><ele>356.0</ele><time>2026-04-18T14:47:56.999Z</time></trkpt><trkpt lat="45.06311664962444" lon="8.185040296633534"><ele>356.0</ele><time>2026-04-18T14:47:58.999Z</time></trkpt><trkpt lat="45.063133013019275" lon="8.185142920372028"><ele>356.0</ele><time>2026-04-18T14:47:59.999Z</time></trkpt><trkpt lat="45.06309962223012" lon="8.185280180255473"><ele>356.57142857142856</ele><time>2026-04-18T14:48:01.999Z</time></trkpt><trkpt lat="45.06305632585271" lon="8.18534877301026"><ele>357.1428571428571</ele><time>2026-04-18T14:48:02.999Z</time></trkpt><trkpt lat="45.063007744470994" lon="8.185434793858402"><ele>357.71428571428567</ele><time>2026-04-18T14:48:03.999Z</time></trkpt><trkpt lat="45.06295476361907" lon="8.185528374163015"><ele>358.2857142857143</ele><time>2026-04-18T14:48:04.999Z</time></trkpt><trkpt lat="45.062901422416424" lon="8.18561493675669"><ele>358.8571428571429</ele><time>2026-04-18T14:48:05.999Z</time></trkpt><trkpt lat="45.06284902318059" lon="8.18569148067439"><ele>359.4285714285714</ele><time>2026-04-18T14:48:06.999Z</time></trkpt><trkpt lat="45.062794666097986" lon="8.185741525105389"><ele>360.0</ele><time>2026-04-18T14:48:07.999Z</time></trkpt><trkpt lat="45.06276890571602" lon="8.185824543062166"><ele>360.0</ele><time>2026-04-18T14:48:10.999Z</time></trkpt><trkpt lat="45.06285088633671" lon="8.185817457482297"><ele>360.0</ele><time>2026-04-18T14:48:12.999Z</time></trkpt><trkpt lat="45.06292222472626" lon="8.18576604385093"><ele>360.0</ele><time>2026-04-18T14:48:14.999Z</time></trkpt><trkpt lat="45.06301905609817" lon="8.185676895826198"><ele>360.0</ele><time>2026-04-18T14:48:28.999Z</time></trkpt><trkpt lat="45.06310017660444" lon="8.185654279783108"><ele>360.0</ele><time>2026-04-18T14:48:30.999Z</time></trkpt><trkpt lat="45.063198874163284" lon="8.18562309527686"><ele>364.8</ele><time>2026-04-18T14:48:32.999Z</time></trkpt><trkpt lat="45.06330346413179" lon="8.185655604556391"><ele>369.6</ele><time>2026-04-18T14:48:34.999Z</time></trkpt><trkpt lat="45.06339638713891" lon="8.185644957837873"><ele>374.4</ele><time>2026-04-18T14:48:35.999Z</time></trkpt><trkpt lat="45.06348689785935" lon="8.185610669479773"><ele>379.2</ele><time>2026-04-18T14:48:36.999Z</time></trkpt><trkpt lat="45.06355113523453" lon="8.18553541902892"><ele>384.0</ele><time>2026-04-18T14:48:37.999Z</time></trkpt><trkpt lat="45.06360571489205" lon="8.185436585924638"><ele>384.0</ele><time>2026-04-18T14:48:39.999Z</time></trkpt><trkpt lat="45.063665409600375" lon="8.18532792242307"><ele>384.0</ele><time>2026-04-18T14:48:41.999Z</time></trkpt><trkpt lat="45.06373376999453" lon="8.185215116106317"><ele>384.0</ele><time>2026-04-18T14:48:43.999Z</time></trkpt><trkpt lat="45.06381759209069" lon="8.185076435141903"><ele>384.0</ele><time>2026-04-18T14:48:45.999Z</time></trkpt><trkpt lat="45.063903486378294" lon="8.18496335638002"><ele>384.0</ele><time>2026-04-18T14:48:47.999Z</time></trkpt><trkpt lat="45.0639782822538" lon="8.184864893315599"><ele>384.0</ele><time>2026-04-18T14:48:49.999Z</time></trkpt><trkpt lat="45.064014338860986" lon="8.184950617788951"><ele>384.0</ele><time>2026-04-18T14:48:52Z</time></trkpt><trkpt lat="45.06405036964788" lon="8.185150855189965"><ele>384.0</ele><time>2026-04-18T14:48:54Z</time></trkpt><trkpt lat="45.06408935199605" lon="8.185295993068086"><ele>384.0</ele><time>2026-04-18T14:48:56Z</time></trkpt><trkpt lat="45.06412645935441" lon="8.18538687463775"><ele>384.0</ele><time>2026-04-18T14:48:57Z</time></trkpt><trkpt lat="45.064141001431224" lon="8.185537460313794"><ele>386.3333333333333</ele><time>2026-04-18T14:48:58Z</time></trkpt><trkpt lat="45.06412690233488" lon="8.185692787123012"><ele>388.66666666666663</ele><time>2026-04-18T14:48:59Z</time></trkpt><trkpt lat="45.06410648345673" lon="8.185786936420483"><ele>391.0</ele><time>2026-04-18T14:49:00Z</time></trkpt><trkpt lat="45.06407780816526" lon="8.185892404580915"><ele>393.3333333333333</ele><time>2026-04-18T14:49:02Z</time></trkpt><trkpt lat="45.06410135313151" lon="8.18580898042712"><ele>395.66666666666663</ele><time>2026-04-18T14:49:44Z</time></trkpt><trkpt lat="45.064119939490304" lon="8.185712629491354"><ele>398.0</ele><time>2026-04-18T14:50:26.999Z</time></trkpt><trkpt lat="45.06412669568809" lon="8.185609751994768"><ele>400.3333333333333</ele><time>2026-04-18T14:50:28.999Z</time></trkpt><trkpt lat="45.06413427341105" lon="8.18550041215815"><ele>402.66666666666663</ele><time>2026-04-18T14:50:30.999Z</time></trkpt><trkpt lat="45.06411849370108" lon="8.18538475417236"><ele>405.0</ele><time>2026-04-18T14:50:32.999Z</time></trkpt><trkpt lat="45.06408184756063" lon="8.185307730186798"><ele>407.33333333333337</ele><time>2026-04-18T14:50:35.999Z</time></trkpt><trkpt lat="45.064137846376745" lon="8.185227142398551"><ele>409.6666666666667</ele><time>2026-04-18T14:50:39.999Z</time></trkpt><trkpt lat="45.064232842185774" lon="8.185209310515877"><ele>412.0</ele><time>2026-04-18T14:50:42.999Z</time></trkpt><trkpt lat="45.06430567710032" lon="8.185204087142896"><ele>411.99999999999994</ele><time>2026-04-18T14:50:44.999Z</time></trkpt><trkpt lat="45.06436836502401" lon="8.18524481466141"><ele>412.0</ele><time>2026-04-18T14:50:47.999Z</time></trkpt><trkpt lat="45.064431984270875" lon="8.18527836919613"><ele>412.0</ele><time>2026-04-18T14:50:50.999Z</time></trkpt><trkpt lat="45.064501155793955" lon="8.18533760106216"><ele>412.0</ele><time>2026-04-18T14:50:53.999Z</time></trkpt><trkpt lat="45.06454760110753" lon="8.1854302978243"><ele>412.0</ele><time>2026-04-18T14:50:56.999Z</time></trkpt><trkpt lat="45.06461974718533" lon="8.185447146086357"><ele>411.99999999999994</ele><time>2026-04-18T14:51:01.001Z</time></trkpt><trkpt lat="45.064685526595426" lon="8.18539971783489"><ele>412.0</ele><time>2026-04-18T14:51:03.001Z</time></trkpt><trkpt lat="45.06476568116326" lon="8.185319423060896"><ele>412.0</ele><time>2026-04-18T14:51:06.001Z</time></trkpt><trkpt lat="45.06481978959005" lon="8.185226732291856"><ele>412.0</ele><time>2026-04-18T14:51:08.001Z</time></trkpt><trkpt lat="45.06487438017549" lon="8.185118662745174"><ele>412.0</ele><time>2026-04-18T14:51:10.001Z</time></trkpt><trkpt lat="45.06494580738181" lon="8.184976637102633"><ele>412.0</ele><time>2026-04-18T14:51:12.001Z</time></trkpt><trkpt lat="45.06502136203926" lon="8.184873124100339"><ele>412.0</ele><time>2026-04-18T14:51:14.001Z</time></trkpt><trkpt lat="45.06509313177478" lon="8.184825493720517"><ele>416.00000000000006</ele><time>2026-04-18T14:51:16.001Z</time></trkpt><trkpt lat="45.065174335455445" lon="8.184783553220825"><ele>420.0</ele><time>2026-04-18T14:51:18.001Z</time></trkpt><trkpt lat="45.06526735398066" lon="8.184724298586572"><ele>424.0</ele><time>2026-04-18T14:51:21.001Z</time></trkpt><trkpt lat="45.06534766668299" lon="8.184699240267456"><ele>428.0</ele><time>2026-04-18T14:51:24Z</time></trkpt><trkpt lat="45.06542769697493" lon="8.18466637079398"><ele>432.00000000000006</ele><time>2026-04-18T14:51:28Z</time></trkpt><trkpt lat="45.06549463331971" lon="8.184634900063097"><ele>436.0</ele><time>2026-04-18T14:51:30Z</time></trkpt><trkpt lat="45.065561913706446" lon="8.184591078669552"><ele>436.0</ele><time>2026-04-18T14:51:32Z</time></trkpt><trkpt lat="45.0656662371415" lon="8.184552413963033"><ele>436.0</ele><time>2026-04-18T14:51:34Z</time></trkpt><trkpt lat="45.06573286601527" lon="8.184522001124357"><ele>436.0</ele><time>2026-04-18T14:51:35Z</time></trkpt><trkpt lat="45.06582410927499" lon="8.18449600700346"><ele>436.0</ele><time>2026-04-18T14:51:37Z</time></trkpt><trkpt lat="45.065912583150435" lon="8.184410597286622"><ele>436.0</ele><time>2026-04-18T14:51:39Z</time></trkpt><trkpt lat="45.065989548222824" lon="8.18433936131391"><ele>433.00000000000006</ele><time>2026-04-18T14:51:40Z</time></trkpt><trkpt lat="45.06605346900955" lon="8.184303229533237"><ele>430.0</ele><time>2026-04-18T14:51:41Z</time></trkpt><trkpt lat="45.06612388430995" lon="8.18427816432157"><ele>427.0</ele><time>2026-04-18T14:51:42Z</time></trkpt><trkpt lat="45.066260960354754" lon="8.184254627934772"><ele>424.0</ele><time>2026-04-18T14:51:44Z</time></trkpt><trkpt lat="45.06633180400718" lon="8.184209939749016"><ele>421.00000000000006</ele><time>2026-04-18T14:51:45Z</time></trkpt><trkpt lat="45.06638861385824" lon="8.184149771444387"><ele>418.0</ele><time>2026-04-18T14:51:46Z</time></trkpt><trkpt lat="45.06643059742399" lon="8.184065217340763"><ele>421.59999999999997</ele><time>2026-04-18T14:51:47Z</time></trkpt><trkpt lat="45.066490630155585" lon="8.183992585445745"><ele>425.2</ele><time>2026-04-18T14:51:48Z</time></trkpt><trkpt lat="45.06658371202652" lon="8.183908867423263"><ele>428.8</ele><time>2026-04-18T14:51:50Z</time></trkpt><trkpt lat="45.066690640676256" lon="8.183836203240212"><ele>432.4</ele><time>2026-04-18T14:51:52Z</time></trkpt><trkpt lat="45.06680274060947" lon="8.183791427141324"><ele>436.0</ele><time>2026-04-18T14:51:54Z</time></trkpt><trkpt lat="45.06686721816868" lon="8.183761323958135"><ele>436.00000000000006</ele><time>2026-04-18T14:51:55Z</time></trkpt><trkpt lat="45.066973265541435" lon="8.183757097455889"><ele>436.0</ele><time>2026-04-18T14:51:57Z</time></trkpt><trkpt lat="45.06704858114327" lon="8.183755482333854"><ele>436.0</ele><time>2026-04-18T14:51:58Z</time></trkpt><trkpt lat="45.067128157865454" lon="8.183742068234027"><ele>436.0</ele><time>2026-04-18T14:51:59Z</time></trkpt><trkpt lat="45.06720408515549" lon="8.183721329792455"><ele>436.00000000000006</ele><time>2026-04-18T14:52:00Z</time></trkpt><trkpt lat="45.067304856152504" lon="8.183680352891576"><ele>436.0</ele><time>2026-04-18T14:52:01Z</time></trkpt><trkpt lat="45.06741283632279" lon="8.183630056756867"><ele>433.20000000000005</ele><time>2026-04-18T14:52:02Z</time></trkpt><trkpt lat="45.06751740239364" lon="8.183573217629453"><ele>430.40000000000003</ele><time>2026-04-18T14:52:03Z</time></trkpt><trkpt lat="45.067599345156175" lon="8.183509161471127"><ele>427.6</ele><time>2026-04-18T14:52:04Z</time></trkpt><trkpt lat="45.06766098639835" lon="8.183451924657653"><ele>424.8</ele><time>2026-04-18T14:52:05Z</time></trkpt><trkpt lat="45.06777257449796" lon="8.183331658399853"><ele>422.0</ele><time>2026-04-18T14:52:07Z</time></trkpt><trkpt lat="45.06785423574771" lon="8.183236871986502"><ele>427.66666666666663</ele><time>2026-04-18T14:52:08Z</time></trkpt><trkpt lat="45.067929067435394" lon="8.183168655591261"><ele>433.3333333333333</ele><time>2026-04-18T14:52:09Z</time></trkpt><trkpt lat="45.06798686478931" lon="8.183110033326908"><ele>439.0</ele><time>2026-04-18T14:52:10Z</time></trkpt><trkpt lat="45.06806416511624" lon="8.183053731805256"><ele>444.66666666666663</ele><time>2026-04-18T14:52:11Z</time></trkpt><trkpt lat="45.06813325748333" lon="8.183000805107945"><ele>450.3333333333333</ele><time>2026-04-18T14:52:12Z</time></trkpt><trkpt lat="45.06818466357287" lon="8.182946883209306"><ele>456.0</ele><time>2026-04-18T14:52:13Z</time></trkpt><trkpt lat="45.068233304025455" lon="8.182885580643978"><ele>450.5</ele><time>2026-04-18T14:52:14Z</time></trkpt><trkpt lat="45.068336583060564" lon="8.182816439594157"><ele>445.0</ele><time>2026-04-18T14:52:16Z</time></trkpt><trkpt lat="45.068402945552975" lon="8.182786227838069"><ele>439.5</ele><time>2026-04-18T14:52:17Z</time></trkpt><trkpt lat="45.0684669904482" lon="8.1827790048404"><ele>434.0</ele><time>2026-04-18T14:52:18Z</time></trkpt><trkpt lat="45.06853231424915" lon="8.182751960496583"><ele>428.5</ele><time>2026-04-18T14:52:19Z</time></trkpt><trkpt lat="45.06863243431897" lon="8.182728325246273"><ele>423.0</ele><time>2026-04-18T14:52:21Z</time></trkpt><trkpt lat="45.0687356018085" lon="8.182690393098452"><ele>423.0</ele><time>2026-04-18T14:52:23Z</time></trkpt><trkpt lat="45.06897033306" lon="8.182581217517725"><ele>423.0</ele><time>2026-04-18T14:52:30Z</time></trkpt><trkpt lat="45.069039598296975" lon="8.18264252574478"><ele>423.0</ele><time>2026-04-18T14:52:32Z</time></trkpt><trkpt lat="45.0691035204518" lon="8.182699104684378"><ele>423.0</ele><time>2026-04-18T14:52:35Z</time></trkpt><trkpt lat="45.06915930353379" lon="8.18274270649568"><ele>420.4</ele><time>2026-04-18T14:52:37Z</time></trkpt><trkpt lat="45.06925017967179" lon="8.18279162302704"><ele>417.79999999999995</ele><time>2026-04-18T14:52:39Z</time></trkpt><trkpt lat="45.06931402578676" lon="8.182849596993252"><ele>415.2</ele><time>2026-04-18T14:52:40Z</time></trkpt><trkpt lat="45.06939420218437" lon="8.182929376490648"><ele>412.6</ele><time>2026-04-18T14:52:42Z</time></trkpt><trkpt lat="45.06945411853833" lon="8.182972049105693"><ele>410.0</ele><time>2026-04-18T14:52:44Z</time></trkpt><trkpt lat="45.06961951027097" lon="8.18308036540162"><ele>409.99999999999994</ele><time>2026-04-18T14:52:46Z</time></trkpt><trkpt lat="45.06966664337333" lon="8.183143572684715"><ele>410.0</ele><time>2026-04-18T14:52:47Z</time></trkpt><trkpt lat="45.06971545474414" lon="8.183203107780912"><ele>410.0</ele><time>2026-04-18T14:52:48Z</time></trkpt><trkpt lat="45.06976754078061" lon="8.183266636980894"><ele>410.0</ele><time>2026-04-18T14:52:49Z</time></trkpt><trkpt lat="45.06982007672427" lon="8.183330714933133"><ele>409.99999999999994</ele><time>2026-04-18T14:52:50Z</time></trkpt><trkpt lat="45.06987463902936" lon="8.183397264431665"><ele>410.0</ele><time>2026-04-18T14:52:51Z</time></trkpt><trkpt lat="45.06957971411109" lon="8.184029282234956"><ele>405.8333333333333</ele><time>2026-04-18T14:52:52Z</time></trkpt><trkpt lat="45.06959430233748" lon="8.184146884210515"><ele>401.66666666666663</ele><time>2026-04-18T14:52:53Z</time></trkpt><trkpt lat="45.06959402563225" lon="8.184240435569707"><ele>397.5</ele><time>2026-04-18T14:52:54Z</time></trkpt><trkpt lat="45.06958780697573" lon="8.184333214487655"><ele>393.33333333333337</ele><time>2026-04-18T14:52:55Z</time></trkpt><trkpt lat="45.06957748538669" lon="8.184503113777144"><ele>389.1666666666667</ele><time>2026-04-18T14:52:57Z</time></trkpt><trkpt lat="45.06957311451258" lon="8.18465029193525"><ele>385.0</ele><time>2026-04-18T14:52:58.999Z</time></trkpt><trkpt lat="45.0695632917669" lon="8.18478461761563"><ele>383.00000000000006</ele><time>2026-04-18T14:53:00.999Z</time></trkpt><trkpt lat="45.069554279025816" lon="8.184953666920869"><ele>381.0</ele><time>2026-04-18T14:53:02.999Z</time></trkpt><trkpt lat="45.06955181791786" lon="8.185052004534247"><ele>379.0</ele><time>2026-04-18T14:53:04.001Z</time></trkpt><trkpt lat="45.069560323041784" lon="8.185155945897321"><ele>377.0</ele><time>2026-04-18T14:53:05.001Z</time></trkpt><trkpt lat="45.06958226302762" lon="8.185263199061044"><ele>375.0</ele><time>2026-04-18T14:53:06.001Z</time></trkpt><trkpt lat="45.06962882766718" lon="8.185360381260384"><ele>373.0</ele><time>2026-04-18T14:53:07.001Z</time></trkpt><trkpt lat="45.06970190320242" lon="8.185424693995303"><ele>373.0</ele><time>2026-04-18T14:53:08.001Z</time></trkpt><trkpt lat="45.06979183205808" lon="8.185448105122662"><ele>373.0</ele><time>2026-04-18T14:53:09.001Z</time></trkpt><trkpt lat="45.06988617570801" lon="8.185462903039975"><ele>373.0</ele><time>2026-04-18T14:53:10.001Z</time></trkpt><trkpt lat="45.06998269712663" lon="8.185495449562227"><ele>373.0</ele><time>2026-04-18T14:53:11.001Z</time></trkpt><trkpt lat="45.07007443910657" lon="8.185517118144222"><ele>373.0</ele><time>2026-04-18T14:53:12.001Z</time></trkpt><trkpt lat="45.07016751852953" lon="8.18557494815774"><ele>372.59999999999997</ele><time>2026-04-18T14:53:13.001Z</time></trkpt><trkpt lat="45.0702691590539" lon="8.185600403621411"><ele>372.2</ele><time>2026-04-18T14:53:14.001Z</time></trkpt><trkpt lat="45.07036709319302" lon="8.185656484042452"><ele>371.8</ele><time>2026-04-18T14:53:15.001Z</time></trkpt><trkpt lat="45.070458352995345" lon="8.18569743406663"><ele>371.4</ele><time>2026-04-18T14:53:16.001Z</time></trkpt><trkpt lat="45.0705510362235" lon="8.185708056900808"><ele>371.0</ele><time>2026-04-18T14:53:17.001Z</time></trkpt><trkpt lat="45.07064539332509" lon="8.18566620223189"><ele>374.0</ele><time>2026-04-18T14:53:18.001Z</time></trkpt><trkpt lat="45.070730686429535" lon="8.185588224256552"><ele>377.0</ele><time>2026-04-18T14:53:19.001Z</time></trkpt><trkpt lat="45.07081866561512" lon="8.185518084506787"><ele>380.0</ele><time>2026-04-18T14:53:20.001Z</time></trkpt><trkpt lat="45.07090592784842" lon="8.185466157054865"><ele>383.0</ele><time>2026-04-18T14:53:21.001Z</time></trkpt><trkpt lat="45.07097189906649" lon="8.185420314819417"><ele>386.0</ele><time>2026-04-18T14:53:22.001Z</time></trkpt><trkpt lat="45.07108032311898" lon="8.185398886725462"><ele>386.0</ele><time>2026-04-18T14:53:24.001Z</time></trkpt><trkpt lat="45.07115538809401" lon="8.185495135821261"><ele>386.0</ele><time>2026-04-18T14:53:26.001Z</time></trkpt><trkpt lat="45.07120548800388" lon="8.185601573584671"><ele>386.0</ele><time>2026-04-18T14:53:28.001Z</time></trkpt><trkpt lat="45.071271159297766" lon="8.185723582204377"><ele>386.0</ele><time>2026-04-18T14:53:30.001Z</time></trkpt><trkpt lat="45.071301114073044" lon="8.185852822124568"><ele>386.0</ele><time>2026-04-18T14:53:31.001Z</time></trkpt><trkpt lat="45.07134603535054" lon="8.186000902338627"><ele>385.66666666666663</ele><time>2026-04-18T14:53:32.001Z</time></trkpt><trkpt lat="45.07139622332354" lon="8.186121942026059"><ele>385.3333333333333</ele><time>2026-04-18T14:53:33.001Z</time></trkpt><trkpt lat="45.07143631587289" lon="8.186208561417658"><ele>385.0</ele><time>2026-04-18T14:53:34.001Z</time></trkpt><trkpt lat="45.07149169526895" lon="8.186285459445154"><ele>384.66666666666663</ele><time>2026-04-18T14:53:35.001Z</time></trkpt><trkpt lat="45.07155986583513" lon="8.186351155716798"><ele>384.3333333333333</ele><time>2026-04-18T14:53:36.001Z</time></trkpt><trkpt lat="45.07163341163396" lon="8.186405877645367"><ele>384.0</ele><time>2026-04-18T14:53:37.001Z</time></trkpt><trkpt lat="45.07169619244108" lon="8.186431153904815"><ele>384.0</ele><time>2026-04-18T14:53:38.001Z</time></trkpt><trkpt lat="45.07176256253264" lon="8.186439815987447"><ele>384.0</ele><time>2026-04-18T14:53:39.001Z</time></trkpt><trkpt lat="45.0718392060242" lon="8.186408287831599"><ele>384.0</ele><time>2026-04-18T14:53:41.001Z</time></trkpt><trkpt lat="45.07191036271584" lon="8.18641464815086"><ele>384.0</ele><time>2026-04-18T14:53:49Z</time></trkpt><trkpt lat="45.07197622977902" lon="8.186391590255752"><ele>384.0</ele><time>2026-04-18T14:56:22.999Z</time></trkpt><trkpt lat="45.07206431912114" lon="8.186411218795737"><ele>384.0</ele><time>2026-04-18T14:56:24.999Z</time></trkpt><trkpt lat="45.07215176111977" lon="8.186386849676271"><ele>384.0</ele><time>2026-04-18T14:56:28.999Z</time></trkpt><trkpt lat="45.07236671306031" lon="8.18632418551593"><ele>384.0</ele><time>2026-04-18T14:56:34.999Z</time></trkpt><trkpt lat="45.07243451925638" lon="8.186270242756962"><ele>384.0</ele><time>2026-04-18T14:56:35.999Z</time></trkpt><trkpt lat="45.07251597742714" lon="8.186218837374609"><ele>384.0</ele><time>2026-04-18T14:56:36.999Z</time></trkpt><trkpt lat="45.072605129860854" lon="8.18618362776697"><ele>382.6666666666667</ele><time>2026-04-18T14:56:37.999Z</time></trkpt><trkpt lat="45.07269501761457" lon="8.186125335437136"><ele>381.3333333333333</ele><time>2026-04-18T14:56:38.999Z</time></trkpt><trkpt lat="45.07277734639374" lon="8.186069835047638"><ele>380.0</ele><time>2026-04-18T14:56:39.999Z</time></trkpt><trkpt lat="45.072857609369606" lon="8.186009156056167"><ele>378.66666666666663</ele><time>2026-04-18T14:56:40.999Z</time></trkpt><trkpt lat="45.07292554869119" lon="8.18595357606572"><ele>377.3333333333333</ele><time>2026-04-18T14:56:41.999Z</time></trkpt><trkpt lat="45.07298795510722" lon="8.185902522467956"><ele>376.0</ele><time>2026-04-18T14:56:42.999Z</time></trkpt><trkpt lat="45.073068999440686" lon="8.185836221520061"><ele>376.0</ele><time>2026-04-18T14:56:43.999Z</time></trkpt><trkpt lat="45.073144050325176" lon="8.18577482370212"><ele>376.0</ele><time>2026-04-18T14:56:44.999Z</time></trkpt><trkpt lat="45.07320684039495" lon="8.185662430627726"><ele>376.0</ele><time>2026-04-18T14:56:45.999Z</time></trkpt><trkpt lat="45.07329036214765" lon="8.185593628639726"><ele>376.0</ele><time>2026-04-18T14:56:46.999Z</time></trkpt><trkpt lat="45.07337163976453" lon="8.185533773423105"><ele>376.0</ele><time>2026-04-18T14:56:47.999Z</time></trkpt><trkpt lat="45.07345475198266" lon="8.18547740924934"><ele>375.0</ele><time>2026-04-18T14:56:48.999Z</time></trkpt><trkpt lat="45.073522009639575" lon="8.18539976540035"><ele>374.0</ele><time>2026-04-18T14:56:49.999Z</time></trkpt><trkpt lat="45.07358140519303" lon="8.185342943165878"><ele>373.0</ele><time>2026-04-18T14:56:50.999Z</time></trkpt><trkpt lat="45.07364126272311" lon="8.18528573950697"><ele>372.0</ele><time>2026-04-18T14:56:51.999Z</time></trkpt><trkpt lat="45.073720467147474" lon="8.1852091218612"><ele>371.0</ele><time>2026-04-18T14:56:53.999Z</time></trkpt><trkpt lat="45.07377846432826" lon="8.185147724103935"><ele>370.0</ele><time>2026-04-18T14:56:55.999Z</time></trkpt><trkpt lat="45.073832180016616" lon="8.18508179793877"><ele>370.0</ele><time>2026-04-18T14:56:57.999Z</time></trkpt><trkpt lat="45.07388207425889" lon="8.185024883921411"><ele>370.0</ele><time>2026-04-18T14:56:59.999Z</time></trkpt><trkpt lat="45.07392373761975" lon="8.184911101898988"><ele>370.0</ele><time>2026-04-18T14:57:01.999Z</time></trkpt><trkpt lat="45.07397903368488" lon="8.184820384900169"><ele>370.0</ele><time>2026-04-18T14:57:03.999Z</time></trkpt><trkpt lat="45.074034920541706" lon="8.184774326704803"><ele>370.0</ele><time>2026-04-18T14:57:05.999Z</time></trkpt><trkpt lat="45.07410868795291" lon="8.18473776773666"><ele>370.0</ele><time>2026-04-18T14:57:07.999Z</time></trkpt><trkpt lat="45.07418473648999" lon="8.184727389160228"><ele>370.16666666666663</ele><time>2026-04-18T14:57:09.999Z</time></trkpt><trkpt lat="45.07425207770578" lon="8.184726062723167"><ele>370.3333333333333</ele><time>2026-04-18T14:57:11.999Z</time></trkpt><trkpt lat="45.07433320340718" lon="8.184677777830453"><ele>370.5</ele><time>2026-04-18T14:57:14.999Z</time></trkpt><trkpt lat="45.07439039761397" lon="8.184619803503654"><ele>370.6666666666667</ele><time>2026-04-18T14:57:17.001Z</time></trkpt><trkpt lat="45.07442731169263" lon="8.184533436243985"><ele>370.83333333333337</ele><time>2026-04-18T14:57:19.001Z</time></trkpt><trkpt lat="45.07449706204509" lon="8.184414081409932"><ele>371.0</ele><time>2026-04-18T14:57:21.001Z</time></trkpt><trkpt lat="45.074542973113275" lon="8.184341085575104"><ele>371.0</ele><time>2026-04-18T14:57:23.001Z</time></trkpt><trkpt lat="45.07461733616217" lon="8.184291070029738"><ele>371.0</ele><time>2026-04-18T14:57:25.001Z</time></trkpt><trkpt lat="45.07469314098338" lon="8.1842439846391"><ele>371.0</ele><time>2026-04-18T14:57:27.001Z</time></trkpt><trkpt lat="45.0748069659594" lon="8.18421388411921"><ele>371.0</ele><time>2026-04-18T14:57:29.001Z</time></trkpt><trkpt lat="45.07491851136368" lon="8.184194949835524"><ele>371.0</ele><time>2026-04-18T14:57:31.001Z</time></trkpt><trkpt lat="45.07504453824552" lon="8.184221272636591"><ele>372.33333333333337</ele><time>2026-04-18T14:57:33.001Z</time></trkpt><trkpt lat="45.07512459668942" lon="8.184254190028815"><ele>373.6666666666667</ele><time>2026-04-18T14:57:35Z</time></trkpt><trkpt lat="45.075191107603096" lon="8.184271664956766"><ele>375.0</ele><time>2026-04-18T14:57:36Z</time></trkpt><trkpt lat="45.07527748285624" lon="8.18428606775876"><ele>376.3333333333333</ele><time>2026-04-18T14:57:38Z</time></trkpt><trkpt lat="45.07538030387071" lon="8.184294672289509"><ele>377.66666666666663</ele><time>2026-04-18T14:57:40Z</time></trkpt><trkpt lat="45.07548741667931" lon="8.184308173887882"><ele>379.0</ele><time>2026-04-18T14:57:42Z</time></trkpt><trkpt lat="45.07554773814791" lon="8.184372727569068"><ele>379.0</ele><time>2026-04-18T14:57:44Z</time></trkpt><trkpt lat="45.07559599164854" lon="8.18447038680421"><ele>379.0</ele><time>2026-04-18T14:57:46Z</time></trkpt><trkpt lat="45.07564406040373" lon="8.184593306016692"><ele>379.0</ele><time>2026-04-18T14:57:48Z</time></trkpt><trkpt lat="45.07569056172078" lon="8.184673384394072"><ele>379.0</ele><time>2026-04-18T14:57:50Z</time></trkpt><trkpt lat="45.07573588978943" lon="8.184779832455064"><ele>379.0</ele><time>2026-04-18T14:57:53Z</time></trkpt><trkpt lat="45.07577026303143" lon="8.184859047515253"><ele>379.0</ele><time>2026-04-18T14:57:56Z</time></trkpt><trkpt lat="45.075842985116104" lon="8.184906668657305"><ele>378.0</ele><time>2026-04-18T14:57:59Z</time></trkpt><trkpt lat="45.07592162262188" lon="8.184918000464982"><ele>377.0</ele><time>2026-04-18T14:58:02Z</time></trkpt><trkpt lat="45.07598711615203" lon="8.184985387282289"><ele>376.0</ele><time>2026-04-18T14:58:04Z</time></trkpt><trkpt lat="45.076041222827584" lon="8.185031018999705"><ele>375.0</ele><time>2026-04-18T14:58:06Z</time></trkpt><trkpt lat="45.076131993328005" lon="8.185127682842609"><ele>374.0</ele><time>2026-04-18T14:58:07Z</time></trkpt><trkpt lat="45.07617008468574" lon="8.185242601602887"><ele>373.0</ele><time>2026-04-18T14:58:10Z</time></trkpt><trkpt lat="45.076181369815444" lon="8.18539117136159"><ele>373.0</ele><time>2026-04-18T14:58:13Z</time></trkpt><trkpt lat="45.07623604545106" lon="8.185472198756354"><ele>373.0</ele><time>2026-04-18T14:58:16Z</time></trkpt><trkpt lat="45.07631274903603" lon="8.185535833876301"><ele>373.0</ele><time>2026-04-18T14:58:19Z</time></trkpt><trkpt lat="45.0763642568844" lon="8.185597316546897"><ele>373.0</ele><time>2026-04-18T14:58:35Z</time></trkpt><trkpt lat="45.07641529804644" lon="8.185663057016574"><ele>373.0</ele><time>2026-04-18T14:58:53.999Z</time></trkpt><trkpt lat="45.07646490951574" lon="8.18572360869212"><ele>373.0</ele><time>2026-04-18T14:59:18.999Z</time></trkpt><trkpt lat="45.07653652552581" lon="8.185766307893763"><ele>373.0</ele><time>2026-04-18T14:59:50Z</time></trkpt><trkpt lat="45.076598992246666" lon="8.185793713891616"><ele>369.3333333333333</ele><time>2026-04-18T15:00:00Z</time></trkpt><trkpt lat="45.076687661317585" lon="8.185816458315644"><ele>365.66666666666663</ele><time>2026-04-18T15:00:07Z</time></trkpt><trkpt lat="45.07675601124983" lon="8.185849429493553"><ele>362.0</ele><time>2026-04-18T15:00:10Z</time></trkpt><trkpt lat="45.076862315615976" lon="8.185854063724232"><ele>358.3333333333333</ele><time>2026-04-18T15:03:06.999Z</time></trkpt><trkpt lat="45.07693743706938" lon="8.185847474601806"><ele>354.6666666666667</ele><time>2026-04-18T15:03:09.998Z</time></trkpt><trkpt lat="45.077016719312205" lon="8.185839545772684"><ele>351.0</ele><time>2026-04-18T15:03:13.998Z</time></trkpt><trkpt lat="45.077087248302824" lon="8.185878598700368"><ele>351.0</ele><time>2026-04-18T15:03:16.998Z</time></trkpt><trkpt lat="45.077178040238024" lon="8.185896179332255"><ele>351.0</ele><time>2026-04-18T15:03:19.998Z</time></trkpt><trkpt lat="45.07726525098791" lon="8.185918210763258"><ele>351.0</ele><time>2026-04-18T15:03:22.998Z</time></trkpt><trkpt lat="45.07735076954238" lon="8.185977373822135"><ele>351.0</ele><time>2026-04-18T15:03:25.998Z</time></trkpt><trkpt lat="45.077430853091" lon="8.186002321906022"><ele>351.0</ele><time>2026-04-18T15:03:27.998Z</time></trkpt><trkpt lat="45.07749899049443" lon="8.185991554446325"><ele>351.0</ele><time>2026-04-18T15:03:29.998Z</time></trkpt><trkpt lat="45.077566854425775" lon="8.185983796535359"><ele>348.8333333333333</ele><time>2026-04-18T15:03:32Z</time></trkpt><trkpt lat="45.07763602567621" lon="8.185971343296707"><ele>346.6666666666667</ele><time>2026-04-18T15:03:34Z</time></trkpt><trkpt lat="45.07770812617371" lon="8.18596006345158"><ele>344.5</ele><time>2026-04-18T15:03:36Z</time></trkpt><trkpt lat="45.0777814773432" lon="8.185952765292464"><ele>342.33333333333337</ele><time>2026-04-18T15:03:38Z</time></trkpt><trkpt lat="45.07786414925162" lon="8.185938645928742"><ele>340.1666666666667</ele><time>2026-04-18T15:03:40Z</time></trkpt><trkpt lat="45.07794635366972" lon="8.185922381056255"><ele>338.0</ele><time>2026-04-18T15:03:42Z</time></trkpt><trkpt lat="45.07803101653384" lon="8.185887032811547"><ele>338.0</ele><time>2026-04-18T15:03:44Z</time></trkpt><trkpt lat="45.0780920523053" lon="8.185860308977029"><ele>338.0</ele><time>2026-04-18T15:03:46Z</time></trkpt><trkpt lat="45.0781655968676" lon="8.18581327008282"><ele>338.0</ele><time>2026-04-18T15:03:51Z</time></trkpt><trkpt lat="45.07823705033066" lon="8.185773297382578"><ele>338.0</ele><time>2026-04-18T15:03:53Z</time></trkpt><trkpt lat="45.078305302074554" lon="8.18573993295157"><ele>338.0</ele><time>2026-04-18T15:03:55Z</time></trkpt><trkpt lat="45.07836695339752" lon="8.185707734168854"><ele>338.0</ele><time>2026-04-18T15:03:57Z</time></trkpt><trkpt lat="45.07843263399162" lon="8.18568591352156"><ele>338.0</ele><time>2026-04-18T15:03:59Z</time></trkpt><trkpt lat="45.078511685505845" lon="8.185670340873719"><ele>337.6666666666667</ele><time>2026-04-18T15:04:01Z</time></trkpt><trkpt lat="45.078585678434706" lon="8.18567842010326"><ele>337.33333333333337</ele><time>2026-04-18T15:04:03Z</time></trkpt><trkpt lat="45.0786759929281" lon="8.185696154700988"><ele>337.0</ele><time>2026-04-18T15:04:05Z</time></trkpt><trkpt lat="45.0787442069382" lon="8.18572021485508"><ele>336.6666666666667</ele><time>2026-04-18T15:04:07Z</time></trkpt><trkpt lat="45.078816629070715" lon="8.18573579485653"><ele>336.3333333333333</ele><time>2026-04-18T15:04:09Z</time></trkpt><trkpt lat="45.07889849502517" lon="8.185757885114592"><ele>336.0</ele><time>2026-04-18T15:04:11Z</time></trkpt><trkpt lat="45.07900586398547" lon="8.185792942581038"><ele>336.0</ele><time>2026-04-18T15:04:13Z</time></trkpt><trkpt lat="45.0790997522377" lon="8.185844367977948"><ele>336.0</ele><time>2026-04-18T15:04:15Z</time></trkpt><trkpt lat="45.07918939324418" lon="8.185924950851453"><ele>336.0</ele><time>2026-04-18T15:04:17Z</time></trkpt><trkpt lat="45.079279329788115" lon="8.18599491992098"><ele>336.0</ele><time>2026-04-18T15:04:19Z</time></trkpt><trkpt lat="45.07937227035926" lon="8.186063988102747"><ele>336.0</ele><time>2026-04-18T15:04:21Z</time></trkpt><trkpt lat="45.07945592246873" lon="8.18613199180642"><ele>335.0</ele><time>2026-04-18T15:04:23Z</time></trkpt><trkpt lat="45.07953530250309" lon="8.18623634706852"><ele>334.0</ele><time>2026-04-18T15:04:25Z</time></trkpt><trkpt lat="45.079595574332906" lon="8.186382341266853"><ele>333.0</ele><time>2026-04-18T15:04:27Z</time></trkpt><trkpt lat="45.07964412460681" lon="8.186511490494892"><ele>332.0</ele><time>2026-04-18T15:04:28.999Z</time></trkpt><trkpt lat="45.07966932682326" lon="8.18659977430307"><ele>331.0</ele><time>2026-04-18T15:04:29.999Z</time></trkpt><trkpt lat="45.07969413784737" lon="8.18668548750111"><ele>330.3333333333333</ele><time>2026-04-18T15:04:30.999Z</time></trkpt><trkpt lat="45.07972309584981" lon="8.186773319887148"><ele>329.66666666666663</ele><time>2026-04-18T15:04:31.999Z</time></trkpt><trkpt lat="45.07975301803626" lon="8.186863451362775"><ele>329.0</ele><time>2026-04-18T15:04:32.999Z</time></trkpt><trkpt lat="45.079794224323635" lon="8.186953908578658"><ele>328.3333333333333</ele><time>2026-04-18T15:04:33.999Z</time></trkpt><trkpt lat="45.079834184696296" lon="8.18706063868229"><ele>327.6666666666667</ele><time>2026-04-18T15:04:34.999Z</time></trkpt><trkpt lat="45.07986336344568" lon="8.187161212229881"><ele>327.0</ele><time>2026-04-18T15:04:35.999Z</time></trkpt><trkpt lat="45.079884730375404" lon="8.187261118913694"><ele>327.0</ele><time>2026-04-18T15:04:36.999Z</time></trkpt><trkpt lat="45.07990607482737" lon="8.187375572372382"><ele>327.0</ele><time>2026-04-18T15:04:37.999Z</time></trkpt><trkpt lat="45.07991882604399" lon="8.187476354182621"><ele>327.0</ele><time>2026-04-18T15:04:38.999Z</time></trkpt><trkpt lat="45.079981195106384" lon="8.187614895545705"><ele>327.0</ele><time>2026-04-18T15:04:40.999Z</time></trkpt><trkpt lat="45.079983038646176" lon="8.187730577460746"><ele>327.0</ele><time>2026-04-18T15:04:42.999Z</time></trkpt><trkpt lat="45.08000700684285" lon="8.187826018270016"><ele>327.0</ele><time>2026-04-18T15:04:44.999Z</time></trkpt><trkpt lat="45.08005695210946" lon="8.18801217881931"><ele>327.75</ele><time>2026-04-18T15:04:46.999Z</time></trkpt><trkpt lat="45.08010730767951" lon="8.188193209831761"><ele>328.5</ele><time>2026-04-18T15:04:47.999Z</time></trkpt><trkpt lat="45.08014769937831" lon="8.188407020884766"><ele>329.25</ele><time>2026-04-18T15:04:48.999Z</time></trkpt><trkpt lat="45.080165057023486" lon="8.18861424645042"><ele>330.0</ele><time>2026-04-18T15:04:49.999Z</time></trkpt><trkpt lat="45.08018212640174" lon="8.188751085851303"><ele>330.0</ele><time>2026-04-18T15:04:50.999Z</time></trkpt><trkpt lat="45.08019683191032" lon="8.188893016017165"><ele>330.0</ele><time>2026-04-18T15:04:51.999Z</time></trkpt><trkpt lat="45.08021258251237" lon="8.18904503223636"><ele>330.0</ele><time>2026-04-18T15:04:52.999Z</time></trkpt><trkpt lat="45.08024025167365" lon="8.189181052652375"><ele>330.0</ele><time>2026-04-18T15:04:53.999Z</time></trkpt><trkpt lat="45.080253496276924" lon="8.189318835740332"><ele>330.0</ele><time>2026-04-18T15:04:54.999Z</time></trkpt><trkpt lat="45.08026754195388" lon="8.189463331275157"><ele>330.5</ele><time>2026-04-18T15:04:55.999Z</time></trkpt><trkpt lat="45.08028856513806" lon="8.189575772309732"><ele>331.0</ele><time>2026-04-18T15:04:56.999Z</time></trkpt><trkpt lat="45.08034807488746" lon="8.189739379281919"><ele>331.5</ele><time>2026-04-18T15:04:58.999Z</time></trkpt><trkpt lat="45.08039702080362" lon="8.189828236709163"><ele>332.0</ele><time>2026-04-18T15:04:59.999Z</time></trkpt><trkpt lat="45.080528827572834" lon="8.189955825224247"><ele>332.0</ele><time>2026-04-18T15:05:01.999Z</time></trkpt><trkpt lat="45.080633800245415" lon="8.190046669922172"><ele>332.0</ele><time>2026-04-18T15:05:02.999Z</time></trkpt><trkpt lat="45.08070740655902" lon="8.190117761226603"><ele>332.0</ele><time>2026-04-18T15:05:03.999Z</time></trkpt><trkpt lat="45.08076349777647" lon="8.190190888303317"><ele>332.0</ele><time>2026-04-18T15:05:04.999Z</time></trkpt><trkpt lat="45.08081699726554" lon="8.190270425570182"><ele>332.0</ele><time>2026-04-18T15:05:05.999Z</time></trkpt><trkpt lat="45.080866248993566" lon="8.19038554588942"><ele>333.20000000000005</ele><time>2026-04-18T15:05:06.999Z</time></trkpt><trkpt lat="45.08092847447323" lon="8.19049493773238"><ele>334.4</ele><time>2026-04-18T15:05:07.999Z</time></trkpt><trkpt lat="45.08098936822866" lon="8.190587960717592"><ele>335.6</ele><time>2026-04-18T15:05:08.999Z</time></trkpt><trkpt lat="45.08104817507737" lon="8.190693883159298"><ele>336.79999999999995</ele><time>2026-04-18T15:05:09.999Z</time></trkpt><trkpt lat="45.08111643416066" lon="8.19079183990137"><ele>338.0</ele><time>2026-04-18T15:05:10.999Z</time></trkpt><trkpt lat="45.081188513826255" lon="8.190895690828258"><ele>338.0</ele><time>2026-04-18T15:05:11.999Z</time></trkpt><trkpt lat="45.08125752122744" lon="8.190993762512296"><ele>338.0</ele><time>2026-04-18T15:05:12.999Z</time></trkpt><trkpt lat="45.08132533957208" lon="8.191084676692132"><ele>338.0</ele><time>2026-04-18T15:05:13.999Z</time></trkpt><trkpt lat="45.08138008221984" lon="8.191167277742073"><ele>338.0</ele><time>2026-04-18T15:05:14.999Z</time></trkpt><trkpt lat="45.08142223991797" lon="8.191246767317706"><ele>338.0</ele><time>2026-04-18T15:05:15.999Z</time></trkpt><trkpt lat="45.0814968343383" lon="8.1913558374398"><ele>338.0</ele><time>2026-04-18T15:05:17.999Z</time></trkpt><trkpt lat="45.08159422823916" lon="8.191458034686809"><ele>337.4</ele><time>2026-04-18T15:05:19.999Z</time></trkpt><trkpt lat="45.08167097768249" lon="8.191539306474853"><ele>336.79999999999995</ele><time>2026-04-18T15:05:20.999Z</time></trkpt><trkpt lat="45.08177735994009" lon="8.191606748209585"><ele>336.2</ele><time>2026-04-18T15:05:21.999Z</time></trkpt><trkpt lat="45.081890158124075" lon="8.191676039537281"><ele>335.6</ele><time>2026-04-18T15:05:22.999Z</time></trkpt><trkpt lat="45.081979570483256" lon="8.191746784514905"><ele>335.0</ele><time>2026-04-18T15:05:23.999Z</time></trkpt><trkpt lat="45.082055225017164" lon="8.191783717930795"><ele>335.0</ele><time>2026-04-18T15:05:24.999Z</time></trkpt><trkpt lat="45.082141545687335" lon="8.19184720910237"><ele>335.0</ele><time>2026-04-18T15:05:25.999Z</time></trkpt><trkpt lat="45.08224671900978" lon="8.1919194112953"><ele>335.0</ele><time>2026-04-18T15:05:26.999Z</time></trkpt><trkpt lat="45.082353890592145" lon="8.191979578678007"><ele>335.0</ele><time>2026-04-18T15:05:27.999Z</time></trkpt><trkpt lat="45.082454135117985" lon="8.192038265420786"><ele>335.0</ele><time>2026-04-18T15:05:28.999Z</time></trkpt><trkpt lat="45.08254568762254" lon="8.192115483515787"><ele>334.4</ele><time>2026-04-18T15:05:29.999Z</time></trkpt><trkpt lat="45.08263569112763" lon="8.19218645540693"><ele>333.8</ele><time>2026-04-18T15:05:30.999Z</time></trkpt><trkpt lat="45.08270654700523" lon="8.192291931185084"><ele>333.20000000000005</ele><time>2026-04-18T15:05:32.999Z</time></trkpt><trkpt lat="45.08275036508064" lon="8.192458467038769"><ele>332.6</ele><time>2026-04-18T15:05:34.999Z</time></trkpt><trkpt lat="45.08275923872351" lon="8.192552991102023"><ele>332.0</ele><time>2026-04-18T15:05:35.999Z</time></trkpt><trkpt lat="45.08275610416976" lon="8.192644733597081"><ele>332.0</ele><time>2026-04-18T15:05:36.999Z</time></trkpt><trkpt lat="45.08273536403989" lon="8.192837509116403"><ele>332.0</ele><time>2026-04-18T15:05:39Z</time></trkpt><trkpt lat="45.08273312239415" lon="8.192951651416985"><ele>332.0</ele><time>2026-04-18T15:05:40Z</time></trkpt><trkpt lat="45.08277255759766" lon="8.19313361623922"><ele>332.0</ele><time>2026-04-18T15:05:42Z</time></trkpt><trkpt lat="45.08279767667769" lon="8.193239166484021"><ele>332.0</ele><time>2026-04-18T15:05:43Z</time></trkpt><trkpt lat="45.08280771408237" lon="8.193337675656961"><ele>330.6666666666667</ele><time>2026-04-18T15:05:44Z</time></trkpt><trkpt lat="45.08281814015318" lon="8.193453245877127"><ele>329.33333333333337</ele><time>2026-04-18T15:05:45Z</time></trkpt><trkpt lat="45.08282383750843" lon="8.193558862652504"><ele>328.0</ele><time>2026-04-18T15:05:46Z</time></trkpt><trkpt lat="45.08282553652133" lon="8.193670931817874"><ele>326.6666666666667</ele><time>2026-04-18T15:05:48Z</time></trkpt><trkpt lat="45.08289176231481" lon="8.193685181639303"><ele>325.3333333333333</ele><time>2026-04-18T15:06:05Z</time></trkpt><trkpt lat="45.082985985166665" lon="8.193673265446698"><ele>324.0</ele><time>2026-04-18T15:06:17Z</time></trkpt><trkpt lat="45.083059972291004" lon="8.19363498118616"><ele>324.0</ele><time>2026-04-18T15:06:18Z</time></trkpt><trkpt lat="45.083121588527234" lon="8.193607600437026"><ele>324.0</ele><time>2026-04-18T15:06:19Z</time></trkpt><trkpt lat="45.083189523092805" lon="8.193570910899979"><ele>324.0</ele><time>2026-04-18T15:06:20Z</time></trkpt><trkpt lat="45.08325323297091" lon="8.193534817929201"><ele>324.0</ele><time>2026-04-18T15:06:21Z</time></trkpt><trkpt lat="45.08332488813675" lon="8.193477857001717"><ele>324.0</ele><time>2026-04-18T15:06:23Z</time></trkpt><trkpt lat="45.08341916207233" lon="8.193407515290296"><ele>324.0</ele><time>2026-04-18T15:06:25Z</time></trkpt><trkpt lat="45.08350006619157" lon="8.193343969417272"><ele>326.1666666666667</ele><time>2026-04-18T15:06:26Z</time></trkpt><trkpt lat="45.08356720298358" lon="8.193280881636104"><ele>328.3333333333333</ele><time>2026-04-18T15:06:27Z</time></trkpt><trkpt lat="45.083626689635906" lon="8.193209382443037"><ele>330.5</ele><time>2026-04-18T15:06:28Z</time></trkpt><trkpt lat="45.08369072402686" lon="8.19312307912827"><ele>332.66666666666663</ele><time>2026-04-18T15:06:29Z</time></trkpt><trkpt lat="45.083747856173645" lon="8.1930597086302"><ele>334.8333333333333</ele><time>2026-04-18T15:06:30Z</time></trkpt><trkpt lat="45.0838058621926" lon="8.193004437004545"><ele>337.0</ele><time>2026-04-18T15:06:31Z</time></trkpt><trkpt lat="45.083900673786076" lon="8.19291423651247"><ele>338.00000000000006</ele><time>2026-04-18T15:06:33Z</time></trkpt><trkpt lat="45.083964738121495" lon="8.192915923061458"><ele>339.0</ele><time>2026-04-18T15:06:34.999Z</time></trkpt><trkpt lat="45.08402957804508" lon="8.192924633909938"><ele>340.0</ele><time>2026-04-18T15:06:35.999Z</time></trkpt><trkpt lat="45.084102947902736" lon="8.192942006257041"><ele>341.0</ele><time>2026-04-18T15:06:36.999Z</time></trkpt><trkpt lat="45.08416429723387" lon="8.192971349642928"><ele>342.0</ele><time>2026-04-18T15:06:37.999Z</time></trkpt><trkpt lat="45.08421992444339" lon="8.193056527206874"><ele>343.00000000000006</ele><time>2026-04-18T15:06:39.999Z</time></trkpt><trkpt lat="45.08424884695368" lon="8.193152419396561"><ele>344.0</ele><time>2026-04-18T15:06:42.999Z</time></trkpt><trkpt lat="45.08423125340454" lon="8.193249277623604"><ele>344.0</ele><time>2026-04-18T15:07:25.999Z</time></trkpt><trkpt lat="45.084202142962745" lon="8.193430489249977"><ele>344.0</ele><time>2026-04-18T15:07:27.999Z</time></trkpt><trkpt lat="45.08418986885589" lon="8.193555140524683"><ele>344.0</ele><time>2026-04-18T15:07:28.999Z</time></trkpt><trkpt lat="45.08417051042956" lon="8.193735302962772"><ele>344.0</ele><time>2026-04-18T15:07:29.999Z</time></trkpt><trkpt lat="45.08415814415084" lon="8.19389119461783"><ele>343.5</ele><time>2026-04-18T15:07:30.999Z</time></trkpt><trkpt lat="45.08413925867822" lon="8.19400649521391"><ele>343.0</ele><time>2026-04-18T15:07:31.999Z</time></trkpt><trkpt lat="45.08412886618839" lon="8.194141159212906"><ele>342.5</ele><time>2026-04-18T15:07:32.999Z</time></trkpt><trkpt lat="45.084114614572684" lon="8.194278995182144"><ele>342.0</ele><time>2026-04-18T15:07:33.999Z</time></trkpt><trkpt lat="45.08411203309839" lon="8.194404583498045"><ele>341.5</ele><time>2026-04-18T15:07:34.999Z</time></trkpt><trkpt lat="45.08411411331385" lon="8.194513005928322"><ele>341.0</ele><time>2026-04-18T15:07:35.999Z</time></trkpt><trkpt lat="45.08410432536344" lon="8.194638245109584"><ele>340.20000000000005</ele><time>2026-04-18T15:07:36.999Z</time></trkpt><trkpt lat="45.08408975406641" lon="8.194761084624535"><ele>339.40000000000003</ele><time>2026-04-18T15:07:37.999Z</time></trkpt><trkpt lat="45.0840680455132" lon="8.194868748117386"><ele>338.6</ele><time>2026-04-18T15:07:38.999Z</time></trkpt><trkpt lat="45.08403516374613" lon="8.194965911371513"><ele>337.8</ele><time>2026-04-18T15:07:39.999Z</time></trkpt><trkpt lat="45.08397833930575" lon="8.195089051963635"><ele>337.0</ele><time>2026-04-18T15:07:40.999Z</time></trkpt><trkpt lat="45.08389512640036" lon="8.195222109433205"><ele>337.0</ele><time>2026-04-18T15:07:41.999Z</time></trkpt><trkpt lat="45.08378435874205" lon="8.195393320281017"><ele>337.0</ele><time>2026-04-18T15:07:42.999Z</time></trkpt><trkpt lat="45.08370686598836" lon="8.19554806783142"><ele>337.0</ele><time>2026-04-18T15:07:44Z</time></trkpt><trkpt lat="45.0836455529326" lon="8.19567089362217"><ele>337.0</ele><time>2026-04-18T15:07:45Z</time></trkpt><trkpt lat="45.083579105414906" lon="8.195809465370113"><ele>337.40000000000003</ele><time>2026-04-18T15:07:46Z</time></trkpt><trkpt lat="45.08348886870118" lon="8.195962678179963"><ele>337.8</ele><time>2026-04-18T15:07:47Z</time></trkpt><trkpt lat="45.08338942360478" lon="8.196078694747865"><ele>338.2</ele><time>2026-04-18T15:07:48Z</time></trkpt><trkpt lat="45.083314893918086" lon="8.196158990807454"><ele>338.6</ele><time>2026-04-18T15:07:49Z</time></trkpt><trkpt lat="45.08324660398842" lon="8.196228332050987"><ele>339.0</ele><time>2026-04-18T15:07:50Z</time></trkpt><trkpt lat="45.08318115040749" lon="8.19630169938259"><ele>339.0</ele><time>2026-04-18T15:07:51Z</time></trkpt><trkpt lat="45.08311212673657" lon="8.196401223038698"><ele>339.0</ele><time>2026-04-18T15:07:52Z</time></trkpt><trkpt lat="45.083034296666185" lon="8.196528369593416"><ele>339.0</ele><time>2026-04-18T15:07:53Z</time></trkpt><trkpt lat="45.0829681045224" lon="8.19663866414415"><ele>339.0</ele><time>2026-04-18T15:07:54Z</time></trkpt><trkpt lat="45.0829137845726" lon="8.196736660387995"><ele>339.0</ele><time>2026-04-18T15:07:55Z</time></trkpt><trkpt lat="45.082849302536836" lon="8.196860717262876"><ele>341.75</ele><time>2026-04-18T15:07:56Z</time></trkpt><trkpt lat="45.08278625049848" lon="8.196997875213178"><ele>344.5</ele><time>2026-04-18T15:07:57Z</time></trkpt><trkpt lat="45.08272167818552" lon="8.197147173445774"><ele>347.25</ele><time>2026-04-18T15:07:58Z</time></trkpt><trkpt lat="45.082641215128355" lon="8.197287833971773"><ele>350.0</ele><time>2026-04-18T15:07:59Z</time></trkpt><trkpt lat="45.08255728149366" lon="8.197399734133915"><ele>350.6</ele><time>2026-04-18T15:08:00Z</time></trkpt><trkpt lat="45.082500058153634" lon="8.197460570337325"><ele>351.2</ele><time>2026-04-18T15:08:01Z</time></trkpt><trkpt lat="45.08239765640437" lon="8.197567159604965"><ele>351.79999999999995</ele><time>2026-04-18T15:08:03Z</time></trkpt><trkpt lat="45.08231752744538" lon="8.197617647059126"><ele>352.4</ele><time>2026-04-18T15:08:05.999Z</time></trkpt><trkpt lat="45.08223020463957" lon="8.197699358834896"><ele>353.0</ele><time>2026-04-18T15:08:07.999Z</time></trkpt><trkpt lat="45.082145750421866" lon="8.197784988236675"><ele>351.83333333333337</ele><time>2026-04-18T15:08:09.999Z</time></trkpt><trkpt lat="45.08209900138803" lon="8.19785064319937"><ele>350.6666666666667</ele><time>2026-04-18T15:08:11.999Z</time></trkpt><trkpt lat="45.08210509897654" lon="8.19795953232699"><ele>349.5</ele><time>2026-04-18T15:08:13.999Z</time></trkpt><trkpt lat="45.08207099001776" lon="8.198090993970542"><ele>348.3333333333333</ele><time>2026-04-18T15:08:16.999Z</time></trkpt><trkpt lat="45.082031197505735" lon="8.198195892892526"><ele>347.16666666666663</ele><time>2026-04-18T15:08:18.999Z</time></trkpt><trkpt lat="45.081994403414576" lon="8.198291761724013"><ele>346.0</ele><time>2026-04-18T15:08:20.999Z</time></trkpt><trkpt lat="45.08194756628365" lon="8.19838189944679"><ele>346.0</ele><time>2026-04-18T15:08:22.999Z</time></trkpt><trkpt lat="45.08188405661415" lon="8.198471227379708"><ele>346.0</ele><time>2026-04-18T15:08:25.999Z</time></trkpt><trkpt lat="45.08180706663366" lon="8.198524390904408"><ele>346.0</ele><time>2026-04-18T15:08:28.999Z</time></trkpt><trkpt lat="45.08174318518543" lon="8.198565830376987"><ele>346.0</ele><time>2026-04-18T15:08:31.999Z</time></trkpt><trkpt lat="45.08166357255594" lon="8.198599916618358"><ele>346.0</ele><time>2026-04-18T15:08:37.999Z</time></trkpt><trkpt lat="45.081569829128426" lon="8.198639120688444"><ele>346.0</ele><time>2026-04-18T15:08:38.999Z</time></trkpt><trkpt lat="45.08145204018992" lon="8.198679395384417"><ele>348.5</ele><time>2026-04-18T15:08:39.999Z</time></trkpt><trkpt lat="45.08134305341055" lon="8.198677807315349"><ele>351.0</ele><time>2026-04-18T15:08:40.999Z</time></trkpt><trkpt lat="45.08125155834583" lon="8.198640245955678"><ele>353.5</ele><time>2026-04-18T15:08:41.999Z</time></trkpt><trkpt lat="45.08113539336802" lon="8.198569421682812"><ele>356.0</ele><time>2026-04-18T15:08:42.999Z</time></trkpt><trkpt lat="45.08101005708939" lon="8.198511802582775"><ele>356.0</ele><time>2026-04-18T15:08:43.999Z</time></trkpt><trkpt lat="45.08090399563309" lon="8.198454565904617"><ele>356.0</ele><time>2026-04-18T15:08:44.999Z</time></trkpt><trkpt lat="45.080776910923916" lon="8.19839964516872"><ele>356.0</ele><time>2026-04-18T15:08:45.999Z</time></trkpt><trkpt lat="45.08062973755074" lon="8.198307658295578"><ele>356.0</ele><time>2026-04-18T15:08:46.999Z</time></trkpt><trkpt lat="45.08052630463046" lon="8.198232830093966"><ele>352.6</ele><time>2026-04-18T15:08:47.999Z</time></trkpt><trkpt lat="45.080433383169385" lon="8.198163992566109"><ele>349.20000000000005</ele><time>2026-04-18T15:08:48.999Z</time></trkpt><trkpt lat="45.08034305539629" lon="8.198103214089333"><ele>345.79999999999995</ele><time>2026-04-18T15:08:49.999Z</time></trkpt><trkpt lat="45.080252905155675" lon="8.198063814276804"><ele>342.4</ele><time>2026-04-18T15:08:50.999Z</time></trkpt><trkpt lat="45.08015270954867" lon="8.198066825103416"><ele>339.0</ele><time>2026-04-18T15:08:51.999Z</time></trkpt><trkpt lat="45.08001235038099" lon="8.19811371027763"><ele>344.0</ele><time>2026-04-18T15:08:52.999Z</time></trkpt><trkpt lat="45.07985743052864" lon="8.19817970571078"><ele>349.0</ele><time>2026-04-18T15:08:53.999Z</time></trkpt><trkpt lat="45.07972243451123" lon="8.198218037466972"><ele>354.0</ele><time>2026-04-18T15:08:54.999Z</time></trkpt><trkpt lat="45.07960290886131" lon="8.198203897940967"><ele>359.0</ele><time>2026-04-18T15:08:55.999Z</time></trkpt><trkpt lat="45.07946510999846" lon="8.198201005604924"><ele>359.0</ele><time>2026-04-18T15:08:56.999Z</time></trkpt><trkpt lat="45.07935235652831" lon="8.198212587363088"><ele>359.0</ele><time>2026-04-18T15:08:57.999Z</time></trkpt><trkpt lat="45.079268729922404" lon="8.19822620883841"><ele>359.0</ele><time>2026-04-18T15:08:58.999Z</time></trkpt><trkpt lat="45.07919223943346" lon="8.198283718189053"><ele>359.0</ele><time>2026-04-18T15:08:59.999Z</time></trkpt><trkpt lat="45.079130944439434" lon="8.19841874156817"><ele>359.0</ele><time>2026-04-18T15:09:00.999Z</time></trkpt><trkpt lat="45.07907614334935" lon="8.1986337986293"><ele>356.79999999999995</ele><time>2026-04-18T15:09:01.999Z</time></trkpt><trkpt lat="45.079017800561104" lon="8.198828622622864"><ele>354.59999999999997</ele><time>2026-04-18T15:09:02.998Z</time></trkpt><trkpt lat="45.07896398195196" lon="8.198973037239943"><ele>352.4</ele><time>2026-04-18T15:09:03.998Z</time></trkpt><trkpt lat="45.078934804470485" lon="8.199098537628153"><ele>350.2</ele><time>2026-04-18T15:09:04.998Z</time></trkpt><trkpt lat="45.078928320195594" lon="8.199213421888034"><ele>348.0</ele><time>2026-04-18T15:09:05.998Z</time></trkpt><trkpt lat="45.07895457491657" lon="8.19932394498728"><ele>347.0</ele><time>2026-04-18T15:09:06.998Z</time></trkpt><trkpt lat="45.07903614558409" lon="8.199465406345904"><ele>346.0</ele><time>2026-04-18T15:09:07.998Z</time></trkpt><trkpt lat="45.079167796869605" lon="8.199612085621888"><ele>345.0</ele><time>2026-04-18T15:09:08.998Z</time></trkpt><trkpt lat="45.079255396204275" lon="8.199754031289212"><ele>344.0</ele><time>2026-04-18T15:09:09.998Z</time></trkpt><trkpt lat="45.079297278207044" lon="8.199903014912962"><ele>349.5</ele><time>2026-04-18T15:09:10.998Z</time></trkpt><trkpt lat="45.07928026091068" lon="8.20009187895279"><ele>355.0</ele><time>2026-04-18T15:09:11.998Z</time></trkpt><trkpt lat="45.079257331348344" lon="8.200283220915946"><ele>360.5</ele><time>2026-04-18T15:09:12.998Z</time></trkpt><trkpt lat="45.07927196474584" lon="8.20042573515074"><ele>366.0</ele><time>2026-04-18T15:09:13.998Z</time></trkpt><trkpt lat="45.0793605375148" lon="8.200544232987182"><ele>364.0</ele><time>2026-04-18T15:09:14.998Z</time></trkpt><trkpt lat="45.07946340223764" lon="8.200706037915788"><ele>362.0</ele><time>2026-04-18T15:09:15.998Z</time></trkpt><trkpt lat="45.07956900396653" lon="8.2008344151306"><ele>360.0</ele><time>2026-04-18T15:09:16.998Z</time></trkpt><trkpt lat="45.079633013676336" lon="8.200908447019925"><ele>358.0</ele><time>2026-04-18T15:09:17.998Z</time></trkpt><trkpt lat="45.079686546240154" lon="8.20080491816163"><ele>358.0</ele><time>2026-04-18T15:09:21.998Z</time></trkpt><trkpt lat="45.0796581185592" lon="8.200706274408892"><ele>358.0</ele><time>2026-04-18T15:09:22.998Z</time></trkpt><trkpt lat="45.07960120538248" lon="8.20060932056378"><ele>358.0</ele><time>2026-04-18T15:09:23.998Z</time></trkpt><trkpt lat="45.07955338087062" lon="8.200503238866771"><ele>358.0</ele><time>2026-04-18T15:09:24.998Z</time></trkpt><trkpt lat="45.07951230165632" lon="8.200405015103788"><ele>358.0</ele><time>2026-04-18T15:09:25.998Z</time></trkpt><trkpt lat="45.07948333043051" lon="8.200307695538726"><ele>358.0</ele><time>2026-04-18T15:09:26.998Z</time></trkpt><trkpt lat="45.07947523530909" lon="8.20020621023227"><ele>358.0</ele><time>2026-04-18T15:09:28.998Z</time></trkpt><trkpt lat="45.07954714740883" lon="8.200266193267414"><ele>358.0</ele><time>2026-04-18T15:09:31.998Z</time></trkpt><trkpt lat="45.07956267900516" lon="8.20035885538665"><ele>358.0</ele><time>2026-04-18T15:09:32.998Z</time></trkpt><trkpt lat="45.07958835986795" lon="8.200449562504872"><ele>358.0</ele><time>2026-04-18T15:09:33.998Z</time></trkpt><trkpt lat="45.07965647751958" lon="8.20053034713073"><ele>358.0</ele><time>2026-04-18T15:09:34.998Z</time></trkpt><trkpt lat="45.079737852537946" lon="8.20062835282799"><ele>358.0</ele><time>2026-04-18T15:09:35.998Z</time></trkpt><trkpt lat="45.079818906353026" lon="8.200723643106098"><ele>358.0</ele><time>2026-04-18T15:09:36.998Z</time></trkpt><trkpt lat="45.079907945653936" lon="8.200830250079347"><ele>358.0</ele><time>2026-04-18T15:09:37.998Z</time></trkpt><trkpt lat="45.08001009248729" lon="8.200935526370959"><ele>358.0</ele><time>2026-04-18T15:09:38.998Z</time></trkpt><trkpt lat="45.08010104688676" lon="8.201015281944954"><ele>358.0</ele><time>2026-04-18T15:09:39.998Z</time></trkpt><trkpt lat="45.08016083951939" lon="8.201098212783599"><ele>358.0</ele><time>2026-04-18T15:09:40.998Z</time></trkpt><trkpt lat="45.08019379325459" lon="8.20118952482811"><ele>363.4</ele><time>2026-04-18T15:09:41.998Z</time></trkpt><trkpt lat="45.08022632281301" lon="8.201312725096201"><ele>368.79999999999995</ele><time>2026-04-18T15:09:42.998Z</time></trkpt><trkpt lat="45.08024904189463" lon="8.201448319398931"><ele>374.2</ele><time>2026-04-18T15:09:43.998Z</time></trkpt><trkpt lat="45.08025726357016" lon="8.201585689990798"><ele>379.6</ele><time>2026-04-18T15:09:44.998Z</time></trkpt><trkpt lat="45.080257568201816" lon="8.20167864231159"><ele>385.0</ele><time>2026-04-18T15:09:45.998Z</time></trkpt><trkpt lat="45.08025280327484" lon="8.201823752670748"><ele>385.0</ele><time>2026-04-18T15:09:47.998Z</time></trkpt><trkpt lat="45.080208206768965" lon="8.201998133042155"><ele>385.0</ele><time>2026-04-18T15:09:49.999Z</time></trkpt><trkpt lat="45.080163499459836" lon="8.202134235891707"><ele>385.0</ele><time>2026-04-18T15:09:50.999Z</time></trkpt><trkpt lat="45.080128192469246" lon="8.202265537444875"><ele>385.0</ele><time>2026-04-18T15:09:51.999Z</time></trkpt><trkpt lat="45.08011310317268" lon="8.202367631757733"><ele>385.0</ele><time>2026-04-18T15:09:52.999Z</time></trkpt><trkpt lat="45.080140641015795" lon="8.20254929527835"><ele>385.6</ele><time>2026-04-18T15:09:54.999Z</time></trkpt><trkpt lat="45.080178621335754" lon="8.202652749333778"><ele>386.2</ele><time>2026-04-18T15:09:55.999Z</time></trkpt><trkpt lat="45.08023614167492" lon="8.202758772963994"><ele>386.79999999999995</ele><time>2026-04-18T15:09:56.999Z</time></trkpt><trkpt lat="45.08031432509432" lon="8.202858738877872"><ele>387.4</ele><time>2026-04-18T15:09:57.999Z</time></trkpt><trkpt lat="45.08042970137935" lon="8.20297692412368"><ele>388.0</ele><time>2026-04-18T15:09:58.999Z</time></trkpt><trkpt lat="45.080551542444816" lon="8.203109079377649"><ele>388.0</ele><time>2026-04-18T15:09:59.999Z</time></trkpt><trkpt lat="45.08064847902806" lon="8.20322753948352"><ele>388.0</ele><time>2026-04-18T15:10:00.999Z</time></trkpt><trkpt lat="45.080724575621616" lon="8.20334279586966"><ele>388.0</ele><time>2026-04-18T15:10:02Z</time></trkpt><trkpt lat="45.08078633078991" lon="8.20344764211287"><ele>388.0</ele><time>2026-04-18T15:10:03Z</time></trkpt><trkpt lat="45.080827457915255" lon="8.203578969762024"><ele>388.0</ele><time>2026-04-18T15:10:04Z</time></trkpt><trkpt lat="45.08086643299104" lon="8.20368483622977"><ele>388.00000000000006</ele><time>2026-04-18T15:10:05Z</time></trkpt><trkpt lat="45.080899785352145" lon="8.203782882486674"><ele>388.0</ele><time>2026-04-18T15:10:06Z</time></trkpt><trkpt lat="45.0809088844816" lon="8.203895215142381"><ele>388.0</ele><time>2026-04-18T15:10:06.999Z</time></trkpt><trkpt lat="45.08090637898399" lon="8.20403344871314"><ele>388.0</ele><time>2026-04-18T15:10:07.999Z</time></trkpt><trkpt lat="45.080909844098635" lon="8.204142811791897"><ele>388.00000000000006</ele><time>2026-04-18T15:10:08.999Z</time></trkpt><trkpt lat="45.08094979513308" lon="8.20423175004599"><ele>388.0</ele><time>2026-04-18T15:10:09.999Z</time></trkpt><trkpt lat="45.081043494157285" lon="8.204335152764168"><ele>388.4</ele><time>2026-04-18T15:10:10.999Z</time></trkpt><trkpt lat="45.081121326961195" lon="8.204460006192349"><ele>388.79999999999995</ele><time>2026-04-18T15:10:11.999Z</time></trkpt><trkpt lat="45.08119626567536" lon="8.204552327881586"><ele>389.2</ele><time>2026-04-18T15:10:12.999Z</time></trkpt><trkpt lat="45.08123318778038" lon="8.204690673290838"><ele>389.6</ele><time>2026-04-18T15:10:13.999Z</time></trkpt><trkpt lat="45.0812296444272" lon="8.20486024805077"><ele>390.0</ele><time>2026-04-18T15:10:14.999Z</time></trkpt><trkpt lat="45.08125402476119" lon="8.205015083786597"><ele>390.0</ele><time>2026-04-18T15:10:15.999Z</time></trkpt><trkpt lat="45.081299726485305" lon="8.205115142999135"><ele>390.0</ele><time>2026-04-18T15:10:16.999Z</time></trkpt><trkpt lat="45.08134683352421" lon="8.205300312137984"><ele>390.0</ele><time>2026-04-18T15:10:18.999Z</time></trkpt><trkpt lat="45.081382739737016" lon="8.205412375174264"><ele>390.0</ele><time>2026-04-18T15:10:19.999Z</time></trkpt><trkpt lat="45.081413594413036" lon="8.205508672401853"><ele>390.0</ele><time>2026-04-18T15:10:20.999Z</time></trkpt><trkpt lat="45.08144803409758" lon="8.205611613887527"><ele>387.8</ele><time>2026-04-18T15:10:21.999Z</time></trkpt><trkpt lat="45.08148881421669" lon="8.205718128751567"><ele>385.6</ele><time>2026-04-18T15:10:22.999Z</time></trkpt><trkpt lat="45.081540440675596" lon="8.205808936804695"><ele>383.4</ele><time>2026-04-18T15:10:23.999Z</time></trkpt><trkpt lat="45.081562044468534" lon="8.20594353188189"><ele>381.2</ele><time>2026-04-18T15:10:24.999Z</time></trkpt><trkpt lat="45.08156291985697" lon="8.206088980691584"><ele>379.0</ele><time>2026-04-18T15:10:25.999Z</time></trkpt><trkpt lat="45.081525540139985" lon="8.206246153620105"><ele>379.0</ele><time>2026-04-18T15:10:26.999Z</time></trkpt><trkpt lat="45.08151167081618" lon="8.206415646026494"><ele>379.0</ele><time>2026-04-18T15:10:27.999Z</time></trkpt><trkpt lat="45.08147755812631" lon="8.206581229667858"><ele>379.0</ele><time>2026-04-18T15:10:28.999Z</time></trkpt><trkpt lat="45.081467075453745" lon="8.206750931509774"><ele>379.0</ele><time>2026-04-18T15:10:29.999Z</time></trkpt><trkpt lat="45.08146721449893" lon="8.20692553625847"><ele>379.2</ele><time>2026-04-18T15:10:30.999Z</time></trkpt><trkpt lat="45.081477747965515" lon="8.207082373580697"><ele>379.4</ele><time>2026-04-18T15:10:31.999Z</time></trkpt><trkpt lat="45.081484822574204" lon="8.207229531793867"><ele>379.6</ele><time>2026-04-18T15:10:32.999Z</time></trkpt><trkpt lat="45.08148903713006" lon="8.207359468574976"><ele>379.8</ele><time>2026-04-18T15:10:33.999Z</time></trkpt><trkpt lat="45.08148908429847" lon="8.207481923191295"><ele>380.0</ele><time>2026-04-18T15:10:34.999Z</time></trkpt><trkpt lat="45.08147805829449" lon="8.207731701650356"><ele>380.0</ele><time>2026-04-18T15:10:36.999Z</time></trkpt><trkpt lat="45.08147427195573" lon="8.207834355551606"><ele>380.0</ele><time>2026-04-18T15:10:37.999Z</time></trkpt><trkpt lat="45.081395842238926" lon="8.207927898306869"><ele>380.0</ele><time>2026-04-18T15:10:39.999Z</time></trkpt><trkpt lat="45.08152242661928" lon="8.208223313553093"><ele>380.0</ele><time>2026-04-18T15:10:43.999Z</time></trkpt><trkpt lat="45.08154226833953" lon="8.208328806356887"><ele>380.7142857142857</ele><time>2026-04-18T15:10:45.999Z</time></trkpt><trkpt lat="45.08156570900249" lon="8.208424075237888"><ele>381.42857142857144</ele><time>2026-04-18T15:10:50.999Z</time></trkpt><trkpt lat="45.08158948434818" lon="8.208515390468408"><ele>382.1428571428571</ele><time>2026-04-18T15:11:06.999Z</time></trkpt><trkpt lat="45.08160833426107" lon="8.208604860243483"><ele>382.8571428571429</ele><time>2026-04-18T15:11:09.999Z</time></trkpt><trkpt lat="45.081643034382445" lon="8.208724951357977"><ele>383.57142857142856</ele><time>2026-04-18T15:11:11.999Z</time></trkpt><trkpt lat="45.081684936497325" lon="8.208810769734944"><ele>384.2857142857143</ele><time>2026-04-18T15:11:12.999Z</time></trkpt><trkpt lat="45.08173517981948" lon="8.208895511698877"><ele>385.0</ele><time>2026-04-18T15:11:13.999Z</time></trkpt><trkpt lat="45.08178486762025" lon="8.209032582886605"><ele>385.00000000000006</ele><time>2026-04-18T15:11:14.999Z</time></trkpt><trkpt lat="45.08182722253608" lon="8.209127783023002"><ele>385.0</ele><time>2026-04-18T15:11:15.999Z</time></trkpt><trkpt lat="45.08187175867286" lon="8.209234395812874"><ele>385.0</ele><time>2026-04-18T15:11:16.999Z</time></trkpt><trkpt lat="45.08191272855103" lon="8.209338062185678"><ele>385.0</ele><time>2026-04-18T15:11:17.999Z</time></trkpt><trkpt lat="45.08195629220786" lon="8.209438217600951"><ele>385.00000000000006</ele><time>2026-04-18T15:11:18.999Z</time></trkpt><trkpt lat="45.08200230758979" lon="8.209541284383139"><ele>385.0</ele><time>2026-04-18T15:11:19.999Z</time></trkpt><trkpt lat="45.08205196657042" lon="8.209613879867302"><ele>385.00000000000006</ele><time>2026-04-18T15:11:20.999Z</time></trkpt><trkpt lat="45.082113012884186" lon="8.209697297929857"><ele>385.0</ele><time>2026-04-18T15:11:21.999Z</time></trkpt><trkpt lat="45.08217508186283" lon="8.209796168074124"><ele>385.0</ele><time>2026-04-18T15:11:22.999Z</time></trkpt><trkpt lat="45.08221727643783" lon="8.209895959784026"><ele>385.0</ele><time>2026-04-18T15:11:23.999Z</time></trkpt><trkpt lat="45.082241782315606" lon="8.209999694386864"><ele>385.00000000000006</ele><time>2026-04-18T15:11:24.999Z</time></trkpt><trkpt lat="45.08225249247965" lon="8.210114723399519"><ele>385.0</ele><time>2026-04-18T15:11:25.999Z</time></trkpt><trkpt lat="45.08224823159475" lon="8.210228007552196"><ele>382.6666666666667</ele><time>2026-04-18T15:11:26.999Z</time></trkpt><trkpt lat="45.08222458468284" lon="8.210344879186508"><ele>380.33333333333337</ele><time>2026-04-18T15:11:27.999Z</time></trkpt><trkpt lat="45.0821882446349" lon="8.210453862298813"><ele>378.0</ele><time>2026-04-18T15:11:28.999Z</time></trkpt><trkpt lat="45.082158992179856" lon="8.21055794887434"><ele>375.6666666666667</ele><time>2026-04-18T15:11:29.999Z</time></trkpt><trkpt lat="45.082143627727845" lon="8.21066249796814"><ele>373.33333333333337</ele><time>2026-04-18T15:11:30.998Z</time></trkpt><trkpt lat="45.08213614429667" lon="8.210754966045148"><ele>371.0</ele><time>2026-04-18T15:11:31.998Z</time></trkpt><trkpt lat="45.082137671407594" lon="8.210865129123105"><ele>369.25</ele><time>2026-04-18T15:11:32.998Z</time></trkpt><trkpt lat="45.08222366759648" lon="8.211050230817781"><ele>367.5</ele><time>2026-04-18T15:11:34.998Z</time></trkpt><trkpt lat="45.08230618931228" lon="8.211193851123028"><ele>365.75</ele><time>2026-04-18T15:11:35.998Z</time></trkpt><trkpt lat="45.0823697588999" lon="8.211323966491213"><ele>364.0</ele><time>2026-04-18T15:11:36.998Z</time></trkpt><trkpt lat="45.08241539504478" lon="8.211443704469358"><ele>366.0</ele><time>2026-04-18T15:11:37.998Z</time></trkpt><trkpt lat="45.082446295455306" lon="8.211567303076173"><ele>368.0</ele><time>2026-04-18T15:11:38.998Z</time></trkpt><trkpt lat="45.08246048884456" lon="8.211686454997494"><ele>370.0</ele><time>2026-04-18T15:11:39.998Z</time></trkpt><trkpt lat="45.082471574129556" lon="8.211782568571866"><ele>372.0</ele><time>2026-04-18T15:11:40.998Z</time></trkpt><trkpt lat="45.082513528698584" lon="8.21194908413315"><ele>374.0</ele><time>2026-04-18T15:11:42.998Z</time></trkpt><trkpt lat="45.08255738714007" lon="8.212039894141434"><ele>376.0</ele><time>2026-04-18T15:11:43.998Z</time></trkpt><trkpt lat="45.08262218084933" lon="8.212156299727885"><ele>376.0</ele><time>2026-04-18T15:11:44.998Z</time></trkpt><trkpt lat="45.08269548561196" lon="8.212294001963565"><ele>376.0</ele><time>2026-04-18T15:11:45.998Z</time></trkpt><trkpt lat="45.08275670375459" lon="8.212417002565951"><ele>376.0</ele><time>2026-04-18T15:11:46.998Z</time></trkpt><trkpt lat="45.08279237651495" lon="8.212540050491402"><ele>376.0</ele><time>2026-04-18T15:11:47.998Z</time></trkpt><trkpt lat="45.08281716641336" lon="8.212661163864542"><ele>376.0</ele><time>2026-04-18T15:11:48.998Z</time></trkpt><trkpt lat="45.082844333753485" lon="8.212789156132573"><ele>375.4</ele><time>2026-04-18T15:11:49.998Z</time></trkpt><trkpt lat="45.08287048192523" lon="8.212914133277405"><ele>374.8</ele><time>2026-04-18T15:11:50.998Z</time></trkpt><trkpt lat="45.08291012284504" lon="8.213018960014665"><ele>374.2</ele><time>2026-04-18T15:11:51.998Z</time></trkpt><trkpt lat="45.08295212521147" lon="8.213111265138815"><ele>373.59999999999997</ele><time>2026-04-18T15:11:52.998Z</time></trkpt><trkpt lat="45.083014260210426" lon="8.21319522717665"><ele>373.0</ele><time>2026-04-18T15:11:53.998Z</time></trkpt><trkpt lat="45.08310834995684" lon="8.21330295071373"><ele>373.0</ele><time>2026-04-18T15:11:55Z</time></trkpt><trkpt lat="45.083191580481824" lon="8.213402154623244"><ele>373.0</ele><time>2026-04-18T15:11:56Z</time></trkpt><trkpt lat="45.08324563143961" lon="8.213453276341502"><ele>373.0</ele><time>2026-04-18T15:11:57Z</time></trkpt><trkpt lat="45.0833539686594" lon="8.213516916912512"><ele>373.0</ele><time>2026-04-18T15:11:58Z</time></trkpt><trkpt lat="45.08346447405436" lon="8.213566269380731"><ele>373.0</ele><time>2026-04-18T15:11:59Z</time></trkpt><trkpt lat="45.08355358151958" lon="8.213590825408508"><ele>374.0</ele><time>2026-04-18T15:12:00Z</time></trkpt><trkpt lat="45.08364699388924" lon="8.213587623037292"><ele>375.0</ele><time>2026-04-18T15:12:01Z</time></trkpt><trkpt lat="45.08376041046474" lon="8.213567045816085"><ele>376.0</ele><time>2026-04-18T15:12:02Z</time></trkpt><trkpt lat="45.08386924721219" lon="8.213574852552586"><ele>377.0</ele><time>2026-04-18T15:12:03Z</time></trkpt><trkpt lat="45.08395745581666" lon="8.213585581881267"><ele>378.0</ele><time>2026-04-18T15:12:04Z</time></trkpt><trkpt lat="45.084050244954334" lon="8.213593713278206"><ele>376.0</ele><time>2026-04-18T15:12:05Z</time></trkpt><trkpt lat="45.08414914474455" lon="8.213594379475802"><ele>374.0</ele><time>2026-04-18T15:12:06Z</time></trkpt><trkpt lat="45.08424799546242" lon="8.21358734359404"><ele>372.0</ele><time>2026-04-18T15:12:07Z</time></trkpt><trkpt lat="45.08433925193717" lon="8.213602563547393"><ele>370.0</ele><time>2026-04-18T15:12:08Z</time></trkpt><trkpt lat="45.084426323576444" lon="8.213622074401577"><ele>368.0</ele><time>2026-04-18T15:12:09Z</time></trkpt><trkpt lat="45.084497661939444" lon="8.213661786577786"><ele>368.0</ele><time>2026-04-18T15:12:10Z</time></trkpt><trkpt lat="45.084557633402184" lon="8.213702993748223"><ele>368.0</ele><time>2026-04-18T15:12:11Z</time></trkpt><trkpt lat="45.084622416746704" lon="8.213761301763762"><ele>368.0</ele><time>2026-04-18T15:12:14Z</time></trkpt><trkpt lat="45.084693397398844" lon="8.213804414301071"><ele>368.0</ele><time>2026-04-18T15:12:16Z</time></trkpt><trkpt lat="45.084791839407046" lon="8.213832624091"><ele>368.0</ele><time>2026-04-18T15:12:18Z</time></trkpt><trkpt lat="45.08487129305321" lon="8.213810080194664"><ele>368.0</ele><time>2026-04-18T15:12:22Z</time></trkpt><trkpt lat="45.08498830955091" lon="8.213776943807582"><ele>365.6666666666667</ele><time>2026-04-18T15:12:24Z</time></trkpt><trkpt lat="45.085060915011645" lon="8.21372621852384"><ele>363.33333333333337</ele><time>2026-04-18T15:12:25Z</time></trkpt><trkpt lat="45.08513463221571" lon="8.213698641587643"><ele>361.0</ele><time>2026-04-18T15:12:26Z</time></trkpt><trkpt lat="45.08524970863101" lon="8.21365994084294"><ele>358.6666666666667</ele><time>2026-04-18T15:12:28Z</time></trkpt><trkpt lat="45.08532068246206" lon="8.213667354980851"><ele>356.3333333333333</ele><time>2026-04-18T15:12:29Z</time></trkpt><trkpt lat="45.08539308771789" lon="8.213694395966133"><ele>354.0</ele><time>2026-04-18T15:12:30Z</time></trkpt><trkpt lat="45.08547792987711" lon="8.213711678510228"><ele>354.0</ele><time>2026-04-18T15:12:31Z</time></trkpt><trkpt lat="45.08556769816055" lon="8.213745033881944"><ele>354.0</ele><time>2026-04-18T15:12:32Z</time></trkpt><trkpt lat="45.085647424307766" lon="8.213763393371927"><ele>354.0</ele><time>2026-04-18T15:12:33Z</time></trkpt><trkpt lat="45.08574449406939" lon="8.213770656446252"><ele>354.0</ele><time>2026-04-18T15:12:35Z</time></trkpt><trkpt lat="45.0858137851575" lon="8.213775972263312"><ele>354.0</ele><time>2026-04-18T15:12:36Z</time></trkpt><trkpt lat="45.08589959871061" lon="8.213800401666237"><ele>354.0</ele><time>2026-04-18T15:12:37Z</time></trkpt><trkpt lat="45.08600127648513" lon="8.213836173144557"><ele>353.2</ele><time>2026-04-18T15:12:38Z</time></trkpt><trkpt lat="45.086091921756626" lon="8.213861539451477"><ele>352.4</ele><time>2026-04-18T15:12:39Z</time></trkpt><trkpt lat="45.08620023569911" lon="8.213896592556374"><ele>351.6</ele><time>2026-04-18T15:12:41Z</time></trkpt><trkpt lat="45.08628354399806" lon="8.213948048604552"><ele>350.8</ele><time>2026-04-18T15:12:42Z</time></trkpt><trkpt lat="45.08636551993183" lon="8.214017224771649"><ele>350.0</ele><time>2026-04-18T15:12:43Z</time></trkpt><trkpt lat="45.08642520464456" lon="8.214065798972127"><ele>353.75</ele><time>2026-04-18T15:12:44Z</time></trkpt><trkpt lat="45.086516931015375" lon="8.214097303677718"><ele>357.5</ele><time>2026-04-18T15:12:46Z</time></trkpt><trkpt lat="45.086664055339405" lon="8.21408494011364"><ele>361.25</ele><time>2026-04-18T15:12:48Z</time></trkpt><trkpt lat="45.08673307851247" lon="8.214078138843044"><ele>365.0</ele><time>2026-04-18T15:12:49Z</time></trkpt><trkpt lat="45.08687775745877" lon="8.214018919767378"><ele>365.0</ele><time>2026-04-18T15:12:50.999Z</time></trkpt><trkpt lat="45.08697918678134" lon="8.213991416880766"><ele>365.0</ele><time>2026-04-18T15:12:51.999Z</time></trkpt><trkpt lat="45.08707308170972" lon="8.21399775131363"><ele>365.0</ele><time>2026-04-18T15:12:52.999Z</time></trkpt><trkpt lat="45.08717903538679" lon="8.214062714081132"><ele>365.0</ele><time>2026-04-18T15:12:53.999Z</time></trkpt><trkpt lat="45.08729733079944" lon="8.214058090262613"><ele>365.0</ele><time>2026-04-18T15:12:54.999Z</time></trkpt><trkpt lat="45.08740956685085" lon="8.214043024585944"><ele>365.1666666666667</ele><time>2026-04-18T15:12:55.999Z</time></trkpt><trkpt lat="45.08749600856927" lon="8.21403260941856"><ele>365.33333333333337</ele><time>2026-04-18T15:12:56.999Z</time></trkpt><trkpt lat="45.087560910133945" lon="8.214043506708498"><ele>365.5</ele><time>2026-04-18T15:13:22.999Z</time></trkpt><trkpt lat="45.087655621595125" lon="8.214035097935174"><ele>365.6666666666667</ele><time>2026-04-18T15:13:26.999Z</time></trkpt><trkpt lat="45.08772097927651" lon="8.214027496174616"><ele>365.8333333333333</ele><time>2026-04-18T15:13:27.999Z</time></trkpt><trkpt lat="45.087811891912104" lon="8.21402591231668"><ele>366.0</ele><time>2026-04-18T15:13:29.999Z</time></trkpt><trkpt lat="45.087875782871386" lon="8.21403491243217"><ele>366.0</ele><time>2026-04-18T15:13:31.999Z</time></trkpt><trkpt lat="45.087965289602955" lon="8.21405589639484"><ele>366.0</ele><time>2026-04-18T15:13:35.999Z</time></trkpt><trkpt lat="45.088026581830974" lon="8.214083113049613"><ele>366.0</ele><time>2026-04-18T15:13:40.999Z</time></trkpt><trkpt lat="45.08809202748852" lon="8.21413655656486"><ele>366.0</ele><time>2026-04-18T15:13:47.999Z</time></trkpt><trkpt lat="45.08816389318199" lon="8.214190446767697"><ele>366.0</ele><time>2026-04-18T15:13:50.999Z</time></trkpt><trkpt lat="45.08821746073198" lon="8.214253811316338"><ele>366.0</ele><time>2026-04-18T15:14:34Z</time></trkpt><trkpt lat="45.088303509440756" lon="8.214315294033216"><ele>367.0</ele><time>2026-04-18T15:14:37Z</time></trkpt><trkpt lat="45.08836657115876" lon="8.214362337599992"><ele>368.0</ele><time>2026-04-18T15:14:40Z</time></trkpt><trkpt lat="45.08846993123412" lon="8.214362649191063"><ele>369.0</ele><time>2026-04-18T15:14:45Z</time></trkpt><trkpt lat="45.08853260952623" lon="8.214382097278122"><ele>370.0</ele><time>2026-04-18T15:14:46Z</time></trkpt><trkpt lat="45.08861171346523" lon="8.214382097274383"><ele>371.0</ele><time>2026-04-18T15:14:48Z</time></trkpt><trkpt lat="45.08868973266424" lon="8.21437825690396"><ele>372.0</ele><time>2026-04-18T15:14:51Z</time></trkpt><trkpt lat="45.08878498896931" lon="8.214352335749064"><ele>372.0</ele><time>2026-04-18T15:14:55Z</time></trkpt><trkpt lat="45.088871527090326" lon="8.214349697989151"><ele>372.0</ele><time>2026-04-18T15:14:56Z</time></trkpt><trkpt lat="45.08894166749649" lon="8.214310351085588"><ele>372.0</ele><time>2026-04-18T15:14:57Z</time></trkpt><trkpt lat="45.08900765283226" lon="8.214313173734064"><ele>372.0</ele><time>2026-04-18T15:14:58Z</time></trkpt><trkpt lat="45.08911965808029" lon="8.214307961919578"><ele>372.0</ele><time>2026-04-18T15:15:00Z</time></trkpt><trkpt lat="45.089186245561166" lon="8.214325201234445"><ele>372.0</ele><time>2026-04-18T15:15:01Z</time></trkpt><trkpt lat="45.08926999165079" lon="8.214333722853532"><ele>372.1666666666667</ele><time>2026-04-18T15:15:02Z</time></trkpt><trkpt lat="45.08933664580353" lon="8.21439020024562"><ele>372.3333333333333</ele><time>2026-04-18T15:15:03Z</time></trkpt><trkpt lat="45.08940576790944" lon="8.214440898694265"><ele>372.5</ele><time>2026-04-18T15:15:04Z</time></trkpt><trkpt lat="45.089500357157554" lon="8.21454015729519"><ele>372.66666666666663</ele><time>2026-04-18T15:15:07Z</time></trkpt><trkpt lat="45.08955971124395" lon="8.214609717922459"><ele>372.8333333333333</ele><time>2026-04-18T15:15:08Z</time></trkpt><trkpt lat="45.08962018039896" lon="8.214683374662037"><ele>373.0</ele><time>2026-04-18T15:15:09Z</time></trkpt><trkpt lat="45.089713606942084" lon="8.214751720803132"><ele>373.0</ele><time>2026-04-18T15:15:10.999Z</time></trkpt><trkpt lat="45.08984470806607" lon="8.214800836036046"><ele>373.0</ele><time>2026-04-18T15:15:11.999Z</time></trkpt><trkpt lat="45.08993866641966" lon="8.2148319685148"><ele>373.0</ele><time>2026-04-18T15:15:12.999Z</time></trkpt><trkpt lat="45.08999710144098" lon="8.214867878727032"><ele>373.0</ele><time>2026-04-18T15:15:13.999Z</time></trkpt><trkpt lat="45.09008017621374" lon="8.21495171729457"><ele>373.0</ele><time>2026-04-18T15:15:15.999Z</time></trkpt><trkpt lat="45.0901633074757" lon="8.2150470804841"><ele>374.4</ele><time>2026-04-18T15:15:16.999Z</time></trkpt><trkpt lat="45.090237353673686" lon="8.215089807604748"><ele>375.79999999999995</ele><time>2026-04-18T15:15:17.999Z</time></trkpt><trkpt lat="45.09031133076698" lon="8.215176882795966"><ele>377.2</ele><time>2026-04-18T15:15:19.999Z</time></trkpt><trkpt lat="45.090386249289864" lon="8.215204193571909"><ele>378.6</ele><time>2026-04-18T15:15:20.999Z</time></trkpt><trkpt lat="45.090473726295286" lon="8.215235459691604"><ele>380.0</ele><time>2026-04-18T15:15:22.999Z</time></trkpt><trkpt lat="45.09061719356876" lon="8.21528473123771"><ele>380.0</ele><time>2026-04-18T15:15:24.999Z</time></trkpt><trkpt lat="45.0907336484981" lon="8.21529658589982"><ele>380.0</ele><time>2026-04-18T15:15:25.999Z</time></trkpt><trkpt lat="45.09089758549616" lon="8.2153069140483"><ele>380.0</ele><time>2026-04-18T15:15:27.999Z</time></trkpt><trkpt lat="45.0909765223412" lon="8.215301467487802"><ele>380.0</ele><time>2026-04-18T15:15:29.999Z</time></trkpt><trkpt lat="45.09106215051275" lon="8.215244653664724"><ele>382.0</ele><time>2026-04-18T15:15:58.998Z</time></trkpt><trkpt lat="45.09113850033674" lon="8.215205480290429"><ele>384.0</ele><time>2026-04-18T15:16:00.998Z</time></trkpt><trkpt lat="45.09125072034667" lon="8.215137575793594"><ele>386.0</ele><time>2026-04-18T15:16:02.998Z</time></trkpt><trkpt lat="45.09136099812349" lon="8.215119852959925"><ele>388.0</ele><time>2026-04-18T15:16:04.998Z</time></trkpt><trkpt lat="45.09106215051275" lon="8.215244653664724"><ele>388.0</ele><time>2026-04-18T15:15:58.998Z</time></trkpt><trkpt lat="45.09113850033674" lon="8.215205480290429"><ele>388.0</ele><time>2026-04-18T15:16:00.998Z</time></trkpt><trkpt lat="45.09125072034667" lon="8.215137575793594"><ele>388.0</ele><time>2026-04-18T15:16:02.998Z</time></trkpt><trkpt lat="45.09136099812349" lon="8.215119852959925"><ele>388.0</ele><time>2026-04-18T15:16:04.998Z</time></trkpt><trkpt lat="45.091441112514296" lon="8.215071931635164"><ele>388.0</ele><time>2026-04-18T15:16:07Z</time></trkpt><trkpt lat="45.09154077897717" lon="8.215074892340041"><ele>387.00000000000006</ele><time>2026-04-18T15:16:09Z</time></trkpt><trkpt lat="45.091631039246664" lon="8.215081681845648"><ele>386.0</ele><time>2026-04-18T15:16:11Z</time></trkpt><trkpt lat="45.091727123654245" lon="8.215145958145493"><ele>385.0</ele><time>2026-04-18T15:16:13Z</time></trkpt><trkpt lat="45.091799396091766" lon="8.215166119236706"><ele>384.0</ele><time>2026-04-18T15:16:14Z</time></trkpt><trkpt lat="45.09186541495346" lon="8.215195162172337"><ele>383.0</ele><time>2026-04-18T15:16:15Z</time></trkpt><trkpt lat="45.09192670831523" lon="8.21522170007829"><ele>382.0</ele><time>2026-04-18T15:16:16Z</time></trkpt><trkpt lat="45.09199069852527" lon="8.215248035643402"><ele>382.0</ele><time>2026-04-18T15:16:17Z</time></trkpt><trkpt lat="45.09208916230614" lon="8.21527606929203"><ele>382.0</ele><time>2026-04-18T15:16:19Z</time></trkpt><trkpt lat="45.09220729922697" lon="8.215249509889105"><ele>382.0</ele><time>2026-04-18T15:16:21Z</time></trkpt><trkpt lat="45.09231041278447" lon="8.215178702053725"><ele>382.0</ele><time>2026-04-18T15:16:23Z</time></trkpt><trkpt lat="45.092379524947326" lon="8.215112768655702"><ele>382.0</ele><time>2026-04-18T15:16:24Z</time></trkpt><trkpt lat="45.092456672907076" lon="8.215034065200586"><ele>383.20000000000005</ele><time>2026-04-18T15:16:25Z</time></trkpt><trkpt lat="45.09254135112933" lon="8.214919666051532"><ele>384.4</ele><time>2026-04-18T15:16:27Z</time></trkpt><trkpt lat="45.09257843362551" lon="8.214842976680202"><ele>385.6</ele><time>2026-04-18T15:16:28Z</time></trkpt><trkpt lat="45.09262243613498" lon="8.214714713868462"><ele>386.79999999999995</ele><time>2026-04-18T15:16:30Z</time></trkpt><trkpt lat="45.09264223721966" lon="8.214610643551792"><ele>388.0</ele><time>2026-04-18T15:16:32Z</time></trkpt><trkpt lat="45.09266951629007" lon="8.214424317036137"><ele>385.6666666666667</ele><time>2026-04-18T15:16:35Z</time></trkpt><trkpt lat="45.09267299569134" lon="8.214266782607808"><ele>383.33333333333337</ele><time>2026-04-18T15:16:37Z</time></trkpt><trkpt lat="45.09267044356399" lon="8.214174323918146"><ele>381.0</ele><time>2026-04-18T15:16:38Z</time></trkpt><trkpt lat="45.09266886161479" lon="8.214067988695344"><ele>378.6666666666667</ele><time>2026-04-18T15:16:39Z</time></trkpt><trkpt lat="45.09266999166727" lon="8.213956731155905"><ele>376.33333333333337</ele><time>2026-04-18T15:16:40Z</time></trkpt><trkpt lat="45.092673764884665" lon="8.213852025618856"><ele>374.0</ele><time>2026-04-18T15:16:41Z</time></trkpt><trkpt lat="45.09271099432917" lon="8.213701317318124"><ele>373.1666666666667</ele><time>2026-04-18T15:16:43Z</time></trkpt><trkpt lat="45.092781720547904" lon="8.21356784318805"><ele>372.33333333333337</ele><time>2026-04-18T15:16:45Z</time></trkpt><trkpt lat="45.09283259265123" lon="8.21345197683401"><ele>371.5</ele><time>2026-04-18T15:16:47Z</time></trkpt><trkpt lat="45.09288659311216" lon="8.213400614527625"><ele>370.6666666666667</ele><time>2026-04-18T15:16:48Z</time></trkpt><trkpt lat="45.092945942705086" lon="8.213317488378454"><ele>369.8333333333333</ele><time>2026-04-18T15:16:50Z</time></trkpt><trkpt lat="45.092998579345405" lon="8.213369244379937"><ele>369.0</ele><time>2026-04-18T15:17:14.999Z</time></trkpt><trkpt lat="45.09303240285031" lon="8.213467749012773"><ele>369.0</ele><time>2026-04-18T15:17:15.999Z</time></trkpt><trkpt lat="45.09306571690048" lon="8.213559311760637"><ele>369.0</ele><time>2026-04-18T15:17:16.999Z</time></trkpt><trkpt lat="45.093100131923656" lon="8.213689687518745"><ele>369.0</ele><time>2026-04-18T15:17:17.999Z</time></trkpt><trkpt lat="45.09312553179883" lon="8.213792724253302"><ele>369.0</ele><time>2026-04-18T15:17:18.999Z</time></trkpt><trkpt lat="45.093152927939066" lon="8.213899757309719"><ele>369.0</ele><time>2026-04-18T15:17:19.999Z</time></trkpt><trkpt lat="45.093153518228945" lon="8.213992057571415"><ele>369.0</ele><time>2026-04-18T15:17:20.999Z</time></trkpt><trkpt lat="45.09317712900897" lon="8.214130014075927"><ele>373.6</ele><time>2026-04-18T15:17:21.999Z</time></trkpt><trkpt lat="45.09328424147473" lon="8.214264532785403"><ele>378.2</ele><time>2026-04-18T15:17:23.999Z</time></trkpt><trkpt lat="45.09335836708901" lon="8.214294637409235"><ele>382.8</ele><time>2026-04-18T15:17:24.999Z</time></trkpt><trkpt lat="45.09343584136082" lon="8.214283496199933"><ele>387.40000000000003</ele><time>2026-04-18T15:17:25.999Z</time></trkpt><trkpt lat="45.09351373586535" lon="8.214265971242886"><ele>392.0</ele><time>2026-04-18T15:17:26.999Z</time></trkpt><trkpt lat="45.09358126800557" lon="8.214225885600353"><ele>392.0</ele><time>2026-04-18T15:17:27.999Z</time></trkpt><trkpt lat="45.0937036627028" lon="8.214037072982133"><ele>392.0</ele><time>2026-04-18T15:17:29.999Z</time></trkpt><trkpt lat="45.09376905810261" lon="8.213940305233777"><ele>392.0</ele><time>2026-04-18T15:17:30.999Z</time></trkpt><trkpt lat="45.09382602381299" lon="8.213848157621008"><ele>392.0</ele><time>2026-04-18T15:17:31.999Z</time></trkpt><trkpt lat="45.09387009349806" lon="8.21377436317773"><ele>392.0</ele><time>2026-04-18T15:17:32.999Z</time></trkpt><trkpt lat="45.094004683673916" lon="8.213606441590395"><ele>389.0</ele><time>2026-04-18T15:17:34.999Z</time></trkpt><trkpt lat="45.094087309355025" lon="8.213550796351564"><ele>386.0</ele><time>2026-04-18T15:17:35.999Z</time></trkpt><trkpt lat="45.09418245234113" lon="8.213481838909216"><ele>383.0</ele><time>2026-04-18T15:17:36.999Z</time></trkpt><trkpt lat="45.09427139048634" lon="8.213418797449208"><ele>380.0</ele><time>2026-04-18T15:17:37.999Z</time></trkpt><trkpt lat="45.09435424933302" lon="8.213360066361068"><ele>377.0</ele><time>2026-04-18T15:17:38.999Z</time></trkpt><trkpt lat="45.09443532167833" lon="8.213302601560628"><ele>376.33333333333337</ele><time>2026-04-18T15:17:39.999Z</time></trkpt><trkpt lat="45.09448874127433" lon="8.213194431342664"><ele>375.6666666666667</ele><time>2026-04-18T15:17:40.999Z</time></trkpt><trkpt lat="45.094555365769374" lon="8.213118274692633"><ele>375.0</ele><time>2026-04-18T15:17:41.999Z</time></trkpt><trkpt lat="45.09459881303943" lon="8.213031315558771"><ele>374.3333333333333</ele><time>2026-04-18T15:17:42.999Z</time></trkpt><trkpt lat="45.09463595668697" lon="8.212932445641492"><ele>373.66666666666663</ele><time>2026-04-18T15:17:43.999Z</time></trkpt><trkpt lat="45.09466359565805" lon="8.212851663680985"><ele>373.0</ele><time>2026-04-18T15:17:45.999Z</time></trkpt><trkpt lat="45.09463902214822" lon="8.212730914426146"><ele>370.66666666666663</ele><time>2026-04-18T15:17:47.999Z</time></trkpt><trkpt lat="45.094655546881505" lon="8.212584699541047"><ele>368.3333333333333</ele><time>2026-04-18T15:17:49.999Z</time></trkpt><trkpt lat="45.0946898788138" lon="8.212491629749138"><ele>366.0</ele><time>2026-04-18T15:17:50.999Z</time></trkpt><trkpt lat="45.09473468127316" lon="8.212382580095626"><ele>363.6666666666667</ele><time>2026-04-18T15:17:51.999Z</time></trkpt><trkpt lat="45.09476150978793" lon="8.212291432382699"><ele>361.33333333333337</ele><time>2026-04-18T15:17:52.999Z</time></trkpt><trkpt lat="45.09478611852904" lon="8.212203696858278"><ele>359.0</ele><time>2026-04-18T15:17:53.999Z</time></trkpt><trkpt lat="45.09481399241673" lon="8.212122203604084"><ele>358.5</ele><time>2026-04-18T15:17:54.999Z</time></trkpt><trkpt lat="45.09487222032851" lon="8.211966453903063"><ele>358.0</ele><time>2026-04-18T15:17:56.999Z</time></trkpt><trkpt lat="45.0949054787373" lon="8.211880709921003"><ele>357.5</ele><time>2026-04-18T15:17:57.999Z</time></trkpt><trkpt lat="45.094947744282976" lon="8.211777400855874"><ele>357.0</ele><time>2026-04-18T15:17:58.999Z</time></trkpt><trkpt lat="45.09498759890641" lon="8.211683338567658"><ele>356.5</ele><time>2026-04-18T15:17:59.999Z</time></trkpt><trkpt lat="45.09502553803956" lon="8.21158446432549"><ele>356.0</ele><time>2026-04-18T15:18:00.999Z</time></trkpt><trkpt lat="45.09505953487176" lon="8.211495062158646"><ele>354.20000000000005</ele><time>2026-04-18T15:18:01.999Z</time></trkpt><trkpt lat="45.095089338130805" lon="8.211415896402446"><ele>352.40000000000003</ele><time>2026-04-18T15:18:02.999Z</time></trkpt><trkpt lat="45.09514173617431" lon="8.211290096840253"><ele>350.6</ele><time>2026-04-18T15:18:04.999Z</time></trkpt><trkpt lat="45.09513998379322" lon="8.211171786999573"><ele>348.8</ele><time>2026-04-18T15:18:06.998Z</time></trkpt><trkpt lat="45.09509476701385" lon="8.211019622262892"><ele>347.0</ele><time>2026-04-18T15:18:08.998Z</time></trkpt><trkpt lat="45.09500981407604" lon="8.21087913534692"><ele>347.0</ele><time>2026-04-18T15:18:10.998Z</time></trkpt><trkpt lat="45.09496034312929" lon="8.2108072887909"><ele>347.0</ele><time>2026-04-18T15:18:12Z</time></trkpt><trkpt lat="45.09491362669403" lon="8.21071791502819"><ele>347.0</ele><time>2026-04-18T15:18:13Z</time></trkpt><trkpt lat="45.094857103666186" lon="8.210619639825962"><ele>347.0</ele><time>2026-04-18T15:18:14Z</time></trkpt><trkpt lat="45.09481037530661" lon="8.210537184824148"><ele>347.0</ele><time>2026-04-18T15:18:15Z</time></trkpt><trkpt lat="45.09474763855554" lon="8.210418548525666"><ele>347.0</ele><time>2026-04-18T15:18:17Z</time></trkpt><trkpt lat="45.09470242432456" lon="8.210352413264077"><ele>346.5</ele><time>2026-04-18T15:18:19Z</time></trkpt><trkpt lat="45.09466916232219" lon="8.21026459942662"><ele>346.0</ele><time>2026-04-18T15:18:22Z</time></trkpt><trkpt lat="45.094727339527076" lon="8.210164709510408"><ele>345.5</ele><time>2026-04-18T15:18:25Z</time></trkpt><trkpt lat="45.09479031618872" lon="8.210095218945419"><ele>345.0</ele><time>2026-04-18T15:18:27Z</time></trkpt><trkpt lat="45.09488377582578" lon="8.2101152096421"><ele>344.5</ele><time>2026-04-18T15:18:29Z</time></trkpt><trkpt lat="45.09493265860024" lon="8.210238752520219"><ele>344.0</ele><time>2026-04-18T15:18:31Z</time></trkpt><trkpt lat="45.09499399091353" lon="8.210284131812905"><ele>344.0</ele><time>2026-04-18T15:18:33Z</time></trkpt><trkpt lat="45.09506073235225" lon="8.210318167596975"><ele>344.0</ele><time>2026-04-18T15:18:46Z</time></trkpt><trkpt lat="45.09511240933946" lon="8.210376952309844"><ele>344.0</ele><time>2026-04-18T15:18:48Z</time></trkpt><trkpt lat="45.09518537328148" lon="8.210436194992935"><ele>344.0</ele><time>2026-04-18T15:18:50Z</time></trkpt><trkpt lat="45.095290657703046" lon="8.210496020928927"><ele>344.0</ele><time>2026-04-18T15:18:52Z</time></trkpt><trkpt lat="45.09534926045271" lon="8.210544668381559"><ele>344.0</ele><time>2026-04-18T15:18:54Z</time></trkpt><trkpt lat="45.095437850295795" lon="8.21056643698848"><ele>344.0</ele><time>2026-04-18T15:18:56Z</time></trkpt><trkpt lat="45.09552707852372" lon="8.21059193719193"><ele>344.0</ele><time>2026-04-18T15:18:58Z</time></trkpt><trkpt lat="45.09558398898164" lon="8.21065577203304"><ele>344.0</ele><time>2026-04-18T15:19:00Z</time></trkpt><trkpt lat="45.09564282206719" lon="8.210726065329327"><ele>344.0</ele><time>2026-04-18T15:19:02Z</time></trkpt><trkpt lat="45.0957046959609" lon="8.210750670959463"><ele>344.0</ele><time>2026-04-18T15:19:03Z</time></trkpt><trkpt lat="45.09580974387572" lon="8.210796993913915"><ele>344.0</ele><time>2026-04-18T15:19:05Z</time></trkpt><trkpt lat="45.09590416656991" lon="8.2108128375986"><ele>342.1666666666667</ele><time>2026-04-18T15:19:07Z</time></trkpt><trkpt lat="45.09597950736265" lon="8.210864555893167"><ele>340.33333333333337</ele><time>2026-04-18T15:19:09Z</time></trkpt><trkpt lat="45.09606493168323" lon="8.210927242986271"><ele>338.5</ele><time>2026-04-18T15:19:11Z</time></trkpt><trkpt lat="45.096147238184436" lon="8.210988117079182"><ele>336.6666666666667</ele><time>2026-04-18T15:19:12.999Z</time></trkpt><trkpt lat="45.09622462905091" lon="8.211010296142678"><ele>334.8333333333333</ele><time>2026-04-18T15:19:14.999Z</time></trkpt><trkpt lat="45.096285311736736" lon="8.211060219234064"><ele>333.0</ele><time>2026-04-18T15:19:16.999Z</time></trkpt><trkpt lat="45.09632429626748" lon="8.211137198585295"><ele>333.0</ele><time>2026-04-18T15:19:19.999Z</time></trkpt><trkpt lat="45.09629888320491" lon="8.211256053469903"><ele>333.0</ele><time>2026-04-18T15:19:22.999Z</time></trkpt><trkpt lat="45.09624853404473" lon="8.211339579095341"><ele>333.0</ele><time>2026-04-18T15:19:24.999Z</time></trkpt><trkpt lat="45.096208854368996" lon="8.211486514689575"><ele>333.0</ele><time>2026-04-18T15:19:27.999Z</time></trkpt><trkpt lat="45.096232218492496" lon="8.211584883146674"><ele>333.0</ele><time>2026-04-18T15:19:29.999Z</time></trkpt><trkpt lat="45.09626379594462" lon="8.211663770468776"><ele>333.0</ele><time>2026-04-18T15:19:31.999Z</time></trkpt><trkpt lat="45.0963595107784" lon="8.211697570399743"><ele>333.6666666666667</ele><time>2026-04-18T15:19:34.999Z</time></trkpt><trkpt lat="45.096428179020066" lon="8.211736477263077"><ele>334.3333333333333</ele><time>2026-04-18T15:19:36.999Z</time></trkpt><trkpt lat="45.09647442747284" lon="8.211815175660186"><ele>335.0</ele><time>2026-04-18T15:19:38.999Z</time></trkpt><trkpt lat="45.096505652069425" lon="8.211919409561332"><ele>335.66666666666663</ele><time>2026-04-18T15:19:41.999Z</time></trkpt><trkpt lat="45.09651855678677" lon="8.212014993672252"><ele>336.3333333333333</ele><time>2026-04-18T15:19:44.999Z</time></trkpt><trkpt lat="45.096532151524634" lon="8.212139398709118"><ele>337.0</ele><time>2026-04-18T15:19:50.999Z</time></trkpt><trkpt lat="45.096522044518174" lon="8.212252640010028"><ele>335.8333333333333</ele><time>2026-04-18T15:19:53.999Z</time></trkpt><trkpt lat="45.09649069680746" lon="8.212360147305139"><ele>334.66666666666663</ele><time>2026-04-18T15:19:56.999Z</time></trkpt><trkpt lat="45.09647724194411" lon="8.2124610612309"><ele>333.5</ele><time>2026-04-18T15:19:58.999Z</time></trkpt><trkpt lat="45.09651393130081" lon="8.212598333957196"><ele>332.3333333333333</ele><time>2026-04-18T15:20:01.999Z</time></trkpt><trkpt lat="45.096537679044125" lon="8.212684553123013"><ele>331.1666666666667</ele><time>2026-04-18T15:20:03.999Z</time></trkpt><trkpt lat="45.09656246180316" lon="8.212814891553485"><ele>330.0</ele><time>2026-04-18T15:20:09.999Z</time></trkpt><trkpt lat="45.09661894945408" lon="8.212934604472844"><ele>324.1666666666667</ele><time>2026-04-18T15:20:12.999Z</time></trkpt><trkpt lat="45.096679446606615" lon="8.21297736489249"><ele>318.3333333333333</ele><time>2026-04-18T15:20:14.999Z</time></trkpt><trkpt lat="45.09674922443529" lon="8.2130246312857"><ele>312.5</ele><time>2026-04-18T15:20:16.999Z</time></trkpt><trkpt lat="45.096810989841146" lon="8.213117150693579"><ele>306.66666666666663</ele><time>2026-04-18T15:20:19Z</time></trkpt><trkpt lat="45.09684765858117" lon="8.213256640281065"><ele>300.8333333333333</ele><time>2026-04-18T15:20:21Z</time></trkpt><trkpt lat="45.096843646585505" lon="8.213378568757884"><ele>295.0</ele><time>2026-04-18T15:20:24Z</time></trkpt><trkpt lat="45.09681811781245" lon="8.21348947813416"><ele>295.0</ele><time>2026-04-18T15:20:26Z</time></trkpt><trkpt lat="45.09677973508366" lon="8.213580392040084"><ele>295.0</ele><time>2026-04-18T15:20:29Z</time></trkpt><trkpt lat="45.09675411947867" lon="8.21367600550199"><ele>295.0</ele><time>2026-04-18T15:20:31Z</time></trkpt><trkpt lat="45.096721818622136" lon="8.213767249146867"><ele>295.0</ele><time>2026-04-18T15:20:33Z</time></trkpt><trkpt lat="45.09670171644634" lon="8.213947666706538"><ele>295.0</ele><time>2026-04-18T15:20:35Z</time></trkpt><trkpt lat="45.0967028384657" lon="8.21404054553492"><ele>295.0</ele><time>2026-04-18T15:20:36Z</time></trkpt><trkpt lat="45.096750397924794" lon="8.214188892337141"><ele>294.3333333333333</ele><time>2026-04-18T15:20:38Z</time></trkpt><trkpt lat="45.096809737748636" lon="8.214268885564245"><ele>293.66666666666663</ele><time>2026-04-18T15:20:40Z</time></trkpt><trkpt lat="45.0968453969217" lon="8.214352618899312"><ele>293.0</ele><time>2026-04-18T15:20:41Z</time></trkpt><trkpt lat="45.096879658199796" lon="8.214453556669515"><ele>292.3333333333333</ele><time>2026-04-18T15:20:42Z</time></trkpt><trkpt lat="45.096928959692846" lon="8.214573705650869"><ele>291.6666666666667</ele><time>2026-04-18T15:20:43Z</time></trkpt><trkpt lat="45.096957529587634" lon="8.21466373169145"><ele>291.0</ele><time>2026-04-18T15:20:44Z</time></trkpt><trkpt lat="45.096981680414295" lon="8.214771139062002"><ele>292.1666666666667</ele><time>2026-04-18T15:20:45Z</time></trkpt><trkpt lat="45.09699129422289" lon="8.214872218782373"><ele>293.3333333333333</ele><time>2026-04-18T15:20:46Z</time></trkpt><trkpt lat="45.09699332486047" lon="8.21496436396339"><ele>294.5</ele><time>2026-04-18T15:20:47Z</time></trkpt><trkpt lat="45.09698417839445" lon="8.21511173051923"><ele>295.66666666666663</ele><time>2026-04-18T15:20:49Z</time></trkpt><trkpt lat="45.0969872537325" lon="8.21521932574715"><ele>296.8333333333333</ele><time>2026-04-18T15:20:51Z</time></trkpt><trkpt lat="45.096997804576816" lon="8.215322811901109"><ele>298.0</ele><time>2026-04-18T15:20:53Z</time></trkpt><trkpt lat="45.09702642988691" lon="8.215407401566901"><ele>298.0</ele><time>2026-04-18T15:20:56Z</time></trkpt><trkpt lat="45.09707676088716" lon="8.215494708328883"><ele>298.0</ele><time>2026-04-18T15:20:58Z</time></trkpt><trkpt lat="45.09712924363959" lon="8.215640736766487"><ele>298.0</ele><time>2026-04-18T15:21:00Z</time></trkpt><trkpt lat="45.097170355603886" lon="8.215735659406796"><ele>298.0</ele><time>2026-04-18T15:21:01Z</time></trkpt><trkpt lat="45.09728414313014" lon="8.215831732401833"><ele>298.0</ele><time>2026-04-18T15:21:03Z</time></trkpt><trkpt lat="45.09737356785033" lon="8.215900286745804"><ele>293.2</ele><time>2026-04-18T15:21:04Z</time></trkpt><trkpt lat="45.09747014926357" lon="8.21598623619166"><ele>288.4</ele><time>2026-04-18T15:21:05Z</time></trkpt><trkpt lat="45.09759213433074" lon="8.216073059382879"><ele>283.59999999999997</ele><time>2026-04-18T15:21:06Z</time></trkpt><trkpt lat="45.09768767383577" lon="8.216130234758387"><ele>278.8</ele><time>2026-04-18T15:21:07Z</time></trkpt><trkpt lat="45.0977629206923" lon="8.21617282874189"><ele>274.0</ele><time>2026-04-18T15:21:08Z</time></trkpt><trkpt lat="45.097838748767856" lon="8.21619787137697"><ele>274.0</ele><time>2026-04-18T15:21:09Z</time></trkpt><trkpt lat="45.09793693185776" lon="8.216192479535287"><ele>274.0</ele><time>2026-04-18T15:21:10Z</time></trkpt><trkpt lat="45.09807489817791" lon="8.216173641545511"><ele>274.0</ele><time>2026-04-18T15:21:11Z</time></trkpt><trkpt lat="45.098207977089196" lon="8.216168045841885"><ele>274.0</ele><time>2026-04-18T15:21:12Z</time></trkpt><trkpt lat="45.09832290723547" lon="8.216167791249005"><ele>275.16666666666663</ele><time>2026-04-18T15:21:13Z</time></trkpt><trkpt lat="45.098407434470744" lon="8.216179718499651"><ele>276.3333333333333</ele><time>2026-04-18T15:21:14Z</time></trkpt><trkpt lat="45.09848652709886" lon="8.216179921721338"><ele>277.5</ele><time>2026-04-18T15:21:15Z</time></trkpt><trkpt lat="45.09857077186547" lon="8.216183747227806"><ele>278.6666666666667</ele><time>2026-04-18T15:21:16Z</time></trkpt><trkpt lat="45.09865350601523" lon="8.216185926475292"><ele>279.83333333333337</ele><time>2026-04-18T15:21:17Z</time></trkpt><trkpt lat="45.0987291422777" lon="8.216164414513232"><ele>281.0</ele><time>2026-04-18T15:21:18Z</time></trkpt><trkpt lat="45.09881354255576" lon="8.216064357185923"><ele>281.0</ele><time>2026-04-18T15:21:20Z</time></trkpt><trkpt lat="45.098844512084696" lon="8.215965491648795"><ele>281.0</ele><time>2026-04-18T15:21:21Z</time></trkpt><trkpt lat="45.09885410288517" lon="8.215773444417078"><ele>281.0</ele><time>2026-04-18T15:21:23Z</time></trkpt><trkpt lat="45.0988642033099" lon="8.215667848978645"><ele>281.0</ele><time>2026-04-18T15:21:24Z</time></trkpt><trkpt lat="45.09887392536723" lon="8.215529476921551"><ele>281.0</ele><time>2026-04-18T15:21:26Z</time></trkpt><trkpt lat="45.09889000346811" lon="8.215426860647655"><ele>280.6666666666667</ele><time>2026-04-18T15:21:28Z</time></trkpt><trkpt lat="45.09896759778779" lon="8.215448181248128"><ele>280.33333333333337</ele><time>2026-04-18T15:21:31Z</time></trkpt><trkpt lat="45.09904793273145" lon="8.215449117151842"><ele>280.0</ele><time>2026-04-18T15:25:32.999Z</time></trkpt><trkpt lat="45.09913571906782" lon="8.215475884651976"><ele>279.6666666666667</ele><time>2026-04-18T15:25:34.999Z</time></trkpt><trkpt lat="45.09920635455151" lon="8.21551154850701"><ele>279.3333333333333</ele><time>2026-04-18T15:25:35.999Z</time></trkpt><trkpt lat="45.09930243403688" lon="8.215574395016375"><ele>279.0</ele><time>2026-04-18T15:25:36.999Z</time></trkpt><trkpt lat="45.09941370001891" lon="8.215621994933063"><ele>280.0</ele><time>2026-04-18T15:25:37.999Z</time></trkpt><trkpt lat="45.09953775906883" lon="8.215651233736379"><ele>281.0</ele><time>2026-04-18T15:25:38.999Z</time></trkpt><trkpt lat="45.09964570652161" lon="8.215665734758451"><ele>282.0</ele><time>2026-04-18T15:25:39.999Z</time></trkpt><trkpt lat="45.0997333408609" lon="8.215667781860377"><ele>283.0</ele><time>2026-04-18T15:25:40.999Z</time></trkpt><trkpt lat="45.099807855448724" lon="8.21566211475566"><ele>284.0</ele><time>2026-04-18T15:25:41.999Z</time></trkpt><trkpt lat="45.099891900775106" lon="8.21565542790398"><ele>283.8</ele><time>2026-04-18T15:25:42.999Z</time></trkpt><trkpt lat="45.09998416979661" lon="8.21562241846754"><ele>283.59999999999997</ele><time>2026-04-18T15:25:43.999Z</time></trkpt><trkpt lat="45.10008857055259" lon="8.215603014854494"><ele>283.4</ele><time>2026-04-18T15:25:44.999Z</time></trkpt><trkpt lat="45.10019936654704" lon="8.215627945761135"><ele>283.2</ele><time>2026-04-18T15:25:45.999Z</time></trkpt><trkpt lat="45.10029769629508" lon="8.215716893187928"><ele>283.0</ele><time>2026-04-18T15:25:46.999Z</time></trkpt><trkpt lat="45.10040334874822" lon="8.215768120609678"><ele>284.4</ele><time>2026-04-18T15:25:47.999Z</time></trkpt><trkpt lat="45.10050842585956" lon="8.21580812705199"><ele>285.8</ele><time>2026-04-18T15:25:48.999Z</time></trkpt><trkpt lat="45.10059941789408" lon="8.215799991191677"><ele>287.2</ele><time>2026-04-18T15:25:49.999Z</time></trkpt><trkpt lat="45.10066435072474" lon="8.215788436716833"><ele>288.6</ele><time>2026-04-18T15:25:50.999Z</time></trkpt><trkpt lat="45.10074141000205" lon="8.21576719719448"><ele>290.0</ele><time>2026-04-18T15:25:52.999Z</time></trkpt><trkpt lat="45.100783055057235" lon="8.215628767309944"><ele>290.0</ele><time>2026-04-18T15:25:54.999Z</time></trkpt><trkpt lat="45.10082572879548" lon="8.215559971874098"><ele>290.0</ele><time>2026-04-18T15:25:55.999Z</time></trkpt><trkpt lat="45.100899163460944" lon="8.215530659405907"><ele>290.0</ele><time>2026-04-18T15:25:56.999Z</time></trkpt><trkpt lat="45.1009803507284" lon="8.215521946709819"><ele>290.0</ele><time>2026-04-18T15:25:57.999Z</time></trkpt><trkpt lat="45.10105943040467" lon="8.21551468728357"><ele>290.0</ele><time>2026-04-18T15:25:58.999Z</time></trkpt><trkpt lat="45.10112502212508" lon="8.215525304276458"><ele>290.0</ele><time>2026-04-18T15:25:59.999Z</time></trkpt><trkpt lat="45.10120950356988" lon="8.215544083263365"><ele>290.0</ele><time>2026-04-18T15:26:01.999Z</time></trkpt><trkpt lat="45.10131003230251" lon="8.215562877902684"><ele>290.0</ele><time>2026-04-18T15:26:03.999Z</time></trkpt><trkpt lat="45.10142168779557" lon="8.215574785531372"><ele>290.0</ele><time>2026-04-18T15:26:05.999Z</time></trkpt><trkpt lat="45.101543185079635" lon="8.215614997538815"><ele>290.0</ele><time>2026-04-18T15:26:07.999Z</time></trkpt><trkpt lat="45.101643458034395" lon="8.215626802411544"><ele>290.0</ele><time>2026-04-18T15:26:08.999Z</time></trkpt><trkpt lat="45.10175266439588" lon="8.215619440383323"><ele>290.0</ele><time>2026-04-18T15:26:09.999Z</time></trkpt><trkpt lat="45.101866601051846" lon="8.215571445328457"><ele>290.0</ele><time>2026-04-18T15:26:10.999Z</time></trkpt><trkpt lat="45.10199519053755" lon="8.21557337376115"><ele>290.0</ele><time>2026-04-18T15:26:11.999Z</time></trkpt><trkpt lat="45.10213744836181" lon="8.215637787576549"><ele>290.0</ele><time>2026-04-18T15:26:12.999Z</time></trkpt><trkpt lat="45.10226207971214" lon="8.215670183642324"><ele>290.0</ele><time>2026-04-18T15:26:13.999Z</time></trkpt><trkpt lat="45.1023781945001" lon="8.21567045764234"><ele>290.0</ele><time>2026-04-18T15:26:14.999Z</time></trkpt><trkpt lat="45.10248447424742" lon="8.215656110168654"><ele>290.0</ele><time>2026-04-18T15:26:15.999Z</time></trkpt><trkpt lat="45.10257938221346" lon="8.21563686645313"><ele>290.0</ele><time>2026-04-18T15:26:16.999Z</time></trkpt><trkpt lat="45.10269553758974" lon="8.215615907786983"><ele>290.0</ele><time>2026-04-18T15:26:17.999Z</time></trkpt><trkpt lat="45.10284349882134" lon="8.215599765312692"><ele>287.33333333333337</ele><time>2026-04-18T15:26:18.999Z</time></trkpt><trkpt lat="45.10303031995575" lon="8.21561971106289"><ele>284.6666666666667</ele><time>2026-04-18T15:26:19.999Z</time></trkpt><trkpt lat="45.103204395072666" lon="8.215647346525639"><ele>282.0</ele><time>2026-04-18T15:26:20.999Z</time></trkpt><trkpt lat="45.1033425159869" lon="8.215666681248308"><ele>282.0</ele><time>2026-04-18T15:26:21.999Z</time></trkpt><trkpt lat="45.10347326524423" lon="8.215676355495132"><ele>282.0</ele><time>2026-04-18T15:26:22.998Z</time></trkpt><trkpt lat="45.103582644401" lon="8.215680657710527"><ele>282.0</ele><time>2026-04-18T15:26:23.998Z</time></trkpt><trkpt lat="45.10366485719393" lon="8.215673336737316"><ele>282.0</ele><time>2026-04-18T15:26:24.998Z</time></trkpt><trkpt lat="45.103855917379455" lon="8.215654440233424"><ele>279.0</ele><time>2026-04-18T15:26:26.998Z</time></trkpt><trkpt lat="45.103949582688685" lon="8.215595682416852"><ele>276.0</ele><time>2026-04-18T15:26:27.998Z</time></trkpt><trkpt lat="45.10405151807407" lon="8.215526909013333"><ele>273.0</ele><time>2026-04-18T15:26:28.998Z</time></trkpt><trkpt lat="45.10414220272901" lon="8.215466269345153"><ele>270.0</ele><time>2026-04-18T15:26:29.998Z</time></trkpt><trkpt lat="45.10423895818875" lon="8.215413958564339"><ele>267.0</ele><time>2026-04-18T15:26:30.998Z</time></trkpt><trkpt lat="45.104382249610595" lon="8.21537970079278"><ele>264.6</ele><time>2026-04-18T15:26:31.998Z</time></trkpt><trkpt lat="45.104493547554625" lon="8.215340864112363"><ele>262.2</ele><time>2026-04-18T15:26:32.998Z</time></trkpt><trkpt lat="45.104571347914856" lon="8.2152902026166"><ele>259.8</ele><time>2026-04-18T15:26:33.998Z</time></trkpt><trkpt lat="45.104641490088675" lon="8.215202651509774"><ele>257.4</ele><time>2026-04-18T15:26:34.998Z</time></trkpt><trkpt lat="45.104684554504594" lon="8.215095225178352"><ele>255.0</ele><time>2026-04-18T15:26:36Z</time></trkpt><trkpt lat="45.104752715171124" lon="8.214937215674041"><ele>254.5</ele><time>2026-04-18T15:26:37Z</time></trkpt><trkpt lat="45.10484437223878" lon="8.21478880367589"><ele>254.0</ele><time>2026-04-18T15:26:38Z</time></trkpt><trkpt lat="45.104952971552315" lon="8.214629280823397"><ele>253.5</ele><time>2026-04-18T15:26:39Z</time></trkpt><trkpt lat="45.105046319978385" lon="8.21449463014954"><ele>253.0</ele><time>2026-04-18T15:26:40Z</time></trkpt><trkpt lat="45.10513184481807" lon="8.214365452353164"><ele>251.4</ele><time>2026-04-18T15:26:41Z</time></trkpt><trkpt lat="45.105186014279155" lon="8.214232327505574"><ele>249.8</ele><time>2026-04-18T15:26:42Z</time></trkpt><trkpt lat="45.10522302951909" lon="8.214136272931746"><ele>248.2</ele><time>2026-04-18T15:26:43Z</time></trkpt><trkpt lat="45.10526603521442" lon="8.214052889977852"><ele>246.6</ele><time>2026-04-18T15:26:44Z</time></trkpt><trkpt lat="45.10533644208375" lon="8.2139887290957"><ele>245.0</ele><time>2026-04-18T15:26:45Z</time></trkpt><trkpt lat="45.105447794336456" lon="8.213905427047303"><ele>242.5</ele><time>2026-04-18T15:26:46Z</time></trkpt><trkpt lat="45.10560032872287" lon="8.213820454170914"><ele>240.0</ele><time>2026-04-18T15:26:47Z</time></trkpt><trkpt lat="45.10574626735361" lon="8.213722990159539"><ele>237.5</ele><time>2026-04-18T15:26:48Z</time></trkpt><trkpt lat="45.10585534523977" lon="8.213649278727503"><ele>235.0</ele><time>2026-04-18T15:26:49Z</time></trkpt><trkpt lat="45.105980944683516" lon="8.213570767100105"><ele>235.0</ele><time>2026-04-18T15:26:50Z</time></trkpt><trkpt lat="45.10607791953307" lon="8.213514088188381"><ele>235.0</ele><time>2026-04-18T15:26:51Z</time></trkpt><trkpt lat="45.10618600668866" lon="8.213436890044928"><ele>235.0</ele><time>2026-04-18T15:26:52Z</time></trkpt><trkpt lat="45.106298123897346" lon="8.21343106609505"><ele>235.0</ele><time>2026-04-18T15:26:53Z</time></trkpt><trkpt lat="45.106455568603735" lon="8.213424537598256"><ele>233.5</ele><time>2026-04-18T15:26:54Z</time></trkpt><trkpt lat="45.1066142984326" lon="8.213397632662199"><ele>232.0</ele><time>2026-04-18T15:26:55Z</time></trkpt><trkpt lat="45.106745067557114" lon="8.213421329677974"><ele>230.5</ele><time>2026-04-18T15:26:56Z</time></trkpt><trkpt lat="45.10686006693093" lon="8.213418313777623"><ele>229.0</ele><time>2026-04-18T15:26:57Z</time></trkpt><trkpt lat="45.10696689852556" lon="8.213436578541044"><ele>228.99999999999997</ele><time>2026-04-18T15:26:58Z</time></trkpt><trkpt lat="45.10706043384289" lon="8.213448098131504"><ele>229.0</ele><time>2026-04-18T15:26:59Z</time></trkpt><trkpt lat="45.10712424274723" lon="8.213444644033144"><ele>229.0</ele><time>2026-04-18T15:27:00Z</time></trkpt><trkpt lat="45.10718943097573" lon="8.21340400265862"><ele>229.0</ele><time>2026-04-18T15:27:02Z</time></trkpt><trkpt lat="45.10722107645076" lon="8.213254055827003"><ele>228.99999999999997</ele><time>2026-04-18T15:27:04Z</time></trkpt><trkpt lat="45.10721994695137" lon="8.21314808508454"><ele>229.0</ele><time>2026-04-18T15:27:05Z</time></trkpt><trkpt lat="45.10721961139342" lon="8.213048050875528"><ele>227.0</ele><time>2026-04-18T15:27:06Z</time></trkpt><trkpt lat="45.10721929189611" lon="8.212952805555084"><ele>224.99999999999997</ele><time>2026-04-18T15:27:07Z</time></trkpt><trkpt lat="45.10724993847636" lon="8.212806248452306"><ele>222.99999999999997</ele><time>2026-04-18T15:27:09Z</time></trkpt><trkpt lat="45.107344965615965" lon="8.212749488827106"><ele>221.0</ele><time>2026-04-18T15:27:11Z</time></trkpt><trkpt lat="45.10745667600508" lon="8.212756755260036"><ele>219.0</ele><time>2026-04-18T15:27:13Z</time></trkpt><trkpt lat="45.10752424101879" lon="8.212757155237572"><ele>218.39999999999998</ele><time>2026-04-18T15:27:14Z</time></trkpt><trkpt lat="45.10759642331684" lon="8.21275758254985"><ele>217.79999999999998</ele><time>2026-04-18T15:27:15Z</time></trkpt><trkpt lat="45.10769078355594" lon="8.21275572267356"><ele>217.20000000000002</ele><time>2026-04-18T15:27:16Z</time></trkpt><trkpt lat="45.107811598781176" lon="8.212745630837379"><ele>216.60000000000002</ele><time>2026-04-18T15:27:17Z</time></trkpt><trkpt lat="45.107940602609304" lon="8.212732045602632"><ele>216.0</ele><time>2026-04-18T15:27:18Z</time></trkpt><trkpt lat="45.10806493044696" lon="8.212711937293662"><ele>216.0</ele><time>2026-04-18T15:27:19Z</time></trkpt><trkpt lat="45.108193698057384" lon="8.212738160958741"><ele>216.0</ele><time>2026-04-18T15:27:20Z</time></trkpt><trkpt lat="45.10832160884596" lon="8.212769435343047"><ele>216.0</ele><time>2026-04-18T15:27:21Z</time></trkpt><trkpt lat="45.108424970041995" lon="8.212829073659886"><ele>216.0</ele><time>2026-04-18T15:27:22Z</time></trkpt><trkpt lat="45.10852041769375" lon="8.212877520334168"><ele>215.8</ele><time>2026-04-18T15:27:23Z</time></trkpt><trkpt lat="45.10859453530616" lon="8.212937821548215"><ele>215.60000000000002</ele><time>2026-04-18T15:27:24Z</time></trkpt><trkpt lat="45.10867165879584" lon="8.212975334508327"><ele>215.4</ele><time>2026-04-18T15:27:25Z</time></trkpt><trkpt lat="45.108768814271485" lon="8.212986983772476"><ele>215.2</ele><time>2026-04-18T15:27:26Z</time></trkpt><trkpt lat="45.10886008560286" lon="8.212930201427683"><ele>215.0</ele><time>2026-04-18T15:27:27Z</time></trkpt><trkpt lat="45.10895164357277" lon="8.212951341372364"><ele>215.0</ele><time>2026-04-18T15:27:28Z</time></trkpt><trkpt lat="45.109025512965076" lon="8.212991642440546"><ele>215.0</ele><time>2026-04-18T15:27:29Z</time></trkpt><trkpt lat="45.1091275666276" lon="8.213044579930932"><ele>215.0</ele><time>2026-04-18T15:27:30Z</time></trkpt><trkpt lat="45.109277073859715" lon="8.213102012390223"><ele>215.0</ele><time>2026-04-18T15:27:31Z</time></trkpt><trkpt lat="45.10941843034876" lon="8.21320382332198"><ele>210.8</ele><time>2026-04-18T15:27:32Z</time></trkpt><trkpt lat="45.10954247640568" lon="8.213273022695889"><ele>206.6</ele><time>2026-04-18T15:27:33Z</time></trkpt><trkpt lat="45.1096350098222" lon="8.21331444268738"><ele>202.39999999999998</ele><time>2026-04-18T15:27:35Z</time></trkpt><trkpt lat="45.10971232383652" lon="8.213359090295162"><ele>198.2</ele><time>2026-04-18T15:27:36Z</time></trkpt><trkpt lat="45.1098376879777" lon="8.213384292552302"><ele>194.0</ele><time>2026-04-18T15:27:37Z</time></trkpt><trkpt lat="45.10994465548455" lon="8.213341456702528"><ele>191.6</ele><time>2026-04-18T15:27:38Z</time></trkpt><trkpt lat="45.110049247381625" lon="8.213290067510073"><ele>189.2</ele><time>2026-04-18T15:27:38.999Z</time></trkpt><trkpt lat="45.11014901469823" lon="8.213245685305905"><ele>186.79999999999998</ele><time>2026-04-18T15:27:39.999Z</time></trkpt><trkpt lat="45.11023839250464" lon="8.213202836765525"><ele>184.39999999999998</ele><time>2026-04-18T15:27:40.999Z</time></trkpt><trkpt lat="45.11032450889651" lon="8.213159861649736"><ele>182.0</ele><time>2026-04-18T15:27:41.999Z</time></trkpt><trkpt lat="45.1104015602748" lon="8.213117088086989"><ele>182.0</ele><time>2026-04-18T15:27:42.999Z</time></trkpt><trkpt lat="45.11047366074171" lon="8.21307858608624"><ele>182.0</ele><time>2026-04-18T15:27:43.999Z</time></trkpt><trkpt lat="45.11053808607553" lon="8.213050770750469"><ele>182.0</ele><time>2026-04-18T15:27:44.999Z</time></trkpt><trkpt lat="45.11060320978701" lon="8.213024268634152"><ele>182.0</ele><time>2026-04-18T15:27:45.999Z</time></trkpt><trkpt lat="45.11066671478406" lon="8.212999663153093"><ele>182.0</ele><time>2026-04-18T15:27:46.999Z</time></trkpt><trkpt lat="45.110781784324125" lon="8.212955078557622"><ele>182.0</ele><time>2026-04-18T15:27:48.999Z</time></trkpt><trkpt lat="45.110844280436595" lon="8.212930863968221"><ele>180.2</ele><time>2026-04-18T15:27:49.999Z</time></trkpt><trkpt lat="45.110935504751914" lon="8.212895518417026"><ele>178.39999999999998</ele><time>2026-04-18T15:27:50.999Z</time></trkpt><trkpt lat="45.11105332421492" lon="8.212850524253303"><ele>176.60000000000002</ele><time>2026-04-18T15:27:51.999Z</time></trkpt><trkpt lat="45.11116297426055" lon="8.212808952577568"><ele>174.8</ele><time>2026-04-18T15:27:52.999Z</time></trkpt><trkpt lat="45.1112539899849" lon="8.212775517162246"><ele>173.0</ele><time>2026-04-18T15:27:53.999Z</time></trkpt><trkpt lat="45.11133656817683" lon="8.212748042279685"><ele>173.0</ele><time>2026-04-18T15:27:54.999Z</time></trkpt><trkpt lat="45.11141485150112" lon="8.21272541089719"><ele>173.0</ele><time>2026-04-18T15:27:55.999Z</time></trkpt><trkpt lat="45.11148715947408" lon="8.212707373914613"><ele>173.0</ele><time>2026-04-18T15:27:56.999Z</time></trkpt><trkpt lat="45.111580132885315" lon="8.212682800677884"><ele>173.0</ele><time>2026-04-18T15:27:58.999Z</time></trkpt><trkpt lat="45.11159497823191" lon="8.212825427643146"><ele>173.0</ele><time>2026-04-18T15:28:00.999Z</time></trkpt><trkpt lat="45.11162186748287" lon="8.212910652882004"><ele>173.0</ele><time>2026-04-18T15:28:01.999Z</time></trkpt><trkpt lat="45.11164728132657" lon="8.213017526666167"><ele>172.5</ele><time>2026-04-18T15:28:02.999Z</time></trkpt><trkpt lat="45.11167307510444" lon="8.213113584985848"><ele>172.0</ele><time>2026-04-18T15:28:03.999Z</time></trkpt><trkpt lat="45.111708799431085" lon="8.213197102241153"><ele>171.5</ele><time>2026-04-18T15:28:04.999Z</time></trkpt><trkpt lat="45.1117494003341" lon="8.213343554380511"><ele>171.0</ele><time>2026-04-18T15:28:06.999Z</time></trkpt><trkpt lat="45.11178681936339" lon="8.21347115340966"><ele>170.5</ele><time>2026-04-18T15:28:08.999Z</time></trkpt><trkpt lat="45.11182078990368" lon="8.213582739387757"><ele>170.0</ele><time>2026-04-18T15:28:10.999Z</time></trkpt><trkpt lat="45.111850878701" lon="8.213693241053194"><ele>169.66666666666666</ele><time>2026-04-18T15:28:12.999Z</time></trkpt><trkpt lat="45.11187568131744" lon="8.213800058398945"><ele>169.33333333333331</ele><time>2026-04-18T15:28:14.999Z</time></trkpt><trkpt lat="45.11190802083874" lon="8.21392741895652"><ele>169.0</ele><time>2026-04-18T15:28:16.999Z</time></trkpt><trkpt lat="45.111928140025505" lon="8.214045300683573"><ele>168.66666666666666</ele><time>2026-04-18T15:28:18.999Z</time></trkpt><trkpt lat="45.11194118284439" lon="8.214143522273888"><ele>168.33333333333334</ele><time>2026-04-18T15:28:43Z</time></trkpt><trkpt lat="45.11196578614631" lon="8.214307777257552"><ele>168.0</ele><time>2026-04-18T15:28:45Z</time></trkpt><trkpt lat="45.111988903814364" lon="8.21441867757975"><ele>168.0</ele><time>2026-04-18T15:28:46Z</time></trkpt><trkpt lat="45.11200948749684" lon="8.214553410652162"><ele>168.0</ele><time>2026-04-18T15:28:47Z</time></trkpt><trkpt lat="45.11203857512936" lon="8.21472141783215"><ele>168.0</ele><time>2026-04-18T15:28:48Z</time></trkpt><trkpt lat="45.112081055531576" lon="8.214902616820117"><ele>168.0</ele><time>2026-04-18T15:28:49Z</time></trkpt><trkpt lat="45.112139535268874" lon="8.215076174991756"><ele>168.60000000000002</ele><time>2026-04-18T15:28:50Z</time></trkpt><trkpt lat="45.11218395132013" lon="8.21521081829383"><ele>169.20000000000002</ele><time>2026-04-18T15:28:51Z</time></trkpt><trkpt lat="45.11222685949354" lon="8.215331110246412"><ele>169.8</ele><time>2026-04-18T15:28:52Z</time></trkpt><trkpt lat="45.112251043146124" lon="8.215458320503013"><ele>170.4</ele><time>2026-04-18T15:28:53Z</time></trkpt><trkpt lat="45.112296749231234" lon="8.215556906228983"><ele>171.0</ele><time>2026-04-18T15:28:54Z</time></trkpt><trkpt lat="45.11235646376087" lon="8.215758681559631"><ele>171.60000000000002</ele><time>2026-04-18T15:28:56Z</time></trkpt><trkpt lat="45.112401341345354" lon="8.21588451769473"><ele>172.2</ele><time>2026-04-18T15:28:57Z</time></trkpt><trkpt lat="45.11244454147401" lon="8.216011004124386"><ele>172.8</ele><time>2026-04-18T15:28:58Z</time></trkpt><trkpt lat="45.1124858472843" lon="8.216131944492817"><ele>173.39999999999998</ele><time>2026-04-18T15:28:59Z</time></trkpt><trkpt lat="45.11252136048544" lon="8.21625482920552"><ele>174.0</ele><time>2026-04-18T15:29:00Z</time></trkpt><trkpt lat="45.112542961202735" lon="8.216354995612031"><ele>174.0</ele><time>2026-04-18T15:29:01Z</time></trkpt><trkpt lat="45.11255037417536" lon="8.216455928050083"><ele>174.0</ele><time>2026-04-18T15:29:02Z</time></trkpt><trkpt lat="45.11255947727023" lon="8.216602308800526"><ele>174.0</ele><time>2026-04-18T15:29:03Z</time></trkpt><trkpt lat="45.11258126636026" lon="8.21675501880072"><ele>174.0</ele><time>2026-04-18T15:29:04Z</time></trkpt><trkpt lat="45.11258306451499" lon="8.216935290987564"><ele>174.0</ele><time>2026-04-18T15:29:05Z</time></trkpt><trkpt lat="45.11259887919237" lon="8.21710552201633"><ele>173.39999999999998</ele><time>2026-04-18T15:29:06Z</time></trkpt><trkpt lat="45.112622475601576" lon="8.217251074181013"><ele>172.8</ele><time>2026-04-18T15:29:07Z</time></trkpt><trkpt lat="45.112642660545426" lon="8.217389727066534"><ele>172.2</ele><time>2026-04-18T15:29:08Z</time></trkpt><trkpt lat="45.112663176361416" lon="8.217528024904752"><ele>171.60000000000002</ele><time>2026-04-18T15:29:09Z</time></trkpt><trkpt lat="45.112677646438506" lon="8.217634023531096"><ele>171.0</ele><time>2026-04-18T15:29:10Z</time></trkpt><trkpt lat="45.11269467911833" lon="8.217749089091184"><ele>171.0</ele><time>2026-04-18T15:29:11Z</time></trkpt><trkpt lat="45.1127136514991" lon="8.217874426050345"><ele>171.0</ele><time>2026-04-18T15:29:12Z</time></trkpt><trkpt lat="45.112730934355426" lon="8.218020642016453"><ele>171.0</ele><time>2026-04-18T15:29:13Z</time></trkpt><trkpt lat="45.11274768967122" lon="8.218139066450426"><ele>171.0</ele><time>2026-04-18T15:29:14Z</time></trkpt><trkpt lat="45.11274574013295" lon="8.218260208376881"><ele>171.0</ele><time>2026-04-18T15:29:15Z</time></trkpt><trkpt lat="45.112780027478784" lon="8.218396603297633"><ele>171.0</ele><time>2026-04-18T15:29:16Z</time></trkpt><trkpt lat="45.11280279452121" lon="8.218529440001976"><ele>171.0</ele><time>2026-04-18T15:29:17Z</time></trkpt><trkpt lat="45.11282018029689" lon="8.218643788999277"><ele>171.0</ele><time>2026-04-18T15:29:18Z</time></trkpt><trkpt lat="45.112820428201054" lon="8.218784167514789"><ele>171.0</ele><time>2026-04-18T15:29:19Z</time></trkpt><trkpt lat="45.11281351803749" lon="8.21888649104431"><ele>171.0</ele><time>2026-04-18T15:29:19.999Z</time></trkpt><trkpt lat="45.11281321289344" lon="8.218975696140678"><ele>171.0</ele><time>2026-04-18T15:29:20.999Z</time></trkpt><trkpt lat="45.112808898135924" lon="8.219124451030996"><ele>170.8</ele><time>2026-04-18T15:29:21.999Z</time></trkpt><trkpt lat="45.11280674658197" lon="8.219277061680058"><ele>170.60000000000002</ele><time>2026-04-18T15:29:22.999Z</time></trkpt><trkpt lat="45.11280756287717" lon="8.219415035064099"><ele>170.4</ele><time>2026-04-18T15:29:23.999Z</time></trkpt><trkpt lat="45.1128214274966" lon="8.219548686661469"><ele>170.2</ele><time>2026-04-18T15:29:24.999Z</time></trkpt><trkpt lat="45.112831364621336" lon="8.219706531135497"><ele>170.0</ele><time>2026-04-18T15:29:25.999Z</time></trkpt><trkpt lat="45.11284483105878" lon="8.219870005198667"><ele>169.6</ele><time>2026-04-18T15:29:26.999Z</time></trkpt><trkpt lat="45.11285675836289" lon="8.22003821234056"><ele>169.2</ele><time>2026-04-18T15:29:27.999Z</time></trkpt><trkpt lat="45.11286822768228" lon="8.22021040783074"><ele>168.8</ele><time>2026-04-18T15:29:28.999Z</time></trkpt><trkpt lat="45.11288337102204" lon="8.220365176387707"><ele>168.4</ele><time>2026-04-18T15:29:29.999Z</time></trkpt><trkpt lat="45.11289332058555" lon="8.22049466111464"><ele>168.0</ele><time>2026-04-18T15:29:30.999Z</time></trkpt><trkpt lat="45.11287564486748" lon="8.220608393011652"><ele>167.60000000000002</ele><time>2026-04-18T15:29:31.999Z</time></trkpt><trkpt lat="45.11285716336499" lon="8.220754850916945"><ele>167.20000000000002</ele><time>2026-04-18T15:29:33.999Z</time></trkpt><trkpt lat="45.11283393246365" lon="8.220876695453716"><ele>166.8</ele><time>2026-04-18T15:29:34.999Z</time></trkpt><trkpt lat="45.11282109794592" lon="8.221021945586253"><ele>166.4</ele><time>2026-04-18T15:29:35.999Z</time></trkpt><trkpt lat="45.11277115631465" lon="8.221169795075948"><ele>166.0</ele><time>2026-04-18T15:29:36.999Z</time></trkpt><trkpt lat="45.112745861479546" lon="8.221279702867262"><ele>166.0</ele><time>2026-04-18T15:29:37.999Z</time></trkpt><trkpt lat="45.11272649874593" lon="8.221369759297177"><ele>166.0</ele><time>2026-04-18T15:29:38.999Z</time></trkpt><trkpt lat="45.11271589681247" lon="8.221465280303264"><ele>166.0</ele><time>2026-04-18T15:29:39.999Z</time></trkpt><trkpt lat="45.11269314245307" lon="8.221567829682174"><ele>166.0</ele><time>2026-04-18T15:29:40.999Z</time></trkpt><trkpt lat="45.11268850831923" lon="8.221668079788603"><ele>166.0</ele><time>2026-04-18T15:29:41.999Z</time></trkpt><trkpt lat="45.112666062736025" lon="8.221760905008932"><ele>166.0</ele><time>2026-04-18T15:29:42.999Z</time></trkpt><trkpt lat="45.11265283848991" lon="8.221881115526665"><ele>166.0</ele><time>2026-04-18T15:29:43.999Z</time></trkpt><trkpt lat="45.11264007682487" lon="8.222006699631285"><ele>166.0</ele><time>2026-04-18T15:29:44.999Z</time></trkpt><trkpt lat="45.112626412762026" lon="8.22214116411789"><ele>166.0</ele><time>2026-04-18T15:29:45.999Z</time></trkpt><trkpt lat="45.11261534251432" lon="8.222250103328822"><ele>166.0</ele><time>2026-04-18T15:29:46.999Z</time></trkpt><trkpt lat="45.11260529659311" lon="8.222348962613177"><ele>166.0</ele><time>2026-04-18T15:29:47.999Z</time></trkpt><trkpt lat="45.112596146228015" lon="8.222439008823134"><ele>166.0</ele><time>2026-04-18T15:29:48.999Z</time></trkpt><trkpt lat="45.112585683570494" lon="8.222541969336367"><ele>166.0</ele><time>2026-04-18T15:29:49.999Z</time></trkpt><trkpt lat="45.11257727284755" lon="8.222631314419907"><ele>166.0</ele><time>2026-04-18T15:29:50.999Z</time></trkpt><trkpt lat="45.11258278533945" lon="8.222781698359565"><ele>166.0</ele><time>2026-04-18T15:29:52.999Z</time></trkpt><trkpt lat="45.11266097679813" lon="8.222857722998107"><ele>166.0</ele><time>2026-04-18T15:29:56.999Z</time></trkpt><trkpt lat="45.11272428313778" lon="8.222902616457064"><ele>166.0</ele><time>2026-04-18T15:30:00.998Z</time></trkpt><trkpt lat="45.112790649916874" lon="8.222924779298557"><ele>166.0</ele><time>2026-04-18T15:30:04.998Z</time></trkpt><trkpt lat="45.11285746298955" lon="8.222977622065786"><ele>166.0</ele><time>2026-04-18T15:30:09.998Z</time></trkpt><trkpt lat="45.11291862931579" lon="8.223013658179157"><ele>166.0</ele><time>2026-04-18T15:30:11.998Z</time></trkpt><trkpt lat="45.11297777520313" lon="8.223048093851645"><ele>166.0</ele><time>2026-04-18T15:30:13.998Z</time></trkpt><trkpt lat="45.1130381381601" lon="8.223091687643915"><ele>166.0</ele><time>2026-04-18T15:30:15.998Z</time></trkpt><trkpt lat="45.11311160748617" lon="8.223134935961712"><ele>166.0</ele><time>2026-04-18T15:30:17.998Z</time></trkpt><trkpt lat="45.11318120910639" lon="8.223179918196967"><ele>166.0</ele><time>2026-04-18T15:30:19.998Z</time></trkpt><trkpt lat="45.11325026042271" lon="8.2232291447188"><ele>166.0</ele><time>2026-04-18T15:30:21.998Z</time></trkpt><trkpt lat="45.11339612063998" lon="8.223326134977311"><ele>166.0</ele><time>2026-04-18T15:30:23.998Z</time></trkpt><trkpt lat="45.11351150608826" lon="8.223393873359848"><ele>165.75</ele><time>2026-04-18T15:30:24.998Z</time></trkpt><trkpt lat="45.11361912767687" lon="8.223454971706387"><ele>165.5</ele><time>2026-04-18T15:30:25.998Z</time></trkpt><trkpt lat="45.113712949374964" lon="8.223539789612378"><ele>165.25</ele><time>2026-04-18T15:30:26.998Z</time></trkpt><trkpt lat="45.11381443248983" lon="8.223618071702846"><ele>165.0</ele><time>2026-04-18T15:30:27.998Z</time></trkpt><trkpt lat="45.11390894898828" lon="8.223699271451597"><ele>165.0</ele><time>2026-04-18T15:30:28.998Z</time></trkpt><trkpt lat="45.11400665237355" lon="8.223780709444688"><ele>165.0</ele><time>2026-04-18T15:30:29.998Z</time></trkpt><trkpt lat="45.11411391016364" lon="8.223845091595182"><ele>165.0</ele><time>2026-04-18T15:30:30.998Z</time></trkpt><trkpt lat="45.114199638858686" lon="8.223943653460488"><ele>165.0</ele><time>2026-04-18T15:30:31.998Z</time></trkpt><trkpt lat="45.114311442554865" lon="8.22401045609608"><ele>165.0</ele><time>2026-04-18T15:30:32.998Z</time></trkpt><trkpt lat="45.11441329326235" lon="8.224102665236869"><ele>165.0</ele><time>2026-04-18T15:30:33.998Z</time></trkpt><trkpt lat="45.114512027233" lon="8.224190487912534"><ele>165.0</ele><time>2026-04-18T15:30:34.998Z</time></trkpt><trkpt lat="45.11459046746073" lon="8.224267962799292"><ele>165.0</ele><time>2026-04-18T15:30:35.998Z</time></trkpt><trkpt lat="45.11464973698359" lon="8.224349322162876"><ele>165.0</ele><time>2026-04-18T15:30:36.998Z</time></trkpt><trkpt lat="45.11469140446207" lon="8.224426092475829"><ele>165.0</ele><time>2026-04-18T15:30:37.998Z</time></trkpt><trkpt lat="45.11463044788411" lon="8.224612958801403"><ele>165.0</ele><time>2026-04-18T15:30:40.998Z</time></trkpt><trkpt lat="45.114535899694474" lon="8.224746037708854"><ele>165.0</ele><time>2026-04-18T15:30:41.998Z</time></trkpt><trkpt lat="45.114424494501726" lon="8.224913029055022"><ele>165.0</ele><time>2026-04-18T15:30:42.998Z</time></trkpt><trkpt lat="45.114309552530955" lon="8.225102757535527"><ele>164.75</ele><time>2026-04-18T15:30:43.998Z</time></trkpt><trkpt lat="45.11421113758335" lon="8.225265480349458"><ele>164.5</ele><time>2026-04-18T15:30:44.998Z</time></trkpt><trkpt lat="45.11412801137064" lon="8.22540194203452"><ele>164.25</ele><time>2026-04-18T15:30:45.998Z</time></trkpt><trkpt lat="45.114051836995614" lon="8.225523623564031"><ele>164.0</ele><time>2026-04-18T15:30:47Z</time></trkpt><trkpt lat="45.11398180831701" lon="8.22563755560545"><ele>164.66666666666666</ele><time>2026-04-18T15:30:48Z</time></trkpt><trkpt lat="45.11392138927421" lon="8.225732527523201"><ele>165.33333333333331</ele><time>2026-04-18T15:30:49Z</time></trkpt><trkpt lat="45.1138698656755" lon="8.225815322503388"><ele>166.0</ele><time>2026-04-18T15:30:50Z</time></trkpt><trkpt lat="45.11381817020992" lon="8.225889956295063"><ele>166.66666666666666</ele><time>2026-04-18T15:30:51Z</time></trkpt><trkpt lat="45.113737454402916" lon="8.225994549782502"><ele>167.33333333333334</ele><time>2026-04-18T15:30:53Z</time></trkpt><trkpt lat="45.11368410471987" lon="8.226050688047458"><ele>168.0</ele><time>2026-04-18T15:30:55Z</time></trkpt><trkpt lat="45.11375710401678" lon="8.226164187455183"><ele>168.0</ele><time>2026-04-18T15:30:59Z</time></trkpt><trkpt lat="45.11386432561521" lon="8.226197076416144"><ele>168.0</ele><time>2026-04-18T15:31:01Z</time></trkpt><trkpt lat="45.11395103402453" lon="8.226220278754408"><ele>168.0</ele><time>2026-04-18T15:31:02Z</time></trkpt><trkpt lat="45.11405792457335" lon="8.22623605340906"><ele>168.0</ele><time>2026-04-18T15:31:03Z</time></trkpt><trkpt lat="45.1141674848925" lon="8.226237459262633"><ele>168.0</ele><time>2026-04-18T15:31:04Z</time></trkpt><trkpt lat="45.11425405874889" lon="8.226278878526118"><ele>167.5</ele><time>2026-04-18T15:31:05Z</time></trkpt><trkpt lat="45.1143274397372" lon="8.226311665049058"><ele>167.0</ele><time>2026-04-18T15:31:06Z</time></trkpt><trkpt lat="45.11438876644955" lon="8.226361906887174"><ele>166.5</ele><time>2026-04-18T15:31:07Z</time></trkpt><trkpt lat="45.11442897637827" lon="8.226458981035286"><ele>166.0</ele><time>2026-04-18T15:31:08Z</time></trkpt><trkpt lat="45.11444467324161" lon="8.226588797622172"><ele>165.5</ele><time>2026-04-18T15:31:09Z</time></trkpt><trkpt lat="45.11448798720308" lon="8.226719448525074"><ele>165.0</ele><time>2026-04-18T15:31:10Z</time></trkpt><trkpt lat="45.11452714604733" lon="8.22688730358837"><ele>165.0</ele><time>2026-04-18T15:31:11Z</time></trkpt><trkpt lat="45.11456142591662" lon="8.227068473613873"><ele>165.0</ele><time>2026-04-18T15:31:11.999Z</time></trkpt><trkpt lat="45.114608210127436" lon="8.22726162190404"><ele>165.0</ele><time>2026-04-18T15:31:12.999Z</time></trkpt><trkpt lat="45.114622243224574" lon="8.227459112476073"><ele>165.0</ele><time>2026-04-18T15:31:13.999Z</time></trkpt><trkpt lat="45.114656222202775" lon="8.227621128987373"><ele>165.4</ele><time>2026-04-18T15:31:14.999Z</time></trkpt><trkpt lat="45.1146731447879" lon="8.227776398102959"><ele>165.8</ele><time>2026-04-18T15:31:15.999Z</time></trkpt><trkpt lat="45.114687212734275" lon="8.227898526895597"><ele>166.2</ele><time>2026-04-18T15:31:16.999Z</time></trkpt><trkpt lat="45.11469972031368" lon="8.228004750928676"><ele>166.6</ele><time>2026-04-18T15:31:17.999Z</time></trkpt><trkpt lat="45.11469252993688" lon="8.228177488285866"><ele>167.0</ele><time>2026-04-18T15:31:19.999Z</time></trkpt><trkpt lat="45.1146784833463" lon="8.228326862020305"><ele>166.6</ele><time>2026-04-18T15:31:21.999Z</time></trkpt><trkpt lat="45.11475807568597" lon="8.228439351505195"><ele>166.2</ele><time>2026-04-18T15:31:23.999Z</time></trkpt><trkpt lat="45.11481030678878" lon="8.228557156934047"><ele>165.8</ele><time>2026-04-18T15:31:25.999Z</time></trkpt><trkpt lat="45.11487563392475" lon="8.228693079240275"><ele>165.4</ele><time>2026-04-18T15:31:27.999Z</time></trkpt><trkpt lat="45.11492668518131" lon="8.228818239156976"><ele>165.0</ele><time>2026-04-18T15:31:29.999Z</time></trkpt><trkpt lat="45.114977942309466" lon="8.228942101969947"><ele>165.4</ele><time>2026-04-18T15:31:31.999Z</time></trkpt><trkpt lat="45.11502898161557" lon="8.229075435094465"><ele>165.8</ele><time>2026-04-18T15:31:33.999Z</time></trkpt><trkpt lat="45.11508103444104" lon="8.229203817187674"><ele>166.2</ele><time>2026-04-18T15:31:35.999Z</time></trkpt><trkpt lat="45.11513240398925" lon="8.229316695116886"><ele>166.6</ele><time>2026-04-18T15:31:37.999Z</time></trkpt><trkpt lat="45.1151889625259" lon="8.22943442791147"><ele>167.0</ele><time>2026-04-18T15:31:39.999Z</time></trkpt><trkpt lat="45.115249563628176" lon="8.229571272169926"><ele>167.0</ele><time>2026-04-18T15:31:41.999Z</time></trkpt><trkpt lat="45.11530954564973" lon="8.229717668784053"><ele>167.0</ele><time>2026-04-18T15:31:43.999Z</time></trkpt><trkpt lat="45.11534067109522" lon="8.22980866675614"><ele>167.0</ele><time>2026-04-18T15:31:44.999Z</time></trkpt><trkpt lat="45.115361894216576" lon="8.229899291462681"><ele>167.0</ele><time>2026-04-18T15:31:45.999Z</time></trkpt><trkpt lat="45.115375631555196" lon="8.229990713171924"><ele>167.0</ele><time>2026-04-18T15:31:46.999Z</time></trkpt><trkpt lat="45.11539183627474" lon="8.230088316193545"><ele>167.0</ele><time>2026-04-18T15:31:47.999Z</time></trkpt><trkpt lat="45.115405722996655" lon="8.230188834092408"><ele>168.66666666666666</ele><time>2026-04-18T15:31:48.999Z</time></trkpt><trkpt lat="45.11541063817794" lon="8.230280466708058"><ele>170.33333333333331</ele><time>2026-04-18T15:31:49.999Z</time></trkpt><trkpt lat="45.115414259955266" lon="8.230380361050688"><ele>172.0</ele><time>2026-04-18T15:31:50.999Z</time></trkpt><trkpt lat="45.115413579836456" lon="8.230493805182029"><ele>173.66666666666666</ele><time>2026-04-18T15:31:51.999Z</time></trkpt><trkpt lat="45.1154069611691" lon="8.23060326157192"><ele>175.33333333333334</ele><time>2026-04-18T15:31:52.999Z</time></trkpt><trkpt lat="45.11539819684493" lon="8.230733305021094"><ele>177.0</ele><time>2026-04-18T15:31:53.999Z</time></trkpt><trkpt lat="45.11539234106017" lon="8.230868335447765"><ele>178.8</ele><time>2026-04-18T15:31:54.999Z</time></trkpt><trkpt lat="45.11538517462594" lon="8.230998017779205"><ele>180.6</ele><time>2026-04-18T15:31:55.999Z</time></trkpt><trkpt lat="45.11537453688152" lon="8.231135146167144"><ele>182.4</ele><time>2026-04-18T15:31:56.999Z</time></trkpt><trkpt lat="45.115351371183465" lon="8.231287250173517"><ele>184.20000000000002</ele><time>2026-04-18T15:31:57.999Z</time></trkpt><trkpt lat="45.115341356595906" lon="8.231412213178851"><ele>186.0</ele><time>2026-04-18T15:31:58.999Z</time></trkpt><trkpt lat="45.11534319015161" lon="8.231524591382612"><ele>186.0</ele><time>2026-04-18T15:31:59.999Z</time></trkpt><trkpt lat="45.11534241396284" lon="8.231636317681886"><ele>186.0</ele><time>2026-04-18T15:32:00.999Z</time></trkpt><trkpt lat="45.11534042149585" lon="8.23172863117614"><ele>186.0</ele><time>2026-04-18T15:32:01.999Z</time></trkpt><trkpt lat="45.11533241102707" lon="8.231904596966915"><ele>186.0</ele><time>2026-04-18T15:32:03.999Z</time></trkpt><trkpt lat="45.11532752333158" lon="8.232005894622292"><ele>186.0</ele><time>2026-04-18T15:32:04.999Z</time></trkpt><trkpt lat="45.11532125538275" lon="8.232095452586083"><ele>186.0</ele><time>2026-04-18T15:32:05.999Z</time></trkpt><trkpt lat="45.115313787317795" lon="8.23219423061297"><ele>185.33333333333334</ele><time>2026-04-18T15:32:06.999Z</time></trkpt><trkpt lat="45.11530801000846" lon="8.2323068280523"><ele>184.66666666666666</ele><time>2026-04-18T15:32:07.999Z</time></trkpt><trkpt lat="45.1153033340596" lon="8.232428375016811"><ele>184.0</ele><time>2026-04-18T15:32:08.999Z</time></trkpt><trkpt lat="45.11530007398757" lon="8.232547215101183"><ele>183.33333333333331</ele><time>2026-04-18T15:32:09.999Z</time></trkpt><trkpt lat="45.11529531452256" lon="8.232661417444712"><ele>182.66666666666666</ele><time>2026-04-18T15:32:10.999Z</time></trkpt><trkpt lat="45.11528051277881" lon="8.232785078703419"><ele>182.0</ele><time>2026-04-18T15:32:11.999Z</time></trkpt><trkpt lat="45.11525748858089" lon="8.232894026592302"><ele>182.0</ele><time>2026-04-18T15:32:12.999Z</time></trkpt><trkpt lat="45.11523061158031" lon="8.233002062263001"><ele>182.0</ele><time>2026-04-18T15:32:13.999Z</time></trkpt><trkpt lat="45.11520626497556" lon="8.23309260797187"><ele>182.0</ele><time>2026-04-18T15:32:14.999Z</time></trkpt><trkpt lat="45.11516963554012" lon="8.233215743085218"><ele>182.0</ele><time>2026-04-18T15:32:16.999Z</time></trkpt><trkpt lat="45.11516938728665" lon="8.233330564572869"><ele>182.0</ele><time>2026-04-18T15:32:18.999Z</time></trkpt><trkpt lat="45.11513921662921" lon="8.23347309075883"><ele>182.0</ele><time>2026-04-18T15:32:20.998Z</time></trkpt><trkpt lat="45.115099638383064" lon="8.23360640437991"><ele>180.8</ele><time>2026-04-18T15:32:22.998Z</time></trkpt><trkpt lat="45.115062256414554" lon="8.233759050514747"><ele>179.6</ele><time>2026-04-18T15:32:24.998Z</time></trkpt><trkpt lat="45.11509503036779" lon="8.233835454786949"><ele>178.4</ele><time>2026-04-18T15:32:25.998Z</time></trkpt><trkpt lat="45.11513400070426" lon="8.233989349478971"><ele>177.20000000000002</ele><time>2026-04-18T15:32:27.998Z</time></trkpt><trkpt lat="45.11517532397221" lon="8.2341005999344"><ele>176.0</ele><time>2026-04-18T15:32:29.998Z</time></trkpt><trkpt lat="45.115191284198715" lon="8.234221455477448"><ele>175.0</ele><time>2026-04-18T15:32:31.998Z</time></trkpt><trkpt lat="45.115191387165616" lon="8.23439078012044"><ele>174.0</ele><time>2026-04-18T15:32:33.998Z</time></trkpt><trkpt lat="45.11518844740188" lon="8.234501670383343"><ele>173.0</ele><time>2026-04-18T15:32:34.998Z</time></trkpt><trkpt lat="45.11518000403767" lon="8.234654906563678"><ele>172.0</ele><time>2026-04-18T15:32:35.998Z</time></trkpt><trkpt lat="45.11517129001787" lon="8.23479213454884"><ele>171.0</ele><time>2026-04-18T15:32:36.998Z</time></trkpt><trkpt lat="45.115152140319246" lon="8.234928695688792"><ele>170.16666666666666</ele><time>2026-04-18T15:32:37.998Z</time></trkpt><trkpt lat="45.11514209957508" lon="8.235031612122082"><ele>169.33333333333334</ele><time>2026-04-18T15:32:38.998Z</time></trkpt><trkpt lat="45.11513287303349" lon="8.235135876557768"><ele>168.5</ele><time>2026-04-18T15:32:39.998Z</time></trkpt><trkpt lat="45.11516379935452" lon="8.235292355857096"><ele>167.66666666666669</ele><time>2026-04-18T15:32:41.998Z</time></trkpt><trkpt lat="45.115182389137104" lon="8.235408140278862"><ele>166.83333333333334</ele><time>2026-04-18T15:32:42.998Z</time></trkpt><trkpt lat="45.115190267144584" lon="8.235538450077735"><ele>166.0</ele><time>2026-04-18T15:32:43.998Z</time></trkpt><trkpt lat="45.11519369958853" lon="8.235695315599358"><ele>165.4</ele><time>2026-04-18T15:32:44.998Z</time></trkpt><trkpt lat="45.1152021587744" lon="8.235835899478634"><ele>164.8</ele><time>2026-04-18T15:32:45.998Z</time></trkpt><trkpt lat="45.1152229158014" lon="8.235974921696691"><ele>164.20000000000002</ele><time>2026-04-18T15:32:46.998Z</time></trkpt><trkpt lat="45.11525224168915" lon="8.236091621036529"><ele>163.60000000000002</ele><time>2026-04-18T15:32:47.998Z</time></trkpt><trkpt lat="45.115300409393704" lon="8.23618543674176"><ele>163.0</ele><time>2026-04-18T15:32:48.998Z</time></trkpt><trkpt lat="45.115358970997214" lon="8.236300627118345"><ele>163.0</ele><time>2026-04-18T15:32:49.998Z</time></trkpt><trkpt lat="45.11542089830692" lon="8.23641580743213"><ele>163.0</ele><time>2026-04-18T15:32:50.998Z</time></trkpt><trkpt lat="45.11547764358531" lon="8.236513644092344"><ele>163.0</ele><time>2026-04-18T15:32:51.998Z</time></trkpt><trkpt lat="45.11554436626187" lon="8.236627204566357"><ele>163.0</ele><time>2026-04-18T15:32:53Z</time></trkpt><trkpt lat="45.11560868563154" lon="8.236735818514543"><ele>163.0</ele><time>2026-04-18T15:32:54Z</time></trkpt><trkpt lat="45.1156613628032" lon="8.236834105064693"><ele>163.0</ele><time>2026-04-18T15:32:55Z</time></trkpt><trkpt lat="45.11570564215577" lon="8.236919914347723"><ele>163.0</ele><time>2026-04-18T15:32:56Z</time></trkpt><trkpt lat="45.11574992028877" lon="8.237010400152847"><ele>163.0</ele><time>2026-04-18T15:32:57Z</time></trkpt><trkpt lat="45.11578155702528" lon="8.237219577350881"><ele>163.0</ele><time>2026-04-18T15:32:59Z</time></trkpt><trkpt lat="45.115800348606996" lon="8.237351519034434"><ele>163.0</ele><time>2026-04-18T15:33:00Z</time></trkpt><trkpt lat="45.1158348645909" lon="8.237476546081538"><ele>163.0</ele><time>2026-04-18T15:33:01Z</time></trkpt><trkpt lat="45.115874068953275" lon="8.23759538437474"><ele>163.0</ele><time>2026-04-18T15:33:02Z</time></trkpt><trkpt lat="45.11591299182732" lon="8.237725873328896"><ele>163.0</ele><time>2026-04-18T15:33:03Z</time></trkpt><trkpt lat="45.11595800808536" lon="8.237843537665661"><ele>163.0</ele><time>2026-04-18T15:33:04Z</time></trkpt><trkpt lat="45.11598927313339" lon="8.237949304616123"><ele>163.0</ele><time>2026-04-18T15:33:05Z</time></trkpt><trkpt lat="45.1160233946317" lon="8.238055266885175"><ele>163.0</ele><time>2026-04-18T15:33:06Z</time></trkpt><trkpt lat="45.11603099148268" lon="8.238167913755907"><ele>163.0</ele><time>2026-04-18T15:33:07Z</time></trkpt><trkpt lat="45.11603572814026" lon="8.23829256862065"><ele>163.0</ele><time>2026-04-18T15:33:08Z</time></trkpt><trkpt lat="45.116029079676984" lon="8.238424605692783"><ele>163.0</ele><time>2026-04-18T15:33:09Z</time></trkpt><trkpt lat="45.116008310710626" lon="8.238556312985407"><ele>163.0</ele><time>2026-04-18T15:33:10Z</time></trkpt><trkpt lat="45.11598387139768" lon="8.23868534842366"><ele>163.0</ele><time>2026-04-18T15:33:11Z</time></trkpt><trkpt lat="45.11595767794296" lon="8.238822273398515"><ele>163.0</ele><time>2026-04-18T15:33:12Z</time></trkpt><trkpt lat="45.115932032174925" lon="8.23893257833401"><ele>163.0</ele><time>2026-04-18T15:33:13Z</time></trkpt><trkpt lat="45.11589937519105" lon="8.239021608857769"><ele>163.0</ele><time>2026-04-18T15:33:14Z</time></trkpt><trkpt lat="45.11585084564636" lon="8.239089297226736"><ele>163.0</ele><time>2026-04-18T15:33:15Z</time></trkpt><trkpt lat="45.11579621152703" lon="8.23913983705543"><ele>163.0</ele><time>2026-04-18T15:33:16Z</time></trkpt><trkpt lat="45.11573379659385" lon="8.239196044978694"><ele>164.0</ele><time>2026-04-18T15:33:17Z</time></trkpt><trkpt lat="45.11565570223285" lon="8.239298296026817"><ele>165.0</ele><time>2026-04-18T15:33:19Z</time></trkpt><trkpt lat="45.115603550399044" lon="8.239362509589213"><ele>166.0</ele><time>2026-04-18T15:33:21Z</time></trkpt><trkpt lat="45.11546859407018" lon="8.239353771157582"><ele>167.0</ele><time>2026-04-18T15:33:23Z</time></trkpt><trkpt lat="45.11538179366391" lon="8.239359847493114"><ele>168.0</ele><time>2026-04-18T15:33:24Z</time></trkpt><trkpt lat="45.11528989062885" lon="8.239386529377859"><ele>168.0</ele><time>2026-04-18T15:33:25Z</time></trkpt><trkpt lat="45.115219984602724" lon="8.239431851809181"><ele>168.0</ele><time>2026-04-18T15:33:26Z</time></trkpt><trkpt lat="45.11517141234561" lon="8.239489322777414"><ele>168.0</ele><time>2026-04-18T15:33:27Z</time></trkpt><trkpt lat="45.11506643905268" lon="8.239589022433494"><ele>168.0</ele><time>2026-04-18T15:33:29Z</time></trkpt><trkpt lat="45.114998840122006" lon="8.239621131439224"><ele>168.0</ele><time>2026-04-18T15:33:30Z</time></trkpt><trkpt lat="45.11492895935658" lon="8.23963859113205"><ele>168.0</ele><time>2026-04-18T15:33:32Z</time></trkpt><trkpt lat="45.11492319608503" lon="8.23990663463111"><ele>168.16666666666666</ele><time>2026-04-18T15:34:02.999Z</time></trkpt><trkpt lat="45.114922295150976" lon="8.240021965057569"><ele>168.33333333333334</ele><time>2026-04-18T15:34:05.999Z</time></trkpt><trkpt lat="45.11489635400142" lon="8.24012200202878"><ele>168.5</ele><time>2026-04-18T15:34:08.999Z</time></trkpt><trkpt lat="45.11488580152183" lon="8.240243389850594"><ele>168.66666666666669</ele><time>2026-04-18T15:34:11.999Z</time></trkpt><trkpt lat="45.114867863867396" lon="8.240342945813035"><ele>168.83333333333334</ele><time>2026-04-18T15:34:14.999Z</time></trkpt><trkpt lat="45.11486907375142" lon="8.240450946259873"><ele>169.0</ele><time>2026-04-18T15:34:18.999Z</time></trkpt><trkpt lat="45.11487908363383" lon="8.240563778501649"><ele>168.66666666666669</ele><time>2026-04-18T15:34:21.999Z</time></trkpt><trkpt lat="45.11488849562257" lon="8.240654399212719"><ele>168.33333333333334</ele><time>2026-04-18T15:34:23.999Z</time></trkpt><trkpt lat="45.11490855008989" lon="8.240746661632587"><ele>168.0</ele><time>2026-04-18T15:34:25.999Z</time></trkpt><trkpt lat="45.11493158724794" lon="8.240837107688883"><ele>167.66666666666666</ele><time>2026-04-18T15:34:26.999Z</time></trkpt><trkpt lat="45.11495669052595" lon="8.240940048618778"><ele>167.33333333333331</ele><time>2026-04-18T15:34:27.999Z</time></trkpt><trkpt lat="45.11499372988074" lon="8.241079006020293"><ele>167.0</ele><time>2026-04-18T15:34:29.999Z</time></trkpt><trkpt lat="45.115026547064915" lon="8.241165159447961"><ele>165.83333333333331</ele><time>2026-04-18T15:34:31.999Z</time></trkpt><trkpt lat="45.115049880433475" lon="8.241275213522105"><ele>164.66666666666666</ele><time>2026-04-18T15:34:33.999Z</time></trkpt><trkpt lat="45.11506192672198" lon="8.2413914770527"><ele>163.5</ele><time>2026-04-18T15:34:35.999Z</time></trkpt><trkpt lat="45.11507786433577" lon="8.241496433733428"><ele>162.33333333333334</ele><time>2026-04-18T15:34:38.999Z</time></trkpt><trkpt lat="45.11509080834004" lon="8.241602048123635"><ele>161.16666666666669</ele><time>2026-04-18T15:34:41.999Z</time></trkpt><trkpt lat="45.11509418566436" lon="8.241707700401045"><ele>160.0</ele><time>2026-04-18T15:34:43.999Z</time></trkpt><trkpt lat="45.1150837431348" lon="8.241814181944832"><ele>160.0</ele><time>2026-04-18T15:34:45.999Z</time></trkpt><trkpt lat="45.11506187601756" lon="8.241943398170164"><ele>160.0</ele><time>2026-04-18T15:34:47.999Z</time></trkpt><trkpt lat="45.1150469168419" lon="8.242060728962722"><ele>160.0</ele><time>2026-04-18T15:34:49.999Z</time></trkpt><trkpt lat="45.115046664709" lon="8.242234862569239"><ele>160.0</ele><time>2026-04-18T15:34:51.998Z</time></trkpt><trkpt lat="45.115043788809245" lon="8.242422435591763"><ele>160.0</ele><time>2026-04-18T15:34:53.998Z</time></trkpt><trkpt lat="45.11503187986757" lon="8.242532614088214"><ele>160.0</ele><time>2026-04-18T15:34:54.998Z</time></trkpt><trkpt lat="45.11502185803624" lon="8.242653157760783"><ele>160.0</ele><time>2026-04-18T15:34:55.998Z</time></trkpt><trkpt lat="45.1150010741267" lon="8.24277318620947"><ele>160.0</ele><time>2026-04-18T15:34:56.998Z</time></trkpt><trkpt lat="45.11497111583835" lon="8.24288385315123"><ele>160.0</ele><time>2026-04-18T15:34:57.998Z</time></trkpt><trkpt lat="45.11491822546456" lon="8.2429729459423"><ele>160.0</ele><time>2026-04-18T15:34:59Z</time></trkpt><trkpt lat="45.114860970762585" lon="8.243040306757726"><ele>160.0</ele><time>2026-04-18T15:35:00Z</time></trkpt><trkpt lat="45.114793255159604" lon="8.243129811340467"><ele>161.16666666666669</ele><time>2026-04-18T15:35:01Z</time></trkpt><trkpt lat="45.11474018469556" lon="8.243206452928483"><ele>162.33333333333334</ele><time>2026-04-18T15:35:02Z</time></trkpt><trkpt lat="45.11469172871539" lon="8.243295726422216"><ele>163.5</ele><time>2026-04-18T15:35:03Z</time></trkpt><trkpt lat="45.11465082304958" lon="8.243390792700051"><ele>164.66666666666666</ele><time>2026-04-18T15:35:04Z</time></trkpt><trkpt lat="45.114609225426676" lon="8.243545462896911"><ele>165.83333333333331</ele><time>2026-04-18T15:35:06Z</time></trkpt><trkpt lat="45.11459163052308" lon="8.243670382964476"><ele>167.0</ele><time>2026-04-18T15:35:08Z</time></trkpt><trkpt lat="45.11458593594373" lon="8.24379947520504"><ele>167.0</ele><time>2026-04-18T15:35:10Z</time></trkpt><trkpt lat="45.114581171615136" lon="8.24390889967329"><ele>167.0</ele><time>2026-04-18T15:35:11Z</time></trkpt><trkpt lat="45.114564431491246" lon="8.244030727520311"><ele>167.0</ele><time>2026-04-18T15:35:12Z</time></trkpt><trkpt lat="45.11454169971957" lon="8.244138369642483"><ele>167.0</ele><time>2026-04-18T15:35:13Z</time></trkpt><trkpt lat="45.11451822598779" lon="8.244227402769972"><ele>167.0</ele><time>2026-04-18T15:35:14Z</time></trkpt><trkpt lat="45.11449077882193" lon="8.244317515939752"><ele>167.0</ele><time>2026-04-18T15:35:15Z</time></trkpt><trkpt lat="45.11447134948916" lon="8.244406627165539"><ele>167.0</ele><time>2026-04-18T15:35:16Z</time></trkpt><trkpt lat="45.11445654452582" lon="8.244501575403675"><ele>166.85714285714286</ele><time>2026-04-18T15:35:17Z</time></trkpt><trkpt lat="45.11444560756492" lon="8.244600933655919"><ele>166.71428571428572</ele><time>2026-04-18T15:35:18Z</time></trkpt><trkpt lat="45.11443111038246" lon="8.244696357871895"><ele>166.57142857142856</ele><time>2026-04-18T15:35:19Z</time></trkpt><trkpt lat="45.11441973516801" lon="8.244800936969455"><ele>166.42857142857144</ele><time>2026-04-18T15:35:20Z</time></trkpt><trkpt lat="45.11440368932233" lon="8.24491436799557"><ele>166.2857142857143</ele><time>2026-04-18T15:35:21Z</time></trkpt><trkpt lat="45.11438437566654" lon="8.245019329163547"><ele>166.14285714285714</ele><time>2026-04-18T15:35:22Z</time></trkpt><trkpt lat="45.11436624316087" lon="8.245108394130966"><ele>166.0</ele><time>2026-04-18T15:35:23Z</time></trkpt><trkpt lat="45.11434624662061" lon="8.245287553238397"><ele>166.0</ele><time>2026-04-18T15:35:25Z</time></trkpt><trkpt lat="45.11435858286914" lon="8.245398714386189"><ele>166.0</ele><time>2026-04-18T15:35:26Z</time></trkpt><trkpt lat="45.114376416185195" lon="8.24553879577879"><ele>166.0</ele><time>2026-04-18T15:35:28Z</time></trkpt><trkpt lat="45.11440153766558" lon="8.245683341080989"><ele>166.0</ele><time>2026-04-18T15:35:30Z</time></trkpt><trkpt lat="45.11443432944487" lon="8.245769592691262"><ele>166.0</ele><time>2026-04-18T15:35:31Z</time></trkpt><trkpt lat="45.11451212462064" lon="8.245864970163906"><ele>165.4</ele><time>2026-04-18T15:35:33Z</time></trkpt><trkpt lat="45.11463439298191" lon="8.245938070496475"><ele>164.8</ele><time>2026-04-18T15:35:35Z</time></trkpt><trkpt lat="45.11473440602917" lon="8.245978631372765"><ele>164.20000000000002</ele><time>2026-04-18T15:35:36Z</time></trkpt><trkpt lat="45.11479657807513" lon="8.246009859709131"><ele>163.60000000000002</ele><time>2026-04-18T15:35:37Z</time></trkpt><trkpt lat="45.11486612540753" lon="8.246091738114092"><ele>163.0</ele><time>2026-04-18T15:35:39Z</time></trkpt><trkpt lat="45.11487873990131" lon="8.246267728161301"><ele>163.0</ele><time>2026-04-18T15:35:41Z</time></trkpt><trkpt lat="45.11487769826529" lon="8.246410093085856"><ele>163.0</ele><time>2026-04-18T15:35:42Z</time></trkpt><trkpt lat="45.114863453673514" lon="8.246581810875124"><ele>163.0</ele><time>2026-04-18T15:35:43Z</time></trkpt><trkpt lat="45.114839470257984" lon="8.24675045797378"><ele>163.0</ele><time>2026-04-18T15:35:44Z</time></trkpt><trkpt lat="45.11480888503735" lon="8.246897062778956"><ele>163.0</ele><time>2026-04-18T15:35:45Z</time></trkpt><trkpt lat="45.114799265028" lon="8.247035239888334"><ele>163.0</ele><time>2026-04-18T15:35:46Z</time></trkpt><trkpt lat="45.114797467829455" lon="8.247165503355179"><ele>163.0</ele><time>2026-04-18T15:35:47Z</time></trkpt><trkpt lat="45.11478959015093" lon="8.247267883566542"><ele>163.0</ele><time>2026-04-18T15:35:48Z</time></trkpt><trkpt lat="45.114784094528844" lon="8.247362757360664"><ele>163.0</ele><time>2026-04-18T15:35:49Z</time></trkpt><trkpt lat="45.11477884286805" lon="8.24750596750887"><ele>163.0</ele><time>2026-04-18T15:35:51Z</time></trkpt><trkpt lat="45.11477575489388" lon="8.24762270453573"><ele>162.5</ele><time>2026-04-18T15:35:53Z</time></trkpt><trkpt lat="45.114762522681296" lon="8.247727522946406"><ele>162.0</ele><time>2026-04-18T15:35:55Z</time></trkpt><trkpt lat="45.11475421876605" lon="8.247832814620413"><ele>161.5</ele><time>2026-04-18T15:35:57Z</time></trkpt><trkpt lat="45.114736993427705" lon="8.24800004725154"><ele>161.0</ele><time>2026-04-18T15:35:59Z</time></trkpt><trkpt lat="45.11473173825549" lon="8.248106895378958"><ele>160.5</ele><time>2026-04-18T15:36:02Z</time></trkpt><trkpt lat="45.11472477263563" lon="8.248195797003794"><ele>160.0</ele><time>2026-04-18T15:36:03Z</time></trkpt><trkpt lat="45.114711591932995" lon="8.248382599376484"><ele>159.8</ele><time>2026-04-18T15:36:05Z</time></trkpt><trkpt lat="45.11470737267503" lon="8.248515463334067"><ele>159.6</ele><time>2026-04-18T15:36:06Z</time></trkpt><trkpt lat="45.11470257630172" lon="8.24865158984638"><ele>159.4</ele><time>2026-04-18T15:36:07Z</time></trkpt><trkpt lat="45.114692800396455" lon="8.248772367211263"><ele>159.2</ele><time>2026-04-18T15:36:08Z</time></trkpt><trkpt lat="45.114676790298454" lon="8.24891459224696"><ele>159.0</ele><time>2026-04-18T15:36:09Z</time></trkpt><trkpt lat="45.11465905915952" lon="8.24905689080226"><ele>158.83333333333334</ele><time>2026-04-18T15:36:10Z</time></trkpt><trkpt lat="45.11465194424237" lon="8.249160756331468"><ele>158.66666666666666</ele><time>2026-04-18T15:36:10.999Z</time></trkpt><trkpt lat="45.11464461907884" lon="8.249282720035032"><ele>158.5</ele><time>2026-04-18T15:36:11.999Z</time></trkpt><trkpt lat="45.114620023906404" lon="8.249438184271705"><ele>158.33333333333331</ele><time>2026-04-18T15:36:13.999Z</time></trkpt><trkpt lat="45.11460113500789" lon="8.249535730977959"><ele>158.16666666666666</ele><time>2026-04-18T15:36:16.999Z</time></trkpt><trkpt lat="45.11457072866099" lon="8.24966451664654"><ele>158.0</ele><time>2026-04-18T15:36:18.999Z</time></trkpt><trkpt lat="45.114543868907056" lon="8.24978181750824"><ele>157.6</ele><time>2026-04-18T15:36:19.999Z</time></trkpt><trkpt lat="45.114510993378815" lon="8.249876426557787"><ele>157.20000000000002</ele><time>2026-04-18T15:36:20.999Z</time></trkpt><trkpt lat="45.11446491854532" lon="8.250017273289824"><ele>156.8</ele><time>2026-04-18T15:36:22.999Z</time></trkpt><trkpt lat="45.11439721717642" lon="8.250134366425527"><ele>156.4</ele><time>2026-04-18T15:36:24.998Z</time></trkpt><trkpt lat="45.11431626253832" lon="8.250241961629603"><ele>156.0</ele><time>2026-04-18T15:36:26.998Z</time></trkpt><trkpt lat="45.11424205004559" lon="8.250355924103273"><ele>156.0</ele><time>2026-04-18T15:36:28.998Z</time></trkpt><trkpt lat="45.114185722197185" lon="8.250456264351643"><ele>156.0</ele><time>2026-04-18T15:36:30.998Z</time></trkpt><trkpt lat="45.11413829563999" lon="8.250519513620215"><ele>156.0</ele><time>2026-04-18T15:36:31.998Z</time></trkpt><trkpt lat="45.114082213943824" lon="8.250601903185945"><ele>156.0</ele><time>2026-04-18T15:36:32.998Z</time></trkpt><trkpt lat="45.11403839857867" lon="8.250676407271289"><ele>156.0</ele><time>2026-04-18T15:36:33.998Z</time></trkpt><trkpt lat="45.11400048110358" lon="8.250802462203348"><ele>156.0</ele><time>2026-04-18T15:36:35.998Z</time></trkpt><trkpt lat="45.113948678765134" lon="8.25093355053893"><ele>156.66666666666666</ele><time>2026-04-18T15:36:37.998Z</time></trkpt><trkpt lat="45.113907228350016" lon="8.251012491997072"><ele>157.33333333333334</ele><time>2026-04-18T15:36:38.998Z</time></trkpt><trkpt lat="45.11386545811693" lon="8.251112827185462"><ele>158.0</ele><time>2026-04-18T15:36:39.998Z</time></trkpt><trkpt lat="45.11382756704766" lon="8.251211778319567"><ele>158.66666666666669</ele><time>2026-04-18T15:36:40.998Z</time></trkpt><trkpt lat="45.11379548222023" lon="8.251315715610472"><ele>159.33333333333334</ele><time>2026-04-18T15:36:41.998Z</time></trkpt><trkpt lat="45.11375149501215" lon="8.25143295024293"><ele>160.0</ele><time>2026-04-18T15:36:42.998Z</time></trkpt><trkpt lat="45.11372158896423" lon="8.251532626481682"><ele>160.0</ele><time>2026-04-18T15:36:43.998Z</time></trkpt><trkpt lat="45.1136877662637" lon="8.251645073448465"><ele>160.0</ele><time>2026-04-18T15:36:44.998Z</time></trkpt><trkpt lat="45.113656411029254" lon="8.251770606054306"><ele>160.0</ele><time>2026-04-18T15:36:45.998Z</time></trkpt><trkpt lat="45.113626075990425" lon="8.251902499040362"><ele>160.0</ele><time>2026-04-18T15:36:46.998Z</time></trkpt><trkpt lat="45.11359356213968" lon="8.252054709116841"><ele>160.0</ele><time>2026-04-18T15:36:47.998Z</time></trkpt><trkpt lat="45.11356098568954" lon="8.252176419597992"><ele>160.0</ele><time>2026-04-18T15:36:48.998Z</time></trkpt><trkpt lat="45.1135269023041" lon="8.252265029294923"><ele>160.0</ele><time>2026-04-18T15:36:49.998Z</time></trkpt><trkpt lat="45.113476577313065" lon="8.252343869860388"><ele>160.0</ele><time>2026-04-18T15:36:50.998Z</time></trkpt><trkpt lat="45.11340280323642" lon="8.252426708662487"><ele>160.0</ele><time>2026-04-18T15:36:51.998Z</time></trkpt><trkpt lat="45.113314872181704" lon="8.252500182706925"><ele>160.0</ele><time>2026-04-18T15:36:52.998Z</time></trkpt><trkpt lat="45.11321277266667" lon="8.252587285257084"><ele>160.0</ele><time>2026-04-18T15:36:53.998Z</time></trkpt><trkpt lat="45.11311943455093" lon="8.252671153419298"><ele>160.0</ele><time>2026-04-18T15:36:54.998Z</time></trkpt><trkpt lat="45.11303427635035" lon="8.252744965809647"><ele>160.0</ele><time>2026-04-18T15:36:55.998Z</time></trkpt><trkpt lat="45.11296470370998" lon="8.25279904234648"><ele>160.0</ele><time>2026-04-18T15:36:56.998Z</time></trkpt><trkpt lat="45.11283352917529" lon="8.252898939726009"><ele>160.0</ele><time>2026-04-18T15:36:58.998Z</time></trkpt><trkpt lat="45.11275737248796" lon="8.252962577323414"><ele>160.0</ele><time>2026-04-18T15:36:59.998Z</time></trkpt><trkpt lat="45.112677723494805" lon="8.253036423995432"><ele>160.0</ele><time>2026-04-18T15:37:00.998Z</time></trkpt><trkpt lat="45.112589965864764" lon="8.253127139271704"><ele>160.0</ele><time>2026-04-18T15:37:01.998Z</time></trkpt><trkpt lat="45.11250908285577" lon="8.253190405965206"><ele>160.0</ele><time>2026-04-18T15:37:02.998Z</time></trkpt><trkpt lat="45.112425134497606" lon="8.253238103494805"><ele>160.0</ele><time>2026-04-18T15:37:03.998Z</time></trkpt><trkpt lat="45.11234586038073" lon="8.2532524661131"><ele>161.2</ele><time>2026-04-18T15:37:05Z</time></trkpt><trkpt lat="45.1122381666734" lon="8.253262547138686"><ele>162.4</ele><time>2026-04-18T15:37:06Z</time></trkpt><trkpt lat="45.11213759828697" lon="8.253305784342595"><ele>163.60000000000002</ele><time>2026-04-18T15:37:07Z</time></trkpt><trkpt lat="45.112032910960224" lon="8.253369339165745"><ele>164.8</ele><time>2026-04-18T15:37:08Z</time></trkpt><trkpt lat="45.111937705162795" lon="8.253458918605896"><ele>166.0</ele><time>2026-04-18T15:37:09Z</time></trkpt><trkpt lat="45.11184983323356" lon="8.253549508614016"><ele>166.0</ele><time>2026-04-18T15:37:10Z</time></trkpt><trkpt lat="45.11175732582949" lon="8.253661788412364"><ele>166.0</ele><time>2026-04-18T15:37:11Z</time></trkpt><trkpt lat="45.111662216061255" lon="8.2537936790311"><ele>166.0</ele><time>2026-04-18T15:37:12Z</time></trkpt><trkpt lat="45.11157118522171" lon="8.253915883681591"><ele>166.0</ele><time>2026-04-18T15:37:13Z</time></trkpt><trkpt lat="45.11149115050588" lon="8.254010546704592"><ele>167.4</ele><time>2026-04-18T15:37:14Z</time></trkpt><trkpt lat="45.11142931677107" lon="8.254100220800789"><ele>168.8</ele><time>2026-04-18T15:37:15Z</time></trkpt><trkpt lat="45.11137101254327" lon="8.25420058279996"><ele>170.20000000000002</ele><time>2026-04-18T15:37:16Z</time></trkpt><trkpt lat="45.111301630791836" lon="8.254330149430157"><ele>171.60000000000002</ele><time>2026-04-18T15:37:17Z</time></trkpt><trkpt lat="45.111233958791814" lon="8.254475979685054"><ele>173.0</ele><time>2026-04-18T15:37:18Z</time></trkpt><trkpt lat="45.11117063656506" lon="8.254630766422435"><ele>170.75</ele><time>2026-04-18T15:37:19Z</time></trkpt><trkpt lat="45.111103826177064" lon="8.254795215017657"><ele>168.5</ele><time>2026-04-18T15:37:20Z</time></trkpt><trkpt lat="45.111037284600435" lon="8.254956288859118"><ele>166.25</ele><time>2026-04-18T15:37:21Z</time></trkpt><trkpt lat="45.11096997714063" lon="8.255102089354642"><ele>164.0</ele><time>2026-04-18T15:37:22Z</time></trkpt><trkpt lat="45.11092361599259" lon="8.255195850439085"><ele>164.0</ele><time>2026-04-18T15:37:23Z</time></trkpt><trkpt lat="45.110863246267584" lon="8.255295233522737"><ele>164.0</ele><time>2026-04-18T15:37:24.999Z</time></trkpt><trkpt lat="45.1107985140203" lon="8.255360988176141"><ele>164.0</ele><time>2026-04-18T15:37:28.999Z</time></trkpt><trkpt lat="45.11073042101043" lon="8.255448788977457"><ele>164.0</ele><time>2026-04-18T15:37:31.999Z</time></trkpt><trkpt lat="45.11064886332718" lon="8.25553871147082"><ele>164.0</ele><time>2026-04-18T15:37:34.999Z</time></trkpt><trkpt lat="45.11059679721863" lon="8.255603629409055"><ele>164.0</ele><time>2026-04-18T15:37:35.999Z</time></trkpt><trkpt lat="45.11053914169311" lon="8.255683187561903"><ele>165.28571428571428</ele><time>2026-04-18T15:37:36.999Z</time></trkpt><trkpt lat="45.110483948983294" lon="8.255759644282644"><ele>166.57142857142856</ele><time>2026-04-18T15:37:37.999Z</time></trkpt><trkpt lat="45.11043967479453" lon="8.255832382511505"><ele>167.85714285714283</ele><time>2026-04-18T15:37:38.999Z</time></trkpt><trkpt lat="45.11039668983153" lon="8.2558986876986"><ele>169.14285714285714</ele><time>2026-04-18T15:37:39.999Z</time></trkpt><trkpt lat="45.11034328167075" lon="8.255973015103075"><ele>170.42857142857144</ele><time>2026-04-18T15:37:40.999Z</time></trkpt><trkpt lat="45.11028421025876" lon="8.256052384914002"><ele>171.7142857142857</ele><time>2026-04-18T15:37:41.999Z</time></trkpt><trkpt lat="45.11023645003025" lon="8.256133243593347"><ele>173.0</ele><time>2026-04-18T15:37:42.999Z</time></trkpt><trkpt lat="45.110180634057585" lon="8.256224715641816"><ele>173.0</ele><time>2026-04-18T15:37:43.999Z</time></trkpt><trkpt lat="45.11012024752708" lon="8.256306138173501"><ele>173.0</ele><time>2026-04-18T15:37:44.999Z</time></trkpt><trkpt lat="45.11003918271391" lon="8.256412356437648"><ele>173.0</ele><time>2026-04-18T15:37:45.999Z</time></trkpt><trkpt lat="45.109958635485995" lon="8.256512636172397"><ele>173.0</ele><time>2026-04-18T15:37:46.999Z</time></trkpt><trkpt lat="45.10988974867456" lon="8.256597251885038"><ele>173.0</ele><time>2026-04-18T15:37:47.999Z</time></trkpt><trkpt lat="45.10983158664606" lon="8.256683510628415"><ele>172.5</ele><time>2026-04-18T15:37:48.999Z</time></trkpt><trkpt lat="45.10978209527693" lon="8.256770611618133"><ele>172.0</ele><time>2026-04-18T15:37:49.999Z</time></trkpt><trkpt lat="45.1097467061432" lon="8.256848524355915"><ele>171.5</ele><time>2026-04-18T15:37:50.999Z</time></trkpt><trkpt lat="45.10969913962499" lon="8.256948033034483"><ele>171.0</ele><time>2026-04-18T15:37:52.999Z</time></trkpt><trkpt lat="45.10961073093204" lon="8.256912676840336"><ele>170.5</ele><time>2026-04-18T15:37:54.999Z</time></trkpt><trkpt lat="45.109494314708506" lon="8.256866672136187"><ele>170.0</ele><time>2026-04-18T15:37:55.999Z</time></trkpt><trkpt lat="45.10941594580499" lon="8.256823957330694"><ele>170.0</ele><time>2026-04-18T15:37:56.999Z</time></trkpt><trkpt lat="45.10927706277989" lon="8.256775681616597"><ele>170.0</ele><time>2026-04-18T15:37:58.999Z</time></trkpt><trkpt lat="45.10919243796289" lon="8.25676731541563"><ele>170.0</ele><time>2026-04-18T15:37:59.999Z</time></trkpt><trkpt lat="45.109113734557134" lon="8.2567332866397"><ele>170.0</ele><time>2026-04-18T15:38:00.999Z</time></trkpt><trkpt lat="45.109037993240605" lon="8.256704310371656"><ele>170.0</ele><time>2026-04-18T15:38:01.999Z</time></trkpt><trkpt lat="45.10896170624129" lon="8.256680074300574"><ele>169.83333333333331</ele><time>2026-04-18T15:38:02.999Z</time></trkpt><trkpt lat="45.108887151624664" lon="8.256638476617157"><ele>169.66666666666666</ele><time>2026-04-18T15:38:03.999Z</time></trkpt><trkpt lat="45.108810637361756" lon="8.256611552132886"><ele>169.5</ele><time>2026-04-18T15:38:04.999Z</time></trkpt><trkpt lat="45.10873141129852" lon="8.256599212564216"><ele>169.33333333333334</ele><time>2026-04-18T15:38:05.999Z</time></trkpt><trkpt lat="45.1086517624498" lon="8.25657461335039"><ele>169.16666666666669</ele><time>2026-04-18T15:38:06.999Z</time></trkpt><trkpt lat="45.1085713005504" lon="8.256548555472879"><ele>169.0</ele><time>2026-04-18T15:38:07.999Z</time></trkpt><trkpt lat="45.108498001919614" lon="8.256518776842832"><ele>169.0</ele><time>2026-04-18T15:38:08.999Z</time></trkpt><trkpt lat="45.10842128692859" lon="8.256491860082459"><ele>169.0</ele><time>2026-04-18T15:38:09.999Z</time></trkpt><trkpt lat="45.10834436594561" lon="8.256468866956139"><ele>169.0</ele><time>2026-04-18T15:38:10.999Z</time></trkpt><trkpt lat="45.10826699205098" lon="8.256438078433556"><ele>169.0</ele><time>2026-04-18T15:38:11.999Z</time></trkpt><trkpt lat="45.1081911242209" lon="8.256412457815284"><ele>169.0</ele><time>2026-04-18T15:38:12.999Z</time></trkpt><trkpt lat="45.108113927772685" lon="8.256390079327529"><ele>169.0</ele><time>2026-04-18T15:38:13.999Z</time></trkpt><trkpt lat="45.1080446087911" lon="8.256341999484821"><ele>168.6</ele><time>2026-04-18T15:38:14.999Z</time></trkpt><trkpt lat="45.10797778286007" lon="8.256339127640882"><ele>168.2</ele><time>2026-04-18T15:38:15.999Z</time></trkpt><trkpt lat="45.107838559679664" lon="8.256280361243608"><ele>167.79999999999998</ele><time>2026-04-18T15:38:18.999Z</time></trkpt><trkpt lat="45.10786664334549" lon="8.256474300067048"><ele>167.39999999999998</ele><time>2026-04-18T15:38:22.999Z</time></trkpt><trkpt lat="45.107935691052845" lon="8.256549865379023"><ele>167.0</ele><time>2026-04-18T15:38:24.999Z</time></trkpt><trkpt lat="45.107993786577104" lon="8.25663695382931"><ele>167.0</ele><time>2026-04-18T15:38:26.999Z</time></trkpt><trkpt lat="45.108067016724966" lon="8.256730547891769"><ele>167.0</ele><time>2026-04-18T15:38:28.999Z</time></trkpt><trkpt lat="45.108121758191764" lon="8.256834442200887"><ele>167.0</ele><time>2026-04-18T15:38:30.999Z</time></trkpt><trkpt lat="45.10818410672382" lon="8.256921877149033"><ele>167.0</ele><time>2026-04-18T15:38:32.998Z</time></trkpt><trkpt lat="45.10824308098572" lon="8.256977615211403"><ele>167.0</ele><time>2026-04-18T15:38:34.998Z</time></trkpt><trkpt lat="45.10828530799605" lon="8.257049414124937"><ele>167.0</ele><time>2026-04-18T15:38:45.998Z</time></trkpt><trkpt lat="45.108236081579214" lon="8.25699304246089"><ele>167.0</ele><time>2026-04-18T15:39:03.998Z</time></trkpt><trkpt lat="45.10818041322231" lon="8.256885553411259"><ele>167.0</ele><time>2026-04-18T15:39:28Z</time></trkpt><trkpt lat="45.1081250517523" lon="8.25683924529619"><ele>167.0</ele><time>2026-04-18T15:39:30Z</time></trkpt><trkpt lat="45.10802282308397" lon="8.257182454721317"><ele>167.0</ele><time>2026-04-18T15:40:05.999Z</time></trkpt><trkpt lat="45.10799981449666" lon="8.257316957527863"><ele>166.25</ele><time>2026-04-18T15:40:06.999Z</time></trkpt><trkpt lat="45.107955704267184" lon="8.25743318326262"><ele>165.5</ele><time>2026-04-18T15:40:07.999Z</time></trkpt><trkpt lat="45.1078800497607" lon="8.257587121572522"><ele>164.75</ele><time>2026-04-18T15:40:08.999Z</time></trkpt><trkpt lat="45.10779747476927" lon="8.257753273629405"><ele>164.0</ele><time>2026-04-18T15:40:09.999Z</time></trkpt><trkpt lat="45.10770935599131" lon="8.257929910532756"><ele>164.0</ele><time>2026-04-18T15:40:10.999Z</time></trkpt><trkpt lat="45.1076379393573" lon="8.258093874290235"><ele>164.0</ele><time>2026-04-18T15:40:11.999Z</time></trkpt><trkpt lat="45.10758022974476" lon="8.258228792339763"><ele>164.0</ele><time>2026-04-18T15:40:12.999Z</time></trkpt><trkpt lat="45.10749142423936" lon="8.25835878612027"><ele>164.0</ele><time>2026-04-18T15:40:13.999Z</time></trkpt><trkpt lat="45.107419810216406" lon="8.258464797071486"><ele>165.39999999999998</ele><time>2026-04-18T15:40:14.999Z</time></trkpt><trkpt lat="45.10735196173588" lon="8.258587973437725"><ele>166.8</ele><time>2026-04-18T15:40:15.999Z</time></trkpt><trkpt lat="45.107256478721474" lon="8.258708055511862"><ele>168.2</ele><time>2026-04-18T15:40:16.999Z</time></trkpt><trkpt lat="45.10720616996105" lon="8.258809661361779"><ele>169.60000000000002</ele><time>2026-04-18T15:40:17.999Z</time></trkpt><trkpt lat="45.107153926434904" lon="8.258917296367207"><ele>171.0</ele><time>2026-04-18T15:40:18.999Z</time></trkpt><trkpt lat="45.10708470210101" lon="8.259009935041032"><ele>173.5</ele><time>2026-04-18T15:40:19.999Z</time></trkpt><trkpt lat="45.107012162783576" lon="8.25914776428887"><ele>176.0</ele><time>2026-04-18T15:40:20.999Z</time></trkpt><trkpt lat="45.106958505537655" lon="8.25929828916081"><ele>178.5</ele><time>2026-04-18T15:40:21.999Z</time></trkpt><trkpt lat="45.106906403292214" lon="8.259492960291785"><ele>181.0</ele><time>2026-04-18T15:40:23.999Z</time></trkpt><trkpt lat="45.10687889006346" lon="8.259659133284346"><ele>182.8</ele><time>2026-04-18T15:40:24.999Z</time></trkpt><trkpt lat="45.10683457032845" lon="8.259825778234067"><ele>184.60000000000002</ele><time>2026-04-18T15:40:25.999Z</time></trkpt><trkpt lat="45.10679292357507" lon="8.259948397992504"><ele>186.4</ele><time>2026-04-18T15:40:26.999Z</time></trkpt><trkpt lat="45.10676336967904" lon="8.26004141993762"><ele>188.2</ele><time>2026-04-18T15:40:27.999Z</time></trkpt><trkpt lat="45.10673136117125" lon="8.260140272157338"><ele>190.0</ele><time>2026-04-18T15:40:28.999Z</time></trkpt><trkpt lat="45.10671287905547" lon="8.2602597980785"><ele>190.0</ele><time>2026-04-18T15:40:29.999Z</time></trkpt><trkpt lat="45.10666706740551" lon="8.260347629241984"><ele>190.0</ele><time>2026-04-18T15:40:30.999Z</time></trkpt><trkpt lat="45.10660927132815" lon="8.26042844858961"><ele>190.0</ele><time>2026-04-18T15:40:31.999Z</time></trkpt><trkpt lat="45.10655133750627" lon="8.260543867137363"><ele>190.0</ele><time>2026-04-18T15:40:32.999Z</time></trkpt><trkpt lat="45.10651103829149" lon="8.260627124603335"><ele>190.0</ele><time>2026-04-18T15:40:33.999Z</time></trkpt><trkpt lat="45.10648846912333" lon="8.260775064065315"><ele>190.0</ele><time>2026-04-18T15:40:35.999Z</time></trkpt><trkpt lat="45.10650811648834" lon="8.260867065886451"><ele>197.0</ele><time>2026-04-18T15:40:36.999Z</time></trkpt><trkpt lat="45.10652785214727" lon="8.260956751981658"><ele>204.0</ele><time>2026-04-18T15:40:37.999Z</time></trkpt><trkpt lat="45.106538915658824" lon="8.261128905722568"><ele>211.0</ele><time>2026-04-18T15:40:39.999Z</time></trkpt><trkpt lat="45.10652732885359" lon="8.261245280280539"><ele>218.0</ele><time>2026-04-18T15:41:25Z</time></trkpt><trkpt lat="45.10650876111221" lon="8.261347657014936"><ele>224.99999999999997</ele><time>2026-04-18T15:41:31Z</time></trkpt><trkpt lat="45.10648006326289" lon="8.261464260533298"><ele>232.0</ele><time>2026-04-18T15:41:35Z</time></trkpt><trkpt lat="45.106439115810616" lon="8.261549703588306"><ele>232.42857142857144</ele><time>2026-04-18T15:41:38Z</time></trkpt><trkpt lat="45.10639624368244" lon="8.261627882633011"><ele>232.85714285714286</ele><time>2026-04-18T15:41:40Z</time></trkpt><trkpt lat="45.106351641025746" lon="8.261700277422236"><ele>233.28571428571428</ele><time>2026-04-18T15:41:43Z</time></trkpt><trkpt lat="45.106280786045204" lon="8.261754370792634"><ele>233.71428571428572</ele><time>2026-04-18T15:41:49Z</time></trkpt><trkpt lat="45.10622337942691" lon="8.261801330713388"><ele>234.1428571428571</ele><time>2026-04-18T15:41:51Z</time></trkpt><trkpt lat="45.1061637708443" lon="8.261833251195844"><ele>234.57142857142856</ele><time>2026-04-18T15:41:52Z</time></trkpt><trkpt lat="45.106231873963154" lon="8.261821801085016"><ele>235.0</ele><time>2026-04-18T15:45:20.998Z</time></trkpt><trkpt lat="45.10630820074708" lon="8.26175599805352"><ele>235.0</ele><time>2026-04-18T15:45:23.998Z</time></trkpt><trkpt lat="45.10637133785028" lon="8.261716553090906"><ele>234.99999999999997</ele><time>2026-04-18T15:45:28Z</time></trkpt><trkpt lat="45.10640672516046" lon="8.261615700000405"><ele>235.0</ele><time>2026-04-18T15:45:32Z</time></trkpt><trkpt lat="45.106441696483444" lon="8.261532451878171"><ele>235.0</ele><time>2026-04-18T15:45:35Z</time></trkpt><trkpt lat="45.10647302952643" lon="8.261434841078588"><ele>234.99999999999997</ele><time>2026-04-18T15:45:38Z</time></trkpt><trkpt lat="45.106490935633786" lon="8.261347445892229"><ele>235.0</ele><time>2026-04-18T15:45:41Z</time></trkpt><trkpt lat="45.10651807363049" lon="8.26126546142887"><ele>235.0</ele><time>2026-04-18T15:45:44Z</time></trkpt><trkpt lat="45.106526602581475" lon="8.261160723348961"><ele>234.57142857142856</ele><time>2026-04-18T15:45:49Z</time></trkpt><trkpt lat="45.1065322544219" lon="8.261067900723948"><ele>234.1428571428571</ele><time>2026-04-18T15:45:54Z</time></trkpt><trkpt lat="45.10652854971429" lon="8.260967551388303"><ele>233.71428571428572</ele><time>2026-04-18T15:45:58Z</time></trkpt><trkpt lat="45.106516148423026" lon="8.260863264860472"><ele>233.28571428571428</ele><time>2026-04-18T15:46:05Z</time></trkpt><trkpt lat="45.10650882094201" lon="8.260765956406592"><ele>232.85714285714286</ele><time>2026-04-18T15:48:06Z</time></trkpt><trkpt lat="45.10650942875552" lon="8.260642839087446"><ele>232.42857142857144</ele><time>2026-04-18T15:48:37.999Z</time></trkpt><trkpt lat="45.1065400518917" lon="8.260559306981502"><ele>232.00000000000003</ele><time>2026-04-18T15:49:01.999Z</time></trkpt><trkpt lat="45.10656625636281" lon="8.260475769540173"><ele>223.6</ele><time>2026-04-18T15:49:03.999Z</time></trkpt><trkpt lat="45.106627792552096" lon="8.260373525582063"><ele>215.2</ele><time>2026-04-18T15:49:05.999Z</time></trkpt><trkpt lat="45.106678661897064" lon="8.260261464067643"><ele>206.8</ele><time>2026-04-18T15:49:07.999Z</time></trkpt><trkpt lat="45.10671851405256" lon="8.260172094827936"><ele>198.4</ele><time>2026-04-18T15:49:09.999Z</time></trkpt><trkpt lat="45.10676274170223" lon="8.260030200444215"><ele>190.0</ele><time>2026-04-18T15:49:11.999Z</time></trkpt><trkpt lat="45.10679823769778" lon="8.259904657171752"><ele>188.2</ele><time>2026-04-18T15:49:13.999Z</time></trkpt><trkpt lat="45.106843604574784" lon="8.259752946672869"><ele>186.4</ele><time>2026-04-18T15:49:15.999Z</time></trkpt><trkpt lat="45.10689259369169" lon="8.259595413996635"><ele>184.60000000000002</ele><time>2026-04-18T15:49:17.999Z</time></trkpt><trkpt lat="45.10691765442951" lon="8.259487393632927"><ele>182.8</ele><time>2026-04-18T15:49:18.999Z</time></trkpt><trkpt lat="45.106933497328505" lon="8.259392258026757"><ele>181.0</ele><time>2026-04-18T15:49:19.999Z</time></trkpt><trkpt lat="45.106964861290564" lon="8.259239532993947"><ele>181.0</ele><time>2026-04-18T15:49:21.999Z</time></trkpt><trkpt lat="45.106997759378494" lon="8.259162612943642"><ele>181.0</ele><time>2026-04-18T15:49:22.999Z</time></trkpt><trkpt lat="45.10704109254894" lon="8.259068363750888"><ele>181.0</ele><time>2026-04-18T15:49:23.999Z</time></trkpt><trkpt lat="45.10708181499518" lon="8.258997801381348"><ele>181.0</ele><time>2026-04-18T15:49:24.999Z</time></trkpt><trkpt lat="45.107132105494976" lon="8.258928873434279"><ele>181.0</ele><time>2026-04-18T15:49:25.999Z</time></trkpt><trkpt lat="45.107217874288054" lon="8.25881521685573"><ele>181.0</ele><time>2026-04-18T15:49:27.999Z</time></trkpt><trkpt lat="45.10725992611928" lon="8.258745245952682"><ele>179.33333333333334</ele><time>2026-04-18T15:49:28.999Z</time></trkpt><trkpt lat="45.10730971032149" lon="8.258660196781246"><ele>177.66666666666669</ele><time>2026-04-18T15:49:29.999Z</time></trkpt><trkpt lat="45.10736307693352" lon="8.258585041281274"><ele>176.0</ele><time>2026-04-18T15:49:30.999Z</time></trkpt><trkpt lat="45.107411188151964" lon="8.258507470286125"><ele>174.33333333333334</ele><time>2026-04-18T15:49:31.999Z</time></trkpt><trkpt lat="45.107470030434975" lon="8.25840208881858"><ele>172.66666666666666</ele><time>2026-04-18T15:49:33.999Z</time></trkpt><trkpt lat="45.107530521394494" lon="8.258281517874675"><ele>171.0</ele><time>2026-04-18T15:49:35.999Z</time></trkpt><trkpt lat="45.107581180945196" lon="8.258213246216327"><ele>170.20000000000002</ele><time>2026-04-18T15:49:36.999Z</time></trkpt><trkpt lat="45.107634050012194" lon="8.258126881472267"><ele>169.4</ele><time>2026-04-18T15:49:37.998Z</time></trkpt><trkpt lat="45.107673762634235" lon="8.258040955367774"><ele>168.6</ele><time>2026-04-18T15:49:39Z</time></trkpt><trkpt lat="45.10772316722394" lon="8.257909978565396"><ele>167.8</ele><time>2026-04-18T15:49:41Z</time></trkpt><trkpt lat="45.10779554189755" lon="8.257745129979018"><ele>167.0</ele><time>2026-04-18T15:49:43Z</time></trkpt><trkpt lat="45.107848260689096" lon="8.257643947096913"><ele>167.0</ele><time>2026-04-18T15:49:44Z</time></trkpt><trkpt lat="45.10789781312817" lon="8.257546765622523"><ele>167.0</ele><time>2026-04-18T15:49:45Z</time></trkpt><trkpt lat="45.10793700686469" lon="8.25745282724224"><ele>167.0</ele><time>2026-04-18T15:49:46Z</time></trkpt><trkpt lat="45.1079877800009" lon="8.257329719069675"><ele>167.0</ele><time>2026-04-18T15:49:47Z</time></trkpt><trkpt lat="45.10802759516916" lon="8.257217199556846"><ele>167.0</ele><time>2026-04-18T15:49:48Z</time></trkpt><trkpt lat="45.10804383681633" lon="8.257121611455384"><ele>167.0</ele><time>2026-04-18T15:49:49Z</time></trkpt><trkpt lat="45.10805769916092" lon="8.256962726920245"><ele>167.0</ele><time>2026-04-18T15:49:51Z</time></trkpt><trkpt lat="45.10809405074004" lon="8.256867007936052"><ele>167.0</ele><time>2026-04-18T15:49:53Z</time></trkpt><trkpt lat="45.10815997136468" lon="8.256848353695602"><ele>167.0</ele><time>2026-04-18T15:49:55Z</time></trkpt><trkpt lat="45.10824054689176" lon="8.256962731831111"><ele>167.0</ele><time>2026-04-18T15:49:57Z</time></trkpt><trkpt lat="45.10827452285693" lon="8.257038837775264"><ele>167.0</ele><time>2026-04-18T15:49:58Z</time></trkpt><trkpt lat="45.10839199400033" lon="8.257186052240684"><ele>165.5</ele><time>2026-04-18T15:50:00Z</time></trkpt><trkpt lat="45.10849011182091" lon="8.257309224858183"><ele>164.0</ele><time>2026-04-18T15:50:01Z</time></trkpt><trkpt lat="45.10859845137564" lon="8.257463104340259"><ele>162.5</ele><time>2026-04-18T15:50:02Z</time></trkpt><trkpt lat="45.108701636465604" lon="8.257610311413128"><ele>161.0</ele><time>2026-04-18T15:50:03Z</time></trkpt><trkpt lat="45.1087940686065" lon="8.257723442707857"><ele>161.0</ele><time>2026-04-18T15:50:04Z</time></trkpt><trkpt lat="45.10888836448513" lon="8.25781262295989"><ele>161.0</ele><time>2026-04-18T15:50:05Z</time></trkpt><trkpt lat="45.10902255149393" lon="8.257895838506384"><ele>161.0</ele><time>2026-04-18T15:50:06Z</time></trkpt><trkpt lat="45.10918689146734" lon="8.258007309971724"><ele>161.0</ele><time>2026-04-18T15:50:07Z</time></trkpt><trkpt lat="45.10931760274691" lon="8.258122034242144"><ele>160.60000000000002</ele><time>2026-04-18T15:50:08Z</time></trkpt><trkpt lat="45.109421462251106" lon="8.25822387965839"><ele>160.20000000000002</ele><time>2026-04-18T15:50:09Z</time></trkpt><trkpt lat="45.10948857490015" lon="8.258317400742042"><ele>159.8</ele><time>2026-04-18T15:50:10Z</time></trkpt><trkpt lat="45.109544334346765" lon="8.258416873949388"><ele>159.4</ele><time>2026-04-18T15:50:11Z</time></trkpt><trkpt lat="45.10958330596513" lon="8.258530593006707"><ele>159.0</ele><time>2026-04-18T15:50:12Z</time></trkpt><trkpt lat="45.109592211797604" lon="8.258658265972148"><ele>159.0</ele><time>2026-04-18T15:50:13Z</time></trkpt><trkpt lat="45.10960881031134" lon="8.258848045184177"><ele>159.0</ele><time>2026-04-18T15:50:14Z</time></trkpt><trkpt lat="45.1096351849194" lon="8.259048425638653"><ele>159.0</ele><time>2026-04-18T15:50:15Z</time></trkpt><trkpt lat="45.10969774073684" lon="8.259255436742782"><ele>159.0</ele><time>2026-04-18T15:50:16Z</time></trkpt><trkpt lat="45.10977636759522" lon="8.259500439825514"><ele>158.33333333333334</ele><time>2026-04-18T15:50:17Z</time></trkpt><trkpt lat="45.10984707125769" lon="8.259719811082352"><ele>157.66666666666669</ele><time>2026-04-18T15:50:18Z</time></trkpt><trkpt lat="45.109910908705494" lon="8.259947905734466"><ele>157.0</ele><time>2026-04-18T15:50:19Z</time></trkpt><trkpt lat="45.1099482699726" lon="8.260173412558634"><ele>157.0</ele><time>2026-04-18T15:50:20Z</time></trkpt><trkpt lat="45.11001503421214" lon="8.260368499829301"><ele>157.0</ele><time>2026-04-18T15:50:21Z</time></trkpt><trkpt lat="45.11005280141835" lon="8.260567759725784"><ele>157.0</ele><time>2026-04-18T15:50:22Z</time></trkpt><trkpt lat="45.110097399668035" lon="8.260786590793689"><ele>157.0</ele><time>2026-04-18T15:50:23Z</time></trkpt><trkpt lat="45.11012567919878" lon="8.260985779102446"><ele>157.0</ele><time>2026-04-18T15:50:24Z</time></trkpt><trkpt lat="45.110144767994775" lon="8.261171139112477"><ele>157.0</ele><time>2026-04-18T15:50:25Z</time></trkpt><trkpt lat="45.11017257291966" lon="8.26133642436887"><ele>157.0</ele><time>2026-04-18T15:50:26Z</time></trkpt><trkpt lat="45.11021379586992" lon="8.261494613655753"><ele>156.6</ele><time>2026-04-18T15:50:27Z</time></trkpt><trkpt lat="45.11025395895617" lon="8.261626999430469"><ele>156.2</ele><time>2026-04-18T15:50:28Z</time></trkpt><trkpt lat="45.11025814958195" lon="8.261729838033565"><ele>155.8</ele><time>2026-04-18T15:50:29Z</time></trkpt><trkpt lat="45.11022655594123" lon="8.261850072960959"><ele>155.4</ele><time>2026-04-18T15:50:30Z</time></trkpt><trkpt lat="45.110175997126476" lon="8.262007568554464"><ele>155.0</ele><time>2026-04-18T15:50:31Z</time></trkpt><trkpt lat="45.11013556751821" lon="8.262217919849855"><ele>155.33333333333331</ele><time>2026-04-18T15:50:32Z</time></trkpt><trkpt lat="45.110080006262606" lon="8.262445392861476"><ele>155.66666666666666</ele><time>2026-04-18T15:50:33Z</time></trkpt><trkpt lat="45.110024369258845" lon="8.262692922677015"><ele>156.0</ele><time>2026-04-18T15:50:34Z</time></trkpt><trkpt lat="45.109978149691855" lon="8.262887210439484"><ele>156.0</ele><time>2026-04-18T15:50:34.999Z</time></trkpt><trkpt lat="45.10991497295753" lon="8.263035747198263"><ele>156.0</ele><time>2026-04-18T15:50:35.999Z</time></trkpt><trkpt lat="45.10984727665817" lon="8.26319794800807"><ele>156.0</ele><time>2026-04-18T15:50:36.999Z</time></trkpt><trkpt lat="45.109781855291565" lon="8.263343595003374"><ele>156.0</ele><time>2026-04-18T15:50:37.999Z</time></trkpt><trkpt lat="45.10973435278138" lon="8.263482163167476"><ele>156.6</ele><time>2026-04-18T15:50:38.999Z</time></trkpt><trkpt lat="45.10969026787216" lon="8.263586628711163"><ele>157.2</ele><time>2026-04-18T15:50:39.999Z</time></trkpt><trkpt lat="45.10965431814048" lon="8.263700874762419"><ele>157.8</ele><time>2026-04-18T15:50:40.998Z</time></trkpt><trkpt lat="45.10963451170537" lon="8.263851433463701"><ele>158.4</ele><time>2026-04-18T15:50:41.998Z</time></trkpt><trkpt lat="45.10964526921216" lon="8.263991211587957"><ele>159.0</ele><time>2026-04-18T15:50:42.998Z</time></trkpt><trkpt lat="45.10968945330755" lon="8.264142428722867"><ele>159.0</ele><time>2026-04-18T15:50:43.998Z</time></trkpt><trkpt lat="45.109745945814694" lon="8.264303035342046"><ele>159.0</ele><time>2026-04-18T15:50:44.998Z</time></trkpt><trkpt lat="45.10978942142549" lon="8.264433749824597"><ele>159.0</ele><time>2026-04-18T15:50:45.998Z</time></trkpt><trkpt lat="45.109819358278024" lon="8.264568979675527"><ele>159.0</ele><time>2026-04-18T15:50:46.998Z</time></trkpt><trkpt lat="45.10982472246934" lon="8.264714731055008"><ele>159.0</ele><time>2026-04-18T15:50:47.998Z</time></trkpt><trkpt lat="45.109816386579446" lon="8.264859385448526"><ele>158.6</ele><time>2026-04-18T15:50:48.998Z</time></trkpt><trkpt lat="45.10980378953701" lon="8.26500852349958"><ele>158.2</ele><time>2026-04-18T15:50:49.998Z</time></trkpt><trkpt lat="45.109786042608704" lon="8.265130427146063"><ele>157.79999999999998</ele><time>2026-04-18T15:50:50.998Z</time></trkpt><trkpt lat="45.10975922446298" lon="8.265230869797891"><ele>157.4</ele><time>2026-04-18T15:50:51.998Z</time></trkpt><trkpt lat="45.1096917747623" lon="8.265348952041276"><ele>157.0</ele><time>2026-04-18T15:50:53.998Z</time></trkpt><trkpt lat="45.109671112931956" lon="8.265458644146007"><ele>156.5</ele><time>2026-04-18T15:50:54.998Z</time></trkpt><trkpt lat="45.10967678157418" lon="8.265620397331373"><ele>156.0</ele><time>2026-04-18T15:50:55.998Z</time></trkpt><trkpt lat="45.10964806091326" lon="8.265812252575364"><ele>155.5</ele><time>2026-04-18T15:50:56.998Z</time></trkpt><trkpt lat="45.10962244692975" lon="8.266033687430408"><ele>155.0</ele><time>2026-04-18T15:50:57.998Z</time></trkpt><trkpt lat="45.10961211599187" lon="8.266219918258278"><ele>155.0</ele><time>2026-04-18T15:50:58.998Z</time></trkpt><trkpt lat="45.10956798197467" lon="8.26639002873116"><ele>155.0</ele><time>2026-04-18T15:50:59.998Z</time></trkpt><trkpt lat="45.10952834533074" lon="8.26657371131782"><ele>155.0</ele><time>2026-04-18T15:51:00.998Z</time></trkpt><trkpt lat="45.10948268987715" lon="8.266757217418714"><ele>155.0</ele><time>2026-04-18T15:51:01.998Z</time></trkpt><trkpt lat="45.10945682961343" lon="8.266936919652464"><ele>154.5</ele><time>2026-04-18T15:51:02.998Z</time></trkpt><trkpt lat="45.10941877428641" lon="8.26710206120681"><ele>154.0</ele><time>2026-04-18T15:51:03.998Z</time></trkpt><trkpt lat="45.10935624617184" lon="8.267255297616119"><ele>153.5</ele><time>2026-04-18T15:51:04.998Z</time></trkpt><trkpt lat="45.109295092773294" lon="8.267413177377422"><ele>153.0</ele><time>2026-04-18T15:51:05.998Z</time></trkpt><trkpt lat="45.10923742315338" lon="8.267600751302638"><ele>152.66666666666666</ele><time>2026-04-18T15:51:06.998Z</time></trkpt><trkpt lat="45.10916623946" lon="8.267783123873711"><ele>152.33333333333331</ele><time>2026-04-18T15:51:07.998Z</time></trkpt><trkpt lat="45.109123718677594" lon="8.267996079841566"><ele>152.0</ele><time>2026-04-18T15:51:08.998Z</time></trkpt><trkpt lat="45.109092886431114" lon="8.26821862315946"><ele>151.0</ele><time>2026-04-18T15:51:09.998Z</time></trkpt><trkpt lat="45.109050971189305" lon="8.268395390278235"><ele>150.0</ele><time>2026-04-18T15:51:10.998Z</time></trkpt><trkpt lat="45.109028642467905" lon="8.268599336251556"><ele>149.0</ele><time>2026-04-18T15:51:11.998Z</time></trkpt><trkpt lat="45.10891978489273" lon="8.269135824299847"><ele>149.0</ele><time>2026-04-18T15:51:13.998Z</time></trkpt><trkpt lat="45.1088761163046" lon="8.269386445894526"><ele>149.0</ele><time>2026-04-18T15:51:14.998Z</time></trkpt><trkpt lat="45.10883497867856" lon="8.269620182218663"><ele>149.0</ele><time>2026-04-18T15:51:15.998Z</time></trkpt><trkpt lat="45.10880568029562" lon="8.26981235495272"><ele>149.0</ele><time>2026-04-18T15:51:16.998Z</time></trkpt><trkpt lat="45.10877713563995" lon="8.270012123439592"><ele>149.0</ele><time>2026-04-18T15:51:17.998Z</time></trkpt><trkpt lat="45.10872998678905" lon="8.270269672117456"><ele>149.0</ele><time>2026-04-18T15:51:18.998Z</time></trkpt><trkpt lat="45.10868006680642" lon="8.270521107113654"><ele>149.75</ele><time>2026-04-18T15:51:19.998Z</time></trkpt><trkpt lat="45.10863737120306" lon="8.270720273211717"><ele>150.5</ele><time>2026-04-18T15:51:20.998Z</time></trkpt><trkpt lat="45.10859383352855" lon="8.270896656318499"><ele>151.25</ele><time>2026-04-18T15:51:21.998Z</time></trkpt><trkpt lat="45.10856337592957" lon="8.271064403301628"><ele>152.0</ele><time>2026-04-18T15:51:22.998Z</time></trkpt><trkpt lat="45.1085154293634" lon="8.271251763089417"><ele>152.0</ele><time>2026-04-18T15:51:23.998Z</time></trkpt><trkpt lat="45.108471187240184" lon="8.27145006811635"><ele>152.0</ele><time>2026-04-18T15:51:24.998Z</time></trkpt><trkpt lat="45.10844062230245" lon="8.271646744951756"><ele>152.0</ele><time>2026-04-18T15:51:25.998Z</time></trkpt><trkpt lat="45.10841930749029" lon="8.27182322204947"><ele>152.0</ele><time>2026-04-18T15:51:26.998Z</time></trkpt><trkpt lat="45.10840118704989" lon="8.272041300804581"><ele>152.0</ele><time>2026-04-18T15:51:27.998Z</time></trkpt><trkpt lat="45.10838191320641" lon="8.272269541437996"><ele>152.0</ele><time>2026-04-18T15:51:28.998Z</time></trkpt><trkpt lat="45.108344635416636" lon="8.272455895447647"><ele>152.0</ele><time>2026-04-18T15:51:29.998Z</time></trkpt><trkpt lat="45.10831549015377" lon="8.2726286313876"><ele>152.0</ele><time>2026-04-18T15:51:30.998Z</time></trkpt><trkpt lat="45.10828180932595" lon="8.272829807793357"><ele>152.0</ele><time>2026-04-18T15:51:31.998Z</time></trkpt><trkpt lat="45.10825212072525" lon="8.273007898169723"><ele>152.0</ele><time>2026-04-18T15:51:32.998Z</time></trkpt><trkpt lat="45.10822815410138" lon="8.273153277855855"><ele>152.0</ele><time>2026-04-18T15:51:33.998Z</time></trkpt><trkpt lat="45.108224325433014" lon="8.273276416551191"><ele>152.0</ele><time>2026-04-18T15:51:34.998Z</time></trkpt><trkpt lat="45.10820824191186" lon="8.273373952520375"><ele>152.0</ele><time>2026-04-18T15:51:35.998Z</time></trkpt><trkpt lat="45.10818009171683" lon="8.273465005549188"><ele>152.0</ele><time>2026-04-18T15:51:38.998Z</time></trkpt><trkpt lat="45.10808665340243" lon="8.273389509468817"><ele>152.0</ele><time>2026-04-18T15:51:39.998Z</time></trkpt><trkpt lat="45.10800216261314" lon="8.273375073561322"><ele>152.0</ele><time>2026-04-18T15:51:40.998Z</time></trkpt><trkpt lat="45.1079210234719" lon="8.273351641432775"><ele>152.0</ele><time>2026-04-18T15:51:41.998Z</time></trkpt><trkpt lat="45.10789648341218" lon="8.273509861787327"><ele>152.0</ele><time>2026-04-18T15:51:43.998Z</time></trkpt><trkpt lat="45.107868380327005" lon="8.273612876214454"><ele>152.0</ele><time>2026-04-18T15:51:46.999Z</time></trkpt><trkpt lat="45.10785317680465" lon="8.27372411349405"><ele>152.0</ele><time>2026-04-18T15:51:49.999Z</time></trkpt><trkpt lat="45.10782111346617" lon="8.273824051873035"><ele>152.0</ele><time>2026-04-18T15:51:52.999Z</time></trkpt><trkpt lat="45.1077929976546" lon="8.273931520530052"><ele>152.0</ele><time>2026-04-18T15:51:55.999Z</time></trkpt><trkpt lat="45.10776669374789" lon="8.274018963814457"><ele>152.0</ele><time>2026-04-18T15:51:58.999Z</time></trkpt><trkpt lat="45.10775870006769" lon="8.274111443240676"><ele>152.0</ele><time>2026-04-18T15:52:01.999Z</time></trkpt><trkpt lat="45.10773023447087" lon="8.274212512459119"><ele>152.0</ele><time>2026-04-18T15:52:05.999Z</time></trkpt><trkpt lat="45.10770502322743" lon="8.274296671823588"><ele>151.57142857142856</ele><time>2026-04-18T15:52:09.999Z</time></trkpt><trkpt lat="45.107680140924785" lon="8.274392957385764"><ele>151.14285714285717</ele><time>2026-04-18T15:52:14.999Z</time></trkpt><trkpt lat="45.107654877277284" lon="8.274479259019552"><ele>150.71428571428572</ele><time>2026-04-18T15:52:20.999Z</time></trkpt><trkpt lat="45.10762502034764" lon="8.274565342400885"><ele>150.28571428571428</ele><time>2026-04-18T15:52:22.999Z</time></trkpt><trkpt lat="45.107601135438465" lon="8.274648996801373"><ele>149.85714285714283</ele><time>2026-04-18T15:52:25.999Z</time></trkpt><trkpt lat="45.10757686532081" lon="8.274744775796815"><ele>149.42857142857142</ele><time>2026-04-18T15:52:33.999Z</time></trkpt><trkpt lat="45.107553584682805" lon="8.274828757010933"><ele>149.0</ele><time>2026-04-18T15:52:34.999Z</time></trkpt><trkpt lat="45.10750882877255" lon="8.274984627431689"><ele>149.0</ele><time>2026-04-18T15:52:35.999Z</time></trkpt><trkpt lat="45.10743420524834" lon="8.275199909111409"><ele>149.0</ele><time>2026-04-18T15:52:36.999Z</time></trkpt><trkpt lat="45.1073531169942" lon="8.27546241867939"><ele>149.0</ele><time>2026-04-18T15:52:37.999Z</time></trkpt><trkpt lat="45.10729524187421" lon="8.275715942708942"><ele>149.66666666666666</ele><time>2026-04-18T15:52:38.999Z</time></trkpt><trkpt lat="45.10723218853744" lon="8.275933274054418"><ele>150.33333333333334</ele><time>2026-04-18T15:52:39.999Z</time></trkpt><trkpt lat="45.10717062828299" lon="8.276126521248715"><ele>151.0</ele><time>2026-04-18T15:52:40.999Z</time></trkpt><trkpt lat="45.10711102884686" lon="8.276339431192735"><ele>150.66666666666669</ele><time>2026-04-18T15:52:41.999Z</time></trkpt><trkpt lat="45.107048141050065" lon="8.276560010456981"><ele>150.33333333333334</ele><time>2026-04-18T15:52:42.999Z</time></trkpt><trkpt lat="45.10697509923089" lon="8.276818169418119"><ele>150.0</ele><time>2026-04-18T15:52:43.999Z</time></trkpt><trkpt lat="45.10688953024469" lon="8.277115185156283"><ele>149.0</ele><time>2026-04-18T15:52:44.999Z</time></trkpt><trkpt lat="45.10681549279136" lon="8.2774483473841"><ele>148.0</ele><time>2026-04-18T15:52:45.999Z</time></trkpt><trkpt lat="45.106761357616136" lon="8.277775060583458"><ele>148.0</ele><time>2026-04-18T15:52:46.999Z</time></trkpt><trkpt lat="45.10671845207099" lon="8.278056898052832"><ele>148.0</ele><time>2026-04-18T15:52:47.999Z</time></trkpt><trkpt lat="45.10668000440913" lon="8.278323779149918"><ele>148.0</ele><time>2026-04-18T15:52:48.999Z</time></trkpt><trkpt lat="45.10664670150429" lon="8.278569227615103"><ele>148.0</ele><time>2026-04-18T15:52:49.999Z</time></trkpt><trkpt lat="45.106615998205605" lon="8.278800460537093"><ele>148.0</ele><time>2026-04-18T15:52:50.999Z</time></trkpt><trkpt lat="45.1065769876512" lon="8.27901233626889"><ele>148.0</ele><time>2026-04-18T15:52:51.999Z</time></trkpt><trkpt lat="45.10656058423856" lon="8.279212021701568"><ele>148.0</ele><time>2026-04-18T15:52:52.999Z</time></trkpt><trkpt lat="45.10652650348694" lon="8.279413484494096"><ele>148.0</ele><time>2026-04-18T15:52:53.999Z</time></trkpt><trkpt lat="45.10646772502059" lon="8.279646831568012"><ele>148.0</ele><time>2026-04-18T15:52:54.998Z</time></trkpt><trkpt lat="45.106374008284014" lon="8.279885532443926"><ele>147.33333333333334</ele><time>2026-04-18T15:52:55.998Z</time></trkpt><trkpt lat="45.10628475605396" lon="8.280092035455832"><ele>146.66666666666666</ele><time>2026-04-18T15:52:56.998Z</time></trkpt><trkpt lat="45.10619621003249" lon="8.280269150508442"><ele>146.0</ele><time>2026-04-18T15:52:57.998Z</time></trkpt><trkpt lat="45.106123117851084" lon="8.280438007832005"><ele>146.0</ele><time>2026-04-18T15:52:58.998Z</time></trkpt><trkpt lat="45.106068159279715" lon="8.280564278887644"><ele>146.0</ele><time>2026-04-18T15:52:59.998Z</time></trkpt><trkpt lat="45.10600543493784" lon="8.280718491854891"><ele>146.0</ele><time>2026-04-18T15:53:00.998Z</time></trkpt><trkpt lat="45.10595782671594" lon="8.280869882149126"><ele>146.0</ele><time>2026-04-18T15:53:01.998Z</time></trkpt><trkpt lat="45.10591852588772" lon="8.281016919285463"><ele>147.25</ele><time>2026-04-18T15:53:02.998Z</time></trkpt><trkpt lat="45.105877127794024" lon="8.281177597868146"><ele>148.5</ele><time>2026-04-18T15:53:03.998Z</time></trkpt><trkpt lat="45.105847177386856" lon="8.281360410058282"><ele>149.75</ele><time>2026-04-18T15:53:04.998Z</time></trkpt><trkpt lat="45.10580428091125" lon="8.281579359392126"><ele>151.0</ele><time>2026-04-18T15:53:05.998Z</time></trkpt><trkpt lat="45.105758590670916" lon="8.281845602744374"><ele>151.0</ele><time>2026-04-18T15:53:06.998Z</time></trkpt><trkpt lat="45.10569233760909" lon="8.282112153941501"><ele>151.0</ele><time>2026-04-18T15:53:07.998Z</time></trkpt><trkpt lat="45.10561501875503" lon="8.282334787420586"><ele>151.0</ele><time>2026-04-18T15:53:08.998Z</time></trkpt><trkpt lat="45.10556596213548" lon="8.282535181264564"><ele>150.66666666666669</ele><time>2026-04-18T15:53:09.998Z</time></trkpt><trkpt lat="45.10550412873783" lon="8.282729175221576"><ele>150.33333333333334</ele><time>2026-04-18T15:53:10.998Z</time></trkpt><trkpt lat="45.1055112413418" lon="8.282999472119581"><ele>150.0</ele><time>2026-04-18T15:53:11.998Z</time></trkpt><trkpt lat="45.105536706729836" lon="8.283248019829191"><ele>150.75</ele><time>2026-04-18T15:53:12.998Z</time></trkpt><trkpt lat="45.1055472737875" lon="8.283432586512259"><ele>151.5</ele><time>2026-04-18T15:53:13.998Z</time></trkpt><trkpt lat="45.105531754688734" lon="8.283566009293958"><ele>152.25</ele><time>2026-04-18T15:53:14.998Z</time></trkpt><trkpt lat="45.105450682498976" lon="8.28369475709371"><ele>153.0</ele><time>2026-04-18T15:53:15.998Z</time></trkpt><trkpt lat="45.10532321264613" lon="8.283860175602902"><ele>152.66666666666666</ele><time>2026-04-18T15:53:16.998Z</time></trkpt><trkpt lat="45.10517769654314" lon="8.284065903562302"><ele>152.33333333333331</ele><time>2026-04-18T15:53:17.998Z</time></trkpt><trkpt lat="45.105051587831035" lon="8.284310811674604"><ele>152.0</ele><time>2026-04-18T15:53:18.998Z</time></trkpt><trkpt lat="45.10494723379999" lon="8.28460855777951"><ele>156.0</ele><time>2026-04-18T15:53:19.998Z</time></trkpt><trkpt lat="45.104869957780494" lon="8.284903413885404"><ele>160.0</ele><time>2026-04-18T15:53:20.998Z</time></trkpt><trkpt lat="45.10482757943502" lon="8.285164216017881"><ele>164.0</ele><time>2026-04-18T15:53:21.998Z</time></trkpt><trkpt lat="45.10478263131192" lon="8.285377991446499"><ele>164.0</ele><time>2026-04-18T15:53:22.998Z</time></trkpt><trkpt lat="45.10470708987455" lon="8.285593118504046"><ele>164.0</ele><time>2026-04-18T15:53:23.998Z</time></trkpt><trkpt lat="45.10463767485106" lon="8.285739138282466"><ele>164.0</ele><time>2026-04-18T15:53:24.998Z</time></trkpt><trkpt lat="45.10454771970483" lon="8.285855889992105"><ele>164.0</ele><time>2026-04-18T15:53:25.998Z</time></trkpt><trkpt lat="45.104440420556216" lon="8.285923139637257"><ele>165.0</ele><time>2026-04-18T15:53:26.998Z</time></trkpt><trkpt lat="45.10428216875346" lon="8.28600696833083"><ele>166.0</ele><time>2026-04-18T15:53:27.998Z</time></trkpt><trkpt lat="45.10411402374386" lon="8.286076099538143"><ele>167.0</ele><time>2026-04-18T15:53:28.998Z</time></trkpt><trkpt lat="45.10397521671019" lon="8.286125188594262"><ele>169.0</ele><time>2026-04-18T15:53:29.998Z</time></trkpt><trkpt lat="45.10387160081395" lon="8.286192209650295"><ele>171.0</ele><time>2026-04-18T15:53:30.998Z</time></trkpt><trkpt lat="45.103778257814064" lon="8.286225463292872"><ele>173.0</ele><time>2026-04-18T15:53:31.998Z</time></trkpt><trkpt lat="45.10368410396717" lon="8.286274273813682"><ele>175.0</ele><time>2026-04-18T15:53:32.998Z</time></trkpt><trkpt lat="45.103582652603365" lon="8.286357606964042"><ele>177.0</ele><time>2026-04-18T15:53:33.998Z</time></trkpt><trkpt lat="45.10348215960793" lon="8.286460345352337"><ele>177.2</ele><time>2026-04-18T15:53:34.998Z</time></trkpt><trkpt lat="45.10342646704581" lon="8.286575376299094"><ele>177.39999999999998</ele><time>2026-04-18T15:53:35.998Z</time></trkpt><trkpt lat="45.10338708071658" lon="8.286692932106734"><ele>177.60000000000002</ele><time>2026-04-18T15:53:36.998Z</time></trkpt><trkpt lat="45.10329186136884" lon="8.286712778185988"><ele>177.8</ele><time>2026-04-18T15:53:37.998Z</time></trkpt><trkpt lat="45.10313702241055" lon="8.286727502461055"><ele>178.0</ele><time>2026-04-18T15:53:38.998Z</time></trkpt><trkpt lat="45.10302493421729" lon="8.286771230953686"><ele>179.25</ele><time>2026-04-18T15:53:39.998Z</time></trkpt><trkpt lat="45.10295315434196" lon="8.286863273020609"><ele>180.5</ele><time>2026-04-18T15:53:40.998Z</time></trkpt><trkpt lat="45.10288489419377" lon="8.286989489753143"><ele>181.75</ele><time>2026-04-18T15:53:41.998Z</time></trkpt><trkpt lat="45.10280352770735" lon="8.287196080629975"><ele>183.0</ele><time>2026-04-18T15:53:42.998Z</time></trkpt><trkpt lat="45.10271389564702" lon="8.287367319821078"><ele>183.0</ele><time>2026-04-18T15:53:43.998Z</time></trkpt><trkpt lat="45.10265177855571" lon="8.287503653536183"><ele>183.0</ele><time>2026-04-18T15:53:44.998Z</time></trkpt><trkpt lat="45.10260158250359" lon="8.287609711916065"><ele>183.0</ele><time>2026-04-18T15:53:45.998Z</time></trkpt><trkpt lat="45.102569802645334" lon="8.287709464205067"><ele>183.0</ele><time>2026-04-18T15:53:47.998Z</time></trkpt><trkpt lat="45.10261186789539" lon="8.287806125055502"><ele>183.0</ele><time>2026-04-18T15:53:50.999Z</time></trkpt><trkpt lat="45.102663319211864" lon="8.287871401492456"><ele>183.0</ele><time>2026-04-18T15:53:55.999Z</time></trkpt><trkpt lat="45.10281051826092" lon="8.287864734243172"><ele>183.0</ele><time>2026-04-18T15:53:57.999Z</time></trkpt><trkpt lat="45.10289213763819" lon="8.28788646960308"><ele>183.0</ele><time>2026-04-18T15:53:59.999Z</time></trkpt><trkpt lat="45.10296745886828" lon="8.287940688125104"><ele>183.0</ele><time>2026-04-18T15:54:02.999Z</time></trkpt><trkpt lat="45.103029943034784" lon="8.28795487908419"><ele>183.0</ele><time>2026-04-18T15:54:04.999Z</time></trkpt><trkpt lat="45.103116147879724" lon="8.287997736630734"><ele>183.0</ele><time>2026-04-18T15:54:07.999Z</time></trkpt><trkpt lat="45.103254350653245" lon="8.288085631925698"><ele>182.0</ele><time>2026-04-18T15:54:09.999Z</time></trkpt><trkpt lat="45.10336546305899" lon="8.288102397785288"><ele>181.0</ele><time>2026-04-18T15:54:10.999Z</time></trkpt><trkpt lat="45.103461553723086" lon="8.288141429485794"><ele>180.0</ele><time>2026-04-18T15:54:11.999Z</time></trkpt><trkpt lat="45.10353132537005" lon="8.28820787019126"><ele>179.0</ele><time>2026-04-18T15:54:12.999Z</time></trkpt><trkpt lat="45.10359695570282" lon="8.288338909327456"><ele>178.0</ele><time>2026-04-18T15:54:13.999Z</time></trkpt><trkpt lat="45.10370388572822" lon="8.288507740113275"><ele>178.0</ele><time>2026-04-18T15:54:14.999Z</time></trkpt><trkpt lat="45.10382737663372" lon="8.288686043965495"><ele>178.0</ele><time>2026-04-18T15:54:15.999Z</time></trkpt><trkpt lat="45.10394610155078" lon="8.288893205045579"><ele>178.0</ele><time>2026-04-18T15:54:16.999Z</time></trkpt><trkpt lat="45.104062799858305" lon="8.289076441553847"><ele>176.0</ele><time>2026-04-18T15:54:17.999Z</time></trkpt><trkpt lat="45.10419148688896" lon="8.289285944224876"><ele>174.0</ele><time>2026-04-18T15:54:18.999Z</time></trkpt><trkpt lat="45.10432289568504" lon="8.289494624018884"><ele>172.0</ele><time>2026-04-18T15:54:19.999Z</time></trkpt><trkpt lat="45.10444241200915" lon="8.289686934165806"><ele>171.33333333333334</ele><time>2026-04-18T15:54:20.999Z</time></trkpt><trkpt lat="45.104556632335026" lon="8.2898704976366"><ele>170.66666666666666</ele><time>2026-04-18T15:54:21.999Z</time></trkpt><trkpt lat="45.104669807881066" lon="8.290049764147655"><ele>170.0</ele><time>2026-04-18T15:54:22.999Z</time></trkpt><trkpt lat="45.104793678644995" lon="8.2902459051523"><ele>170.0</ele><time>2026-04-18T15:54:23.999Z</time></trkpt><trkpt lat="45.10490974407718" lon="8.290431159616238"><ele>170.0</ele><time>2026-04-18T15:54:24.999Z</time></trkpt><trkpt lat="45.10500275323435" lon="8.290613433061619"><ele>170.0</ele><time>2026-04-18T15:54:25.999Z</time></trkpt><trkpt lat="45.105111574513835" lon="8.2907828823381"><ele>170.0</ele><time>2026-04-18T15:54:26.999Z</time></trkpt><trkpt lat="45.105241448620355" lon="8.290955193911197"><ele>170.0</ele><time>2026-04-18T15:54:27.999Z</time></trkpt><trkpt lat="45.105347512760076" lon="8.29113523510356"><ele>170.0</ele><time>2026-04-18T15:54:28.999Z</time></trkpt><trkpt lat="45.10546585241966" lon="8.291330743557175"><ele>169.33333333333331</ele><time>2026-04-18T15:54:29.999Z</time></trkpt><trkpt lat="45.1055756719771" lon="8.291512262025321"><ele>168.66666666666666</ele><time>2026-04-18T15:54:30.999Z</time></trkpt><trkpt lat="45.10568106273063" lon="8.291682432167292"><ele>168.0</ele><time>2026-04-18T15:54:31.999Z</time></trkpt><trkpt lat="45.10577862329585" lon="8.291839922755885"><ele>168.0</ele><time>2026-04-18T15:54:32.999Z</time></trkpt><trkpt lat="45.10587657601761" lon="8.292002500550876"><ele>168.0</ele><time>2026-04-18T15:54:33.999Z</time></trkpt><trkpt lat="45.10597670697575" lon="8.292160525609122"><ele>168.0</ele><time>2026-04-18T15:54:34.999Z</time></trkpt><trkpt lat="45.10607565454798" lon="8.292315413008007"><ele>168.0</ele><time>2026-04-18T15:54:35.999Z</time></trkpt><trkpt lat="45.106174549490106" lon="8.292473011530396"><ele>167.75</ele><time>2026-04-18T15:54:36.999Z</time></trkpt><trkpt lat="45.10627263615994" lon="8.292630894308402"><ele>167.5</ele><time>2026-04-18T15:54:37.999Z</time></trkpt><trkpt lat="45.10635394306361" lon="8.292761469693357"><ele>167.25</ele><time>2026-04-18T15:54:38.999Z</time></trkpt><trkpt lat="45.106408721033006" lon="8.292892253863968"><ele>167.0</ele><time>2026-04-18T15:54:39.999Z</time></trkpt><trkpt lat="45.106459606705364" lon="8.29298926470445"><ele>166.6</ele><time>2026-04-18T15:54:40.999Z</time></trkpt><trkpt lat="45.10652135580676" lon="8.293124672761397"><ele>166.2</ele><time>2026-04-18T15:54:42.999Z</time></trkpt><trkpt lat="45.10642992806053" lon="8.293253264755101"><ele>165.8</ele><time>2026-04-18T15:54:45.999Z</time></trkpt><trkpt lat="45.10635248691053" lon="8.293328253424782"><ele>165.4</ele><time>2026-04-18T15:54:46.999Z</time></trkpt><trkpt lat="45.10626194575712" lon="8.293414224875596"><ele>165.0</ele><time>2026-04-18T15:54:47.999Z</time></trkpt><trkpt lat="45.10616966990144" lon="8.293524831172169"><ele>165.0</ele><time>2026-04-18T15:54:48.999Z</time></trkpt><trkpt lat="45.10605838750194" lon="8.293637080154946"><ele>165.0</ele><time>2026-04-18T15:54:49.999Z</time></trkpt><trkpt lat="45.105935685373915" lon="8.2937708059013"><ele>165.0</ele><time>2026-04-18T15:54:50.999Z</time></trkpt><trkpt lat="45.10581437207082" lon="8.293889264733858"><ele>165.0</ele><time>2026-04-18T15:54:51.999Z</time></trkpt><trkpt lat="45.1056991291413" lon="8.294005031990647"><ele>163.25</ele><time>2026-04-18T15:54:52.999Z</time></trkpt><trkpt lat="45.10557480601366" lon="8.294130679697252"><ele>161.5</ele><time>2026-04-18T15:54:53.999Z</time></trkpt><trkpt lat="45.105448831425306" lon="8.29425270367805"><ele>159.75</ele><time>2026-04-18T15:54:54.999Z</time></trkpt><trkpt lat="45.105333377777356" lon="8.294356807895827"><ele>158.0</ele><time>2026-04-18T15:54:55.999Z</time></trkpt><trkpt lat="45.10522439010986" lon="8.294464731296356"><ele>158.0</ele><time>2026-04-18T15:54:56.999Z</time></trkpt><trkpt lat="45.10511383568191" lon="8.294549452063087"><ele>158.0</ele><time>2026-04-18T15:54:57.999Z</time></trkpt><trkpt lat="45.10501890291552" lon="8.294635076764834"><ele>158.0</ele><time>2026-04-18T15:54:58.999Z</time></trkpt><trkpt lat="45.104926007210686" lon="8.294700036001966"><ele>158.0</ele><time>2026-04-18T15:54:59.999Z</time></trkpt><trkpt lat="45.10482904812085" lon="8.294744375990149"><ele>158.0</ele><time>2026-04-18T15:55:00.999Z</time></trkpt><trkpt lat="45.10469539838568" lon="8.294800129433376"><ele>158.33333333333331</ele><time>2026-04-18T15:55:01.999Z</time></trkpt><trkpt lat="45.10454476029192" lon="8.294884658100004"><ele>158.66666666666666</ele><time>2026-04-18T15:55:02.999Z</time></trkpt><trkpt lat="45.10439189516137" lon="8.294948796559053"><ele>159.0</ele><time>2026-04-18T15:55:03.999Z</time></trkpt><trkpt lat="45.10426136427994" lon="8.294980763451806"><ele>159.0</ele><time>2026-04-18T15:55:04.999Z</time></trkpt><trkpt lat="45.10415536775264" lon="8.29504646936032"><ele>159.0</ele><time>2026-04-18T15:55:05.999Z</time></trkpt><trkpt lat="45.10404827889566" lon="8.295082635614172"><ele>159.0</ele><time>2026-04-18T15:55:06.999Z</time></trkpt><trkpt lat="45.10395551176274" lon="8.295111358147231"><ele>159.0</ele><time>2026-04-18T15:55:07.999Z</time></trkpt><trkpt lat="45.10387413809071" lon="8.295138634954897"><ele>159.0</ele><time>2026-04-18T15:55:08.999Z</time></trkpt><trkpt lat="45.103793144496755" lon="8.295135711837661"><ele>160.4</ele><time>2026-04-18T15:55:10.999Z</time></trkpt><trkpt lat="45.10382749481314" lon="8.295297228556809"><ele>161.8</ele><time>2026-04-18T15:55:12.999Z</time></trkpt><trkpt lat="45.10387782176989" lon="8.295461919674727"><ele>163.20000000000002</ele><time>2026-04-18T15:55:14.999Z</time></trkpt><trkpt lat="45.10391797247578" lon="8.295557691641726"><ele>164.60000000000002</ele><time>2026-04-18T15:55:15.999Z</time></trkpt><trkpt lat="45.10395795754506" lon="8.29567583738918"><ele>166.0</ele><time>2026-04-18T15:55:16.999Z</time></trkpt><trkpt lat="45.10398782604227" lon="8.295829559250329"><ele>167.0</ele><time>2026-04-18T15:55:17.999Z</time></trkpt><trkpt lat="45.104004541154744" lon="8.296022809565695"><ele>168.0</ele><time>2026-04-18T15:55:18.999Z</time></trkpt><trkpt lat="45.1040412745606" lon="8.296219566954175"><ele>169.0</ele><time>2026-04-18T15:55:19.999Z</time></trkpt><trkpt lat="45.104074174722996" lon="8.296417105777632"><ele>170.0</ele><time>2026-04-18T15:55:20.999Z</time></trkpt><trkpt lat="45.10413187780452" lon="8.296635239551785"><ele>167.75</ele><time>2026-04-18T15:55:21.999Z</time></trkpt><trkpt lat="45.10419504519438" lon="8.296819946016486"><ele>165.5</ele><time>2026-04-18T15:55:22.999Z</time></trkpt><trkpt lat="45.104247107525886" lon="8.29698459463385"><ele>163.25</ele><time>2026-04-18T15:55:23.999Z</time></trkpt><trkpt lat="45.10426717221318" lon="8.297141170514521"><ele>161.0</ele><time>2026-04-18T15:55:24.998Z</time></trkpt><trkpt lat="45.10427703792886" lon="8.297306209096966"><ele>161.0</ele><time>2026-04-18T15:55:25.998Z</time></trkpt><trkpt lat="45.1042966624687" lon="8.297779396867117"><ele>161.0</ele><time>2026-04-18T15:55:27.998Z</time></trkpt><trkpt lat="45.10431267966196" lon="8.298026793581824"><ele>161.0</ele><time>2026-04-18T15:55:28.998Z</time></trkpt><trkpt lat="45.10432645199019" lon="8.29824428565185"><ele>161.0</ele><time>2026-04-18T15:55:29.998Z</time></trkpt><trkpt lat="45.104337969057745" lon="8.298433087263456"><ele>161.0</ele><time>2026-04-18T15:55:30.998Z</time></trkpt><trkpt lat="45.10435026891586" lon="8.298634720316702"><ele>161.0</ele><time>2026-04-18T15:55:31.998Z</time></trkpt><trkpt lat="45.10436271356609" lon="8.29884918832887"><ele>161.25</ele><time>2026-04-18T15:55:32.998Z</time></trkpt><trkpt lat="45.104375220511585" lon="8.299075304967271"><ele>161.5</ele><time>2026-04-18T15:55:33.998Z</time></trkpt><trkpt lat="45.10439144831995" lon="8.299276397708532"><ele>161.75</ele><time>2026-04-18T15:55:34.998Z</time></trkpt><trkpt lat="45.10438662887275" lon="8.299474408936332"><ele>162.0</ele><time>2026-04-18T15:55:35.998Z</time></trkpt><trkpt lat="45.10436365423315" lon="8.29968394939929"><ele>161.0</ele><time>2026-04-18T15:55:36.998Z</time></trkpt><trkpt lat="45.10432833051558" lon="8.299897286562564"><ele>160.0</ele><time>2026-04-18T15:55:37.998Z</time></trkpt><trkpt lat="45.1042952521645" lon="8.300096216511632"><ele>159.0</ele><time>2026-04-18T15:55:38.998Z</time></trkpt><trkpt lat="45.10426437901971" lon="8.300268349210727"><ele>158.0</ele><time>2026-04-18T15:55:39.998Z</time></trkpt><trkpt lat="45.104252628846346" lon="8.300416848920781"><ele>158.0</ele><time>2026-04-18T15:55:40.998Z</time></trkpt><trkpt lat="45.10425393773404" lon="8.30056630924952"><ele>158.0</ele><time>2026-04-18T15:55:41.998Z</time></trkpt><trkpt lat="45.10428313683511" lon="8.300733237165549"><ele>158.0</ele><time>2026-04-18T15:55:42.998Z</time></trkpt><trkpt lat="45.10431707537726" lon="8.30091342204957"><ele>158.0</ele><time>2026-04-18T15:55:43.998Z</time></trkpt><trkpt lat="45.104297580071496" lon="8.30108136019628"><ele>157.75</ele><time>2026-04-18T15:55:44.998Z</time></trkpt><trkpt lat="45.10427080853449" lon="8.301263394032814"><ele>157.5</ele><time>2026-04-18T15:55:45.998Z</time></trkpt><trkpt lat="45.104248577304524" lon="8.301469661886262"><ele>157.25</ele><time>2026-04-18T15:55:46.998Z</time></trkpt><trkpt lat="45.10420032984121" lon="8.301628049926737"><ele>157.0</ele><time>2026-04-18T15:55:47.998Z</time></trkpt><trkpt lat="45.10416565143776" lon="8.30175232211091"><ele>156.83333333333334</ele><time>2026-04-18T15:55:48.998Z</time></trkpt><trkpt lat="45.104130872284344" lon="8.301848428525274"><ele>156.66666666666669</ele><time>2026-04-18T15:55:49.998Z</time></trkpt><trkpt lat="45.10407939080197" lon="8.301960664022262"><ele>156.5</ele><time>2026-04-18T15:55:52.998Z</time></trkpt><trkpt lat="45.10414721664098" lon="8.302072694675465"><ele>156.33333333333334</ele><time>2026-04-18T15:55:54.998Z</time></trkpt><trkpt lat="45.1041858418165" lon="8.302148684808621"><ele>156.16666666666666</ele><time>2026-04-18T15:55:56.999Z</time></trkpt><trkpt lat="45.10423461189346" lon="8.302241965225422"><ele>156.0</ele><time>2026-04-18T15:55:58.999Z</time></trkpt><trkpt lat="45.10425360708228" lon="8.30237441183016"><ele>155.66666666666666</ele><time>2026-04-18T15:56:00.999Z</time></trkpt><trkpt lat="45.1042990296366" lon="8.302502683550022"><ele>155.33333333333334</ele><time>2026-04-18T15:56:02.999Z</time></trkpt><trkpt lat="45.10433455044241" lon="8.302662343919186"><ele>155.0</ele><time>2026-04-18T15:56:04.999Z</time></trkpt><trkpt lat="45.104346154333435" lon="8.302752401103081"><ele>154.66666666666669</ele><time>2026-04-18T15:56:05.999Z</time></trkpt><trkpt lat="45.10436036742915" lon="8.302840556547274"><ele>154.33333333333334</ele><time>2026-04-18T15:56:06.999Z</time></trkpt><trkpt lat="45.10437088009741" lon="8.30294458876992"><ele>154.0</ele><time>2026-04-18T15:56:07.999Z</time></trkpt><trkpt lat="45.104366277675204" lon="8.3030551193046"><ele>153.16666666666669</ele><time>2026-04-18T15:56:09Z</time></trkpt><trkpt lat="45.10435434732452" lon="8.30316743168435"><ele>152.33333333333334</ele><time>2026-04-18T15:56:10Z</time></trkpt><trkpt lat="45.10434246897074" lon="8.303277524426584"><ele>151.5</ele><time>2026-04-18T15:56:11Z</time></trkpt><trkpt lat="45.10433222689913" lon="8.303396299426414"><ele>150.66666666666666</ele><time>2026-04-18T15:56:12Z</time></trkpt><trkpt lat="45.104322978294334" lon="8.3035134965367"><ele>149.83333333333331</ele><time>2026-04-18T15:56:12.999Z</time></trkpt><trkpt lat="45.10430926131145" lon="8.303626573367024"><ele>149.0</ele><time>2026-04-18T15:56:13.999Z</time></trkpt><trkpt lat="45.104296878631665" lon="8.303741117757642"><ele>149.0</ele><time>2026-04-18T15:56:14.999Z</time></trkpt><trkpt lat="45.10428997622562" lon="8.303853796671104"><ele>149.0</ele><time>2026-04-18T15:56:15.999Z</time></trkpt><trkpt lat="45.104284402672675" lon="8.303967617597424"><ele>149.0</ele><time>2026-04-18T15:56:16.999Z</time></trkpt><trkpt lat="45.10427793611656" lon="8.304077687111501"><ele>149.0</ele><time>2026-04-18T15:56:17.999Z</time></trkpt><trkpt lat="45.10426647246624" lon="8.304185005905248"><ele>149.0</ele><time>2026-04-18T15:56:18.999Z</time></trkpt><trkpt lat="45.10425262391585" lon="8.304290653161418"><ele>149.0</ele><time>2026-04-18T15:56:19.999Z</time></trkpt><trkpt lat="45.10423839944278" lon="8.304398201494287"><ele>148.28571428571428</ele><time>2026-04-18T15:56:20.999Z</time></trkpt><trkpt lat="45.104226824858266" lon="8.304500299073558"><ele>147.57142857142856</ele><time>2026-04-18T15:56:21.999Z</time></trkpt><trkpt lat="45.104217461251125" lon="8.304603295960218"><ele>146.85714285714286</ele><time>2026-04-18T15:56:22.999Z</time></trkpt><trkpt lat="45.10420875306892" lon="8.30470299501784"><ele>146.14285714285714</ele><time>2026-04-18T15:56:23.999Z</time></trkpt><trkpt lat="45.10417935847074" lon="8.304792414826558"><ele>145.42857142857144</ele><time>2026-04-18T15:56:24.999Z</time></trkpt><trkpt lat="45.10416738769847" lon="8.304889818035013"><ele>144.71428571428572</ele><time>2026-04-18T15:56:25.999Z</time></trkpt><trkpt lat="45.10415668500458" lon="8.304985984850415"><ele>144.0</ele><time>2026-04-18T15:56:26.999Z</time></trkpt><trkpt lat="45.10414783289454" lon="8.305079615627871"><ele>143.8</ele><time>2026-04-18T15:56:27.999Z</time></trkpt><trkpt lat="45.10414063873727" lon="8.305171368382023"><ele>143.60000000000002</ele><time>2026-04-18T15:56:28.999Z</time></trkpt><trkpt lat="45.10413578323392" lon="8.305261049903619"><ele>143.4</ele><time>2026-04-18T15:56:29.999Z</time></trkpt><trkpt lat="45.10413395378755" lon="8.305433615895122"><ele>143.20000000000002</ele><time>2026-04-18T15:56:31.999Z</time></trkpt><trkpt lat="45.104136262025015" lon="8.305598802761056"><ele>143.0</ele><time>2026-04-18T15:56:33.999Z</time></trkpt><trkpt lat="45.104154395262654" lon="8.305757093902864"><ele>143.0</ele><time>2026-04-18T15:56:35.999Z</time></trkpt><trkpt lat="45.10415985243629" lon="8.30590385837139"><ele>143.0</ele><time>2026-04-18T15:56:37.999Z</time></trkpt><trkpt lat="45.10416131544744" lon="8.306040581686347"><ele>143.0</ele><time>2026-04-18T15:56:39.999Z</time></trkpt><trkpt lat="45.104166236855725" lon="8.306168464456606"><ele>143.0</ele><time>2026-04-18T15:56:41.999Z</time></trkpt><trkpt lat="45.10416645369294" lon="8.306287055651508"><ele>143.0</ele><time>2026-04-18T15:56:43.999Z</time></trkpt><trkpt lat="45.10417278369733" lon="8.306393357230057"><ele>143.0</ele><time>2026-04-18T15:56:45.999Z</time></trkpt><trkpt lat="45.10418014316995" lon="8.306488541866868"><ele>143.0</ele><time>2026-04-18T15:56:47.999Z</time></trkpt><trkpt lat="45.10418229433339" lon="8.306642196850698"><ele>143.0</ele><time>2026-04-18T15:56:49.999Z</time></trkpt><trkpt lat="45.10417658254995" lon="8.30676211760538"><ele>143.0</ele><time>2026-04-18T15:56:50.999Z</time></trkpt><trkpt lat="45.1041806937808" lon="8.306911048143927"><ele>143.0</ele><time>2026-04-18T15:56:51.999Z</time></trkpt><trkpt lat="45.10418251031248" lon="8.307026314735644"><ele>143.0</ele><time>2026-04-18T15:56:52.999Z</time></trkpt><trkpt lat="45.104184041596675" lon="8.307181919932038"><ele>143.16666666666666</ele><time>2026-04-18T15:56:54.999Z</time></trkpt><trkpt lat="45.10418476218984" lon="8.30728952827864"><ele>143.33333333333331</ele><time>2026-04-18T15:56:56.999Z</time></trkpt><trkpt lat="45.1041935867435" lon="8.307398841727673"><ele>143.5</ele><time>2026-04-18T15:56:59.999Z</time></trkpt><trkpt lat="45.10428435653317" lon="8.30744979028545"><ele>143.66666666666666</ele><time>2026-04-18T15:57:01.999Z</time></trkpt><trkpt lat="45.10439294649415" lon="8.30747303223425"><ele>143.83333333333334</ele><time>2026-04-18T15:57:03.999Z</time></trkpt><trkpt lat="45.10445665630591" lon="8.30748908294377"><ele>144.0</ele><time>2026-04-18T15:57:04.999Z</time></trkpt><trkpt lat="45.104526173560615" lon="8.307506679363309"><ele>144.0</ele><time>2026-04-18T15:57:05.999Z</time></trkpt><trkpt lat="45.10459779811768" lon="8.307523831446892"><ele>144.0</ele><time>2026-04-18T15:57:06.999Z</time></trkpt><trkpt lat="45.10469163883404" lon="8.307565793119746"><ele>144.0</ele><time>2026-04-18T15:57:08.999Z</time></trkpt><trkpt lat="45.104564632579724" lon="8.307513392083399"><ele>144.0</ele><time>2026-04-18T15:57:17.999Z</time></trkpt><trkpt lat="45.10444127510523" lon="8.307478297929135"><ele>144.0</ele><time>2026-04-18T15:57:18.999Z</time></trkpt><trkpt lat="45.10428015225041" lon="8.30741912113033"><ele>144.0</ele><time>2026-04-18T15:57:19.999Z</time></trkpt><trkpt lat="45.10410352662573" lon="8.307359713862022"><ele>144.0</ele><time>2026-04-18T15:57:20.999Z</time></trkpt><trkpt lat="45.103951949964745" lon="8.307303312715256"><ele>144.0</ele><time>2026-04-18T15:57:21.999Z</time></trkpt><trkpt lat="45.10382001627829" lon="8.307257252425638"><ele>144.0</ele><time>2026-04-18T15:57:22.999Z</time></trkpt><trkpt lat="45.10369522466284" lon="8.307221337534836"><ele>144.0</ele><time>2026-04-18T15:57:23.999Z</time></trkpt><trkpt lat="45.10357894708855" lon="8.307185578559071"><ele>144.0</ele><time>2026-04-18T15:57:24.999Z</time></trkpt><trkpt lat="45.10348931053202" lon="8.307156871979835"><ele>144.0</ele><time>2026-04-18T15:57:25.999Z</time></trkpt><trkpt lat="45.10341678833693" lon="8.307104567360536"><ele>144.0</ele><time>2026-04-18T15:57:27.999Z</time></trkpt><trkpt lat="45.103350063439855" lon="8.307137387566556"><ele>144.0</ele><time>2026-04-18T15:58:03.999Z</time></trkpt><trkpt lat="45.10328177643991" lon="8.307111969960985"><ele>144.0</ele><time>2026-04-18T15:58:04.999Z</time></trkpt><trkpt lat="45.10318273253492" lon="8.307065618566368"><ele>144.0</ele><time>2026-04-18T15:58:06.999Z</time></trkpt><trkpt lat="45.103118521544324" lon="8.307023823002254"><ele>144.0</ele><time>2026-04-18T15:58:09.999Z</time></trkpt><trkpt lat="45.10312320895213" lon="8.30690518333732"><ele>144.0</ele><time>2026-04-18T16:37:33.999Z</time></trkpt><trkpt lat="45.10319236454304" lon="8.306948851056847"><ele>144.0</ele><time>2026-04-18T16:53:17Z</time></trkpt><trkpt lat="45.103124037818795" lon="8.30694710539293"><ele>146.0</ele><time>2026-04-18T16:55:00.999Z</time></trkpt></trkseg></trk></gpx>